<?xml version="1.0" encoding="UTF-8"?>
<gpx version="1.1" creator="https://www.youtrack.es" xsi:schemaLocation="http://www.topografix.com/GPX/1/1 http://www.topografix.com/GPX/1/1/gpx.xsd http://www.garmin.com/xmlschemas/GpxExtensions/v3 http://www.garmin.com/xmlschemas/GpxExtensionsv3.xsd http://www.garmin.com/xmlschemas/TrackPointExtension/v1 http://www.garmin.com/xmlschemas/TrackPointExtensionv1.xsd" xmlns:gpxtpx="http://www.garmin.com/xmlschemas/TrackPointExtension/v1" xmlns:gpxx="http://www.garmin.com/xmlschemas/GpxExtensions/v3" xmlns:xsi="http://www.w3.org/2001/XMLSchema-instance">
  <metadata>
    <link href="https://www.youtrack.es">
      <text>YouTrack.es</text>
    </link>
    <time>2026-05-07T22:44:17Z</time>
  </metadata>
  <trk>
    <src>https://www.youtrack.es</src>
    <link href="https://www.youtrack.es/ruta/22980-andalucia">
      <text>YouTrack.es</text>
    </link>
    <trkseg>
      <trkpt lat="36.80427" lon="-2.581248">
        <ele>26.893</ele>
        <time>2021-06-16T09:07:19Z</time>
      </trkpt>
      <trkpt lat="36.804227" lon="-2.581222">
        <ele>25.165</ele>
        <time>2021-06-16T09:08:44Z</time>
      </trkpt>
      <trkpt lat="36.804266" lon="-2.58126">
        <ele>25.221</ele>
        <time>2021-06-16T09:09:28Z</time>
      </trkpt>
      <trkpt lat="36.804236" lon="-2.581217">
        <ele>25.308</ele>
        <time>2021-06-16T09:10:11Z</time>
      </trkpt>
      <trkpt lat="36.804259" lon="-2.581168">
        <ele>25.456</ele>
        <time>2021-06-16T09:10:37Z</time>
      </trkpt>
      <trkpt lat="36.804295" lon="-2.581237">
        <ele>25.324</ele>
        <time>2021-06-16T09:11:20Z</time>
      </trkpt>
      <trkpt lat="36.804275" lon="-2.581308">
        <ele>25.388</ele>
        <time>2021-06-16T09:11:21Z</time>
      </trkpt>
      <trkpt lat="36.804175" lon="-2.581453">
        <ele>25.377</ele>
        <time>2021-06-16T09:11:23Z</time>
      </trkpt>
      <trkpt lat="36.804084" lon="-2.581609">
        <ele>25.380</ele>
        <time>2021-06-16T09:11:25Z</time>
      </trkpt>
      <trkpt lat="36.804043" lon="-2.58169">
        <ele>25.367</ele>
        <time>2021-06-16T09:11:26Z</time>
      </trkpt>
      <trkpt lat="36.804003" lon="-2.581773">
        <ele>25.324</ele>
        <time>2021-06-16T09:11:27Z</time>
      </trkpt>
      <trkpt lat="36.803924" lon="-2.581916">
        <ele>25.364</ele>
        <time>2021-06-16T09:11:29Z</time>
      </trkpt>
      <trkpt lat="36.803892" lon="-2.581975">
        <ele>25.362</ele>
        <time>2021-06-16T09:11:30Z</time>
      </trkpt>
      <trkpt lat="36.803839" lon="-2.582063">
        <ele>25.383</ele>
        <time>2021-06-16T09:11:32Z</time>
      </trkpt>
      <trkpt lat="36.803791" lon="-2.582147">
        <ele>25.311</ele>
        <time>2021-06-16T09:11:34Z</time>
      </trkpt>
      <trkpt lat="36.803716" lon="-2.582267">
        <ele>25.308</ele>
        <time>2021-06-16T09:11:36Z</time>
      </trkpt>
      <trkpt lat="36.803674" lon="-2.58234">
        <ele>25.323</ele>
        <time>2021-06-16T09:11:37Z</time>
      </trkpt>
      <trkpt lat="36.803563" lon="-2.582493">
        <ele>25.311</ele>
        <time>2021-06-16T09:11:39Z</time>
      </trkpt>
      <trkpt lat="36.803416" lon="-2.582642">
        <ele>25.365</ele>
        <time>2021-06-16T09:11:41Z</time>
      </trkpt>
      <trkpt lat="36.803356" lon="-2.582712">
        <ele>25.354</ele>
        <time>2021-06-16T09:11:42Z</time>
      </trkpt>
      <trkpt lat="36.803256" lon="-2.582787">
        <ele>25.397</ele>
        <time>2021-06-16T09:11:44Z</time>
      </trkpt>
      <trkpt lat="36.803197" lon="-2.582825">
        <ele>25.384</ele>
        <time>2021-06-16T09:11:46Z</time>
      </trkpt>
      <trkpt lat="36.803116" lon="-2.58289">
        <ele>25.311</ele>
        <time>2021-06-16T09:11:48Z</time>
      </trkpt>
      <trkpt lat="36.803063" lon="-2.582935">
        <ele>25.391</ele>
        <time>2021-06-16T09:11:49Z</time>
      </trkpt>
      <trkpt lat="36.802966" lon="-2.583041">
        <ele>25.349</ele>
        <time>2021-06-16T09:11:51Z</time>
      </trkpt>
      <trkpt lat="36.802905" lon="-2.5831">
        <ele>25.302</ele>
        <time>2021-06-16T09:11:52Z</time>
      </trkpt>
      <trkpt lat="36.802777" lon="-2.583255">
        <ele>25.322</ele>
        <time>2021-06-16T09:11:54Z</time>
      </trkpt>
      <trkpt lat="36.802712" lon="-2.58334">
        <ele>25.308</ele>
        <time>2021-06-16T09:11:55Z</time>
      </trkpt>
      <trkpt lat="36.802654" lon="-2.583435">
        <ele>25.331</ele>
        <time>2021-06-16T09:11:56Z</time>
      </trkpt>
      <trkpt lat="36.802563" lon="-2.583632">
        <ele>25.379</ele>
        <time>2021-06-16T09:11:58Z</time>
      </trkpt>
      <trkpt lat="36.802487" lon="-2.583783">
        <ele>25.333</ele>
        <time>2021-06-16T09:12:00Z</time>
      </trkpt>
      <trkpt lat="36.80243" lon="-2.583915">
        <ele>25.362</ele>
        <time>2021-06-16T09:12:02Z</time>
      </trkpt>
      <trkpt lat="36.802425" lon="-2.583992">
        <ele>25.395</ele>
        <time>2021-06-16T09:12:03Z</time>
      </trkpt>
      <trkpt lat="36.802432" lon="-2.584073">
        <ele>25.342</ele>
        <time>2021-06-16T09:12:04Z</time>
      </trkpt>
      <trkpt lat="36.802491" lon="-2.584242">
        <ele>25.369</ele>
        <time>2021-06-16T09:12:06Z</time>
      </trkpt>
      <trkpt lat="36.802563" lon="-2.58442">
        <ele>25.349</ele>
        <time>2021-06-16T09:12:08Z</time>
      </trkpt>
      <trkpt lat="36.802601" lon="-2.5845">
        <ele>25.397</ele>
        <time>2021-06-16T09:12:09Z</time>
      </trkpt>
      <trkpt lat="36.802806" lon="-2.584596">
        <ele>25.323</ele>
        <time>2021-06-16T09:12:11Z</time>
      </trkpt>
      <trkpt lat="36.803058" lon="-2.584641">
        <ele>25.325</ele>
        <time>2021-06-16T09:12:13Z</time>
      </trkpt>
      <trkpt lat="36.803262" lon="-2.58474">
        <ele>25.308</ele>
        <time>2021-06-16T09:12:15Z</time>
      </trkpt>
      <trkpt lat="36.80346" lon="-2.58483">
        <ele>26.036</ele>
        <time>2021-06-16T09:12:17Z</time>
      </trkpt>
      <trkpt lat="36.803662" lon="-2.584901">
        <ele>27.124</ele>
        <time>2021-06-16T09:12:19Z</time>
      </trkpt>
      <trkpt lat="36.803858" lon="-2.584988">
        <ele>29.528</ele>
        <time>2021-06-16T09:12:21Z</time>
      </trkpt>
      <trkpt lat="36.803946" lon="-2.585042">
        <ele>31.357</ele>
        <time>2021-06-16T09:12:22Z</time>
      </trkpt>
      <trkpt lat="36.804123" lon="-2.585148">
        <ele>32.350</ele>
        <time>2021-06-16T09:12:24Z</time>
      </trkpt>
      <trkpt lat="36.80419" lon="-2.585216">
        <ele>33.687</ele>
        <time>2021-06-16T09:12:25Z</time>
      </trkpt>
      <trkpt lat="36.804343" lon="-2.585331">
        <ele>35.684</ele>
        <time>2021-06-16T09:12:27Z</time>
      </trkpt>
      <trkpt lat="36.804423" lon="-2.585373">
        <ele>37.094</ele>
        <time>2021-06-16T09:12:28Z</time>
      </trkpt>
      <trkpt lat="36.804505" lon="-2.585407">
        <ele>38.274</ele>
        <time>2021-06-16T09:12:29Z</time>
      </trkpt>
      <trkpt lat="36.804581" lon="-2.585437">
        <ele>38.956</ele>
        <time>2021-06-16T09:12:30Z</time>
      </trkpt>
      <trkpt lat="36.804655" lon="-2.585467">
        <ele>39.721</ele>
        <time>2021-06-16T09:12:31Z</time>
      </trkpt>
      <trkpt lat="36.804716" lon="-2.585501">
        <ele>40.008</ele>
        <time>2021-06-16T09:12:32Z</time>
      </trkpt>
      <trkpt lat="36.804835" lon="-2.58556">
        <ele>40.414</ele>
        <time>2021-06-16T09:12:34Z</time>
      </trkpt>
      <trkpt lat="36.804893" lon="-2.585591">
        <ele>40.962</ele>
        <time>2021-06-16T09:12:35Z</time>
      </trkpt>
      <trkpt lat="36.805008" lon="-2.585647">
        <ele>41.416</ele>
        <time>2021-06-16T09:12:37Z</time>
      </trkpt>
      <trkpt lat="36.805064" lon="-2.58568">
        <ele>42.055</ele>
        <time>2021-06-16T09:12:38Z</time>
      </trkpt>
      <trkpt lat="36.805121" lon="-2.585719">
        <ele>42.748</ele>
        <time>2021-06-16T09:12:39Z</time>
      </trkpt>
      <trkpt lat="36.805178" lon="-2.585759">
        <ele>43.555</ele>
        <time>2021-06-16T09:12:40Z</time>
      </trkpt>
      <trkpt lat="36.805305" lon="-2.58584">
        <ele>44.722</ele>
        <time>2021-06-16T09:12:42Z</time>
      </trkpt>
      <trkpt lat="36.805376" lon="-2.585879">
        <ele>45.212</ele>
        <time>2021-06-16T09:12:43Z</time>
      </trkpt>
      <trkpt lat="36.805449" lon="-2.585921">
        <ele>45.434</ele>
        <time>2021-06-16T09:12:44Z</time>
      </trkpt>
      <trkpt lat="36.805527" lon="-2.585961">
        <ele>45.755</ele>
        <time>2021-06-16T09:12:45Z</time>
      </trkpt>
      <trkpt lat="36.805607" lon="-2.585996">
        <ele>46.010</ele>
        <time>2021-06-16T09:12:46Z</time>
      </trkpt>
      <trkpt lat="36.80568" lon="-2.586032">
        <ele>45.808</ele>
        <time>2021-06-16T09:12:47Z</time>
      </trkpt>
      <trkpt lat="36.805825" lon="-2.586102">
        <ele>45.450</ele>
        <time>2021-06-16T09:12:49Z</time>
      </trkpt>
      <trkpt lat="36.805898" lon="-2.586137">
        <ele>45.248</ele>
        <time>2021-06-16T09:12:50Z</time>
      </trkpt>
      <trkpt lat="36.806044" lon="-2.586212">
        <ele>45.412</ele>
        <time>2021-06-16T09:12:52Z</time>
      </trkpt>
      <trkpt lat="36.8062" lon="-2.586278">
        <ele>45.931</ele>
        <time>2021-06-16T09:12:54Z</time>
      </trkpt>
      <trkpt lat="36.806327" lon="-2.586339">
        <ele>46.294</ele>
        <time>2021-06-16T09:12:56Z</time>
      </trkpt>
      <trkpt lat="36.806372" lon="-2.586367">
        <ele>45.911</ele>
        <time>2021-06-16T09:12:57Z</time>
      </trkpt>
      <trkpt lat="36.806465" lon="-2.586418">
        <ele>46.548</ele>
        <time>2021-06-16T09:12:59Z</time>
      </trkpt>
      <trkpt lat="36.806512" lon="-2.586439">
        <ele>46.518</ele>
        <time>2021-06-16T09:13:00Z</time>
      </trkpt>
      <trkpt lat="36.806625" lon="-2.586498">
        <ele>45.723</ele>
        <time>2021-06-16T09:13:02Z</time>
      </trkpt>
      <trkpt lat="36.806757" lon="-2.586558">
        <ele>45.183</ele>
        <time>2021-06-16T09:13:04Z</time>
      </trkpt>
      <trkpt lat="36.806829" lon="-2.586591">
        <ele>44.911</ele>
        <time>2021-06-16T09:13:05Z</time>
      </trkpt>
      <trkpt lat="36.806972" lon="-2.586669">
        <ele>45.508</ele>
        <time>2021-06-16T09:13:07Z</time>
      </trkpt>
      <trkpt lat="36.807042" lon="-2.586712">
        <ele>46.189</ele>
        <time>2021-06-16T09:13:08Z</time>
      </trkpt>
      <trkpt lat="36.807113" lon="-2.586751">
        <ele>46.467</ele>
        <time>2021-06-16T09:13:09Z</time>
      </trkpt>
      <trkpt lat="36.807253" lon="-2.586828">
        <ele>47.041</ele>
        <time>2021-06-16T09:13:11Z</time>
      </trkpt>
      <trkpt lat="36.807385" lon="-2.586915">
        <ele>47.860</ele>
        <time>2021-06-16T09:13:13Z</time>
      </trkpt>
      <trkpt lat="36.80745" lon="-2.586954">
        <ele>48.793</ele>
        <time>2021-06-16T09:13:14Z</time>
      </trkpt>
      <trkpt lat="36.807567" lon="-2.587007">
        <ele>49.430</ele>
        <time>2021-06-16T09:13:16Z</time>
      </trkpt>
      <trkpt lat="36.80765" lon="-2.587033">
        <ele>49.987</ele>
        <time>2021-06-16T09:13:18Z</time>
      </trkpt>
      <trkpt lat="36.80771" lon="-2.587079">
        <ele>49.177</ele>
        <time>2021-06-16T09:13:24Z</time>
      </trkpt>
      <trkpt lat="36.807778" lon="-2.587115">
        <ele>48.788</ele>
        <time>2021-06-16T09:13:26Z</time>
      </trkpt>
      <trkpt lat="36.807863" lon="-2.58716">
        <ele>48.424</ele>
        <time>2021-06-16T09:13:28Z</time>
      </trkpt>
      <trkpt lat="36.807957" lon="-2.587216">
        <ele>48.226</ele>
        <time>2021-06-16T09:13:30Z</time>
      </trkpt>
      <trkpt lat="36.808006" lon="-2.587249">
        <ele>48.108</ele>
        <time>2021-06-16T09:13:31Z</time>
      </trkpt>
      <trkpt lat="36.808112" lon="-2.5873">
        <ele>48.165</ele>
        <time>2021-06-16T09:13:33Z</time>
      </trkpt>
      <trkpt lat="36.808168" lon="-2.587325">
        <ele>48.193</ele>
        <time>2021-06-16T09:13:34Z</time>
      </trkpt>
      <trkpt lat="36.808259" lon="-2.587378">
        <ele>48.197</ele>
        <time>2021-06-16T09:13:36Z</time>
      </trkpt>
      <trkpt lat="36.808303" lon="-2.587404">
        <ele>48.126</ele>
        <time>2021-06-16T09:13:38Z</time>
      </trkpt>
      <trkpt lat="36.808332" lon="-2.587448">
        <ele>48.839</ele>
        <time>2021-06-16T09:14:14Z</time>
      </trkpt>
      <trkpt lat="36.808393" lon="-2.587506">
        <ele>49.266</ele>
        <time>2021-06-16T09:14:16Z</time>
      </trkpt>
      <trkpt lat="36.808484" lon="-2.587567">
        <ele>49.573</ele>
        <time>2021-06-16T09:14:18Z</time>
      </trkpt>
      <trkpt lat="36.808544" lon="-2.587628">
        <ele>49.793</ele>
        <time>2021-06-16T09:14:19Z</time>
      </trkpt>
      <trkpt lat="36.8086" lon="-2.587684">
        <ele>49.853</ele>
        <time>2021-06-16T09:14:20Z</time>
      </trkpt>
      <trkpt lat="36.808699" lon="-2.587769">
        <ele>49.904</ele>
        <time>2021-06-16T09:14:22Z</time>
      </trkpt>
      <trkpt lat="36.808805" lon="-2.587841">
        <ele>49.914</ele>
        <time>2021-06-16T09:14:24Z</time>
      </trkpt>
      <trkpt lat="36.808857" lon="-2.587875">
        <ele>49.908</ele>
        <time>2021-06-16T09:14:25Z</time>
      </trkpt>
      <trkpt lat="36.808948" lon="-2.587938">
        <ele>49.972</ele>
        <time>2021-06-16T09:14:27Z</time>
      </trkpt>
      <trkpt lat="36.809035" lon="-2.587999">
        <ele>49.930</ele>
        <time>2021-06-16T09:14:29Z</time>
      </trkpt>
      <trkpt lat="36.80908" lon="-2.588027">
        <ele>49.924</ele>
        <time>2021-06-16T09:14:30Z</time>
      </trkpt>
      <trkpt lat="36.809149" lon="-2.588076">
        <ele>49.953</ele>
        <time>2021-06-16T09:14:32Z</time>
      </trkpt>
      <trkpt lat="36.809224" lon="-2.588126">
        <ele>49.976</ele>
        <time>2021-06-16T09:14:34Z</time>
      </trkpt>
      <trkpt lat="36.809268" lon="-2.588169">
        <ele>49.953</ele>
        <time>2021-06-16T09:14:35Z</time>
      </trkpt>
      <trkpt lat="36.80939" lon="-2.588258">
        <ele>49.970</ele>
        <time>2021-06-16T09:14:37Z</time>
      </trkpt>
      <trkpt lat="36.809472" lon="-2.588303">
        <ele>49.970</ele>
        <time>2021-06-16T09:14:38Z</time>
      </trkpt>
      <trkpt lat="36.809641" lon="-2.588407">
        <ele>49.925</ele>
        <time>2021-06-16T09:14:40Z</time>
      </trkpt>
      <trkpt lat="36.809785" lon="-2.588489">
        <ele>49.926</ele>
        <time>2021-06-16T09:14:42Z</time>
      </trkpt>
      <trkpt lat="36.809833" lon="-2.588495">
        <ele>49.908</ele>
        <time>2021-06-16T09:14:44Z</time>
      </trkpt>
      <trkpt lat="36.809922" lon="-2.588558">
        <ele>50.508</ele>
        <time>2021-06-16T09:14:51Z</time>
      </trkpt>
      <trkpt lat="36.809982" lon="-2.588599">
        <ele>50.859</ele>
        <time>2021-06-16T09:14:52Z</time>
      </trkpt>
      <trkpt lat="36.81005" lon="-2.588633">
        <ele>51.097</ele>
        <time>2021-06-16T09:14:53Z</time>
      </trkpt>
      <trkpt lat="36.810152" lon="-2.58868">
        <ele>51.121</ele>
        <time>2021-06-16T09:14:55Z</time>
      </trkpt>
      <trkpt lat="36.810208" lon="-2.588708">
        <ele>51.250</ele>
        <time>2021-06-16T09:14:57Z</time>
      </trkpt>
      <trkpt lat="36.810283" lon="-2.58869">
        <ele>51.293</ele>
        <time>2021-06-16T09:14:59Z</time>
      </trkpt>
      <trkpt lat="36.810374" lon="-2.588641">
        <ele>51.270</ele>
        <time>2021-06-16T09:15:01Z</time>
      </trkpt>
      <trkpt lat="36.810453" lon="-2.588663">
        <ele>51.267</ele>
        <time>2021-06-16T09:15:03Z</time>
      </trkpt>
      <trkpt lat="36.810484" lon="-2.588716">
        <ele>51.287</ele>
        <time>2021-06-16T09:15:04Z</time>
      </trkpt>
      <trkpt lat="36.810493" lon="-2.588788">
        <ele>51.222</ele>
        <time>2021-06-16T09:15:05Z</time>
      </trkpt>
      <trkpt lat="36.810481" lon="-2.588866">
        <ele>51.262</ele>
        <time>2021-06-16T09:15:06Z</time>
      </trkpt>
      <trkpt lat="36.810459" lon="-2.588948">
        <ele>51.208</ele>
        <time>2021-06-16T09:15:07Z</time>
      </trkpt>
      <trkpt lat="36.810405" lon="-2.589133">
        <ele>51.208</ele>
        <time>2021-06-16T09:15:09Z</time>
      </trkpt>
      <trkpt lat="36.810375" lon="-2.589242">
        <ele>51.249</ele>
        <time>2021-06-16T09:15:10Z</time>
      </trkpt>
      <trkpt lat="36.810315" lon="-2.58948">
        <ele>51.257</ele>
        <time>2021-06-16T09:15:12Z</time>
      </trkpt>
      <trkpt lat="36.810289" lon="-2.589608">
        <ele>51.211</ele>
        <time>2021-06-16T09:15:13Z</time>
      </trkpt>
      <trkpt lat="36.810268" lon="-2.589737">
        <ele>51.270</ele>
        <time>2021-06-16T09:15:14Z</time>
      </trkpt>
      <trkpt lat="36.810229" lon="-2.58997">
        <ele>51.273</ele>
        <time>2021-06-16T09:15:16Z</time>
      </trkpt>
      <trkpt lat="36.810214" lon="-2.590085">
        <ele>51.250</ele>
        <time>2021-06-16T09:15:17Z</time>
      </trkpt>
      <trkpt lat="36.810195" lon="-2.590192">
        <ele>51.227</ele>
        <time>2021-06-16T09:15:18Z</time>
      </trkpt>
      <trkpt lat="36.810149" lon="-2.590403">
        <ele>51.227</ele>
        <time>2021-06-16T09:15:20Z</time>
      </trkpt>
      <trkpt lat="36.810128" lon="-2.590513">
        <ele>51.232</ele>
        <time>2021-06-16T09:15:21Z</time>
      </trkpt>
      <trkpt lat="36.810092" lon="-2.590732">
        <ele>51.292</ele>
        <time>2021-06-16T09:15:23Z</time>
      </trkpt>
      <trkpt lat="36.810064" lon="-2.590963">
        <ele>51.211</ele>
        <time>2021-06-16T09:15:25Z</time>
      </trkpt>
      <trkpt lat="36.810025" lon="-2.591181">
        <ele>51.208</ele>
        <time>2021-06-16T09:15:27Z</time>
      </trkpt>
      <trkpt lat="36.810004" lon="-2.59129">
        <ele>51.220</ele>
        <time>2021-06-16T09:15:28Z</time>
      </trkpt>
      <trkpt lat="36.809985" lon="-2.591402">
        <ele>51.268</ele>
        <time>2021-06-16T09:15:29Z</time>
      </trkpt>
      <trkpt lat="36.809953" lon="-2.591627">
        <ele>51.232</ele>
        <time>2021-06-16T09:15:31Z</time>
      </trkpt>
      <trkpt lat="36.809909" lon="-2.591861">
        <ele>51.281</ele>
        <time>2021-06-16T09:15:33Z</time>
      </trkpt>
      <trkpt lat="36.809895" lon="-2.591974">
        <ele>51.224</ele>
        <time>2021-06-16T09:15:34Z</time>
      </trkpt>
      <trkpt lat="36.809883" lon="-2.592082">
        <ele>51.251</ele>
        <time>2021-06-16T09:15:35Z</time>
      </trkpt>
      <trkpt lat="36.809845" lon="-2.592301">
        <ele>51.248</ele>
        <time>2021-06-16T09:15:37Z</time>
      </trkpt>
      <trkpt lat="36.809794" lon="-2.592515">
        <ele>51.248</ele>
        <time>2021-06-16T09:15:39Z</time>
      </trkpt>
      <trkpt lat="36.809762" lon="-2.592734">
        <ele>51.255</ele>
        <time>2021-06-16T09:15:41Z</time>
      </trkpt>
      <trkpt lat="36.809747" lon="-2.59284">
        <ele>51.207</ele>
        <time>2021-06-16T09:15:42Z</time>
      </trkpt>
      <trkpt lat="36.809719" lon="-2.593044">
        <ele>51.217</ele>
        <time>2021-06-16T09:15:44Z</time>
      </trkpt>
      <trkpt lat="36.809685" lon="-2.593255">
        <ele>51.208</ele>
        <time>2021-06-16T09:15:46Z</time>
      </trkpt>
      <trkpt lat="36.809649" lon="-2.593463">
        <ele>51.232</ele>
        <time>2021-06-16T09:15:48Z</time>
      </trkpt>
      <trkpt lat="36.809625" lon="-2.593565">
        <ele>55.240</ele>
        <time>2021-06-16T09:15:49Z</time>
      </trkpt>
      <trkpt lat="36.809597" lon="-2.59374">
        <ele>59.034</ele>
        <time>2021-06-16T09:15:51Z</time>
      </trkpt>
      <trkpt lat="36.8096" lon="-2.593796">
        <ele>61.013</ele>
        <time>2021-06-16T09:15:52Z</time>
      </trkpt>
      <trkpt lat="36.809631" lon="-2.593855">
        <ele>62.526</ele>
        <time>2021-06-16T09:15:55Z</time>
      </trkpt>
      <trkpt lat="36.809658" lon="-2.593775">
        <ele>61.893</ele>
        <time>2021-06-16T09:16:01Z</time>
      </trkpt>
      <trkpt lat="36.809654" lon="-2.593688">
        <ele>61.480</ele>
        <time>2021-06-16T09:16:03Z</time>
      </trkpt>
      <trkpt lat="36.809675" lon="-2.593597">
        <ele>61.160</ele>
        <time>2021-06-16T09:16:05Z</time>
      </trkpt>
      <trkpt lat="36.809713" lon="-2.593523">
        <ele>60.948</ele>
        <time>2021-06-16T09:16:07Z</time>
      </trkpt>
      <trkpt lat="36.809678" lon="-2.593587">
        <ele>60.861</ele>
        <time>2021-06-16T09:18:45Z</time>
      </trkpt>
      <trkpt lat="36.809669" lon="-2.593711">
        <ele>60.717</ele>
        <time>2021-06-16T09:18:47Z</time>
      </trkpt>
      <trkpt lat="36.809664" lon="-2.593776">
        <ele>60.708</ele>
        <time>2021-06-16T09:18:48Z</time>
      </trkpt>
      <trkpt lat="36.809656" lon="-2.593836">
        <ele>60.791</ele>
        <time>2021-06-16T09:18:49Z</time>
      </trkpt>
      <trkpt lat="36.809631" lon="-2.593967">
        <ele>60.729</ele>
        <time>2021-06-16T09:18:51Z</time>
      </trkpt>
      <trkpt lat="36.80959" lon="-2.594072">
        <ele>60.773</ele>
        <time>2021-06-16T09:18:53Z</time>
      </trkpt>
      <trkpt lat="36.80954" lon="-2.594112">
        <ele>60.762</ele>
        <time>2021-06-16T09:18:55Z</time>
      </trkpt>
      <trkpt lat="36.809496" lon="-2.594179">
        <ele>60.745</ele>
        <time>2021-06-16T09:19:02Z</time>
      </trkpt>
      <trkpt lat="36.809461" lon="-2.594318">
        <ele>60.782</ele>
        <time>2021-06-16T09:19:04Z</time>
      </trkpt>
      <trkpt lat="36.809446" lon="-2.594446">
        <ele>60.729</ele>
        <time>2021-06-16T09:19:05Z</time>
      </trkpt>
      <trkpt lat="36.809426" lon="-2.594578">
        <ele>60.789</ele>
        <time>2021-06-16T09:19:06Z</time>
      </trkpt>
      <trkpt lat="36.809379" lon="-2.594841">
        <ele>60.723</ele>
        <time>2021-06-16T09:19:08Z</time>
      </trkpt>
      <trkpt lat="36.809352" lon="-2.594973">
        <ele>60.783</ele>
        <time>2021-06-16T09:19:09Z</time>
      </trkpt>
      <trkpt lat="36.809302" lon="-2.595232">
        <ele>60.711</ele>
        <time>2021-06-16T09:19:11Z</time>
      </trkpt>
      <trkpt lat="36.809277" lon="-2.595358">
        <ele>60.708</ele>
        <time>2021-06-16T09:19:12Z</time>
      </trkpt>
      <trkpt lat="36.809226" lon="-2.595603">
        <ele>60.779</ele>
        <time>2021-06-16T09:19:14Z</time>
      </trkpt>
      <trkpt lat="36.809205" lon="-2.595721">
        <ele>60.737</ele>
        <time>2021-06-16T09:19:15Z</time>
      </trkpt>
      <trkpt lat="36.809165" lon="-2.595948">
        <ele>60.751</ele>
        <time>2021-06-16T09:19:17Z</time>
      </trkpt>
      <trkpt lat="36.809132" lon="-2.596181">
        <ele>60.770</ele>
        <time>2021-06-16T09:19:19Z</time>
      </trkpt>
      <trkpt lat="36.809105" lon="-2.59642">
        <ele>60.743</ele>
        <time>2021-06-16T09:19:21Z</time>
      </trkpt>
      <trkpt lat="36.809099" lon="-2.596663">
        <ele>60.760</ele>
        <time>2021-06-16T09:19:23Z</time>
      </trkpt>
      <trkpt lat="36.809109" lon="-2.596901">
        <ele>60.727</ele>
        <time>2021-06-16T09:19:25Z</time>
      </trkpt>
      <trkpt lat="36.809124" lon="-2.597026">
        <ele>60.787</ele>
        <time>2021-06-16T09:19:26Z</time>
      </trkpt>
      <trkpt lat="36.809144" lon="-2.597146">
        <ele>60.789</ele>
        <time>2021-06-16T09:19:27Z</time>
      </trkpt>
      <trkpt lat="36.809212" lon="-2.597352">
        <ele>60.706</ele>
        <time>2021-06-16T09:19:29Z</time>
      </trkpt>
      <trkpt lat="36.809271" lon="-2.597428">
        <ele>60.726</ele>
        <time>2021-06-16T09:19:30Z</time>
      </trkpt>
      <trkpt lat="36.809345" lon="-2.597478">
        <ele>60.708</ele>
        <time>2021-06-16T09:19:31Z</time>
      </trkpt>
      <trkpt lat="36.809428" lon="-2.5975">
        <ele>60.725</ele>
        <time>2021-06-16T09:19:32Z</time>
      </trkpt>
      <trkpt lat="36.809616" lon="-2.59752">
        <ele>60.763</ele>
        <time>2021-06-16T09:19:34Z</time>
      </trkpt>
      <trkpt lat="36.809832" lon="-2.597551">
        <ele>60.777</ele>
        <time>2021-06-16T09:19:36Z</time>
      </trkpt>
      <trkpt lat="36.809947" lon="-2.597574">
        <ele>60.776</ele>
        <time>2021-06-16T09:19:37Z</time>
      </trkpt>
      <trkpt lat="36.810065" lon="-2.597603">
        <ele>60.719</ele>
        <time>2021-06-16T09:19:38Z</time>
      </trkpt>
      <trkpt lat="36.810308" lon="-2.597662">
        <ele>60.766</ele>
        <time>2021-06-16T09:19:40Z</time>
      </trkpt>
      <trkpt lat="36.810547" lon="-2.59772">
        <ele>62.483</ele>
        <time>2021-06-16T09:19:42Z</time>
      </trkpt>
      <trkpt lat="36.810787" lon="-2.597779">
        <ele>63.853</ele>
        <time>2021-06-16T09:19:44Z</time>
      </trkpt>
      <trkpt lat="36.811028" lon="-2.597835">
        <ele>64.325</ele>
        <time>2021-06-16T09:19:46Z</time>
      </trkpt>
      <trkpt lat="36.811278" lon="-2.597892">
        <ele>65.326</ele>
        <time>2021-06-16T09:19:48Z</time>
      </trkpt>
      <trkpt lat="36.811405" lon="-2.597928">
        <ele>66.608</ele>
        <time>2021-06-16T09:19:49Z</time>
      </trkpt>
      <trkpt lat="36.811665" lon="-2.598">
        <ele>67.708</ele>
        <time>2021-06-16T09:19:51Z</time>
      </trkpt>
      <trkpt lat="36.811922" lon="-2.59806">
        <ele>68.469</ele>
        <time>2021-06-16T09:19:53Z</time>
      </trkpt>
      <trkpt lat="36.812049" lon="-2.598087">
        <ele>68.557</ele>
        <time>2021-06-16T09:19:54Z</time>
      </trkpt>
      <trkpt lat="36.812304" lon="-2.59814">
        <ele>68.651</ele>
        <time>2021-06-16T09:19:56Z</time>
      </trkpt>
      <trkpt lat="36.812431" lon="-2.598159">
        <ele>68.810</ele>
        <time>2021-06-16T09:19:57Z</time>
      </trkpt>
      <trkpt lat="36.812682" lon="-2.598203">
        <ele>69.123</ele>
        <time>2021-06-16T09:19:59Z</time>
      </trkpt>
      <trkpt lat="36.812806" lon="-2.598229">
        <ele>69.540</ele>
        <time>2021-06-16T09:20:00Z</time>
      </trkpt>
      <trkpt lat="36.813025" lon="-2.598266">
        <ele>69.937</ele>
        <time>2021-06-16T09:20:02Z</time>
      </trkpt>
      <trkpt lat="36.813095" lon="-2.598282">
        <ele>69.267</ele>
        <time>2021-06-16T09:20:04Z</time>
      </trkpt>
      <trkpt lat="36.813024" lon="-2.598267">
        <ele>68.494</ele>
        <time>2021-06-16T09:20:06Z</time>
      </trkpt>
      <trkpt lat="36.813085" lon="-2.598286">
        <ele>69.757</ele>
        <time>2021-06-16T09:21:18Z</time>
      </trkpt>
      <trkpt lat="36.81316" lon="-2.598312">
        <ele>70.522</ele>
        <time>2021-06-16T09:21:20Z</time>
      </trkpt>
      <trkpt lat="36.813282" lon="-2.598352">
        <ele>71.008</ele>
        <time>2021-06-16T09:21:22Z</time>
      </trkpt>
      <trkpt lat="36.813357" lon="-2.598372">
        <ele>71.326</ele>
        <time>2021-06-16T09:21:23Z</time>
      </trkpt>
      <trkpt lat="36.813437" lon="-2.598394">
        <ele>71.584</ele>
        <time>2021-06-16T09:21:24Z</time>
      </trkpt>
      <trkpt lat="36.813519" lon="-2.598415">
        <ele>71.668</ele>
        <time>2021-06-16T09:21:25Z</time>
      </trkpt>
      <trkpt lat="36.813682" lon="-2.598451">
        <ele>71.797</ele>
        <time>2021-06-16T09:21:27Z</time>
      </trkpt>
      <trkpt lat="36.813852" lon="-2.598494">
        <ele>71.870</ele>
        <time>2021-06-16T09:21:29Z</time>
      </trkpt>
      <trkpt lat="36.813936" lon="-2.598515">
        <ele>71.867</ele>
        <time>2021-06-16T09:21:30Z</time>
      </trkpt>
      <trkpt lat="36.814019" lon="-2.598537">
        <ele>71.864</ele>
        <time>2021-06-16T09:21:31Z</time>
      </trkpt>
      <trkpt lat="36.814198" lon="-2.598581">
        <ele>71.874</ele>
        <time>2021-06-16T09:21:33Z</time>
      </trkpt>
      <trkpt lat="36.814383" lon="-2.598628">
        <ele>71.817</ele>
        <time>2021-06-16T09:21:35Z</time>
      </trkpt>
      <trkpt lat="36.814476" lon="-2.598652">
        <ele>71.887</ele>
        <time>2021-06-16T09:21:36Z</time>
      </trkpt>
      <trkpt lat="36.814658" lon="-2.598695">
        <ele>71.815</ele>
        <time>2021-06-16T09:21:38Z</time>
      </trkpt>
      <trkpt lat="36.814833" lon="-2.598731">
        <ele>71.808</ele>
        <time>2021-06-16T09:21:40Z</time>
      </trkpt>
      <trkpt lat="36.814914" lon="-2.598752">
        <ele>71.858</ele>
        <time>2021-06-16T09:21:41Z</time>
      </trkpt>
      <trkpt lat="36.815047" lon="-2.598781">
        <ele>71.816</ele>
        <time>2021-06-16T09:21:43Z</time>
      </trkpt>
      <trkpt lat="36.81511" lon="-2.598792">
        <ele>71.890</ele>
        <time>2021-06-16T09:21:44Z</time>
      </trkpt>
      <trkpt lat="36.815185" lon="-2.598805">
        <ele>71.819</ele>
        <time>2021-06-16T09:21:47Z</time>
      </trkpt>
      <trkpt lat="36.815232" lon="-2.598809">
        <ele>71.852</ele>
        <time>2021-06-16T09:21:49Z</time>
      </trkpt>
      <trkpt lat="36.81529" lon="-2.598814">
        <ele>71.869</ele>
        <time>2021-06-16T09:21:52Z</time>
      </trkpt>
      <trkpt lat="36.81534" lon="-2.598822">
        <ele>71.866</ele>
        <time>2021-06-16T09:21:56Z</time>
      </trkpt>
      <trkpt lat="36.815395" lon="-2.598831">
        <ele>71.846</ele>
        <time>2021-06-16T09:22:00Z</time>
      </trkpt>
      <trkpt lat="36.815449" lon="-2.598845">
        <ele>71.852</ele>
        <time>2021-06-16T09:22:03Z</time>
      </trkpt>
      <trkpt lat="36.815499" lon="-2.598869">
        <ele>71.853</ele>
        <time>2021-06-16T09:22:05Z</time>
      </trkpt>
      <trkpt lat="36.815567" lon="-2.598896">
        <ele>71.808</ele>
        <time>2021-06-16T09:22:07Z</time>
      </trkpt>
      <trkpt lat="36.815691" lon="-2.598879">
        <ele>71.808</ele>
        <time>2021-06-16T09:22:09Z</time>
      </trkpt>
      <trkpt lat="36.815835" lon="-2.598857">
        <ele>71.852</ele>
        <time>2021-06-16T09:22:11Z</time>
      </trkpt>
      <trkpt lat="36.815908" lon="-2.598876">
        <ele>71.870</ele>
        <time>2021-06-16T09:22:12Z</time>
      </trkpt>
      <trkpt lat="36.815976" lon="-2.598914">
        <ele>71.864</ele>
        <time>2021-06-16T09:22:13Z</time>
      </trkpt>
      <trkpt lat="36.816088" lon="-2.599018">
        <ele>71.833</ele>
        <time>2021-06-16T09:22:15Z</time>
      </trkpt>
      <trkpt lat="36.816212" lon="-2.599114">
        <ele>71.896</ele>
        <time>2021-06-16T09:22:17Z</time>
      </trkpt>
      <trkpt lat="36.816342" lon="-2.599117">
        <ele>71.843</ele>
        <time>2021-06-16T09:22:19Z</time>
      </trkpt>
      <trkpt lat="36.81642" lon="-2.599096">
        <ele>71.860</ele>
        <time>2021-06-16T09:22:20Z</time>
      </trkpt>
      <trkpt lat="36.816503" lon="-2.59907">
        <ele>71.810</ele>
        <time>2021-06-16T09:22:21Z</time>
      </trkpt>
      <trkpt lat="36.816683" lon="-2.599022">
        <ele>71.847</ele>
        <time>2021-06-16T09:22:23Z</time>
      </trkpt>
      <trkpt lat="36.816883" lon="-2.598975">
        <ele>71.829</ele>
        <time>2021-06-16T09:22:25Z</time>
      </trkpt>
      <trkpt lat="36.816987" lon="-2.598955">
        <ele>71.821</ele>
        <time>2021-06-16T09:22:26Z</time>
      </trkpt>
      <trkpt lat="36.817195" lon="-2.598904">
        <ele>71.808</ele>
        <time>2021-06-16T09:22:28Z</time>
      </trkpt>
      <trkpt lat="36.817405" lon="-2.598855">
        <ele>71.861</ele>
        <time>2021-06-16T09:22:30Z</time>
      </trkpt>
      <trkpt lat="36.817508" lon="-2.59883">
        <ele>71.859</ele>
        <time>2021-06-16T09:22:31Z</time>
      </trkpt>
      <trkpt lat="36.817707" lon="-2.598787">
        <ele>71.873</ele>
        <time>2021-06-16T09:22:33Z</time>
      </trkpt>
      <trkpt lat="36.817806" lon="-2.598769">
        <ele>71.822</ele>
        <time>2021-06-16T09:22:34Z</time>
      </trkpt>
      <trkpt lat="36.817993" lon="-2.598729">
        <ele>71.835</ele>
        <time>2021-06-16T09:22:36Z</time>
      </trkpt>
      <trkpt lat="36.818091" lon="-2.598706">
        <ele>71.852</ele>
        <time>2021-06-16T09:22:37Z</time>
      </trkpt>
      <trkpt lat="36.818284" lon="-2.598666">
        <ele>71.819</ele>
        <time>2021-06-16T09:22:39Z</time>
      </trkpt>
      <trkpt lat="36.818441" lon="-2.598625">
        <ele>71.849</ele>
        <time>2021-06-16T09:22:41Z</time>
      </trkpt>
      <trkpt lat="36.818618" lon="-2.598587">
        <ele>71.869</ele>
        <time>2021-06-16T09:22:43Z</time>
      </trkpt>
      <trkpt lat="36.818712" lon="-2.598566">
        <ele>71.804</ele>
        <time>2021-06-16T09:22:45Z</time>
      </trkpt>
      <trkpt lat="36.818792" lon="-2.598546">
        <ele>71.824</ele>
        <time>2021-06-16T09:22:47Z</time>
      </trkpt>
      <trkpt lat="36.818854" lon="-2.598537">
        <ele>71.808</ele>
        <time>2021-06-16T09:22:49Z</time>
      </trkpt>
      <trkpt lat="36.818932" lon="-2.59852">
        <ele>71.823</ele>
        <time>2021-06-16T09:22:51Z</time>
      </trkpt>
      <trkpt lat="36.819014" lon="-2.598502">
        <ele>71.861</ele>
        <time>2021-06-16T09:22:53Z</time>
      </trkpt>
      <trkpt lat="36.819074" lon="-2.598473">
        <ele>71.825</ele>
        <time>2021-06-16T09:22:55Z</time>
      </trkpt>
      <trkpt lat="36.819142" lon="-2.598423">
        <ele>71.884</ele>
        <time>2021-06-16T09:22:57Z</time>
      </trkpt>
      <trkpt lat="36.81918" lon="-2.598368">
        <ele>71.857</ele>
        <time>2021-06-16T09:22:58Z</time>
      </trkpt>
      <trkpt lat="36.819219" lon="-2.598214">
        <ele>71.834</ele>
        <time>2021-06-16T09:23:00Z</time>
      </trkpt>
      <trkpt lat="36.819214" lon="-2.598139">
        <ele>71.881</ele>
        <time>2021-06-16T09:23:01Z</time>
      </trkpt>
      <trkpt lat="36.819167" lon="-2.598003">
        <ele>71.861</ele>
        <time>2021-06-16T09:23:03Z</time>
      </trkpt>
      <trkpt lat="36.819142" lon="-2.597936">
        <ele>71.812</ele>
        <time>2021-06-16T09:23:04Z</time>
      </trkpt>
      <trkpt lat="36.819089" lon="-2.597816">
        <ele>71.732</ele>
        <time>2021-06-16T09:23:06Z</time>
      </trkpt>
      <trkpt lat="36.819047" lon="-2.597692">
        <ele>71.705</ele>
        <time>2021-06-16T09:23:08Z</time>
      </trkpt>
      <trkpt lat="36.819045" lon="-2.597608">
        <ele>71.708</ele>
        <time>2021-06-16T09:23:10Z</time>
      </trkpt>
      <trkpt lat="36.819062" lon="-2.597527">
        <ele>75.738</ele>
        <time>2021-06-16T09:23:12Z</time>
      </trkpt>
      <trkpt lat="36.819083" lon="-2.597463">
        <ele>79.796</ele>
        <time>2021-06-16T09:23:14Z</time>
      </trkpt>
      <trkpt lat="36.81913" lon="-2.597459">
        <ele>83.730</ele>
        <time>2021-06-16T09:23:17Z</time>
      </trkpt>
      <trkpt lat="36.819186" lon="-2.597425">
        <ele>87.799</ele>
        <time>2021-06-16T09:23:19Z</time>
      </trkpt>
      <trkpt lat="36.819151" lon="-2.597462">
        <ele>91.752</ele>
        <time>2021-06-16T09:23:45Z</time>
      </trkpt>
      <trkpt lat="36.819109" lon="-2.597484">
        <ele>95.789</ele>
        <time>2021-06-16T09:24:07Z</time>
      </trkpt>
      <trkpt lat="36.819147" lon="-2.597516">
        <ele>98.936</ele>
        <time>2021-06-16T09:25:02Z</time>
      </trkpt>
      <trkpt lat="36.81919" lon="-2.597498">
        <ele>100.826</ele>
        <time>2021-06-16T09:25:26Z</time>
      </trkpt>
      <trkpt lat="36.819141" lon="-2.597497">
        <ele>101.991</ele>
        <time>2021-06-16T09:26:06Z</time>
      </trkpt>
      <trkpt lat="36.81917" lon="-2.597541">
        <ele>102.681</ele>
        <time>2021-06-16T09:27:05Z</time>
      </trkpt>
      <trkpt lat="36.819192" lon="-2.597607">
        <ele>103.019</ele>
        <time>2021-06-16T09:27:42Z</time>
      </trkpt>
      <trkpt lat="36.819208" lon="-2.597687">
        <ele>103.208</ele>
        <time>2021-06-16T09:27:44Z</time>
      </trkpt>
      <trkpt lat="36.819204" lon="-2.597762">
        <ele>103.366</ele>
        <time>2021-06-16T09:27:46Z</time>
      </trkpt>
      <trkpt lat="36.8192" lon="-2.597831">
        <ele>103.474</ele>
        <time>2021-06-16T09:27:48Z</time>
      </trkpt>
      <trkpt lat="36.819175" lon="-2.597914">
        <ele>103.428</ele>
        <time>2021-06-16T09:27:52Z</time>
      </trkpt>
      <trkpt lat="36.819241" lon="-2.598043">
        <ele>103.457</ele>
        <time>2021-06-16T09:27:54Z</time>
      </trkpt>
      <trkpt lat="36.819321" lon="-2.598057">
        <ele>103.460</ele>
        <time>2021-06-16T09:27:56Z</time>
      </trkpt>
      <trkpt lat="36.819401" lon="-2.598052">
        <ele>103.497</ele>
        <time>2021-06-16T09:27:58Z</time>
      </trkpt>
      <trkpt lat="36.819501" lon="-2.59808">
        <ele>103.424</ele>
        <time>2021-06-16T09:28:00Z</time>
      </trkpt>
      <trkpt lat="36.819616" lon="-2.598161">
        <ele>103.494</ele>
        <time>2021-06-16T09:28:02Z</time>
      </trkpt>
      <trkpt lat="36.819744" lon="-2.598275">
        <ele>103.454</ele>
        <time>2021-06-16T09:28:04Z</time>
      </trkpt>
      <trkpt lat="36.819901" lon="-2.598302">
        <ele>103.456</ele>
        <time>2021-06-16T09:28:06Z</time>
      </trkpt>
      <trkpt lat="36.820067" lon="-2.598249">
        <ele>103.411</ele>
        <time>2021-06-16T09:28:08Z</time>
      </trkpt>
      <trkpt lat="36.820155" lon="-2.598215">
        <ele>103.408</ele>
        <time>2021-06-16T09:28:09Z</time>
      </trkpt>
      <trkpt lat="36.820245" lon="-2.598185">
        <ele>103.442</ele>
        <time>2021-06-16T09:28:10Z</time>
      </trkpt>
      <trkpt lat="36.820434" lon="-2.598126">
        <ele>103.450</ele>
        <time>2021-06-16T09:28:12Z</time>
      </trkpt>
      <trkpt lat="36.820529" lon="-2.598095">
        <ele>103.444</ele>
        <time>2021-06-16T09:28:13Z</time>
      </trkpt>
      <trkpt lat="36.820625" lon="-2.598063">
        <ele>103.483</ele>
        <time>2021-06-16T09:28:14Z</time>
      </trkpt>
      <trkpt lat="36.820815" lon="-2.598006">
        <ele>103.426</ele>
        <time>2021-06-16T09:28:16Z</time>
      </trkpt>
      <trkpt lat="36.820999" lon="-2.597952">
        <ele>103.493</ele>
        <time>2021-06-16T09:28:18Z</time>
      </trkpt>
      <trkpt lat="36.821088" lon="-2.597921">
        <ele>103.490</ele>
        <time>2021-06-16T09:28:19Z</time>
      </trkpt>
      <trkpt lat="36.821252" lon="-2.59784">
        <ele>103.460</ele>
        <time>2021-06-16T09:28:21Z</time>
      </trkpt>
      <trkpt lat="36.821327" lon="-2.597802">
        <ele>103.493</ele>
        <time>2021-06-16T09:28:22Z</time>
      </trkpt>
      <trkpt lat="36.821469" lon="-2.597791">
        <ele>103.465</ele>
        <time>2021-06-16T09:28:24Z</time>
      </trkpt>
      <trkpt lat="36.821564" lon="-2.597895">
        <ele>103.421</ele>
        <time>2021-06-16T09:28:26Z</time>
      </trkpt>
      <trkpt lat="36.821563" lon="-2.598053">
        <ele>103.408</ele>
        <time>2021-06-16T09:28:28Z</time>
      </trkpt>
      <trkpt lat="36.821522" lon="-2.598125">
        <ele>103.456</ele>
        <time>2021-06-16T09:28:29Z</time>
      </trkpt>
      <trkpt lat="36.821388" lon="-2.598207">
        <ele>103.424</ele>
        <time>2021-06-16T09:28:31Z</time>
      </trkpt>
      <trkpt lat="36.821303" lon="-2.598216">
        <ele>103.428</ele>
        <time>2021-06-16T09:28:32Z</time>
      </trkpt>
      <trkpt lat="36.821113" lon="-2.598219">
        <ele>103.497</ele>
        <time>2021-06-16T09:28:34Z</time>
      </trkpt>
      <trkpt lat="36.8209" lon="-2.598315">
        <ele>103.460</ele>
        <time>2021-06-16T09:28:36Z</time>
      </trkpt>
      <trkpt lat="36.820672" lon="-2.598487">
        <ele>103.437</ele>
        <time>2021-06-16T09:28:38Z</time>
      </trkpt>
      <trkpt lat="36.82055" lon="-2.598589">
        <ele>103.494</ele>
        <time>2021-06-16T09:28:39Z</time>
      </trkpt>
      <trkpt lat="36.820421" lon="-2.598702">
        <ele>103.464</ele>
        <time>2021-06-16T09:28:40Z</time>
      </trkpt>
      <trkpt lat="36.820156" lon="-2.598943">
        <ele>103.444</ele>
        <time>2021-06-16T09:28:42Z</time>
      </trkpt>
      <trkpt lat="36.820018" lon="-2.599074">
        <ele>104.205</ele>
        <time>2021-06-16T09:28:43Z</time>
      </trkpt>
      <trkpt lat="36.819741" lon="-2.599356">
        <ele>103.815</ele>
        <time>2021-06-16T09:28:45Z</time>
      </trkpt>
      <trkpt lat="36.819605" lon="-2.599509">
        <ele>103.708</ele>
        <time>2021-06-16T09:28:46Z</time>
      </trkpt>
      <trkpt lat="36.81933" lon="-2.599825">
        <ele>102.871</ele>
        <time>2021-06-16T09:28:48Z</time>
      </trkpt>
      <trkpt lat="36.819194" lon="-2.599993">
        <ele>102.489</ele>
        <time>2021-06-16T09:28:49Z</time>
      </trkpt>
      <trkpt lat="36.818921" lon="-2.600329">
        <ele>101.643</ele>
        <time>2021-06-16T09:28:51Z</time>
      </trkpt>
      <trkpt lat="36.818645" lon="-2.600675">
        <ele>101.312</ele>
        <time>2021-06-16T09:28:53Z</time>
      </trkpt>
      <trkpt lat="36.818506" lon="-2.600849">
        <ele>100.925</ele>
        <time>2021-06-16T09:28:54Z</time>
      </trkpt>
      <trkpt lat="36.81823" lon="-2.601198">
        <ele>100.442</ele>
        <time>2021-06-16T09:28:56Z</time>
      </trkpt>
      <trkpt lat="36.818094" lon="-2.601374">
        <ele>100.099</ele>
        <time>2021-06-16T09:28:57Z</time>
      </trkpt>
      <trkpt lat="36.817818" lon="-2.60173">
        <ele>99.349</ele>
        <time>2021-06-16T09:28:59Z</time>
      </trkpt>
      <trkpt lat="36.817542" lon="-2.602085">
        <ele>99.057</ele>
        <time>2021-06-16T09:29:01Z</time>
      </trkpt>
      <trkpt lat="36.817399" lon="-2.602261">
        <ele>98.800</ele>
        <time>2021-06-16T09:29:02Z</time>
      </trkpt>
      <trkpt lat="36.817117" lon="-2.602617">
        <ele>98.120</ele>
        <time>2021-06-16T09:29:04Z</time>
      </trkpt>
      <trkpt lat="36.816976" lon="-2.602797">
        <ele>97.708</ele>
        <time>2021-06-16T09:29:05Z</time>
      </trkpt>
      <trkpt lat="36.816699" lon="-2.603162">
        <ele>97.272</ele>
        <time>2021-06-16T09:29:07Z</time>
      </trkpt>
      <trkpt lat="36.816559" lon="-2.603345">
        <ele>96.840</ele>
        <time>2021-06-16T09:29:08Z</time>
      </trkpt>
      <trkpt lat="36.816287" lon="-2.603705">
        <ele>96.164</ele>
        <time>2021-06-16T09:29:10Z</time>
      </trkpt>
      <trkpt lat="36.816007" lon="-2.604061">
        <ele>95.073</ele>
        <time>2021-06-16T09:29:12Z</time>
      </trkpt>
      <trkpt lat="36.815867" lon="-2.60424">
        <ele>94.396</ele>
        <time>2021-06-16T09:29:13Z</time>
      </trkpt>
      <trkpt lat="36.815731" lon="-2.604419">
        <ele>93.443</ele>
        <time>2021-06-16T09:29:14Z</time>
      </trkpt>
      <trkpt lat="36.815458" lon="-2.604787">
        <ele>92.770</ele>
        <time>2021-06-16T09:29:16Z</time>
      </trkpt>
      <trkpt lat="36.815193" lon="-2.60516">
        <ele>91.770</ele>
        <time>2021-06-16T09:29:18Z</time>
      </trkpt>
      <trkpt lat="36.815064" lon="-2.605355">
        <ele>91.275</ele>
        <time>2021-06-16T09:29:19Z</time>
      </trkpt>
      <trkpt lat="36.814809" lon="-2.60576">
        <ele>90.328</ele>
        <time>2021-06-16T09:29:21Z</time>
      </trkpt>
      <trkpt lat="36.814567" lon="-2.606177">
        <ele>89.120</ele>
        <time>2021-06-16T09:29:23Z</time>
      </trkpt>
      <trkpt lat="36.81445" lon="-2.606388">
        <ele>88.608</ele>
        <time>2021-06-16T09:29:24Z</time>
      </trkpt>
      <trkpt lat="36.814235" lon="-2.606828">
        <ele>87.824</ele>
        <time>2021-06-16T09:29:26Z</time>
      </trkpt>
      <trkpt lat="36.814131" lon="-2.60705">
        <ele>87.012</ele>
        <time>2021-06-16T09:29:27Z</time>
      </trkpt>
      <trkpt lat="36.813941" lon="-2.607501">
        <ele>86.466</ele>
        <time>2021-06-16T09:29:29Z</time>
      </trkpt>
      <trkpt lat="36.813855" lon="-2.607731">
        <ele>85.545</ele>
        <time>2021-06-16T09:29:30Z</time>
      </trkpt>
      <trkpt lat="36.813774" lon="-2.607961">
        <ele>85.188</ele>
        <time>2021-06-16T09:29:31Z</time>
      </trkpt>
      <trkpt lat="36.813622" lon="-2.608424">
        <ele>84.935</ele>
        <time>2021-06-16T09:29:33Z</time>
      </trkpt>
      <trkpt lat="36.813487" lon="-2.608876">
        <ele>84.512</ele>
        <time>2021-06-16T09:29:35Z</time>
      </trkpt>
      <trkpt lat="36.813421" lon="-2.609106">
        <ele>84.182</ele>
        <time>2021-06-16T09:29:36Z</time>
      </trkpt>
      <trkpt lat="36.813303" lon="-2.609575">
        <ele>84.531</ele>
        <time>2021-06-16T09:29:38Z</time>
      </trkpt>
      <trkpt lat="36.813192" lon="-2.610038">
        <ele>84.961</ele>
        <time>2021-06-16T09:29:40Z</time>
      </trkpt>
      <trkpt lat="36.813093" lon="-2.61048">
        <ele>85.107</ele>
        <time>2021-06-16T09:29:42Z</time>
      </trkpt>
      <trkpt lat="36.813046" lon="-2.6107">
        <ele>85.808</ele>
        <time>2021-06-16T09:29:43Z</time>
      </trkpt>
      <trkpt lat="36.81296" lon="-2.611137">
        <ele>86.260</ele>
        <time>2021-06-16T09:29:45Z</time>
      </trkpt>
      <trkpt lat="36.81292" lon="-2.611361">
        <ele>86.568</ele>
        <time>2021-06-16T09:29:46Z</time>
      </trkpt>
      <trkpt lat="36.812843" lon="-2.611811">
        <ele>86.862</ele>
        <time>2021-06-16T09:29:48Z</time>
      </trkpt>
      <trkpt lat="36.812806" lon="-2.612037">
        <ele>87.291</ele>
        <time>2021-06-16T09:29:49Z</time>
      </trkpt>
      <trkpt lat="36.812737" lon="-2.612494">
        <ele>88.124</ele>
        <time>2021-06-16T09:29:51Z</time>
      </trkpt>
      <trkpt lat="36.812705" lon="-2.612725">
        <ele>89.141</ele>
        <time>2021-06-16T09:29:52Z</time>
      </trkpt>
      <trkpt lat="36.812677" lon="-2.612952">
        <ele>89.748</ele>
        <time>2021-06-16T09:29:53Z</time>
      </trkpt>
      <trkpt lat="36.812631" lon="-2.613409">
        <ele>90.268</ele>
        <time>2021-06-16T09:29:55Z</time>
      </trkpt>
      <trkpt lat="36.812609" lon="-2.613643">
        <ele>90.527</ele>
        <time>2021-06-16T09:29:56Z</time>
      </trkpt>
      <trkpt lat="36.812565" lon="-2.614124">
        <ele>90.668</ele>
        <time>2021-06-16T09:29:58Z</time>
      </trkpt>
      <trkpt lat="36.81255" lon="-2.61436">
        <ele>90.914</ele>
        <time>2021-06-16T09:29:59Z</time>
      </trkpt>
      <trkpt lat="36.812539" lon="-2.614588">
        <ele>91.108</ele>
        <time>2021-06-16T09:30:00Z</time>
      </trkpt>
      <trkpt lat="36.812512" lon="-2.615064">
        <ele>91.849</ele>
        <time>2021-06-16T09:30:02Z</time>
      </trkpt>
      <trkpt lat="36.8125" lon="-2.615311">
        <ele>92.487</ele>
        <time>2021-06-16T09:30:03Z</time>
      </trkpt>
      <trkpt lat="36.812479" lon="-2.615796">
        <ele>93.231</ele>
        <time>2021-06-16T09:30:05Z</time>
      </trkpt>
      <trkpt lat="36.812472" lon="-2.616043">
        <ele>93.940</ele>
        <time>2021-06-16T09:30:06Z</time>
      </trkpt>
      <trkpt lat="36.812469" lon="-2.616528">
        <ele>94.493</ele>
        <time>2021-06-16T09:30:08Z</time>
      </trkpt>
      <trkpt lat="36.812471" lon="-2.616772">
        <ele>94.340</ele>
        <time>2021-06-16T09:30:09Z</time>
      </trkpt>
      <trkpt lat="36.812474" lon="-2.617018">
        <ele>94.467</ele>
        <time>2021-06-16T09:30:10Z</time>
      </trkpt>
      <trkpt lat="36.812485" lon="-2.617506">
        <ele>94.847</ele>
        <time>2021-06-16T09:30:12Z</time>
      </trkpt>
      <trkpt lat="36.812503" lon="-2.617997">
        <ele>95.029</ele>
        <time>2021-06-16T09:30:14Z</time>
      </trkpt>
      <trkpt lat="36.812529" lon="-2.618471">
        <ele>95.600</ele>
        <time>2021-06-16T09:30:16Z</time>
      </trkpt>
      <trkpt lat="36.812556" lon="-2.618924">
        <ele>96.320</ele>
        <time>2021-06-16T09:30:18Z</time>
      </trkpt>
      <trkpt lat="36.812568" lon="-2.619361">
        <ele>97.108</ele>
        <time>2021-06-16T09:30:20Z</time>
      </trkpt>
      <trkpt lat="36.812587" lon="-2.61979">
        <ele>97.749</ele>
        <time>2021-06-16T09:30:22Z</time>
      </trkpt>
      <trkpt lat="36.812594" lon="-2.620006">
        <ele>98.027</ele>
        <time>2021-06-16T09:30:23Z</time>
      </trkpt>
      <trkpt lat="36.812603" lon="-2.62044">
        <ele>98.311</ele>
        <time>2021-06-16T09:30:25Z</time>
      </trkpt>
      <trkpt lat="36.812603" lon="-2.620661">
        <ele>98.850</ele>
        <time>2021-06-16T09:30:26Z</time>
      </trkpt>
      <trkpt lat="36.812604" lon="-2.620892">
        <ele>99.073</ele>
        <time>2021-06-16T09:30:27Z</time>
      </trkpt>
      <trkpt lat="36.812605" lon="-2.621345">
        <ele>99.960</ele>
        <time>2021-06-16T09:30:29Z</time>
      </trkpt>
      <trkpt lat="36.812603" lon="-2.621573">
        <ele>100.537</ele>
        <time>2021-06-16T09:30:30Z</time>
      </trkpt>
      <trkpt lat="36.812599" lon="-2.621803">
        <ele>101.167</ele>
        <time>2021-06-16T09:30:31Z</time>
      </trkpt>
      <trkpt lat="36.812583" lon="-2.622265">
        <ele>101.951</ele>
        <time>2021-06-16T09:30:33Z</time>
      </trkpt>
      <trkpt lat="36.812575" lon="-2.622503">
        <ele>102.801</ele>
        <time>2021-06-16T09:30:34Z</time>
      </trkpt>
      <trkpt lat="36.812564" lon="-2.62274">
        <ele>103.211</ele>
        <time>2021-06-16T09:30:35Z</time>
      </trkpt>
      <trkpt lat="36.81255" lon="-2.622977">
        <ele>103.608</ele>
        <time>2021-06-16T09:30:36Z</time>
      </trkpt>
      <trkpt lat="36.812533" lon="-2.623216">
        <ele>104.432</ele>
        <time>2021-06-16T09:30:37Z</time>
      </trkpt>
      <trkpt lat="36.812501" lon="-2.6237">
        <ele>105.060</ele>
        <time>2021-06-16T09:30:39Z</time>
      </trkpt>
      <trkpt lat="36.812455" lon="-2.624182">
        <ele>105.874</ele>
        <time>2021-06-16T09:30:41Z</time>
      </trkpt>
      <trkpt lat="36.812397" lon="-2.624658">
        <ele>106.653</ele>
        <time>2021-06-16T09:30:43Z</time>
      </trkpt>
      <trkpt lat="36.812326" lon="-2.625157">
        <ele>107.516</ele>
        <time>2021-06-16T09:30:45Z</time>
      </trkpt>
      <trkpt lat="36.812265" lon="-2.625584">
        <ele>108.533</ele>
        <time>2021-06-16T09:30:47Z</time>
      </trkpt>
      <trkpt lat="36.812227" lon="-2.625817">
        <ele>109.220</ele>
        <time>2021-06-16T09:30:48Z</time>
      </trkpt>
      <trkpt lat="36.812186" lon="-2.62608">
        <ele>109.870</ele>
        <time>2021-06-16T09:30:49Z</time>
      </trkpt>
      <trkpt lat="36.81211" lon="-2.626513">
        <ele>110.575</ele>
        <time>2021-06-16T09:30:51Z</time>
      </trkpt>
      <trkpt lat="36.812021" lon="-2.627">
        <ele>111.528</ele>
        <time>2021-06-16T09:30:53Z</time>
      </trkpt>
      <trkpt lat="36.811972" lon="-2.627272">
        <ele>112.620</ele>
        <time>2021-06-16T09:30:54Z</time>
      </trkpt>
      <trkpt lat="36.81189" lon="-2.627718">
        <ele>114.008</ele>
        <time>2021-06-16T09:30:56Z</time>
      </trkpt>
      <trkpt lat="36.811799" lon="-2.628207">
        <ele>115.274</ele>
        <time>2021-06-16T09:30:58Z</time>
      </trkpt>
      <trkpt lat="36.811703" lon="-2.628683">
        <ele>116.122</ele>
        <time>2021-06-16T09:31:00Z</time>
      </trkpt>
      <trkpt lat="36.811655" lon="-2.628921">
        <ele>116.916</ele>
        <time>2021-06-16T09:31:01Z</time>
      </trkpt>
      <trkpt lat="36.811552" lon="-2.629421">
        <ele>117.675</ele>
        <time>2021-06-16T09:31:03Z</time>
      </trkpt>
      <trkpt lat="36.811465" lon="-2.629853">
        <ele>119.068</ele>
        <time>2021-06-16T09:31:05Z</time>
      </trkpt>
      <trkpt lat="36.811358" lon="-2.630344">
        <ele>119.915</ele>
        <time>2021-06-16T09:31:07Z</time>
      </trkpt>
      <trkpt lat="36.811271" lon="-2.630761">
        <ele>120.742</ele>
        <time>2021-06-16T09:31:09Z</time>
      </trkpt>
      <trkpt lat="36.811174" lon="-2.631233">
        <ele>121.982</ele>
        <time>2021-06-16T09:31:11Z</time>
      </trkpt>
      <trkpt lat="36.811081" lon="-2.631706">
        <ele>123.072</ele>
        <time>2021-06-16T09:31:13Z</time>
      </trkpt>
      <trkpt lat="36.811041" lon="-2.631939">
        <ele>123.913</ele>
        <time>2021-06-16T09:31:14Z</time>
      </trkpt>
      <trkpt lat="36.811" lon="-2.632176">
        <ele>124.814</ele>
        <time>2021-06-16T09:31:15Z</time>
      </trkpt>
      <trkpt lat="36.810959" lon="-2.632445">
        <ele>125.608</ele>
        <time>2021-06-16T09:31:16Z</time>
      </trkpt>
      <trkpt lat="36.810908" lon="-2.632893">
        <ele>126.074</ele>
        <time>2021-06-16T09:31:18Z</time>
      </trkpt>
      <trkpt lat="36.810884" lon="-2.633134">
        <ele>126.282</ele>
        <time>2021-06-16T09:31:19Z</time>
      </trkpt>
      <trkpt lat="36.810865" lon="-2.63341">
        <ele>126.416</ele>
        <time>2021-06-16T09:31:20Z</time>
      </trkpt>
      <trkpt lat="36.810851" lon="-2.633874">
        <ele>127.855</ele>
        <time>2021-06-16T09:31:22Z</time>
      </trkpt>
      <trkpt lat="36.810852" lon="-2.63413">
        <ele>129.218</ele>
        <time>2021-06-16T09:31:23Z</time>
      </trkpt>
      <trkpt lat="36.810869" lon="-2.634627">
        <ele>130.475</ele>
        <time>2021-06-16T09:31:25Z</time>
      </trkpt>
      <trkpt lat="36.810901" lon="-2.635118">
        <ele>131.672</ele>
        <time>2021-06-16T09:31:27Z</time>
      </trkpt>
      <trkpt lat="36.810953" lon="-2.635638">
        <ele>133.272</ele>
        <time>2021-06-16T09:31:29Z</time>
      </trkpt>
      <trkpt lat="36.811012" lon="-2.636086">
        <ele>134.899</ele>
        <time>2021-06-16T09:31:31Z</time>
      </trkpt>
      <trkpt lat="36.811056" lon="-2.636338">
        <ele>136.407</ele>
        <time>2021-06-16T09:31:32Z</time>
      </trkpt>
      <trkpt lat="36.811108" lon="-2.636619">
        <ele>137.727</ele>
        <time>2021-06-16T09:31:33Z</time>
      </trkpt>
      <trkpt lat="36.811213" lon="-2.637063">
        <ele>138.508</ele>
        <time>2021-06-16T09:31:35Z</time>
      </trkpt>
      <trkpt lat="36.811271" lon="-2.637311">
        <ele>139.126</ele>
        <time>2021-06-16T09:31:36Z</time>
      </trkpt>
      <trkpt lat="36.811416" lon="-2.637812">
        <ele>139.784</ele>
        <time>2021-06-16T09:31:38Z</time>
      </trkpt>
      <trkpt lat="36.811565" lon="-2.638234">
        <ele>140.258</ele>
        <time>2021-06-16T09:31:40Z</time>
      </trkpt>
      <trkpt lat="36.811651" lon="-2.638463">
        <ele>141.237</ele>
        <time>2021-06-16T09:31:41Z</time>
      </trkpt>
      <trkpt lat="36.811834" lon="-2.638903">
        <ele>142.830</ele>
        <time>2021-06-16T09:31:43Z</time>
      </trkpt>
      <trkpt lat="36.811932" lon="-2.639122">
        <ele>144.047</ele>
        <time>2021-06-16T09:31:44Z</time>
      </trkpt>
      <trkpt lat="36.812036" lon="-2.639338">
        <ele>145.094</ele>
        <time>2021-06-16T09:31:45Z</time>
      </trkpt>
      <trkpt lat="36.812147" lon="-2.639549">
        <ele>145.954</ele>
        <time>2021-06-16T09:31:46Z</time>
      </trkpt>
      <trkpt lat="36.812258" lon="-2.63976">
        <ele>146.141</ele>
        <time>2021-06-16T09:31:47Z</time>
      </trkpt>
      <trkpt lat="36.81248" lon="-2.640173">
        <ele>146.381</ele>
        <time>2021-06-16T09:31:49Z</time>
      </trkpt>
      <trkpt lat="36.812584" lon="-2.640384">
        <ele>146.709</ele>
        <time>2021-06-16T09:31:50Z</time>
      </trkpt>
      <trkpt lat="36.81278" lon="-2.640811">
        <ele>147.408</ele>
        <time>2021-06-16T09:31:52Z</time>
      </trkpt>
      <trkpt lat="36.812877" lon="-2.641026">
        <ele>148.251</ele>
        <time>2021-06-16T09:31:53Z</time>
      </trkpt>
      <trkpt lat="36.812972" lon="-2.641247">
        <ele>148.699</ele>
        <time>2021-06-16T09:31:54Z</time>
      </trkpt>
      <trkpt lat="36.813149" lon="-2.641697">
        <ele>148.963</ele>
        <time>2021-06-16T09:31:56Z</time>
      </trkpt>
      <trkpt lat="36.813234" lon="-2.64193">
        <ele>149.362</ele>
        <time>2021-06-16T09:31:57Z</time>
      </trkpt>
      <trkpt lat="36.813383" lon="-2.642403">
        <ele>150.665</ele>
        <time>2021-06-16T09:31:59Z</time>
      </trkpt>
      <trkpt lat="36.813503" lon="-2.642885">
        <ele>151.722</ele>
        <time>2021-06-16T09:32:01Z</time>
      </trkpt>
      <trkpt lat="36.813557" lon="-2.643125">
        <ele>152.659</ele>
        <time>2021-06-16T09:32:02Z</time>
      </trkpt>
      <trkpt lat="36.813661" lon="-2.643605">
        <ele>153.789</ele>
        <time>2021-06-16T09:32:04Z</time>
      </trkpt>
      <trkpt lat="36.813707" lon="-2.643844">
        <ele>154.895</ele>
        <time>2021-06-16T09:32:05Z</time>
      </trkpt>
      <trkpt lat="36.813748" lon="-2.644087">
        <ele>155.949</ele>
        <time>2021-06-16T09:32:06Z</time>
      </trkpt>
      <trkpt lat="36.813814" lon="-2.644581">
        <ele>157.023</ele>
        <time>2021-06-16T09:32:08Z</time>
      </trkpt>
      <trkpt lat="36.813865" lon="-2.645077">
        <ele>158.008</ele>
        <time>2021-06-16T09:32:10Z</time>
      </trkpt>
      <trkpt lat="36.813904" lon="-2.64558">
        <ele>159.236</ele>
        <time>2021-06-16T09:32:12Z</time>
      </trkpt>
      <trkpt lat="36.813918" lon="-2.645833">
        <ele>159.954</ele>
        <time>2021-06-16T09:32:13Z</time>
      </trkpt>
      <trkpt lat="36.813936" lon="-2.646323">
        <ele>161.158</ele>
        <time>2021-06-16T09:32:15Z</time>
      </trkpt>
      <trkpt lat="36.813938" lon="-2.646564">
        <ele>162.197</ele>
        <time>2021-06-16T09:32:16Z</time>
      </trkpt>
      <trkpt lat="36.813941" lon="-2.64681">
        <ele>162.920</ele>
        <time>2021-06-16T09:32:17Z</time>
      </trkpt>
      <trkpt lat="36.813944" lon="-2.64706">
        <ele>163.867</ele>
        <time>2021-06-16T09:32:18Z</time>
      </trkpt>
      <trkpt lat="36.813942" lon="-2.647559">
        <ele>164.444</ele>
        <time>2021-06-16T09:32:20Z</time>
      </trkpt>
      <trkpt lat="36.813937" lon="-2.647806">
        <ele>164.754</ele>
        <time>2021-06-16T09:32:21Z</time>
      </trkpt>
      <trkpt lat="36.813921" lon="-2.648314">
        <ele>165.484</ele>
        <time>2021-06-16T09:32:23Z</time>
      </trkpt>
      <trkpt lat="36.813894" lon="-2.648836">
        <ele>166.207</ele>
        <time>2021-06-16T09:32:25Z</time>
      </trkpt>
      <trkpt lat="36.813876" lon="-2.649098">
        <ele>166.417</ele>
        <time>2021-06-16T09:32:26Z</time>
      </trkpt>
      <trkpt lat="36.813829" lon="-2.649662">
        <ele>167.108</ele>
        <time>2021-06-16T09:32:28Z</time>
      </trkpt>
      <trkpt lat="36.813771" lon="-2.650149">
        <ele>168.065</ele>
        <time>2021-06-16T09:32:30Z</time>
      </trkpt>
      <trkpt lat="36.813701" lon="-2.650682">
        <ele>169.093</ele>
        <time>2021-06-16T09:32:32Z</time>
      </trkpt>
      <trkpt lat="36.813667" lon="-2.650941">
        <ele>169.677</ele>
        <time>2021-06-16T09:32:33Z</time>
      </trkpt>
      <trkpt lat="36.813633" lon="-2.651201">
        <ele>170.486</ele>
        <time>2021-06-16T09:32:34Z</time>
      </trkpt>
      <trkpt lat="36.813559" lon="-2.651748">
        <ele>170.949</ele>
        <time>2021-06-16T09:32:36Z</time>
      </trkpt>
      <trkpt lat="36.813493" lon="-2.652204">
        <ele>171.146</ele>
        <time>2021-06-16T09:32:38Z</time>
      </trkpt>
      <trkpt lat="36.813455" lon="-2.652459">
        <ele>171.763</ele>
        <time>2021-06-16T09:32:39Z</time>
      </trkpt>
      <trkpt lat="36.813376" lon="-2.652962">
        <ele>171.933</ele>
        <time>2021-06-16T09:32:41Z</time>
      </trkpt>
      <trkpt lat="36.813303" lon="-2.653461">
        <ele>172.275</ele>
        <time>2021-06-16T09:32:43Z</time>
      </trkpt>
      <trkpt lat="36.813234" lon="-2.653999">
        <ele>172.528</ele>
        <time>2021-06-16T09:32:45Z</time>
      </trkpt>
      <trkpt lat="36.813184" lon="-2.654466">
        <ele>172.720</ele>
        <time>2021-06-16T09:32:47Z</time>
      </trkpt>
      <trkpt lat="36.813138" lon="-2.654994">
        <ele>173.008</ele>
        <time>2021-06-16T09:32:49Z</time>
      </trkpt>
      <trkpt lat="36.813105" lon="-2.655493">
        <ele>173.154</ele>
        <time>2021-06-16T09:32:51Z</time>
      </trkpt>
      <trkpt lat="36.81309" lon="-2.655755">
        <ele>173.212</ele>
        <time>2021-06-16T09:32:52Z</time>
      </trkpt>
      <trkpt lat="36.81308" lon="-2.656015">
        <ele>173.126</ele>
        <time>2021-06-16T09:32:53Z</time>
      </trkpt>
      <trkpt lat="36.81307" lon="-2.656275">
        <ele>173.145</ele>
        <time>2021-06-16T09:32:54Z</time>
      </trkpt>
      <trkpt lat="36.813057" lon="-2.656796">
        <ele>173.358</ele>
        <time>2021-06-16T09:32:56Z</time>
      </trkpt>
      <trkpt lat="36.813055" lon="-2.657057">
        <ele>173.765</ele>
        <time>2021-06-16T09:32:57Z</time>
      </trkpt>
      <trkpt lat="36.813054" lon="-2.657314">
        <ele>173.882</ele>
        <time>2021-06-16T09:32:58Z</time>
      </trkpt>
      <trkpt lat="36.813055" lon="-2.657566">
        <ele>174.042</ele>
        <time>2021-06-16T09:32:59Z</time>
      </trkpt>
      <trkpt lat="36.813053" lon="-2.658064">
        <ele>174.444</ele>
        <time>2021-06-16T09:33:01Z</time>
      </trkpt>
      <trkpt lat="36.81305" lon="-2.658348">
        <ele>175.205</ele>
        <time>2021-06-16T09:33:02Z</time>
      </trkpt>
      <trkpt lat="36.813036" lon="-2.658803">
        <ele>175.315</ele>
        <time>2021-06-16T09:33:04Z</time>
      </trkpt>
      <trkpt lat="36.813021" lon="-2.659055">
        <ele>175.308</ele>
        <time>2021-06-16T09:33:05Z</time>
      </trkpt>
      <trkpt lat="36.813007" lon="-2.659306">
        <ele>175.121</ele>
        <time>2021-06-16T09:33:06Z</time>
      </trkpt>
      <trkpt lat="36.81299" lon="-2.659588">
        <ele>174.579</ele>
        <time>2021-06-16T09:33:07Z</time>
      </trkpt>
      <trkpt lat="36.812936" lon="-2.660047">
        <ele>174.423</ele>
        <time>2021-06-16T09:33:09Z</time>
      </trkpt>
      <trkpt lat="36.812895" lon="-2.660296">
        <ele>174.542</ele>
        <time>2021-06-16T09:33:10Z</time>
      </trkpt>
      <trkpt lat="36.812842" lon="-2.660568">
        <ele>174.375</ele>
        <time>2021-06-16T09:33:11Z</time>
      </trkpt>
      <trkpt lat="36.812743" lon="-2.660998">
        <ele>174.332</ele>
        <time>2021-06-16T09:33:13Z</time>
      </trkpt>
      <trkpt lat="36.812687" lon="-2.661227">
        <ele>174.019</ele>
        <time>2021-06-16T09:33:14Z</time>
      </trkpt>
      <trkpt lat="36.812628" lon="-2.661455">
        <ele>173.779</ele>
        <time>2021-06-16T09:33:15Z</time>
      </trkpt>
      <trkpt lat="36.812556" lon="-2.661714">
        <ele>173.374</ele>
        <time>2021-06-16T09:33:16Z</time>
      </trkpt>
      <trkpt lat="36.812428" lon="-2.662126">
        <ele>173.256</ele>
        <time>2021-06-16T09:33:18Z</time>
      </trkpt>
      <trkpt lat="36.812349" lon="-2.662354">
        <ele>173.521</ele>
        <time>2021-06-16T09:33:19Z</time>
      </trkpt>
      <trkpt lat="36.812258" lon="-2.662601">
        <ele>173.208</ele>
        <time>2021-06-16T09:33:20Z</time>
      </trkpt>
      <trkpt lat="36.812093" lon="-2.663001">
        <ele>173.234</ele>
        <time>2021-06-16T09:33:22Z</time>
      </trkpt>
      <trkpt lat="36.811907" lon="-2.663432">
        <ele>172.892</ele>
        <time>2021-06-16T09:33:24Z</time>
      </trkpt>
      <trkpt lat="36.811807" lon="-2.663663">
        <ele>172.716</ele>
        <time>2021-06-16T09:33:25Z</time>
      </trkpt>
      <trkpt lat="36.811623" lon="-2.664024">
        <ele>172.525</ele>
        <time>2021-06-16T09:33:27Z</time>
      </trkpt>
      <trkpt lat="36.811414" lon="-2.664425">
        <ele>172.418</ele>
        <time>2021-06-16T09:33:29Z</time>
      </trkpt>
      <trkpt lat="36.811191" lon="-2.664816">
        <ele>172.125</ele>
        <time>2021-06-16T09:33:31Z</time>
      </trkpt>
      <trkpt lat="36.811078" lon="-2.665004">
        <ele>172.192</ele>
        <time>2021-06-16T09:33:32Z</time>
      </trkpt>
      <trkpt lat="36.810835" lon="-2.6654">
        <ele>172.532</ele>
        <time>2021-06-16T09:33:34Z</time>
      </trkpt>
      <trkpt lat="36.810619" lon="-2.665742">
        <ele>173.472</ele>
        <time>2021-06-16T09:33:36Z</time>
      </trkpt>
      <trkpt lat="36.810499" lon="-2.665926">
        <ele>174.213</ele>
        <time>2021-06-16T09:33:37Z</time>
      </trkpt>
      <trkpt lat="36.81037" lon="-2.666122">
        <ele>174.814</ele>
        <time>2021-06-16T09:33:38Z</time>
      </trkpt>
      <trkpt lat="36.810133" lon="-2.666465">
        <ele>175.408</ele>
        <time>2021-06-16T09:33:40Z</time>
      </trkpt>
      <trkpt lat="36.810005" lon="-2.666642">
        <ele>176.114</ele>
        <time>2021-06-16T09:33:41Z</time>
      </trkpt>
      <trkpt lat="36.809732" lon="-2.66701">
        <ele>176.892</ele>
        <time>2021-06-16T09:33:43Z</time>
      </trkpt>
      <trkpt lat="36.809486" lon="-2.667325">
        <ele>177.826</ele>
        <time>2021-06-16T09:33:45Z</time>
      </trkpt>
      <trkpt lat="36.809346" lon="-2.667496">
        <ele>179.285</ele>
        <time>2021-06-16T09:33:46Z</time>
      </trkpt>
      <trkpt lat="36.809189" lon="-2.667686">
        <ele>180.058</ele>
        <time>2021-06-16T09:33:47Z</time>
      </trkpt>
      <trkpt lat="36.808934" lon="-2.667993">
        <ele>181.185</ele>
        <time>2021-06-16T09:33:49Z</time>
      </trkpt>
      <trkpt lat="36.808642" lon="-2.668327">
        <ele>182.032</ele>
        <time>2021-06-16T09:33:51Z</time>
      </trkpt>
      <trkpt lat="36.808471" lon="-2.668511">
        <ele>182.942</ele>
        <time>2021-06-16T09:33:52Z</time>
      </trkpt>
      <trkpt lat="36.808192" lon="-2.668802">
        <ele>184.152</ele>
        <time>2021-06-16T09:33:54Z</time>
      </trkpt>
      <trkpt lat="36.808038" lon="-2.66896">
        <ele>184.953</ele>
        <time>2021-06-16T09:33:55Z</time>
      </trkpt>
      <trkpt lat="36.807867" lon="-2.669136">
        <ele>185.308</ele>
        <time>2021-06-16T09:33:56Z</time>
      </trkpt>
      <trkpt lat="36.807586" lon="-2.66943">
        <ele>186.208</ele>
        <time>2021-06-16T09:33:58Z</time>
      </trkpt>
      <trkpt lat="36.80743" lon="-2.669591">
        <ele>187.052</ele>
        <time>2021-06-16T09:33:59Z</time>
      </trkpt>
      <trkpt lat="36.807113" lon="-2.66994">
        <ele>187.980</ele>
        <time>2021-06-16T09:34:01Z</time>
      </trkpt>
      <trkpt lat="36.806844" lon="-2.670256">
        <ele>188.774</ele>
        <time>2021-06-16T09:34:03Z</time>
      </trkpt>
      <trkpt lat="36.806698" lon="-2.670437">
        <ele>189.333</ele>
        <time>2021-06-16T09:34:04Z</time>
      </trkpt>
      <trkpt lat="36.806539" lon="-2.670642">
        <ele>189.716</ele>
        <time>2021-06-16T09:34:05Z</time>
      </trkpt>
      <trkpt lat="36.806296" lon="-2.671">
        <ele>190.233</ele>
        <time>2021-06-16T09:34:07Z</time>
      </trkpt>
      <trkpt lat="36.806165" lon="-2.671202">
        <ele>190.690</ele>
        <time>2021-06-16T09:34:08Z</time>
      </trkpt>
      <trkpt lat="36.805892" lon="-2.671629">
        <ele>191.550</ele>
        <time>2021-06-16T09:34:10Z</time>
      </trkpt>
      <trkpt lat="36.805663" lon="-2.672006">
        <ele>192.358</ele>
        <time>2021-06-16T09:34:12Z</time>
      </trkpt>
      <trkpt lat="36.805395" lon="-2.672446">
        <ele>192.452</ele>
        <time>2021-06-16T09:34:14Z</time>
      </trkpt>
      <trkpt lat="36.805164" lon="-2.672834">
        <ele>192.717</ele>
        <time>2021-06-16T09:34:16Z</time>
      </trkpt>
      <trkpt lat="36.805036" lon="-2.673052">
        <ele>192.608</ele>
        <time>2021-06-16T09:34:17Z</time>
      </trkpt>
      <trkpt lat="36.804769" lon="-2.673508">
        <ele>192.222</ele>
        <time>2021-06-16T09:34:19Z</time>
      </trkpt>
      <trkpt lat="36.804537" lon="-2.673887">
        <ele>192.380</ele>
        <time>2021-06-16T09:34:21Z</time>
      </trkpt>
      <trkpt lat="36.804408" lon="-2.674094">
        <ele>192.564</ele>
        <time>2021-06-16T09:34:22Z</time>
      </trkpt>
      <trkpt lat="36.804266" lon="-2.674317">
        <ele>192.453</ele>
        <time>2021-06-16T09:34:23Z</time>
      </trkpt>
      <trkpt lat="36.804032" lon="-2.674664">
        <ele>192.596</ele>
        <time>2021-06-16T09:34:25Z</time>
      </trkpt>
      <trkpt lat="36.803765" lon="-2.675034">
        <ele>192.353</ele>
        <time>2021-06-16T09:34:27Z</time>
      </trkpt>
      <trkpt lat="36.803613" lon="-2.67524">
        <ele>192.210</ele>
        <time>2021-06-16T09:34:28Z</time>
      </trkpt>
      <trkpt lat="36.803362" lon="-2.675567">
        <ele>192.270</ele>
        <time>2021-06-16T09:34:30Z</time>
      </trkpt>
      <trkpt lat="36.803221" lon="-2.675746">
        <ele>191.852</ele>
        <time>2021-06-16T09:34:31Z</time>
      </trkpt>
      <trkpt lat="36.803075" lon="-2.675931">
        <ele>191.453</ele>
        <time>2021-06-16T09:34:32Z</time>
      </trkpt>
      <trkpt lat="36.802794" lon="-2.676272">
        <ele>190.708</ele>
        <time>2021-06-16T09:34:34Z</time>
      </trkpt>
      <trkpt lat="36.802649" lon="-2.676443">
        <ele>190.308</ele>
        <time>2021-06-16T09:34:35Z</time>
      </trkpt>
      <trkpt lat="36.802505" lon="-2.676612">
        <ele>189.882</ele>
        <time>2021-06-16T09:34:36Z</time>
      </trkpt>
      <trkpt lat="36.802361" lon="-2.676779">
        <ele>189.120</ele>
        <time>2021-06-16T09:34:37Z</time>
      </trkpt>
      <trkpt lat="36.802218" lon="-2.676946">
        <ele>188.644</ele>
        <time>2021-06-16T09:34:38Z</time>
      </trkpt>
      <trkpt lat="36.802074" lon="-2.677111">
        <ele>188.223</ele>
        <time>2021-06-16T09:34:39Z</time>
      </trkpt>
      <trkpt lat="36.801768" lon="-2.677464">
        <ele>187.476</ele>
        <time>2021-06-16T09:34:41Z</time>
      </trkpt>
      <trkpt lat="36.801505" lon="-2.677761">
        <ele>186.163</ele>
        <time>2021-06-16T09:34:43Z</time>
      </trkpt>
      <trkpt lat="36.801359" lon="-2.677927">
        <ele>185.280</ele>
        <time>2021-06-16T09:34:44Z</time>
      </trkpt>
      <trkpt lat="36.801073" lon="-2.678261">
        <ele>184.450</ele>
        <time>2021-06-16T09:34:46Z</time>
      </trkpt>
      <trkpt lat="36.800787" lon="-2.6786">
        <ele>183.982</ele>
        <time>2021-06-16T09:34:48Z</time>
      </trkpt>
      <trkpt lat="36.800504" lon="-2.678948">
        <ele>183.343</ele>
        <time>2021-06-16T09:34:50Z</time>
      </trkpt>
      <trkpt lat="36.800231" lon="-2.679309">
        <ele>182.017</ele>
        <time>2021-06-16T09:34:52Z</time>
      </trkpt>
      <trkpt lat="36.799959" lon="-2.67968">
        <ele>180.508</ele>
        <time>2021-06-16T09:34:54Z</time>
      </trkpt>
      <trkpt lat="36.799687" lon="-2.680061">
        <ele>179.325</ele>
        <time>2021-06-16T09:34:56Z</time>
      </trkpt>
      <trkpt lat="36.799555" lon="-2.680257">
        <ele>178.073</ele>
        <time>2021-06-16T09:34:57Z</time>
      </trkpt>
      <trkpt lat="36.799424" lon="-2.68045">
        <ele>176.857</ele>
        <time>2021-06-16T09:34:58Z</time>
      </trkpt>
      <trkpt lat="36.799169" lon="-2.680842">
        <ele>175.616</ele>
        <time>2021-06-16T09:35:00Z</time>
      </trkpt>
      <trkpt lat="36.799035" lon="-2.681043">
        <ele>174.779</ele>
        <time>2021-06-16T09:35:01Z</time>
      </trkpt>
      <trkpt lat="36.798901" lon="-2.68125">
        <ele>174.076</ele>
        <time>2021-06-16T09:35:02Z</time>
      </trkpt>
      <trkpt lat="36.798769" lon="-2.681456">
        <ele>173.523</ele>
        <time>2021-06-16T09:35:03Z</time>
      </trkpt>
      <trkpt lat="36.79864" lon="-2.681654">
        <ele>172.663</ele>
        <time>2021-06-16T09:35:04Z</time>
      </trkpt>
      <trkpt lat="36.798377" lon="-2.682044">
        <ele>171.424</ele>
        <time>2021-06-16T09:35:06Z</time>
      </trkpt>
      <trkpt lat="36.798242" lon="-2.68224">
        <ele>170.304</ele>
        <time>2021-06-16T09:35:07Z</time>
      </trkpt>
      <trkpt lat="36.798107" lon="-2.682432">
        <ele>169.614</ele>
        <time>2021-06-16T09:35:08Z</time>
      </trkpt>
      <trkpt lat="36.797973" lon="-2.682624">
        <ele>169.208</ele>
        <time>2021-06-16T09:35:09Z</time>
      </trkpt>
      <trkpt lat="36.797837" lon="-2.682815">
        <ele>168.759</ele>
        <time>2021-06-16T09:35:10Z</time>
      </trkpt>
      <trkpt lat="36.797559" lon="-2.683187">
        <ele>168.227</ele>
        <time>2021-06-16T09:35:12Z</time>
      </trkpt>
      <trkpt lat="36.797276" lon="-2.683533">
        <ele>168.061</ele>
        <time>2021-06-16T09:35:14Z</time>
      </trkpt>
      <trkpt lat="36.797136" lon="-2.683699">
        <ele>167.960</ele>
        <time>2021-06-16T09:35:15Z</time>
      </trkpt>
      <trkpt lat="36.796995" lon="-2.683868">
        <ele>167.643</ele>
        <time>2021-06-16T09:35:16Z</time>
      </trkpt>
      <trkpt lat="36.796857" lon="-2.684034">
        <ele>167.590</ele>
        <time>2021-06-16T09:35:17Z</time>
      </trkpt>
      <trkpt lat="36.79672" lon="-2.684199">
        <ele>167.637</ele>
        <time>2021-06-16T09:35:18Z</time>
      </trkpt>
      <trkpt lat="36.79645" lon="-2.684527">
        <ele>167.557</ele>
        <time>2021-06-16T09:35:20Z</time>
      </trkpt>
      <trkpt lat="36.796316" lon="-2.684691">
        <ele>167.036</ele>
        <time>2021-06-16T09:35:21Z</time>
      </trkpt>
      <trkpt lat="36.796052" lon="-2.685026">
        <ele>166.517</ele>
        <time>2021-06-16T09:35:23Z</time>
      </trkpt>
      <trkpt lat="36.795791" lon="-2.685362">
        <ele>166.318</ele>
        <time>2021-06-16T09:35:25Z</time>
      </trkpt>
      <trkpt lat="36.79554" lon="-2.685704">
        <ele>166.808</ele>
        <time>2021-06-16T09:35:27Z</time>
      </trkpt>
      <trkpt lat="36.795422" lon="-2.685884">
        <ele>166.920</ele>
        <time>2021-06-16T09:35:28Z</time>
      </trkpt>
      <trkpt lat="36.795198" lon="-2.686263">
        <ele>166.978</ele>
        <time>2021-06-16T09:35:30Z</time>
      </trkpt>
      <trkpt lat="36.794985" lon="-2.686655">
        <ele>167.122</ele>
        <time>2021-06-16T09:35:32Z</time>
      </trkpt>
      <trkpt lat="36.794884" lon="-2.68685">
        <ele>167.461</ele>
        <time>2021-06-16T09:35:33Z</time>
      </trkpt>
      <trkpt lat="36.794699" lon="-2.687245">
        <ele>168.224</ele>
        <time>2021-06-16T09:35:35Z</time>
      </trkpt>
      <trkpt lat="36.794607" lon="-2.687449">
        <ele>168.411</ele>
        <time>2021-06-16T09:35:36Z</time>
      </trkpt>
      <trkpt lat="36.794516" lon="-2.687656">
        <ele>168.898</ele>
        <time>2021-06-16T09:35:37Z</time>
      </trkpt>
      <trkpt lat="36.794353" lon="-2.688068">
        <ele>168.458</ele>
        <time>2021-06-16T09:35:39Z</time>
      </trkpt>
      <trkpt lat="36.794283" lon="-2.688283">
        <ele>168.498</ele>
        <time>2021-06-16T09:35:40Z</time>
      </trkpt>
      <trkpt lat="36.79415" lon="-2.688723">
        <ele>168.515</ele>
        <time>2021-06-16T09:35:42Z</time>
      </trkpt>
      <trkpt lat="36.794089" lon="-2.688952">
        <ele>168.826</ele>
        <time>2021-06-16T09:35:43Z</time>
      </trkpt>
      <trkpt lat="36.794029" lon="-2.689181">
        <ele>168.908</ele>
        <time>2021-06-16T09:35:44Z</time>
      </trkpt>
      <trkpt lat="36.793919" lon="-2.68964">
        <ele>169.626</ele>
        <time>2021-06-16T09:35:46Z</time>
      </trkpt>
      <trkpt lat="36.793874" lon="-2.689874">
        <ele>169.934</ele>
        <time>2021-06-16T09:35:47Z</time>
      </trkpt>
      <trkpt lat="36.793798" lon="-2.690352">
        <ele>170.268</ele>
        <time>2021-06-16T09:35:49Z</time>
      </trkpt>
      <trkpt lat="36.793758" lon="-2.690592">
        <ele>170.587</ele>
        <time>2021-06-16T09:35:50Z</time>
      </trkpt>
      <trkpt lat="36.79368" lon="-2.691076">
        <ele>170.950</ele>
        <time>2021-06-16T09:35:52Z</time>
      </trkpt>
      <trkpt lat="36.793643" lon="-2.69132">
        <ele>171.237</ele>
        <time>2021-06-16T09:35:53Z</time>
      </trkpt>
      <trkpt lat="36.793605" lon="-2.691565">
        <ele>171.324</ele>
        <time>2021-06-16T09:35:54Z</time>
      </trkpt>
      <trkpt lat="36.793565" lon="-2.69181">
        <ele>171.594</ele>
        <time>2021-06-16T09:35:55Z</time>
      </trkpt>
      <trkpt lat="36.793484" lon="-2.692298">
        <ele>171.826</ele>
        <time>2021-06-16T09:35:57Z</time>
      </trkpt>
      <trkpt lat="36.793399" lon="-2.692783">
        <ele>171.747</ele>
        <time>2021-06-16T09:35:59Z</time>
      </trkpt>
      <trkpt lat="36.793358" lon="-2.693029">
        <ele>171.711</ele>
        <time>2021-06-16T09:36:00Z</time>
      </trkpt>
      <trkpt lat="36.79328" lon="-2.69352">
        <ele>172.108</ele>
        <time>2021-06-16T09:36:02Z</time>
      </trkpt>
      <trkpt lat="36.793201" lon="-2.694007">
        <ele>172.399</ele>
        <time>2021-06-16T09:36:04Z</time>
      </trkpt>
      <trkpt lat="36.793117" lon="-2.694484">
        <ele>172.387</ele>
        <time>2021-06-16T09:36:06Z</time>
      </trkpt>
      <trkpt lat="36.793081" lon="-2.694726">
        <ele>172.591</ele>
        <time>2021-06-16T09:36:07Z</time>
      </trkpt>
      <trkpt lat="36.793049" lon="-2.694966">
        <ele>173.030</ele>
        <time>2021-06-16T09:36:08Z</time>
      </trkpt>
      <trkpt lat="36.792972" lon="-2.695455">
        <ele>173.413</ele>
        <time>2021-06-16T09:36:10Z</time>
      </trkpt>
      <trkpt lat="36.792884" lon="-2.695933">
        <ele>173.920</ele>
        <time>2021-06-16T09:36:12Z</time>
      </trkpt>
      <trkpt lat="36.792805" lon="-2.696409">
        <ele>173.797</ele>
        <time>2021-06-16T09:36:14Z</time>
      </trkpt>
      <trkpt lat="36.792768" lon="-2.696653">
        <ele>173.147</ele>
        <time>2021-06-16T09:36:15Z</time>
      </trkpt>
      <trkpt lat="36.792703" lon="-2.697141">
        <ele>173.133</ele>
        <time>2021-06-16T09:36:17Z</time>
      </trkpt>
      <trkpt lat="36.792666" lon="-2.697383">
        <ele>173.323</ele>
        <time>2021-06-16T09:36:18Z</time>
      </trkpt>
      <trkpt lat="36.792581" lon="-2.697874">
        <ele>173.915</ele>
        <time>2021-06-16T09:36:20Z</time>
      </trkpt>
      <trkpt lat="36.79254" lon="-2.698123">
        <ele>174.308</ele>
        <time>2021-06-16T09:36:21Z</time>
      </trkpt>
      <trkpt lat="36.792457" lon="-2.698616">
        <ele>174.440</ele>
        <time>2021-06-16T09:36:23Z</time>
      </trkpt>
      <trkpt lat="36.792413" lon="-2.698862">
        <ele>174.128</ele>
        <time>2021-06-16T09:36:24Z</time>
      </trkpt>
      <trkpt lat="36.792332" lon="-2.699353">
        <ele>173.742</ele>
        <time>2021-06-16T09:36:26Z</time>
      </trkpt>
      <trkpt lat="36.79225" lon="-2.699841">
        <ele>173.741</ele>
        <time>2021-06-16T09:36:28Z</time>
      </trkpt>
      <trkpt lat="36.792167" lon="-2.700323">
        <ele>173.394</ele>
        <time>2021-06-16T09:36:30Z</time>
      </trkpt>
      <trkpt lat="36.792123" lon="-2.700563">
        <ele>172.951</ele>
        <time>2021-06-16T09:36:31Z</time>
      </trkpt>
      <trkpt lat="36.792048" lon="-2.701044">
        <ele>172.628</ele>
        <time>2021-06-16T09:36:33Z</time>
      </trkpt>
      <trkpt lat="36.791974" lon="-2.701527">
        <ele>172.448</ele>
        <time>2021-06-16T09:36:35Z</time>
      </trkpt>
      <trkpt lat="36.79189" lon="-2.702009">
        <ele>171.728</ele>
        <time>2021-06-16T09:36:37Z</time>
      </trkpt>
      <trkpt lat="36.791851" lon="-2.702253">
        <ele>171.489</ele>
        <time>2021-06-16T09:36:38Z</time>
      </trkpt>
      <trkpt lat="36.791773" lon="-2.702741">
        <ele>170.117</ele>
        <time>2021-06-16T09:36:40Z</time>
      </trkpt>
      <trkpt lat="36.791693" lon="-2.70323">
        <ele>169.608</ele>
        <time>2021-06-16T09:36:42Z</time>
      </trkpt>
      <trkpt lat="36.791652" lon="-2.703477">
        <ele>168.849</ele>
        <time>2021-06-16T09:36:43Z</time>
      </trkpt>
      <trkpt lat="36.791611" lon="-2.703723">
        <ele>168.117</ele>
        <time>2021-06-16T09:36:44Z</time>
      </trkpt>
      <trkpt lat="36.791573" lon="-2.703963">
        <ele>167.451</ele>
        <time>2021-06-16T09:36:45Z</time>
      </trkpt>
      <trkpt lat="36.791536" lon="-2.704203">
        <ele>166.890</ele>
        <time>2021-06-16T09:36:46Z</time>
      </trkpt>
      <trkpt lat="36.791455" lon="-2.704678">
        <ele>165.633</ele>
        <time>2021-06-16T09:36:48Z</time>
      </trkpt>
      <trkpt lat="36.791416" lon="-2.704918">
        <ele>164.760</ele>
        <time>2021-06-16T09:36:49Z</time>
      </trkpt>
      <trkpt lat="36.791339" lon="-2.705397">
        <ele>163.857</ele>
        <time>2021-06-16T09:36:51Z</time>
      </trkpt>
      <trkpt lat="36.791261" lon="-2.705865">
        <ele>163.567</ele>
        <time>2021-06-16T09:36:53Z</time>
      </trkpt>
      <trkpt lat="36.791217" lon="-2.706099">
        <ele>162.821</ele>
        <time>2021-06-16T09:36:54Z</time>
      </trkpt>
      <trkpt lat="36.79114" lon="-2.706575">
        <ele>161.841</ele>
        <time>2021-06-16T09:36:56Z</time>
      </trkpt>
      <trkpt lat="36.791103" lon="-2.706808">
        <ele>160.905</ele>
        <time>2021-06-16T09:36:57Z</time>
      </trkpt>
      <trkpt lat="36.791023" lon="-2.707274">
        <ele>159.808</ele>
        <time>2021-06-16T09:36:59Z</time>
      </trkpt>
      <trkpt lat="36.790984" lon="-2.707511">
        <ele>159.199</ele>
        <time>2021-06-16T09:37:00Z</time>
      </trkpt>
      <trkpt lat="36.790907" lon="-2.707974">
        <ele>158.247</ele>
        <time>2021-06-16T09:37:02Z</time>
      </trkpt>
      <trkpt lat="36.79087" lon="-2.708207">
        <ele>157.621</ele>
        <time>2021-06-16T09:37:03Z</time>
      </trkpt>
      <trkpt lat="36.790795" lon="-2.708675">
        <ele>156.620</ele>
        <time>2021-06-16T09:37:05Z</time>
      </trkpt>
      <trkpt lat="36.790708" lon="-2.709163">
        <ele>156.013</ele>
        <time>2021-06-16T09:37:07Z</time>
      </trkpt>
      <trkpt lat="36.790631" lon="-2.709642">
        <ele>155.620</ele>
        <time>2021-06-16T09:37:09Z</time>
      </trkpt>
      <trkpt lat="36.790591" lon="-2.709887">
        <ele>155.657</ele>
        <time>2021-06-16T09:37:10Z</time>
      </trkpt>
      <trkpt lat="36.790511" lon="-2.710366">
        <ele>154.827</ele>
        <time>2021-06-16T09:37:12Z</time>
      </trkpt>
      <trkpt lat="36.790469" lon="-2.710606">
        <ele>154.216</ele>
        <time>2021-06-16T09:37:13Z</time>
      </trkpt>
      <trkpt lat="36.790397" lon="-2.711088">
        <ele>153.476</ele>
        <time>2021-06-16T09:37:15Z</time>
      </trkpt>
      <trkpt lat="36.790361" lon="-2.711327">
        <ele>152.513</ele>
        <time>2021-06-16T09:37:16Z</time>
      </trkpt>
      <trkpt lat="36.790322" lon="-2.711569">
        <ele>152.108</ele>
        <time>2021-06-16T09:37:17Z</time>
      </trkpt>
      <trkpt lat="36.790243" lon="-2.712058">
        <ele>150.958</ele>
        <time>2021-06-16T09:37:19Z</time>
      </trkpt>
      <trkpt lat="36.790205" lon="-2.712304">
        <ele>150.386</ele>
        <time>2021-06-16T09:37:20Z</time>
      </trkpt>
      <trkpt lat="36.790126" lon="-2.712781">
        <ele>149.020</ele>
        <time>2021-06-16T09:37:22Z</time>
      </trkpt>
      <trkpt lat="36.790086" lon="-2.713025">
        <ele>147.829</ele>
        <time>2021-06-16T09:37:23Z</time>
      </trkpt>
      <trkpt lat="36.790044" lon="-2.713269">
        <ele>146.882</ele>
        <time>2021-06-16T09:37:24Z</time>
      </trkpt>
      <trkpt lat="36.789959" lon="-2.713755">
        <ele>145.449</ele>
        <time>2021-06-16T09:37:26Z</time>
      </trkpt>
      <trkpt lat="36.789881" lon="-2.714247">
        <ele>144.226</ele>
        <time>2021-06-16T09:37:28Z</time>
      </trkpt>
      <trkpt lat="36.7898" lon="-2.714746">
        <ele>142.656</ele>
        <time>2021-06-16T09:37:30Z</time>
      </trkpt>
      <trkpt lat="36.789757" lon="-2.715">
        <ele>141.621</ele>
        <time>2021-06-16T09:37:31Z</time>
      </trkpt>
      <trkpt lat="36.789673" lon="-2.715498">
        <ele>140.741</ele>
        <time>2021-06-16T09:37:33Z</time>
      </trkpt>
      <trkpt lat="36.789628" lon="-2.715748">
        <ele>140.105</ele>
        <time>2021-06-16T09:37:34Z</time>
      </trkpt>
      <trkpt lat="36.789585" lon="-2.716">
        <ele>140.208</ele>
        <time>2021-06-16T09:37:35Z</time>
      </trkpt>
      <trkpt lat="36.789545" lon="-2.716245">
        <ele>139.829</ele>
        <time>2021-06-16T09:37:36Z</time>
      </trkpt>
      <trkpt lat="36.789462" lon="-2.716732">
        <ele>138.717</ele>
        <time>2021-06-16T09:37:38Z</time>
      </trkpt>
      <trkpt lat="36.78942" lon="-2.716974">
        <ele>137.831</ele>
        <time>2021-06-16T09:37:39Z</time>
      </trkpt>
      <trkpt lat="36.789384" lon="-2.717215">
        <ele>137.160</ele>
        <time>2021-06-16T09:37:40Z</time>
      </trkpt>
      <trkpt lat="36.789313" lon="-2.71769">
        <ele>136.523</ele>
        <time>2021-06-16T09:37:42Z</time>
      </trkpt>
      <trkpt lat="36.789275" lon="-2.717927">
        <ele>136.310</ele>
        <time>2021-06-16T09:37:43Z</time>
      </trkpt>
      <trkpt lat="36.789201" lon="-2.718395">
        <ele>135.997</ele>
        <time>2021-06-16T09:37:45Z</time>
      </trkpt>
      <trkpt lat="36.789162" lon="-2.718624">
        <ele>135.567</ele>
        <time>2021-06-16T09:37:46Z</time>
      </trkpt>
      <trkpt lat="36.789117" lon="-2.718855">
        <ele>135.657</ele>
        <time>2021-06-16T09:37:47Z</time>
      </trkpt>
      <trkpt lat="36.789047" lon="-2.719327">
        <ele>135.300</ele>
        <time>2021-06-16T09:37:49Z</time>
      </trkpt>
      <trkpt lat="36.789006" lon="-2.719563">
        <ele>135.420</ele>
        <time>2021-06-16T09:37:50Z</time>
      </trkpt>
      <trkpt lat="36.788926" lon="-2.720031">
        <ele>134.908</ele>
        <time>2021-06-16T09:37:52Z</time>
      </trkpt>
      <trkpt lat="36.788846" lon="-2.720503">
        <ele>134.572</ele>
        <time>2021-06-16T09:37:54Z</time>
      </trkpt>
      <trkpt lat="36.788778" lon="-2.720971">
        <ele>134.060</ele>
        <time>2021-06-16T09:37:56Z</time>
      </trkpt>
      <trkpt lat="36.78874" lon="-2.721209">
        <ele>134.024</ele>
        <time>2021-06-16T09:37:57Z</time>
      </trkpt>
      <trkpt lat="36.78867" lon="-2.721677">
        <ele>133.143</ele>
        <time>2021-06-16T09:37:59Z</time>
      </trkpt>
      <trkpt lat="36.788633" lon="-2.721918">
        <ele>132.756</ele>
        <time>2021-06-16T09:38:00Z</time>
      </trkpt>
      <trkpt lat="36.788594" lon="-2.722156">
        <ele>132.533</ele>
        <time>2021-06-16T09:38:01Z</time>
      </trkpt>
      <trkpt lat="36.788511" lon="-2.722629">
        <ele>132.240</ele>
        <time>2021-06-16T09:38:03Z</time>
      </trkpt>
      <trkpt lat="36.788467" lon="-2.722868">
        <ele>132.450</ele>
        <time>2021-06-16T09:38:04Z</time>
      </trkpt>
      <trkpt lat="36.788423" lon="-2.723106">
        <ele>132.034</ele>
        <time>2021-06-16T09:38:05Z</time>
      </trkpt>
      <trkpt lat="36.78838" lon="-2.723342">
        <ele>131.455</ele>
        <time>2021-06-16T09:38:06Z</time>
      </trkpt>
      <trkpt lat="36.788293" lon="-2.72382">
        <ele>130.810</ele>
        <time>2021-06-16T09:38:08Z</time>
      </trkpt>
      <trkpt lat="36.788215" lon="-2.724297">
        <ele>130.108</ele>
        <time>2021-06-16T09:38:10Z</time>
      </trkpt>
      <trkpt lat="36.788176" lon="-2.724538">
        <ele>129.680</ele>
        <time>2021-06-16T09:38:11Z</time>
      </trkpt>
      <trkpt lat="36.7881" lon="-2.725015">
        <ele>129.078</ele>
        <time>2021-06-16T09:38:13Z</time>
      </trkpt>
      <trkpt lat="36.788028" lon="-2.725488">
        <ele>128.372</ele>
        <time>2021-06-16T09:38:15Z</time>
      </trkpt>
      <trkpt lat="36.787992" lon="-2.725722">
        <ele>127.921</ele>
        <time>2021-06-16T09:38:16Z</time>
      </trkpt>
      <trkpt lat="36.787955" lon="-2.725953">
        <ele>127.774</ele>
        <time>2021-06-16T09:38:17Z</time>
      </trkpt>
      <trkpt lat="36.787884" lon="-2.726401">
        <ele>127.211</ele>
        <time>2021-06-16T09:38:19Z</time>
      </trkpt>
      <trkpt lat="36.787845" lon="-2.726628">
        <ele>126.858</ele>
        <time>2021-06-16T09:38:20Z</time>
      </trkpt>
      <trkpt lat="36.78777" lon="-2.727099">
        <ele>126.158</ele>
        <time>2021-06-16T09:38:22Z</time>
      </trkpt>
      <trkpt lat="36.787692" lon="-2.727568">
        <ele>125.411</ele>
        <time>2021-06-16T09:38:24Z</time>
      </trkpt>
      <trkpt lat="36.787649" lon="-2.727808">
        <ele>125.021</ele>
        <time>2021-06-16T09:38:25Z</time>
      </trkpt>
      <trkpt lat="36.787572" lon="-2.728288">
        <ele>123.903</ele>
        <time>2021-06-16T09:38:27Z</time>
      </trkpt>
      <trkpt lat="36.787531" lon="-2.728532">
        <ele>123.008</ele>
        <time>2021-06-16T09:38:28Z</time>
      </trkpt>
      <trkpt lat="36.787451" lon="-2.729017">
        <ele>121.998</ele>
        <time>2021-06-16T09:38:30Z</time>
      </trkpt>
      <trkpt lat="36.787411" lon="-2.729258">
        <ele>121.636</ele>
        <time>2021-06-16T09:38:31Z</time>
      </trkpt>
      <trkpt lat="36.787369" lon="-2.729504">
        <ele>120.850</ele>
        <time>2021-06-16T09:38:32Z</time>
      </trkpt>
      <trkpt lat="36.787289" lon="-2.729986">
        <ele>119.949</ele>
        <time>2021-06-16T09:38:34Z</time>
      </trkpt>
      <trkpt lat="36.787211" lon="-2.730456">
        <ele>119.352</ele>
        <time>2021-06-16T09:38:36Z</time>
      </trkpt>
      <trkpt lat="36.787173" lon="-2.73069">
        <ele>118.539</ele>
        <time>2021-06-16T09:38:37Z</time>
      </trkpt>
      <trkpt lat="36.787133" lon="-2.730924">
        <ele>117.866</ele>
        <time>2021-06-16T09:38:38Z</time>
      </trkpt>
      <trkpt lat="36.787048" lon="-2.731406">
        <ele>117.226</ele>
        <time>2021-06-16T09:38:40Z</time>
      </trkpt>
      <trkpt lat="36.78697" lon="-2.731882">
        <ele>116.514</ele>
        <time>2021-06-16T09:38:42Z</time>
      </trkpt>
      <trkpt lat="36.786896" lon="-2.732345">
        <ele>115.554</ele>
        <time>2021-06-16T09:38:44Z</time>
      </trkpt>
      <trkpt lat="36.78686" lon="-2.732573">
        <ele>114.509</ele>
        <time>2021-06-16T09:38:45Z</time>
      </trkpt>
      <trkpt lat="36.78679" lon="-2.733028">
        <ele>113.308</ele>
        <time>2021-06-16T09:38:47Z</time>
      </trkpt>
      <trkpt lat="36.786717" lon="-2.733476">
        <ele>112.058</ele>
        <time>2021-06-16T09:38:49Z</time>
      </trkpt>
      <trkpt lat="36.78664" lon="-2.733926">
        <ele>110.886</ele>
        <time>2021-06-16T09:38:51Z</time>
      </trkpt>
      <trkpt lat="36.786602" lon="-2.73415">
        <ele>109.390</ele>
        <time>2021-06-16T09:38:52Z</time>
      </trkpt>
      <trkpt lat="36.786527" lon="-2.734601">
        <ele>108.269</ele>
        <time>2021-06-16T09:38:54Z</time>
      </trkpt>
      <trkpt lat="36.786455" lon="-2.73505">
        <ele>107.592</ele>
        <time>2021-06-16T09:38:56Z</time>
      </trkpt>
      <trkpt lat="36.786422" lon="-2.735274">
        <ele>106.039</ele>
        <time>2021-06-16T09:38:57Z</time>
      </trkpt>
      <trkpt lat="36.786385" lon="-2.735505">
        <ele>105.256</ele>
        <time>2021-06-16T09:38:58Z</time>
      </trkpt>
      <trkpt lat="36.786308" lon="-2.735965">
        <ele>104.616</ele>
        <time>2021-06-16T09:39:00Z</time>
      </trkpt>
      <trkpt lat="36.786269" lon="-2.736196">
        <ele>103.697</ele>
        <time>2021-06-16T09:39:01Z</time>
      </trkpt>
      <trkpt lat="36.786233" lon="-2.73643">
        <ele>102.623</ele>
        <time>2021-06-16T09:39:02Z</time>
      </trkpt>
      <trkpt lat="36.78616" lon="-2.73689">
        <ele>101.525</ele>
        <time>2021-06-16T09:39:04Z</time>
      </trkpt>
      <trkpt lat="36.786123" lon="-2.737123">
        <ele>100.408</ele>
        <time>2021-06-16T09:39:05Z</time>
      </trkpt>
      <trkpt lat="36.786085" lon="-2.73736">
        <ele>99.916</ele>
        <time>2021-06-16T09:39:06Z</time>
      </trkpt>
      <trkpt lat="36.786008" lon="-2.737836">
        <ele>99.854</ele>
        <time>2021-06-16T09:39:08Z</time>
      </trkpt>
      <trkpt lat="36.785928" lon="-2.738309">
        <ele>100.198</ele>
        <time>2021-06-16T09:39:10Z</time>
      </trkpt>
      <trkpt lat="36.785881" lon="-2.738552">
        <ele>100.237</ele>
        <time>2021-06-16T09:39:11Z</time>
      </trkpt>
      <trkpt lat="36.785801" lon="-2.739024">
        <ele>100.140</ele>
        <time>2021-06-16T09:39:13Z</time>
      </trkpt>
      <trkpt lat="36.785763" lon="-2.739261">
        <ele>99.777</ele>
        <time>2021-06-16T09:39:14Z</time>
      </trkpt>
      <trkpt lat="36.785692" lon="-2.739729">
        <ele>99.024</ele>
        <time>2021-06-16T09:39:16Z</time>
      </trkpt>
      <trkpt lat="36.785654" lon="-2.739964">
        <ele>98.334</ele>
        <time>2021-06-16T09:39:17Z</time>
      </trkpt>
      <trkpt lat="36.785579" lon="-2.74043">
        <ele>97.856</ele>
        <time>2021-06-16T09:39:19Z</time>
      </trkpt>
      <trkpt lat="36.7855" lon="-2.740897">
        <ele>97.159</ele>
        <time>2021-06-16T09:39:21Z</time>
      </trkpt>
      <trkpt lat="36.78542" lon="-2.741363">
        <ele>96.414</ele>
        <time>2021-06-16T09:39:23Z</time>
      </trkpt>
      <trkpt lat="36.785342" lon="-2.741836">
        <ele>95.508</ele>
        <time>2021-06-16T09:39:25Z</time>
      </trkpt>
      <trkpt lat="36.785303" lon="-2.742071">
        <ele>94.712</ele>
        <time>2021-06-16T09:39:26Z</time>
      </trkpt>
      <trkpt lat="36.785221" lon="-2.74253">
        <ele>93.740</ele>
        <time>2021-06-16T09:39:28Z</time>
      </trkpt>
      <trkpt lat="36.785182" lon="-2.74276">
        <ele>92.964</ele>
        <time>2021-06-16T09:39:29Z</time>
      </trkpt>
      <trkpt lat="36.785103" lon="-2.743226">
        <ele>92.493</ele>
        <time>2021-06-16T09:39:31Z</time>
      </trkpt>
      <trkpt lat="36.785027" lon="-2.743685">
        <ele>91.766</ele>
        <time>2021-06-16T09:39:33Z</time>
      </trkpt>
      <trkpt lat="36.784989" lon="-2.743918">
        <ele>90.923</ele>
        <time>2021-06-16T09:39:34Z</time>
      </trkpt>
      <trkpt lat="36.784916" lon="-2.744379">
        <ele>90.510</ele>
        <time>2021-06-16T09:39:36Z</time>
      </trkpt>
      <trkpt lat="36.784848" lon="-2.74484">
        <ele>90.750</ele>
        <time>2021-06-16T09:39:38Z</time>
      </trkpt>
      <trkpt lat="36.784812" lon="-2.745066">
        <ele>90.687</ele>
        <time>2021-06-16T09:39:39Z</time>
      </trkpt>
      <trkpt lat="36.784736" lon="-2.745525">
        <ele>89.942</ele>
        <time>2021-06-16T09:39:41Z</time>
      </trkpt>
      <trkpt lat="36.784658" lon="-2.745987">
        <ele>89.626</ele>
        <time>2021-06-16T09:39:43Z</time>
      </trkpt>
      <trkpt lat="36.78458" lon="-2.746451">
        <ele>89.308</ele>
        <time>2021-06-16T09:39:45Z</time>
      </trkpt>
      <trkpt lat="36.784539" lon="-2.746683">
        <ele>89.145</ele>
        <time>2021-06-16T09:39:46Z</time>
      </trkpt>
      <trkpt lat="36.784463" lon="-2.747144">
        <ele>89.143</ele>
        <time>2021-06-16T09:39:48Z</time>
      </trkpt>
      <trkpt lat="36.784386" lon="-2.747591">
        <ele>89.277</ele>
        <time>2021-06-16T09:39:50Z</time>
      </trkpt>
      <trkpt lat="36.784347" lon="-2.747813">
        <ele>88.846</ele>
        <time>2021-06-16T09:39:51Z</time>
      </trkpt>
      <trkpt lat="36.78431" lon="-2.748042">
        <ele>88.459</ele>
        <time>2021-06-16T09:39:52Z</time>
      </trkpt>
      <trkpt lat="36.784237" lon="-2.748492">
        <ele>88.236</ele>
        <time>2021-06-16T09:39:54Z</time>
      </trkpt>
      <trkpt lat="36.784199" lon="-2.748722">
        <ele>87.943</ele>
        <time>2021-06-16T09:39:55Z</time>
      </trkpt>
      <trkpt lat="36.784124" lon="-2.74918">
        <ele>87.513</ele>
        <time>2021-06-16T09:39:57Z</time>
      </trkpt>
      <trkpt lat="36.784083" lon="-2.749411">
        <ele>86.872</ele>
        <time>2021-06-16T09:39:58Z</time>
      </trkpt>
      <trkpt lat="36.784002" lon="-2.749878">
        <ele>86.313</ele>
        <time>2021-06-16T09:40:00Z</time>
      </trkpt>
      <trkpt lat="36.783922" lon="-2.750328">
        <ele>85.814</ele>
        <time>2021-06-16T09:40:02Z</time>
      </trkpt>
      <trkpt lat="36.783882" lon="-2.750563">
        <ele>85.508</ele>
        <time>2021-06-16T09:40:03Z</time>
      </trkpt>
      <trkpt lat="36.783841" lon="-2.750801">
        <ele>85.024</ele>
        <time>2021-06-16T09:40:04Z</time>
      </trkpt>
      <trkpt lat="36.783753" lon="-2.751275">
        <ele>84.012</ele>
        <time>2021-06-16T09:40:06Z</time>
      </trkpt>
      <trkpt lat="36.783703" lon="-2.751514">
        <ele>83.246</ele>
        <time>2021-06-16T09:40:07Z</time>
      </trkpt>
      <trkpt lat="36.783604" lon="-2.751992">
        <ele>82.085</ele>
        <time>2021-06-16T09:40:09Z</time>
      </trkpt>
      <trkpt lat="36.783553" lon="-2.752233">
        <ele>81.188</ele>
        <time>2021-06-16T09:40:10Z</time>
      </trkpt>
      <trkpt lat="36.783452" lon="-2.752695">
        <ele>80.385</ele>
        <time>2021-06-16T09:40:12Z</time>
      </trkpt>
      <trkpt lat="36.783344" lon="-2.753152">
        <ele>79.772</ele>
        <time>2021-06-16T09:40:14Z</time>
      </trkpt>
      <trkpt lat="36.78323" lon="-2.753611">
        <ele>78.832</ele>
        <time>2021-06-16T09:40:16Z</time>
      </trkpt>
      <trkpt lat="36.783168" lon="-2.753844">
        <ele>77.966</ele>
        <time>2021-06-16T09:40:17Z</time>
      </trkpt>
      <trkpt lat="36.783049" lon="-2.754306">
        <ele>77.229</ele>
        <time>2021-06-16T09:40:19Z</time>
      </trkpt>
      <trkpt lat="36.78299" lon="-2.75454">
        <ele>77.121</ele>
        <time>2021-06-16T09:40:20Z</time>
      </trkpt>
      <trkpt lat="36.782858" lon="-2.755003">
        <ele>76.208</ele>
        <time>2021-06-16T09:40:22Z</time>
      </trkpt>
      <trkpt lat="36.782725" lon="-2.755458">
        <ele>75.693</ele>
        <time>2021-06-16T09:40:24Z</time>
      </trkpt>
      <trkpt lat="36.782659" lon="-2.755685">
        <ele>75.341</ele>
        <time>2021-06-16T09:40:25Z</time>
      </trkpt>
      <trkpt lat="36.782596" lon="-2.755913">
        <ele>74.955</ele>
        <time>2021-06-16T09:40:26Z</time>
      </trkpt>
      <trkpt lat="36.78253" lon="-2.756138">
        <ele>74.114</ele>
        <time>2021-06-16T09:40:27Z</time>
      </trkpt>
      <trkpt lat="36.782392" lon="-2.75659">
        <ele>73.687</ele>
        <time>2021-06-16T09:40:29Z</time>
      </trkpt>
      <trkpt lat="36.782235" lon="-2.757039">
        <ele>73.024</ele>
        <time>2021-06-16T09:40:31Z</time>
      </trkpt>
      <trkpt lat="36.78208" lon="-2.757482">
        <ele>72.411</ele>
        <time>2021-06-16T09:40:33Z</time>
      </trkpt>
      <trkpt lat="36.782002" lon="-2.757701">
        <ele>72.191</ele>
        <time>2021-06-16T09:40:34Z</time>
      </trkpt>
      <trkpt lat="36.781844" lon="-2.758127">
        <ele>71.369</ele>
        <time>2021-06-16T09:40:36Z</time>
      </trkpt>
      <trkpt lat="36.781765" lon="-2.758339">
        <ele>70.804</ele>
        <time>2021-06-16T09:40:37Z</time>
      </trkpt>
      <trkpt lat="36.781602" lon="-2.758761">
        <ele>70.524</ele>
        <time>2021-06-16T09:40:39Z</time>
      </trkpt>
      <trkpt lat="36.781519" lon="-2.75897">
        <ele>70.208</ele>
        <time>2021-06-16T09:40:40Z</time>
      </trkpt>
      <trkpt lat="36.781434" lon="-2.759178">
        <ele>70.443</ele>
        <time>2021-06-16T09:40:41Z</time>
      </trkpt>
      <trkpt lat="36.781256" lon="-2.759583">
        <ele>69.571</ele>
        <time>2021-06-16T09:40:43Z</time>
      </trkpt>
      <trkpt lat="36.781074" lon="-2.760005">
        <ele>68.995</ele>
        <time>2021-06-16T09:40:45Z</time>
      </trkpt>
      <trkpt lat="36.780886" lon="-2.760438">
        <ele>68.234</ele>
        <time>2021-06-16T09:40:47Z</time>
      </trkpt>
      <trkpt lat="36.78069" lon="-2.760868">
        <ele>67.547</ele>
        <time>2021-06-16T09:40:49Z</time>
      </trkpt>
      <trkpt lat="36.780486" lon="-2.761294">
        <ele>66.914</ele>
        <time>2021-06-16T09:40:51Z</time>
      </trkpt>
      <trkpt lat="36.780386" lon="-2.761504">
        <ele>66.021</ele>
        <time>2021-06-16T09:40:52Z</time>
      </trkpt>
      <trkpt lat="36.780285" lon="-2.761716">
        <ele>65.441</ele>
        <time>2021-06-16T09:40:53Z</time>
      </trkpt>
      <trkpt lat="36.780078" lon="-2.762139">
        <ele>65.545</ele>
        <time>2021-06-16T09:40:55Z</time>
      </trkpt>
      <trkpt lat="36.779975" lon="-2.762348">
        <ele>65.047</ele>
        <time>2021-06-16T09:40:56Z</time>
      </trkpt>
      <trkpt lat="36.779767" lon="-2.762767">
        <ele>64.311</ele>
        <time>2021-06-16T09:40:58Z</time>
      </trkpt>
      <trkpt lat="36.779554" lon="-2.763171">
        <ele>63.408</ele>
        <time>2021-06-16T09:41:00Z</time>
      </trkpt>
      <trkpt lat="36.77934" lon="-2.763573">
        <ele>62.421</ele>
        <time>2021-06-16T09:41:02Z</time>
      </trkpt>
      <trkpt lat="36.779237" lon="-2.763776">
        <ele>61.219</ele>
        <time>2021-06-16T09:41:03Z</time>
      </trkpt>
      <trkpt lat="36.779034" lon="-2.764185">
        <ele>59.533</ele>
        <time>2021-06-16T09:41:05Z</time>
      </trkpt>
      <trkpt lat="36.778928" lon="-2.764388">
        <ele>58.162</ele>
        <time>2021-06-16T09:41:06Z</time>
      </trkpt>
      <trkpt lat="36.778713" lon="-2.76479">
        <ele>57.235</ele>
        <time>2021-06-16T09:41:08Z</time>
      </trkpt>
      <trkpt lat="36.778605" lon="-2.764991">
        <ele>56.242</ele>
        <time>2021-06-16T09:41:09Z</time>
      </trkpt>
      <trkpt lat="36.778392" lon="-2.765399">
        <ele>55.559</ele>
        <time>2021-06-16T09:41:11Z</time>
      </trkpt>
      <trkpt lat="36.77818" lon="-2.76581">
        <ele>54.729</ele>
        <time>2021-06-16T09:41:13Z</time>
      </trkpt>
      <trkpt lat="36.778074" lon="-2.766012">
        <ele>53.847</ele>
        <time>2021-06-16T09:41:14Z</time>
      </trkpt>
      <trkpt lat="36.777964" lon="-2.766216">
        <ele>53.329</ele>
        <time>2021-06-16T09:41:15Z</time>
      </trkpt>
      <trkpt lat="36.777853" lon="-2.766422">
        <ele>52.921</ele>
        <time>2021-06-16T09:41:16Z</time>
      </trkpt>
      <trkpt lat="36.777637" lon="-2.766833">
        <ele>52.308</ele>
        <time>2021-06-16T09:41:18Z</time>
      </trkpt>
      <trkpt lat="36.777531" lon="-2.767041">
        <ele>51.661</ele>
        <time>2021-06-16T09:41:19Z</time>
      </trkpt>
      <trkpt lat="36.77733" lon="-2.767451">
        <ele>51.039</ele>
        <time>2021-06-16T09:41:21Z</time>
      </trkpt>
      <trkpt lat="36.777228" lon="-2.767658">
        <ele>50.663</ele>
        <time>2021-06-16T09:41:22Z</time>
      </trkpt>
      <trkpt lat="36.777021" lon="-2.768071">
        <ele>49.942</ele>
        <time>2021-06-16T09:41:24Z</time>
      </trkpt>
      <trkpt lat="36.776921" lon="-2.768279">
        <ele>49.715</ele>
        <time>2021-06-16T09:41:25Z</time>
      </trkpt>
      <trkpt lat="36.77672" lon="-2.768696">
        <ele>49.842</ele>
        <time>2021-06-16T09:41:27Z</time>
      </trkpt>
      <trkpt lat="36.776625" lon="-2.76891">
        <ele>50.189</ele>
        <time>2021-06-16T09:41:28Z</time>
      </trkpt>
      <trkpt lat="36.776432" lon="-2.769332">
        <ele>49.939</ele>
        <time>2021-06-16T09:41:30Z</time>
      </trkpt>
      <trkpt lat="36.776337" lon="-2.769543">
        <ele>49.499</ele>
        <time>2021-06-16T09:41:31Z</time>
      </trkpt>
      <trkpt lat="36.776152" lon="-2.76996">
        <ele>49.007</ele>
        <time>2021-06-16T09:41:33Z</time>
      </trkpt>
      <trkpt lat="36.775977" lon="-2.770383">
        <ele>48.527</ele>
        <time>2021-06-16T09:41:35Z</time>
      </trkpt>
      <trkpt lat="36.77589" lon="-2.770594">
        <ele>48.308</ele>
        <time>2021-06-16T09:41:36Z</time>
      </trkpt>
      <trkpt lat="36.775803" lon="-2.770804">
        <ele>48.136</ele>
        <time>2021-06-16T09:41:37Z</time>
      </trkpt>
      <trkpt lat="36.775634" lon="-2.771227">
        <ele>48.314</ele>
        <time>2021-06-16T09:41:39Z</time>
      </trkpt>
      <trkpt lat="36.775462" lon="-2.771653">
        <ele>48.478</ele>
        <time>2021-06-16T09:41:41Z</time>
      </trkpt>
      <trkpt lat="36.775289" lon="-2.772077">
        <ele>48.627</ele>
        <time>2021-06-16T09:41:43Z</time>
      </trkpt>
      <trkpt lat="36.77512" lon="-2.772496">
        <ele>48.650</ele>
        <time>2021-06-16T09:41:45Z</time>
      </trkpt>
      <trkpt lat="36.775037" lon="-2.772706">
        <ele>48.677</ele>
        <time>2021-06-16T09:41:46Z</time>
      </trkpt>
      <trkpt lat="36.774954" lon="-2.772914">
        <ele>48.644</ele>
        <time>2021-06-16T09:41:47Z</time>
      </trkpt>
      <trkpt lat="36.774871" lon="-2.773123">
        <ele>48.364</ele>
        <time>2021-06-16T09:41:48Z</time>
      </trkpt>
      <trkpt lat="36.774788" lon="-2.773332">
        <ele>48.311</ele>
        <time>2021-06-16T09:41:49Z</time>
      </trkpt>
      <trkpt lat="36.774617" lon="-2.773758">
        <ele>48.121</ele>
        <time>2021-06-16T09:41:51Z</time>
      </trkpt>
      <trkpt lat="36.774437" lon="-2.774196">
        <ele>48.103</ele>
        <time>2021-06-16T09:41:53Z</time>
      </trkpt>
      <trkpt lat="36.774345" lon="-2.774415">
        <ele>48.308</ele>
        <time>2021-06-16T09:41:54Z</time>
      </trkpt>
      <trkpt lat="36.77425" lon="-2.774633">
        <ele>48.588</ele>
        <time>2021-06-16T09:41:55Z</time>
      </trkpt>
      <trkpt lat="36.774064" lon="-2.775063">
        <ele>48.846</ele>
        <time>2021-06-16T09:41:57Z</time>
      </trkpt>
      <trkpt lat="36.77397" lon="-2.775276">
        <ele>48.950</ele>
        <time>2021-06-16T09:41:58Z</time>
      </trkpt>
      <trkpt lat="36.77378" lon="-2.775695">
        <ele>49.319</ele>
        <time>2021-06-16T09:42:00Z</time>
      </trkpt>
      <trkpt lat="36.773682" lon="-2.775909">
        <ele>49.612</ele>
        <time>2021-06-16T09:42:01Z</time>
      </trkpt>
      <trkpt lat="36.773483" lon="-2.776323">
        <ele>50.199</ele>
        <time>2021-06-16T09:42:03Z</time>
      </trkpt>
      <trkpt lat="36.773382" lon="-2.776527">
        <ele>50.556</ele>
        <time>2021-06-16T09:42:04Z</time>
      </trkpt>
      <trkpt lat="36.77328" lon="-2.776731">
        <ele>50.756</ele>
        <time>2021-06-16T09:42:05Z</time>
      </trkpt>
      <trkpt lat="36.773076" lon="-2.777138">
        <ele>51.049</ele>
        <time>2021-06-16T09:42:07Z</time>
      </trkpt>
      <trkpt lat="36.772866" lon="-2.777538">
        <ele>50.802</ele>
        <time>2021-06-16T09:42:09Z</time>
      </trkpt>
      <trkpt lat="36.77276" lon="-2.777734">
        <ele>50.622</ele>
        <time>2021-06-16T09:42:10Z</time>
      </trkpt>
      <trkpt lat="36.772655" lon="-2.777931">
        <ele>50.708</ele>
        <time>2021-06-16T09:42:11Z</time>
      </trkpt>
      <trkpt lat="36.772547" lon="-2.778127">
        <ele>51.021</ele>
        <time>2021-06-16T09:42:12Z</time>
      </trkpt>
      <trkpt lat="36.772323" lon="-2.778523">
        <ele>51.569</ele>
        <time>2021-06-16T09:42:14Z</time>
      </trkpt>
      <trkpt lat="36.772205" lon="-2.778718">
        <ele>52.063</ele>
        <time>2021-06-16T09:42:15Z</time>
      </trkpt>
      <trkpt lat="36.771968" lon="-2.779095">
        <ele>52.412</ele>
        <time>2021-06-16T09:42:17Z</time>
      </trkpt>
      <trkpt lat="36.771847" lon="-2.779288">
        <ele>52.945</ele>
        <time>2021-06-16T09:42:18Z</time>
      </trkpt>
      <trkpt lat="36.771602" lon="-2.779665">
        <ele>53.142</ele>
        <time>2021-06-16T09:42:20Z</time>
      </trkpt>
      <trkpt lat="36.771478" lon="-2.779852">
        <ele>52.779</ele>
        <time>2021-06-16T09:42:21Z</time>
      </trkpt>
      <trkpt lat="36.771231" lon="-2.780225">
        <ele>53.179</ele>
        <time>2021-06-16T09:42:23Z</time>
      </trkpt>
      <trkpt lat="36.770974" lon="-2.780588">
        <ele>53.265</ele>
        <time>2021-06-16T09:42:25Z</time>
      </trkpt>
      <trkpt lat="36.770713" lon="-2.780945">
        <ele>53.768</ele>
        <time>2021-06-16T09:42:27Z</time>
      </trkpt>
      <trkpt lat="36.770448" lon="-2.781289">
        <ele>54.014</ele>
        <time>2021-06-16T09:42:29Z</time>
      </trkpt>
      <trkpt lat="36.77018" lon="-2.781621">
        <ele>54.308</ele>
        <time>2021-06-16T09:42:31Z</time>
      </trkpt>
      <trkpt lat="36.769906" lon="-2.781966">
        <ele>54.733</ele>
        <time>2021-06-16T09:42:33Z</time>
      </trkpt>
      <trkpt lat="36.769762" lon="-2.78214">
        <ele>54.881</ele>
        <time>2021-06-16T09:42:34Z</time>
      </trkpt>
      <trkpt lat="36.769618" lon="-2.782311">
        <ele>55.065</ele>
        <time>2021-06-16T09:42:35Z</time>
      </trkpt>
      <trkpt lat="36.769326" lon="-2.782643">
        <ele>55.394</ele>
        <time>2021-06-16T09:42:37Z</time>
      </trkpt>
      <trkpt lat="36.769179" lon="-2.78281">
        <ele>55.757</ele>
        <time>2021-06-16T09:42:38Z</time>
      </trkpt>
      <trkpt lat="36.768879" lon="-2.783134">
        <ele>55.984</ele>
        <time>2021-06-16T09:42:40Z</time>
      </trkpt>
      <trkpt lat="36.768581" lon="-2.783449">
        <ele>55.741</ele>
        <time>2021-06-16T09:42:42Z</time>
      </trkpt>
      <trkpt lat="36.768272" lon="-2.783764">
        <ele>56.281</ele>
        <time>2021-06-16T09:42:44Z</time>
      </trkpt>
      <trkpt lat="36.767961" lon="-2.784059">
        <ele>57.254</ele>
        <time>2021-06-16T09:42:46Z</time>
      </trkpt>
      <trkpt lat="36.767802" lon="-2.784202">
        <ele>57.256</ele>
        <time>2021-06-16T09:42:47Z</time>
      </trkpt>
      <trkpt lat="36.767643" lon="-2.784348">
        <ele>57.511</ele>
        <time>2021-06-16T09:42:48Z</time>
      </trkpt>
      <trkpt lat="36.767338" lon="-2.78464">
        <ele>57.408</ele>
        <time>2021-06-16T09:42:50Z</time>
      </trkpt>
      <trkpt lat="36.767186" lon="-2.78479">
        <ele>57.292</ele>
        <time>2021-06-16T09:42:51Z</time>
      </trkpt>
      <trkpt lat="36.766879" lon="-2.785091">
        <ele>57.110</ele>
        <time>2021-06-16T09:42:53Z</time>
      </trkpt>
      <trkpt lat="36.766568" lon="-2.78539">
        <ele>57.274</ele>
        <time>2021-06-16T09:42:55Z</time>
      </trkpt>
      <trkpt lat="36.766411" lon="-2.785541">
        <ele>57.273</ele>
        <time>2021-06-16T09:42:56Z</time>
      </trkpt>
      <trkpt lat="36.766097" lon="-2.785842">
        <ele>57.076</ele>
        <time>2021-06-16T09:42:58Z</time>
      </trkpt>
      <trkpt lat="36.765938" lon="-2.785992">
        <ele>56.893</ele>
        <time>2021-06-16T09:42:59Z</time>
      </trkpt>
      <trkpt lat="36.765627" lon="-2.786301">
        <ele>57.250</ele>
        <time>2021-06-16T09:43:01Z</time>
      </trkpt>
      <trkpt lat="36.765321" lon="-2.786619">
        <ele>57.310</ele>
        <time>2021-06-16T09:43:03Z</time>
      </trkpt>
      <trkpt lat="36.765028" lon="-2.786961">
        <ele>57.376</ele>
        <time>2021-06-16T09:43:05Z</time>
      </trkpt>
      <trkpt lat="36.764883" lon="-2.787132">
        <ele>57.490</ele>
        <time>2021-06-16T09:43:06Z</time>
      </trkpt>
      <trkpt lat="36.764742" lon="-2.787303">
        <ele>57.119</ele>
        <time>2021-06-16T09:43:07Z</time>
      </trkpt>
      <trkpt lat="36.76447" lon="-2.787654">
        <ele>57.608</ele>
        <time>2021-06-16T09:43:09Z</time>
      </trkpt>
      <trkpt lat="36.764332" lon="-2.787834">
        <ele>57.524</ele>
        <time>2021-06-16T09:43:10Z</time>
      </trkpt>
      <trkpt lat="36.764069" lon="-2.788202">
        <ele>57.582</ele>
        <time>2021-06-16T09:43:12Z</time>
      </trkpt>
      <trkpt lat="36.763815" lon="-2.788579">
        <ele>57.986</ele>
        <time>2021-06-16T09:43:14Z</time>
      </trkpt>
      <trkpt lat="36.763574" lon="-2.788966">
        <ele>57.845</ele>
        <time>2021-06-16T09:43:16Z</time>
      </trkpt>
      <trkpt lat="36.763335" lon="-2.789364">
        <ele>57.868</ele>
        <time>2021-06-16T09:43:18Z</time>
      </trkpt>
      <trkpt lat="36.76311" lon="-2.789756">
        <ele>57.685</ele>
        <time>2021-06-16T09:43:20Z</time>
      </trkpt>
      <trkpt lat="36.763001" lon="-2.789956">
        <ele>57.482</ele>
        <time>2021-06-16T09:43:21Z</time>
      </trkpt>
      <trkpt lat="36.762785" lon="-2.79036">
        <ele>57.142</ele>
        <time>2021-06-16T09:43:23Z</time>
      </trkpt>
      <trkpt lat="36.762568" lon="-2.790772">
        <ele>57.255</ele>
        <time>2021-06-16T09:43:25Z</time>
      </trkpt>
      <trkpt lat="36.762362" lon="-2.791178">
        <ele>56.807</ele>
        <time>2021-06-16T09:43:27Z</time>
      </trkpt>
      <trkpt lat="36.762258" lon="-2.791383">
        <ele>56.517</ele>
        <time>2021-06-16T09:43:28Z</time>
      </trkpt>
      <trkpt lat="36.762046" lon="-2.791798">
        <ele>56.308</ele>
        <time>2021-06-16T09:43:30Z</time>
      </trkpt>
      <trkpt lat="36.76194" lon="-2.792008">
        <ele>56.172</ele>
        <time>2021-06-16T09:43:31Z</time>
      </trkpt>
      <trkpt lat="36.761832" lon="-2.792216">
        <ele>56.270</ele>
        <time>2021-06-16T09:43:32Z</time>
      </trkpt>
      <trkpt lat="36.761727" lon="-2.792422">
        <ele>56.454</ele>
        <time>2021-06-16T09:43:33Z</time>
      </trkpt>
      <trkpt lat="36.761621" lon="-2.792632">
        <ele>56.473</ele>
        <time>2021-06-16T09:43:34Z</time>
      </trkpt>
      <trkpt lat="36.761405" lon="-2.793058">
        <ele>56.236</ele>
        <time>2021-06-16T09:43:36Z</time>
      </trkpt>
      <trkpt lat="36.761192" lon="-2.793483">
        <ele>56.013</ele>
        <time>2021-06-16T09:43:38Z</time>
      </trkpt>
      <trkpt lat="36.761083" lon="-2.793697">
        <ele>56.030</ele>
        <time>2021-06-16T09:43:39Z</time>
      </trkpt>
      <trkpt lat="36.76097" lon="-2.793904">
        <ele>55.670</ele>
        <time>2021-06-16T09:43:40Z</time>
      </trkpt>
      <trkpt lat="36.760858" lon="-2.794108">
        <ele>55.752</ele>
        <time>2021-06-16T09:43:41Z</time>
      </trkpt>
      <trkpt lat="36.760627" lon="-2.794506">
        <ele>56.153</ele>
        <time>2021-06-16T09:43:43Z</time>
      </trkpt>
      <trkpt lat="36.760388" lon="-2.794893">
        <ele>55.908</ele>
        <time>2021-06-16T09:43:45Z</time>
      </trkpt>
      <trkpt lat="36.760146" lon="-2.795273">
        <ele>55.508</ele>
        <time>2021-06-16T09:43:47Z</time>
      </trkpt>
      <trkpt lat="36.759904" lon="-2.795643">
        <ele>55.212</ele>
        <time>2021-06-16T09:43:49Z</time>
      </trkpt>
      <trkpt lat="36.759774" lon="-2.795826">
        <ele>55.150</ele>
        <time>2021-06-16T09:43:50Z</time>
      </trkpt>
      <trkpt lat="36.759522" lon="-2.796188">
        <ele>54.974</ele>
        <time>2021-06-16T09:43:52Z</time>
      </trkpt>
      <trkpt lat="36.759394" lon="-2.796368">
        <ele>54.863</ele>
        <time>2021-06-16T09:43:53Z</time>
      </trkpt>
      <trkpt lat="36.759135" lon="-2.796722">
        <ele>54.586</ele>
        <time>2021-06-16T09:43:55Z</time>
      </trkpt>
      <trkpt lat="36.758871" lon="-2.797082">
        <ele>54.743</ele>
        <time>2021-06-16T09:43:57Z</time>
      </trkpt>
      <trkpt lat="36.758737" lon="-2.797263">
        <ele>54.770</ele>
        <time>2021-06-16T09:43:58Z</time>
      </trkpt>
      <trkpt lat="36.758607" lon="-2.797445">
        <ele>54.780</ele>
        <time>2021-06-16T09:43:59Z</time>
      </trkpt>
      <trkpt lat="36.758352" lon="-2.797815">
        <ele>54.151</ele>
        <time>2021-06-16T09:44:01Z</time>
      </trkpt>
      <trkpt lat="36.75823" lon="-2.798007">
        <ele>53.901</ele>
        <time>2021-06-16T09:44:02Z</time>
      </trkpt>
      <trkpt lat="36.758115" lon="-2.798207">
        <ele>53.711</ele>
        <time>2021-06-16T09:44:03Z</time>
      </trkpt>
      <trkpt lat="36.757898" lon="-2.798618">
        <ele>53.508</ele>
        <time>2021-06-16T09:44:05Z</time>
      </trkpt>
      <trkpt lat="36.757693" lon="-2.799033">
        <ele>53.232</ele>
        <time>2021-06-16T09:44:07Z</time>
      </trkpt>
      <trkpt lat="36.757507" lon="-2.799459">
        <ele>53.380</ele>
        <time>2021-06-16T09:44:09Z</time>
      </trkpt>
      <trkpt lat="36.757422" lon="-2.799676">
        <ele>53.834</ele>
        <time>2021-06-16T09:44:10Z</time>
      </trkpt>
      <trkpt lat="36.757272" lon="-2.800111">
        <ele>54.323</ele>
        <time>2021-06-16T09:44:12Z</time>
      </trkpt>
      <trkpt lat="36.757127" lon="-2.800553">
        <ele>54.916</ele>
        <time>2021-06-16T09:44:14Z</time>
      </trkpt>
      <trkpt lat="36.757066" lon="-2.800782">
        <ele>55.843</ele>
        <time>2021-06-16T09:44:15Z</time>
      </trkpt>
      <trkpt lat="36.756952" lon="-2.801237">
        <ele>56.480</ele>
        <time>2021-06-16T09:44:17Z</time>
      </trkpt>
      <trkpt lat="36.756901" lon="-2.801471">
        <ele>56.790</ele>
        <time>2021-06-16T09:44:18Z</time>
      </trkpt>
      <trkpt lat="36.756814" lon="-2.801937">
        <ele>57.713</ele>
        <time>2021-06-16T09:44:20Z</time>
      </trkpt>
      <trkpt lat="36.756744" lon="-2.802411">
        <ele>58.843</ele>
        <time>2021-06-16T09:44:22Z</time>
      </trkpt>
      <trkpt lat="36.756684" lon="-2.802878">
        <ele>59.407</ele>
        <time>2021-06-16T09:44:24Z</time>
      </trkpt>
      <trkpt lat="36.756655" lon="-2.803112">
        <ele>59.908</ele>
        <time>2021-06-16T09:44:25Z</time>
      </trkpt>
      <trkpt lat="36.75664" lon="-2.803603">
        <ele>61.068</ele>
        <time>2021-06-16T09:44:27Z</time>
      </trkpt>
      <trkpt lat="36.75664" lon="-2.803854">
        <ele>61.946</ele>
        <time>2021-06-16T09:44:28Z</time>
      </trkpt>
      <trkpt lat="36.756644" lon="-2.804343">
        <ele>63.290</ele>
        <time>2021-06-16T09:44:30Z</time>
      </trkpt>
      <trkpt lat="36.756666" lon="-2.804831">
        <ele>64.719</ele>
        <time>2021-06-16T09:44:32Z</time>
      </trkpt>
      <trkpt lat="36.756707" lon="-2.805326">
        <ele>65.912</ele>
        <time>2021-06-16T09:44:34Z</time>
      </trkpt>
      <trkpt lat="36.756773" lon="-2.805821">
        <ele>66.949</ele>
        <time>2021-06-16T09:44:36Z</time>
      </trkpt>
      <trkpt lat="36.756815" lon="-2.806064">
        <ele>67.036</ele>
        <time>2021-06-16T09:44:37Z</time>
      </trkpt>
      <trkpt lat="36.756862" lon="-2.8063">
        <ele>67.666</ele>
        <time>2021-06-16T09:44:38Z</time>
      </trkpt>
      <trkpt lat="36.756964" lon="-2.806765">
        <ele>68.166</ele>
        <time>2021-06-16T09:44:40Z</time>
      </trkpt>
      <trkpt lat="36.757021" lon="-2.807">
        <ele>68.429</ele>
        <time>2021-06-16T09:44:41Z</time>
      </trkpt>
      <trkpt lat="36.757079" lon="-2.807236">
        <ele>68.821</ele>
        <time>2021-06-16T09:44:42Z</time>
      </trkpt>
      <trkpt lat="36.757218" lon="-2.807701">
        <ele>68.708</ele>
        <time>2021-06-16T09:44:44Z</time>
      </trkpt>
      <trkpt lat="36.757299" lon="-2.807928">
        <ele>68.723</ele>
        <time>2021-06-16T09:44:45Z</time>
      </trkpt>
      <trkpt lat="36.75747" lon="-2.808373">
        <ele>68.761</ele>
        <time>2021-06-16T09:44:47Z</time>
      </trkpt>
      <trkpt lat="36.757565" lon="-2.808597">
        <ele>68.895</ele>
        <time>2021-06-16T09:44:48Z</time>
      </trkpt>
      <trkpt lat="36.757666" lon="-2.808817">
        <ele>68.764</ele>
        <time>2021-06-16T09:44:49Z</time>
      </trkpt>
      <trkpt lat="36.757864" lon="-2.809256">
        <ele>68.837</ele>
        <time>2021-06-16T09:44:51Z</time>
      </trkpt>
      <trkpt lat="36.757961" lon="-2.809477">
        <ele>69.274</ele>
        <time>2021-06-16T09:44:52Z</time>
      </trkpt>
      <trkpt lat="36.758059" lon="-2.809698">
        <ele>69.331</ele>
        <time>2021-06-16T09:44:53Z</time>
      </trkpt>
      <trkpt lat="36.758154" lon="-2.809916">
        <ele>69.411</ele>
        <time>2021-06-16T09:44:54Z</time>
      </trkpt>
      <trkpt lat="36.758247" lon="-2.810138">
        <ele>69.371</ele>
        <time>2021-06-16T09:44:55Z</time>
      </trkpt>
      <trkpt lat="36.758416" lon="-2.810578">
        <ele>69.341</ele>
        <time>2021-06-16T09:44:57Z</time>
      </trkpt>
      <trkpt lat="36.758574" lon="-2.811032">
        <ele>69.815</ele>
        <time>2021-06-16T09:44:59Z</time>
      </trkpt>
      <trkpt lat="36.758648" lon="-2.811262">
        <ele>70.208</ele>
        <time>2021-06-16T09:45:00Z</time>
      </trkpt>
      <trkpt lat="36.758719" lon="-2.81149">
        <ele>70.524</ele>
        <time>2021-06-16T09:45:01Z</time>
      </trkpt>
      <trkpt lat="36.758847" lon="-2.811949">
        <ele>70.962</ele>
        <time>2021-06-16T09:45:03Z</time>
      </trkpt>
      <trkpt lat="36.75897" lon="-2.812411">
        <ele>71.486</ele>
        <time>2021-06-16T09:45:05Z</time>
      </trkpt>
      <trkpt lat="36.759073" lon="-2.812875">
        <ele>72.185</ele>
        <time>2021-06-16T09:45:07Z</time>
      </trkpt>
      <trkpt lat="36.75912" lon="-2.813109">
        <ele>72.398</ele>
        <time>2021-06-16T09:45:08Z</time>
      </trkpt>
      <trkpt lat="36.759194" lon="-2.813574">
        <ele>72.925</ele>
        <time>2021-06-16T09:45:10Z</time>
      </trkpt>
      <trkpt lat="36.759232" lon="-2.813811">
        <ele>73.622</ele>
        <time>2021-06-16T09:45:11Z</time>
      </trkpt>
      <trkpt lat="36.759271" lon="-2.814042">
        <ele>74.492</ele>
        <time>2021-06-16T09:45:12Z</time>
      </trkpt>
      <trkpt lat="36.75935" lon="-2.814485">
        <ele>74.939</ele>
        <time>2021-06-16T09:45:14Z</time>
      </trkpt>
      <trkpt lat="36.759433" lon="-2.814932">
        <ele>75.001</ele>
        <time>2021-06-16T09:45:16Z</time>
      </trkpt>
      <trkpt lat="36.759479" lon="-2.815159">
        <ele>75.521</ele>
        <time>2021-06-16T09:45:17Z</time>
      </trkpt>
      <trkpt lat="36.759571" lon="-2.815613">
        <ele>75.308</ele>
        <time>2021-06-16T09:45:19Z</time>
      </trkpt>
      <trkpt lat="36.759621" lon="-2.815842">
        <ele>75.810</ele>
        <time>2021-06-16T09:45:20Z</time>
      </trkpt>
      <trkpt lat="36.759728" lon="-2.816298">
        <ele>76.318</ele>
        <time>2021-06-16T09:45:22Z</time>
      </trkpt>
      <trkpt lat="36.759846" lon="-2.816754">
        <ele>76.662</ele>
        <time>2021-06-16T09:45:24Z</time>
      </trkpt>
      <trkpt lat="36.759918" lon="-2.816984">
        <ele>77.151</ele>
        <time>2021-06-16T09:45:25Z</time>
      </trkpt>
      <trkpt lat="36.760072" lon="-2.817445">
        <ele>78.084</ele>
        <time>2021-06-16T09:45:27Z</time>
      </trkpt>
      <trkpt lat="36.760239" lon="-2.817902">
        <ele>78.791</ele>
        <time>2021-06-16T09:45:29Z</time>
      </trkpt>
      <trkpt lat="36.760416" lon="-2.818344">
        <ele>79.818</ele>
        <time>2021-06-16T09:45:31Z</time>
      </trkpt>
      <trkpt lat="36.76051" lon="-2.818559">
        <ele>80.658</ele>
        <time>2021-06-16T09:45:32Z</time>
      </trkpt>
      <trkpt lat="36.760705" lon="-2.818981">
        <ele>81.615</ele>
        <time>2021-06-16T09:45:34Z</time>
      </trkpt>
      <trkpt lat="36.760808" lon="-2.819193">
        <ele>82.165</ele>
        <time>2021-06-16T09:45:35Z</time>
      </trkpt>
      <trkpt lat="36.760913" lon="-2.819401">
        <ele>82.511</ele>
        <time>2021-06-16T09:45:36Z</time>
      </trkpt>
      <trkpt lat="36.761021" lon="-2.819605">
        <ele>82.808</ele>
        <time>2021-06-16T09:45:37Z</time>
      </trkpt>
      <trkpt lat="36.761242" lon="-2.820016">
        <ele>83.398</ele>
        <time>2021-06-16T09:45:39Z</time>
      </trkpt>
      <trkpt lat="36.761359" lon="-2.820218">
        <ele>83.596</ele>
        <time>2021-06-16T09:45:40Z</time>
      </trkpt>
      <trkpt lat="36.761598" lon="-2.82061">
        <ele>83.880</ele>
        <time>2021-06-16T09:45:42Z</time>
      </trkpt>
      <trkpt lat="36.76172" lon="-2.820804">
        <ele>84.199</ele>
        <time>2021-06-16T09:45:43Z</time>
      </trkpt>
      <trkpt lat="36.761967" lon="-2.821189">
        <ele>84.272</ele>
        <time>2021-06-16T09:45:45Z</time>
      </trkpt>
      <trkpt lat="36.762223" lon="-2.82157">
        <ele>84.489</ele>
        <time>2021-06-16T09:45:47Z</time>
      </trkpt>
      <trkpt lat="36.762482" lon="-2.821954">
        <ele>84.246</ele>
        <time>2021-06-16T09:45:49Z</time>
      </trkpt>
      <trkpt lat="36.762742" lon="-2.822322">
        <ele>84.276</ele>
        <time>2021-06-16T09:45:51Z</time>
      </trkpt>
      <trkpt lat="36.762875" lon="-2.822509">
        <ele>84.581</ele>
        <time>2021-06-16T09:45:52Z</time>
      </trkpt>
      <trkpt lat="36.763142" lon="-2.822879">
        <ele>84.661</ele>
        <time>2021-06-16T09:45:54Z</time>
      </trkpt>
      <trkpt lat="36.763277" lon="-2.823063">
        <ele>84.617</ele>
        <time>2021-06-16T09:45:55Z</time>
      </trkpt>
      <trkpt lat="36.763542" lon="-2.82342">
        <ele>85.108</ele>
        <time>2021-06-16T09:45:57Z</time>
      </trkpt>
      <trkpt lat="36.76381" lon="-2.823773">
        <ele>85.745</ele>
        <time>2021-06-16T09:45:59Z</time>
      </trkpt>
      <trkpt lat="36.763942" lon="-2.823952">
        <ele>86.383</ele>
        <time>2021-06-16T09:46:00Z</time>
      </trkpt>
      <trkpt lat="36.764205" lon="-2.824312">
        <ele>86.717</ele>
        <time>2021-06-16T09:46:02Z</time>
      </trkpt>
      <trkpt lat="36.764334" lon="-2.824493">
        <ele>86.876</ele>
        <time>2021-06-16T09:46:03Z</time>
      </trkpt>
      <trkpt lat="36.7646" lon="-2.824847">
        <ele>87.049</ele>
        <time>2021-06-16T09:46:05Z</time>
      </trkpt>
      <trkpt lat="36.764734" lon="-2.825025">
        <ele>87.236</ele>
        <time>2021-06-16T09:46:06Z</time>
      </trkpt>
      <trkpt lat="36.764865" lon="-2.825201">
        <ele>87.413</ele>
        <time>2021-06-16T09:46:07Z</time>
      </trkpt>
      <trkpt lat="36.765116" lon="-2.825561">
        <ele>88.183</ele>
        <time>2021-06-16T09:46:09Z</time>
      </trkpt>
      <trkpt lat="36.765242" lon="-2.825741">
        <ele>89.262</ele>
        <time>2021-06-16T09:46:10Z</time>
      </trkpt>
      <trkpt lat="36.765496" lon="-2.826107">
        <ele>90.483</ele>
        <time>2021-06-16T09:46:12Z</time>
      </trkpt>
      <trkpt lat="36.76562" lon="-2.826292">
        <ele>91.411</ele>
        <time>2021-06-16T09:46:13Z</time>
      </trkpt>
      <trkpt lat="36.76586" lon="-2.826668">
        <ele>92.508</ele>
        <time>2021-06-16T09:46:15Z</time>
      </trkpt>
      <trkpt lat="36.766091" lon="-2.827047">
        <ele>93.833</ele>
        <time>2021-06-16T09:46:17Z</time>
      </trkpt>
      <trkpt lat="36.766208" lon="-2.827239">
        <ele>94.711</ele>
        <time>2021-06-16T09:46:18Z</time>
      </trkpt>
      <trkpt lat="36.766431" lon="-2.827623">
        <ele>95.685</ele>
        <time>2021-06-16T09:46:20Z</time>
      </trkpt>
      <trkpt lat="36.766645" lon="-2.828006">
        <ele>96.824</ele>
        <time>2021-06-16T09:46:22Z</time>
      </trkpt>
      <trkpt lat="36.766852" lon="-2.828393">
        <ele>97.417</ele>
        <time>2021-06-16T09:46:24Z</time>
      </trkpt>
      <trkpt lat="36.767049" lon="-2.828787">
        <ele>98.214</ele>
        <time>2021-06-16T09:46:26Z</time>
      </trkpt>
      <trkpt lat="36.76714" lon="-2.82899">
        <ele>98.821</ele>
        <time>2021-06-16T09:46:27Z</time>
      </trkpt>
      <trkpt lat="36.76731" lon="-2.829406">
        <ele>99.751</ele>
        <time>2021-06-16T09:46:29Z</time>
      </trkpt>
      <trkpt lat="36.767389" lon="-2.82962">
        <ele>100.497</ele>
        <time>2021-06-16T09:46:30Z</time>
      </trkpt>
      <trkpt lat="36.767468" lon="-2.829838">
        <ele>101.323</ele>
        <time>2021-06-16T09:46:31Z</time>
      </trkpt>
      <trkpt lat="36.767623" lon="-2.830277">
        <ele>101.825</ele>
        <time>2021-06-16T09:46:33Z</time>
      </trkpt>
      <trkpt lat="36.767708" lon="-2.830506">
        <ele>102.708</ele>
        <time>2021-06-16T09:46:34Z</time>
      </trkpt>
      <trkpt lat="36.76779" lon="-2.830733">
        <ele>103.446</ele>
        <time>2021-06-16T09:46:35Z</time>
      </trkpt>
      <trkpt lat="36.767951" lon="-2.831168">
        <ele>103.634</ele>
        <time>2021-06-16T09:46:37Z</time>
      </trkpt>
      <trkpt lat="36.76803" lon="-2.831379">
        <ele>103.928</ele>
        <time>2021-06-16T09:46:38Z</time>
      </trkpt>
      <trkpt lat="36.768107" lon="-2.831588">
        <ele>104.347</ele>
        <time>2021-06-16T09:46:39Z</time>
      </trkpt>
      <trkpt lat="36.768186" lon="-2.831799">
        <ele>105.090</ele>
        <time>2021-06-16T09:46:40Z</time>
      </trkpt>
      <trkpt lat="36.768263" lon="-2.83201">
        <ele>105.617</ele>
        <time>2021-06-16T09:46:41Z</time>
      </trkpt>
      <trkpt lat="36.768412" lon="-2.832437">
        <ele>106.494</ele>
        <time>2021-06-16T09:46:43Z</time>
      </trkpt>
      <trkpt lat="36.768493" lon="-2.832651">
        <ele>107.424</ele>
        <time>2021-06-16T09:46:44Z</time>
      </trkpt>
      <trkpt lat="36.768651" lon="-2.833085">
        <ele>108.659</ele>
        <time>2021-06-16T09:46:46Z</time>
      </trkpt>
      <trkpt lat="36.768731" lon="-2.833305">
        <ele>109.703</ele>
        <time>2021-06-16T09:46:47Z</time>
      </trkpt>
      <trkpt lat="36.768886" lon="-2.833727">
        <ele>110.623</ele>
        <time>2021-06-16T09:46:49Z</time>
      </trkpt>
      <trkpt lat="36.768961" lon="-2.833941">
        <ele>111.608</ele>
        <time>2021-06-16T09:46:50Z</time>
      </trkpt>
      <trkpt lat="36.769033" lon="-2.834154">
        <ele>111.932</ele>
        <time>2021-06-16T09:46:51Z</time>
      </trkpt>
      <trkpt lat="36.76917" lon="-2.834592">
        <ele>112.840</ele>
        <time>2021-06-16T09:46:53Z</time>
      </trkpt>
      <trkpt lat="36.769281" lon="-2.835051">
        <ele>113.994</ele>
        <time>2021-06-16T09:46:55Z</time>
      </trkpt>
      <trkpt lat="36.769323" lon="-2.835289">
        <ele>114.663</ele>
        <time>2021-06-16T09:46:56Z</time>
      </trkpt>
      <trkpt lat="36.769366" lon="-2.835525">
        <ele>115.486</ele>
        <time>2021-06-16T09:46:57Z</time>
      </trkpt>
      <trkpt lat="36.769428" lon="-2.836005">
        <ele>116.383</ele>
        <time>2021-06-16T09:46:59Z</time>
      </trkpt>
      <trkpt lat="36.769449" lon="-2.836245">
        <ele>116.980</ele>
        <time>2021-06-16T09:47:00Z</time>
      </trkpt>
      <trkpt lat="36.769469" lon="-2.836732">
        <ele>117.680</ele>
        <time>2021-06-16T09:47:02Z</time>
      </trkpt>
      <trkpt lat="36.769455" lon="-2.837215">
        <ele>118.328</ele>
        <time>2021-06-16T09:47:04Z</time>
      </trkpt>
      <trkpt lat="36.769441" lon="-2.837456">
        <ele>118.889</ele>
        <time>2021-06-16T09:47:05Z</time>
      </trkpt>
      <trkpt lat="36.769383" lon="-2.837931">
        <ele>119.117</ele>
        <time>2021-06-16T09:47:07Z</time>
      </trkpt>
      <trkpt lat="36.769347" lon="-2.838165">
        <ele>119.408</ele>
        <time>2021-06-16T09:47:08Z</time>
      </trkpt>
      <trkpt lat="36.769311" lon="-2.8384">
        <ele>119.619</ele>
        <time>2021-06-16T09:47:09Z</time>
      </trkpt>
      <trkpt lat="36.769217" lon="-2.838867">
        <ele>119.717</ele>
        <time>2021-06-16T09:47:11Z</time>
      </trkpt>
      <trkpt lat="36.769105" lon="-2.839337">
        <ele>120.311</ele>
        <time>2021-06-16T09:47:13Z</time>
      </trkpt>
      <trkpt lat="36.768979" lon="-2.839811">
        <ele>120.760</ele>
        <time>2021-06-16T09:47:15Z</time>
      </trkpt>
      <trkpt lat="36.768918" lon="-2.840047">
        <ele>120.863</ele>
        <time>2021-06-16T09:47:16Z</time>
      </trkpt>
      <trkpt lat="36.768857" lon="-2.840279">
        <ele>121.080</ele>
        <time>2021-06-16T09:47:17Z</time>
      </trkpt>
      <trkpt lat="36.768733" lon="-2.840743">
        <ele>121.677</ele>
        <time>2021-06-16T09:47:19Z</time>
      </trkpt>
      <trkpt lat="36.768615" lon="-2.841201">
        <ele>122.037</ele>
        <time>2021-06-16T09:47:21Z</time>
      </trkpt>
      <trkpt lat="36.768556" lon="-2.84143">
        <ele>121.911</ele>
        <time>2021-06-16T09:47:22Z</time>
      </trkpt>
      <trkpt lat="36.768439" lon="-2.841889">
        <ele>122.121</ele>
        <time>2021-06-16T09:47:24Z</time>
      </trkpt>
      <trkpt lat="36.768379" lon="-2.842119">
        <ele>122.603</ele>
        <time>2021-06-16T09:47:25Z</time>
      </trkpt>
      <trkpt lat="36.76832" lon="-2.842346">
        <ele>123.008</ele>
        <time>2021-06-16T09:47:26Z</time>
      </trkpt>
      <trkpt lat="36.768261" lon="-2.842573">
        <ele>123.178</ele>
        <time>2021-06-16T09:47:27Z</time>
      </trkpt>
      <trkpt lat="36.768146" lon="-2.843034">
        <ele>123.726</ele>
        <time>2021-06-16T09:47:29Z</time>
      </trkpt>
      <trkpt lat="36.768036" lon="-2.843485">
        <ele>123.930</ele>
        <time>2021-06-16T09:47:31Z</time>
      </trkpt>
      <trkpt lat="36.767981" lon="-2.843709">
        <ele>123.739</ele>
        <time>2021-06-16T09:47:32Z</time>
      </trkpt>
      <trkpt lat="36.767922" lon="-2.843931">
        <ele>123.862</ele>
        <time>2021-06-16T09:47:33Z</time>
      </trkpt>
      <trkpt lat="36.767806" lon="-2.844374">
        <ele>123.539</ele>
        <time>2021-06-16T09:47:35Z</time>
      </trkpt>
      <trkpt lat="36.767748" lon="-2.844597">
        <ele>123.486</ele>
        <time>2021-06-16T09:47:36Z</time>
      </trkpt>
      <trkpt lat="36.767687" lon="-2.844816">
        <ele>123.586</ele>
        <time>2021-06-16T09:47:37Z</time>
      </trkpt>
      <trkpt lat="36.767627" lon="-2.845038">
        <ele>123.267</ele>
        <time>2021-06-16T09:47:38Z</time>
      </trkpt>
      <trkpt lat="36.767507" lon="-2.845488">
        <ele>123.281</ele>
        <time>2021-06-16T09:47:40Z</time>
      </trkpt>
      <trkpt lat="36.767448" lon="-2.845716">
        <ele>123.319</ele>
        <time>2021-06-16T09:47:41Z</time>
      </trkpt>
      <trkpt lat="36.767328" lon="-2.846165">
        <ele>123.008</ele>
        <time>2021-06-16T09:47:43Z</time>
      </trkpt>
      <trkpt lat="36.767224" lon="-2.846585">
        <ele>123.273</ele>
        <time>2021-06-16T09:47:45Z</time>
      </trkpt>
      <trkpt lat="36.767175" lon="-2.846788">
        <ele>122.951</ele>
        <time>2021-06-16T09:47:46Z</time>
      </trkpt>
      <trkpt lat="36.767077" lon="-2.847187">
        <ele>122.415</ele>
        <time>2021-06-16T09:47:48Z</time>
      </trkpt>
      <trkpt lat="36.766971" lon="-2.847599">
        <ele>122.424</ele>
        <time>2021-06-16T09:47:50Z</time>
      </trkpt>
      <trkpt lat="36.766857" lon="-2.848046">
        <ele>121.987</ele>
        <time>2021-06-16T09:47:52Z</time>
      </trkpt>
      <trkpt lat="36.7668" lon="-2.848277">
        <ele>121.564</ele>
        <time>2021-06-16T09:47:53Z</time>
      </trkpt>
      <trkpt lat="36.766742" lon="-2.848512">
        <ele>121.151</ele>
        <time>2021-06-16T09:47:54Z</time>
      </trkpt>
      <trkpt lat="36.766627" lon="-2.848984">
        <ele>121.141</ele>
        <time>2021-06-16T09:47:56Z</time>
      </trkpt>
      <trkpt lat="36.766567" lon="-2.849222">
        <ele>120.713</ele>
        <time>2021-06-16T09:47:57Z</time>
      </trkpt>
      <trkpt lat="36.766442" lon="-2.849695">
        <ele>120.643</ele>
        <time>2021-06-16T09:47:59Z</time>
      </trkpt>
      <trkpt lat="36.766316" lon="-2.850177">
        <ele>120.207</ele>
        <time>2021-06-16T09:48:01Z</time>
      </trkpt>
      <trkpt lat="36.766249" lon="-2.85042">
        <ele>119.808</ele>
        <time>2021-06-16T09:48:02Z</time>
      </trkpt>
      <trkpt lat="36.766109" lon="-2.8509">
        <ele>119.748</ele>
        <time>2021-06-16T09:48:04Z</time>
      </trkpt>
      <trkpt lat="36.766039" lon="-2.851138">
        <ele>119.576</ele>
        <time>2021-06-16T09:48:05Z</time>
      </trkpt>
      <trkpt lat="36.765894" lon="-2.851613">
        <ele>118.960</ele>
        <time>2021-06-16T09:48:07Z</time>
      </trkpt>
      <trkpt lat="36.76582" lon="-2.851852">
        <ele>118.699</ele>
        <time>2021-06-16T09:48:08Z</time>
      </trkpt>
      <trkpt lat="36.765674" lon="-2.85232">
        <ele>118.062</ele>
        <time>2021-06-16T09:48:10Z</time>
      </trkpt>
      <trkpt lat="36.765518" lon="-2.852787">
        <ele>117.459</ele>
        <time>2021-06-16T09:48:12Z</time>
      </trkpt>
      <trkpt lat="36.765436" lon="-2.853019">
        <ele>117.436</ele>
        <time>2021-06-16T09:48:13Z</time>
      </trkpt>
      <trkpt lat="36.765268" lon="-2.85347">
        <ele>117.016</ele>
        <time>2021-06-16T09:48:15Z</time>
      </trkpt>
      <trkpt lat="36.765186" lon="-2.853698">
        <ele>117.152</ele>
        <time>2021-06-16T09:48:16Z</time>
      </trkpt>
      <trkpt lat="36.765022" lon="-2.85416">
        <ele>116.453</ele>
        <time>2021-06-16T09:48:18Z</time>
      </trkpt>
      <trkpt lat="36.764857" lon="-2.854614">
        <ele>115.508</ele>
        <time>2021-06-16T09:48:20Z</time>
      </trkpt>
      <trkpt lat="36.764773" lon="-2.85484">
        <ele>114.808</ele>
        <time>2021-06-16T09:48:21Z</time>
      </trkpt>
      <trkpt lat="36.764692" lon="-2.855065">
        <ele>113.962</ele>
        <time>2021-06-16T09:48:22Z</time>
      </trkpt>
      <trkpt lat="36.764527" lon="-2.855512">
        <ele>112.930</ele>
        <time>2021-06-16T09:48:24Z</time>
      </trkpt>
      <trkpt lat="36.764366" lon="-2.855959">
        <ele>111.664</ele>
        <time>2021-06-16T09:48:26Z</time>
      </trkpt>
      <trkpt lat="36.764203" lon="-2.856404">
        <ele>110.673</ele>
        <time>2021-06-16T09:48:28Z</time>
      </trkpt>
      <trkpt lat="36.764038" lon="-2.856855">
        <ele>109.796</ele>
        <time>2021-06-16T09:48:30Z</time>
      </trkpt>
      <trkpt lat="36.763957" lon="-2.85708">
        <ele>109.063</ele>
        <time>2021-06-16T09:48:31Z</time>
      </trkpt>
      <trkpt lat="36.763795" lon="-2.857526">
        <ele>108.550</ele>
        <time>2021-06-16T09:48:33Z</time>
      </trkpt>
      <trkpt lat="36.763631" lon="-2.857975">
        <ele>108.110</ele>
        <time>2021-06-16T09:48:35Z</time>
      </trkpt>
      <trkpt lat="36.763545" lon="-2.858199">
        <ele>107.564</ele>
        <time>2021-06-16T09:48:36Z</time>
      </trkpt>
      <trkpt lat="36.763374" lon="-2.858654">
        <ele>107.106</ele>
        <time>2021-06-16T09:48:38Z</time>
      </trkpt>
      <trkpt lat="36.763206" lon="-2.859105">
        <ele>106.916</ele>
        <time>2021-06-16T09:48:40Z</time>
      </trkpt>
      <trkpt lat="36.763037" lon="-2.859551">
        <ele>106.608</ele>
        <time>2021-06-16T09:48:42Z</time>
      </trkpt>
      <trkpt lat="36.762955" lon="-2.859774">
        <ele>106.483</ele>
        <time>2021-06-16T09:48:43Z</time>
      </trkpt>
      <trkpt lat="36.762875" lon="-2.859996">
        <ele>106.261</ele>
        <time>2021-06-16T09:48:44Z</time>
      </trkpt>
      <trkpt lat="36.762793" lon="-2.860217">
        <ele>106.035</ele>
        <time>2021-06-16T09:48:45Z</time>
      </trkpt>
      <trkpt lat="36.76271" lon="-2.860434">
        <ele>106.074</ele>
        <time>2021-06-16T09:48:46Z</time>
      </trkpt>
      <trkpt lat="36.762549" lon="-2.860869">
        <ele>105.977</ele>
        <time>2021-06-16T09:48:48Z</time>
      </trkpt>
      <trkpt lat="36.762391" lon="-2.861304">
        <ele>105.874</ele>
        <time>2021-06-16T09:48:50Z</time>
      </trkpt>
      <trkpt lat="36.762314" lon="-2.861522">
        <ele>105.631</ele>
        <time>2021-06-16T09:48:51Z</time>
      </trkpt>
      <trkpt lat="36.762157" lon="-2.861957">
        <ele>105.151</ele>
        <time>2021-06-16T09:48:53Z</time>
      </trkpt>
      <trkpt lat="36.762077" lon="-2.862172">
        <ele>104.968</ele>
        <time>2021-06-16T09:48:54Z</time>
      </trkpt>
      <trkpt lat="36.761998" lon="-2.862387">
        <ele>104.342</ele>
        <time>2021-06-16T09:48:55Z</time>
      </trkpt>
      <trkpt lat="36.76184" lon="-2.862814">
        <ele>104.026</ele>
        <time>2021-06-16T09:48:57Z</time>
      </trkpt>
      <trkpt lat="36.76176" lon="-2.86303">
        <ele>103.608</ele>
        <time>2021-06-16T09:48:58Z</time>
      </trkpt>
      <trkpt lat="36.761683" lon="-2.863243">
        <ele>103.583</ele>
        <time>2021-06-16T09:48:59Z</time>
      </trkpt>
      <trkpt lat="36.761606" lon="-2.863455">
        <ele>103.061</ele>
        <time>2021-06-16T09:49:00Z</time>
      </trkpt>
      <trkpt lat="36.76153" lon="-2.863665">
        <ele>102.685</ele>
        <time>2021-06-16T09:49:01Z</time>
      </trkpt>
      <trkpt lat="36.761456" lon="-2.863874">
        <ele>102.134</ele>
        <time>2021-06-16T09:49:02Z</time>
      </trkpt>
      <trkpt lat="36.761379" lon="-2.864081">
        <ele>101.987</ele>
        <time>2021-06-16T09:49:03Z</time>
      </trkpt>
      <trkpt lat="36.761227" lon="-2.864497">
        <ele>102.244</ele>
        <time>2021-06-16T09:49:05Z</time>
      </trkpt>
      <trkpt lat="36.761148" lon="-2.86471">
        <ele>102.411</ele>
        <time>2021-06-16T09:49:06Z</time>
      </trkpt>
      <trkpt lat="36.760985" lon="-2.865137">
        <ele>101.961</ele>
        <time>2021-06-16T09:49:08Z</time>
      </trkpt>
      <trkpt lat="36.760907" lon="-2.865354">
        <ele>101.589</ele>
        <time>2021-06-16T09:49:09Z</time>
      </trkpt>
      <trkpt lat="36.76075" lon="-2.865788">
        <ele>100.806</ele>
        <time>2021-06-16T09:49:11Z</time>
      </trkpt>
      <trkpt lat="36.760665" lon="-2.866002">
        <ele>100.626</ele>
        <time>2021-06-16T09:49:12Z</time>
      </trkpt>
      <trkpt lat="36.760584" lon="-2.866219">
        <ele>100.208</ele>
        <time>2021-06-16T09:49:13Z</time>
      </trkpt>
      <trkpt lat="36.760416" lon="-2.866652">
        <ele>99.615</ele>
        <time>2021-06-16T09:49:15Z</time>
      </trkpt>
      <trkpt lat="36.760239" lon="-2.867083">
        <ele>98.953</ele>
        <time>2021-06-16T09:49:17Z</time>
      </trkpt>
      <trkpt lat="36.760067" lon="-2.867505">
        <ele>98.447</ele>
        <time>2021-06-16T09:49:19Z</time>
      </trkpt>
      <trkpt lat="36.759982" lon="-2.867717">
        <ele>97.836</ele>
        <time>2021-06-16T09:49:20Z</time>
      </trkpt>
      <trkpt lat="36.759814" lon="-2.868143">
        <ele>97.149</ele>
        <time>2021-06-16T09:49:22Z</time>
      </trkpt>
      <trkpt lat="36.759728" lon="-2.868356">
        <ele>96.786</ele>
        <time>2021-06-16T09:49:23Z</time>
      </trkpt>
      <trkpt lat="36.759559" lon="-2.868785">
        <ele>96.313</ele>
        <time>2021-06-16T09:49:25Z</time>
      </trkpt>
      <trkpt lat="36.759476" lon="-2.868998">
        <ele>96.083</ele>
        <time>2021-06-16T09:49:26Z</time>
      </trkpt>
      <trkpt lat="36.759312" lon="-2.869421">
        <ele>95.462</ele>
        <time>2021-06-16T09:49:28Z</time>
      </trkpt>
      <trkpt lat="36.759153" lon="-2.869842">
        <ele>95.183</ele>
        <time>2021-06-16T09:49:30Z</time>
      </trkpt>
      <trkpt lat="36.759076" lon="-2.870053">
        <ele>94.611</ele>
        <time>2021-06-16T09:49:31Z</time>
      </trkpt>
      <trkpt lat="36.758922" lon="-2.87047">
        <ele>94.608</ele>
        <time>2021-06-16T09:49:33Z</time>
      </trkpt>
      <trkpt lat="36.758842" lon="-2.870677">
        <ele>94.763</ele>
        <time>2021-06-16T09:49:34Z</time>
      </trkpt>
      <trkpt lat="36.75869" lon="-2.871097">
        <ele>94.631</ele>
        <time>2021-06-16T09:49:36Z</time>
      </trkpt>
      <trkpt lat="36.758614" lon="-2.871306">
        <ele>94.925</ele>
        <time>2021-06-16T09:49:37Z</time>
      </trkpt>
      <trkpt lat="36.758463" lon="-2.871723">
        <ele>94.524</ele>
        <time>2021-06-16T09:49:39Z</time>
      </trkpt>
      <trkpt lat="36.758311" lon="-2.872146">
        <ele>94.497</ele>
        <time>2021-06-16T09:49:41Z</time>
      </trkpt>
      <trkpt lat="36.758236" lon="-2.87236">
        <ele>94.294</ele>
        <time>2021-06-16T09:49:42Z</time>
      </trkpt>
      <trkpt lat="36.75816" lon="-2.872574">
        <ele>93.861</ele>
        <time>2021-06-16T09:49:43Z</time>
      </trkpt>
      <trkpt lat="36.758013" lon="-2.873004">
        <ele>93.331</ele>
        <time>2021-06-16T09:49:45Z</time>
      </trkpt>
      <trkpt lat="36.757859" lon="-2.873433">
        <ele>93.139</ele>
        <time>2021-06-16T09:49:47Z</time>
      </trkpt>
      <trkpt lat="36.75778" lon="-2.873648">
        <ele>92.901</ele>
        <time>2021-06-16T09:49:48Z</time>
      </trkpt>
      <trkpt lat="36.75762" lon="-2.874075">
        <ele>92.821</ele>
        <time>2021-06-16T09:49:50Z</time>
      </trkpt>
      <trkpt lat="36.757456" lon="-2.874507">
        <ele>92.808</ele>
        <time>2021-06-16T09:49:52Z</time>
      </trkpt>
      <trkpt lat="36.757304" lon="-2.874945">
        <ele>92.510</ele>
        <time>2021-06-16T09:49:54Z</time>
      </trkpt>
      <trkpt lat="36.757152" lon="-2.875381">
        <ele>92.138</ele>
        <time>2021-06-16T09:49:56Z</time>
      </trkpt>
      <trkpt lat="36.757075" lon="-2.875597">
        <ele>92.122</ele>
        <time>2021-06-16T09:49:57Z</time>
      </trkpt>
      <trkpt lat="36.757" lon="-2.875811">
        <ele>92.011</ele>
        <time>2021-06-16T09:49:58Z</time>
      </trkpt>
      <trkpt lat="36.756848" lon="-2.876231">
        <ele>92.234</ele>
        <time>2021-06-16T09:50:00Z</time>
      </trkpt>
      <trkpt lat="36.756776" lon="-2.876441">
        <ele>92.091</ele>
        <time>2021-06-16T09:50:01Z</time>
      </trkpt>
      <trkpt lat="36.756628" lon="-2.87686">
        <ele>91.848</ele>
        <time>2021-06-16T09:50:03Z</time>
      </trkpt>
      <trkpt lat="36.756551" lon="-2.877068">
        <ele>91.598</ele>
        <time>2021-06-16T09:50:04Z</time>
      </trkpt>
      <trkpt lat="36.756398" lon="-2.877486">
        <ele>90.544</ele>
        <time>2021-06-16T09:50:06Z</time>
      </trkpt>
      <trkpt lat="36.756254" lon="-2.877906">
        <ele>90.305</ele>
        <time>2021-06-16T09:50:08Z</time>
      </trkpt>
      <trkpt lat="36.756184" lon="-2.878119">
        <ele>89.915</ele>
        <time>2021-06-16T09:50:09Z</time>
      </trkpt>
      <trkpt lat="36.756044" lon="-2.878541">
        <ele>90.008</ele>
        <time>2021-06-16T09:50:11Z</time>
      </trkpt>
      <trkpt lat="36.755907" lon="-2.878955">
        <ele>89.711</ele>
        <time>2021-06-16T09:50:13Z</time>
      </trkpt>
      <trkpt lat="36.755777" lon="-2.879381">
        <ele>89.299</ele>
        <time>2021-06-16T09:50:15Z</time>
      </trkpt>
      <trkpt lat="36.755713" lon="-2.879599">
        <ele>89.083</ele>
        <time>2021-06-16T09:50:16Z</time>
      </trkpt>
      <trkpt lat="36.755595" lon="-2.880045">
        <ele>88.632</ele>
        <time>2021-06-16T09:50:18Z</time>
      </trkpt>
      <trkpt lat="36.755538" lon="-2.880275">
        <ele>88.485</ele>
        <time>2021-06-16T09:50:19Z</time>
      </trkpt>
      <trkpt lat="36.755438" lon="-2.880738">
        <ele>88.742</ele>
        <time>2021-06-16T09:50:21Z</time>
      </trkpt>
      <trkpt lat="36.755339" lon="-2.881197">
        <ele>88.499</ele>
        <time>2021-06-16T09:50:23Z</time>
      </trkpt>
      <trkpt lat="36.755246" lon="-2.88166">
        <ele>88.559</ele>
        <time>2021-06-16T09:50:25Z</time>
      </trkpt>
      <trkpt lat="36.755202" lon="-2.881894">
        <ele>88.992</ele>
        <time>2021-06-16T09:50:26Z</time>
      </trkpt>
      <trkpt lat="36.755112" lon="-2.88236">
        <ele>88.973</ele>
        <time>2021-06-16T09:50:28Z</time>
      </trkpt>
      <trkpt lat="36.755067" lon="-2.882597">
        <ele>89.220</ele>
        <time>2021-06-16T09:50:29Z</time>
      </trkpt>
      <trkpt lat="36.754973" lon="-2.883064">
        <ele>89.008</ele>
        <time>2021-06-16T09:50:31Z</time>
      </trkpt>
      <trkpt lat="36.754927" lon="-2.8833">
        <ele>88.626</ele>
        <time>2021-06-16T09:50:32Z</time>
      </trkpt>
      <trkpt lat="36.754835" lon="-2.883772">
        <ele>88.344</ele>
        <time>2021-06-16T09:50:34Z</time>
      </trkpt>
      <trkpt lat="36.754788" lon="-2.884009">
        <ele>88.148</ele>
        <time>2021-06-16T09:50:35Z</time>
      </trkpt>
      <trkpt lat="36.754695" lon="-2.884477">
        <ele>87.937</ele>
        <time>2021-06-16T09:50:37Z</time>
      </trkpt>
      <trkpt lat="36.754614" lon="-2.884928">
        <ele>87.980</ele>
        <time>2021-06-16T09:50:39Z</time>
      </trkpt>
      <trkpt lat="36.754551" lon="-2.88538">
        <ele>87.457</ele>
        <time>2021-06-16T09:50:41Z</time>
      </trkpt>
      <trkpt lat="36.754522" lon="-2.885604">
        <ele>87.134</ele>
        <time>2021-06-16T09:50:42Z</time>
      </trkpt>
      <trkpt lat="36.754483" lon="-2.886061">
        <ele>86.744</ele>
        <time>2021-06-16T09:50:44Z</time>
      </trkpt>
      <trkpt lat="36.754468" lon="-2.886293">
        <ele>86.658</ele>
        <time>2021-06-16T09:50:45Z</time>
      </trkpt>
      <trkpt lat="36.754456" lon="-2.886522">
        <ele>86.652</ele>
        <time>2021-06-16T09:50:46Z</time>
      </trkpt>
      <trkpt lat="36.754447" lon="-2.886982">
        <ele>85.817</ele>
        <time>2021-06-16T09:50:48Z</time>
      </trkpt>
      <trkpt lat="36.754444" lon="-2.887211">
        <ele>85.108</ele>
        <time>2021-06-16T09:50:49Z</time>
      </trkpt>
      <trkpt lat="36.754434" lon="-2.887673">
        <ele>84.562</ele>
        <time>2021-06-16T09:50:51Z</time>
      </trkpt>
      <trkpt lat="36.754427" lon="-2.887911">
        <ele>84.350</ele>
        <time>2021-06-16T09:50:52Z</time>
      </trkpt>
      <trkpt lat="36.754414" lon="-2.888379">
        <ele>83.894</ele>
        <time>2021-06-16T09:50:54Z</time>
      </trkpt>
      <trkpt lat="36.754404" lon="-2.88862">
        <ele>84.113</ele>
        <time>2021-06-16T09:50:55Z</time>
      </trkpt>
      <trkpt lat="36.754393" lon="-2.888861">
        <ele>84.356</ele>
        <time>2021-06-16T09:50:56Z</time>
      </trkpt>
      <trkpt lat="36.754375" lon="-2.889098">
        <ele>84.273</ele>
        <time>2021-06-16T09:50:57Z</time>
      </trkpt>
      <trkpt lat="36.75434" lon="-2.889578">
        <ele>83.830</ele>
        <time>2021-06-16T09:50:59Z</time>
      </trkpt>
      <trkpt lat="36.754314" lon="-2.88982">
        <ele>83.990</ele>
        <time>2021-06-16T09:51:00Z</time>
      </trkpt>
      <trkpt lat="36.754264" lon="-2.890292">
        <ele>83.577</ele>
        <time>2021-06-16T09:51:02Z</time>
      </trkpt>
      <trkpt lat="36.754215" lon="-2.890743">
        <ele>83.361</ele>
        <time>2021-06-16T09:51:04Z</time>
      </trkpt>
      <trkpt lat="36.754196" lon="-2.890959">
        <ele>83.527</ele>
        <time>2021-06-16T09:51:05Z</time>
      </trkpt>
      <trkpt lat="36.754174" lon="-2.891364">
        <ele>83.508</ele>
        <time>2021-06-16T09:51:07Z</time>
      </trkpt>
      <trkpt lat="36.754169" lon="-2.891552">
        <ele>83.194</ele>
        <time>2021-06-16T09:51:08Z</time>
      </trkpt>
      <trkpt lat="36.75418" lon="-2.89173">
        <ele>83.072</ele>
        <time>2021-06-16T09:51:09Z</time>
      </trkpt>
      <trkpt lat="36.754256" lon="-2.892056">
        <ele>82.396</ele>
        <time>2021-06-16T09:51:11Z</time>
      </trkpt>
      <trkpt lat="36.754317" lon="-2.892207">
        <ele>81.875</ele>
        <time>2021-06-16T09:51:12Z</time>
      </trkpt>
      <trkpt lat="36.754385" lon="-2.89235">
        <ele>81.628</ele>
        <time>2021-06-16T09:51:13Z</time>
      </trkpt>
      <trkpt lat="36.754462" lon="-2.892478">
        <ele>81.335</ele>
        <time>2021-06-16T09:51:14Z</time>
      </trkpt>
      <trkpt lat="36.754624" lon="-2.892712">
        <ele>80.562</ele>
        <time>2021-06-16T09:51:16Z</time>
      </trkpt>
      <trkpt lat="36.754705" lon="-2.892825">
        <ele>79.732</ele>
        <time>2021-06-16T09:51:17Z</time>
      </trkpt>
      <trkpt lat="36.754781" lon="-2.892941">
        <ele>78.618</ele>
        <time>2021-06-16T09:51:18Z</time>
      </trkpt>
      <trkpt lat="36.754845" lon="-2.893072">
        <ele>77.998</ele>
        <time>2021-06-16T09:51:19Z</time>
      </trkpt>
      <trkpt lat="36.754926" lon="-2.893381">
        <ele>77.117</ele>
        <time>2021-06-16T09:51:21Z</time>
      </trkpt>
      <trkpt lat="36.754953" lon="-2.893545">
        <ele>76.708</ele>
        <time>2021-06-16T09:51:22Z</time>
      </trkpt>
      <trkpt lat="36.75496" lon="-2.893719">
        <ele>76.348</ele>
        <time>2021-06-16T09:51:23Z</time>
      </trkpt>
      <trkpt lat="36.754913" lon="-2.89406">
        <ele>75.736</ele>
        <time>2021-06-16T09:51:25Z</time>
      </trkpt>
      <trkpt lat="36.754862" lon="-2.894219">
        <ele>75.120</ele>
        <time>2021-06-16T09:51:26Z</time>
      </trkpt>
      <trkpt lat="36.754795" lon="-2.894366">
        <ele>74.379</ele>
        <time>2021-06-16T09:51:27Z</time>
      </trkpt>
      <trkpt lat="36.75472" lon="-2.8945">
        <ele>73.692</ele>
        <time>2021-06-16T09:51:28Z</time>
      </trkpt>
      <trkpt lat="36.754636" lon="-2.894616">
        <ele>72.899</ele>
        <time>2021-06-16T09:51:29Z</time>
      </trkpt>
      <trkpt lat="36.754445" lon="-2.89481">
        <ele>72.336</ele>
        <time>2021-06-16T09:51:31Z</time>
      </trkpt>
      <trkpt lat="36.754222" lon="-2.894931">
        <ele>71.296</ele>
        <time>2021-06-16T09:51:33Z</time>
      </trkpt>
      <trkpt lat="36.753982" lon="-2.895004">
        <ele>70.777</ele>
        <time>2021-06-16T09:51:35Z</time>
      </trkpt>
      <trkpt lat="36.753861" lon="-2.895039">
        <ele>70.261</ele>
        <time>2021-06-16T09:51:36Z</time>
      </trkpt>
      <trkpt lat="36.753741" lon="-2.895067">
        <ele>70.027</ele>
        <time>2021-06-16T09:51:37Z</time>
      </trkpt>
      <trkpt lat="36.753484" lon="-2.895138">
        <ele>69.908</ele>
        <time>2021-06-16T09:51:39Z</time>
      </trkpt>
      <trkpt lat="36.753353" lon="-2.895177">
        <ele>69.974</ele>
        <time>2021-06-16T09:51:40Z</time>
      </trkpt>
      <trkpt lat="36.75309" lon="-2.895253">
        <ele>69.442</ele>
        <time>2021-06-16T09:51:42Z</time>
      </trkpt>
      <trkpt lat="36.752831" lon="-2.895364">
        <ele>69.356</ele>
        <time>2021-06-16T09:51:44Z</time>
      </trkpt>
      <trkpt lat="36.752712" lon="-2.895452">
        <ele>69.025</ele>
        <time>2021-06-16T09:51:45Z</time>
      </trkpt>
      <trkpt lat="36.752602" lon="-2.895565">
        <ele>68.068</ele>
        <time>2021-06-16T09:51:46Z</time>
      </trkpt>
      <trkpt lat="36.752501" lon="-2.895693">
        <ele>67.365</ele>
        <time>2021-06-16T09:51:47Z</time>
      </trkpt>
      <trkpt lat="36.752307" lon="-2.895967">
        <ele>66.322</ele>
        <time>2021-06-16T09:51:49Z</time>
      </trkpt>
      <trkpt lat="36.752208" lon="-2.896107">
        <ele>65.312</ele>
        <time>2021-06-16T09:51:50Z</time>
      </trkpt>
      <trkpt lat="36.752106" lon="-2.896249">
        <ele>64.737</ele>
        <time>2021-06-16T09:51:51Z</time>
      </trkpt>
      <trkpt lat="36.752002" lon="-2.896391">
        <ele>63.849</ele>
        <time>2021-06-16T09:51:52Z</time>
      </trkpt>
      <trkpt lat="36.751786" lon="-2.896673">
        <ele>62.713</ele>
        <time>2021-06-16T09:51:54Z</time>
      </trkpt>
      <trkpt lat="36.751577" lon="-2.896958">
        <ele>62.108</ele>
        <time>2021-06-16T09:51:56Z</time>
      </trkpt>
      <trkpt lat="36.751368" lon="-2.897253">
        <ele>61.450</ele>
        <time>2021-06-16T09:51:58Z</time>
      </trkpt>
      <trkpt lat="36.751265" lon="-2.897405">
        <ele>60.838</ele>
        <time>2021-06-16T09:51:59Z</time>
      </trkpt>
      <trkpt lat="36.751166" lon="-2.897555">
        <ele>60.452</ele>
        <time>2021-06-16T09:52:00Z</time>
      </trkpt>
      <trkpt lat="36.751067" lon="-2.897704">
        <ele>59.421</ele>
        <time>2021-06-16T09:52:01Z</time>
      </trkpt>
      <trkpt lat="36.750969" lon="-2.897856">
        <ele>59.034</ele>
        <time>2021-06-16T09:52:02Z</time>
      </trkpt>
      <trkpt lat="36.750773" lon="-2.898169">
        <ele>57.761</ele>
        <time>2021-06-16T09:52:04Z</time>
      </trkpt>
      <trkpt lat="36.750673" lon="-2.898326">
        <ele>56.798</ele>
        <time>2021-06-16T09:52:05Z</time>
      </trkpt>
      <trkpt lat="36.750574" lon="-2.898483">
        <ele>55.698</ele>
        <time>2021-06-16T09:52:06Z</time>
      </trkpt>
      <trkpt lat="36.750478" lon="-2.898641">
        <ele>55.045</ele>
        <time>2021-06-16T09:52:07Z</time>
      </trkpt>
      <trkpt lat="36.750292" lon="-2.898953">
        <ele>53.547</ele>
        <time>2021-06-16T09:52:09Z</time>
      </trkpt>
      <trkpt lat="36.750197" lon="-2.89911">
        <ele>52.411</ele>
        <time>2021-06-16T09:52:10Z</time>
      </trkpt>
      <trkpt lat="36.75002" lon="-2.899432">
        <ele>50.808</ele>
        <time>2021-06-16T09:52:12Z</time>
      </trkpt>
      <trkpt lat="36.749927" lon="-2.899593">
        <ele>49.381</ele>
        <time>2021-06-16T09:52:13Z</time>
      </trkpt>
      <trkpt lat="36.749836" lon="-2.899756">
        <ele>48.519</ele>
        <time>2021-06-16T09:52:14Z</time>
      </trkpt>
      <trkpt lat="36.749641" lon="-2.900073">
        <ele>48.083</ele>
        <time>2021-06-16T09:52:16Z</time>
      </trkpt>
      <trkpt lat="36.749543" lon="-2.900231">
        <ele>47.322</ele>
        <time>2021-06-16T09:52:17Z</time>
      </trkpt>
      <trkpt lat="36.749444" lon="-2.900387">
        <ele>46.485</ele>
        <time>2021-06-16T09:52:18Z</time>
      </trkpt>
      <trkpt lat="36.74925" lon="-2.900692">
        <ele>46.112</ele>
        <time>2021-06-16T09:52:20Z</time>
      </trkpt>
      <trkpt lat="36.749063" lon="-2.900989">
        <ele>44.669</ele>
        <time>2021-06-16T09:52:22Z</time>
      </trkpt>
      <trkpt lat="36.748894" lon="-2.901279">
        <ele>43.169</ele>
        <time>2021-06-16T09:52:24Z</time>
      </trkpt>
      <trkpt lat="36.748816" lon="-2.90142">
        <ele>42.459</ele>
        <time>2021-06-16T09:52:25Z</time>
      </trkpt>
      <trkpt lat="36.748743" lon="-2.901564">
        <ele>41.703</ele>
        <time>2021-06-16T09:52:26Z</time>
      </trkpt>
      <trkpt lat="36.748674" lon="-2.901711">
        <ele>41.223</ele>
        <time>2021-06-16T09:52:27Z</time>
      </trkpt>
      <trkpt lat="36.748562" lon="-2.902016">
        <ele>39.908</ele>
        <time>2021-06-16T09:52:29Z</time>
      </trkpt>
      <trkpt lat="36.748497" lon="-2.90235">
        <ele>38.442</ele>
        <time>2021-06-16T09:52:31Z</time>
      </trkpt>
      <trkpt lat="36.748472" lon="-2.902521">
        <ele>37.590</ele>
        <time>2021-06-16T09:52:32Z</time>
      </trkpt>
      <trkpt lat="36.748449" lon="-2.902697">
        <ele>37.254</ele>
        <time>2021-06-16T09:52:33Z</time>
      </trkpt>
      <trkpt lat="36.748429" lon="-2.903063">
        <ele>36.643</ele>
        <time>2021-06-16T09:52:35Z</time>
      </trkpt>
      <trkpt lat="36.748458" lon="-2.903416">
        <ele>35.746</ele>
        <time>2021-06-16T09:52:37Z</time>
      </trkpt>
      <trkpt lat="36.74849" lon="-2.903589">
        <ele>34.823</ele>
        <time>2021-06-16T09:52:38Z</time>
      </trkpt>
      <trkpt lat="36.748581" lon="-2.903909">
        <ele>34.750</ele>
        <time>2021-06-16T09:52:40Z</time>
      </trkpt>
      <trkpt lat="36.74868" lon="-2.904193">
        <ele>35.340</ele>
        <time>2021-06-16T09:52:42Z</time>
      </trkpt>
      <trkpt lat="36.748782" lon="-2.904439">
        <ele>35.462</ele>
        <time>2021-06-16T09:52:44Z</time>
      </trkpt>
      <trkpt lat="36.748882" lon="-2.904644">
        <ele>35.683</ele>
        <time>2021-06-16T09:52:46Z</time>
      </trkpt>
      <trkpt lat="36.748981" lon="-2.904818">
        <ele>35.811</ele>
        <time>2021-06-16T09:52:48Z</time>
      </trkpt>
      <trkpt lat="36.749038" lon="-2.904894">
        <ele>35.908</ele>
        <time>2021-06-16T09:52:49Z</time>
      </trkpt>
      <trkpt lat="36.749163" lon="-2.905039">
        <ele>36.173</ele>
        <time>2021-06-16T09:52:51Z</time>
      </trkpt>
      <trkpt lat="36.749216" lon="-2.905126">
        <ele>35.991</ele>
        <time>2021-06-16T09:52:52Z</time>
      </trkpt>
      <trkpt lat="36.749256" lon="-2.905228">
        <ele>35.695</ele>
        <time>2021-06-16T09:52:53Z</time>
      </trkpt>
      <trkpt lat="36.749305" lon="-2.905455">
        <ele>34.884</ele>
        <time>2021-06-16T09:52:55Z</time>
      </trkpt>
      <trkpt lat="36.749379" lon="-2.905688">
        <ele>34.167</ele>
        <time>2021-06-16T09:52:57Z</time>
      </trkpt>
      <trkpt lat="36.74943" lon="-2.905801">
        <ele>33.984</ele>
        <time>2021-06-16T09:52:58Z</time>
      </trkpt>
      <trkpt lat="36.749486" lon="-2.905915">
        <ele>33.721</ele>
        <time>2021-06-16T09:52:59Z</time>
      </trkpt>
      <trkpt lat="36.749598" lon="-2.906143">
        <ele>33.421</ele>
        <time>2021-06-16T09:53:01Z</time>
      </trkpt>
      <trkpt lat="36.749706" lon="-2.906368">
        <ele>32.649</ele>
        <time>2021-06-16T09:53:03Z</time>
      </trkpt>
      <trkpt lat="36.749815" lon="-2.906591">
        <ele>31.602</ele>
        <time>2021-06-16T09:53:05Z</time>
      </trkpt>
      <trkpt lat="36.749908" lon="-2.906825">
        <ele>30.722</ele>
        <time>2021-06-16T09:53:07Z</time>
      </trkpt>
      <trkpt lat="36.749961" lon="-2.906943">
        <ele>30.408</ele>
        <time>2021-06-16T09:53:08Z</time>
      </trkpt>
      <trkpt lat="36.750069" lon="-2.907175">
        <ele>30.251</ele>
        <time>2021-06-16T09:53:10Z</time>
      </trkpt>
      <trkpt lat="36.750176" lon="-2.907404">
        <ele>30.029</ele>
        <time>2021-06-16T09:53:12Z</time>
      </trkpt>
      <trkpt lat="36.750289" lon="-2.907636">
        <ele>29.563</ele>
        <time>2021-06-16T09:53:14Z</time>
      </trkpt>
      <trkpt lat="36.750345" lon="-2.90775">
        <ele>29.232</ele>
        <time>2021-06-16T09:53:15Z</time>
      </trkpt>
      <trkpt lat="36.750456" lon="-2.907981">
        <ele>28.925</ele>
        <time>2021-06-16T09:53:17Z</time>
      </trkpt>
      <trkpt lat="36.750573" lon="-2.908223">
        <ele>28.272</ele>
        <time>2021-06-16T09:53:19Z</time>
      </trkpt>
      <trkpt lat="36.750633" lon="-2.908348">
        <ele>28.099</ele>
        <time>2021-06-16T09:53:20Z</time>
      </trkpt>
      <trkpt lat="36.750694" lon="-2.908475">
        <ele>27.879</ele>
        <time>2021-06-16T09:53:21Z</time>
      </trkpt>
      <trkpt lat="36.750818" lon="-2.908735">
        <ele>27.685</ele>
        <time>2021-06-16T09:53:23Z</time>
      </trkpt>
      <trkpt lat="36.750943" lon="-2.908996">
        <ele>27.289</ele>
        <time>2021-06-16T09:53:25Z</time>
      </trkpt>
      <trkpt lat="36.751068" lon="-2.909259">
        <ele>26.417</ele>
        <time>2021-06-16T09:53:27Z</time>
      </trkpt>
      <trkpt lat="36.751131" lon="-2.909391">
        <ele>26.308</ele>
        <time>2021-06-16T09:53:28Z</time>
      </trkpt>
      <trkpt lat="36.75119" lon="-2.909523">
        <ele>25.975</ele>
        <time>2021-06-16T09:53:29Z</time>
      </trkpt>
      <trkpt lat="36.751252" lon="-2.909651">
        <ele>25.473</ele>
        <time>2021-06-16T09:53:30Z</time>
      </trkpt>
      <trkpt lat="36.751365" lon="-2.909895">
        <ele>25.037</ele>
        <time>2021-06-16T09:53:32Z</time>
      </trkpt>
      <trkpt lat="36.751463" lon="-2.910115">
        <ele>24.846</ele>
        <time>2021-06-16T09:53:34Z</time>
      </trkpt>
      <trkpt lat="36.751554" lon="-2.910303">
        <ele>24.589</ele>
        <time>2021-06-16T09:53:36Z</time>
      </trkpt>
      <trkpt lat="36.751652" lon="-2.910456">
        <ele>25.086</ele>
        <time>2021-06-16T09:53:38Z</time>
      </trkpt>
      <trkpt lat="36.751731" lon="-2.910612">
        <ele>25.553</ele>
        <time>2021-06-16T09:53:40Z</time>
      </trkpt>
      <trkpt lat="36.751782" lon="-2.910801">
        <ele>25.173</ele>
        <time>2021-06-16T09:53:42Z</time>
      </trkpt>
      <trkpt lat="36.751824" lon="-2.910899">
        <ele>24.736</ele>
        <time>2021-06-16T09:53:43Z</time>
      </trkpt>
      <trkpt lat="36.751923" lon="-2.911103">
        <ele>24.617</ele>
        <time>2021-06-16T09:53:45Z</time>
      </trkpt>
      <trkpt lat="36.752031" lon="-2.911327">
        <ele>25.018</ele>
        <time>2021-06-16T09:53:47Z</time>
      </trkpt>
      <trkpt lat="36.752139" lon="-2.91156">
        <ele>25.308</ele>
        <time>2021-06-16T09:53:49Z</time>
      </trkpt>
      <trkpt lat="36.752193" lon="-2.911684">
        <ele>25.460</ele>
        <time>2021-06-16T09:53:50Z</time>
      </trkpt>
      <trkpt lat="36.752317" lon="-2.911932">
        <ele>25.398</ele>
        <time>2021-06-16T09:53:52Z</time>
      </trkpt>
      <trkpt lat="36.752442" lon="-2.91219">
        <ele>25.172</ele>
        <time>2021-06-16T09:53:54Z</time>
      </trkpt>
      <trkpt lat="36.752508" lon="-2.912323">
        <ele>25.241</ele>
        <time>2021-06-16T09:53:55Z</time>
      </trkpt>
      <trkpt lat="36.752635" lon="-2.912596">
        <ele>25.374</ele>
        <time>2021-06-16T09:53:57Z</time>
      </trkpt>
      <trkpt lat="36.752762" lon="-2.912878">
        <ele>25.411</ele>
        <time>2021-06-16T09:53:59Z</time>
      </trkpt>
      <trkpt lat="36.752887" lon="-2.913151">
        <ele>25.848</ele>
        <time>2021-06-16T09:54:01Z</time>
      </trkpt>
      <trkpt lat="36.752953" lon="-2.913289">
        <ele>26.358</ele>
        <time>2021-06-16T09:54:02Z</time>
      </trkpt>
      <trkpt lat="36.753078" lon="-2.913556">
        <ele>26.665</ele>
        <time>2021-06-16T09:54:04Z</time>
      </trkpt>
      <trkpt lat="36.753214" lon="-2.913821">
        <ele>26.668</ele>
        <time>2021-06-16T09:54:06Z</time>
      </trkpt>
      <trkpt lat="36.753341" lon="-2.914096">
        <ele>26.414</ele>
        <time>2021-06-16T09:54:08Z</time>
      </trkpt>
      <trkpt lat="36.753478" lon="-2.914385">
        <ele>26.808</ele>
        <time>2021-06-16T09:54:10Z</time>
      </trkpt>
      <trkpt lat="36.753547" lon="-2.914532">
        <ele>27.373</ele>
        <time>2021-06-16T09:54:11Z</time>
      </trkpt>
      <trkpt lat="36.753676" lon="-2.914834">
        <ele>27.861</ele>
        <time>2021-06-16T09:54:13Z</time>
      </trkpt>
      <trkpt lat="36.753732" lon="-2.914996">
        <ele>28.395</ele>
        <time>2021-06-16T09:54:14Z</time>
      </trkpt>
      <trkpt lat="36.753826" lon="-2.915346">
        <ele>29.264</ele>
        <time>2021-06-16T09:54:16Z</time>
      </trkpt>
      <trkpt lat="36.753893" lon="-2.915708">
        <ele>29.747</ele>
        <time>2021-06-16T09:54:18Z</time>
      </trkpt>
      <trkpt lat="36.753909" lon="-2.915896">
        <ele>30.394</ele>
        <time>2021-06-16T09:54:19Z</time>
      </trkpt>
      <trkpt lat="36.75391" lon="-2.916281">
        <ele>30.321</ele>
        <time>2021-06-16T09:54:21Z</time>
      </trkpt>
      <trkpt lat="36.753894" lon="-2.91647">
        <ele>30.341</ele>
        <time>2021-06-16T09:54:22Z</time>
      </trkpt>
      <trkpt lat="36.753868" lon="-2.916659">
        <ele>30.365</ele>
        <time>2021-06-16T09:54:23Z</time>
      </trkpt>
      <trkpt lat="36.753829" lon="-2.916849">
        <ele>30.368</ele>
        <time>2021-06-16T09:54:24Z</time>
      </trkpt>
      <trkpt lat="36.753732" lon="-2.917221">
        <ele>30.214</ele>
        <time>2021-06-16T09:54:26Z</time>
      </trkpt>
      <trkpt lat="36.753632" lon="-2.917601">
        <ele>29.708</ele>
        <time>2021-06-16T09:54:28Z</time>
      </trkpt>
      <trkpt lat="36.753582" lon="-2.917789">
        <ele>29.413</ele>
        <time>2021-06-16T09:54:29Z</time>
      </trkpt>
      <trkpt lat="36.753499" lon="-2.918169">
        <ele>28.871</ele>
        <time>2021-06-16T09:54:31Z</time>
      </trkpt>
      <trkpt lat="36.753484" lon="-2.918371">
        <ele>27.845</ele>
        <time>2021-06-16T09:54:32Z</time>
      </trkpt>
      <trkpt lat="36.753482" lon="-2.918794">
        <ele>27.614</ele>
        <time>2021-06-16T09:54:34Z</time>
      </trkpt>
      <trkpt lat="36.753503" lon="-2.91924">
        <ele>27.877</ele>
        <time>2021-06-16T09:54:36Z</time>
      </trkpt>
      <trkpt lat="36.753531" lon="-2.919467">
        <ele>28.284</ele>
        <time>2021-06-16T09:54:37Z</time>
      </trkpt>
      <trkpt lat="36.753613" lon="-2.919918">
        <ele>28.881</ele>
        <time>2021-06-16T09:54:39Z</time>
      </trkpt>
      <trkpt lat="36.753658" lon="-2.920142">
        <ele>29.271</ele>
        <time>2021-06-16T09:54:40Z</time>
      </trkpt>
      <trkpt lat="36.753698" lon="-2.920366">
        <ele>29.581</ele>
        <time>2021-06-16T09:54:41Z</time>
      </trkpt>
      <trkpt lat="36.753723" lon="-2.920582">
        <ele>29.361</ele>
        <time>2021-06-16T09:54:42Z</time>
      </trkpt>
      <trkpt lat="36.753716" lon="-2.921001">
        <ele>28.617</ele>
        <time>2021-06-16T09:54:44Z</time>
      </trkpt>
      <trkpt lat="36.753689" lon="-2.92122">
        <ele>28.108</ele>
        <time>2021-06-16T09:54:45Z</time>
      </trkpt>
      <trkpt lat="36.753652" lon="-2.921434">
        <ele>27.295</ele>
        <time>2021-06-16T09:54:46Z</time>
      </trkpt>
      <trkpt lat="36.753559" lon="-2.921848">
        <ele>26.473</ele>
        <time>2021-06-16T09:54:48Z</time>
      </trkpt>
      <trkpt lat="36.753508" lon="-2.922054">
        <ele>25.787</ele>
        <time>2021-06-16T09:54:49Z</time>
      </trkpt>
      <trkpt lat="36.753458" lon="-2.922264">
        <ele>25.146</ele>
        <time>2021-06-16T09:54:50Z</time>
      </trkpt>
      <trkpt lat="36.753411" lon="-2.922476">
        <ele>24.819</ele>
        <time>2021-06-16T09:54:51Z</time>
      </trkpt>
      <trkpt lat="36.753321" lon="-2.9229">
        <ele>24.796</ele>
        <time>2021-06-16T09:54:53Z</time>
      </trkpt>
      <trkpt lat="36.753225" lon="-2.923325">
        <ele>24.943</ele>
        <time>2021-06-16T09:54:55Z</time>
      </trkpt>
      <trkpt lat="36.753177" lon="-2.92354">
        <ele>24.623</ele>
        <time>2021-06-16T09:54:56Z</time>
      </trkpt>
      <trkpt lat="36.753129" lon="-2.923751">
        <ele>24.038</ele>
        <time>2021-06-16T09:54:57Z</time>
      </trkpt>
      <trkpt lat="36.753049" lon="-2.924167">
        <ele>23.470</ele>
        <time>2021-06-16T09:54:59Z</time>
      </trkpt>
      <trkpt lat="36.753017" lon="-2.924379">
        <ele>23.317</ele>
        <time>2021-06-16T09:55:00Z</time>
      </trkpt>
      <trkpt lat="36.753003" lon="-2.924807">
        <ele>23.208</ele>
        <time>2021-06-16T09:55:02Z</time>
      </trkpt>
      <trkpt lat="36.753028" lon="-2.925025">
        <ele>23.560</ele>
        <time>2021-06-16T09:55:03Z</time>
      </trkpt>
      <trkpt lat="36.75306" lon="-2.925241">
        <ele>23.868</ele>
        <time>2021-06-16T09:55:04Z</time>
      </trkpt>
      <trkpt lat="36.753142" lon="-2.925673">
        <ele>24.162</ele>
        <time>2021-06-16T09:55:06Z</time>
      </trkpt>
      <trkpt lat="36.753222" lon="-2.926107">
        <ele>24.571</ele>
        <time>2021-06-16T09:55:08Z</time>
      </trkpt>
      <trkpt lat="36.753261" lon="-2.926326">
        <ele>24.824</ele>
        <time>2021-06-16T09:55:09Z</time>
      </trkpt>
      <trkpt lat="36.7533" lon="-2.926542">
        <ele>25.071</ele>
        <time>2021-06-16T09:55:10Z</time>
      </trkpt>
      <trkpt lat="36.753352" lon="-2.926961">
        <ele>25.128</ele>
        <time>2021-06-16T09:55:12Z</time>
      </trkpt>
      <trkpt lat="36.753358" lon="-2.92717">
        <ele>24.968</ele>
        <time>2021-06-16T09:55:13Z</time>
      </trkpt>
      <trkpt lat="36.753316" lon="-2.927583">
        <ele>25.251</ele>
        <time>2021-06-16T09:55:15Z</time>
      </trkpt>
      <trkpt lat="36.753212" lon="-2.928">
        <ele>25.201</ele>
        <time>2021-06-16T09:55:17Z</time>
      </trkpt>
      <trkpt lat="36.753156" lon="-2.928202">
        <ele>25.011</ele>
        <time>2021-06-16T09:55:18Z</time>
      </trkpt>
      <trkpt lat="36.753049" lon="-2.928596">
        <ele>25.008</ele>
        <time>2021-06-16T09:55:20Z</time>
      </trkpt>
      <trkpt lat="36.752947" lon="-2.928981">
        <ele>25.092</ele>
        <time>2021-06-16T09:55:22Z</time>
      </trkpt>
      <trkpt lat="36.752895" lon="-2.929172">
        <ele>24.960</ele>
        <time>2021-06-16T09:55:23Z</time>
      </trkpt>
      <trkpt lat="36.752809" lon="-2.929542">
        <ele>24.784</ele>
        <time>2021-06-16T09:55:25Z</time>
      </trkpt>
      <trkpt lat="36.752766" lon="-2.929732">
        <ele>24.813</ele>
        <time>2021-06-16T09:55:26Z</time>
      </trkpt>
      <trkpt lat="36.752701" lon="-2.93011">
        <ele>24.966</ele>
        <time>2021-06-16T09:55:28Z</time>
      </trkpt>
      <trkpt lat="36.752652" lon="-2.930487">
        <ele>26.363</ele>
        <time>2021-06-16T09:55:30Z</time>
      </trkpt>
      <trkpt lat="36.752627" lon="-2.930879">
        <ele>27.170</ele>
        <time>2021-06-16T09:55:32Z</time>
      </trkpt>
      <trkpt lat="36.75263" lon="-2.931067">
        <ele>27.330</ele>
        <time>2021-06-16T09:55:33Z</time>
      </trkpt>
      <trkpt lat="36.752635" lon="-2.931253">
        <ele>27.624</ele>
        <time>2021-06-16T09:55:34Z</time>
      </trkpt>
      <trkpt lat="36.752653" lon="-2.931639">
        <ele>27.804</ele>
        <time>2021-06-16T09:55:36Z</time>
      </trkpt>
      <trkpt lat="36.752673" lon="-2.931835">
        <ele>27.414</ele>
        <time>2021-06-16T09:55:37Z</time>
      </trkpt>
      <trkpt lat="36.752699" lon="-2.932032">
        <ele>27.008</ele>
        <time>2021-06-16T09:55:38Z</time>
      </trkpt>
      <trkpt lat="36.75273" lon="-2.932229">
        <ele>27.149</ele>
        <time>2021-06-16T09:55:39Z</time>
      </trkpt>
      <trkpt lat="36.752811" lon="-2.932629">
        <ele>27.537</ele>
        <time>2021-06-16T09:55:41Z</time>
      </trkpt>
      <trkpt lat="36.752903" lon="-2.933028">
        <ele>27.721</ele>
        <time>2021-06-16T09:55:43Z</time>
      </trkpt>
      <trkpt lat="36.752952" lon="-2.933221">
        <ele>27.950</ele>
        <time>2021-06-16T09:55:44Z</time>
      </trkpt>
      <trkpt lat="36.753048" lon="-2.93361">
        <ele>27.773</ele>
        <time>2021-06-16T09:55:46Z</time>
      </trkpt>
      <trkpt lat="36.753094" lon="-2.933799">
        <ele>27.770</ele>
        <time>2021-06-16T09:55:47Z</time>
      </trkpt>
      <trkpt lat="36.753141" lon="-2.933987">
        <ele>27.437</ele>
        <time>2021-06-16T09:55:48Z</time>
      </trkpt>
      <trkpt lat="36.753233" lon="-2.934354">
        <ele>27.157</ele>
        <time>2021-06-16T09:55:50Z</time>
      </trkpt>
      <trkpt lat="36.753328" lon="-2.934738">
        <ele>27.157</ele>
        <time>2021-06-16T09:55:52Z</time>
      </trkpt>
      <trkpt lat="36.753423" lon="-2.935128">
        <ele>27.100</ele>
        <time>2021-06-16T09:55:54Z</time>
      </trkpt>
      <trkpt lat="36.753468" lon="-2.93532">
        <ele>26.920</ele>
        <time>2021-06-16T09:55:55Z</time>
      </trkpt>
      <trkpt lat="36.753513" lon="-2.935518">
        <ele>26.608</ele>
        <time>2021-06-16T09:55:56Z</time>
      </trkpt>
      <trkpt lat="36.753561" lon="-2.935718">
        <ele>26.272</ele>
        <time>2021-06-16T09:55:57Z</time>
      </trkpt>
      <trkpt lat="36.753651" lon="-2.936071">
        <ele>25.730</ele>
        <time>2021-06-16T09:55:59Z</time>
      </trkpt>
      <trkpt lat="36.75373" lon="-2.936402">
        <ele>25.514</ele>
        <time>2021-06-16T09:56:01Z</time>
      </trkpt>
      <trkpt lat="36.753764" lon="-2.936571">
        <ele>25.233</ele>
        <time>2021-06-16T09:56:02Z</time>
      </trkpt>
      <trkpt lat="36.753832" lon="-2.936915">
        <ele>25.276</ele>
        <time>2021-06-16T09:56:04Z</time>
      </trkpt>
      <trkpt lat="36.753862" lon="-2.937078">
        <ele>24.573</ele>
        <time>2021-06-16T09:56:05Z</time>
      </trkpt>
      <trkpt lat="36.753924" lon="-2.937401">
        <ele>23.680</ele>
        <time>2021-06-16T09:56:07Z</time>
      </trkpt>
      <trkpt lat="36.75395" lon="-2.937565">
        <ele>22.770</ele>
        <time>2021-06-16T09:56:08Z</time>
      </trkpt>
      <trkpt lat="36.754002" lon="-2.937903">
        <ele>22.526</ele>
        <time>2021-06-16T09:56:10Z</time>
      </trkpt>
      <trkpt lat="36.754054" lon="-2.938255">
        <ele>22.447</ele>
        <time>2021-06-16T09:56:12Z</time>
      </trkpt>
      <trkpt lat="36.75412" lon="-2.938606">
        <ele>21.911</ele>
        <time>2021-06-16T09:56:14Z</time>
      </trkpt>
      <trkpt lat="36.754203" lon="-2.938953">
        <ele>21.608</ele>
        <time>2021-06-16T09:56:16Z</time>
      </trkpt>
      <trkpt lat="36.754254" lon="-2.939125">
        <ele>21.419</ele>
        <time>2021-06-16T09:56:17Z</time>
      </trkpt>
      <trkpt lat="36.754311" lon="-2.939296">
        <ele>21.447</ele>
        <time>2021-06-16T09:56:18Z</time>
      </trkpt>
      <trkpt lat="36.754433" lon="-2.939638">
        <ele>21.661</ele>
        <time>2021-06-16T09:56:20Z</time>
      </trkpt>
      <trkpt lat="36.754494" lon="-2.93981">
        <ele>21.810</ele>
        <time>2021-06-16T09:56:21Z</time>
      </trkpt>
      <trkpt lat="36.754609" lon="-2.940157">
        <ele>21.843</ele>
        <time>2021-06-16T09:56:23Z</time>
      </trkpt>
      <trkpt lat="36.754735" lon="-2.940502">
        <ele>21.640</ele>
        <time>2021-06-16T09:56:25Z</time>
      </trkpt>
      <trkpt lat="36.754867" lon="-2.940852">
        <ele>21.567</ele>
        <time>2021-06-16T09:56:27Z</time>
      </trkpt>
      <trkpt lat="36.755005" lon="-2.941196">
        <ele>21.437</ele>
        <time>2021-06-16T09:56:29Z</time>
      </trkpt>
      <trkpt lat="36.755079" lon="-2.941369">
        <ele>21.338</ele>
        <time>2021-06-16T09:56:30Z</time>
      </trkpt>
      <trkpt lat="36.755239" lon="-2.941688">
        <ele>20.970</ele>
        <time>2021-06-16T09:56:32Z</time>
      </trkpt>
      <trkpt lat="36.755321" lon="-2.941828">
        <ele>20.517</ele>
        <time>2021-06-16T09:56:33Z</time>
      </trkpt>
      <trkpt lat="36.755399" lon="-2.941966">
        <ele>20.408</ele>
        <time>2021-06-16T09:56:34Z</time>
      </trkpt>
      <trkpt lat="36.755474" lon="-2.942098">
        <ele>20.160</ele>
        <time>2021-06-16T09:56:35Z</time>
      </trkpt>
      <trkpt lat="36.755617" lon="-2.942365">
        <ele>20.038</ele>
        <time>2021-06-16T09:56:37Z</time>
      </trkpt>
      <trkpt lat="36.755688" lon="-2.942502">
        <ele>19.682</ele>
        <time>2021-06-16T09:56:38Z</time>
      </trkpt>
      <trkpt lat="36.755759" lon="-2.94264">
        <ele>19.461</ele>
        <time>2021-06-16T09:56:39Z</time>
      </trkpt>
      <trkpt lat="36.755908" lon="-2.942928">
        <ele>19.124</ele>
        <time>2021-06-16T09:56:41Z</time>
      </trkpt>
      <trkpt lat="36.756058" lon="-2.943241">
        <ele>18.561</ele>
        <time>2021-06-16T09:56:43Z</time>
      </trkpt>
      <trkpt lat="36.756136" lon="-2.943414">
        <ele>18.188</ele>
        <time>2021-06-16T09:56:44Z</time>
      </trkpt>
      <trkpt lat="36.756294" lon="-2.943791">
        <ele>17.618</ele>
        <time>2021-06-16T09:56:46Z</time>
      </trkpt>
      <trkpt lat="36.756449" lon="-2.94425">
        <ele>16.974</ele>
        <time>2021-06-16T09:56:48Z</time>
      </trkpt>
      <trkpt lat="36.756524" lon="-2.944496">
        <ele>16.256</ele>
        <time>2021-06-16T09:56:49Z</time>
      </trkpt>
      <trkpt lat="36.756669" lon="-2.94499">
        <ele>15.621</ele>
        <time>2021-06-16T09:56:51Z</time>
      </trkpt>
      <trkpt lat="36.756739" lon="-2.945237">
        <ele>15.408</ele>
        <time>2021-06-16T09:56:52Z</time>
      </trkpt>
      <trkpt lat="36.756868" lon="-2.945738">
        <ele>15.654</ele>
        <time>2021-06-16T09:56:54Z</time>
      </trkpt>
      <trkpt lat="36.75693" lon="-2.945979">
        <ele>15.282</ele>
        <time>2021-06-16T09:56:55Z</time>
      </trkpt>
      <trkpt lat="36.757038" lon="-2.946457">
        <ele>15.566</ele>
        <time>2021-06-16T09:56:57Z</time>
      </trkpt>
      <trkpt lat="36.757127" lon="-2.946902">
        <ele>16.545</ele>
        <time>2021-06-16T09:56:59Z</time>
      </trkpt>
      <trkpt lat="36.7572" lon="-2.947305">
        <ele>17.098</ele>
        <time>2021-06-16T09:57:01Z</time>
      </trkpt>
      <trkpt lat="36.757269" lon="-2.947679">
        <ele>17.835</ele>
        <time>2021-06-16T09:57:03Z</time>
      </trkpt>
      <trkpt lat="36.757339" lon="-2.947971">
        <ele>17.432</ele>
        <time>2021-06-16T09:57:05Z</time>
      </trkpt>
      <trkpt lat="36.757392" lon="-2.948242">
        <ele>17.472</ele>
        <time>2021-06-16T09:57:07Z</time>
      </trkpt>
      <trkpt lat="36.757437" lon="-2.948496">
        <ele>17.144</ele>
        <time>2021-06-16T09:57:09Z</time>
      </trkpt>
      <trkpt lat="36.75746" lon="-2.948614">
        <ele>17.105</ele>
        <time>2021-06-16T09:57:10Z</time>
      </trkpt>
      <trkpt lat="36.757483" lon="-2.948732">
        <ele>17.115</ele>
        <time>2021-06-16T09:57:11Z</time>
      </trkpt>
      <trkpt lat="36.757525" lon="-2.948954">
        <ele>17.208</ele>
        <time>2021-06-16T09:57:13Z</time>
      </trkpt>
      <trkpt lat="36.757548" lon="-2.949071">
        <ele>17.541</ele>
        <time>2021-06-16T09:57:14Z</time>
      </trkpt>
      <trkpt lat="36.757593" lon="-2.949327">
        <ele>18.349</ele>
        <time>2021-06-16T09:57:16Z</time>
      </trkpt>
      <trkpt lat="36.757615" lon="-2.949453">
        <ele>18.863</ele>
        <time>2021-06-16T09:57:17Z</time>
      </trkpt>
      <trkpt lat="36.757641" lon="-2.949585">
        <ele>19.112</ele>
        <time>2021-06-16T09:57:18Z</time>
      </trkpt>
      <trkpt lat="36.757673" lon="-2.949712">
        <ele>18.625</ele>
        <time>2021-06-16T09:57:19Z</time>
      </trkpt>
      <trkpt lat="36.757734" lon="-2.949996">
        <ele>18.352</ele>
        <time>2021-06-16T09:57:21Z</time>
      </trkpt>
      <trkpt lat="36.757793" lon="-2.950356">
        <ele>18.579</ele>
        <time>2021-06-16T09:57:23Z</time>
      </trkpt>
      <trkpt lat="36.757867" lon="-2.950782">
        <ele>18.249</ele>
        <time>2021-06-16T09:57:25Z</time>
      </trkpt>
      <trkpt lat="36.757916" lon="-2.95102">
        <ele>18.078</ele>
        <time>2021-06-16T09:57:26Z</time>
      </trkpt>
      <trkpt lat="36.757966" lon="-2.95127">
        <ele>17.533</ele>
        <time>2021-06-16T09:57:27Z</time>
      </trkpt>
      <trkpt lat="36.758015" lon="-2.951525">
        <ele>17.626</ele>
        <time>2021-06-16T09:57:28Z</time>
      </trkpt>
      <trkpt lat="36.758116" lon="-2.952035">
        <ele>18.108</ele>
        <time>2021-06-16T09:57:30Z</time>
      </trkpt>
      <trkpt lat="36.758232" lon="-2.952552">
        <ele>18.364</ele>
        <time>2021-06-16T09:57:32Z</time>
      </trkpt>
      <trkpt lat="36.758294" lon="-2.952805">
        <ele>18.242</ele>
        <time>2021-06-16T09:57:33Z</time>
      </trkpt>
      <trkpt lat="36.758407" lon="-2.953298">
        <ele>18.256</ele>
        <time>2021-06-16T09:57:35Z</time>
      </trkpt>
      <trkpt lat="36.758458" lon="-2.953543">
        <ele>18.655</ele>
        <time>2021-06-16T09:57:36Z</time>
      </trkpt>
      <trkpt lat="36.758559" lon="-2.954005">
        <ele>18.618</ele>
        <time>2021-06-16T09:57:38Z</time>
      </trkpt>
      <trkpt lat="36.758606" lon="-2.954227">
        <ele>19.395</ele>
        <time>2021-06-16T09:57:39Z</time>
      </trkpt>
      <trkpt lat="36.758649" lon="-2.954442">
        <ele>19.862</ele>
        <time>2021-06-16T09:57:40Z</time>
      </trkpt>
      <trkpt lat="36.75873" lon="-2.954845">
        <ele>20.582</ele>
        <time>2021-06-16T09:57:42Z</time>
      </trkpt>
      <trkpt lat="36.758765" lon="-2.955025">
        <ele>21.121</ele>
        <time>2021-06-16T09:57:43Z</time>
      </trkpt>
      <trkpt lat="36.758802" lon="-2.955201">
        <ele>21.741</ele>
        <time>2021-06-16T09:57:44Z</time>
      </trkpt>
      <trkpt lat="36.758873" lon="-2.955537">
        <ele>22.205</ele>
        <time>2021-06-16T09:57:46Z</time>
      </trkpt>
      <trkpt lat="36.758944" lon="-2.955881">
        <ele>23.408</ele>
        <time>2021-06-16T09:57:48Z</time>
      </trkpt>
      <trkpt lat="36.758981" lon="-2.956052">
        <ele>24.129</ele>
        <time>2021-06-16T09:57:49Z</time>
      </trkpt>
      <trkpt lat="36.759066" lon="-2.956376">
        <ele>24.547</ele>
        <time>2021-06-16T09:57:51Z</time>
      </trkpt>
      <trkpt lat="36.759148" lon="-2.956704">
        <ele>24.891</ele>
        <time>2021-06-16T09:57:53Z</time>
      </trkpt>
      <trkpt lat="36.759231" lon="-2.957029">
        <ele>25.890</ele>
        <time>2021-06-16T09:57:55Z</time>
      </trkpt>
      <trkpt lat="36.759275" lon="-2.957193">
        <ele>26.493</ele>
        <time>2021-06-16T09:57:56Z</time>
      </trkpt>
      <trkpt lat="36.759363" lon="-2.957512">
        <ele>26.880</ele>
        <time>2021-06-16T09:57:58Z</time>
      </trkpt>
      <trkpt lat="36.759407" lon="-2.957669">
        <ele>26.987</ele>
        <time>2021-06-16T09:57:59Z</time>
      </trkpt>
      <trkpt lat="36.759494" lon="-2.957958">
        <ele>27.057</ele>
        <time>2021-06-16T09:58:01Z</time>
      </trkpt>
      <trkpt lat="36.759537" lon="-2.9581">
        <ele>27.148</ele>
        <time>2021-06-16T09:58:02Z</time>
      </trkpt>
      <trkpt lat="36.759619" lon="-2.958375">
        <ele>27.461</ele>
        <time>2021-06-16T09:58:04Z</time>
      </trkpt>
      <trkpt lat="36.759697" lon="-2.958632">
        <ele>27.617</ele>
        <time>2021-06-16T09:58:06Z</time>
      </trkpt>
      <trkpt lat="36.75973" lon="-2.958764">
        <ele>27.708</ele>
        <time>2021-06-16T09:58:07Z</time>
      </trkpt>
      <trkpt lat="36.759789" lon="-2.959043">
        <ele>28.081</ele>
        <time>2021-06-16T09:58:09Z</time>
      </trkpt>
      <trkpt lat="36.759821" lon="-2.959185">
        <ele>28.269</ele>
        <time>2021-06-16T09:58:10Z</time>
      </trkpt>
      <trkpt lat="36.75987" lon="-2.959483">
        <ele>28.873</ele>
        <time>2021-06-16T09:58:12Z</time>
      </trkpt>
      <trkpt lat="36.759897" lon="-2.959807">
        <ele>28.962</ele>
        <time>2021-06-16T09:58:14Z</time>
      </trkpt>
      <trkpt lat="36.759905" lon="-2.959971">
        <ele>28.875</ele>
        <time>2021-06-16T09:58:15Z</time>
      </trkpt>
      <trkpt lat="36.759916" lon="-2.960305">
        <ele>28.922</ele>
        <time>2021-06-16T09:58:17Z</time>
      </trkpt>
      <trkpt lat="36.759919" lon="-2.960476">
        <ele>28.659</ele>
        <time>2021-06-16T09:58:18Z</time>
      </trkpt>
      <trkpt lat="36.759917" lon="-2.960823">
        <ele>28.849</ele>
        <time>2021-06-16T09:58:20Z</time>
      </trkpt>
      <trkpt lat="36.759909" lon="-2.960999">
        <ele>28.624</ele>
        <time>2021-06-16T09:58:21Z</time>
      </trkpt>
      <trkpt lat="36.759889" lon="-2.961353">
        <ele>28.604</ele>
        <time>2021-06-16T09:58:23Z</time>
      </trkpt>
      <trkpt lat="36.759872" lon="-2.961534">
        <ele>29.014</ele>
        <time>2021-06-16T09:58:24Z</time>
      </trkpt>
      <trkpt lat="36.759848" lon="-2.961897">
        <ele>28.808</ele>
        <time>2021-06-16T09:58:26Z</time>
      </trkpt>
      <trkpt lat="36.759836" lon="-2.962272">
        <ele>28.989</ele>
        <time>2021-06-16T09:58:28Z</time>
      </trkpt>
      <trkpt lat="36.75983" lon="-2.962454">
        <ele>28.987</ele>
        <time>2021-06-16T09:58:29Z</time>
      </trkpt>
      <trkpt lat="36.759818" lon="-2.962832">
        <ele>29.151</ele>
        <time>2021-06-16T09:58:31Z</time>
      </trkpt>
      <trkpt lat="36.759808" lon="-2.963025">
        <ele>29.210</ele>
        <time>2021-06-16T09:58:32Z</time>
      </trkpt>
      <trkpt lat="36.759792" lon="-2.963404">
        <ele>29.583</ele>
        <time>2021-06-16T09:58:34Z</time>
      </trkpt>
      <trkpt lat="36.759786" lon="-2.963788">
        <ele>29.550</ele>
        <time>2021-06-16T09:58:36Z</time>
      </trkpt>
      <trkpt lat="36.759779" lon="-2.963984">
        <ele>29.917</ele>
        <time>2021-06-16T09:58:37Z</time>
      </trkpt>
      <trkpt lat="36.759761" lon="-2.964367">
        <ele>30.867</ele>
        <time>2021-06-16T09:58:39Z</time>
      </trkpt>
      <trkpt lat="36.759751" lon="-2.964558">
        <ele>31.262</ele>
        <time>2021-06-16T09:58:40Z</time>
      </trkpt>
      <trkpt lat="36.75974" lon="-2.964929">
        <ele>31.683</ele>
        <time>2021-06-16T09:58:42Z</time>
      </trkpt>
      <trkpt lat="36.759732" lon="-2.965114">
        <ele>32.111</ele>
        <time>2021-06-16T09:58:43Z</time>
      </trkpt>
      <trkpt lat="36.759714" lon="-2.965462">
        <ele>32.808</ele>
        <time>2021-06-16T09:58:45Z</time>
      </trkpt>
      <trkpt lat="36.759706" lon="-2.965636">
        <ele>33.743</ele>
        <time>2021-06-16T09:58:46Z</time>
      </trkpt>
      <trkpt lat="36.759696" lon="-2.96581">
        <ele>34.051</ele>
        <time>2021-06-16T09:58:47Z</time>
      </trkpt>
      <trkpt lat="36.759674" lon="-2.966142">
        <ele>34.735</ele>
        <time>2021-06-16T09:58:49Z</time>
      </trkpt>
      <trkpt lat="36.759659" lon="-2.966482">
        <ele>35.484</ele>
        <time>2021-06-16T09:58:51Z</time>
      </trkpt>
      <trkpt lat="36.759639" lon="-2.966811">
        <ele>36.547</ele>
        <time>2021-06-16T09:58:53Z</time>
      </trkpt>
      <trkpt lat="36.759628" lon="-2.967139">
        <ele>37.174</ele>
        <time>2021-06-16T09:58:55Z</time>
      </trkpt>
      <trkpt lat="36.759617" lon="-2.967462">
        <ele>37.991</ele>
        <time>2021-06-16T09:58:57Z</time>
      </trkpt>
      <trkpt lat="36.759613" lon="-2.967621">
        <ele>37.931</ele>
        <time>2021-06-16T09:58:58Z</time>
      </trkpt>
      <trkpt lat="36.759611" lon="-2.967779">
        <ele>38.183</ele>
        <time>2021-06-16T09:58:59Z</time>
      </trkpt>
      <trkpt lat="36.759612" lon="-2.968089">
        <ele>38.625</ele>
        <time>2021-06-16T09:59:01Z</time>
      </trkpt>
      <trkpt lat="36.75963" lon="-2.968392">
        <ele>39.117</ele>
        <time>2021-06-16T09:59:03Z</time>
      </trkpt>
      <trkpt lat="36.759678" lon="-2.968679">
        <ele>39.408</ele>
        <time>2021-06-16T09:59:05Z</time>
      </trkpt>
      <trkpt lat="36.759754" lon="-2.968935">
        <ele>39.965</ele>
        <time>2021-06-16T09:59:07Z</time>
      </trkpt>
      <trkpt lat="36.759807" lon="-2.969047">
        <ele>40.173</ele>
        <time>2021-06-16T09:59:08Z</time>
      </trkpt>
      <trkpt lat="36.759932" lon="-2.969235">
        <ele>40.347</ele>
        <time>2021-06-16T09:59:10Z</time>
      </trkpt>
      <trkpt lat="36.760036" lon="-2.969406">
        <ele>40.786</ele>
        <time>2021-06-16T09:59:12Z</time>
      </trkpt>
      <trkpt lat="36.760064" lon="-2.969494">
        <ele>41.029</ele>
        <time>2021-06-16T09:59:13Z</time>
      </trkpt>
      <trkpt lat="36.760071" lon="-2.969679">
        <ele>41.586</ele>
        <time>2021-06-16T09:59:15Z</time>
      </trkpt>
      <trkpt lat="36.76002" lon="-2.969886">
        <ele>41.873</ele>
        <time>2021-06-16T09:59:17Z</time>
      </trkpt>
      <trkpt lat="36.75992" lon="-2.970078">
        <ele>42.163</ele>
        <time>2021-06-16T09:59:19Z</time>
      </trkpt>
      <trkpt lat="36.759761" lon="-2.970226">
        <ele>42.324</ele>
        <time>2021-06-16T09:59:21Z</time>
      </trkpt>
      <trkpt lat="36.759684" lon="-2.970309">
        <ele>42.504</ele>
        <time>2021-06-16T09:59:22Z</time>
      </trkpt>
      <trkpt lat="36.759563" lon="-2.97053">
        <ele>42.814</ele>
        <time>2021-06-16T09:59:24Z</time>
      </trkpt>
      <trkpt lat="36.75952" lon="-2.970662">
        <ele>42.908</ele>
        <time>2021-06-16T09:59:25Z</time>
      </trkpt>
      <trkpt lat="36.759488" lon="-2.970802">
        <ele>42.959</ele>
        <time>2021-06-16T09:59:26Z</time>
      </trkpt>
      <trkpt lat="36.759468" lon="-2.970946">
        <ele>43.127</ele>
        <time>2021-06-16T09:59:27Z</time>
      </trkpt>
      <trkpt lat="36.759455" lon="-2.971093">
        <ele>42.991</ele>
        <time>2021-06-16T09:59:28Z</time>
      </trkpt>
      <trkpt lat="36.759439" lon="-2.971397">
        <ele>42.740</ele>
        <time>2021-06-16T09:59:30Z</time>
      </trkpt>
      <trkpt lat="36.759428" lon="-2.971735">
        <ele>42.793</ele>
        <time>2021-06-16T09:59:32Z</time>
      </trkpt>
      <trkpt lat="36.759412" lon="-2.972081">
        <ele>42.460</ele>
        <time>2021-06-16T09:59:34Z</time>
      </trkpt>
      <trkpt lat="36.759407" lon="-2.972258">
        <ele>42.437</ele>
        <time>2021-06-16T09:59:35Z</time>
      </trkpt>
      <trkpt lat="36.759401" lon="-2.972619">
        <ele>42.777</ele>
        <time>2021-06-16T09:59:37Z</time>
      </trkpt>
      <trkpt lat="36.759396" lon="-2.972806">
        <ele>42.737</ele>
        <time>2021-06-16T09:59:38Z</time>
      </trkpt>
      <trkpt lat="36.759381" lon="-2.973181">
        <ele>42.749</ele>
        <time>2021-06-16T09:59:40Z</time>
      </trkpt>
      <trkpt lat="36.75937" lon="-2.973368">
        <ele>42.913</ele>
        <time>2021-06-16T09:59:41Z</time>
      </trkpt>
      <trkpt lat="36.759361" lon="-2.973556">
        <ele>42.908</ele>
        <time>2021-06-16T09:59:42Z</time>
      </trkpt>
      <trkpt lat="36.75934" lon="-2.973922">
        <ele>43.070</ele>
        <time>2021-06-16T09:59:44Z</time>
      </trkpt>
      <trkpt lat="36.759329" lon="-2.974104">
        <ele>42.938</ele>
        <time>2021-06-16T09:59:45Z</time>
      </trkpt>
      <trkpt lat="36.759306" lon="-2.97447">
        <ele>43.082</ele>
        <time>2021-06-16T09:59:47Z</time>
      </trkpt>
      <trkpt lat="36.759297" lon="-2.974655">
        <ele>43.051</ele>
        <time>2021-06-16T09:59:48Z</time>
      </trkpt>
      <trkpt lat="36.759287" lon="-2.974844">
        <ele>43.444</ele>
        <time>2021-06-16T09:59:49Z</time>
      </trkpt>
      <trkpt lat="36.759279" lon="-2.975217">
        <ele>43.461</ele>
        <time>2021-06-16T09:59:51Z</time>
      </trkpt>
      <trkpt lat="36.759261" lon="-2.975598">
        <ele>43.288</ele>
        <time>2021-06-16T09:59:53Z</time>
      </trkpt>
      <trkpt lat="36.759234" lon="-2.975987">
        <ele>42.688</ele>
        <time>2021-06-16T09:59:55Z</time>
      </trkpt>
      <trkpt lat="36.75922" lon="-2.97618">
        <ele>42.469</ele>
        <time>2021-06-16T09:59:56Z</time>
      </trkpt>
      <trkpt lat="36.75918" lon="-2.97656">
        <ele>42.404</ele>
        <time>2021-06-16T09:59:58Z</time>
      </trkpt>
      <trkpt lat="36.759116" lon="-2.976923">
        <ele>42.424</ele>
        <time>2021-06-16T10:00:00Z</time>
      </trkpt>
      <trkpt lat="36.759037" lon="-2.97725">
        <ele>41.708</ele>
        <time>2021-06-16T10:00:02Z</time>
      </trkpt>
      <trkpt lat="36.758993" lon="-2.977409">
        <ele>41.333</ele>
        <time>2021-06-16T10:00:03Z</time>
      </trkpt>
      <trkpt lat="36.75895" lon="-2.977564">
        <ele>40.571</ele>
        <time>2021-06-16T10:00:04Z</time>
      </trkpt>
      <trkpt lat="36.758851" lon="-2.977857">
        <ele>39.765</ele>
        <time>2021-06-16T10:00:06Z</time>
      </trkpt>
      <trkpt lat="36.758753" lon="-2.97812">
        <ele>39.324</ele>
        <time>2021-06-16T10:00:08Z</time>
      </trkpt>
      <trkpt lat="36.758707" lon="-2.978252">
        <ele>39.047</ele>
        <time>2021-06-16T10:00:09Z</time>
      </trkpt>
      <trkpt lat="36.758666" lon="-2.97838">
        <ele>38.424</ele>
        <time>2021-06-16T10:00:10Z</time>
      </trkpt>
      <trkpt lat="36.758627" lon="-2.978502">
        <ele>38.461</ele>
        <time>2021-06-16T10:00:11Z</time>
      </trkpt>
      <trkpt lat="36.758573" lon="-2.978754">
        <ele>37.811</ele>
        <time>2021-06-16T10:00:13Z</time>
      </trkpt>
      <trkpt lat="36.758547" lon="-2.979009">
        <ele>37.056</ele>
        <time>2021-06-16T10:00:15Z</time>
      </trkpt>
      <trkpt lat="36.758542" lon="-2.979135">
        <ele>36.359</ele>
        <time>2021-06-16T10:00:16Z</time>
      </trkpt>
      <trkpt lat="36.758524" lon="-2.979393">
        <ele>35.414</ele>
        <time>2021-06-16T10:00:18Z</time>
      </trkpt>
      <trkpt lat="36.758508" lon="-2.979531">
        <ele>34.608</ele>
        <time>2021-06-16T10:00:19Z</time>
      </trkpt>
      <trkpt lat="36.758488" lon="-2.979672">
        <ele>34.572</ele>
        <time>2021-06-16T10:00:20Z</time>
      </trkpt>
      <trkpt lat="36.75848" lon="-2.979976">
        <ele>34.450</ele>
        <time>2021-06-16T10:00:22Z</time>
      </trkpt>
      <trkpt lat="36.758501" lon="-2.980285">
        <ele>34.564</ele>
        <time>2021-06-16T10:00:24Z</time>
      </trkpt>
      <trkpt lat="36.758521" lon="-2.98044">
        <ele>34.083</ele>
        <time>2021-06-16T10:00:25Z</time>
      </trkpt>
      <trkpt lat="36.758586" lon="-2.980741">
        <ele>34.076</ele>
        <time>2021-06-16T10:00:27Z</time>
      </trkpt>
      <trkpt lat="36.758623" lon="-2.980882">
        <ele>34.023</ele>
        <time>2021-06-16T10:00:28Z</time>
      </trkpt>
      <trkpt lat="36.758667" lon="-2.981016">
        <ele>34.040</ele>
        <time>2021-06-16T10:00:29Z</time>
      </trkpt>
      <trkpt lat="36.758786" lon="-2.98127">
        <ele>33.860</ele>
        <time>2021-06-16T10:00:31Z</time>
      </trkpt>
      <trkpt lat="36.758865" lon="-2.981391">
        <ele>33.744</ele>
        <time>2021-06-16T10:00:32Z</time>
      </trkpt>
      <trkpt lat="36.759044" lon="-2.981611">
        <ele>33.505</ele>
        <time>2021-06-16T10:00:34Z</time>
      </trkpt>
      <trkpt lat="36.759136" lon="-2.981718">
        <ele>33.415</ele>
        <time>2021-06-16T10:00:35Z</time>
      </trkpt>
      <trkpt lat="36.759228" lon="-2.981819">
        <ele>33.208</ele>
        <time>2021-06-16T10:00:36Z</time>
      </trkpt>
      <trkpt lat="36.759407" lon="-2.982018">
        <ele>33.021</ele>
        <time>2021-06-16T10:00:38Z</time>
      </trkpt>
      <trkpt lat="36.759578" lon="-2.982217">
        <ele>33.139</ele>
        <time>2021-06-16T10:00:40Z</time>
      </trkpt>
      <trkpt lat="36.759733" lon="-2.982397">
        <ele>33.143</ele>
        <time>2021-06-16T10:00:42Z</time>
      </trkpt>
      <trkpt lat="36.759871" lon="-2.982529">
        <ele>33.612</ele>
        <time>2021-06-16T10:00:44Z</time>
      </trkpt>
      <trkpt lat="36.759932" lon="-2.982584">
        <ele>34.375</ele>
        <time>2021-06-16T10:00:45Z</time>
      </trkpt>
      <trkpt lat="36.760045" lon="-2.982686">
        <ele>34.872</ele>
        <time>2021-06-16T10:00:47Z</time>
      </trkpt>
      <trkpt lat="36.760084" lon="-2.982768">
        <ele>35.059</ele>
        <time>2021-06-16T10:00:48Z</time>
      </trkpt>
      <trkpt lat="36.760083" lon="-2.982975">
        <ele>34.999</ele>
        <time>2021-06-16T10:00:50Z</time>
      </trkpt>
      <trkpt lat="36.760049" lon="-2.983081">
        <ele>34.785</ele>
        <time>2021-06-16T10:00:51Z</time>
      </trkpt>
      <trkpt lat="36.75994" lon="-2.983287">
        <ele>34.489</ele>
        <time>2021-06-16T10:00:53Z</time>
      </trkpt>
      <trkpt lat="36.759877" lon="-2.983393">
        <ele>34.617</ele>
        <time>2021-06-16T10:00:54Z</time>
      </trkpt>
      <trkpt lat="36.759758" lon="-2.983625">
        <ele>34.608</ele>
        <time>2021-06-16T10:00:56Z</time>
      </trkpt>
      <trkpt lat="36.759702" lon="-2.983754">
        <ele>34.395</ele>
        <time>2021-06-16T10:00:57Z</time>
      </trkpt>
      <trkpt lat="36.75958" lon="-2.984025">
        <ele>34.693</ele>
        <time>2021-06-16T10:00:59Z</time>
      </trkpt>
      <trkpt lat="36.75943" lon="-2.98429">
        <ele>34.837</ele>
        <time>2021-06-16T10:01:01Z</time>
      </trkpt>
      <trkpt lat="36.759354" lon="-2.984419">
        <ele>35.166</ele>
        <time>2021-06-16T10:01:02Z</time>
      </trkpt>
      <trkpt lat="36.759278" lon="-2.984548">
        <ele>35.739</ele>
        <time>2021-06-16T10:01:03Z</time>
      </trkpt>
      <trkpt lat="36.759204" lon="-2.98468">
        <ele>35.916</ele>
        <time>2021-06-16T10:01:04Z</time>
      </trkpt>
      <trkpt lat="36.75913" lon="-2.984814">
        <ele>36.553</ele>
        <time>2021-06-16T10:01:05Z</time>
      </trkpt>
      <trkpt lat="36.758981" lon="-2.985073">
        <ele>36.783</ele>
        <time>2021-06-16T10:01:07Z</time>
      </trkpt>
      <trkpt lat="36.758914" lon="-2.985205">
        <ele>37.095</ele>
        <time>2021-06-16T10:01:08Z</time>
      </trkpt>
      <trkpt lat="36.758854" lon="-2.985344">
        <ele>37.649</ele>
        <time>2021-06-16T10:01:09Z</time>
      </trkpt>
      <trkpt lat="36.7588" lon="-2.985485">
        <ele>37.823</ele>
        <time>2021-06-16T10:01:10Z</time>
      </trkpt>
      <trkpt lat="36.758703" lon="-2.985765">
        <ele>38.308</ele>
        <time>2021-06-16T10:01:12Z</time>
      </trkpt>
      <trkpt lat="36.758594" lon="-2.986033">
        <ele>38.696</ele>
        <time>2021-06-16T10:01:14Z</time>
      </trkpt>
      <trkpt lat="36.758459" lon="-2.986293">
        <ele>39.074</ele>
        <time>2021-06-16T10:01:16Z</time>
      </trkpt>
      <trkpt lat="36.758391" lon="-2.986413">
        <ele>39.028</ele>
        <time>2021-06-16T10:01:17Z</time>
      </trkpt>
      <trkpt lat="36.758317" lon="-2.986526">
        <ele>39.527</ele>
        <time>2021-06-16T10:01:18Z</time>
      </trkpt>
      <trkpt lat="36.758238" lon="-2.986636">
        <ele>40.050</ele>
        <time>2021-06-16T10:01:19Z</time>
      </trkpt>
      <trkpt lat="36.758092" lon="-2.986852">
        <ele>40.347</ele>
        <time>2021-06-16T10:01:21Z</time>
      </trkpt>
      <trkpt lat="36.757973" lon="-2.987033">
        <ele>40.474</ele>
        <time>2021-06-16T10:01:23Z</time>
      </trkpt>
      <trkpt lat="36.757875" lon="-2.987182">
        <ele>40.274</ele>
        <time>2021-06-16T10:01:25Z</time>
      </trkpt>
      <trkpt lat="36.757815" lon="-2.98725">
        <ele>40.313</ele>
        <time>2021-06-16T10:01:26Z</time>
      </trkpt>
      <trkpt lat="36.757674" lon="-2.987325">
        <ele>40.143</ele>
        <time>2021-06-16T10:01:28Z</time>
      </trkpt>
      <trkpt lat="36.757594" lon="-2.987328">
        <ele>39.807</ele>
        <time>2021-06-16T10:01:29Z</time>
      </trkpt>
      <trkpt lat="36.757423" lon="-2.987328">
        <ele>39.308</ele>
        <time>2021-06-16T10:01:31Z</time>
      </trkpt>
      <trkpt lat="36.757234" lon="-2.987353">
        <ele>38.788</ele>
        <time>2021-06-16T10:01:33Z</time>
      </trkpt>
      <trkpt lat="36.757026" lon="-2.98739">
        <ele>37.956</ele>
        <time>2021-06-16T10:01:35Z</time>
      </trkpt>
      <trkpt lat="36.756805" lon="-2.987421">
        <ele>37.290</ele>
        <time>2021-06-16T10:01:37Z</time>
      </trkpt>
      <trkpt lat="36.756692" lon="-2.987438">
        <ele>36.689</ele>
        <time>2021-06-16T10:01:38Z</time>
      </trkpt>
      <trkpt lat="36.756468" lon="-2.987464">
        <ele>36.332</ele>
        <time>2021-06-16T10:01:40Z</time>
      </trkpt>
      <trkpt lat="36.75625" lon="-2.987491">
        <ele>36.129</ele>
        <time>2021-06-16T10:01:42Z</time>
      </trkpt>
      <trkpt lat="36.756142" lon="-2.987509">
        <ele>35.996</ele>
        <time>2021-06-16T10:01:43Z</time>
      </trkpt>
      <trkpt lat="36.755936" lon="-2.987535">
        <ele>34.816</ele>
        <time>2021-06-16T10:01:45Z</time>
      </trkpt>
      <trkpt lat="36.755835" lon="-2.987547">
        <ele>33.966</ele>
        <time>2021-06-16T10:01:46Z</time>
      </trkpt>
      <trkpt lat="36.755729" lon="-2.987562">
        <ele>32.829</ele>
        <time>2021-06-16T10:01:47Z</time>
      </trkpt>
      <trkpt lat="36.755624" lon="-2.98758">
        <ele>32.121</ele>
        <time>2021-06-16T10:01:48Z</time>
      </trkpt>
      <trkpt lat="36.755413" lon="-2.987617">
        <ele>31.608</ele>
        <time>2021-06-16T10:01:50Z</time>
      </trkpt>
      <trkpt lat="36.755192" lon="-2.987655">
        <ele>31.413</ele>
        <time>2021-06-16T10:01:52Z</time>
      </trkpt>
      <trkpt lat="36.75497" lon="-2.987681">
        <ele>30.591</ele>
        <time>2021-06-16T10:01:54Z</time>
      </trkpt>
      <trkpt lat="36.754858" lon="-2.987693">
        <ele>29.515</ele>
        <time>2021-06-16T10:01:55Z</time>
      </trkpt>
      <trkpt lat="36.754631" lon="-2.987719">
        <ele>27.874</ele>
        <time>2021-06-16T10:01:57Z</time>
      </trkpt>
      <trkpt lat="36.754514" lon="-2.987735">
        <ele>26.917</ele>
        <time>2021-06-16T10:01:58Z</time>
      </trkpt>
      <trkpt lat="36.754283" lon="-2.987771">
        <ele>25.974</ele>
        <time>2021-06-16T10:02:00Z</time>
      </trkpt>
      <trkpt lat="36.75417" lon="-2.987787">
        <ele>25.071</ele>
        <time>2021-06-16T10:02:01Z</time>
      </trkpt>
      <trkpt lat="36.75406" lon="-2.987808">
        <ele>24.331</ele>
        <time>2021-06-16T10:02:02Z</time>
      </trkpt>
      <trkpt lat="36.753844" lon="-2.987901">
        <ele>23.152</ele>
        <time>2021-06-16T10:02:04Z</time>
      </trkpt>
      <trkpt lat="36.753742" lon="-2.987976">
        <ele>22.453</ele>
        <time>2021-06-16T10:02:05Z</time>
      </trkpt>
      <trkpt lat="36.753546" lon="-2.988119">
        <ele>21.208</ele>
        <time>2021-06-16T10:02:07Z</time>
      </trkpt>
      <trkpt lat="36.753331" lon="-2.988227">
        <ele>19.708</ele>
        <time>2021-06-16T10:02:09Z</time>
      </trkpt>
      <trkpt lat="36.75322" lon="-2.988296">
        <ele>19.152</ele>
        <time>2021-06-16T10:02:10Z</time>
      </trkpt>
      <trkpt lat="36.753051" lon="-2.988515">
        <ele>18.760</ele>
        <time>2021-06-16T10:02:12Z</time>
      </trkpt>
      <trkpt lat="36.752983" lon="-2.988656">
        <ele>18.264</ele>
        <time>2021-06-16T10:02:13Z</time>
      </trkpt>
      <trkpt lat="36.752851" lon="-2.988956">
        <ele>18.253</ele>
        <time>2021-06-16T10:02:15Z</time>
      </trkpt>
      <trkpt lat="36.752798" lon="-2.989115">
        <ele>18.046</ele>
        <time>2021-06-16T10:02:16Z</time>
      </trkpt>
      <trkpt lat="36.752681" lon="-2.989433">
        <ele>17.623</ele>
        <time>2021-06-16T10:02:18Z</time>
      </trkpt>
      <trkpt lat="36.752621" lon="-2.989581">
        <ele>17.230</ele>
        <time>2021-06-16T10:02:19Z</time>
      </trkpt>
      <trkpt lat="36.752492" lon="-2.989864">
        <ele>17.270</ele>
        <time>2021-06-16T10:02:21Z</time>
      </trkpt>
      <trkpt lat="36.752432" lon="-2.990011">
        <ele>16.931</ele>
        <time>2021-06-16T10:02:22Z</time>
      </trkpt>
      <trkpt lat="36.752332" lon="-2.990306">
        <ele>16.861</ele>
        <time>2021-06-16T10:02:24Z</time>
      </trkpt>
      <trkpt lat="36.752287" lon="-2.990449">
        <ele>16.607</ele>
        <time>2021-06-16T10:02:25Z</time>
      </trkpt>
      <trkpt lat="36.752197" lon="-2.99075">
        <ele>16.208</ele>
        <time>2021-06-16T10:02:27Z</time>
      </trkpt>
      <trkpt lat="36.752153" lon="-2.990906">
        <ele>16.050</ele>
        <time>2021-06-16T10:02:28Z</time>
      </trkpt>
      <trkpt lat="36.752066" lon="-2.991215">
        <ele>15.868</ele>
        <time>2021-06-16T10:02:30Z</time>
      </trkpt>
      <trkpt lat="36.751979" lon="-2.991529">
        <ele>15.972</ele>
        <time>2021-06-16T10:02:32Z</time>
      </trkpt>
      <trkpt lat="36.751938" lon="-2.991684">
        <ele>15.861</ele>
        <time>2021-06-16T10:02:33Z</time>
      </trkpt>
      <trkpt lat="36.751855" lon="-2.991981">
        <ele>15.944</ele>
        <time>2021-06-16T10:02:35Z</time>
      </trkpt>
      <trkpt lat="36.751769" lon="-2.992266">
        <ele>16.811</ele>
        <time>2021-06-16T10:02:37Z</time>
      </trkpt>
      <trkpt lat="36.751687" lon="-2.992552">
        <ele>17.078</ele>
        <time>2021-06-16T10:02:39Z</time>
      </trkpt>
      <trkpt lat="36.751611" lon="-2.992822">
        <ele>16.928</ele>
        <time>2021-06-16T10:02:41Z</time>
      </trkpt>
      <trkpt lat="36.751579" lon="-2.992948">
        <ele>17.055</ele>
        <time>2021-06-16T10:02:42Z</time>
      </trkpt>
      <trkpt lat="36.751522" lon="-2.99318">
        <ele>17.207</ele>
        <time>2021-06-16T10:02:44Z</time>
      </trkpt>
      <trkpt lat="36.751509" lon="-2.993302">
        <ele>17.717</ele>
        <time>2021-06-16T10:02:45Z</time>
      </trkpt>
      <trkpt lat="36.751503" lon="-2.993426">
        <ele>18.108</ele>
        <time>2021-06-16T10:02:46Z</time>
      </trkpt>
      <trkpt lat="36.751488" lon="-2.993541">
        <ele>18.332</ele>
        <time>2021-06-16T10:02:47Z</time>
      </trkpt>
      <trkpt lat="36.7514" lon="-2.99373">
        <ele>18.650</ele>
        <time>2021-06-16T10:02:49Z</time>
      </trkpt>
      <trkpt lat="36.751238" lon="-2.993863">
        <ele>19.114</ele>
        <time>2021-06-16T10:02:51Z</time>
      </trkpt>
      <trkpt lat="36.751153" lon="-2.993942">
        <ele>19.883</ele>
        <time>2021-06-16T10:02:52Z</time>
      </trkpt>
      <trkpt lat="36.75102" lon="-2.99416">
        <ele>20.516</ele>
        <time>2021-06-16T10:02:54Z</time>
      </trkpt>
      <trkpt lat="36.750908" lon="-2.99441">
        <ele>20.863</ele>
        <time>2021-06-16T10:02:56Z</time>
      </trkpt>
      <trkpt lat="36.750849" lon="-2.994539">
        <ele>21.180</ele>
        <time>2021-06-16T10:02:57Z</time>
      </trkpt>
      <trkpt lat="36.750719" lon="-2.994795">
        <ele>21.730</ele>
        <time>2021-06-16T10:02:59Z</time>
      </trkpt>
      <trkpt lat="36.75065" lon="-2.994923">
        <ele>21.993</ele>
        <time>2021-06-16T10:03:00Z</time>
      </trkpt>
      <trkpt lat="36.750505" lon="-2.995172">
        <ele>22.465</ele>
        <time>2021-06-16T10:03:02Z</time>
      </trkpt>
      <trkpt lat="36.750424" lon="-2.995294">
        <ele>22.821</ele>
        <time>2021-06-16T10:03:03Z</time>
      </trkpt>
      <trkpt lat="36.750263" lon="-2.995541">
        <ele>23.308</ele>
        <time>2021-06-16T10:03:05Z</time>
      </trkpt>
      <trkpt lat="36.750183" lon="-2.995668">
        <ele>23.826</ele>
        <time>2021-06-16T10:03:06Z</time>
      </trkpt>
      <trkpt lat="36.750022" lon="-2.995915">
        <ele>23.944</ele>
        <time>2021-06-16T10:03:08Z</time>
      </trkpt>
      <trkpt lat="36.74994" lon="-2.996038">
        <ele>24.188</ele>
        <time>2021-06-16T10:03:09Z</time>
      </trkpt>
      <trkpt lat="36.74986" lon="-2.99616">
        <ele>24.587</ele>
        <time>2021-06-16T10:03:10Z</time>
      </trkpt>
      <trkpt lat="36.749783" lon="-2.996282">
        <ele>24.830</ele>
        <time>2021-06-16T10:03:11Z</time>
      </trkpt>
      <trkpt lat="36.749622" lon="-2.99653">
        <ele>25.217</ele>
        <time>2021-06-16T10:03:13Z</time>
      </trkpt>
      <trkpt lat="36.749464" lon="-2.996779">
        <ele>25.324</ele>
        <time>2021-06-16T10:03:15Z</time>
      </trkpt>
      <trkpt lat="36.749386" lon="-2.996908">
        <ele>25.034</ele>
        <time>2021-06-16T10:03:16Z</time>
      </trkpt>
      <trkpt lat="36.74922" lon="-2.997168">
        <ele>24.796</ele>
        <time>2021-06-16T10:03:18Z</time>
      </trkpt>
      <trkpt lat="36.749137" lon="-2.997298">
        <ele>24.631</ele>
        <time>2021-06-16T10:03:19Z</time>
      </trkpt>
      <trkpt lat="36.748972" lon="-2.997554">
        <ele>23.924</ele>
        <time>2021-06-16T10:03:21Z</time>
      </trkpt>
      <trkpt lat="36.748888" lon="-2.997678">
        <ele>23.808</ele>
        <time>2021-06-16T10:03:22Z</time>
      </trkpt>
      <trkpt lat="36.748809" lon="-2.997798">
        <ele>23.976</ele>
        <time>2021-06-16T10:03:23Z</time>
      </trkpt>
      <trkpt lat="36.748664" lon="-2.998024">
        <ele>23.734</ele>
        <time>2021-06-16T10:03:25Z</time>
      </trkpt>
      <trkpt lat="36.748593" lon="-2.99813">
        <ele>23.418</ele>
        <time>2021-06-16T10:03:26Z</time>
      </trkpt>
      <trkpt lat="36.748521" lon="-2.998238">
        <ele>23.397</ele>
        <time>2021-06-16T10:03:27Z</time>
      </trkpt>
      <trkpt lat="36.748445" lon="-2.998351">
        <ele>23.580</ele>
        <time>2021-06-16T10:03:28Z</time>
      </trkpt>
      <trkpt lat="36.748292" lon="-2.998592">
        <ele>23.467</ele>
        <time>2021-06-16T10:03:30Z</time>
      </trkpt>
      <trkpt lat="36.748214" lon="-2.998713">
        <ele>23.084</ele>
        <time>2021-06-16T10:03:31Z</time>
      </trkpt>
      <trkpt lat="36.748138" lon="-2.998835">
        <ele>22.594</ele>
        <time>2021-06-16T10:03:32Z</time>
      </trkpt>
      <trkpt lat="36.747979" lon="-2.999076">
        <ele>22.215</ele>
        <time>2021-06-16T10:03:34Z</time>
      </trkpt>
      <trkpt lat="36.747902" lon="-2.999197">
        <ele>21.965</ele>
        <time>2021-06-16T10:03:35Z</time>
      </trkpt>
      <trkpt lat="36.747757" lon="-2.99943">
        <ele>21.711</ele>
        <time>2021-06-16T10:03:37Z</time>
      </trkpt>
      <trkpt lat="36.7477" lon="-2.999652">
        <ele>20.708</ele>
        <time>2021-06-16T10:03:39Z</time>
      </trkpt>
      <trkpt lat="36.747733" lon="-2.999898">
        <ele>19.748</ele>
        <time>2021-06-16T10:03:41Z</time>
      </trkpt>
      <trkpt lat="36.747743" lon="-3.000145">
        <ele>19.156</ele>
        <time>2021-06-16T10:03:43Z</time>
      </trkpt>
      <trkpt lat="36.747678" lon="-3.000368">
        <ele>18.850</ele>
        <time>2021-06-16T10:03:45Z</time>
      </trkpt>
      <trkpt lat="36.747642" lon="-3.000601">
        <ele>18.669</ele>
        <time>2021-06-16T10:03:47Z</time>
      </trkpt>
      <trkpt lat="36.747669" lon="-3.00085">
        <ele>18.442</ele>
        <time>2021-06-16T10:03:49Z</time>
      </trkpt>
      <trkpt lat="36.747731" lon="-3.001113">
        <ele>18.399</ele>
        <time>2021-06-16T10:03:51Z</time>
      </trkpt>
      <trkpt lat="36.747753" lon="-3.001245">
        <ele>18.116</ele>
        <time>2021-06-16T10:03:52Z</time>
      </trkpt>
      <trkpt lat="36.747772" lon="-3.001372">
        <ele>17.936</ele>
        <time>2021-06-16T10:03:53Z</time>
      </trkpt>
      <trkpt lat="36.747786" lon="-3.001491">
        <ele>18.164</ele>
        <time>2021-06-16T10:03:54Z</time>
      </trkpt>
      <trkpt lat="36.747803" lon="-3.00161">
        <ele>18.006</ele>
        <time>2021-06-16T10:03:55Z</time>
      </trkpt>
      <trkpt lat="36.747821" lon="-3.001737">
        <ele>17.516</ele>
        <time>2021-06-16T10:03:56Z</time>
      </trkpt>
      <trkpt lat="36.747857" lon="-3.001981">
        <ele>17.308</ele>
        <time>2021-06-16T10:03:58Z</time>
      </trkpt>
      <trkpt lat="36.747896" lon="-3.002199">
        <ele>16.763</ele>
        <time>2021-06-16T10:04:00Z</time>
      </trkpt>
      <trkpt lat="36.747921" lon="-3.002398">
        <ele>16.951</ele>
        <time>2021-06-16T10:04:02Z</time>
      </trkpt>
      <trkpt lat="36.747936" lon="-3.002501">
        <ele>16.835</ele>
        <time>2021-06-16T10:04:03Z</time>
      </trkpt>
      <trkpt lat="36.747972" lon="-3.002706">
        <ele>16.774</ele>
        <time>2021-06-16T10:04:05Z</time>
      </trkpt>
      <trkpt lat="36.748007" lon="-3.002912">
        <ele>17.157</ele>
        <time>2021-06-16T10:04:07Z</time>
      </trkpt>
      <trkpt lat="36.748022" lon="-3.003027">
        <ele>17.534</ele>
        <time>2021-06-16T10:04:08Z</time>
      </trkpt>
      <trkpt lat="36.748034" lon="-3.003144">
        <ele>17.741</ele>
        <time>2021-06-16T10:04:09Z</time>
      </trkpt>
      <trkpt lat="36.748067" lon="-3.003392">
        <ele>18.481</ele>
        <time>2021-06-16T10:04:11Z</time>
      </trkpt>
      <trkpt lat="36.748107" lon="-3.003632">
        <ele>18.654</ele>
        <time>2021-06-16T10:04:13Z</time>
      </trkpt>
      <trkpt lat="36.748118" lon="-3.003748">
        <ele>18.956</ele>
        <time>2021-06-16T10:04:14Z</time>
      </trkpt>
      <trkpt lat="36.748156" lon="-3.003981">
        <ele>19.411</ele>
        <time>2021-06-16T10:04:16Z</time>
      </trkpt>
      <trkpt lat="36.748199" lon="-3.004201">
        <ele>19.908</ele>
        <time>2021-06-16T10:04:18Z</time>
      </trkpt>
      <trkpt lat="36.748245" lon="-3.004428">
        <ele>19.432</ele>
        <time>2021-06-16T10:04:20Z</time>
      </trkpt>
      <trkpt lat="36.748289" lon="-3.004668">
        <ele>20.090</ele>
        <time>2021-06-16T10:04:22Z</time>
      </trkpt>
      <trkpt lat="36.748306" lon="-3.004781">
        <ele>19.874</ele>
        <time>2021-06-16T10:04:23Z</time>
      </trkpt>
      <trkpt lat="36.748321" lon="-3.004892">
        <ele>19.843</ele>
        <time>2021-06-16T10:04:24Z</time>
      </trkpt>
      <trkpt lat="36.748369" lon="-3.005139">
        <ele>19.656</ele>
        <time>2021-06-16T10:04:26Z</time>
      </trkpt>
      <trkpt lat="36.748384" lon="-3.005264">
        <ele>19.693</ele>
        <time>2021-06-16T10:04:27Z</time>
      </trkpt>
      <trkpt lat="36.748423" lon="-3.005527">
        <ele>19.540</ele>
        <time>2021-06-16T10:04:29Z</time>
      </trkpt>
      <trkpt lat="36.748452" lon="-3.005785">
        <ele>19.580</ele>
        <time>2021-06-16T10:04:31Z</time>
      </trkpt>
      <trkpt lat="36.748471" lon="-3.0059">
        <ele>19.772</ele>
        <time>2021-06-16T10:04:32Z</time>
      </trkpt>
      <trkpt lat="36.748504" lon="-3.006109">
        <ele>19.613</ele>
        <time>2021-06-16T10:04:34Z</time>
      </trkpt>
      <trkpt lat="36.748517" lon="-3.006216">
        <ele>19.714</ele>
        <time>2021-06-16T10:04:35Z</time>
      </trkpt>
      <trkpt lat="36.748544" lon="-3.006411">
        <ele>20.408</ele>
        <time>2021-06-16T10:04:37Z</time>
      </trkpt>
      <trkpt lat="36.748558" lon="-3.006502">
        <ele>20.944</ele>
        <time>2021-06-16T10:04:38Z</time>
      </trkpt>
      <trkpt lat="36.748576" lon="-3.006671">
        <ele>20.882</ele>
        <time>2021-06-16T10:04:40Z</time>
      </trkpt>
      <trkpt lat="36.748577" lon="-3.006751">
        <ele>20.856</ele>
        <time>2021-06-16T10:04:41Z</time>
      </trkpt>
      <trkpt lat="36.748606" lon="-3.00688">
        <ele>20.895</ele>
        <time>2021-06-16T10:04:43Z</time>
      </trkpt>
      <trkpt lat="36.748658" lon="-3.007001">
        <ele>20.838</ele>
        <time>2021-06-16T10:04:45Z</time>
      </trkpt>
      <trkpt lat="36.748696" lon="-3.007057">
        <ele>20.955</ele>
        <time>2021-06-16T10:04:46Z</time>
      </trkpt>
      <trkpt lat="36.748737" lon="-3.007111">
        <ele>20.382</ele>
        <time>2021-06-16T10:04:47Z</time>
      </trkpt>
      <trkpt lat="36.74879" lon="-3.007227">
        <ele>19.722</ele>
        <time>2021-06-16T10:04:49Z</time>
      </trkpt>
      <trkpt lat="36.748786" lon="-3.007298">
        <ele>19.543</ele>
        <time>2021-06-16T10:04:50Z</time>
      </trkpt>
      <trkpt lat="36.748764" lon="-3.00737">
        <ele>18.864</ele>
        <time>2021-06-16T10:04:51Z</time>
      </trkpt>
      <trkpt lat="36.748724" lon="-3.007537">
        <ele>18.110</ele>
        <time>2021-06-16T10:04:53Z</time>
      </trkpt>
      <trkpt lat="36.748728" lon="-3.00773">
        <ele>17.208</ele>
        <time>2021-06-16T10:04:55Z</time>
      </trkpt>
      <trkpt lat="36.748742" lon="-3.007819">
        <ele>16.761</ele>
        <time>2021-06-16T10:04:56Z</time>
      </trkpt>
      <trkpt lat="36.748758" lon="-3.0079">
        <ele>16.579</ele>
        <time>2021-06-16T10:04:57Z</time>
      </trkpt>
      <trkpt lat="36.748784" lon="-3.008046">
        <ele>16.843</ele>
        <time>2021-06-16T10:04:59Z</time>
      </trkpt>
      <trkpt lat="36.748804" lon="-3.00819">
        <ele>17.852</ele>
        <time>2021-06-16T10:05:01Z</time>
      </trkpt>
      <trkpt lat="36.748831" lon="-3.008335">
        <ele>18.945</ele>
        <time>2021-06-16T10:05:03Z</time>
      </trkpt>
      <trkpt lat="36.748868" lon="-3.008491">
        <ele>19.122</ele>
        <time>2021-06-16T10:05:05Z</time>
      </trkpt>
      <trkpt lat="36.74888" lon="-3.008602">
        <ele>19.419</ele>
        <time>2021-06-16T10:05:07Z</time>
      </trkpt>
      <trkpt lat="36.748833" lon="-3.008618">
        <ele>18.649</ele>
        <time>2021-06-16T10:05:09Z</time>
      </trkpt>
      <trkpt lat="36.748783" lon="-3.008546">
        <ele>17.925</ele>
        <time>2021-06-16T10:05:11Z</time>
      </trkpt>
      <trkpt lat="36.748771" lon="-3.008481">
        <ele>16.926</ele>
        <time>2021-06-16T10:05:12Z</time>
      </trkpt>
      <trkpt lat="36.748747" lon="-3.008312">
        <ele>16.708</ele>
        <time>2021-06-16T10:05:14Z</time>
      </trkpt>
      <trkpt lat="36.748719" lon="-3.008135">
        <ele>17.108</ele>
        <time>2021-06-16T10:05:16Z</time>
      </trkpt>
      <trkpt lat="36.74872" lon="-3.00804">
        <ele>17.529</ele>
        <time>2021-06-16T10:05:17Z</time>
      </trkpt>
      <trkpt lat="36.748687" lon="-3.007853">
        <ele>17.587</ele>
        <time>2021-06-16T10:05:19Z</time>
      </trkpt>
      <trkpt lat="36.748654" lon="-3.007689">
        <ele>17.861</ele>
        <time>2021-06-16T10:05:21Z</time>
      </trkpt>
      <trkpt lat="36.748634" lon="-3.007531">
        <ele>18.040</ele>
        <time>2021-06-16T10:05:23Z</time>
      </trkpt>
      <trkpt lat="36.748623" lon="-3.007413">
        <ele>18.273</ele>
        <time>2021-06-16T10:05:25Z</time>
      </trkpt>
      <trkpt lat="36.748598" lon="-3.007298">
        <ele>18.650</ele>
        <time>2021-06-16T10:05:27Z</time>
      </trkpt>
      <trkpt lat="36.748591" lon="-3.007231">
        <ele>18.447</ele>
        <time>2021-06-16T10:05:28Z</time>
      </trkpt>
      <trkpt lat="36.748622" lon="-3.007117">
        <ele>18.377</ele>
        <time>2021-06-16T10:05:30Z</time>
      </trkpt>
      <trkpt lat="36.74868" lon="-3.007081">
        <ele>18.053</ele>
        <time>2021-06-16T10:05:32Z</time>
      </trkpt>
      <trkpt lat="36.748759" lon="-3.007095">
        <ele>17.804</ele>
        <time>2021-06-16T10:05:33Z</time>
      </trkpt>
      <trkpt lat="36.748935" lon="-3.00715">
        <ele>17.214</ele>
        <time>2021-06-16T10:05:35Z</time>
      </trkpt>
      <trkpt lat="36.749133" lon="-3.007173">
        <ele>16.808</ele>
        <time>2021-06-16T10:05:37Z</time>
      </trkpt>
      <trkpt lat="36.749342" lon="-3.007165">
        <ele>16.882</ele>
        <time>2021-06-16T10:05:39Z</time>
      </trkpt>
      <trkpt lat="36.749553" lon="-3.007148">
        <ele>17.530</ele>
        <time>2021-06-16T10:05:41Z</time>
      </trkpt>
      <trkpt lat="36.749773" lon="-3.007133">
        <ele>18.564</ele>
        <time>2021-06-16T10:05:43Z</time>
      </trkpt>
      <trkpt lat="36.749987" lon="-3.007098">
        <ele>19.323</ele>
        <time>2021-06-16T10:05:45Z</time>
      </trkpt>
      <trkpt lat="36.750094" lon="-3.007073">
        <ele>19.886</ele>
        <time>2021-06-16T10:05:46Z</time>
      </trkpt>
      <trkpt lat="36.750198" lon="-3.007045">
        <ele>19.923</ele>
        <time>2021-06-16T10:05:47Z</time>
      </trkpt>
      <trkpt lat="36.750415" lon="-3.006969">
        <ele>20.390</ele>
        <time>2021-06-16T10:05:49Z</time>
      </trkpt>
      <trkpt lat="36.750527" lon="-3.006919">
        <ele>20.830</ele>
        <time>2021-06-16T10:05:50Z</time>
      </trkpt>
      <trkpt lat="36.750752" lon="-3.006804">
        <ele>21.459</ele>
        <time>2021-06-16T10:05:52Z</time>
      </trkpt>
      <trkpt lat="36.750859" lon="-3.006733">
        <ele>21.703</ele>
        <time>2021-06-16T10:05:53Z</time>
      </trkpt>
      <trkpt lat="36.750962" lon="-3.006653">
        <ele>22.323</ele>
        <time>2021-06-16T10:05:54Z</time>
      </trkpt>
      <trkpt lat="36.75106" lon="-3.006569">
        <ele>23.108</ele>
        <time>2021-06-16T10:05:55Z</time>
      </trkpt>
      <trkpt lat="36.751155" lon="-3.006481">
        <ele>23.612</ele>
        <time>2021-06-16T10:05:56Z</time>
      </trkpt>
      <trkpt lat="36.751325" lon="-3.00627">
        <ele>23.750</ele>
        <time>2021-06-16T10:05:58Z</time>
      </trkpt>
      <trkpt lat="36.751479" lon="-3.006043">
        <ele>23.434</ele>
        <time>2021-06-16T10:06:00Z</time>
      </trkpt>
      <trkpt lat="36.751622" lon="-3.0058">
        <ele>22.913</ele>
        <time>2021-06-16T10:06:02Z</time>
      </trkpt>
      <trkpt lat="36.751695" lon="-3.005675">
        <ele>22.656</ele>
        <time>2021-06-16T10:06:03Z</time>
      </trkpt>
      <trkpt lat="36.751843" lon="-3.005433">
        <ele>22.653</ele>
        <time>2021-06-16T10:06:05Z</time>
      </trkpt>
      <trkpt lat="36.751921" lon="-3.005313">
        <ele>22.660</ele>
        <time>2021-06-16T10:06:06Z</time>
      </trkpt>
      <trkpt lat="36.751999" lon="-3.005202">
        <ele>22.560</ele>
        <time>2021-06-16T10:06:07Z</time>
      </trkpt>
      <trkpt lat="36.752083" lon="-3.005098">
        <ele>22.678</ele>
        <time>2021-06-16T10:06:08Z</time>
      </trkpt>
      <trkpt lat="36.752278" lon="-3.004879">
        <ele>23.033</ele>
        <time>2021-06-16T10:06:10Z</time>
      </trkpt>
      <trkpt lat="36.75238" lon="-3.004774">
        <ele>23.826</ele>
        <time>2021-06-16T10:06:11Z</time>
      </trkpt>
      <trkpt lat="36.752584" lon="-3.004576">
        <ele>24.208</ele>
        <time>2021-06-16T10:06:13Z</time>
      </trkpt>
      <trkpt lat="36.752689" lon="-3.004477">
        <ele>24.954</ele>
        <time>2021-06-16T10:06:14Z</time>
      </trkpt>
      <trkpt lat="36.752795" lon="-3.004382">
        <ele>25.482</ele>
        <time>2021-06-16T10:06:15Z</time>
      </trkpt>
      <trkpt lat="36.753005" lon="-3.004198">
        <ele>25.896</ele>
        <time>2021-06-16T10:06:17Z</time>
      </trkpt>
      <trkpt lat="36.753103" lon="-3.004108">
        <ele>26.745</ele>
        <time>2021-06-16T10:06:18Z</time>
      </trkpt>
      <trkpt lat="36.753291" lon="-3.003932">
        <ele>27.128</ele>
        <time>2021-06-16T10:06:20Z</time>
      </trkpt>
      <trkpt lat="36.753466" lon="-3.003767">
        <ele>27.265</ele>
        <time>2021-06-16T10:06:22Z</time>
      </trkpt>
      <trkpt lat="36.753544" lon="-3.003692">
        <ele>27.852</ele>
        <time>2021-06-16T10:06:23Z</time>
      </trkpt>
      <trkpt lat="36.753663" lon="-3.003532">
        <ele>27.992</ele>
        <time>2021-06-16T10:06:25Z</time>
      </trkpt>
      <trkpt lat="36.753764" lon="-3.003359">
        <ele>27.715</ele>
        <time>2021-06-16T10:06:27Z</time>
      </trkpt>
      <trkpt lat="36.753837" lon="-3.003302">
        <ele>27.865</ele>
        <time>2021-06-16T10:06:28Z</time>
      </trkpt>
      <trkpt lat="36.75392" lon="-3.003276">
        <ele>27.811</ele>
        <time>2021-06-16T10:06:29Z</time>
      </trkpt>
      <trkpt lat="36.754092" lon="-3.003212">
        <ele>28.008</ele>
        <time>2021-06-16T10:06:31Z</time>
      </trkpt>
      <trkpt lat="36.75426" lon="-3.003067">
        <ele>28.178</ele>
        <time>2021-06-16T10:06:33Z</time>
      </trkpt>
      <trkpt lat="36.754347" lon="-3.002984">
        <ele>28.256</ele>
        <time>2021-06-16T10:06:34Z</time>
      </trkpt>
      <trkpt lat="36.754541" lon="-3.002824">
        <ele>28.590</ele>
        <time>2021-06-16T10:06:36Z</time>
      </trkpt>
      <trkpt lat="36.754642" lon="-3.002744">
        <ele>28.869</ele>
        <time>2021-06-16T10:06:37Z</time>
      </trkpt>
      <trkpt lat="36.754854" lon="-3.002577">
        <ele>29.272</ele>
        <time>2021-06-16T10:06:39Z</time>
      </trkpt>
      <trkpt lat="36.754961" lon="-3.002494">
        <ele>29.689</ele>
        <time>2021-06-16T10:06:40Z</time>
      </trkpt>
      <trkpt lat="36.75507" lon="-3.002415">
        <ele>29.626</ele>
        <time>2021-06-16T10:06:41Z</time>
      </trkpt>
      <trkpt lat="36.755282" lon="-3.002252">
        <ele>29.766</ele>
        <time>2021-06-16T10:06:43Z</time>
      </trkpt>
      <trkpt lat="36.755387" lon="-3.002173">
        <ele>30.093</ele>
        <time>2021-06-16T10:06:44Z</time>
      </trkpt>
      <trkpt lat="36.755605" lon="-3.002028">
        <ele>30.265</ele>
        <time>2021-06-16T10:06:46Z</time>
      </trkpt>
      <trkpt lat="36.755714" lon="-3.00196">
        <ele>30.621</ele>
        <time>2021-06-16T10:06:47Z</time>
      </trkpt>
      <trkpt lat="36.755953" lon="-3.001864">
        <ele>30.808</ele>
        <time>2021-06-16T10:06:49Z</time>
      </trkpt>
      <trkpt lat="36.756079" lon="-3.001826">
        <ele>31.396</ele>
        <time>2021-06-16T10:06:50Z</time>
      </trkpt>
      <trkpt lat="36.75632" lon="-3.001738">
        <ele>31.364</ele>
        <time>2021-06-16T10:06:52Z</time>
      </trkpt>
      <trkpt lat="36.756441" lon="-3.001692">
        <ele>31.668</ele>
        <time>2021-06-16T10:06:53Z</time>
      </trkpt>
      <trkpt lat="36.756565" lon="-3.001644">
        <ele>31.687</ele>
        <time>2021-06-16T10:06:54Z</time>
      </trkpt>
      <trkpt lat="36.756813" lon="-3.001539">
        <ele>31.370</ele>
        <time>2021-06-16T10:06:56Z</time>
      </trkpt>
      <trkpt lat="36.75693" lon="-3.001473">
        <ele>31.197</ele>
        <time>2021-06-16T10:06:57Z</time>
      </trkpt>
      <trkpt lat="36.757161" lon="-3.001335">
        <ele>31.054</ele>
        <time>2021-06-16T10:06:59Z</time>
      </trkpt>
      <trkpt lat="36.757274" lon="-3.001268">
        <ele>30.834</ele>
        <time>2021-06-16T10:07:00Z</time>
      </trkpt>
      <trkpt lat="36.757382" lon="-3.001199">
        <ele>30.935</ele>
        <time>2021-06-16T10:07:01Z</time>
      </trkpt>
      <trkpt lat="36.757485" lon="-3.001129">
        <ele>30.986</ele>
        <time>2021-06-16T10:07:02Z</time>
      </trkpt>
      <trkpt lat="36.757683" lon="-3.000997">
        <ele>30.414</ele>
        <time>2021-06-16T10:07:04Z</time>
      </trkpt>
      <trkpt lat="36.757858" lon="-3.000891">
        <ele>31.008</ele>
        <time>2021-06-16T10:07:06Z</time>
      </trkpt>
      <trkpt lat="36.757936" lon="-3.000836">
        <ele>31.210</ele>
        <time>2021-06-16T10:07:07Z</time>
      </trkpt>
      <trkpt lat="36.758005" lon="-3.000765">
        <ele>31.318</ele>
        <time>2021-06-16T10:07:08Z</time>
      </trkpt>
      <trkpt lat="36.758112" lon="-3.000581">
        <ele>31.562</ele>
        <time>2021-06-16T10:07:10Z</time>
      </trkpt>
      <trkpt lat="36.758163" lon="-3.000481">
        <ele>31.641</ele>
        <time>2021-06-16T10:07:11Z</time>
      </trkpt>
      <trkpt lat="36.758315" lon="-3.000356">
        <ele>31.414</ele>
        <time>2021-06-16T10:07:13Z</time>
      </trkpt>
      <trkpt lat="36.758498" lon="-3.000282">
        <ele>31.511</ele>
        <time>2021-06-16T10:07:15Z</time>
      </trkpt>
      <trkpt lat="36.758669" lon="-3.000157">
        <ele>31.868</ele>
        <time>2021-06-16T10:07:17Z</time>
      </trkpt>
      <trkpt lat="36.758826" lon="-3.00">
        <ele>32.148</ele>
        <time>2021-06-16T10:07:19Z</time>
      </trkpt>
      <trkpt lat="36.758883" lon="-2.999916">
        <ele>31.891</ele>
        <time>2021-06-16T10:07:20Z</time>
      </trkpt>
      <trkpt lat="36.758917" lon="-2.999822">
        <ele>31.981</ele>
        <time>2021-06-16T10:07:21Z</time>
      </trkpt>
      <trkpt lat="36.75893" lon="-2.999724">
        <ele>32.019</ele>
        <time>2021-06-16T10:07:22Z</time>
      </trkpt>
      <trkpt lat="36.758939" lon="-2.999623">
        <ele>32.108</ele>
        <time>2021-06-16T10:07:23Z</time>
      </trkpt>
      <trkpt lat="36.759009" lon="-2.999471">
        <ele>32.776</ele>
        <time>2021-06-16T10:07:25Z</time>
      </trkpt>
      <trkpt lat="36.759075" lon="-2.999444">
        <ele>33.134</ele>
        <time>2021-06-16T10:07:26Z</time>
      </trkpt>
      <trkpt lat="36.759201" lon="-2.999508">
        <ele>33.368</ele>
        <time>2021-06-16T10:07:28Z</time>
      </trkpt>
      <trkpt lat="36.759252" lon="-2.999685">
        <ele>33.297</ele>
        <time>2021-06-16T10:07:30Z</time>
      </trkpt>
      <trkpt lat="36.759197" lon="-2.999872">
        <ele>33.230</ele>
        <time>2021-06-16T10:07:32Z</time>
      </trkpt>
      <trkpt lat="36.759088" lon="-3.000034">
        <ele>32.967</ele>
        <time>2021-06-16T10:07:34Z</time>
      </trkpt>
      <trkpt lat="36.759051" lon="-3.000139">
        <ele>32.974</ele>
        <time>2021-06-16T10:07:35Z</time>
      </trkpt>
      <trkpt lat="36.75903" lon="-3.000262">
        <ele>33.294</ele>
        <time>2021-06-16T10:07:36Z</time>
      </trkpt>
      <trkpt lat="36.75902" lon="-3.000538">
        <ele>33.953</ele>
        <time>2021-06-16T10:07:38Z</time>
      </trkpt>
      <trkpt lat="36.759059" lon="-3.000846">
        <ele>34.804</ele>
        <time>2021-06-16T10:07:40Z</time>
      </trkpt>
      <trkpt lat="36.759083" lon="-3.001008">
        <ele>35.414</ele>
        <time>2021-06-16T10:07:41Z</time>
      </trkpt>
      <trkpt lat="36.759144" lon="-3.001338">
        <ele>36.408</ele>
        <time>2021-06-16T10:07:43Z</time>
      </trkpt>
      <trkpt lat="36.759187" lon="-3.001504">
        <ele>37.522</ele>
        <time>2021-06-16T10:07:44Z</time>
      </trkpt>
      <trkpt lat="36.759302" lon="-3.001833">
        <ele>39.030</ele>
        <time>2021-06-16T10:07:46Z</time>
      </trkpt>
      <trkpt lat="36.759436" lon="-3.002156">
        <ele>40.524</ele>
        <time>2021-06-16T10:07:48Z</time>
      </trkpt>
      <trkpt lat="36.759507" lon="-3.002322">
        <ele>41.483</ele>
        <time>2021-06-16T10:07:49Z</time>
      </trkpt>
      <trkpt lat="36.759651" lon="-3.002646">
        <ele>41.986</ele>
        <time>2021-06-16T10:07:51Z</time>
      </trkpt>
      <trkpt lat="36.759721" lon="-3.002811">
        <ele>42.623</ele>
        <time>2021-06-16T10:07:52Z</time>
      </trkpt>
      <trkpt lat="36.759794" lon="-3.002976">
        <ele>43.330</ele>
        <time>2021-06-16T10:07:53Z</time>
      </trkpt>
      <trkpt lat="36.759873" lon="-3.003138">
        <ele>43.770</ele>
        <time>2021-06-16T10:07:54Z</time>
      </trkpt>
      <trkpt lat="36.760033" lon="-3.003462">
        <ele>44.877</ele>
        <time>2021-06-16T10:07:56Z</time>
      </trkpt>
      <trkpt lat="36.760199" lon="-3.003794">
        <ele>46.661</ele>
        <time>2021-06-16T10:07:58Z</time>
      </trkpt>
      <trkpt lat="36.760376" lon="-3.004135">
        <ele>48.527</ele>
        <time>2021-06-16T10:08:00Z</time>
      </trkpt>
      <trkpt lat="36.760467" lon="-3.004306">
        <ele>49.708</ele>
        <time>2021-06-16T10:08:01Z</time>
      </trkpt>
      <trkpt lat="36.760557" lon="-3.004477">
        <ele>51.084</ele>
        <time>2021-06-16T10:08:02Z</time>
      </trkpt>
      <trkpt lat="36.760729" lon="-3.004831">
        <ele>52.352</ele>
        <time>2021-06-16T10:08:04Z</time>
      </trkpt>
      <trkpt lat="36.760813" lon="-3.00501">
        <ele>53.256</ele>
        <time>2021-06-16T10:08:05Z</time>
      </trkpt>
      <trkpt lat="36.760967" lon="-3.005372">
        <ele>54.815</ele>
        <time>2021-06-16T10:08:07Z</time>
      </trkpt>
      <trkpt lat="36.7611" lon="-3.005747">
        <ele>56.378</ele>
        <time>2021-06-16T10:08:09Z</time>
      </trkpt>
      <trkpt lat="36.761213" lon="-3.006135">
        <ele>57.385</ele>
        <time>2021-06-16T10:08:11Z</time>
      </trkpt>
      <trkpt lat="36.761306" lon="-3.006524">
        <ele>58.012</ele>
        <time>2021-06-16T10:08:13Z</time>
      </trkpt>
      <trkpt lat="36.761341" lon="-3.006728">
        <ele>59.152</ele>
        <time>2021-06-16T10:08:14Z</time>
      </trkpt>
      <trkpt lat="36.76137" lon="-3.006934">
        <ele>60.118</ele>
        <time>2021-06-16T10:08:15Z</time>
      </trkpt>
      <trkpt lat="36.761412" lon="-3.007347">
        <ele>61.298</ele>
        <time>2021-06-16T10:08:17Z</time>
      </trkpt>
      <trkpt lat="36.761427" lon="-3.007551">
        <ele>61.817</ele>
        <time>2021-06-16T10:08:18Z</time>
      </trkpt>
      <trkpt lat="36.761435" lon="-3.007968">
        <ele>63.708</ele>
        <time>2021-06-16T10:08:20Z</time>
      </trkpt>
      <trkpt lat="36.761427" lon="-3.008378">
        <ele>65.738</ele>
        <time>2021-06-16T10:08:22Z</time>
      </trkpt>
      <trkpt lat="36.761385" lon="-3.008792">
        <ele>67.676</ele>
        <time>2021-06-16T10:08:24Z</time>
      </trkpt>
      <trkpt lat="36.76131" lon="-3.009202">
        <ele>70.150</ele>
        <time>2021-06-16T10:08:26Z</time>
      </trkpt>
      <trkpt lat="36.761215" lon="-3.009615">
        <ele>72.259</ele>
        <time>2021-06-16T10:08:28Z</time>
      </trkpt>
      <trkpt lat="36.761105" lon="-3.010021">
        <ele>73.782</ele>
        <time>2021-06-16T10:08:30Z</time>
      </trkpt>
      <trkpt lat="36.760965" lon="-3.010413">
        <ele>75.279</ele>
        <time>2021-06-16T10:08:32Z</time>
      </trkpt>
      <trkpt lat="36.760799" lon="-3.010794">
        <ele>76.676</ele>
        <time>2021-06-16T10:08:34Z</time>
      </trkpt>
      <trkpt lat="36.760611" lon="-3.011161">
        <ele>77.826</ele>
        <time>2021-06-16T10:08:36Z</time>
      </trkpt>
      <trkpt lat="36.760397" lon="-3.011514">
        <ele>79.648</ele>
        <time>2021-06-16T10:08:38Z</time>
      </trkpt>
      <trkpt lat="36.760163" lon="-3.011857">
        <ele>81.761</ele>
        <time>2021-06-16T10:08:40Z</time>
      </trkpt>
      <trkpt lat="36.760042" lon="-3.012027">
        <ele>83.217</ele>
        <time>2021-06-16T10:08:41Z</time>
      </trkpt>
      <trkpt lat="36.759925" lon="-3.012196">
        <ele>84.708</ele>
        <time>2021-06-16T10:08:42Z</time>
      </trkpt>
      <trkpt lat="36.759689" lon="-3.012536">
        <ele>86.551</ele>
        <time>2021-06-16T10:08:44Z</time>
      </trkpt>
      <trkpt lat="36.759461" lon="-3.012889">
        <ele>88.589</ele>
        <time>2021-06-16T10:08:46Z</time>
      </trkpt>
      <trkpt lat="36.759352" lon="-3.013077">
        <ele>90.183</ele>
        <time>2021-06-16T10:08:47Z</time>
      </trkpt>
      <trkpt lat="36.759248" lon="-3.01327">
        <ele>91.332</ele>
        <time>2021-06-16T10:08:48Z</time>
      </trkpt>
      <trkpt lat="36.759064" lon="-3.013669">
        <ele>92.645</ele>
        <time>2021-06-16T10:08:50Z</time>
      </trkpt>
      <trkpt lat="36.758907" lon="-3.014082">
        <ele>93.682</ele>
        <time>2021-06-16T10:08:52Z</time>
      </trkpt>
      <trkpt lat="36.758776" lon="-3.014513">
        <ele>94.879</ele>
        <time>2021-06-16T10:08:54Z</time>
      </trkpt>
      <trkpt lat="36.758728" lon="-3.014739">
        <ele>95.959</ele>
        <time>2021-06-16T10:08:55Z</time>
      </trkpt>
      <trkpt lat="36.758685" lon="-3.014961">
        <ele>97.286</ele>
        <time>2021-06-16T10:08:56Z</time>
      </trkpt>
      <trkpt lat="36.758646" lon="-3.015183">
        <ele>98.160</ele>
        <time>2021-06-16T10:08:57Z</time>
      </trkpt>
      <trkpt lat="36.758585" lon="-3.015627">
        <ele>99.526</ele>
        <time>2021-06-16T10:08:59Z</time>
      </trkpt>
      <trkpt lat="36.758569" lon="-3.015849">
        <ele>100.208</ele>
        <time>2021-06-16T10:09:00Z</time>
      </trkpt>
      <trkpt lat="36.758566" lon="-3.016072">
        <ele>101.085</ele>
        <time>2021-06-16T10:09:01Z</time>
      </trkpt>
      <trkpt lat="36.758573" lon="-3.01629">
        <ele>101.683</ele>
        <time>2021-06-16T10:09:02Z</time>
      </trkpt>
      <trkpt lat="36.758585" lon="-3.01651">
        <ele>102.387</ele>
        <time>2021-06-16T10:09:03Z</time>
      </trkpt>
      <trkpt lat="36.758633" lon="-3.016949">
        <ele>103.226</ele>
        <time>2021-06-16T10:09:05Z</time>
      </trkpt>
      <trkpt lat="36.758663" lon="-3.017165">
        <ele>104.029</ele>
        <time>2021-06-16T10:09:06Z</time>
      </trkpt>
      <trkpt lat="36.758729" lon="-3.017598">
        <ele>104.366</ele>
        <time>2021-06-16T10:09:08Z</time>
      </trkpt>
      <trkpt lat="36.758787" lon="-3.018027">
        <ele>104.493</ele>
        <time>2021-06-16T10:09:10Z</time>
      </trkpt>
      <trkpt lat="36.758815" lon="-3.018244">
        <ele>104.473</ele>
        <time>2021-06-16T10:09:11Z</time>
      </trkpt>
      <trkpt lat="36.75884" lon="-3.018464">
        <ele>104.676</ele>
        <time>2021-06-16T10:09:12Z</time>
      </trkpt>
      <trkpt lat="36.758859" lon="-3.018684">
        <ele>104.890</ele>
        <time>2021-06-16T10:09:13Z</time>
      </trkpt>
      <trkpt lat="36.75889" lon="-3.019124">
        <ele>105.119</ele>
        <time>2021-06-16T10:09:15Z</time>
      </trkpt>
      <trkpt lat="36.758915" lon="-3.019579">
        <ele>105.208</ele>
        <time>2021-06-16T10:09:17Z</time>
      </trkpt>
      <trkpt lat="36.758911" lon="-3.020035">
        <ele>105.194</ele>
        <time>2021-06-16T10:09:19Z</time>
      </trkpt>
      <trkpt lat="36.758888" lon="-3.020491">
        <ele>105.052</ele>
        <time>2021-06-16T10:09:21Z</time>
      </trkpt>
      <trkpt lat="36.758847" lon="-3.020952">
        <ele>104.726</ele>
        <time>2021-06-16T10:09:23Z</time>
      </trkpt>
      <trkpt lat="36.758778" lon="-3.021424">
        <ele>105.455</ele>
        <time>2021-06-16T10:09:25Z</time>
      </trkpt>
      <trkpt lat="36.758734" lon="-3.021662">
        <ele>106.388</ele>
        <time>2021-06-16T10:09:26Z</time>
      </trkpt>
      <trkpt lat="36.758685" lon="-3.021895">
        <ele>107.225</ele>
        <time>2021-06-16T10:09:27Z</time>
      </trkpt>
      <trkpt lat="36.75863" lon="-3.022127">
        <ele>107.532</ele>
        <time>2021-06-16T10:09:28Z</time>
      </trkpt>
      <trkpt lat="36.758509" lon="-3.022586">
        <ele>107.562</ele>
        <time>2021-06-16T10:09:30Z</time>
      </trkpt>
      <trkpt lat="36.758374" lon="-3.023022">
        <ele>106.717</ele>
        <time>2021-06-16T10:09:32Z</time>
      </trkpt>
      <trkpt lat="36.758304" lon="-3.023241">
        <ele>106.587</ele>
        <time>2021-06-16T10:09:33Z</time>
      </trkpt>
      <trkpt lat="36.758148" lon="-3.023664">
        <ele>106.015</ele>
        <time>2021-06-16T10:09:35Z</time>
      </trkpt>
      <trkpt lat="36.757975" lon="-3.024074">
        <ele>105.508</ele>
        <time>2021-06-16T10:09:37Z</time>
      </trkpt>
      <trkpt lat="36.757783" lon="-3.024471">
        <ele>105.018</ele>
        <time>2021-06-16T10:09:39Z</time>
      </trkpt>
      <trkpt lat="36.757582" lon="-3.024856">
        <ele>104.136</ele>
        <time>2021-06-16T10:09:41Z</time>
      </trkpt>
      <trkpt lat="36.757369" lon="-3.025211">
        <ele>104.080</ele>
        <time>2021-06-16T10:09:43Z</time>
      </trkpt>
      <trkpt lat="36.75726" lon="-3.025385">
        <ele>103.699</ele>
        <time>2021-06-16T10:09:44Z</time>
      </trkpt>
      <trkpt lat="36.757153" lon="-3.025559">
        <ele>103.362</ele>
        <time>2021-06-16T10:09:45Z</time>
      </trkpt>
      <trkpt lat="36.756946" lon="-3.025908">
        <ele>103.249</ele>
        <time>2021-06-16T10:09:47Z</time>
      </trkpt>
      <trkpt lat="36.756741" lon="-3.026273">
        <ele>103.076</ele>
        <time>2021-06-16T10:09:49Z</time>
      </trkpt>
      <trkpt lat="36.756551" lon="-3.026659">
        <ele>103.046</ele>
        <time>2021-06-16T10:09:51Z</time>
      </trkpt>
      <trkpt lat="36.756462" lon="-3.026858">
        <ele>103.389</ele>
        <time>2021-06-16T10:09:52Z</time>
      </trkpt>
      <trkpt lat="36.756382" lon="-3.027063">
        <ele>103.406</ele>
        <time>2021-06-16T10:09:53Z</time>
      </trkpt>
      <trkpt lat="36.756251" lon="-3.027495">
        <ele>104.026</ele>
        <time>2021-06-16T10:09:55Z</time>
      </trkpt>
      <trkpt lat="36.756151" lon="-3.027954">
        <ele>104.308</ele>
        <time>2021-06-16T10:09:57Z</time>
      </trkpt>
      <trkpt lat="36.756083" lon="-3.02841">
        <ele>105.015</ele>
        <time>2021-06-16T10:09:59Z</time>
      </trkpt>
      <trkpt lat="36.75603" lon="-3.02886">
        <ele>105.193</ele>
        <time>2021-06-16T10:10:01Z</time>
      </trkpt>
      <trkpt lat="36.756015" lon="-3.029083">
        <ele>105.957</ele>
        <time>2021-06-16T10:10:02Z</time>
      </trkpt>
      <trkpt lat="36.756022" lon="-3.029527">
        <ele>106.146</ele>
        <time>2021-06-16T10:10:04Z</time>
      </trkpt>
      <trkpt lat="36.756069" lon="-3.029981">
        <ele>106.259</ele>
        <time>2021-06-16T10:10:06Z</time>
      </trkpt>
      <trkpt lat="36.756095" lon="-3.030206">
        <ele>106.246</ele>
        <time>2021-06-16T10:10:07Z</time>
      </trkpt>
      <trkpt lat="36.756116" lon="-3.030427">
        <ele>106.213</ele>
        <time>2021-06-16T10:10:08Z</time>
      </trkpt>
      <trkpt lat="36.756156" lon="-3.030868">
        <ele>106.143</ele>
        <time>2021-06-16T10:10:10Z</time>
      </trkpt>
      <trkpt lat="36.756173" lon="-3.031091">
        <ele>106.534</ele>
        <time>2021-06-16T10:10:11Z</time>
      </trkpt>
      <trkpt lat="36.756187" lon="-3.031313">
        <ele>106.855</ele>
        <time>2021-06-16T10:10:12Z</time>
      </trkpt>
      <trkpt lat="36.756206" lon="-3.031756">
        <ele>106.910</ele>
        <time>2021-06-16T10:10:14Z</time>
      </trkpt>
      <trkpt lat="36.756196" lon="-3.03221">
        <ele>107.108</ele>
        <time>2021-06-16T10:10:16Z</time>
      </trkpt>
      <trkpt lat="36.756177" lon="-3.032441">
        <ele>107.310</ele>
        <time>2021-06-16T10:10:17Z</time>
      </trkpt>
      <trkpt lat="36.756124" lon="-3.032905">
        <ele>106.978</ele>
        <time>2021-06-16T10:10:19Z</time>
      </trkpt>
      <trkpt lat="36.756031" lon="-3.033364">
        <ele>107.082</ele>
        <time>2021-06-16T10:10:21Z</time>
      </trkpt>
      <trkpt lat="36.755976" lon="-3.033589">
        <ele>106.631</ele>
        <time>2021-06-16T10:10:22Z</time>
      </trkpt>
      <trkpt lat="36.755837" lon="-3.034031">
        <ele>106.234</ele>
        <time>2021-06-16T10:10:24Z</time>
      </trkpt>
      <trkpt lat="36.755671" lon="-3.034458">
        <ele>105.131</ele>
        <time>2021-06-16T10:10:26Z</time>
      </trkpt>
      <trkpt lat="36.755578" lon="-3.034663">
        <ele>104.128</ele>
        <time>2021-06-16T10:10:27Z</time>
      </trkpt>
      <trkpt lat="36.755378" lon="-3.035064">
        <ele>103.078</ele>
        <time>2021-06-16T10:10:29Z</time>
      </trkpt>
      <trkpt lat="36.755269" lon="-3.035258">
        <ele>101.968</ele>
        <time>2021-06-16T10:10:30Z</time>
      </trkpt>
      <trkpt lat="36.755043" lon="-3.035641">
        <ele>100.642</ele>
        <time>2021-06-16T10:10:32Z</time>
      </trkpt>
      <trkpt lat="36.754928" lon="-3.035829">
        <ele>99.226</ele>
        <time>2021-06-16T10:10:33Z</time>
      </trkpt>
      <trkpt lat="36.754703" lon="-3.036193">
        <ele>97.608</ele>
        <time>2021-06-16T10:10:35Z</time>
      </trkpt>
      <trkpt lat="36.754487" lon="-3.036566">
        <ele>96.173</ele>
        <time>2021-06-16T10:10:37Z</time>
      </trkpt>
      <trkpt lat="36.75438" lon="-3.03676">
        <ele>95.061</ele>
        <time>2021-06-16T10:10:38Z</time>
      </trkpt>
      <trkpt lat="36.754278" lon="-3.036955">
        <ele>94.225</ele>
        <time>2021-06-16T10:10:39Z</time>
      </trkpt>
      <trkpt lat="36.754108" lon="-3.037365">
        <ele>92.634</ele>
        <time>2021-06-16T10:10:41Z</time>
      </trkpt>
      <trkpt lat="36.753967" lon="-3.03779">
        <ele>91.177</ele>
        <time>2021-06-16T10:10:43Z</time>
      </trkpt>
      <trkpt lat="36.753903" lon="-3.038004">
        <ele>89.614</ele>
        <time>2021-06-16T10:10:44Z</time>
      </trkpt>
      <trkpt lat="36.753844" lon="-3.038221">
        <ele>88.461</ele>
        <time>2021-06-16T10:10:45Z</time>
      </trkpt>
      <trkpt lat="36.753783" lon="-3.038438">
        <ele>87.181</ele>
        <time>2021-06-16T10:10:46Z</time>
      </trkpt>
      <trkpt lat="36.75372" lon="-3.038654">
        <ele>86.357</ele>
        <time>2021-06-16T10:10:47Z</time>
      </trkpt>
      <trkpt lat="36.753654" lon="-3.038869">
        <ele>85.300</ele>
        <time>2021-06-16T10:10:48Z</time>
      </trkpt>
      <trkpt lat="36.753584" lon="-3.039082">
        <ele>83.920</ele>
        <time>2021-06-16T10:10:49Z</time>
      </trkpt>
      <trkpt lat="36.753426" lon="-3.039504">
        <ele>82.508</ele>
        <time>2021-06-16T10:10:51Z</time>
      </trkpt>
      <trkpt lat="36.753337" lon="-3.039715">
        <ele>80.832</ele>
        <time>2021-06-16T10:10:52Z</time>
      </trkpt>
      <trkpt lat="36.753244" lon="-3.039921">
        <ele>79.420</ele>
        <time>2021-06-16T10:10:53Z</time>
      </trkpt>
      <trkpt lat="36.753037" lon="-3.040314">
        <ele>78.244</ele>
        <time>2021-06-16T10:10:55Z</time>
      </trkpt>
      <trkpt lat="36.75292" lon="-3.0405">
        <ele>77.413</ele>
        <time>2021-06-16T10:10:56Z</time>
      </trkpt>
      <trkpt lat="36.752671" lon="-3.040855">
        <ele>76.396</ele>
        <time>2021-06-16T10:10:58Z</time>
      </trkpt>
      <trkpt lat="36.752396" lon="-3.041186">
        <ele>75.213</ele>
        <time>2021-06-16T10:11:00Z</time>
      </trkpt>
      <trkpt lat="36.752248" lon="-3.041344">
        <ele>74.370</ele>
        <time>2021-06-16T10:11:01Z</time>
      </trkpt>
      <trkpt lat="36.751952" lon="-3.04164">
        <ele>73.060</ele>
        <time>2021-06-16T10:11:03Z</time>
      </trkpt>
      <trkpt lat="36.751645" lon="-3.041912">
        <ele>71.439</ele>
        <time>2021-06-16T10:11:05Z</time>
      </trkpt>
      <trkpt lat="36.751333" lon="-3.042189">
        <ele>69.701</ele>
        <time>2021-06-16T10:11:07Z</time>
      </trkpt>
      <trkpt lat="36.751022" lon="-3.042469">
        <ele>67.721</ele>
        <time>2021-06-16T10:11:09Z</time>
      </trkpt>
      <trkpt lat="36.750725" lon="-3.042769">
        <ele>65.508</ele>
        <time>2021-06-16T10:11:11Z</time>
      </trkpt>
      <trkpt lat="36.750446" lon="-3.043091">
        <ele>63.220</ele>
        <time>2021-06-16T10:11:13Z</time>
      </trkpt>
      <trkpt lat="36.750317" lon="-3.043262">
        <ele>61.358</ele>
        <time>2021-06-16T10:11:14Z</time>
      </trkpt>
      <trkpt lat="36.750075" lon="-3.043622">
        <ele>59.152</ele>
        <time>2021-06-16T10:11:16Z</time>
      </trkpt>
      <trkpt lat="36.74996" lon="-3.043811">
        <ele>57.371</ele>
        <time>2021-06-16T10:11:17Z</time>
      </trkpt>
      <trkpt lat="36.749851" lon="-3.044003">
        <ele>55.984</ele>
        <time>2021-06-16T10:11:18Z</time>
      </trkpt>
      <trkpt lat="36.749651" lon="-3.044405">
        <ele>54.481</ele>
        <time>2021-06-16T10:11:20Z</time>
      </trkpt>
      <trkpt lat="36.749472" lon="-3.044827">
        <ele>53.058</ele>
        <time>2021-06-16T10:11:22Z</time>
      </trkpt>
      <trkpt lat="36.749319" lon="-3.045257">
        <ele>51.988</ele>
        <time>2021-06-16T10:11:24Z</time>
      </trkpt>
      <trkpt lat="36.749196" lon="-3.045706">
        <ele>50.038</ele>
        <time>2021-06-16T10:11:26Z</time>
      </trkpt>
      <trkpt lat="36.749115" lon="-3.046165">
        <ele>48.470</ele>
        <time>2021-06-16T10:11:28Z</time>
      </trkpt>
      <trkpt lat="36.749081" lon="-3.046398">
        <ele>47.317</ele>
        <time>2021-06-16T10:11:29Z</time>
      </trkpt>
      <trkpt lat="36.749051" lon="-3.046634">
        <ele>46.608</ele>
        <time>2021-06-16T10:11:30Z</time>
      </trkpt>
      <trkpt lat="36.74901" lon="-3.047098">
        <ele>45.980</ele>
        <time>2021-06-16T10:11:32Z</time>
      </trkpt>
      <trkpt lat="36.748991" lon="-3.047334">
        <ele>45.558</ele>
        <time>2021-06-16T10:11:33Z</time>
      </trkpt>
      <trkpt lat="36.748964" lon="-3.047801">
        <ele>44.582</ele>
        <time>2021-06-16T10:11:35Z</time>
      </trkpt>
      <trkpt lat="36.748961" lon="-3.048032">
        <ele>44.431</ele>
        <time>2021-06-16T10:11:36Z</time>
      </trkpt>
      <trkpt lat="36.748956" lon="-3.048261">
        <ele>43.874</ele>
        <time>2021-06-16T10:11:37Z</time>
      </trkpt>
      <trkpt lat="36.748954" lon="-3.048716">
        <ele>43.911</ele>
        <time>2021-06-16T10:11:39Z</time>
      </trkpt>
      <trkpt lat="36.748965" lon="-3.049183">
        <ele>44.288</ele>
        <time>2021-06-16T10:11:41Z</time>
      </trkpt>
      <trkpt lat="36.748989" lon="-3.049655">
        <ele>45.088</ele>
        <time>2021-06-16T10:11:43Z</time>
      </trkpt>
      <trkpt lat="36.749004" lon="-3.049885">
        <ele>45.314</ele>
        <time>2021-06-16T10:11:44Z</time>
      </trkpt>
      <trkpt lat="36.749027" lon="-3.05011">
        <ele>45.854</ele>
        <time>2021-06-16T10:11:45Z</time>
      </trkpt>
      <trkpt lat="36.749103" lon="-3.050533">
        <ele>45.609</ele>
        <time>2021-06-16T10:11:47Z</time>
      </trkpt>
      <trkpt lat="36.749176" lon="-3.050941">
        <ele>46.008</ele>
        <time>2021-06-16T10:11:49Z</time>
      </trkpt>
      <trkpt lat="36.749245" lon="-3.051337">
        <ele>46.618</ele>
        <time>2021-06-16T10:11:51Z</time>
      </trkpt>
      <trkpt lat="36.749288" lon="-3.051532">
        <ele>46.996</ele>
        <time>2021-06-16T10:11:52Z</time>
      </trkpt>
      <trkpt lat="36.749332" lon="-3.051727">
        <ele>47.660</ele>
        <time>2021-06-16T10:11:53Z</time>
      </trkpt>
      <trkpt lat="36.749419" lon="-3.052098">
        <ele>48.369</ele>
        <time>2021-06-16T10:11:55Z</time>
      </trkpt>
      <trkpt lat="36.749506" lon="-3.052444">
        <ele>48.822</ele>
        <time>2021-06-16T10:11:57Z</time>
      </trkpt>
      <trkpt lat="36.74955" lon="-3.052598">
        <ele>49.249</ele>
        <time>2021-06-16T10:11:58Z</time>
      </trkpt>
      <trkpt lat="36.749636" lon="-3.052891">
        <ele>49.756</ele>
        <time>2021-06-16T10:12:00Z</time>
      </trkpt>
      <trkpt lat="36.749679" lon="-3.05302">
        <ele>49.756</ele>
        <time>2021-06-16T10:12:01Z</time>
      </trkpt>
      <trkpt lat="36.749718" lon="-3.053143">
        <ele>50.035</ele>
        <time>2021-06-16T10:12:02Z</time>
      </trkpt>
      <trkpt lat="36.749756" lon="-3.053261">
        <ele>49.886</ele>
        <time>2021-06-16T10:12:03Z</time>
      </trkpt>
      <trkpt lat="36.749832" lon="-3.053458">
        <ele>49.114</ele>
        <time>2021-06-16T10:12:05Z</time>
      </trkpt>
      <trkpt lat="36.749877" lon="-3.053541">
        <ele>49.008</ele>
        <time>2021-06-16T10:12:06Z</time>
      </trkpt>
      <trkpt lat="36.750005" lon="-3.053662">
        <ele>49.080</ele>
        <time>2021-06-16T10:12:08Z</time>
      </trkpt>
      <trkpt lat="36.750085" lon="-3.053695">
        <ele>48.918</ele>
        <time>2021-06-16T10:12:09Z</time>
      </trkpt>
      <trkpt lat="36.750238" lon="-3.053749">
        <ele>48.952</ele>
        <time>2021-06-16T10:12:11Z</time>
      </trkpt>
      <trkpt lat="36.750318" lon="-3.053884">
        <ele>48.221</ele>
        <time>2021-06-16T10:12:13Z</time>
      </trkpt>
      <trkpt lat="36.750277" lon="-3.054021">
        <ele>48.054</ele>
        <time>2021-06-16T10:12:15Z</time>
      </trkpt>
      <trkpt lat="36.750136" lon="-3.054087">
        <ele>47.981</ele>
        <time>2021-06-16T10:12:17Z</time>
      </trkpt>
      <trkpt lat="36.750055" lon="-3.054079">
        <ele>47.948</ele>
        <time>2021-06-16T10:12:18Z</time>
      </trkpt>
      <trkpt lat="36.749885" lon="-3.054076">
        <ele>47.138</ele>
        <time>2021-06-16T10:12:20Z</time>
      </trkpt>
      <trkpt lat="36.749795" lon="-3.054096">
        <ele>46.259</ele>
        <time>2021-06-16T10:12:21Z</time>
      </trkpt>
      <trkpt lat="36.749608" lon="-3.054162">
        <ele>45.303</ele>
        <time>2021-06-16T10:12:23Z</time>
      </trkpt>
      <trkpt lat="36.749429" lon="-3.054249">
        <ele>44.723</ele>
        <time>2021-06-16T10:12:25Z</time>
      </trkpt>
      <trkpt lat="36.749285" lon="-3.054403">
        <ele>43.708</ele>
        <time>2021-06-16T10:12:27Z</time>
      </trkpt>
      <trkpt lat="36.749159" lon="-3.054582">
        <ele>42.842</ele>
        <time>2021-06-16T10:12:29Z</time>
      </trkpt>
      <trkpt lat="36.749095" lon="-3.054665">
        <ele>42.510</ele>
        <time>2021-06-16T10:12:30Z</time>
      </trkpt>
      <trkpt lat="36.749029" lon="-3.054744">
        <ele>42.124</ele>
        <time>2021-06-16T10:12:31Z</time>
      </trkpt>
      <trkpt lat="36.748968" lon="-3.054829">
        <ele>41.433</ele>
        <time>2021-06-16T10:12:32Z</time>
      </trkpt>
      <trkpt lat="36.748914" lon="-3.054929">
        <ele>40.996</ele>
        <time>2021-06-16T10:12:33Z</time>
      </trkpt>
      <trkpt lat="36.748826" lon="-3.055173">
        <ele>40.643</ele>
        <time>2021-06-16T10:12:35Z</time>
      </trkpt>
      <trkpt lat="36.748781" lon="-3.055302">
        <ele>40.390</ele>
        <time>2021-06-16T10:12:36Z</time>
      </trkpt>
      <trkpt lat="36.748688" lon="-3.05557">
        <ele>39.340</ele>
        <time>2021-06-16T10:12:38Z</time>
      </trkpt>
      <trkpt lat="36.748634" lon="-3.055705">
        <ele>39.043</ele>
        <time>2021-06-16T10:12:39Z</time>
      </trkpt>
      <trkpt lat="36.748499" lon="-3.055955">
        <ele>37.864</ele>
        <time>2021-06-16T10:12:41Z</time>
      </trkpt>
      <trkpt lat="36.748416" lon="-3.056065">
        <ele>36.910</ele>
        <time>2021-06-16T10:12:42Z</time>
      </trkpt>
      <trkpt lat="36.748231" lon="-3.056253">
        <ele>35.708</ele>
        <time>2021-06-16T10:12:44Z</time>
      </trkpt>
      <trkpt lat="36.748133" lon="-3.056328">
        <ele>34.721</ele>
        <time>2021-06-16T10:12:45Z</time>
      </trkpt>
      <trkpt lat="36.747951" lon="-3.056477">
        <ele>33.569</ele>
        <time>2021-06-16T10:12:47Z</time>
      </trkpt>
      <trkpt lat="36.747873" lon="-3.056561">
        <ele>32.743</ele>
        <time>2021-06-16T10:12:48Z</time>
      </trkpt>
      <trkpt lat="36.7478" lon="-3.056643">
        <ele>32.692</ele>
        <time>2021-06-16T10:12:49Z</time>
      </trkpt>
      <trkpt lat="36.74764" lon="-3.056731">
        <ele>32.385</ele>
        <time>2021-06-16T10:12:51Z</time>
      </trkpt>
      <trkpt lat="36.747552" lon="-3.056744">
        <ele>31.992</ele>
        <time>2021-06-16T10:12:52Z</time>
      </trkpt>
      <trkpt lat="36.747392" lon="-3.056833">
        <ele>31.429</ele>
        <time>2021-06-16T10:12:54Z</time>
      </trkpt>
      <trkpt lat="36.747335" lon="-3.057063">
        <ele>31.029</ele>
        <time>2021-06-16T10:12:56Z</time>
      </trkpt>
      <trkpt lat="36.747341" lon="-3.057199">
        <ele>30.518</ele>
        <time>2021-06-16T10:12:57Z</time>
      </trkpt>
      <trkpt lat="36.74737" lon="-3.057488">
        <ele>30.098</ele>
        <time>2021-06-16T10:12:59Z</time>
      </trkpt>
      <trkpt lat="36.747406" lon="-3.057807">
        <ele>29.617</ele>
        <time>2021-06-16T10:13:01Z</time>
      </trkpt>
      <trkpt lat="36.747426" lon="-3.05797">
        <ele>29.408</ele>
        <time>2021-06-16T10:13:02Z</time>
      </trkpt>
      <trkpt lat="36.747442" lon="-3.05813">
        <ele>29.518</ele>
        <time>2021-06-16T10:13:03Z</time>
      </trkpt>
      <trkpt lat="36.747463" lon="-3.058288">
        <ele>28.926</ele>
        <time>2021-06-16T10:13:04Z</time>
      </trkpt>
      <trkpt lat="36.747522" lon="-3.058572">
        <ele>28.060</ele>
        <time>2021-06-16T10:13:06Z</time>
      </trkpt>
      <trkpt lat="36.747597" lon="-3.058837">
        <ele>27.819</ele>
        <time>2021-06-16T10:13:08Z</time>
      </trkpt>
      <trkpt lat="36.747701" lon="-3.059109">
        <ele>28.362</ele>
        <time>2021-06-16T10:13:10Z</time>
      </trkpt>
      <trkpt lat="36.747845" lon="-3.05938">
        <ele>28.729</ele>
        <time>2021-06-16T10:13:12Z</time>
      </trkpt>
      <trkpt lat="36.747925" lon="-3.059519">
        <ele>29.196</ele>
        <time>2021-06-16T10:13:13Z</time>
      </trkpt>
      <trkpt lat="36.747996" lon="-3.059671">
        <ele>29.516</ele>
        <time>2021-06-16T10:13:14Z</time>
      </trkpt>
      <trkpt lat="36.748084" lon="-3.060022">
        <ele>29.758</ele>
        <time>2021-06-16T10:13:16Z</time>
      </trkpt>
      <trkpt lat="36.748102" lon="-3.060213">
        <ele>29.652</ele>
        <time>2021-06-16T10:13:17Z</time>
      </trkpt>
      <trkpt lat="36.748067" lon="-3.060594">
        <ele>30.217</ele>
        <time>2021-06-16T10:13:19Z</time>
      </trkpt>
      <trkpt lat="36.747958" lon="-3.060947">
        <ele>30.308</ele>
        <time>2021-06-16T10:13:21Z</time>
      </trkpt>
      <trkpt lat="36.747883" lon="-3.06112">
        <ele>29.942</ele>
        <time>2021-06-16T10:13:22Z</time>
      </trkpt>
      <trkpt lat="36.747744" lon="-3.061474">
        <ele>30.070</ele>
        <time>2021-06-16T10:13:24Z</time>
      </trkpt>
      <trkpt lat="36.747695" lon="-3.061661">
        <ele>29.914</ele>
        <time>2021-06-16T10:13:25Z</time>
      </trkpt>
      <trkpt lat="36.747659" lon="-3.06205">
        <ele>29.213</ele>
        <time>2021-06-16T10:13:27Z</time>
      </trkpt>
      <trkpt lat="36.747686" lon="-3.06245">
        <ele>28.686</ele>
        <time>2021-06-16T10:13:29Z</time>
      </trkpt>
      <trkpt lat="36.747735" lon="-3.06285">
        <ele>28.023</ele>
        <time>2021-06-16T10:13:31Z</time>
      </trkpt>
      <trkpt lat="36.747759" lon="-3.063048">
        <ele>27.440</ele>
        <time>2021-06-16T10:13:32Z</time>
      </trkpt>
      <trkpt lat="36.747772" lon="-3.063249">
        <ele>26.930</ele>
        <time>2021-06-16T10:13:33Z</time>
      </trkpt>
      <trkpt lat="36.747744" lon="-3.063649">
        <ele>27.082</ele>
        <time>2021-06-16T10:13:35Z</time>
      </trkpt>
      <trkpt lat="36.747625" lon="-3.064018">
        <ele>27.443</ele>
        <time>2021-06-16T10:13:37Z</time>
      </trkpt>
      <trkpt lat="36.747477" lon="-3.064335">
        <ele>27.217</ele>
        <time>2021-06-16T10:13:39Z</time>
      </trkpt>
      <trkpt lat="36.74732" lon="-3.064592">
        <ele>27.108</ele>
        <time>2021-06-16T10:13:41Z</time>
      </trkpt>
      <trkpt lat="36.747243" lon="-3.064713">
        <ele>26.965</ele>
        <time>2021-06-16T10:13:42Z</time>
      </trkpt>
      <trkpt lat="36.747106" lon="-3.064934">
        <ele>27.293</ele>
        <time>2021-06-16T10:13:44Z</time>
      </trkpt>
      <trkpt lat="36.747046" lon="-3.065052">
        <ele>27.227</ele>
        <time>2021-06-16T10:13:45Z</time>
      </trkpt>
      <trkpt lat="36.746995" lon="-3.065178">
        <ele>26.956</ele>
        <time>2021-06-16T10:13:46Z</time>
      </trkpt>
      <trkpt lat="36.746934" lon="-3.065471">
        <ele>26.689</ele>
        <time>2021-06-16T10:13:48Z</time>
      </trkpt>
      <trkpt lat="36.746918" lon="-3.065625">
        <ele>26.746</ele>
        <time>2021-06-16T10:13:49Z</time>
      </trkpt>
      <trkpt lat="36.746907" lon="-3.06578">
        <ele>26.893</ele>
        <time>2021-06-16T10:13:50Z</time>
      </trkpt>
      <trkpt lat="36.746917" lon="-3.066109">
        <ele>26.773</ele>
        <time>2021-06-16T10:13:52Z</time>
      </trkpt>
      <trkpt lat="36.746981" lon="-3.066442">
        <ele>26.274</ele>
        <time>2021-06-16T10:13:54Z</time>
      </trkpt>
      <trkpt lat="36.74705" lon="-3.066793">
        <ele>24.956</ele>
        <time>2021-06-16T10:13:56Z</time>
      </trkpt>
      <trkpt lat="36.74707" lon="-3.067146">
        <ele>23.621</ele>
        <time>2021-06-16T10:13:58Z</time>
      </trkpt>
      <trkpt lat="36.747046" lon="-3.067511">
        <ele>22.508</ele>
        <time>2021-06-16T10:14:00Z</time>
      </trkpt>
      <trkpt lat="36.747005" lon="-3.067874">
        <ele>21.774</ele>
        <time>2021-06-16T10:14:02Z</time>
      </trkpt>
      <trkpt lat="36.746947" lon="-3.068228">
        <ele>20.652</ele>
        <time>2021-06-16T10:14:04Z</time>
      </trkpt>
      <trkpt lat="36.746874" lon="-3.068581">
        <ele>19.446</ele>
        <time>2021-06-16T10:14:06Z</time>
      </trkpt>
      <trkpt lat="36.746834" lon="-3.068763">
        <ele>18.895</ele>
        <time>2021-06-16T10:14:07Z</time>
      </trkpt>
      <trkpt lat="36.746747" lon="-3.069123">
        <ele>17.878</ele>
        <time>2021-06-16T10:14:09Z</time>
      </trkpt>
      <trkpt lat="36.746701" lon="-3.069306">
        <ele>17.125</ele>
        <time>2021-06-16T10:14:10Z</time>
      </trkpt>
      <trkpt lat="36.746659" lon="-3.069491">
        <ele>16.482</ele>
        <time>2021-06-16T10:14:11Z</time>
      </trkpt>
      <trkpt lat="36.746576" lon="-3.069869">
        <ele>15.652</ele>
        <time>2021-06-16T10:14:13Z</time>
      </trkpt>
      <trkpt lat="36.746505" lon="-3.07025">
        <ele>14.769</ele>
        <time>2021-06-16T10:14:15Z</time>
      </trkpt>
      <trkpt lat="36.746475" lon="-3.07063">
        <ele>14.404</ele>
        <time>2021-06-16T10:14:17Z</time>
      </trkpt>
      <trkpt lat="36.746477" lon="-3.071011">
        <ele>14.324</ele>
        <time>2021-06-16T10:14:19Z</time>
      </trkpt>
      <trkpt lat="36.746519" lon="-3.071393">
        <ele>14.308</ele>
        <time>2021-06-16T10:14:21Z</time>
      </trkpt>
      <trkpt lat="36.746544" lon="-3.071581">
        <ele>14.183</ele>
        <time>2021-06-16T10:14:22Z</time>
      </trkpt>
      <trkpt lat="36.746595" lon="-3.071956">
        <ele>13.871</ele>
        <time>2021-06-16T10:14:24Z</time>
      </trkpt>
      <trkpt lat="36.74664" lon="-3.072325">
        <ele>13.745</ele>
        <time>2021-06-16T10:14:26Z</time>
      </trkpt>
      <trkpt lat="36.74668" lon="-3.07269">
        <ele>12.994</ele>
        <time>2021-06-16T10:14:28Z</time>
      </trkpt>
      <trkpt lat="36.746716" lon="-3.073051">
        <ele>12.177</ele>
        <time>2021-06-16T10:14:30Z</time>
      </trkpt>
      <trkpt lat="36.746756" lon="-3.073422">
        <ele>11.954</ele>
        <time>2021-06-16T10:14:32Z</time>
      </trkpt>
      <trkpt lat="36.746803" lon="-3.073794">
        <ele>12.241</ele>
        <time>2021-06-16T10:14:34Z</time>
      </trkpt>
      <trkpt lat="36.746851" lon="-3.074178">
        <ele>13.361</ele>
        <time>2021-06-16T10:14:36Z</time>
      </trkpt>
      <trkpt lat="36.746883" lon="-3.074366">
        <ele>14.589</ele>
        <time>2021-06-16T10:14:37Z</time>
      </trkpt>
      <trkpt lat="36.746912" lon="-3.074559">
        <ele>15.606</ele>
        <time>2021-06-16T10:14:38Z</time>
      </trkpt>
      <trkpt lat="36.746988" lon="-3.07493">
        <ele>17.026</ele>
        <time>2021-06-16T10:14:40Z</time>
      </trkpt>
      <trkpt lat="36.74703" lon="-3.075115">
        <ele>18.208</ele>
        <time>2021-06-16T10:14:41Z</time>
      </trkpt>
      <trkpt lat="36.747076" lon="-3.075308">
        <ele>19.265</ele>
        <time>2021-06-16T10:14:42Z</time>
      </trkpt>
      <trkpt lat="36.747176" lon="-3.075672">
        <ele>19.953</ele>
        <time>2021-06-16T10:14:44Z</time>
      </trkpt>
      <trkpt lat="36.747221" lon="-3.07586">
        <ele>21.147</ele>
        <time>2021-06-16T10:14:45Z</time>
      </trkpt>
      <trkpt lat="36.747298" lon="-3.076243">
        <ele>21.546</ele>
        <time>2021-06-16T10:14:47Z</time>
      </trkpt>
      <trkpt lat="36.747347" lon="-3.076635">
        <ele>21.999</ele>
        <time>2021-06-16T10:14:49Z</time>
      </trkpt>
      <trkpt lat="36.747361" lon="-3.07683">
        <ele>22.256</ele>
        <time>2021-06-16T10:14:50Z</time>
      </trkpt>
      <trkpt lat="36.747351" lon="-3.077229">
        <ele>23.293</ele>
        <time>2021-06-16T10:14:52Z</time>
      </trkpt>
      <trkpt lat="36.747344" lon="-3.077428">
        <ele>23.553</ele>
        <time>2021-06-16T10:14:53Z</time>
      </trkpt>
      <trkpt lat="36.747335" lon="-3.07763">
        <ele>24.274</ele>
        <time>2021-06-16T10:14:54Z</time>
      </trkpt>
      <trkpt lat="36.747323" lon="-3.078036">
        <ele>24.556</ele>
        <time>2021-06-16T10:14:56Z</time>
      </trkpt>
      <trkpt lat="36.747328" lon="-3.078442">
        <ele>24.921</ele>
        <time>2021-06-16T10:14:58Z</time>
      </trkpt>
      <trkpt lat="36.747348" lon="-3.078644">
        <ele>25.208</ele>
        <time>2021-06-16T10:14:59Z</time>
      </trkpt>
      <trkpt lat="36.747409" lon="-3.07905">
        <ele>25.684</ele>
        <time>2021-06-16T10:15:01Z</time>
      </trkpt>
      <trkpt lat="36.747499" lon="-3.079447">
        <ele>25.542</ele>
        <time>2021-06-16T10:15:03Z</time>
      </trkpt>
      <trkpt lat="36.747548" lon="-3.079649">
        <ele>25.626</ele>
        <time>2021-06-16T10:15:04Z</time>
      </trkpt>
      <trkpt lat="36.747643" lon="-3.080058">
        <ele>25.595</ele>
        <time>2021-06-16T10:15:06Z</time>
      </trkpt>
      <trkpt lat="36.74769" lon="-3.080263">
        <ele>24.768</ele>
        <time>2021-06-16T10:15:07Z</time>
      </trkpt>
      <trkpt lat="36.747736" lon="-3.080464">
        <ele>24.045</ele>
        <time>2021-06-16T10:15:08Z</time>
      </trkpt>
      <trkpt lat="36.747823" lon="-3.080858">
        <ele>23.082</ele>
        <time>2021-06-16T10:15:10Z</time>
      </trkpt>
      <trkpt lat="36.747867" lon="-3.081052">
        <ele>23.212</ele>
        <time>2021-06-16T10:15:11Z</time>
      </trkpt>
      <trkpt lat="36.747911" lon="-3.08125">
        <ele>23.573</ele>
        <time>2021-06-16T10:15:12Z</time>
      </trkpt>
      <trkpt lat="36.748001" lon="-3.081647">
        <ele>23.385</ele>
        <time>2021-06-16T10:15:14Z</time>
      </trkpt>
      <trkpt lat="36.748066" lon="-3.082042">
        <ele>23.013</ele>
        <time>2021-06-16T10:15:16Z</time>
      </trkpt>
      <trkpt lat="36.748111" lon="-3.082436">
        <ele>22.508</ele>
        <time>2021-06-16T10:15:18Z</time>
      </trkpt>
      <trkpt lat="36.74813" lon="-3.082638">
        <ele>22.194</ele>
        <time>2021-06-16T10:15:19Z</time>
      </trkpt>
      <trkpt lat="36.748153" lon="-3.083033">
        <ele>21.892</ele>
        <time>2021-06-16T10:15:21Z</time>
      </trkpt>
      <trkpt lat="36.748156" lon="-3.083236">
        <ele>21.776</ele>
        <time>2021-06-16T10:15:22Z</time>
      </trkpt>
      <trkpt lat="36.748164" lon="-3.083637">
        <ele>22.145</ele>
        <time>2021-06-16T10:15:24Z</time>
      </trkpt>
      <trkpt lat="36.74817" lon="-3.083831">
        <ele>22.638</ele>
        <time>2021-06-16T10:15:25Z</time>
      </trkpt>
      <trkpt lat="36.748179" lon="-3.084227">
        <ele>23.255</ele>
        <time>2021-06-16T10:15:27Z</time>
      </trkpt>
      <trkpt lat="36.748182" lon="-3.08443">
        <ele>23.432</ele>
        <time>2021-06-16T10:15:28Z</time>
      </trkpt>
      <trkpt lat="36.748189" lon="-3.084631">
        <ele>23.622</ele>
        <time>2021-06-16T10:15:29Z</time>
      </trkpt>
      <trkpt lat="36.748199" lon="-3.085029">
        <ele>24.333</ele>
        <time>2021-06-16T10:15:31Z</time>
      </trkpt>
      <trkpt lat="36.748205" lon="-3.08523">
        <ele>24.623</ele>
        <time>2021-06-16T10:15:32Z</time>
      </trkpt>
      <trkpt lat="36.748211" lon="-3.085621">
        <ele>25.415</ele>
        <time>2021-06-16T10:15:34Z</time>
      </trkpt>
      <trkpt lat="36.748229" lon="-3.085998">
        <ele>26.008</ele>
        <time>2021-06-16T10:15:36Z</time>
      </trkpt>
      <trkpt lat="36.748274" lon="-3.086357">
        <ele>26.840</ele>
        <time>2021-06-16T10:15:38Z</time>
      </trkpt>
      <trkpt lat="36.748323" lon="-3.086538">
        <ele>27.648</ele>
        <time>2021-06-16T10:15:39Z</time>
      </trkpt>
      <trkpt lat="36.748461" lon="-3.086897">
        <ele>28.242</ele>
        <time>2021-06-16T10:15:41Z</time>
      </trkpt>
      <trkpt lat="36.748531" lon="-3.087074">
        <ele>28.931</ele>
        <time>2021-06-16T10:15:42Z</time>
      </trkpt>
      <trkpt lat="36.748662" lon="-3.08744">
        <ele>29.224</ele>
        <time>2021-06-16T10:15:44Z</time>
      </trkpt>
      <trkpt lat="36.748717" lon="-3.087631">
        <ele>29.051</ele>
        <time>2021-06-16T10:15:45Z</time>
      </trkpt>
      <trkpt lat="36.748759" lon="-3.087827">
        <ele>28.888</ele>
        <time>2021-06-16T10:15:46Z</time>
      </trkpt>
      <trkpt lat="36.748798" lon="-3.08823">
        <ele>28.488</ele>
        <time>2021-06-16T10:15:48Z</time>
      </trkpt>
      <trkpt lat="36.748807" lon="-3.088435">
        <ele>28.142</ele>
        <time>2021-06-16T10:15:49Z</time>
      </trkpt>
      <trkpt lat="36.748812" lon="-3.088647">
        <ele>28.122</ele>
        <time>2021-06-16T10:15:50Z</time>
      </trkpt>
      <trkpt lat="36.748819" lon="-3.089067">
        <ele>29.114</ele>
        <time>2021-06-16T10:15:52Z</time>
      </trkpt>
      <trkpt lat="36.748826" lon="-3.089469">
        <ele>29.708</ele>
        <time>2021-06-16T10:15:54Z</time>
      </trkpt>
      <trkpt lat="36.748832" lon="-3.089863">
        <ele>30.391</ele>
        <time>2021-06-16T10:15:56Z</time>
      </trkpt>
      <trkpt lat="36.748835" lon="-3.090061">
        <ele>30.879</ele>
        <time>2021-06-16T10:15:57Z</time>
      </trkpt>
      <trkpt lat="36.748822" lon="-3.090456">
        <ele>32.213</ele>
        <time>2021-06-16T10:15:59Z</time>
      </trkpt>
      <trkpt lat="36.748787" lon="-3.090845">
        <ele>33.482</ele>
        <time>2021-06-16T10:16:01Z</time>
      </trkpt>
      <trkpt lat="36.748758" lon="-3.091037">
        <ele>34.645</ele>
        <time>2021-06-16T10:16:02Z</time>
      </trkpt>
      <trkpt lat="36.748719" lon="-3.091222">
        <ele>35.632</ele>
        <time>2021-06-16T10:16:03Z</time>
      </trkpt>
      <trkpt lat="36.748645" lon="-3.091595">
        <ele>36.399</ele>
        <time>2021-06-16T10:16:05Z</time>
      </trkpt>
      <trkpt lat="36.748601" lon="-3.091953">
        <ele>36.989</ele>
        <time>2021-06-16T10:16:07Z</time>
      </trkpt>
      <trkpt lat="36.748633" lon="-3.0923">
        <ele>38.065</ele>
        <time>2021-06-16T10:16:09Z</time>
      </trkpt>
      <trkpt lat="36.748678" lon="-3.092478">
        <ele>38.968</ele>
        <time>2021-06-16T10:16:10Z</time>
      </trkpt>
      <trkpt lat="36.748742" lon="-3.092643">
        <ele>39.914</ele>
        <time>2021-06-16T10:16:11Z</time>
      </trkpt>
      <trkpt lat="36.748935" lon="-3.092924">
        <ele>40.708</ele>
        <time>2021-06-16T10:16:13Z</time>
      </trkpt>
      <trkpt lat="36.749056" lon="-3.093044">
        <ele>41.333</ele>
        <time>2021-06-16T10:16:14Z</time>
      </trkpt>
      <trkpt lat="36.749318" lon="-3.093246">
        <ele>41.491</ele>
        <time>2021-06-16T10:16:16Z</time>
      </trkpt>
      <trkpt lat="36.749586" lon="-3.093433">
        <ele>42.285</ele>
        <time>2021-06-16T10:16:18Z</time>
      </trkpt>
      <trkpt lat="36.749725" lon="-3.093527">
        <ele>42.734</ele>
        <time>2021-06-16T10:16:19Z</time>
      </trkpt>
      <trkpt lat="36.749864" lon="-3.093622">
        <ele>43.377</ele>
        <time>2021-06-16T10:16:20Z</time>
      </trkpt>
      <trkpt lat="36.750133" lon="-3.093824">
        <ele>43.854</ele>
        <time>2021-06-16T10:16:22Z</time>
      </trkpt>
      <trkpt lat="36.750262" lon="-3.093936">
        <ele>44.311</ele>
        <time>2021-06-16T10:16:23Z</time>
      </trkpt>
      <trkpt lat="36.750482" lon="-3.094226">
        <ele>45.431</ele>
        <time>2021-06-16T10:16:25Z</time>
      </trkpt>
      <trkpt lat="36.750564" lon="-3.094403">
        <ele>45.562</ele>
        <time>2021-06-16T10:16:26Z</time>
      </trkpt>
      <trkpt lat="36.750632" lon="-3.094586">
        <ele>46.083</ele>
        <time>2021-06-16T10:16:27Z</time>
      </trkpt>
      <trkpt lat="36.750668" lon="-3.094977">
        <ele>47.011</ele>
        <time>2021-06-16T10:16:29Z</time>
      </trkpt>
      <trkpt lat="36.750639" lon="-3.095181">
        <ele>47.508</ele>
        <time>2021-06-16T10:16:30Z</time>
      </trkpt>
      <trkpt lat="36.750594" lon="-3.095383">
        <ele>48.233</ele>
        <time>2021-06-16T10:16:31Z</time>
      </trkpt>
      <trkpt lat="36.750456" lon="-3.095747">
        <ele>49.881</ele>
        <time>2021-06-16T10:16:33Z</time>
      </trkpt>
      <trkpt lat="36.750266" lon="-3.096077">
        <ele>52.045</ele>
        <time>2021-06-16T10:16:35Z</time>
      </trkpt>
      <trkpt lat="36.750083" lon="-3.096396">
        <ele>54.044</ele>
        <time>2021-06-16T10:16:37Z</time>
      </trkpt>
      <trkpt lat="36.750005" lon="-3.096564">
        <ele>55.877</ele>
        <time>2021-06-16T10:16:38Z</time>
      </trkpt>
      <trkpt lat="36.749885" lon="-3.096913">
        <ele>57.934</ele>
        <time>2021-06-16T10:16:40Z</time>
      </trkpt>
      <trkpt lat="36.749843" lon="-3.097099">
        <ele>59.881</ele>
        <time>2021-06-16T10:16:41Z</time>
      </trkpt>
      <trkpt lat="36.7498" lon="-3.097478">
        <ele>61.411</ele>
        <time>2021-06-16T10:16:43Z</time>
      </trkpt>
      <trkpt lat="36.749812" lon="-3.097849">
        <ele>63.254</ele>
        <time>2021-06-16T10:16:45Z</time>
      </trkpt>
      <trkpt lat="36.749849" lon="-3.098037">
        <ele>64.456</ele>
        <time>2021-06-16T10:16:46Z</time>
      </trkpt>
      <trkpt lat="36.74995" lon="-3.098416">
        <ele>65.511</ele>
        <time>2021-06-16T10:16:48Z</time>
      </trkpt>
      <trkpt lat="36.750056" lon="-3.098802">
        <ele>66.708</ele>
        <time>2021-06-16T10:16:50Z</time>
      </trkpt>
      <trkpt lat="36.750162" lon="-3.099197">
        <ele>68.362</ele>
        <time>2021-06-16T10:16:52Z</time>
      </trkpt>
      <trkpt lat="36.750214" lon="-3.099397">
        <ele>69.810</ele>
        <time>2021-06-16T10:16:53Z</time>
      </trkpt>
      <trkpt lat="36.750318" lon="-3.099791">
        <ele>71.344</ele>
        <time>2021-06-16T10:16:55Z</time>
      </trkpt>
      <trkpt lat="36.75037" lon="-3.099995">
        <ele>72.123</ele>
        <time>2021-06-16T10:16:56Z</time>
      </trkpt>
      <trkpt lat="36.750412" lon="-3.100199">
        <ele>72.996</ele>
        <time>2021-06-16T10:16:57Z</time>
      </trkpt>
      <trkpt lat="36.750455" lon="-3.100608">
        <ele>73.483</ele>
        <time>2021-06-16T10:16:59Z</time>
      </trkpt>
      <trkpt lat="36.750469" lon="-3.101015">
        <ele>73.960</ele>
        <time>2021-06-16T10:17:01Z</time>
      </trkpt>
      <trkpt lat="36.75048" lon="-3.10122">
        <ele>74.080</ele>
        <time>2021-06-16T10:17:02Z</time>
      </trkpt>
      <trkpt lat="36.750517" lon="-3.101631">
        <ele>74.358</ele>
        <time>2021-06-16T10:17:04Z</time>
      </trkpt>
      <trkpt lat="36.750614" lon="-3.102028">
        <ele>74.852</ele>
        <time>2021-06-16T10:17:06Z</time>
      </trkpt>
      <trkpt lat="36.750681" lon="-3.102215">
        <ele>75.817</ele>
        <time>2021-06-16T10:17:07Z</time>
      </trkpt>
      <trkpt lat="36.750857" lon="-3.102569">
        <ele>77.008</ele>
        <time>2021-06-16T10:17:09Z</time>
      </trkpt>
      <trkpt lat="36.751059" lon="-3.102917">
        <ele>78.282</ele>
        <time>2021-06-16T10:17:11Z</time>
      </trkpt>
      <trkpt lat="36.751165" lon="-3.103091">
        <ele>79.010</ele>
        <time>2021-06-16T10:17:12Z</time>
      </trkpt>
      <trkpt lat="36.751272" lon="-3.103263">
        <ele>79.374</ele>
        <time>2021-06-16T10:17:13Z</time>
      </trkpt>
      <trkpt lat="36.751478" lon="-3.10361">
        <ele>79.963</ele>
        <time>2021-06-16T10:17:15Z</time>
      </trkpt>
      <trkpt lat="36.751668" lon="-3.103957">
        <ele>79.966</ele>
        <time>2021-06-16T10:17:17Z</time>
      </trkpt>
      <trkpt lat="36.751775" lon="-3.104353">
        <ele>80.083</ele>
        <time>2021-06-16T10:17:19Z</time>
      </trkpt>
      <trkpt lat="36.751761" lon="-3.104785">
        <ele>80.490</ele>
        <time>2021-06-16T10:17:21Z</time>
      </trkpt>
      <trkpt lat="36.751639" lon="-3.105182">
        <ele>81.160</ele>
        <time>2021-06-16T10:17:23Z</time>
      </trkpt>
      <trkpt lat="36.751548" lon="-3.105368">
        <ele>81.598</ele>
        <time>2021-06-16T10:17:24Z</time>
      </trkpt>
      <trkpt lat="36.751363" lon="-3.105732">
        <ele>82.115</ele>
        <time>2021-06-16T10:17:26Z</time>
      </trkpt>
      <trkpt lat="36.751276" lon="-3.105912">
        <ele>82.626</ele>
        <time>2021-06-16T10:17:27Z</time>
      </trkpt>
      <trkpt lat="36.751172" lon="-3.106303">
        <ele>83.108</ele>
        <time>2021-06-16T10:17:29Z</time>
      </trkpt>
      <trkpt lat="36.751161" lon="-3.106723">
        <ele>83.626</ele>
        <time>2021-06-16T10:17:31Z</time>
      </trkpt>
      <trkpt lat="36.751227" lon="-3.107127">
        <ele>84.264</ele>
        <time>2021-06-16T10:17:33Z</time>
      </trkpt>
      <trkpt lat="36.751313" lon="-3.107306">
        <ele>84.698</ele>
        <time>2021-06-16T10:17:34Z</time>
      </trkpt>
      <trkpt lat="36.751423" lon="-3.107473">
        <ele>84.527</ele>
        <time>2021-06-16T10:17:35Z</time>
      </trkpt>
      <trkpt lat="36.751637" lon="-3.107805">
        <ele>84.160</ele>
        <time>2021-06-16T10:17:37Z</time>
      </trkpt>
      <trkpt lat="36.751849" lon="-3.108152">
        <ele>83.957</ele>
        <time>2021-06-16T10:17:39Z</time>
      </trkpt>
      <trkpt lat="36.752053" lon="-3.108523">
        <ele>83.644</ele>
        <time>2021-06-16T10:17:41Z</time>
      </trkpt>
      <trkpt lat="36.752223" lon="-3.108915">
        <ele>83.994</ele>
        <time>2021-06-16T10:17:43Z</time>
      </trkpt>
      <trkpt lat="36.752299" lon="-3.109352">
        <ele>84.796</ele>
        <time>2021-06-16T10:17:45Z</time>
      </trkpt>
      <trkpt lat="36.752249" lon="-3.109802">
        <ele>85.031</ele>
        <time>2021-06-16T10:17:47Z</time>
      </trkpt>
      <trkpt lat="36.752163" lon="-3.110223">
        <ele>85.424</ele>
        <time>2021-06-16T10:17:49Z</time>
      </trkpt>
      <trkpt lat="36.752107" lon="-3.110633">
        <ele>86.008</ele>
        <time>2021-06-16T10:17:51Z</time>
      </trkpt>
      <trkpt lat="36.752152" lon="-3.111048">
        <ele>86.046</ele>
        <time>2021-06-16T10:17:53Z</time>
      </trkpt>
      <trkpt lat="36.752201" lon="-3.111254">
        <ele>86.034</ele>
        <time>2021-06-16T10:17:54Z</time>
      </trkpt>
      <trkpt lat="36.752263" lon="-3.111453">
        <ele>86.388</ele>
        <time>2021-06-16T10:17:55Z</time>
      </trkpt>
      <trkpt lat="36.752333" lon="-3.111652">
        <ele>86.457</ele>
        <time>2021-06-16T10:17:56Z</time>
      </trkpt>
      <trkpt lat="36.752453" lon="-3.11205">
        <ele>86.430</ele>
        <time>2021-06-16T10:17:58Z</time>
      </trkpt>
      <trkpt lat="36.752524" lon="-3.112465">
        <ele>86.047</ele>
        <time>2021-06-16T10:18:00Z</time>
      </trkpt>
      <trkpt lat="36.752542" lon="-3.112677">
        <ele>85.714</ele>
        <time>2021-06-16T10:18:01Z</time>
      </trkpt>
      <trkpt lat="36.752566" lon="-3.11311">
        <ele>85.314</ele>
        <time>2021-06-16T10:18:03Z</time>
      </trkpt>
      <trkpt lat="36.752582" lon="-3.113328">
        <ele>85.331</ele>
        <time>2021-06-16T10:18:04Z</time>
      </trkpt>
      <trkpt lat="36.752596" lon="-3.11354">
        <ele>85.161</ele>
        <time>2021-06-16T10:18:05Z</time>
      </trkpt>
      <trkpt lat="36.75261" lon="-3.113961">
        <ele>84.707</ele>
        <time>2021-06-16T10:18:07Z</time>
      </trkpt>
      <trkpt lat="36.752591" lon="-3.11417">
        <ele>84.408</ele>
        <time>2021-06-16T10:18:08Z</time>
      </trkpt>
      <trkpt lat="36.752478" lon="-3.114578">
        <ele>84.250</ele>
        <time>2021-06-16T10:18:10Z</time>
      </trkpt>
      <trkpt lat="36.752287" lon="-3.114944">
        <ele>83.278</ele>
        <time>2021-06-16T10:18:12Z</time>
      </trkpt>
      <trkpt lat="36.7522" lon="-3.115135">
        <ele>82.532</ele>
        <time>2021-06-16T10:18:13Z</time>
      </trkpt>
      <trkpt lat="36.752136" lon="-3.11534">
        <ele>81.791</ele>
        <time>2021-06-16T10:18:14Z</time>
      </trkpt>
      <trkpt lat="36.752062" lon="-3.115756">
        <ele>80.494</ele>
        <time>2021-06-16T10:18:16Z</time>
      </trkpt>
      <trkpt lat="36.752021" lon="-3.115958">
        <ele>79.631</ele>
        <time>2021-06-16T10:18:17Z</time>
      </trkpt>
      <trkpt lat="36.751896" lon="-3.116333">
        <ele>78.198</ele>
        <time>2021-06-16T10:18:19Z</time>
      </trkpt>
      <trkpt lat="36.751813" lon="-3.116507">
        <ele>76.858</ele>
        <time>2021-06-16T10:18:20Z</time>
      </trkpt>
      <trkpt lat="36.751731" lon="-3.116681">
        <ele>75.957</ele>
        <time>2021-06-16T10:18:21Z</time>
      </trkpt>
      <trkpt lat="36.751661" lon="-3.116861">
        <ele>75.300</ele>
        <time>2021-06-16T10:18:22Z</time>
      </trkpt>
      <trkpt lat="36.751594" lon="-3.117258">
        <ele>73.920</ele>
        <time>2021-06-16T10:18:24Z</time>
      </trkpt>
      <trkpt lat="36.751598" lon="-3.117467">
        <ele>72.608</ele>
        <time>2021-06-16T10:18:25Z</time>
      </trkpt>
      <trkpt lat="36.751622" lon="-3.117683">
        <ele>71.042</ele>
        <time>2021-06-16T10:18:26Z</time>
      </trkpt>
      <trkpt lat="36.75168" lon="-3.11812">
        <ele>69.560</ele>
        <time>2021-06-16T10:18:28Z</time>
      </trkpt>
      <trkpt lat="36.75177" lon="-3.118562">
        <ele>67.654</ele>
        <time>2021-06-16T10:18:30Z</time>
      </trkpt>
      <trkpt lat="36.751864" lon="-3.119016">
        <ele>66.083</ele>
        <time>2021-06-16T10:18:32Z</time>
      </trkpt>
      <trkpt lat="36.751943" lon="-3.119468">
        <ele>64.316</ele>
        <time>2021-06-16T10:18:34Z</time>
      </trkpt>
      <trkpt lat="36.751975" lon="-3.119698">
        <ele>63.633</ele>
        <time>2021-06-16T10:18:35Z</time>
      </trkpt>
      <trkpt lat="36.751998" lon="-3.120157">
        <ele>62.640</ele>
        <time>2021-06-16T10:18:37Z</time>
      </trkpt>
      <trkpt lat="36.75198" lon="-3.120592">
        <ele>61.950</ele>
        <time>2021-06-16T10:18:39Z</time>
      </trkpt>
      <trkpt lat="36.751956" lon="-3.121004">
        <ele>61.031</ele>
        <time>2021-06-16T10:18:41Z</time>
      </trkpt>
      <trkpt lat="36.751928" lon="-3.121413">
        <ele>61.061</ele>
        <time>2021-06-16T10:18:43Z</time>
      </trkpt>
      <trkpt lat="36.751928" lon="-3.121799">
        <ele>61.807</ele>
        <time>2021-06-16T10:18:45Z</time>
      </trkpt>
      <trkpt lat="36.751958" lon="-3.121985">
        <ele>62.708</ele>
        <time>2021-06-16T10:18:46Z</time>
      </trkpt>
      <trkpt lat="36.752019" lon="-3.122168">
        <ele>63.910</ele>
        <time>2021-06-16T10:18:47Z</time>
      </trkpt>
      <trkpt lat="36.752091" lon="-3.122343">
        <ele>65.048</ele>
        <time>2021-06-16T10:18:48Z</time>
      </trkpt>
      <trkpt lat="36.752253" lon="-3.122688">
        <ele>66.462</ele>
        <time>2021-06-16T10:18:50Z</time>
      </trkpt>
      <trkpt lat="36.752342" lon="-3.122855">
        <ele>67.881</ele>
        <time>2021-06-16T10:18:51Z</time>
      </trkpt>
      <trkpt lat="36.752505" lon="-3.123192">
        <ele>69.874</ele>
        <time>2021-06-16T10:18:53Z</time>
      </trkpt>
      <trkpt lat="36.752567" lon="-3.123368">
        <ele>71.291</ele>
        <time>2021-06-16T10:18:54Z</time>
      </trkpt>
      <trkpt lat="36.752602" lon="-3.123556">
        <ele>73.098</ele>
        <time>2021-06-16T10:18:55Z</time>
      </trkpt>
      <trkpt lat="36.752609" lon="-3.12375">
        <ele>73.878</ele>
        <time>2021-06-16T10:18:56Z</time>
      </trkpt>
      <trkpt lat="36.752593" lon="-3.123942">
        <ele>74.295</ele>
        <time>2021-06-16T10:18:57Z</time>
      </trkpt>
      <trkpt lat="36.752516" lon="-3.124342">
        <ele>75.249</ele>
        <time>2021-06-16T10:18:59Z</time>
      </trkpt>
      <trkpt lat="36.752469" lon="-3.124545">
        <ele>75.923</ele>
        <time>2021-06-16T10:19:00Z</time>
      </trkpt>
      <trkpt lat="36.752395" lon="-3.124942">
        <ele>76.908</ele>
        <time>2021-06-16T10:19:02Z</time>
      </trkpt>
      <trkpt lat="36.75237" lon="-3.125142">
        <ele>77.486</ele>
        <time>2021-06-16T10:19:03Z</time>
      </trkpt>
      <trkpt lat="36.752361" lon="-3.125545">
        <ele>78.444</ele>
        <time>2021-06-16T10:19:05Z</time>
      </trkpt>
      <trkpt lat="36.752397" lon="-3.125952">
        <ele>79.028</ele>
        <time>2021-06-16T10:19:07Z</time>
      </trkpt>
      <trkpt lat="36.752435" lon="-3.126156">
        <ele>79.197</ele>
        <time>2021-06-16T10:19:08Z</time>
      </trkpt>
      <trkpt lat="36.752484" lon="-3.126362">
        <ele>79.470</ele>
        <time>2021-06-16T10:19:09Z</time>
      </trkpt>
      <trkpt lat="36.752534" lon="-3.126567">
        <ele>79.317</ele>
        <time>2021-06-16T10:19:10Z</time>
      </trkpt>
      <trkpt lat="36.752626" lon="-3.126985">
        <ele>79.424</ele>
        <time>2021-06-16T10:19:12Z</time>
      </trkpt>
      <trkpt lat="36.752671" lon="-3.127196">
        <ele>79.814</ele>
        <time>2021-06-16T10:19:13Z</time>
      </trkpt>
      <trkpt lat="36.752763" lon="-3.127603">
        <ele>79.766</ele>
        <time>2021-06-16T10:19:15Z</time>
      </trkpt>
      <trkpt lat="36.752879" lon="-3.128013">
        <ele>79.629</ele>
        <time>2021-06-16T10:19:17Z</time>
      </trkpt>
      <trkpt lat="36.753028" lon="-3.128392">
        <ele>78.921</ele>
        <time>2021-06-16T10:19:19Z</time>
      </trkpt>
      <trkpt lat="36.7531" lon="-3.128585">
        <ele>78.308</ele>
        <time>2021-06-16T10:19:20Z</time>
      </trkpt>
      <trkpt lat="36.75316" lon="-3.128781">
        <ele>77.483</ele>
        <time>2021-06-16T10:19:21Z</time>
      </trkpt>
      <trkpt lat="36.75323" lon="-3.129196">
        <ele>76.511</ele>
        <time>2021-06-16T10:19:23Z</time>
      </trkpt>
      <trkpt lat="36.753232" lon="-3.129413">
        <ele>75.735</ele>
        <time>2021-06-16T10:19:24Z</time>
      </trkpt>
      <trkpt lat="36.753156" lon="-3.129842">
        <ele>75.814</ele>
        <time>2021-06-16T10:19:26Z</time>
      </trkpt>
      <trkpt lat="36.753081" lon="-3.130048">
        <ele>76.267</ele>
        <time>2021-06-16T10:19:27Z</time>
      </trkpt>
      <trkpt lat="36.752915" lon="-3.130447">
        <ele>76.974</ele>
        <time>2021-06-16T10:19:29Z</time>
      </trkpt>
      <trkpt lat="36.752855" lon="-3.130656">
        <ele>77.321</ele>
        <time>2021-06-16T10:19:30Z</time>
      </trkpt>
      <trkpt lat="36.752786" lon="-3.1311">
        <ele>77.831</ele>
        <time>2021-06-16T10:19:32Z</time>
      </trkpt>
      <trkpt lat="36.752776" lon="-3.13155">
        <ele>78.775</ele>
        <time>2021-06-16T10:19:34Z</time>
      </trkpt>
      <trkpt lat="36.752767" lon="-3.131773">
        <ele>78.828</ele>
        <time>2021-06-16T10:19:35Z</time>
      </trkpt>
      <trkpt lat="36.752704" lon="-3.132221">
        <ele>80.320</ele>
        <time>2021-06-16T10:19:37Z</time>
      </trkpt>
      <trkpt lat="36.75267" lon="-3.132441">
        <ele>81.808</ele>
        <time>2021-06-16T10:19:38Z</time>
      </trkpt>
      <trkpt lat="36.752651" lon="-3.132655">
        <ele>83.024</ele>
        <time>2021-06-16T10:19:39Z</time>
      </trkpt>
      <trkpt lat="36.752654" lon="-3.132864">
        <ele>84.022</ele>
        <time>2021-06-16T10:19:40Z</time>
      </trkpt>
      <trkpt lat="36.752712" lon="-3.133277">
        <ele>85.776</ele>
        <time>2021-06-16T10:19:42Z</time>
      </trkpt>
      <trkpt lat="36.752737" lon="-3.13348">
        <ele>86.735</ele>
        <time>2021-06-16T10:19:43Z</time>
      </trkpt>
      <trkpt lat="36.752734" lon="-3.133683">
        <ele>87.228</ele>
        <time>2021-06-16T10:19:44Z</time>
      </trkpt>
      <trkpt lat="36.75271" lon="-3.133887">
        <ele>88.335</ele>
        <time>2021-06-16T10:19:45Z</time>
      </trkpt>
      <trkpt lat="36.752667" lon="-3.134093">
        <ele>89.362</ele>
        <time>2021-06-16T10:19:46Z</time>
      </trkpt>
      <trkpt lat="36.752606" lon="-3.134296">
        <ele>89.822</ele>
        <time>2021-06-16T10:19:47Z</time>
      </trkpt>
      <trkpt lat="36.752445" lon="-3.134687">
        <ele>91.019</ele>
        <time>2021-06-16T10:19:49Z</time>
      </trkpt>
      <trkpt lat="36.752335" lon="-3.134866">
        <ele>92.009</ele>
        <time>2021-06-16T10:19:50Z</time>
      </trkpt>
      <trkpt lat="36.752101" lon="-3.135187">
        <ele>92.919</ele>
        <time>2021-06-16T10:19:52Z</time>
      </trkpt>
      <trkpt lat="36.751977" lon="-3.135347">
        <ele>93.408</ele>
        <time>2021-06-16T10:19:53Z</time>
      </trkpt>
      <trkpt lat="36.751746" lon="-3.135672">
        <ele>94.618</ele>
        <time>2021-06-16T10:19:55Z</time>
      </trkpt>
      <trkpt lat="36.751543" lon="-3.136024">
        <ele>96.036</ele>
        <time>2021-06-16T10:19:57Z</time>
      </trkpt>
      <trkpt lat="36.751381" lon="-3.136392">
        <ele>97.360</ele>
        <time>2021-06-16T10:19:59Z</time>
      </trkpt>
      <trkpt lat="36.751249" lon="-3.136771">
        <ele>98.319</ele>
        <time>2021-06-16T10:20:01Z</time>
      </trkpt>
      <trkpt lat="36.751149" lon="-3.137172">
        <ele>99.962</ele>
        <time>2021-06-16T10:20:03Z</time>
      </trkpt>
      <trkpt lat="36.75108" lon="-3.137578">
        <ele>101.329</ele>
        <time>2021-06-16T10:20:05Z</time>
      </trkpt>
      <trkpt lat="36.751053" lon="-3.137786">
        <ele>102.536</ele>
        <time>2021-06-16T10:20:06Z</time>
      </trkpt>
      <trkpt lat="36.751027" lon="-3.137994">
        <ele>103.356</ele>
        <time>2021-06-16T10:20:07Z</time>
      </trkpt>
      <trkpt lat="36.750977" lon="-3.138409">
        <ele>104.183</ele>
        <time>2021-06-16T10:20:09Z</time>
      </trkpt>
      <trkpt lat="36.750953" lon="-3.138622">
        <ele>104.625</ele>
        <time>2021-06-16T10:20:10Z</time>
      </trkpt>
      <trkpt lat="36.750903" lon="-3.139044">
        <ele>104.917</ele>
        <time>2021-06-16T10:20:12Z</time>
      </trkpt>
      <trkpt lat="36.750879" lon="-3.139256">
        <ele>104.908</ele>
        <time>2021-06-16T10:20:13Z</time>
      </trkpt>
      <trkpt lat="36.750857" lon="-3.139463">
        <ele>104.715</ele>
        <time>2021-06-16T10:20:14Z</time>
      </trkpt>
      <trkpt lat="36.750833" lon="-3.13967">
        <ele>104.873</ele>
        <time>2021-06-16T10:20:15Z</time>
      </trkpt>
      <trkpt lat="36.750787" lon="-3.14008">
        <ele>104.557</ele>
        <time>2021-06-16T10:20:17Z</time>
      </trkpt>
      <trkpt lat="36.750777" lon="-3.140284">
        <ele>104.326</ele>
        <time>2021-06-16T10:20:18Z</time>
      </trkpt>
      <trkpt lat="36.750807" lon="-3.140682">
        <ele>104.189</ele>
        <time>2021-06-16T10:20:20Z</time>
      </trkpt>
      <trkpt lat="36.75092" lon="-3.141056">
        <ele>103.646</ele>
        <time>2021-06-16T10:20:22Z</time>
      </trkpt>
      <trkpt lat="36.751005" lon="-3.141221">
        <ele>103.013</ele>
        <time>2021-06-16T10:20:23Z</time>
      </trkpt>
      <trkpt lat="36.751227" lon="-3.141478">
        <ele>101.973</ele>
        <time>2021-06-16T10:20:25Z</time>
      </trkpt>
      <trkpt lat="36.751349" lon="-3.141582">
        <ele>101.125</ele>
        <time>2021-06-16T10:20:26Z</time>
      </trkpt>
      <trkpt lat="36.751599" lon="-3.141791">
        <ele>100.026</ele>
        <time>2021-06-16T10:20:28Z</time>
      </trkpt>
      <trkpt lat="36.751724" lon="-3.141906">
        <ele>98.708</ele>
        <time>2021-06-16T10:20:29Z</time>
      </trkpt>
      <trkpt lat="36.751849" lon="-3.142023">
        <ele>97.408</ele>
        <time>2021-06-16T10:20:30Z</time>
      </trkpt>
      <trkpt lat="36.752095" lon="-3.142256">
        <ele>96.469</ele>
        <time>2021-06-16T10:20:32Z</time>
      </trkpt>
      <trkpt lat="36.752336" lon="-3.142478">
        <ele>95.517</ele>
        <time>2021-06-16T10:20:34Z</time>
      </trkpt>
      <trkpt lat="36.752572" lon="-3.142699">
        <ele>94.651</ele>
        <time>2021-06-16T10:20:36Z</time>
      </trkpt>
      <trkpt lat="36.752684" lon="-3.142798">
        <ele>93.930</ele>
        <time>2021-06-16T10:20:37Z</time>
      </trkpt>
      <trkpt lat="36.752884" lon="-3.142973">
        <ele>93.573</ele>
        <time>2021-06-16T10:20:39Z</time>
      </trkpt>
      <trkpt lat="36.75298" lon="-3.143061">
        <ele>93.740</ele>
        <time>2021-06-16T10:20:40Z</time>
      </trkpt>
      <trkpt lat="36.753066" lon="-3.143139">
        <ele>94.347</ele>
        <time>2021-06-16T10:20:41Z</time>
      </trkpt>
      <trkpt lat="36.753203" lon="-3.143254">
        <ele>94.827</ele>
        <time>2021-06-16T10:20:43Z</time>
      </trkpt>
      <trkpt lat="36.753258" lon="-3.143303">
        <ele>94.791</ele>
        <time>2021-06-16T10:20:44Z</time>
      </trkpt>
      <trkpt lat="36.753367" lon="-3.143396">
        <ele>95.081</ele>
        <time>2021-06-16T10:20:46Z</time>
      </trkpt>
      <trkpt lat="36.753425" lon="-3.143449">
        <ele>95.019</ele>
        <time>2021-06-16T10:20:47Z</time>
      </trkpt>
      <trkpt lat="36.753489" lon="-3.143508">
        <ele>95.208</ele>
        <time>2021-06-16T10:20:48Z</time>
      </trkpt>
      <trkpt lat="36.753557" lon="-3.143569">
        <ele>95.476</ele>
        <time>2021-06-16T10:20:49Z</time>
      </trkpt>
      <trkpt lat="36.753693" lon="-3.143703">
        <ele>96.044</ele>
        <time>2021-06-16T10:20:51Z</time>
      </trkpt>
      <trkpt lat="36.753752" lon="-3.143758">
        <ele>96.578</ele>
        <time>2021-06-16T10:20:52Z</time>
      </trkpt>
      <trkpt lat="36.753828" lon="-3.143836">
        <ele>97.467</ele>
        <time>2021-06-16T10:20:54Z</time>
      </trkpt>
      <trkpt lat="36.75386" lon="-3.143912">
        <ele>97.450</ele>
        <time>2021-06-16T10:20:57Z</time>
      </trkpt>
      <trkpt lat="36.753792" lon="-3.143896">
        <ele>97.087</ele>
        <time>2021-06-16T10:20:59Z</time>
      </trkpt>
      <trkpt lat="36.753708" lon="-3.143784">
        <ele>96.884</ele>
        <time>2021-06-16T10:21:01Z</time>
      </trkpt>
      <trkpt lat="36.753661" lon="-3.143723">
        <ele>96.334</ele>
        <time>2021-06-16T10:21:02Z</time>
      </trkpt>
      <trkpt lat="36.753594" lon="-3.143654">
        <ele>96.076</ele>
        <time>2021-06-16T10:21:03Z</time>
      </trkpt>
      <trkpt lat="36.753425" lon="-3.143497">
        <ele>95.690</ele>
        <time>2021-06-16T10:21:05Z</time>
      </trkpt>
      <trkpt lat="36.75333" lon="-3.143407">
        <ele>95.419</ele>
        <time>2021-06-16T10:21:06Z</time>
      </trkpt>
      <trkpt lat="36.753231" lon="-3.143313">
        <ele>95.308</ele>
        <time>2021-06-16T10:21:07Z</time>
      </trkpt>
      <trkpt lat="36.753024" lon="-3.143118">
        <ele>95.414</ele>
        <time>2021-06-16T10:21:09Z</time>
      </trkpt>
      <trkpt lat="36.752923" lon="-3.14302">
        <ele>94.982</ele>
        <time>2021-06-16T10:21:10Z</time>
      </trkpt>
      <trkpt lat="36.752729" lon="-3.142843">
        <ele>94.356</ele>
        <time>2021-06-16T10:21:12Z</time>
      </trkpt>
      <trkpt lat="36.752639" lon="-3.142763">
        <ele>93.725</ele>
        <time>2021-06-16T10:21:13Z</time>
      </trkpt>
      <trkpt lat="36.752555" lon="-3.142689">
        <ele>93.418</ele>
        <time>2021-06-16T10:21:14Z</time>
      </trkpt>
      <trkpt lat="36.752402" lon="-3.142562">
        <ele>93.455</ele>
        <time>2021-06-16T10:21:16Z</time>
      </trkpt>
      <trkpt lat="36.752329" lon="-3.142517">
        <ele>93.212</ele>
        <time>2021-06-16T10:21:17Z</time>
      </trkpt>
      <trkpt lat="36.752254" lon="-3.142498">
        <ele>93.072</ele>
        <time>2021-06-16T10:21:18Z</time>
      </trkpt>
      <trkpt lat="36.752102" lon="-3.14256">
        <ele>93.074</ele>
        <time>2021-06-16T10:21:20Z</time>
      </trkpt>
      <trkpt lat="36.752035" lon="-3.14264">
        <ele>92.956</ele>
        <time>2021-06-16T10:21:21Z</time>
      </trkpt>
      <trkpt lat="36.751972" lon="-3.142861">
        <ele>92.021</ele>
        <time>2021-06-16T10:21:23Z</time>
      </trkpt>
      <trkpt lat="36.751981" lon="-3.142985">
        <ele>91.008</ele>
        <time>2021-06-16T10:21:24Z</time>
      </trkpt>
      <trkpt lat="36.752048" lon="-3.143231">
        <ele>90.774</ele>
        <time>2021-06-16T10:21:26Z</time>
      </trkpt>
      <trkpt lat="36.752187" lon="-3.143451">
        <ele>89.682</ele>
        <time>2021-06-16T10:21:28Z</time>
      </trkpt>
      <trkpt lat="36.752386" lon="-3.14361">
        <ele>88.396</ele>
        <time>2021-06-16T10:21:30Z</time>
      </trkpt>
      <trkpt lat="36.75259" lon="-3.1437">
        <ele>86.595</ele>
        <time>2021-06-16T10:21:32Z</time>
      </trkpt>
      <trkpt lat="36.75275" lon="-3.143802">
        <ele>85.298</ele>
        <time>2021-06-16T10:21:34Z</time>
      </trkpt>
      <trkpt lat="36.752795" lon="-3.143887">
        <ele>83.915</ele>
        <time>2021-06-16T10:21:35Z</time>
      </trkpt>
      <trkpt lat="36.752813" lon="-3.143992">
        <ele>83.152</ele>
        <time>2021-06-16T10:21:36Z</time>
      </trkpt>
      <trkpt lat="36.752775" lon="-3.144242">
        <ele>82.062</ele>
        <time>2021-06-16T10:21:38Z</time>
      </trkpt>
      <trkpt lat="36.752696" lon="-3.144509">
        <ele>81.228</ele>
        <time>2021-06-16T10:21:40Z</time>
      </trkpt>
      <trkpt lat="36.752669" lon="-3.144652">
        <ele>80.489</ele>
        <time>2021-06-16T10:21:41Z</time>
      </trkpt>
      <trkpt lat="36.752655" lon="-3.144946">
        <ele>79.417</ele>
        <time>2021-06-16T10:21:43Z</time>
      </trkpt>
      <trkpt lat="36.752683" lon="-3.145084">
        <ele>78.508</ele>
        <time>2021-06-16T10:21:44Z</time>
      </trkpt>
      <trkpt lat="36.752795" lon="-3.145342">
        <ele>77.599</ele>
        <time>2021-06-16T10:21:46Z</time>
      </trkpt>
      <trkpt lat="36.752888" lon="-3.145445">
        <ele>76.317</ele>
        <time>2021-06-16T10:21:47Z</time>
      </trkpt>
      <trkpt lat="36.753116" lon="-3.145603">
        <ele>74.921</ele>
        <time>2021-06-16T10:21:49Z</time>
      </trkpt>
      <trkpt lat="36.753241" lon="-3.145661">
        <ele>73.690</ele>
        <time>2021-06-16T10:21:50Z</time>
      </trkpt>
      <trkpt lat="36.753371" lon="-3.145715">
        <ele>72.333</ele>
        <time>2021-06-16T10:21:51Z</time>
      </trkpt>
      <trkpt lat="36.753623" lon="-3.145812">
        <ele>70.720</ele>
        <time>2021-06-16T10:21:53Z</time>
      </trkpt>
      <trkpt lat="36.753861" lon="-3.145914">
        <ele>68.967</ele>
        <time>2021-06-16T10:21:55Z</time>
      </trkpt>
      <trkpt lat="36.754064" lon="-3.146032">
        <ele>67.747</ele>
        <time>2021-06-16T10:21:57Z</time>
      </trkpt>
      <trkpt lat="36.754256" lon="-3.146166">
        <ele>66.718</ele>
        <time>2021-06-16T10:21:59Z</time>
      </trkpt>
      <trkpt lat="36.754456" lon="-3.14628">
        <ele>65.398</ele>
        <time>2021-06-16T10:22:01Z</time>
      </trkpt>
      <trkpt lat="36.754669" lon="-3.146326">
        <ele>64.117</ele>
        <time>2021-06-16T10:22:03Z</time>
      </trkpt>
      <trkpt lat="36.754759" lon="-3.146377">
        <ele>63.508</ele>
        <time>2021-06-16T10:22:04Z</time>
      </trkpt>
      <trkpt lat="36.754834" lon="-3.146458">
        <ele>62.538</ele>
        <time>2021-06-16T10:22:05Z</time>
      </trkpt>
      <trkpt lat="36.754946" lon="-3.14669">
        <ele>61.766</ele>
        <time>2021-06-16T10:22:07Z</time>
      </trkpt>
      <trkpt lat="36.754993" lon="-3.14698">
        <ele>60.950</ele>
        <time>2021-06-16T10:22:09Z</time>
      </trkpt>
      <trkpt lat="36.75498" lon="-3.147132">
        <ele>59.959</ele>
        <time>2021-06-16T10:22:10Z</time>
      </trkpt>
      <trkpt lat="36.754847" lon="-3.147398">
        <ele>59.122</ele>
        <time>2021-06-16T10:22:12Z</time>
      </trkpt>
      <trkpt lat="36.754755" lon="-3.147508">
        <ele>58.439</ele>
        <time>2021-06-16T10:22:13Z</time>
      </trkpt>
      <trkpt lat="36.754645" lon="-3.147595">
        <ele>57.756</ele>
        <time>2021-06-16T10:22:14Z</time>
      </trkpt>
      <trkpt lat="36.754517" lon="-3.147654">
        <ele>56.976</ele>
        <time>2021-06-16T10:22:15Z</time>
      </trkpt>
      <trkpt lat="36.754252" lon="-3.147668">
        <ele>56.124</ele>
        <time>2021-06-16T10:22:17Z</time>
      </trkpt>
      <trkpt lat="36.754128" lon="-3.147624">
        <ele>55.604</ele>
        <time>2021-06-16T10:22:18Z</time>
      </trkpt>
      <trkpt lat="36.75401" lon="-3.147568">
        <ele>55.714</ele>
        <time>2021-06-16T10:22:19Z</time>
      </trkpt>
      <trkpt lat="36.753906" lon="-3.147503">
        <ele>55.508</ele>
        <time>2021-06-16T10:22:20Z</time>
      </trkpt>
      <trkpt lat="36.753724" lon="-3.147313">
        <ele>55.669</ele>
        <time>2021-06-16T10:22:22Z</time>
      </trkpt>
      <trkpt lat="36.753633" lon="-3.147216">
        <ele>55.737</ele>
        <time>2021-06-16T10:22:23Z</time>
      </trkpt>
      <trkpt lat="36.753534" lon="-3.147133">
        <ele>55.611</ele>
        <time>2021-06-16T10:22:24Z</time>
      </trkpt>
      <trkpt lat="36.753291" lon="-3.146985">
        <ele>55.220</ele>
        <time>2021-06-16T10:22:26Z</time>
      </trkpt>
      <trkpt lat="36.753159" lon="-3.146927">
        <ele>54.873</ele>
        <time>2021-06-16T10:22:27Z</time>
      </trkpt>
      <trkpt lat="36.752871" lon="-3.146849">
        <ele>55.010</ele>
        <time>2021-06-16T10:22:29Z</time>
      </trkpt>
      <trkpt lat="36.752728" lon="-3.146813">
        <ele>55.177</ele>
        <time>2021-06-16T10:22:30Z</time>
      </trkpt>
      <trkpt lat="36.752437" lon="-3.146742">
        <ele>55.427</ele>
        <time>2021-06-16T10:22:32Z</time>
      </trkpt>
      <trkpt lat="36.752289" lon="-3.146705">
        <ele>55.223</ele>
        <time>2021-06-16T10:22:33Z</time>
      </trkpt>
      <trkpt lat="36.75199" lon="-3.146658">
        <ele>54.583</ele>
        <time>2021-06-16T10:22:35Z</time>
      </trkpt>
      <trkpt lat="36.751702" lon="-3.14666">
        <ele>51.911</ele>
        <time>2021-06-16T10:22:37Z</time>
      </trkpt>
      <trkpt lat="36.751552" lon="-3.146665">
        <ele>49.308</ele>
        <time>2021-06-16T10:22:38Z</time>
      </trkpt>
      <trkpt lat="36.751255" lon="-3.146686">
        <ele>47.069</ele>
        <time>2021-06-16T10:22:40Z</time>
      </trkpt>
      <trkpt lat="36.750948" lon="-3.146771">
        <ele>44.757</ele>
        <time>2021-06-16T10:22:42Z</time>
      </trkpt>
      <trkpt lat="36.750651" lon="-3.146902">
        <ele>41.961</ele>
        <time>2021-06-16T10:22:44Z</time>
      </trkpt>
      <trkpt lat="36.750372" lon="-3.147069">
        <ele>38.930</ele>
        <time>2021-06-16T10:22:46Z</time>
      </trkpt>
      <trkpt lat="36.750241" lon="-3.14717">
        <ele>36.223</ele>
        <time>2021-06-16T10:22:47Z</time>
      </trkpt>
      <trkpt lat="36.750114" lon="-3.147277">
        <ele>34.260</ele>
        <time>2021-06-16T10:22:48Z</time>
      </trkpt>
      <trkpt lat="36.749869" lon="-3.147512">
        <ele>31.897</ele>
        <time>2021-06-16T10:22:50Z</time>
      </trkpt>
      <trkpt lat="36.749754" lon="-3.147644">
        <ele>29.717</ele>
        <time>2021-06-16T10:22:51Z</time>
      </trkpt>
      <trkpt lat="36.749532" lon="-3.147925">
        <ele>27.951</ele>
        <time>2021-06-16T10:22:53Z</time>
      </trkpt>
      <trkpt lat="36.749322" lon="-3.148218">
        <ele>25.901</ele>
        <time>2021-06-16T10:22:55Z</time>
      </trkpt>
      <trkpt lat="36.749218" lon="-3.148366">
        <ele>24.111</ele>
        <time>2021-06-16T10:22:56Z</time>
      </trkpt>
      <trkpt lat="36.749115" lon="-3.148518">
        <ele>22.708</ele>
        <time>2021-06-16T10:22:57Z</time>
      </trkpt>
      <trkpt lat="36.748918" lon="-3.148826">
        <ele>21.382</ele>
        <time>2021-06-16T10:22:59Z</time>
      </trkpt>
      <trkpt lat="36.74872" lon="-3.14913">
        <ele>19.430</ele>
        <time>2021-06-16T10:23:01Z</time>
      </trkpt>
      <trkpt lat="36.748625" lon="-3.149286">
        <ele>17.414</ele>
        <time>2021-06-16T10:23:02Z</time>
      </trkpt>
      <trkpt lat="36.748467" lon="-3.149609">
        <ele>15.673</ele>
        <time>2021-06-16T10:23:04Z</time>
      </trkpt>
      <trkpt lat="36.748397" lon="-3.149777">
        <ele>14.036</ele>
        <time>2021-06-16T10:23:05Z</time>
      </trkpt>
      <trkpt lat="36.748285" lon="-3.150122">
        <ele>12.583</ele>
        <time>2021-06-16T10:23:07Z</time>
      </trkpt>
      <trkpt lat="36.748223" lon="-3.150479">
        <ele>11.340</ele>
        <time>2021-06-16T10:23:09Z</time>
      </trkpt>
      <trkpt lat="36.748204" lon="-3.150657">
        <ele>10.580</ele>
        <time>2021-06-16T10:23:10Z</time>
      </trkpt>
      <trkpt lat="36.748185" lon="-3.151001">
        <ele>9.551</ele>
        <time>2021-06-16T10:23:12Z</time>
      </trkpt>
      <trkpt lat="36.748182" lon="-3.15117">
        <ele>8.601</ele>
        <time>2021-06-16T10:23:13Z</time>
      </trkpt>
      <trkpt lat="36.748187" lon="-3.151334">
        <ele>7.811</ele>
        <time>2021-06-16T10:23:14Z</time>
      </trkpt>
      <trkpt lat="36.748195" lon="-3.151655">
        <ele>7.108</ele>
        <time>2021-06-16T10:23:16Z</time>
      </trkpt>
      <trkpt lat="36.748199" lon="-3.151951">
        <ele>6.162</ele>
        <time>2021-06-16T10:23:18Z</time>
      </trkpt>
      <trkpt lat="36.748202" lon="-3.152085">
        <ele>5.450</ele>
        <time>2021-06-16T10:23:19Z</time>
      </trkpt>
      <trkpt lat="36.748198" lon="-3.15229">
        <ele>4.894</ele>
        <time>2021-06-16T10:23:21Z</time>
      </trkpt>
      <trkpt lat="36.748198" lon="-3.15236">
        <ele>4.883</ele>
        <time>2021-06-16T10:23:22Z</time>
      </trkpt>
      <trkpt lat="36.748199" lon="-3.152419">
        <ele>4.876</ele>
        <time>2021-06-16T10:23:23Z</time>
      </trkpt>
      <trkpt lat="36.7482" lon="-3.152539">
        <ele>4.863</ele>
        <time>2021-06-16T10:23:25Z</time>
      </trkpt>
      <trkpt lat="36.748202" lon="-3.152618">
        <ele>4.990</ele>
        <time>2021-06-16T10:23:26Z</time>
      </trkpt>
      <trkpt lat="36.748217" lon="-3.15278">
        <ele>4.540</ele>
        <time>2021-06-16T10:23:28Z</time>
      </trkpt>
      <trkpt lat="36.748216" lon="-3.152886">
        <ele>4.339</ele>
        <time>2021-06-16T10:23:29Z</time>
      </trkpt>
      <trkpt lat="36.748212" lon="-3.153109">
        <ele>3.701</ele>
        <time>2021-06-16T10:23:31Z</time>
      </trkpt>
      <trkpt lat="36.748208" lon="-3.153212">
        <ele>3.921</ele>
        <time>2021-06-16T10:23:32Z</time>
      </trkpt>
      <trkpt lat="36.748203" lon="-3.153412">
        <ele>4.508</ele>
        <time>2021-06-16T10:23:34Z</time>
      </trkpt>
      <trkpt lat="36.748199" lon="-3.153572">
        <ele>4.790</ele>
        <time>2021-06-16T10:23:36Z</time>
      </trkpt>
      <trkpt lat="36.748198" lon="-3.153642">
        <ele>4.748</ele>
        <time>2021-06-16T10:23:37Z</time>
      </trkpt>
      <trkpt lat="36.748191" lon="-3.153719">
        <ele>4.842</ele>
        <time>2021-06-16T10:23:38Z</time>
      </trkpt>
      <trkpt lat="36.748185" lon="-3.153811">
        <ele>5.381</ele>
        <time>2021-06-16T10:23:39Z</time>
      </trkpt>
      <trkpt lat="36.748173" lon="-3.154017">
        <ele>5.254</ele>
        <time>2021-06-16T10:23:41Z</time>
      </trkpt>
      <trkpt lat="36.748169" lon="-3.154123">
        <ele>5.491</ele>
        <time>2021-06-16T10:23:42Z</time>
      </trkpt>
      <trkpt lat="36.748167" lon="-3.154349">
        <ele>5.418</ele>
        <time>2021-06-16T10:23:44Z</time>
      </trkpt>
      <trkpt lat="36.748161" lon="-3.154465">
        <ele>5.278</ele>
        <time>2021-06-16T10:23:45Z</time>
      </trkpt>
      <trkpt lat="36.748157" lon="-3.154573">
        <ele>5.957</ele>
        <time>2021-06-16T10:23:46Z</time>
      </trkpt>
      <trkpt lat="36.748157" lon="-3.154677">
        <ele>6.700</ele>
        <time>2021-06-16T10:23:47Z</time>
      </trkpt>
      <trkpt lat="36.748153" lon="-3.154789">
        <ele>7.320</ele>
        <time>2021-06-16T10:23:48Z</time>
      </trkpt>
      <trkpt lat="36.748141" lon="-3.155027">
        <ele>7.508</ele>
        <time>2021-06-16T10:23:50Z</time>
      </trkpt>
      <trkpt lat="36.74814" lon="-3.155138">
        <ele>8.052</ele>
        <time>2021-06-16T10:23:51Z</time>
      </trkpt>
      <trkpt lat="36.748144" lon="-3.155305">
        <ele>7.760</ele>
        <time>2021-06-16T10:23:53Z</time>
      </trkpt>
      <trkpt lat="36.748132" lon="-3.155427">
        <ele>8.044</ele>
        <time>2021-06-16T10:23:55Z</time>
      </trkpt>
      <trkpt lat="36.748116" lon="-3.155583">
        <ele>8.393</ele>
        <time>2021-06-16T10:23:57Z</time>
      </trkpt>
      <trkpt lat="36.748096" lon="-3.155785">
        <ele>8.886</ele>
        <time>2021-06-16T10:23:59Z</time>
      </trkpt>
      <trkpt lat="36.748092" lon="-3.155895">
        <ele>9.743</ele>
        <time>2021-06-16T10:24:00Z</time>
      </trkpt>
      <trkpt lat="36.748061" lon="-3.156134">
        <ele>10.330</ele>
        <time>2021-06-16T10:24:02Z</time>
      </trkpt>
      <trkpt lat="36.748042" lon="-3.156261">
        <ele>10.310</ele>
        <time>2021-06-16T10:24:03Z</time>
      </trkpt>
      <trkpt lat="36.748025" lon="-3.156393">
        <ele>10.811</ele>
        <time>2021-06-16T10:24:04Z</time>
      </trkpt>
      <trkpt lat="36.747999" lon="-3.156527">
        <ele>10.821</ele>
        <time>2021-06-16T10:24:05Z</time>
      </trkpt>
      <trkpt lat="36.747942" lon="-3.156797">
        <ele>10.203</ele>
        <time>2021-06-16T10:24:07Z</time>
      </trkpt>
      <trkpt lat="36.747915" lon="-3.156935">
        <ele>10.108</ele>
        <time>2021-06-16T10:24:08Z</time>
      </trkpt>
      <trkpt lat="36.747891" lon="-3.157076">
        <ele>9.238</ele>
        <time>2021-06-16T10:24:09Z</time>
      </trkpt>
      <trkpt lat="36.747843" lon="-3.157358">
        <ele>8.196</ele>
        <time>2021-06-16T10:24:11Z</time>
      </trkpt>
      <trkpt lat="36.74782" lon="-3.157495">
        <ele>7.260</ele>
        <time>2021-06-16T10:24:12Z</time>
      </trkpt>
      <trkpt lat="36.747776" lon="-3.15776">
        <ele>6.789</ele>
        <time>2021-06-16T10:24:14Z</time>
      </trkpt>
      <trkpt lat="36.747751" lon="-3.157895">
        <ele>6.562</ele>
        <time>2021-06-16T10:24:15Z</time>
      </trkpt>
      <trkpt lat="36.747692" lon="-3.158178">
        <ele>6.839</ele>
        <time>2021-06-16T10:24:17Z</time>
      </trkpt>
      <trkpt lat="36.747661" lon="-3.158324">
        <ele>7.316</ele>
        <time>2021-06-16T10:24:18Z</time>
      </trkpt>
      <trkpt lat="36.747631" lon="-3.15847">
        <ele>7.816</ele>
        <time>2021-06-16T10:24:19Z</time>
      </trkpt>
      <trkpt lat="36.747576" lon="-3.158766">
        <ele>7.667</ele>
        <time>2021-06-16T10:24:21Z</time>
      </trkpt>
      <trkpt lat="36.747525" lon="-3.159058">
        <ele>7.481</ele>
        <time>2021-06-16T10:24:23Z</time>
      </trkpt>
      <trkpt lat="36.74747" lon="-3.159352">
        <ele>7.719</ele>
        <time>2021-06-16T10:24:25Z</time>
      </trkpt>
      <trkpt lat="36.74744" lon="-3.159503">
        <ele>8.008</ele>
        <time>2021-06-16T10:24:26Z</time>
      </trkpt>
      <trkpt lat="36.747386" lon="-3.159811">
        <ele>8.123</ele>
        <time>2021-06-16T10:24:28Z</time>
      </trkpt>
      <trkpt lat="36.74736" lon="-3.159966">
        <ele>8.011</ele>
        <time>2021-06-16T10:24:29Z</time>
      </trkpt>
      <trkpt lat="36.747331" lon="-3.16012">
        <ele>7.795</ele>
        <time>2021-06-16T10:24:30Z</time>
      </trkpt>
      <trkpt lat="36.747269" lon="-3.160432">
        <ele>7.614</ele>
        <time>2021-06-16T10:24:32Z</time>
      </trkpt>
      <trkpt lat="36.747206" lon="-3.160735">
        <ele>7.647</ele>
        <time>2021-06-16T10:24:34Z</time>
      </trkpt>
      <trkpt lat="36.747144" lon="-3.161049">
        <ele>7.584</ele>
        <time>2021-06-16T10:24:36Z</time>
      </trkpt>
      <trkpt lat="36.747084" lon="-3.161355">
        <ele>7.361</ele>
        <time>2021-06-16T10:24:38Z</time>
      </trkpt>
      <trkpt lat="36.747039" lon="-3.161657">
        <ele>7.741</ele>
        <time>2021-06-16T10:24:40Z</time>
      </trkpt>
      <trkpt lat="36.747024" lon="-3.161802">
        <ele>8.489</ele>
        <time>2021-06-16T10:24:41Z</time>
      </trkpt>
      <trkpt lat="36.747017" lon="-3.161944">
        <ele>8.706</ele>
        <time>2021-06-16T10:24:42Z</time>
      </trkpt>
      <trkpt lat="36.747024" lon="-3.162229">
        <ele>9.226</ele>
        <time>2021-06-16T10:24:44Z</time>
      </trkpt>
      <trkpt lat="36.747034" lon="-3.162375">
        <ele>9.508</ele>
        <time>2021-06-16T10:24:45Z</time>
      </trkpt>
      <trkpt lat="36.747052" lon="-3.162526">
        <ele>9.875</ele>
        <time>2021-06-16T10:24:46Z</time>
      </trkpt>
      <trkpt lat="36.747099" lon="-3.162833">
        <ele>10.163</ele>
        <time>2021-06-16T10:24:48Z</time>
      </trkpt>
      <trkpt lat="36.747159" lon="-3.163145">
        <ele>10.587</ele>
        <time>2021-06-16T10:24:50Z</time>
      </trkpt>
      <trkpt lat="36.74719" lon="-3.163304">
        <ele>10.516</ele>
        <time>2021-06-16T10:24:51Z</time>
      </trkpt>
      <trkpt lat="36.747252" lon="-3.163618">
        <ele>10.889</ele>
        <time>2021-06-16T10:24:53Z</time>
      </trkpt>
      <trkpt lat="36.747284" lon="-3.163772">
        <ele>10.826</ele>
        <time>2021-06-16T10:24:54Z</time>
      </trkpt>
      <trkpt lat="36.747316" lon="-3.163928">
        <ele>11.113</ele>
        <time>2021-06-16T10:24:55Z</time>
      </trkpt>
      <trkpt lat="36.747349" lon="-3.164082">
        <ele>11.293</ele>
        <time>2021-06-16T10:24:56Z</time>
      </trkpt>
      <trkpt lat="36.747411" lon="-3.164386">
        <ele>11.677</ele>
        <time>2021-06-16T10:24:58Z</time>
      </trkpt>
      <trkpt lat="36.747466" lon="-3.164682">
        <ele>12.361</ele>
        <time>2021-06-16T10:25:00Z</time>
      </trkpt>
      <trkpt lat="36.747516" lon="-3.164949">
        <ele>12.927</ele>
        <time>2021-06-16T10:25:02Z</time>
      </trkpt>
      <trkpt lat="36.747577" lon="-3.165172">
        <ele>13.608</ele>
        <time>2021-06-16T10:25:04Z</time>
      </trkpt>
      <trkpt lat="36.747651" lon="-3.165366">
        <ele>14.254</ele>
        <time>2021-06-16T10:25:06Z</time>
      </trkpt>
      <trkpt lat="36.747696" lon="-3.165468">
        <ele>14.882</ele>
        <time>2021-06-16T10:25:07Z</time>
      </trkpt>
      <trkpt lat="36.747833" lon="-3.165666">
        <ele>15.466</ele>
        <time>2021-06-16T10:25:09Z</time>
      </trkpt>
      <trkpt lat="36.748023" lon="-3.165812">
        <ele>15.895</ele>
        <time>2021-06-16T10:25:11Z</time>
      </trkpt>
      <trkpt lat="36.74813" lon="-3.165867">
        <ele>16.468</ele>
        <time>2021-06-16T10:25:12Z</time>
      </trkpt>
      <trkpt lat="36.74836" lon="-3.165954">
        <ele>16.735</ele>
        <time>2021-06-16T10:25:14Z</time>
      </trkpt>
      <trkpt lat="36.748606" lon="-3.166033">
        <ele>17.462</ele>
        <time>2021-06-16T10:25:16Z</time>
      </trkpt>
      <trkpt lat="36.74873" lon="-3.166069">
        <ele>18.012</ele>
        <time>2021-06-16T10:25:17Z</time>
      </trkpt>
      <trkpt lat="36.748962" lon="-3.166147">
        <ele>18.795</ele>
        <time>2021-06-16T10:25:19Z</time>
      </trkpt>
      <trkpt lat="36.749158" lon="-3.166241">
        <ele>19.149</ele>
        <time>2021-06-16T10:25:21Z</time>
      </trkpt>
      <trkpt lat="36.749302" lon="-3.166343">
        <ele>19.423</ele>
        <time>2021-06-16T10:25:23Z</time>
      </trkpt>
      <trkpt lat="36.749352" lon="-3.16647">
        <ele>19.208</ele>
        <time>2021-06-16T10:25:25Z</time>
      </trkpt>
      <trkpt lat="36.749287" lon="-3.166622">
        <ele>18.846</ele>
        <time>2021-06-16T10:25:27Z</time>
      </trkpt>
      <trkpt lat="36.74917" lon="-3.166802">
        <ele>18.354</ele>
        <time>2021-06-16T10:25:29Z</time>
      </trkpt>
      <trkpt lat="36.749059" lon="-3.167029">
        <ele>18.558</ele>
        <time>2021-06-16T10:25:31Z</time>
      </trkpt>
      <trkpt lat="36.748996" lon="-3.167281">
        <ele>19.157</ele>
        <time>2021-06-16T10:25:33Z</time>
      </trkpt>
      <trkpt lat="36.748995" lon="-3.167415">
        <ele>19.630</ele>
        <time>2021-06-16T10:25:34Z</time>
      </trkpt>
      <trkpt lat="36.749082" lon="-3.167674">
        <ele>20.557</ele>
        <time>2021-06-16T10:25:36Z</time>
      </trkpt>
      <trkpt lat="36.749232" lon="-3.16789">
        <ele>21.884</ele>
        <time>2021-06-16T10:25:38Z</time>
      </trkpt>
      <trkpt lat="36.749319" lon="-3.167996">
        <ele>22.824</ele>
        <time>2021-06-16T10:25:39Z</time>
      </trkpt>
      <trkpt lat="36.749495" lon="-3.168221">
        <ele>24.214</ele>
        <time>2021-06-16T10:25:41Z</time>
      </trkpt>
      <trkpt lat="36.749586" lon="-3.16834">
        <ele>25.154</ele>
        <time>2021-06-16T10:25:42Z</time>
      </trkpt>
      <trkpt lat="36.749682" lon="-3.168458">
        <ele>26.009</ele>
        <time>2021-06-16T10:25:43Z</time>
      </trkpt>
      <trkpt lat="36.749874" lon="-3.1687">
        <ele>26.508</ele>
        <time>2021-06-16T10:25:45Z</time>
      </trkpt>
      <trkpt lat="36.749973" lon="-3.168826">
        <ele>27.398</ele>
        <time>2021-06-16T10:25:46Z</time>
      </trkpt>
      <trkpt lat="36.750073" lon="-3.168953">
        <ele>27.986</ele>
        <time>2021-06-16T10:25:47Z</time>
      </trkpt>
      <trkpt lat="36.750267" lon="-3.169191">
        <ele>28.690</ele>
        <time>2021-06-16T10:25:49Z</time>
      </trkpt>
      <trkpt lat="36.750365" lon="-3.169316">
        <ele>29.069</ele>
        <time>2021-06-16T10:25:50Z</time>
      </trkpt>
      <trkpt lat="36.750465" lon="-3.169444">
        <ele>29.172</ele>
        <time>2021-06-16T10:25:51Z</time>
      </trkpt>
      <trkpt lat="36.750662" lon="-3.169702">
        <ele>29.249</ele>
        <time>2021-06-16T10:25:53Z</time>
      </trkpt>
      <trkpt lat="36.75086" lon="-3.169958">
        <ele>29.726</ele>
        <time>2021-06-16T10:25:55Z</time>
      </trkpt>
      <trkpt lat="36.751049" lon="-3.170209">
        <ele>30.486</ele>
        <time>2021-06-16T10:25:57Z</time>
      </trkpt>
      <trkpt lat="36.751141" lon="-3.17033">
        <ele>30.571</ele>
        <time>2021-06-16T10:25:58Z</time>
      </trkpt>
      <trkpt lat="36.751232" lon="-3.170447">
        <ele>30.841</ele>
        <time>2021-06-16T10:25:59Z</time>
      </trkpt>
      <trkpt lat="36.751404" lon="-3.17067">
        <ele>30.915</ele>
        <time>2021-06-16T10:26:01Z</time>
      </trkpt>
      <trkpt lat="36.751567" lon="-3.170889">
        <ele>31.708</ele>
        <time>2021-06-16T10:26:03Z</time>
      </trkpt>
      <trkpt lat="36.751722" lon="-3.171082">
        <ele>32.214</ele>
        <time>2021-06-16T10:26:05Z</time>
      </trkpt>
      <trkpt lat="36.751797" lon="-3.171153">
        <ele>32.282</ele>
        <time>2021-06-16T10:26:06Z</time>
      </trkpt>
      <trkpt lat="36.751961" lon="-3.171216">
        <ele>32.616</ele>
        <time>2021-06-16T10:26:08Z</time>
      </trkpt>
      <trkpt lat="36.752122" lon="-3.171178">
        <ele>33.335</ele>
        <time>2021-06-16T10:26:10Z</time>
      </trkpt>
      <trkpt lat="36.752292" lon="-3.171115">
        <ele>33.778</ele>
        <time>2021-06-16T10:26:12Z</time>
      </trkpt>
      <trkpt lat="36.752459" lon="-3.170995">
        <ele>34.215</ele>
        <time>2021-06-16T10:26:14Z</time>
      </trkpt>
      <trkpt lat="36.752545" lon="-3.170913">
        <ele>34.762</ele>
        <time>2021-06-16T10:26:15Z</time>
      </trkpt>
      <trkpt lat="36.752627" lon="-3.170821">
        <ele>35.342</ele>
        <time>2021-06-16T10:26:16Z</time>
      </trkpt>
      <trkpt lat="36.752779" lon="-3.170646">
        <ele>36.697</ele>
        <time>2021-06-16T10:26:18Z</time>
      </trkpt>
      <trkpt lat="36.752914" lon="-3.170497">
        <ele>37.923</ele>
        <time>2021-06-16T10:26:20Z</time>
      </trkpt>
      <trkpt lat="36.752987" lon="-3.170352">
        <ele>39.025</ele>
        <time>2021-06-16T10:26:22Z</time>
      </trkpt>
      <trkpt lat="36.753015" lon="-3.170272">
        <ele>40.108</ele>
        <time>2021-06-16T10:26:23Z</time>
      </trkpt>
      <trkpt lat="36.753069" lon="-3.170221">
        <ele>40.946</ele>
        <time>2021-06-16T10:26:24Z</time>
      </trkpt>
      <trkpt lat="36.75321" lon="-3.170238">
        <ele>42.134</ele>
        <time>2021-06-16T10:26:26Z</time>
      </trkpt>
      <trkpt lat="36.753261" lon="-3.1703">
        <ele>42.318</ele>
        <time>2021-06-16T10:26:27Z</time>
      </trkpt>
      <trkpt lat="36.75329" lon="-3.170481">
        <ele>42.447</ele>
        <time>2021-06-16T10:26:29Z</time>
      </trkpt>
      <trkpt lat="36.75328" lon="-3.170735">
        <ele>42.110</ele>
        <time>2021-06-16T10:26:31Z</time>
      </trkpt>
      <trkpt lat="36.753376" lon="-3.170999">
        <ele>41.767</ele>
        <time>2021-06-16T10:26:33Z</time>
      </trkpt>
      <trkpt lat="36.75345" lon="-3.171126">
        <ele>41.934</ele>
        <time>2021-06-16T10:26:34Z</time>
      </trkpt>
      <trkpt lat="36.753592" lon="-3.171398">
        <ele>42.114</ele>
        <time>2021-06-16T10:26:36Z</time>
      </trkpt>
      <trkpt lat="36.753703" lon="-3.171707">
        <ele>43.194</ele>
        <time>2021-06-16T10:26:38Z</time>
      </trkpt>
      <trkpt lat="36.753744" lon="-3.17187">
        <ele>43.757</ele>
        <time>2021-06-16T10:26:39Z</time>
      </trkpt>
      <trkpt lat="36.753774" lon="-3.172038">
        <ele>44.322</ele>
        <time>2021-06-16T10:26:40Z</time>
      </trkpt>
      <trkpt lat="36.753817" lon="-3.172381">
        <ele>44.708</ele>
        <time>2021-06-16T10:26:42Z</time>
      </trkpt>
      <trkpt lat="36.753834" lon="-3.172555">
        <ele>44.876</ele>
        <time>2021-06-16T10:26:43Z</time>
      </trkpt>
      <trkpt lat="36.753845" lon="-3.17292">
        <ele>45.514</ele>
        <time>2021-06-16T10:26:45Z</time>
      </trkpt>
      <trkpt lat="36.753839" lon="-3.173112">
        <ele>46.158</ele>
        <time>2021-06-16T10:26:46Z</time>
      </trkpt>
      <trkpt lat="36.753807" lon="-3.173496">
        <ele>47.677</ele>
        <time>2021-06-16T10:26:48Z</time>
      </trkpt>
      <trkpt lat="36.753767" lon="-3.173687">
        <ele>48.770</ele>
        <time>2021-06-16T10:26:49Z</time>
      </trkpt>
      <trkpt lat="36.753701" lon="-3.173877">
        <ele>49.957</ele>
        <time>2021-06-16T10:26:50Z</time>
      </trkpt>
      <trkpt lat="36.753642" lon="-3.174059">
        <ele>50.714</ele>
        <time>2021-06-16T10:26:51Z</time>
      </trkpt>
      <trkpt lat="36.753504" lon="-3.174406">
        <ele>52.144</ele>
        <time>2021-06-16T10:26:53Z</time>
      </trkpt>
      <trkpt lat="36.75333" lon="-3.174729">
        <ele>53.285</ele>
        <time>2021-06-16T10:26:55Z</time>
      </trkpt>
      <trkpt lat="36.753234" lon="-3.174881">
        <ele>54.089</ele>
        <time>2021-06-16T10:26:56Z</time>
      </trkpt>
      <trkpt lat="36.753134" lon="-3.175028">
        <ele>55.017</ele>
        <time>2021-06-16T10:26:57Z</time>
      </trkpt>
      <trkpt lat="36.75292" lon="-3.1753">
        <ele>56.108</ele>
        <time>2021-06-16T10:26:59Z</time>
      </trkpt>
      <trkpt lat="36.75268" lon="-3.175548">
        <ele>56.975</ele>
        <time>2021-06-16T10:27:01Z</time>
      </trkpt>
      <trkpt lat="36.752555" lon="-3.175665">
        <ele>57.543</ele>
        <time>2021-06-16T10:27:02Z</time>
      </trkpt>
      <trkpt lat="36.752308" lon="-3.175895">
        <ele>58.547</ele>
        <time>2021-06-16T10:27:04Z</time>
      </trkpt>
      <trkpt lat="36.752183" lon="-3.176008">
        <ele>59.286</ele>
        <time>2021-06-16T10:27:05Z</time>
      </trkpt>
      <trkpt lat="36.751939" lon="-3.17625">
        <ele>60.259</ele>
        <time>2021-06-16T10:27:07Z</time>
      </trkpt>
      <trkpt lat="36.751705" lon="-3.176511">
        <ele>61.356</ele>
        <time>2021-06-16T10:27:09Z</time>
      </trkpt>
      <trkpt lat="36.751594" lon="-3.176658">
        <ele>62.433</ele>
        <time>2021-06-16T10:27:10Z</time>
      </trkpt>
      <trkpt lat="36.751381" lon="-3.176968">
        <ele>63.393</ele>
        <time>2021-06-16T10:27:12Z</time>
      </trkpt>
      <trkpt lat="36.751179" lon="-3.177295">
        <ele>64.163</ele>
        <time>2021-06-16T10:27:14Z</time>
      </trkpt>
      <trkpt lat="36.750996" lon="-3.177657">
        <ele>65.344</ele>
        <time>2021-06-16T10:27:16Z</time>
      </trkpt>
      <trkpt lat="36.750831" lon="-3.178044">
        <ele>67.118</ele>
        <time>2021-06-16T10:27:18Z</time>
      </trkpt>
      <trkpt lat="36.750692" lon="-3.17845">
        <ele>69.008</ele>
        <time>2021-06-16T10:27:20Z</time>
      </trkpt>
      <trkpt lat="36.750626" lon="-3.178657">
        <ele>70.413</ele>
        <time>2021-06-16T10:27:21Z</time>
      </trkpt>
      <trkpt lat="36.75057" lon="-3.178868">
        <ele>72.051</ele>
        <time>2021-06-16T10:27:22Z</time>
      </trkpt>
      <trkpt lat="36.750483" lon="-3.179301">
        <ele>73.765</ele>
        <time>2021-06-16T10:27:24Z</time>
      </trkpt>
      <trkpt lat="36.750452" lon="-3.179523">
        <ele>74.894</ele>
        <time>2021-06-16T10:27:25Z</time>
      </trkpt>
      <trkpt lat="36.750427" lon="-3.179748">
        <ele>75.857</ele>
        <time>2021-06-16T10:27:26Z</time>
      </trkpt>
      <trkpt lat="36.750388" lon="-3.1802">
        <ele>76.534</ele>
        <time>2021-06-16T10:27:28Z</time>
      </trkpt>
      <trkpt lat="36.750376" lon="-3.180661">
        <ele>77.291</ele>
        <time>2021-06-16T10:27:30Z</time>
      </trkpt>
      <trkpt lat="36.750378" lon="-3.180891">
        <ele>77.951</ele>
        <time>2021-06-16T10:27:31Z</time>
      </trkpt>
      <trkpt lat="36.750384" lon="-3.181119">
        <ele>79.087</ele>
        <time>2021-06-16T10:27:32Z</time>
      </trkpt>
      <trkpt lat="36.750396" lon="-3.181569">
        <ele>79.442</ele>
        <time>2021-06-16T10:27:34Z</time>
      </trkpt>
      <trkpt lat="36.750415" lon="-3.182008">
        <ele>80.226</ele>
        <time>2021-06-16T10:27:36Z</time>
      </trkpt>
      <trkpt lat="36.750439" lon="-3.18244">
        <ele>80.808</ele>
        <time>2021-06-16T10:27:38Z</time>
      </trkpt>
      <trkpt lat="36.750453" lon="-3.182658">
        <ele>81.585</ele>
        <time>2021-06-16T10:27:39Z</time>
      </trkpt>
      <trkpt lat="36.750477" lon="-3.183085">
        <ele>81.843</ele>
        <time>2021-06-16T10:27:41Z</time>
      </trkpt>
      <trkpt lat="36.75054" lon="-3.183503">
        <ele>82.777</ele>
        <time>2021-06-16T10:27:43Z</time>
      </trkpt>
      <trkpt lat="36.750647" lon="-3.183926">
        <ele>83.546</ele>
        <time>2021-06-16T10:27:45Z</time>
      </trkpt>
      <trkpt lat="36.75072" lon="-3.184134">
        <ele>84.379</ele>
        <time>2021-06-16T10:27:46Z</time>
      </trkpt>
      <trkpt lat="36.750911" lon="-3.184524">
        <ele>85.066</ele>
        <time>2021-06-16T10:27:48Z</time>
      </trkpt>
      <trkpt lat="36.751021" lon="-3.184706">
        <ele>85.243</ele>
        <time>2021-06-16T10:27:49Z</time>
      </trkpt>
      <trkpt lat="36.75126" lon="-3.185047">
        <ele>85.563</ele>
        <time>2021-06-16T10:27:51Z</time>
      </trkpt>
      <trkpt lat="36.751492" lon="-3.185376">
        <ele>85.663</ele>
        <time>2021-06-16T10:27:53Z</time>
      </trkpt>
      <trkpt lat="36.751711" lon="-3.185728">
        <ele>85.844</ele>
        <time>2021-06-16T10:27:55Z</time>
      </trkpt>
      <trkpt lat="36.751849" lon="-3.186143">
        <ele>86.418</ele>
        <time>2021-06-16T10:27:57Z</time>
      </trkpt>
      <trkpt lat="36.751921" lon="-3.186595">
        <ele>86.408</ele>
        <time>2021-06-16T10:27:59Z</time>
      </trkpt>
      <trkpt lat="36.751935" lon="-3.186829">
        <ele>86.783</ele>
        <time>2021-06-16T10:28:00Z</time>
      </trkpt>
      <trkpt lat="36.751905" lon="-3.187281">
        <ele>86.451</ele>
        <time>2021-06-16T10:28:02Z</time>
      </trkpt>
      <trkpt lat="36.751861" lon="-3.187498">
        <ele>86.245</ele>
        <time>2021-06-16T10:28:03Z</time>
      </trkpt>
      <trkpt lat="36.751709" lon="-3.187925">
        <ele>85.784</ele>
        <time>2021-06-16T10:28:05Z</time>
      </trkpt>
      <trkpt lat="36.751506" lon="-3.188329">
        <ele>85.057</ele>
        <time>2021-06-16T10:28:07Z</time>
      </trkpt>
      <trkpt lat="36.751404" lon="-3.188528">
        <ele>84.084</ele>
        <time>2021-06-16T10:28:08Z</time>
      </trkpt>
      <trkpt lat="36.7512" lon="-3.188924">
        <ele>82.671</ele>
        <time>2021-06-16T10:28:10Z</time>
      </trkpt>
      <trkpt lat="36.75101" lon="-3.18931">
        <ele>80.981</ele>
        <time>2021-06-16T10:28:12Z</time>
      </trkpt>
      <trkpt lat="36.750818" lon="-3.189697">
        <ele>78.723</ele>
        <time>2021-06-16T10:28:14Z</time>
      </trkpt>
      <trkpt lat="36.750722" lon="-3.18989">
        <ele>77.883</ele>
        <time>2021-06-16T10:28:15Z</time>
      </trkpt>
      <trkpt lat="36.750628" lon="-3.190084">
        <ele>76.611</ele>
        <time>2021-06-16T10:28:16Z</time>
      </trkpt>
      <trkpt lat="36.750442" lon="-3.190481">
        <ele>75.208</ele>
        <time>2021-06-16T10:28:18Z</time>
      </trkpt>
      <trkpt lat="36.750268" lon="-3.190896">
        <ele>73.669</ele>
        <time>2021-06-16T10:28:20Z</time>
      </trkpt>
      <trkpt lat="36.750122" lon="-3.191313">
        <ele>72.177</ele>
        <time>2021-06-16T10:28:22Z</time>
      </trkpt>
      <trkpt lat="36.750064" lon="-3.191528">
        <ele>70.141</ele>
        <time>2021-06-16T10:28:23Z</time>
      </trkpt>
      <trkpt lat="36.750019" lon="-3.191751">
        <ele>68.760</ele>
        <time>2021-06-16T10:28:24Z</time>
      </trkpt>
      <trkpt lat="36.74995" lon="-3.192208">
        <ele>66.963</ele>
        <time>2021-06-16T10:28:26Z</time>
      </trkpt>
      <trkpt lat="36.74991" lon="-3.192671">
        <ele>64.880</ele>
        <time>2021-06-16T10:28:28Z</time>
      </trkpt>
      <trkpt lat="36.749919" lon="-3.193143">
        <ele>62.817</ele>
        <time>2021-06-16T10:28:30Z</time>
      </trkpt>
      <trkpt lat="36.74994" lon="-3.193379">
        <ele>60.917</ele>
        <time>2021-06-16T10:28:31Z</time>
      </trkpt>
      <trkpt lat="36.749971" lon="-3.193612">
        <ele>59.347</ele>
        <time>2021-06-16T10:28:32Z</time>
      </trkpt>
      <trkpt lat="36.750005" lon="-3.193844">
        <ele>58.129</ele>
        <time>2021-06-16T10:28:33Z</time>
      </trkpt>
      <trkpt lat="36.750084" lon="-3.194315">
        <ele>57.421</ele>
        <time>2021-06-16T10:28:35Z</time>
      </trkpt>
      <trkpt lat="36.75021" lon="-3.194761">
        <ele>55.608</ele>
        <time>2021-06-16T10:28:37Z</time>
      </trkpt>
      <trkpt lat="36.750351" lon="-3.195208">
        <ele>54.061</ele>
        <time>2021-06-16T10:28:39Z</time>
      </trkpt>
      <trkpt lat="36.750432" lon="-3.195428">
        <ele>52.389</ele>
        <time>2021-06-16T10:28:40Z</time>
      </trkpt>
      <trkpt lat="36.750522" lon="-3.19565">
        <ele>50.913</ele>
        <time>2021-06-16T10:28:41Z</time>
      </trkpt>
      <trkpt lat="36.750707" lon="-3.196094">
        <ele>49.362</ele>
        <time>2021-06-16T10:28:43Z</time>
      </trkpt>
      <trkpt lat="36.750892" lon="-3.196545">
        <ele>47.835</ele>
        <time>2021-06-16T10:28:45Z</time>
      </trkpt>
      <trkpt lat="36.75097" lon="-3.196775">
        <ele>46.692</ele>
        <time>2021-06-16T10:28:46Z</time>
      </trkpt>
      <trkpt lat="36.751089" lon="-3.197248">
        <ele>45.819</ele>
        <time>2021-06-16T10:28:48Z</time>
      </trkpt>
      <trkpt lat="36.751132" lon="-3.197488">
        <ele>45.529</ele>
        <time>2021-06-16T10:28:49Z</time>
      </trkpt>
      <trkpt lat="36.751194" lon="-3.197967">
        <ele>45.519</ele>
        <time>2021-06-16T10:28:51Z</time>
      </trkpt>
      <trkpt lat="36.751219" lon="-3.198434">
        <ele>45.509</ele>
        <time>2021-06-16T10:28:53Z</time>
      </trkpt>
      <trkpt lat="36.751242" lon="-3.198892">
        <ele>45.719</ele>
        <time>2021-06-16T10:28:55Z</time>
      </trkpt>
      <trkpt lat="36.751263" lon="-3.199119">
        <ele>46.108</ele>
        <time>2021-06-16T10:28:56Z</time>
      </trkpt>
      <trkpt lat="36.751289" lon="-3.199345">
        <ele>46.828</ele>
        <time>2021-06-16T10:28:57Z</time>
      </trkpt>
      <trkpt lat="36.751313" lon="-3.199568">
        <ele>47.436</ele>
        <time>2021-06-16T10:28:58Z</time>
      </trkpt>
      <trkpt lat="36.75134" lon="-3.199786">
        <ele>48.230</ele>
        <time>2021-06-16T10:28:59Z</time>
      </trkpt>
      <trkpt lat="36.751403" lon="-3.200215">
        <ele>48.939</ele>
        <time>2021-06-16T10:29:01Z</time>
      </trkpt>
      <trkpt lat="36.751429" lon="-3.200426">
        <ele>49.452</ele>
        <time>2021-06-16T10:29:02Z</time>
      </trkpt>
      <trkpt lat="36.751428" lon="-3.200862">
        <ele>50.069</ele>
        <time>2021-06-16T10:29:04Z</time>
      </trkpt>
      <trkpt lat="36.751414" lon="-3.201086">
        <ele>51.056</ele>
        <time>2021-06-16T10:29:05Z</time>
      </trkpt>
      <trkpt lat="36.751394" lon="-3.201314">
        <ele>52.866</ele>
        <time>2021-06-16T10:29:06Z</time>
      </trkpt>
      <trkpt lat="36.751349" lon="-3.20177">
        <ele>54.088</ele>
        <time>2021-06-16T10:29:08Z</time>
      </trkpt>
      <trkpt lat="36.75133" lon="-3.201999">
        <ele>54.524</ele>
        <time>2021-06-16T10:29:09Z</time>
      </trkpt>
      <trkpt lat="36.751312" lon="-3.202225">
        <ele>55.026</ele>
        <time>2021-06-16T10:29:10Z</time>
      </trkpt>
      <trkpt lat="36.751276" lon="-3.202678">
        <ele>55.708</ele>
        <time>2021-06-16T10:29:12Z</time>
      </trkpt>
      <trkpt lat="36.751258" lon="-3.202899">
        <ele>56.855</ele>
        <time>2021-06-16T10:29:13Z</time>
      </trkpt>
      <trkpt lat="36.751193" lon="-3.203326">
        <ele>57.433</ele>
        <time>2021-06-16T10:29:15Z</time>
      </trkpt>
      <trkpt lat="36.751024" lon="-3.203717">
        <ele>58.567</ele>
        <time>2021-06-16T10:29:17Z</time>
      </trkpt>
      <trkpt lat="36.750756" lon="-3.204034">
        <ele>59.036</ele>
        <time>2021-06-16T10:29:19Z</time>
      </trkpt>
      <trkpt lat="36.750607" lon="-3.204173">
        <ele>59.199</ele>
        <time>2021-06-16T10:29:20Z</time>
      </trkpt>
      <trkpt lat="36.750325" lon="-3.204467">
        <ele>59.196</ele>
        <time>2021-06-16T10:29:22Z</time>
      </trkpt>
      <trkpt lat="36.750095" lon="-3.204813">
        <ele>59.013</ele>
        <time>2021-06-16T10:29:24Z</time>
      </trkpt>
      <trkpt lat="36.749973" lon="-3.20498">
        <ele>58.563</ele>
        <time>2021-06-16T10:29:25Z</time>
      </trkpt>
      <trkpt lat="36.749681" lon="-3.205272">
        <ele>57.269</ele>
        <time>2021-06-16T10:29:27Z</time>
      </trkpt>
      <trkpt lat="36.749364" lon="-3.205522">
        <ele>55.704</ele>
        <time>2021-06-16T10:29:29Z</time>
      </trkpt>
      <trkpt lat="36.749052" lon="-3.205779">
        <ele>54.124</ele>
        <time>2021-06-16T10:29:31Z</time>
      </trkpt>
      <trkpt lat="36.748776" lon="-3.206096">
        <ele>51.908</ele>
        <time>2021-06-16T10:29:33Z</time>
      </trkpt>
      <trkpt lat="36.748649" lon="-3.206275">
        <ele>50.223</ele>
        <time>2021-06-16T10:29:34Z</time>
      </trkpt>
      <trkpt lat="36.748394" lon="-3.206623">
        <ele>48.751</ele>
        <time>2021-06-16T10:29:36Z</time>
      </trkpt>
      <trkpt lat="36.748089" lon="-3.20689">
        <ele>47.335</ele>
        <time>2021-06-16T10:29:38Z</time>
      </trkpt>
      <trkpt lat="36.747921" lon="-3.206994">
        <ele>46.064</ele>
        <time>2021-06-16T10:29:39Z</time>
      </trkpt>
      <trkpt lat="36.747602" lon="-3.207233">
        <ele>44.487</ele>
        <time>2021-06-16T10:29:41Z</time>
      </trkpt>
      <trkpt lat="36.747324" lon="-3.207561">
        <ele>43.274</ele>
        <time>2021-06-16T10:29:43Z</time>
      </trkpt>
      <trkpt lat="36.747193" lon="-3.207732">
        <ele>42.591</ele>
        <time>2021-06-16T10:29:44Z</time>
      </trkpt>
      <trkpt lat="36.746937" lon="-3.208065">
        <ele>42.081</ele>
        <time>2021-06-16T10:29:46Z</time>
      </trkpt>
      <trkpt lat="36.746812" lon="-3.208235">
        <ele>41.253</ele>
        <time>2021-06-16T10:29:47Z</time>
      </trkpt>
      <trkpt lat="36.746697" lon="-3.208418">
        <ele>41.204</ele>
        <time>2021-06-16T10:29:48Z</time>
      </trkpt>
      <trkpt lat="36.746499" lon="-3.208816">
        <ele>40.814</ele>
        <time>2021-06-16T10:29:50Z</time>
      </trkpt>
      <trkpt lat="36.74641" lon="-3.209024">
        <ele>40.508</ele>
        <time>2021-06-16T10:29:51Z</time>
      </trkpt>
      <trkpt lat="36.746322" lon="-3.209231">
        <ele>40.332</ele>
        <time>2021-06-16T10:29:52Z</time>
      </trkpt>
      <trkpt lat="36.746232" lon="-3.20943">
        <ele>40.120</ele>
        <time>2021-06-16T10:29:53Z</time>
      </trkpt>
      <trkpt lat="36.746057" lon="-3.209811">
        <ele>39.464</ele>
        <time>2021-06-16T10:29:55Z</time>
      </trkpt>
      <trkpt lat="36.745983" lon="-3.210004">
        <ele>39.433</ele>
        <time>2021-06-16T10:29:56Z</time>
      </trkpt>
      <trkpt lat="36.745877" lon="-3.210397">
        <ele>39.846</ele>
        <time>2021-06-16T10:29:58Z</time>
      </trkpt>
      <trkpt lat="36.745841" lon="-3.210814">
        <ele>40.793</ele>
        <time>2021-06-16T10:30:00Z</time>
      </trkpt>
      <trkpt lat="36.745835" lon="-3.21103">
        <ele>41.580</ele>
        <time>2021-06-16T10:30:01Z</time>
      </trkpt>
      <trkpt lat="36.745826" lon="-3.211458">
        <ele>42.480</ele>
        <time>2021-06-16T10:30:03Z</time>
      </trkpt>
      <trkpt lat="36.745882" lon="-3.21188">
        <ele>42.835</ele>
        <time>2021-06-16T10:30:05Z</time>
      </trkpt>
      <trkpt lat="36.745944" lon="-3.212079">
        <ele>43.386</ele>
        <time>2021-06-16T10:30:06Z</time>
      </trkpt>
      <trkpt lat="36.746042" lon="-3.212256">
        <ele>43.514</ele>
        <time>2021-06-16T10:30:07Z</time>
      </trkpt>
      <trkpt lat="36.746307" lon="-3.212556">
        <ele>43.508</ele>
        <time>2021-06-16T10:30:09Z</time>
      </trkpt>
      <trkpt lat="36.746452" lon="-3.212695">
        <ele>43.480</ele>
        <time>2021-06-16T10:30:10Z</time>
      </trkpt>
      <trkpt lat="36.746735" lon="-3.212996">
        <ele>43.778</ele>
        <time>2021-06-16T10:30:12Z</time>
      </trkpt>
      <trkpt lat="36.746861" lon="-3.213171">
        <ele>43.722</ele>
        <time>2021-06-16T10:30:13Z</time>
      </trkpt>
      <trkpt lat="36.746973" lon="-3.213364">
        <ele>43.961</ele>
        <time>2021-06-16T10:30:14Z</time>
      </trkpt>
      <trkpt lat="36.747153" lon="-3.213794">
        <ele>43.914</ele>
        <time>2021-06-16T10:30:16Z</time>
      </trkpt>
      <trkpt lat="36.747214" lon="-3.214026">
        <ele>44.511</ele>
        <time>2021-06-16T10:30:17Z</time>
      </trkpt>
      <trkpt lat="36.747275" lon="-3.214505">
        <ele>44.858</ele>
        <time>2021-06-16T10:30:19Z</time>
      </trkpt>
      <trkpt lat="36.747283" lon="-3.214748">
        <ele>45.428</ele>
        <time>2021-06-16T10:30:20Z</time>
      </trkpt>
      <trkpt lat="36.747287" lon="-3.214985">
        <ele>45.463</ele>
        <time>2021-06-16T10:30:21Z</time>
      </trkpt>
      <trkpt lat="36.747309" lon="-3.215441">
        <ele>45.244</ele>
        <time>2021-06-16T10:30:23Z</time>
      </trkpt>
      <trkpt lat="36.747343" lon="-3.215896">
        <ele>45.418</ele>
        <time>2021-06-16T10:30:25Z</time>
      </trkpt>
      <trkpt lat="36.747372" lon="-3.216114">
        <ele>45.208</ele>
        <time>2021-06-16T10:30:26Z</time>
      </trkpt>
      <trkpt lat="36.747477" lon="-3.216539">
        <ele>45.693</ele>
        <time>2021-06-16T10:30:28Z</time>
      </trkpt>
      <trkpt lat="36.747566" lon="-3.21674">
        <ele>45.541</ele>
        <time>2021-06-16T10:30:29Z</time>
      </trkpt>
      <trkpt lat="36.747801" lon="-3.217098">
        <ele>45.355</ele>
        <time>2021-06-16T10:30:31Z</time>
      </trkpt>
      <trkpt lat="36.747929" lon="-3.217273">
        <ele>45.434</ele>
        <time>2021-06-16T10:30:32Z</time>
      </trkpt>
      <trkpt lat="36.748053" lon="-3.217451">
        <ele>45.477</ele>
        <time>2021-06-16T10:30:33Z</time>
      </trkpt>
      <trkpt lat="36.74823" lon="-3.21787">
        <ele>45.494</ele>
        <time>2021-06-16T10:30:35Z</time>
      </trkpt>
      <trkpt lat="36.748333" lon="-3.218344">
        <ele>45.391</ele>
        <time>2021-06-16T10:30:37Z</time>
      </trkpt>
      <trkpt lat="36.748382" lon="-3.218574">
        <ele>45.231</ele>
        <time>2021-06-16T10:30:38Z</time>
      </trkpt>
      <trkpt lat="36.748527" lon="-3.218998">
        <ele>44.458</ele>
        <time>2021-06-16T10:30:40Z</time>
      </trkpt>
      <trkpt lat="36.74863" lon="-3.219194">
        <ele>43.552</ele>
        <time>2021-06-16T10:30:41Z</time>
      </trkpt>
      <trkpt lat="36.748862" lon="-3.219567">
        <ele>42.317</ele>
        <time>2021-06-16T10:30:43Z</time>
      </trkpt>
      <trkpt lat="36.748978" lon="-3.21975">
        <ele>41.408</ele>
        <time>2021-06-16T10:30:44Z</time>
      </trkpt>
      <trkpt lat="36.749096" lon="-3.219934">
        <ele>40.932</ele>
        <time>2021-06-16T10:30:45Z</time>
      </trkpt>
      <trkpt lat="36.749327" lon="-3.220294">
        <ele>40.380</ele>
        <time>2021-06-16T10:30:47Z</time>
      </trkpt>
      <trkpt lat="36.749434" lon="-3.220469">
        <ele>39.764</ele>
        <time>2021-06-16T10:30:48Z</time>
      </trkpt>
      <trkpt lat="36.749535" lon="-3.220643">
        <ele>39.433</ele>
        <time>2021-06-16T10:30:49Z</time>
      </trkpt>
      <trkpt lat="36.749731" lon="-3.220978">
        <ele>38.416</ele>
        <time>2021-06-16T10:30:51Z</time>
      </trkpt>
      <trkpt lat="36.749827" lon="-3.221138">
        <ele>37.853</ele>
        <time>2021-06-16T10:30:52Z</time>
      </trkpt>
      <trkpt lat="36.75001" lon="-3.221438">
        <ele>37.330</ele>
        <time>2021-06-16T10:30:54Z</time>
      </trkpt>
      <trkpt lat="36.750178" lon="-3.221745">
        <ele>37.360</ele>
        <time>2021-06-16T10:30:56Z</time>
      </trkpt>
      <trkpt lat="36.750249" lon="-3.221913">
        <ele>37.058</ele>
        <time>2021-06-16T10:30:57Z</time>
      </trkpt>
      <trkpt lat="36.750331" lon="-3.22229">
        <ele>37.052</ele>
        <time>2021-06-16T10:30:59Z</time>
      </trkpt>
      <trkpt lat="36.750354" lon="-3.222678">
        <ele>37.117</ele>
        <time>2021-06-16T10:31:01Z</time>
      </trkpt>
      <trkpt lat="36.750356" lon="-3.222872">
        <ele>36.908</ele>
        <time>2021-06-16T10:31:02Z</time>
      </trkpt>
      <trkpt lat="36.750356" lon="-3.223071">
        <ele>36.942</ele>
        <time>2021-06-16T10:31:03Z</time>
      </trkpt>
      <trkpt lat="36.750401" lon="-3.223477">
        <ele>37.090</ele>
        <time>2021-06-16T10:31:05Z</time>
      </trkpt>
      <trkpt lat="36.750446" lon="-3.223686">
        <ele>36.614</ele>
        <time>2021-06-16T10:31:06Z</time>
      </trkpt>
      <trkpt lat="36.750497" lon="-3.223897">
        <ele>36.523</ele>
        <time>2021-06-16T10:31:07Z</time>
      </trkpt>
      <trkpt lat="36.750614" lon="-3.224326">
        <ele>36.966</ele>
        <time>2021-06-16T10:31:09Z</time>
      </trkpt>
      <trkpt lat="36.750736" lon="-3.224752">
        <ele>37.253</ele>
        <time>2021-06-16T10:31:11Z</time>
      </trkpt>
      <trkpt lat="36.750859" lon="-3.225185">
        <ele>37.250</ele>
        <time>2021-06-16T10:31:13Z</time>
      </trkpt>
      <trkpt lat="36.750987" lon="-3.225612">
        <ele>37.560</ele>
        <time>2021-06-16T10:31:15Z</time>
      </trkpt>
      <trkpt lat="36.75105" lon="-3.225821">
        <ele>37.495</ele>
        <time>2021-06-16T10:31:16Z</time>
      </trkpt>
      <trkpt lat="36.751175" lon="-3.226257">
        <ele>38.149</ele>
        <time>2021-06-16T10:31:18Z</time>
      </trkpt>
      <trkpt lat="36.751308" lon="-3.226693">
        <ele>38.423</ele>
        <time>2021-06-16T10:31:20Z</time>
      </trkpt>
      <trkpt lat="36.751379" lon="-3.226917">
        <ele>38.608</ele>
        <time>2021-06-16T10:31:21Z</time>
      </trkpt>
      <trkpt lat="36.75154" lon="-3.227348">
        <ele>38.366</ele>
        <time>2021-06-16T10:31:23Z</time>
      </trkpt>
      <trkpt lat="36.75172" lon="-3.227752">
        <ele>38.214</ele>
        <time>2021-06-16T10:31:25Z</time>
      </trkpt>
      <trkpt lat="36.751895" lon="-3.228136">
        <ele>38.178</ele>
        <time>2021-06-16T10:31:27Z</time>
      </trkpt>
      <trkpt lat="36.751973" lon="-3.228334">
        <ele>37.947</ele>
        <time>2021-06-16T10:31:28Z</time>
      </trkpt>
      <trkpt lat="36.752034" lon="-3.228542">
        <ele>37.520</ele>
        <time>2021-06-16T10:31:29Z</time>
      </trkpt>
      <trkpt lat="36.752103" lon="-3.228986">
        <ele>37.227</ele>
        <time>2021-06-16T10:31:31Z</time>
      </trkpt>
      <trkpt lat="36.752121" lon="-3.229216">
        <ele>36.654</ele>
        <time>2021-06-16T10:31:32Z</time>
      </trkpt>
      <trkpt lat="36.752152" lon="-3.229684">
        <ele>36.174</ele>
        <time>2021-06-16T10:31:34Z</time>
      </trkpt>
      <trkpt lat="36.75216" lon="-3.230152">
        <ele>35.597</ele>
        <time>2021-06-16T10:31:36Z</time>
      </trkpt>
      <trkpt lat="36.752151" lon="-3.230381">
        <ele>35.123</ele>
        <time>2021-06-16T10:31:37Z</time>
      </trkpt>
      <trkpt lat="36.752092" lon="-3.230843">
        <ele>35.125</ele>
        <time>2021-06-16T10:31:39Z</time>
      </trkpt>
      <trkpt lat="36.752051" lon="-3.231072">
        <ele>35.308</ele>
        <time>2021-06-16T10:31:40Z</time>
      </trkpt>
      <trkpt lat="36.751907" lon="-3.231507">
        <ele>34.216</ele>
        <time>2021-06-16T10:31:42Z</time>
      </trkpt>
      <trkpt lat="36.751714" lon="-3.2319">
        <ele>33.844</ele>
        <time>2021-06-16T10:31:44Z</time>
      </trkpt>
      <trkpt lat="36.751611" lon="-3.232089">
        <ele>33.018</ele>
        <time>2021-06-16T10:31:45Z</time>
      </trkpt>
      <trkpt lat="36.751407" lon="-3.232449">
        <ele>31.947</ele>
        <time>2021-06-16T10:31:47Z</time>
      </trkpt>
      <trkpt lat="36.75131" lon="-3.232626">
        <ele>31.370</ele>
        <time>2021-06-16T10:31:48Z</time>
      </trkpt>
      <trkpt lat="36.751156" lon="-3.232989">
        <ele>30.017</ele>
        <time>2021-06-16T10:31:50Z</time>
      </trkpt>
      <trkpt lat="36.751098" lon="-3.233177">
        <ele>28.974</ele>
        <time>2021-06-16T10:31:51Z</time>
      </trkpt>
      <trkpt lat="36.751051" lon="-3.233573">
        <ele>27.844</ele>
        <time>2021-06-16T10:31:53Z</time>
      </trkpt>
      <trkpt lat="36.75106" lon="-3.233773">
        <ele>26.794</ele>
        <time>2021-06-16T10:31:54Z</time>
      </trkpt>
      <trkpt lat="36.75109" lon="-3.233973">
        <ele>25.757</ele>
        <time>2021-06-16T10:31:55Z</time>
      </trkpt>
      <trkpt lat="36.751188" lon="-3.234363">
        <ele>24.622</ele>
        <time>2021-06-16T10:31:57Z</time>
      </trkpt>
      <trkpt lat="36.751264" lon="-3.234552">
        <ele>23.908</ele>
        <time>2021-06-16T10:31:58Z</time>
      </trkpt>
      <trkpt lat="36.751457" lon="-3.234908">
        <ele>23.296</ele>
        <time>2021-06-16T10:32:00Z</time>
      </trkpt>
      <trkpt lat="36.751652" lon="-3.235256">
        <ele>22.734</ele>
        <time>2021-06-16T10:32:02Z</time>
      </trkpt>
      <trkpt lat="36.751752" lon="-3.235429">
        <ele>22.518</ele>
        <time>2021-06-16T10:32:03Z</time>
      </trkpt>
      <trkpt lat="36.751849" lon="-3.235602">
        <ele>21.757</ele>
        <time>2021-06-16T10:32:04Z</time>
      </trkpt>
      <trkpt lat="36.752036" lon="-3.235951">
        <ele>21.230</ele>
        <time>2021-06-16T10:32:06Z</time>
      </trkpt>
      <trkpt lat="36.752131" lon="-3.23612">
        <ele>21.047</ele>
        <time>2021-06-16T10:32:07Z</time>
      </trkpt>
      <trkpt lat="36.752308" lon="-3.236445">
        <ele>20.784</ele>
        <time>2021-06-16T10:32:09Z</time>
      </trkpt>
      <trkpt lat="36.752468" lon="-3.236741">
        <ele>21.124</ele>
        <time>2021-06-16T10:32:11Z</time>
      </trkpt>
      <trkpt lat="36.752546" lon="-3.236883">
        <ele>21.546</ele>
        <time>2021-06-16T10:32:12Z</time>
      </trkpt>
      <trkpt lat="36.752624" lon="-3.237027">
        <ele>21.488</ele>
        <time>2021-06-16T10:32:13Z</time>
      </trkpt>
      <trkpt lat="36.752784" lon="-3.237316">
        <ele>21.616</ele>
        <time>2021-06-16T10:32:15Z</time>
      </trkpt>
      <trkpt lat="36.752863" lon="-3.237463">
        <ele>21.708</ele>
        <time>2021-06-16T10:32:16Z</time>
      </trkpt>
      <trkpt lat="36.753006" lon="-3.237767">
        <ele>22.681</ele>
        <time>2021-06-16T10:32:18Z</time>
      </trkpt>
      <trkpt lat="36.75313" lon="-3.238098">
        <ele>22.939</ele>
        <time>2021-06-16T10:32:20Z</time>
      </trkpt>
      <trkpt lat="36.753242" lon="-3.238447">
        <ele>23.513</ele>
        <time>2021-06-16T10:32:22Z</time>
      </trkpt>
      <trkpt lat="36.753343" lon="-3.238797">
        <ele>24.232</ele>
        <time>2021-06-16T10:32:24Z</time>
      </trkpt>
      <trkpt lat="36.7534" lon="-3.238967">
        <ele>25.085</ele>
        <time>2021-06-16T10:32:25Z</time>
      </trkpt>
      <trkpt lat="36.753515" lon="-3.23931">
        <ele>24.282</ele>
        <time>2021-06-16T10:32:27Z</time>
      </trkpt>
      <trkpt lat="36.753645" lon="-3.239642">
        <ele>24.019</ele>
        <time>2021-06-16T10:32:29Z</time>
      </trkpt>
      <trkpt lat="36.753714" lon="-3.239812">
        <ele>23.049</ele>
        <time>2021-06-16T10:32:30Z</time>
      </trkpt>
      <trkpt lat="36.753782" lon="-3.239982">
        <ele>22.321</ele>
        <time>2021-06-16T10:32:31Z</time>
      </trkpt>
      <trkpt lat="36.753852" lon="-3.240153">
        <ele>21.641</ele>
        <time>2021-06-16T10:32:32Z</time>
      </trkpt>
      <trkpt lat="36.753995" lon="-3.240497">
        <ele>20.405</ele>
        <time>2021-06-16T10:32:34Z</time>
      </trkpt>
      <trkpt lat="36.754138" lon="-3.240844">
        <ele>19.508</ele>
        <time>2021-06-16T10:32:36Z</time>
      </trkpt>
      <trkpt lat="36.754275" lon="-3.241205">
        <ele>18.769</ele>
        <time>2021-06-16T10:32:38Z</time>
      </trkpt>
      <trkpt lat="36.754343" lon="-3.241394">
        <ele>18.397</ele>
        <time>2021-06-16T10:32:39Z</time>
      </trkpt>
      <trkpt lat="36.754411" lon="-3.241583">
        <ele>18.081</ele>
        <time>2021-06-16T10:32:40Z</time>
      </trkpt>
      <trkpt lat="36.754475" lon="-3.241772">
        <ele>17.710</ele>
        <time>2021-06-16T10:32:41Z</time>
      </trkpt>
      <trkpt lat="36.754584" lon="-3.242162">
        <ele>16.893</ele>
        <time>2021-06-16T10:32:43Z</time>
      </trkpt>
      <trkpt lat="36.754619" lon="-3.242369">
        <ele>16.880</ele>
        <time>2021-06-16T10:32:44Z</time>
      </trkpt>
      <trkpt lat="36.754668" lon="-3.242791">
        <ele>16.377</ele>
        <time>2021-06-16T10:32:46Z</time>
      </trkpt>
      <trkpt lat="36.754682" lon="-3.242996">
        <ele>15.527</ele>
        <time>2021-06-16T10:32:47Z</time>
      </trkpt>
      <trkpt lat="36.754695" lon="-3.243196">
        <ele>14.165</ele>
        <time>2021-06-16T10:32:48Z</time>
      </trkpt>
      <trkpt lat="36.754705" lon="-3.243396">
        <ele>12.868</ele>
        <time>2021-06-16T10:32:49Z</time>
      </trkpt>
      <trkpt lat="36.754709" lon="-3.243813">
        <ele>12.014</ele>
        <time>2021-06-16T10:32:51Z</time>
      </trkpt>
      <trkpt lat="36.754715" lon="-3.244232">
        <ele>11.008</ele>
        <time>2021-06-16T10:32:53Z</time>
      </trkpt>
      <trkpt lat="36.754732" lon="-3.244647">
        <ele>10.533</ele>
        <time>2021-06-16T10:32:55Z</time>
      </trkpt>
      <trkpt lat="36.754757" lon="-3.245067">
        <ele>9.431</ele>
        <time>2021-06-16T10:32:57Z</time>
      </trkpt>
      <trkpt lat="36.754771" lon="-3.245278">
        <ele>8.445</ele>
        <time>2021-06-16T10:32:58Z</time>
      </trkpt>
      <trkpt lat="36.754773" lon="-3.245505">
        <ele>8.584</ele>
        <time>2021-06-16T10:32:59Z</time>
      </trkpt>
      <trkpt lat="36.754771" lon="-3.245738">
        <ele>8.417</ele>
        <time>2021-06-16T10:33:00Z</time>
      </trkpt>
      <trkpt lat="36.754782" lon="-3.246199">
        <ele>8.414</ele>
        <time>2021-06-16T10:33:02Z</time>
      </trkpt>
      <trkpt lat="36.754789" lon="-3.246421">
        <ele>8.311</ele>
        <time>2021-06-16T10:33:03Z</time>
      </trkpt>
      <trkpt lat="36.754786" lon="-3.246642">
        <ele>8.031</ele>
        <time>2021-06-16T10:33:04Z</time>
      </trkpt>
      <trkpt lat="36.754738" lon="-3.24711">
        <ele>8.883</ele>
        <time>2021-06-16T10:33:06Z</time>
      </trkpt>
      <trkpt lat="36.754669" lon="-3.24758">
        <ele>9.625</ele>
        <time>2021-06-16T10:33:08Z</time>
      </trkpt>
      <trkpt lat="36.754635" lon="-3.24781">
        <ele>10.217</ele>
        <time>2021-06-16T10:33:09Z</time>
      </trkpt>
      <trkpt lat="36.754603" lon="-3.248038">
        <ele>10.408</ele>
        <time>2021-06-16T10:33:10Z</time>
      </trkpt>
      <trkpt lat="36.754573" lon="-3.248264">
        <ele>11.125</ele>
        <time>2021-06-16T10:33:11Z</time>
      </trkpt>
      <trkpt lat="36.754523" lon="-3.248711">
        <ele>11.733</ele>
        <time>2021-06-16T10:33:13Z</time>
      </trkpt>
      <trkpt lat="36.754511" lon="-3.248931">
        <ele>11.357</ele>
        <time>2021-06-16T10:33:14Z</time>
      </trkpt>
      <trkpt lat="36.75451" lon="-3.249148">
        <ele>10.916</ele>
        <time>2021-06-16T10:33:15Z</time>
      </trkpt>
      <trkpt lat="36.754535" lon="-3.24957">
        <ele>11.059</ele>
        <time>2021-06-16T10:33:17Z</time>
      </trkpt>
      <trkpt lat="36.754551" lon="-3.249776">
        <ele>11.286</ele>
        <time>2021-06-16T10:33:18Z</time>
      </trkpt>
      <trkpt lat="36.754565" lon="-3.249978">
        <ele>11.033</ele>
        <time>2021-06-16T10:33:19Z</time>
      </trkpt>
      <trkpt lat="36.754531" lon="-3.250393">
        <ele>11.323</ele>
        <time>2021-06-16T10:33:21Z</time>
      </trkpt>
      <trkpt lat="36.754428" lon="-3.250816">
        <ele>12.168</ele>
        <time>2021-06-16T10:33:23Z</time>
      </trkpt>
      <trkpt lat="36.754281" lon="-3.251227">
        <ele>12.342</ele>
        <time>2021-06-16T10:33:25Z</time>
      </trkpt>
      <trkpt lat="36.754196" lon="-3.251433">
        <ele>12.326</ele>
        <time>2021-06-16T10:33:26Z</time>
      </trkpt>
      <trkpt lat="36.754038" lon="-3.251844">
        <ele>12.408</ele>
        <time>2021-06-16T10:33:28Z</time>
      </trkpt>
      <trkpt lat="36.75397" lon="-3.252057">
        <ele>12.683</ele>
        <time>2021-06-16T10:33:29Z</time>
      </trkpt>
      <trkpt lat="36.75391" lon="-3.252274">
        <ele>12.561</ele>
        <time>2021-06-16T10:33:30Z</time>
      </trkpt>
      <trkpt lat="36.753823" lon="-3.252734">
        <ele>12.195</ele>
        <time>2021-06-16T10:33:32Z</time>
      </trkpt>
      <trkpt lat="36.753775" lon="-3.25321">
        <ele>12.144</ele>
        <time>2021-06-16T10:33:34Z</time>
      </trkpt>
      <trkpt lat="36.753726" lon="-3.253692">
        <ele>11.727</ele>
        <time>2021-06-16T10:33:36Z</time>
      </trkpt>
      <trkpt lat="36.7537" lon="-3.253932">
        <ele>11.554</ele>
        <time>2021-06-16T10:33:37Z</time>
      </trkpt>
      <trkpt lat="36.753666" lon="-3.254403">
        <ele>11.691</ele>
        <time>2021-06-16T10:33:39Z</time>
      </trkpt>
      <trkpt lat="36.753675" lon="-3.254869">
        <ele>11.821</ele>
        <time>2021-06-16T10:33:41Z</time>
      </trkpt>
      <trkpt lat="36.753719" lon="-3.255329">
        <ele>11.752</ele>
        <time>2021-06-16T10:33:43Z</time>
      </trkpt>
      <trkpt lat="36.753762" lon="-3.255768">
        <ele>11.753</ele>
        <time>2021-06-16T10:33:45Z</time>
      </trkpt>
      <trkpt lat="36.753776" lon="-3.256191">
        <ele>11.408</ele>
        <time>2021-06-16T10:33:47Z</time>
      </trkpt>
      <trkpt lat="36.753771" lon="-3.2564">
        <ele>11.408</ele>
        <time>2021-06-16T10:33:48Z</time>
      </trkpt>
      <trkpt lat="36.753758" lon="-3.256606">
        <ele>11.292</ele>
        <time>2021-06-16T10:33:49Z</time>
      </trkpt>
      <trkpt lat="36.753714" lon="-3.257035">
        <ele>11.450</ele>
        <time>2021-06-16T10:33:51Z</time>
      </trkpt>
      <trkpt lat="36.753671" lon="-3.257446">
        <ele>11.044</ele>
        <time>2021-06-16T10:33:53Z</time>
      </trkpt>
      <trkpt lat="36.753652" lon="-3.257652">
        <ele>10.513</ele>
        <time>2021-06-16T10:33:54Z</time>
      </trkpt>
      <trkpt lat="36.753646" lon="-3.257851">
        <ele>10.826</ele>
        <time>2021-06-16T10:33:55Z</time>
      </trkpt>
      <trkpt lat="36.753677" lon="-3.25824">
        <ele>11.073</ele>
        <time>2021-06-16T10:33:57Z</time>
      </trkpt>
      <trkpt lat="36.753699" lon="-3.258435">
        <ele>11.040</ele>
        <time>2021-06-16T10:33:58Z</time>
      </trkpt>
      <trkpt lat="36.753738" lon="-3.258809">
        <ele>11.350</ele>
        <time>2021-06-16T10:34:00Z</time>
      </trkpt>
      <trkpt lat="36.753759" lon="-3.259168">
        <ele>11.512</ele>
        <time>2021-06-16T10:34:02Z</time>
      </trkpt>
      <trkpt lat="36.753757" lon="-3.259345">
        <ele>11.532</ele>
        <time>2021-06-16T10:34:03Z</time>
      </trkpt>
      <trkpt lat="36.753741" lon="-3.259522">
        <ele>11.605</ele>
        <time>2021-06-16T10:34:04Z</time>
      </trkpt>
      <trkpt lat="36.753715" lon="-3.259698">
        <ele>11.808</ele>
        <time>2021-06-16T10:34:05Z</time>
      </trkpt>
      <trkpt lat="36.753647" lon="-3.260027">
        <ele>11.918</ele>
        <time>2021-06-16T10:34:07Z</time>
      </trkpt>
      <trkpt lat="36.753571" lon="-3.260338">
        <ele>12.186</ele>
        <time>2021-06-16T10:34:09Z</time>
      </trkpt>
      <trkpt lat="36.753527" lon="-3.26049">
        <ele>11.990</ele>
        <time>2021-06-16T10:34:10Z</time>
      </trkpt>
      <trkpt lat="36.753485" lon="-3.260643">
        <ele>11.849</ele>
        <time>2021-06-16T10:34:11Z</time>
      </trkpt>
      <trkpt lat="36.753403" lon="-3.260944">
        <ele>11.422</ele>
        <time>2021-06-16T10:34:13Z</time>
      </trkpt>
      <trkpt lat="36.753364" lon="-3.261097">
        <ele>11.439</ele>
        <time>2021-06-16T10:34:14Z</time>
      </trkpt>
      <trkpt lat="36.753288" lon="-3.261383">
        <ele>11.366</ele>
        <time>2021-06-16T10:34:16Z</time>
      </trkpt>
      <trkpt lat="36.753249" lon="-3.261529">
        <ele>11.336</ele>
        <time>2021-06-16T10:34:17Z</time>
      </trkpt>
      <trkpt lat="36.753175" lon="-3.261824">
        <ele>11.125</ele>
        <time>2021-06-16T10:34:19Z</time>
      </trkpt>
      <trkpt lat="36.753096" lon="-3.262116">
        <ele>11.126</ele>
        <time>2021-06-16T10:34:21Z</time>
      </trkpt>
      <trkpt lat="36.753054" lon="-3.262254">
        <ele>11.308</ele>
        <time>2021-06-16T10:34:22Z</time>
      </trkpt>
      <trkpt lat="36.753012" lon="-3.262387">
        <ele>11.608</ele>
        <time>2021-06-16T10:34:23Z</time>
      </trkpt>
      <trkpt lat="36.752945" lon="-3.262645">
        <ele>11.489</ele>
        <time>2021-06-16T10:34:25Z</time>
      </trkpt>
      <trkpt lat="36.75292" lon="-3.262769">
        <ele>11.627</ele>
        <time>2021-06-16T10:34:26Z</time>
      </trkpt>
      <trkpt lat="36.752867" lon="-3.263018">
        <ele>11.911</ele>
        <time>2021-06-16T10:34:28Z</time>
      </trkpt>
      <trkpt lat="36.752838" lon="-3.263148">
        <ele>11.720</ele>
        <time>2021-06-16T10:34:29Z</time>
      </trkpt>
      <trkpt lat="36.752769" lon="-3.26338">
        <ele>12.713</ele>
        <time>2021-06-16T10:34:31Z</time>
      </trkpt>
      <trkpt lat="36.752675" lon="-3.26365">
        <ele>13.170</ele>
        <time>2021-06-16T10:34:33Z</time>
      </trkpt>
      <trkpt lat="36.752589" lon="-3.263901">
        <ele>13.027</ele>
        <time>2021-06-16T10:34:35Z</time>
      </trkpt>
      <trkpt lat="36.752477" lon="-3.264149">
        <ele>12.077</ele>
        <time>2021-06-16T10:34:37Z</time>
      </trkpt>
      <trkpt lat="36.75236" lon="-3.264395">
        <ele>11.528</ele>
        <time>2021-06-16T10:34:39Z</time>
      </trkpt>
      <trkpt lat="36.752258" lon="-3.26467">
        <ele>11.289</ele>
        <time>2021-06-16T10:34:41Z</time>
      </trkpt>
      <trkpt lat="36.752207" lon="-3.264807">
        <ele>10.417</ele>
        <time>2021-06-16T10:34:42Z</time>
      </trkpt>
      <trkpt lat="36.752091" lon="-3.265083">
        <ele>10.208</ele>
        <time>2021-06-16T10:34:44Z</time>
      </trkpt>
      <trkpt lat="36.752023" lon="-3.265223">
        <ele>9.249</ele>
        <time>2021-06-16T10:34:45Z</time>
      </trkpt>
      <trkpt lat="36.751882" lon="-3.265517">
        <ele>8.747</ele>
        <time>2021-06-16T10:34:47Z</time>
      </trkpt>
      <trkpt lat="36.751815" lon="-3.265662">
        <ele>8.751</ele>
        <time>2021-06-16T10:34:48Z</time>
      </trkpt>
      <trkpt lat="36.751698" lon="-3.265927">
        <ele>8.680</ele>
        <time>2021-06-16T10:34:50Z</time>
      </trkpt>
      <trkpt lat="36.751638" lon="-3.266047">
        <ele>7.823</ele>
        <time>2021-06-16T10:34:51Z</time>
      </trkpt>
      <trkpt lat="36.751525" lon="-3.266257">
        <ele>7.240</ele>
        <time>2021-06-16T10:34:53Z</time>
      </trkpt>
      <trkpt lat="36.751477" lon="-3.266348">
        <ele>7.577</ele>
        <time>2021-06-16T10:34:54Z</time>
      </trkpt>
      <trkpt lat="36.751405" lon="-3.266494">
        <ele>7.467</ele>
        <time>2021-06-16T10:34:56Z</time>
      </trkpt>
      <trkpt lat="36.751377" lon="-3.266547">
        <ele>6.249</ele>
        <time>2021-06-16T10:34:57Z</time>
      </trkpt>
      <trkpt lat="36.751348" lon="-3.266592">
        <ele>5.402</ele>
        <time>2021-06-16T10:35:00Z</time>
      </trkpt>
      <trkpt lat="36.751287" lon="-3.266599">
        <ele>6.122</ele>
        <time>2021-06-16T10:36:08Z</time>
      </trkpt>
      <trkpt lat="36.751229" lon="-3.266703">
        <ele>6.508</ele>
        <time>2021-06-16T10:36:10Z</time>
      </trkpt>
      <trkpt lat="36.751138" lon="-3.266898">
        <ele>6.731</ele>
        <time>2021-06-16T10:36:12Z</time>
      </trkpt>
      <trkpt lat="36.751033" lon="-3.267111">
        <ele>6.869</ele>
        <time>2021-06-16T10:36:14Z</time>
      </trkpt>
      <trkpt lat="36.750974" lon="-3.267231">
        <ele>6.943</ele>
        <time>2021-06-16T10:36:15Z</time>
      </trkpt>
      <trkpt lat="36.750842" lon="-3.267484">
        <ele>6.922</ele>
        <time>2021-06-16T10:36:17Z</time>
      </trkpt>
      <trkpt lat="36.750771" lon="-3.267603">
        <ele>6.915</ele>
        <time>2021-06-16T10:36:18Z</time>
      </trkpt>
      <trkpt lat="36.750602" lon="-3.267816">
        <ele>6.982</ele>
        <time>2021-06-16T10:36:20Z</time>
      </trkpt>
      <trkpt lat="36.750509" lon="-3.267924">
        <ele>6.989</ele>
        <time>2021-06-16T10:36:21Z</time>
      </trkpt>
      <trkpt lat="36.750313" lon="-3.268091">
        <ele>6.939</ele>
        <time>2021-06-16T10:36:23Z</time>
      </trkpt>
      <trkpt lat="36.750114" lon="-3.268258">
        <ele>6.952</ele>
        <time>2021-06-16T10:36:25Z</time>
      </trkpt>
      <trkpt lat="36.750017" lon="-3.268349">
        <ele>6.953</ele>
        <time>2021-06-16T10:36:26Z</time>
      </trkpt>
      <trkpt lat="36.749921" lon="-3.268441">
        <ele>6.908</ele>
        <time>2021-06-16T10:36:27Z</time>
      </trkpt>
      <trkpt lat="36.749726" lon="-3.268649">
        <ele>6.908</ele>
        <time>2021-06-16T10:36:29Z</time>
      </trkpt>
      <trkpt lat="36.749632" lon="-3.26877">
        <ele>6.992</ele>
        <time>2021-06-16T10:36:30Z</time>
      </trkpt>
      <trkpt lat="36.749448" lon="-3.269003">
        <ele>6.970</ele>
        <time>2021-06-16T10:36:32Z</time>
      </trkpt>
      <trkpt lat="36.749361" lon="-3.269122">
        <ele>6.994</ele>
        <time>2021-06-16T10:36:33Z</time>
      </trkpt>
      <trkpt lat="36.749292" lon="-3.269256">
        <ele>6.963</ele>
        <time>2021-06-16T10:36:34Z</time>
      </trkpt>
      <trkpt lat="36.749199" lon="-3.269576">
        <ele>6.976</ele>
        <time>2021-06-16T10:36:36Z</time>
      </trkpt>
      <trkpt lat="36.74915" lon="-3.269737">
        <ele>6.973</ele>
        <time>2021-06-16T10:36:37Z</time>
      </trkpt>
      <trkpt lat="36.749101" lon="-3.269901">
        <ele>6.930</ele>
        <time>2021-06-16T10:36:38Z</time>
      </trkpt>
      <trkpt lat="36.749051" lon="-3.270246">
        <ele>6.930</ele>
        <time>2021-06-16T10:36:40Z</time>
      </trkpt>
      <trkpt lat="36.749047" lon="-3.270425">
        <ele>6.964</ele>
        <time>2021-06-16T10:36:41Z</time>
      </trkpt>
      <trkpt lat="36.74905" lon="-3.270763">
        <ele>6.906</ele>
        <time>2021-06-16T10:36:43Z</time>
      </trkpt>
      <trkpt lat="36.749097" lon="-3.271106">
        <ele>6.916</ele>
        <time>2021-06-16T10:36:45Z</time>
      </trkpt>
      <trkpt lat="36.749123" lon="-3.27129">
        <ele>6.908</ele>
        <time>2021-06-16T10:36:46Z</time>
      </trkpt>
      <trkpt lat="36.749175" lon="-3.271475">
        <ele>6.913</ele>
        <time>2021-06-16T10:36:47Z</time>
      </trkpt>
      <trkpt lat="36.749292" lon="-3.271842">
        <ele>6.911</ele>
        <time>2021-06-16T10:36:49Z</time>
      </trkpt>
      <trkpt lat="36.749342" lon="-3.272025">
        <ele>6.925</ele>
        <time>2021-06-16T10:36:50Z</time>
      </trkpt>
      <trkpt lat="36.749392" lon="-3.27221">
        <ele>6.934</ele>
        <time>2021-06-16T10:36:51Z</time>
      </trkpt>
      <trkpt lat="36.749457" lon="-3.27258">
        <ele>6.977</ele>
        <time>2021-06-16T10:36:53Z</time>
      </trkpt>
      <trkpt lat="36.749448" lon="-3.272758">
        <ele>6.944</ele>
        <time>2021-06-16T10:36:54Z</time>
      </trkpt>
      <trkpt lat="36.749383" lon="-3.273101">
        <ele>6.981</ele>
        <time>2021-06-16T10:36:56Z</time>
      </trkpt>
      <trkpt lat="36.749343" lon="-3.273258">
        <ele>6.921</ele>
        <time>2021-06-16T10:36:57Z</time>
      </trkpt>
      <trkpt lat="36.7492" lon="-3.273543">
        <ele>6.957</ele>
        <time>2021-06-16T10:36:59Z</time>
      </trkpt>
      <trkpt lat="36.749038" lon="-3.273825">
        <ele>6.900</ele>
        <time>2021-06-16T10:37:01Z</time>
      </trkpt>
      <trkpt lat="36.748893" lon="-3.274116">
        <ele>6.920</ele>
        <time>2021-06-16T10:37:03Z</time>
      </trkpt>
      <trkpt lat="36.748751" lon="-3.274405">
        <ele>6.908</ele>
        <time>2021-06-16T10:37:05Z</time>
      </trkpt>
      <trkpt lat="36.748679" lon="-3.274547">
        <ele>8.912</ele>
        <time>2021-06-16T10:37:06Z</time>
      </trkpt>
      <trkpt lat="36.748536" lon="-3.274824">
        <ele>11.040</ele>
        <time>2021-06-16T10:37:08Z</time>
      </trkpt>
      <trkpt lat="36.748396" lon="-3.27512">
        <ele>11.664</ele>
        <time>2021-06-16T10:37:10Z</time>
      </trkpt>
      <trkpt lat="36.748331" lon="-3.275275">
        <ele>11.313</ele>
        <time>2021-06-16T10:37:11Z</time>
      </trkpt>
      <trkpt lat="36.748273" lon="-3.275434">
        <ele>11.636</ele>
        <time>2021-06-16T10:37:12Z</time>
      </trkpt>
      <trkpt lat="36.748172" lon="-3.275766">
        <ele>11.423</ele>
        <time>2021-06-16T10:37:14Z</time>
      </trkpt>
      <trkpt lat="36.748117" lon="-3.275944">
        <ele>12.030</ele>
        <time>2021-06-16T10:37:15Z</time>
      </trkpt>
      <trkpt lat="36.748066" lon="-3.276124">
        <ele>11.760</ele>
        <time>2021-06-16T10:37:16Z</time>
      </trkpt>
      <trkpt lat="36.748013" lon="-3.276307">
        <ele>12.574</ele>
        <time>2021-06-16T10:37:17Z</time>
      </trkpt>
      <trkpt lat="36.747913" lon="-3.276667">
        <ele>12.556</ele>
        <time>2021-06-16T10:37:19Z</time>
      </trkpt>
      <trkpt lat="36.747825" lon="-3.277012">
        <ele>12.021</ele>
        <time>2021-06-16T10:37:21Z</time>
      </trkpt>
      <trkpt lat="36.747739" lon="-3.277348">
        <ele>11.608</ele>
        <time>2021-06-16T10:37:23Z</time>
      </trkpt>
      <trkpt lat="36.747693" lon="-3.277514">
        <ele>11.264</ele>
        <time>2021-06-16T10:37:24Z</time>
      </trkpt>
      <trkpt lat="36.747603" lon="-3.277843">
        <ele>11.732</ele>
        <time>2021-06-16T10:37:26Z</time>
      </trkpt>
      <trkpt lat="36.74752" lon="-3.278163">
        <ele>11.896</ele>
        <time>2021-06-16T10:37:28Z</time>
      </trkpt>
      <trkpt lat="36.747469" lon="-3.278324">
        <ele>12.235</ele>
        <time>2021-06-16T10:37:29Z</time>
      </trkpt>
      <trkpt lat="36.747368" lon="-3.278649">
        <ele>12.948</ele>
        <time>2021-06-16T10:37:31Z</time>
      </trkpt>
      <trkpt lat="36.747286" lon="-3.278972">
        <ele>13.545</ele>
        <time>2021-06-16T10:37:33Z</time>
      </trkpt>
      <trkpt lat="36.747243" lon="-3.279136">
        <ele>13.292</ele>
        <time>2021-06-16T10:37:34Z</time>
      </trkpt>
      <trkpt lat="36.747198" lon="-3.279302">
        <ele>13.392</ele>
        <time>2021-06-16T10:37:35Z</time>
      </trkpt>
      <trkpt lat="36.747151" lon="-3.279468">
        <ele>13.196</ele>
        <time>2021-06-16T10:37:36Z</time>
      </trkpt>
      <trkpt lat="36.747058" lon="-3.279791">
        <ele>13.331</ele>
        <time>2021-06-16T10:37:38Z</time>
      </trkpt>
      <trkpt lat="36.746942" lon="-3.2801">
        <ele>12.724</ele>
        <time>2021-06-16T10:37:40Z</time>
      </trkpt>
      <trkpt lat="36.746778" lon="-3.280383">
        <ele>12.608</ele>
        <time>2021-06-16T10:37:42Z</time>
      </trkpt>
      <trkpt lat="36.746576" lon="-3.280639">
        <ele>12.046</ele>
        <time>2021-06-16T10:37:44Z</time>
      </trkpt>
      <trkpt lat="36.746456" lon="-3.280748">
        <ele>11.444</ele>
        <time>2021-06-16T10:37:45Z</time>
      </trkpt>
      <trkpt lat="36.746326" lon="-3.28084">
        <ele>11.178</ele>
        <time>2021-06-16T10:37:46Z</time>
      </trkpt>
      <trkpt lat="36.746064" lon="-3.281019">
        <ele>11.377</ele>
        <time>2021-06-16T10:37:48Z</time>
      </trkpt>
      <trkpt lat="36.745941" lon="-3.281114">
        <ele>10.850</ele>
        <time>2021-06-16T10:37:49Z</time>
      </trkpt>
      <trkpt lat="36.745714" lon="-3.281301">
        <ele>9.637</ele>
        <time>2021-06-16T10:37:51Z</time>
      </trkpt>
      <trkpt lat="36.745497" lon="-3.281517">
        <ele>8.994</ele>
        <time>2021-06-16T10:37:53Z</time>
      </trkpt>
      <trkpt lat="36.745398" lon="-3.28165">
        <ele>8.564</ele>
        <time>2021-06-16T10:37:54Z</time>
      </trkpt>
      <trkpt lat="36.745231" lon="-3.281947">
        <ele>7.364</ele>
        <time>2021-06-16T10:37:56Z</time>
      </trkpt>
      <trkpt lat="36.745068" lon="-3.282258">
        <ele>7.206</ele>
        <time>2021-06-16T10:37:58Z</time>
      </trkpt>
      <trkpt lat="36.744917" lon="-3.282571">
        <ele>7.416</ele>
        <time>2021-06-16T10:38:00Z</time>
      </trkpt>
      <trkpt lat="36.744777" lon="-3.282887">
        <ele>8.208</ele>
        <time>2021-06-16T10:38:02Z</time>
      </trkpt>
      <trkpt lat="36.744623" lon="-3.283204">
        <ele>8.793</ele>
        <time>2021-06-16T10:38:04Z</time>
      </trkpt>
      <trkpt lat="36.744549" lon="-3.283364">
        <ele>9.111</ele>
        <time>2021-06-16T10:38:05Z</time>
      </trkpt>
      <trkpt lat="36.744395" lon="-3.283675">
        <ele>9.455</ele>
        <time>2021-06-16T10:38:07Z</time>
      </trkpt>
      <trkpt lat="36.744245" lon="-3.283986">
        <ele>9.614</ele>
        <time>2021-06-16T10:38:09Z</time>
      </trkpt>
      <trkpt lat="36.744178" lon="-3.284143">
        <ele>10.137</ele>
        <time>2021-06-16T10:38:10Z</time>
      </trkpt>
      <trkpt lat="36.744066" lon="-3.284481">
        <ele>10.664</ele>
        <time>2021-06-16T10:38:12Z</time>
      </trkpt>
      <trkpt lat="36.743987" lon="-3.284837">
        <ele>12.411</ele>
        <time>2021-06-16T10:38:14Z</time>
      </trkpt>
      <trkpt lat="36.743942" lon="-3.285016">
        <ele>14.121</ele>
        <time>2021-06-16T10:38:15Z</time>
      </trkpt>
      <trkpt lat="36.743895" lon="-3.2852">
        <ele>14.933</ele>
        <time>2021-06-16T10:38:16Z</time>
      </trkpt>
      <trkpt lat="36.743806" lon="-3.285555">
        <ele>15.123</ele>
        <time>2021-06-16T10:38:18Z</time>
      </trkpt>
      <trkpt lat="36.743717" lon="-3.285906">
        <ele>15.315</ele>
        <time>2021-06-16T10:38:20Z</time>
      </trkpt>
      <trkpt lat="36.743673" lon="-3.286079">
        <ele>16.108</ele>
        <time>2021-06-16T10:38:21Z</time>
      </trkpt>
      <trkpt lat="36.743484" lon="-3.287293">
        <ele>15.650</ele>
        <time>2021-06-16T10:38:28Z</time>
      </trkpt>
      <trkpt lat="36.743422" lon="-3.287455">
        <ele>16.138</ele>
        <time>2021-06-16T10:38:29Z</time>
      </trkpt>
      <trkpt lat="36.74329" lon="-3.287771">
        <ele>16.442</ele>
        <time>2021-06-16T10:38:31Z</time>
      </trkpt>
      <trkpt lat="36.743212" lon="-3.287922">
        <ele>16.521</ele>
        <time>2021-06-16T10:38:32Z</time>
      </trkpt>
      <trkpt lat="36.743133" lon="-3.288072">
        <ele>16.464</ele>
        <time>2021-06-16T10:38:33Z</time>
      </trkpt>
      <trkpt lat="36.742988" lon="-3.288382">
        <ele>16.551</ele>
        <time>2021-06-16T10:38:35Z</time>
      </trkpt>
      <trkpt lat="36.74292" lon="-3.288536">
        <ele>16.558</ele>
        <time>2021-06-16T10:38:36Z</time>
      </trkpt>
      <trkpt lat="36.742859" lon="-3.288689">
        <ele>16.668</ele>
        <time>2021-06-16T10:38:37Z</time>
      </trkpt>
      <trkpt lat="36.74282" lon="-3.288848">
        <ele>16.627</ele>
        <time>2021-06-16T10:38:38Z</time>
      </trkpt>
      <trkpt lat="36.742771" lon="-3.28918">
        <ele>16.568</ele>
        <time>2021-06-16T10:38:40Z</time>
      </trkpt>
      <trkpt lat="36.742733" lon="-3.289514">
        <ele>15.714</ele>
        <time>2021-06-16T10:38:42Z</time>
      </trkpt>
      <trkpt lat="36.742682" lon="-3.289857">
        <ele>15.208</ele>
        <time>2021-06-16T10:38:44Z</time>
      </trkpt>
      <trkpt lat="36.742585" lon="-3.290213">
        <ele>14.679</ele>
        <time>2021-06-16T10:38:46Z</time>
      </trkpt>
      <trkpt lat="36.742464" lon="-3.290567">
        <ele>14.367</ele>
        <time>2021-06-16T10:38:48Z</time>
      </trkpt>
      <trkpt lat="36.742356" lon="-3.290919">
        <ele>13.191</ele>
        <time>2021-06-16T10:38:50Z</time>
      </trkpt>
      <trkpt lat="36.742242" lon="-3.291266">
        <ele>13.060</ele>
        <time>2021-06-16T10:38:52Z</time>
      </trkpt>
      <trkpt lat="36.742146" lon="-3.291615">
        <ele>13.083</ele>
        <time>2021-06-16T10:38:54Z</time>
      </trkpt>
      <trkpt lat="36.742107" lon="-3.291793">
        <ele>12.450</ele>
        <time>2021-06-16T10:38:55Z</time>
      </trkpt>
      <trkpt lat="36.742077" lon="-3.292146">
        <ele>12.167</ele>
        <time>2021-06-16T10:38:57Z</time>
      </trkpt>
      <trkpt lat="36.742074" lon="-3.292325">
        <ele>12.157</ele>
        <time>2021-06-16T10:38:58Z</time>
      </trkpt>
      <trkpt lat="36.742071" lon="-3.292502">
        <ele>12.649</ele>
        <time>2021-06-16T10:38:59Z</time>
      </trkpt>
      <trkpt lat="36.742072" lon="-3.292853">
        <ele>12.502</ele>
        <time>2021-06-16T10:39:01Z</time>
      </trkpt>
      <trkpt lat="36.742073" lon="-3.293031">
        <ele>11.922</ele>
        <time>2021-06-16T10:39:02Z</time>
      </trkpt>
      <trkpt lat="36.742069" lon="-3.293216">
        <ele>11.408</ele>
        <time>2021-06-16T10:39:03Z</time>
      </trkpt>
      <trkpt lat="36.742054" lon="-3.293596">
        <ele>11.221</ele>
        <time>2021-06-16T10:39:05Z</time>
      </trkpt>
      <trkpt lat="36.742032" lon="-3.293787">
        <ele>11.119</ele>
        <time>2021-06-16T10:39:06Z</time>
      </trkpt>
      <trkpt lat="36.742005" lon="-3.293974">
        <ele>10.393</ele>
        <time>2021-06-16T10:39:07Z</time>
      </trkpt>
      <trkpt lat="36.741965" lon="-3.294157">
        <ele>10.012</ele>
        <time>2021-06-16T10:39:08Z</time>
      </trkpt>
      <trkpt lat="36.741884" lon="-3.29453">
        <ele>9.925</ele>
        <time>2021-06-16T10:39:10Z</time>
      </trkpt>
      <trkpt lat="36.741817" lon="-3.294906">
        <ele>9.522</ele>
        <time>2021-06-16T10:39:12Z</time>
      </trkpt>
      <trkpt lat="36.741779" lon="-3.295094">
        <ele>9.249</ele>
        <time>2021-06-16T10:39:13Z</time>
      </trkpt>
      <trkpt lat="36.74174" lon="-3.295279">
        <ele>9.059</ele>
        <time>2021-06-16T10:39:14Z</time>
      </trkpt>
      <trkpt lat="36.741655" lon="-3.295645">
        <ele>9.094</ele>
        <time>2021-06-16T10:39:16Z</time>
      </trkpt>
      <trkpt lat="36.741565" lon="-3.296008">
        <ele>9.157</ele>
        <time>2021-06-16T10:39:18Z</time>
      </trkpt>
      <trkpt lat="36.74152" lon="-3.296186">
        <ele>9.222</ele>
        <time>2021-06-16T10:39:19Z</time>
      </trkpt>
      <trkpt lat="36.741472" lon="-3.296366">
        <ele>8.908</ele>
        <time>2021-06-16T10:39:20Z</time>
      </trkpt>
      <trkpt lat="36.741426" lon="-3.296543">
        <ele>8.686</ele>
        <time>2021-06-16T10:39:21Z</time>
      </trkpt>
      <trkpt lat="36.74134" lon="-3.296897">
        <ele>8.234</ele>
        <time>2021-06-16T10:39:23Z</time>
      </trkpt>
      <trkpt lat="36.741301" lon="-3.297068">
        <ele>7.938</ele>
        <time>2021-06-16T10:39:24Z</time>
      </trkpt>
      <trkpt lat="36.741217" lon="-3.297422">
        <ele>7.317</ele>
        <time>2021-06-16T10:39:26Z</time>
      </trkpt>
      <trkpt lat="36.741177" lon="-3.297601">
        <ele>6.810</ele>
        <time>2021-06-16T10:39:27Z</time>
      </trkpt>
      <trkpt lat="36.741091" lon="-3.297957">
        <ele>6.587</ele>
        <time>2021-06-16T10:39:29Z</time>
      </trkpt>
      <trkpt lat="36.74105" lon="-3.298134">
        <ele>6.684</ele>
        <time>2021-06-16T10:39:30Z</time>
      </trkpt>
      <trkpt lat="36.74098" lon="-3.298492">
        <ele>6.684</ele>
        <time>2021-06-16T10:39:32Z</time>
      </trkpt>
      <trkpt lat="36.740931" lon="-3.298868">
        <ele>7.158</ele>
        <time>2021-06-16T10:39:34Z</time>
      </trkpt>
      <trkpt lat="36.740914" lon="-3.299262">
        <ele>7.352</ele>
        <time>2021-06-16T10:39:36Z</time>
      </trkpt>
      <trkpt lat="36.740922" lon="-3.299658">
        <ele>7.617</ele>
        <time>2021-06-16T10:39:38Z</time>
      </trkpt>
      <trkpt lat="36.740945" lon="-3.299857">
        <ele>7.708</ele>
        <time>2021-06-16T10:39:39Z</time>
      </trkpt>
      <trkpt lat="36.74104" lon="-3.300256">
        <ele>8.282</ele>
        <time>2021-06-16T10:39:41Z</time>
      </trkpt>
      <trkpt lat="36.741103" lon="-3.300448">
        <ele>9.060</ele>
        <time>2021-06-16T10:39:42Z</time>
      </trkpt>
      <trkpt lat="36.741167" lon="-3.300641">
        <ele>9.844</ele>
        <time>2021-06-16T10:39:43Z</time>
      </trkpt>
      <trkpt lat="36.741298" lon="-3.301022">
        <ele>11.293</ele>
        <time>2021-06-16T10:39:45Z</time>
      </trkpt>
      <trkpt lat="36.741419" lon="-3.301403">
        <ele>12.986</ele>
        <time>2021-06-16T10:39:47Z</time>
      </trkpt>
      <trkpt lat="36.741535" lon="-3.301779">
        <ele>14.693</ele>
        <time>2021-06-16T10:39:49Z</time>
      </trkpt>
      <trkpt lat="36.741644" lon="-3.302155">
        <ele>16.710</ele>
        <time>2021-06-16T10:39:51Z</time>
      </trkpt>
      <trkpt lat="36.741699" lon="-3.302345">
        <ele>18.240</ele>
        <time>2021-06-16T10:39:52Z</time>
      </trkpt>
      <trkpt lat="36.741808" lon="-3.302724">
        <ele>20.378</ele>
        <time>2021-06-16T10:39:54Z</time>
      </trkpt>
      <trkpt lat="36.741913" lon="-3.303106">
        <ele>22.433</ele>
        <time>2021-06-16T10:39:56Z</time>
      </trkpt>
      <trkpt lat="36.741972" lon="-3.303293">
        <ele>24.026</ele>
        <time>2021-06-16T10:39:57Z</time>
      </trkpt>
      <trkpt lat="36.742035" lon="-3.303478">
        <ele>25.308</ele>
        <time>2021-06-16T10:39:58Z</time>
      </trkpt>
      <trkpt lat="36.742109" lon="-3.303656">
        <ele>26.694</ele>
        <time>2021-06-16T10:39:59Z</time>
      </trkpt>
      <trkpt lat="36.742313" lon="-3.30398">
        <ele>28.132</ele>
        <time>2021-06-16T10:40:01Z</time>
      </trkpt>
      <trkpt lat="36.742579" lon="-3.304248">
        <ele>29.446</ele>
        <time>2021-06-16T10:40:03Z</time>
      </trkpt>
      <trkpt lat="36.742729" lon="-3.304355">
        <ele>30.415</ele>
        <time>2021-06-16T10:40:04Z</time>
      </trkpt>
      <trkpt lat="36.743053" lon="-3.304504">
        <ele>31.938</ele>
        <time>2021-06-16T10:40:06Z</time>
      </trkpt>
      <trkpt lat="36.743225" lon="-3.304547">
        <ele>33.895</ele>
        <time>2021-06-16T10:40:07Z</time>
      </trkpt>
      <trkpt lat="36.743568" lon="-3.304577">
        <ele>35.512</ele>
        <time>2021-06-16T10:40:09Z</time>
      </trkpt>
      <trkpt lat="36.743743" lon="-3.30457">
        <ele>37.082</ele>
        <time>2021-06-16T10:40:10Z</time>
      </trkpt>
      <trkpt lat="36.744099" lon="-3.304555">
        <ele>39.118</ele>
        <time>2021-06-16T10:40:12Z</time>
      </trkpt>
      <trkpt lat="36.744278" lon="-3.304554">
        <ele>41.098</ele>
        <time>2021-06-16T10:40:13Z</time>
      </trkpt>
      <trkpt lat="36.744642" lon="-3.3046">
        <ele>43.717</ele>
        <time>2021-06-16T10:40:15Z</time>
      </trkpt>
      <trkpt lat="36.744994" lon="-3.304723">
        <ele>46.408</ele>
        <time>2021-06-16T10:40:17Z</time>
      </trkpt>
      <trkpt lat="36.745166" lon="-3.304813">
        <ele>48.428</ele>
        <time>2021-06-16T10:40:18Z</time>
      </trkpt>
      <trkpt lat="36.745497" lon="-3.305034">
        <ele>50.666</ele>
        <time>2021-06-16T10:40:20Z</time>
      </trkpt>
      <trkpt lat="36.745649" lon="-3.30517">
        <ele>52.270</ele>
        <time>2021-06-16T10:40:21Z</time>
      </trkpt>
      <trkpt lat="36.745917" lon="-3.305492">
        <ele>54.629</ele>
        <time>2021-06-16T10:40:23Z</time>
      </trkpt>
      <trkpt lat="36.746036" lon="-3.305673">
        <ele>56.392</ele>
        <time>2021-06-16T10:40:24Z</time>
      </trkpt>
      <trkpt lat="36.746239" lon="-3.306063">
        <ele>58.979</ele>
        <time>2021-06-16T10:40:26Z</time>
      </trkpt>
      <trkpt lat="36.746319" lon="-3.306271">
        <ele>60.726</ele>
        <time>2021-06-16T10:40:27Z</time>
      </trkpt>
      <trkpt lat="36.746392" lon="-3.306478">
        <ele>62.026</ele>
        <time>2021-06-16T10:40:28Z</time>
      </trkpt>
      <trkpt lat="36.746455" lon="-3.306687">
        <ele>63.333</ele>
        <time>2021-06-16T10:40:29Z</time>
      </trkpt>
      <trkpt lat="36.746527" lon="-3.307126">
        <ele>64.723</ele>
        <time>2021-06-16T10:40:31Z</time>
      </trkpt>
      <trkpt lat="36.746553" lon="-3.307343">
        <ele>66.215</ele>
        <time>2021-06-16T10:40:32Z</time>
      </trkpt>
      <trkpt lat="36.746581" lon="-3.307554">
        <ele>67.308</ele>
        <time>2021-06-16T10:40:33Z</time>
      </trkpt>
      <trkpt lat="36.746619" lon="-3.307763">
        <ele>68.650</ele>
        <time>2021-06-16T10:40:34Z</time>
      </trkpt>
      <trkpt lat="36.746745" lon="-3.308156">
        <ele>70.218</ele>
        <time>2021-06-16T10:40:36Z</time>
      </trkpt>
      <trkpt lat="36.74696" lon="-3.308483">
        <ele>72.192</ele>
        <time>2021-06-16T10:40:38Z</time>
      </trkpt>
      <trkpt lat="36.747073" lon="-3.308636">
        <ele>73.241</ele>
        <time>2021-06-16T10:40:39Z</time>
      </trkpt>
      <trkpt lat="36.747281" lon="-3.308954">
        <ele>75.384</ele>
        <time>2021-06-16T10:40:41Z</time>
      </trkpt>
      <trkpt lat="36.747422" lon="-3.30934">
        <ele>77.371</ele>
        <time>2021-06-16T10:40:43Z</time>
      </trkpt>
      <trkpt lat="36.74746" lon="-3.309554">
        <ele>78.988</ele>
        <time>2021-06-16T10:40:44Z</time>
      </trkpt>
      <trkpt lat="36.74745" lon="-3.309992">
        <ele>80.578</ele>
        <time>2021-06-16T10:40:46Z</time>
      </trkpt>
      <trkpt lat="36.747361" lon="-3.310418">
        <ele>82.072</ele>
        <time>2021-06-16T10:40:48Z</time>
      </trkpt>
      <trkpt lat="36.747242" lon="-3.310836">
        <ele>83.413</ele>
        <time>2021-06-16T10:40:50Z</time>
      </trkpt>
      <trkpt lat="36.747141" lon="-3.31127">
        <ele>84.714</ele>
        <time>2021-06-16T10:40:52Z</time>
      </trkpt>
      <trkpt lat="36.747105" lon="-3.311493">
        <ele>86.008</ele>
        <time>2021-06-16T10:40:53Z</time>
      </trkpt>
      <trkpt lat="36.747079" lon="-3.311722">
        <ele>87.084</ele>
        <time>2021-06-16T10:40:54Z</time>
      </trkpt>
      <trkpt lat="36.747068" lon="-3.311954">
        <ele>87.912</ele>
        <time>2021-06-16T10:40:55Z</time>
      </trkpt>
      <trkpt lat="36.747071" lon="-3.31219">
        <ele>89.376</ele>
        <time>2021-06-16T10:40:56Z</time>
      </trkpt>
      <trkpt lat="36.747115" lon="-3.312659">
        <ele>90.635</ele>
        <time>2021-06-16T10:40:58Z</time>
      </trkpt>
      <trkpt lat="36.747217" lon="-3.313104">
        <ele>92.018</ele>
        <time>2021-06-16T10:41:00Z</time>
      </trkpt>
      <trkpt lat="36.747292" lon="-3.313315">
        <ele>93.495</ele>
        <time>2021-06-16T10:41:01Z</time>
      </trkpt>
      <trkpt lat="36.747453" lon="-3.313719">
        <ele>94.622</ele>
        <time>2021-06-16T10:41:03Z</time>
      </trkpt>
      <trkpt lat="36.747545" lon="-3.313908">
        <ele>95.582</ele>
        <time>2021-06-16T10:41:04Z</time>
      </trkpt>
      <trkpt lat="36.747743" lon="-3.314242">
        <ele>96.559</ele>
        <time>2021-06-16T10:41:06Z</time>
      </trkpt>
      <trkpt lat="36.74784" lon="-3.314381">
        <ele>97.503</ele>
        <time>2021-06-16T10:41:07Z</time>
      </trkpt>
      <trkpt lat="36.747927" lon="-3.314508">
        <ele>98.223</ele>
        <time>2021-06-16T10:41:08Z</time>
      </trkpt>
      <trkpt lat="36.748071" lon="-3.314682">
        <ele>99.508</ele>
        <time>2021-06-16T10:41:10Z</time>
      </trkpt>
      <trkpt lat="36.748144" lon="-3.314729">
        <ele>100.462</ele>
        <time>2021-06-16T10:41:11Z</time>
      </trkpt>
      <trkpt lat="36.7483" lon="-3.314758">
        <ele>101.520</ele>
        <time>2021-06-16T10:41:13Z</time>
      </trkpt>
      <trkpt lat="36.748411" lon="-3.314826">
        <ele>102.514</ele>
        <time>2021-06-16T10:41:15Z</time>
      </trkpt>
      <trkpt lat="36.7484" lon="-3.314961">
        <ele>103.293</ele>
        <time>2021-06-16T10:41:17Z</time>
      </trkpt>
      <trkpt lat="36.74829" lon="-3.315027">
        <ele>103.956</ele>
        <time>2021-06-16T10:41:19Z</time>
      </trkpt>
      <trkpt lat="36.748177" lon="-3.314976">
        <ele>104.253</ele>
        <time>2021-06-16T10:41:21Z</time>
      </trkpt>
      <trkpt lat="36.748142" lon="-3.314908">
        <ele>104.390</ele>
        <time>2021-06-16T10:41:22Z</time>
      </trkpt>
      <trkpt lat="36.748129" lon="-3.314834">
        <ele>104.620</ele>
        <time>2021-06-16T10:41:23Z</time>
      </trkpt>
      <trkpt lat="36.748193" lon="-3.314714">
        <ele>104.975</ele>
        <time>2021-06-16T10:41:25Z</time>
      </trkpt>
      <trkpt lat="36.748287" lon="-3.314673">
        <ele>105.028</ele>
        <time>2021-06-16T10:41:27Z</time>
      </trkpt>
      <trkpt lat="36.748336" lon="-3.314642">
        <ele>105.420</ele>
        <time>2021-06-16T10:41:28Z</time>
      </trkpt>
      <trkpt lat="36.748382" lon="-3.314584">
        <ele>105.508</ele>
        <time>2021-06-16T10:41:29Z</time>
      </trkpt>
      <trkpt lat="36.748422" lon="-3.314389">
        <ele>105.354</ele>
        <time>2021-06-16T10:41:31Z</time>
      </trkpt>
      <trkpt lat="36.748352" lon="-3.31417">
        <ele>105.392</ele>
        <time>2021-06-16T10:41:33Z</time>
      </trkpt>
      <trkpt lat="36.748212" lon="-3.313973">
        <ele>104.886</ele>
        <time>2021-06-16T10:41:35Z</time>
      </trkpt>
      <trkpt lat="36.748129" lon="-3.313882">
        <ele>104.985</ele>
        <time>2021-06-16T10:41:36Z</time>
      </trkpt>
      <trkpt lat="36.747957" lon="-3.313709">
        <ele>105.688</ele>
        <time>2021-06-16T10:41:38Z</time>
      </trkpt>
      <trkpt lat="36.747875" lon="-3.31363">
        <ele>106.515</ele>
        <time>2021-06-16T10:41:39Z</time>
      </trkpt>
      <trkpt lat="36.747728" lon="-3.313464">
        <ele>107.332</ele>
        <time>2021-06-16T10:41:41Z</time>
      </trkpt>
      <trkpt lat="36.747673" lon="-3.313365">
        <ele>108.232</ele>
        <time>2021-06-16T10:41:42Z</time>
      </trkpt>
      <trkpt lat="36.747632" lon="-3.313255">
        <ele>109.347</ele>
        <time>2021-06-16T10:41:43Z</time>
      </trkpt>
      <trkpt lat="36.747611" lon="-3.313139">
        <ele>110.129</ele>
        <time>2021-06-16T10:41:44Z</time>
      </trkpt>
      <trkpt lat="36.747606" lon="-3.313019">
        <ele>110.821</ele>
        <time>2021-06-16T10:41:45Z</time>
      </trkpt>
      <trkpt lat="36.747658" lon="-3.31279">
        <ele>112.608</ele>
        <time>2021-06-16T10:41:47Z</time>
      </trkpt>
      <trkpt lat="36.747714" lon="-3.312688">
        <ele>114.041</ele>
        <time>2021-06-16T10:41:48Z</time>
      </trkpt>
      <trkpt lat="36.747787" lon="-3.312598">
        <ele>114.869</ele>
        <time>2021-06-16T10:41:49Z</time>
      </trkpt>
      <trkpt lat="36.747873" lon="-3.312522">
        <ele>115.933</ele>
        <time>2021-06-16T10:41:50Z</time>
      </trkpt>
      <trkpt lat="36.748072" lon="-3.312433">
        <ele>116.562</ele>
        <time>2021-06-16T10:41:52Z</time>
      </trkpt>
      <trkpt lat="36.748183" lon="-3.312432">
        <ele>116.995</ele>
        <time>2021-06-16T10:41:53Z</time>
      </trkpt>
      <trkpt lat="36.748411" lon="-3.312468">
        <ele>117.682</ele>
        <time>2021-06-16T10:41:55Z</time>
      </trkpt>
      <trkpt lat="36.748524" lon="-3.312494">
        <ele>118.049</ele>
        <time>2021-06-16T10:41:56Z</time>
      </trkpt>
      <trkpt lat="36.748742" lon="-3.312553">
        <ele>119.419</ele>
        <time>2021-06-16T10:41:58Z</time>
      </trkpt>
      <trkpt lat="36.748846" lon="-3.31258">
        <ele>119.934</ele>
        <time>2021-06-16T10:41:59Z</time>
      </trkpt>
      <trkpt lat="36.748949" lon="-3.312611">
        <ele>120.755</ele>
        <time>2021-06-16T10:42:00Z</time>
      </trkpt>
      <trkpt lat="36.749144" lon="-3.312666">
        <ele>121.210</ele>
        <time>2021-06-16T10:42:02Z</time>
      </trkpt>
      <trkpt lat="36.749225" lon="-3.312685">
        <ele>122.108</ele>
        <time>2021-06-16T10:42:03Z</time>
      </trkpt>
      <trkpt lat="36.749384" lon="-3.312707">
        <ele>122.990</ele>
        <time>2021-06-16T10:42:05Z</time>
      </trkpt>
      <trkpt lat="36.74945" lon="-3.312721">
        <ele>122.758</ele>
        <time>2021-06-16T10:42:06Z</time>
      </trkpt>
      <trkpt lat="36.749518" lon="-3.312742">
        <ele>124.292</ele>
        <time>2021-06-16T10:42:08Z</time>
      </trkpt>
      <trkpt lat="36.749477" lon="-3.312818">
        <ele>125.171</ele>
        <time>2021-06-16T10:42:11Z</time>
      </trkpt>
      <trkpt lat="36.749432" lon="-3.312857">
        <ele>126.484</ele>
        <time>2021-06-16T10:42:13Z</time>
      </trkpt>
      <trkpt lat="36.749382" lon="-3.31279">
        <ele>126.611</ele>
        <time>2021-06-16T10:42:16Z</time>
      </trkpt>
      <trkpt lat="36.74933" lon="-3.312726">
        <ele>126.418</ele>
        <time>2021-06-16T10:42:18Z</time>
      </trkpt>
      <trkpt lat="36.749236" lon="-3.312688">
        <ele>125.788</ele>
        <time>2021-06-16T10:42:20Z</time>
      </trkpt>
      <trkpt lat="36.749161" lon="-3.312682">
        <ele>125.313</ele>
        <time>2021-06-16T10:42:21Z</time>
      </trkpt>
      <trkpt lat="36.749002" lon="-3.312669">
        <ele>124.543</ele>
        <time>2021-06-16T10:42:23Z</time>
      </trkpt>
      <trkpt lat="36.748844" lon="-3.312635">
        <ele>124.107</ele>
        <time>2021-06-16T10:42:25Z</time>
      </trkpt>
      <trkpt lat="36.748757" lon="-3.312615">
        <ele>123.608</ele>
        <time>2021-06-16T10:42:26Z</time>
      </trkpt>
      <trkpt lat="36.748669" lon="-3.312595">
        <ele>123.218</ele>
        <time>2021-06-16T10:42:27Z</time>
      </trkpt>
      <trkpt lat="36.748485" lon="-3.312558">
        <ele>122.276</ele>
        <time>2021-06-16T10:42:29Z</time>
      </trkpt>
      <trkpt lat="36.748387" lon="-3.312539">
        <ele>120.910</ele>
        <time>2021-06-16T10:42:30Z</time>
      </trkpt>
      <trkpt lat="36.748174" lon="-3.312505">
        <ele>119.629</ele>
        <time>2021-06-16T10:42:32Z</time>
      </trkpt>
      <trkpt lat="36.748064" lon="-3.3125">
        <ele>118.862</ele>
        <time>2021-06-16T10:42:33Z</time>
      </trkpt>
      <trkpt lat="36.747959" lon="-3.312522">
        <ele>118.059</ele>
        <time>2021-06-16T10:42:34Z</time>
      </trkpt>
      <trkpt lat="36.747777" lon="-3.312644">
        <ele>117.096</ele>
        <time>2021-06-16T10:42:36Z</time>
      </trkpt>
      <trkpt lat="36.747705" lon="-3.312751">
        <ele>116.056</ele>
        <time>2021-06-16T10:42:37Z</time>
      </trkpt>
      <trkpt lat="36.747654" lon="-3.312879">
        <ele>115.051</ele>
        <time>2021-06-16T10:42:38Z</time>
      </trkpt>
      <trkpt lat="36.747637" lon="-3.313163">
        <ele>113.901</ele>
        <time>2021-06-16T10:42:40Z</time>
      </trkpt>
      <trkpt lat="36.747728" lon="-3.313437">
        <ele>112.211</ele>
        <time>2021-06-16T10:42:42Z</time>
      </trkpt>
      <trkpt lat="36.747895" lon="-3.313643">
        <ele>110.208</ele>
        <time>2021-06-16T10:42:44Z</time>
      </trkpt>
      <trkpt lat="36.747996" lon="-3.313731">
        <ele>108.532</ele>
        <time>2021-06-16T10:42:45Z</time>
      </trkpt>
      <trkpt lat="36.748096" lon="-3.313817">
        <ele>107.530</ele>
        <time>2021-06-16T10:42:46Z</time>
      </trkpt>
      <trkpt lat="36.748265" lon="-3.313994">
        <ele>106.774</ele>
        <time>2021-06-16T10:42:48Z</time>
      </trkpt>
      <trkpt lat="36.748328" lon="-3.314098">
        <ele>106.593</ele>
        <time>2021-06-16T10:42:49Z</time>
      </trkpt>
      <trkpt lat="36.74839" lon="-3.314205">
        <ele>106.466</ele>
        <time>2021-06-16T10:42:50Z</time>
      </trkpt>
      <trkpt lat="36.748451" lon="-3.314308">
        <ele>106.073</ele>
        <time>2021-06-16T10:42:51Z</time>
      </trkpt>
      <trkpt lat="36.74851" lon="-3.314525">
        <ele>106.290</ele>
        <time>2021-06-16T10:42:53Z</time>
      </trkpt>
      <trkpt lat="36.748451" lon="-3.314744">
        <ele>106.730</ele>
        <time>2021-06-16T10:42:55Z</time>
      </trkpt>
      <trkpt lat="36.74843" lon="-3.314839">
        <ele>107.232</ele>
        <time>2021-06-16T10:42:56Z</time>
      </trkpt>
      <trkpt lat="36.748421" lon="-3.314921">
        <ele>107.292</ele>
        <time>2021-06-16T10:42:57Z</time>
      </trkpt>
      <trkpt lat="36.748404" lon="-3.314987">
        <ele>107.511</ele>
        <time>2021-06-16T10:42:58Z</time>
      </trkpt>
      <trkpt lat="36.748325" lon="-3.315047">
        <ele>107.608</ele>
        <time>2021-06-16T10:43:00Z</time>
      </trkpt>
      <trkpt lat="36.748221" lon="-3.315009">
        <ele>107.390</ele>
        <time>2021-06-16T10:43:02Z</time>
      </trkpt>
      <trkpt lat="36.748183" lon="-3.314957">
        <ele>106.728</ele>
        <time>2021-06-16T10:43:03Z</time>
      </trkpt>
      <trkpt lat="36.748152" lon="-3.314891">
        <ele>106.242</ele>
        <time>2021-06-16T10:43:04Z</time>
      </trkpt>
      <trkpt lat="36.748161" lon="-3.314795">
        <ele>105.761</ele>
        <time>2021-06-16T10:43:06Z</time>
      </trkpt>
      <trkpt lat="36.748203" lon="-3.314714">
        <ele>105.164</ele>
        <time>2021-06-16T10:43:08Z</time>
      </trkpt>
      <trkpt lat="36.74828" lon="-3.314691">
        <ele>104.421</ele>
        <time>2021-06-16T10:43:10Z</time>
      </trkpt>
      <trkpt lat="36.748378" lon="-3.314743">
        <ele>104.288</ele>
        <time>2021-06-16T10:43:12Z</time>
      </trkpt>
      <trkpt lat="36.748413" lon="-3.314797">
        <ele>104.618</ele>
        <time>2021-06-16T10:43:13Z</time>
      </trkpt>
      <trkpt lat="36.74843" lon="-3.314863">
        <ele>105.033</ele>
        <time>2021-06-16T10:43:14Z</time>
      </trkpt>
      <trkpt lat="36.748428" lon="-3.314919">
        <ele>105.023</ele>
        <time>2021-06-16T10:43:15Z</time>
      </trkpt>
      <trkpt lat="36.748356" lon="-3.314997">
        <ele>105.515</ele>
        <time>2021-06-16T10:43:17Z</time>
      </trkpt>
      <trkpt lat="36.748274" lon="-3.315007">
        <ele>105.508</ele>
        <time>2021-06-16T10:43:19Z</time>
      </trkpt>
      <trkpt lat="36.748197" lon="-3.314956">
        <ele>105.550</ele>
        <time>2021-06-16T10:43:21Z</time>
      </trkpt>
      <trkpt lat="36.748147" lon="-3.314875">
        <ele>105.818</ele>
        <time>2021-06-16T10:43:23Z</time>
      </trkpt>
      <trkpt lat="36.748122" lon="-3.314788">
        <ele>105.762</ele>
        <time>2021-06-16T10:43:25Z</time>
      </trkpt>
      <trkpt lat="36.748077" lon="-3.314708">
        <ele>105.221</ele>
        <time>2021-06-16T10:43:27Z</time>
      </trkpt>
      <trkpt lat="36.747982" lon="-3.314567">
        <ele>104.554</ele>
        <time>2021-06-16T10:43:29Z</time>
      </trkpt>
      <trkpt lat="36.747924" lon="-3.314482">
        <ele>103.821</ele>
        <time>2021-06-16T10:43:30Z</time>
      </trkpt>
      <trkpt lat="36.747859" lon="-3.314383">
        <ele>103.368</ele>
        <time>2021-06-16T10:43:31Z</time>
      </trkpt>
      <trkpt lat="36.747787" lon="-3.314278">
        <ele>102.648</ele>
        <time>2021-06-16T10:43:32Z</time>
      </trkpt>
      <trkpt lat="36.747643" lon="-3.314055">
        <ele>101.883</ele>
        <time>2021-06-16T10:43:34Z</time>
      </trkpt>
      <trkpt lat="36.747501" lon="-3.313818">
        <ele>100.925</ele>
        <time>2021-06-16T10:43:36Z</time>
      </trkpt>
      <trkpt lat="36.747354" lon="-3.313547">
        <ele>99.017</ele>
        <time>2021-06-16T10:43:38Z</time>
      </trkpt>
      <trkpt lat="36.747287" lon="-3.313403">
        <ele>97.208</ele>
        <time>2021-06-16T10:43:39Z</time>
      </trkpt>
      <trkpt lat="36.747176" lon="-3.313093">
        <ele>95.655</ele>
        <time>2021-06-16T10:43:41Z</time>
      </trkpt>
      <trkpt lat="36.747133" lon="-3.312929">
        <ele>94.483</ele>
        <time>2021-06-16T10:43:42Z</time>
      </trkpt>
      <trkpt lat="36.747097" lon="-3.312763">
        <ele>93.877</ele>
        <time>2021-06-16T10:43:43Z</time>
      </trkpt>
      <trkpt lat="36.747045" lon="-3.312425">
        <ele>92.726</ele>
        <time>2021-06-16T10:43:45Z</time>
      </trkpt>
      <trkpt lat="36.747029" lon="-3.312253">
        <ele>92.179</ele>
        <time>2021-06-16T10:43:46Z</time>
      </trkpt>
      <trkpt lat="36.747016" lon="-3.311897">
        <ele>91.156</ele>
        <time>2021-06-16T10:43:48Z</time>
      </trkpt>
      <trkpt lat="36.747022" lon="-3.311716">
        <ele>90.413</ele>
        <time>2021-06-16T10:43:49Z</time>
      </trkpt>
      <trkpt lat="36.747034" lon="-3.311534">
        <ele>89.573</ele>
        <time>2021-06-16T10:43:50Z</time>
      </trkpt>
      <trkpt lat="36.747085" lon="-3.311166">
        <ele>88.664</ele>
        <time>2021-06-16T10:43:52Z</time>
      </trkpt>
      <trkpt lat="36.747121" lon="-3.310981">
        <ele>87.706</ele>
        <time>2021-06-16T10:43:53Z</time>
      </trkpt>
      <trkpt lat="36.747204" lon="-3.310634">
        <ele>86.516</ele>
        <time>2021-06-16T10:43:55Z</time>
      </trkpt>
      <trkpt lat="36.747256" lon="-3.310464">
        <ele>85.708</ele>
        <time>2021-06-16T10:43:56Z</time>
      </trkpt>
      <trkpt lat="36.747347" lon="-3.310126">
        <ele>84.793</ele>
        <time>2021-06-16T10:43:58Z</time>
      </trkpt>
      <trkpt lat="36.747385" lon="-3.309957">
        <ele>83.521</ele>
        <time>2021-06-16T10:43:59Z</time>
      </trkpt>
      <trkpt lat="36.747423" lon="-3.309614">
        <ele>82.685</ele>
        <time>2021-06-16T10:44:01Z</time>
      </trkpt>
      <trkpt lat="36.747409" lon="-3.309434">
        <ele>81.834</ele>
        <time>2021-06-16T10:44:02Z</time>
      </trkpt>
      <trkpt lat="36.747317" lon="-3.30909">
        <ele>80.937</ele>
        <time>2021-06-16T10:44:04Z</time>
      </trkpt>
      <trkpt lat="36.747242" lon="-3.30893">
        <ele>80.324</ele>
        <time>2021-06-16T10:44:05Z</time>
      </trkpt>
      <trkpt lat="36.747057" lon="-3.30864">
        <ele>79.211</ele>
        <time>2021-06-16T10:44:07Z</time>
      </trkpt>
      <trkpt lat="36.746849" lon="-3.308383">
        <ele>78.041</ele>
        <time>2021-06-16T10:44:09Z</time>
      </trkpt>
      <trkpt lat="36.746748" lon="-3.308256">
        <ele>76.732</ele>
        <time>2021-06-16T10:44:10Z</time>
      </trkpt>
      <trkpt lat="36.746664" lon="-3.308126">
        <ele>75.792</ele>
        <time>2021-06-16T10:44:11Z</time>
      </trkpt>
      <trkpt lat="36.746547" lon="-3.307829">
        <ele>74.411</ele>
        <time>2021-06-16T10:44:13Z</time>
      </trkpt>
      <trkpt lat="36.746511" lon="-3.307673">
        <ele>73.508</ele>
        <time>2021-06-16T10:44:14Z</time>
      </trkpt>
      <trkpt lat="36.74646" lon="-3.307351">
        <ele>72.290</ele>
        <time>2021-06-16T10:44:16Z</time>
      </trkpt>
      <trkpt lat="36.746444" lon="-3.307183">
        <ele>71.128</ele>
        <time>2021-06-16T10:44:17Z</time>
      </trkpt>
      <trkpt lat="36.746425" lon="-3.307014">
        <ele>69.692</ele>
        <time>2021-06-16T10:44:18Z</time>
      </trkpt>
      <trkpt lat="36.746398" lon="-3.306847">
        <ele>68.571</ele>
        <time>2021-06-16T10:44:19Z</time>
      </trkpt>
      <trkpt lat="36.746322" lon="-3.306524">
        <ele>67.234</ele>
        <time>2021-06-16T10:44:21Z</time>
      </trkpt>
      <trkpt lat="36.746281" lon="-3.306364">
        <ele>66.051</ele>
        <time>2021-06-16T10:44:22Z</time>
      </trkpt>
      <trkpt lat="36.746235" lon="-3.306204">
        <ele>64.778</ele>
        <time>2021-06-16T10:44:23Z</time>
      </trkpt>
      <trkpt lat="36.746103" lon="-3.305895">
        <ele>63.028</ele>
        <time>2021-06-16T10:44:25Z</time>
      </trkpt>
      <trkpt lat="36.746019" lon="-3.30575">
        <ele>61.981</ele>
        <time>2021-06-16T10:44:26Z</time>
      </trkpt>
      <trkpt lat="36.745926" lon="-3.305606">
        <ele>61.361</ele>
        <time>2021-06-16T10:44:27Z</time>
      </trkpt>
      <trkpt lat="36.745827" lon="-3.305468">
        <ele>60.517</ele>
        <time>2021-06-16T10:44:28Z</time>
      </trkpt>
      <trkpt lat="36.745612" lon="-3.305222">
        <ele>59.308</ele>
        <time>2021-06-16T10:44:30Z</time>
      </trkpt>
      <trkpt lat="36.74537" lon="-3.30502">
        <ele>57.985</ele>
        <time>2021-06-16T10:44:32Z</time>
      </trkpt>
      <trkpt lat="36.745099" lon="-3.304857">
        <ele>57.273</ele>
        <time>2021-06-16T10:44:34Z</time>
      </trkpt>
      <trkpt lat="36.744808" lon="-3.304726">
        <ele>56.667</ele>
        <time>2021-06-16T10:44:36Z</time>
      </trkpt>
      <trkpt lat="36.744661" lon="-3.304685">
        <ele>55.646</ele>
        <time>2021-06-16T10:44:37Z</time>
      </trkpt>
      <trkpt lat="36.744518" lon="-3.304662">
        <ele>54.969</ele>
        <time>2021-06-16T10:44:38Z</time>
      </trkpt>
      <trkpt lat="36.744378" lon="-3.304653">
        <ele>54.086</ele>
        <time>2021-06-16T10:44:39Z</time>
      </trkpt>
      <trkpt lat="36.744105" lon="-3.304659">
        <ele>52.553</ele>
        <time>2021-06-16T10:44:41Z</time>
      </trkpt>
      <trkpt lat="36.743832" lon="-3.304692">
        <ele>50.673</ele>
        <time>2021-06-16T10:44:43Z</time>
      </trkpt>
      <trkpt lat="36.743696" lon="-3.304712">
        <ele>48.862</ele>
        <time>2021-06-16T10:44:44Z</time>
      </trkpt>
      <trkpt lat="36.743432" lon="-3.304746">
        <ele>46.783</ele>
        <time>2021-06-16T10:44:46Z</time>
      </trkpt>
      <trkpt lat="36.743302" lon="-3.304752">
        <ele>44.711</ele>
        <time>2021-06-16T10:44:47Z</time>
      </trkpt>
      <trkpt lat="36.74305" lon="-3.304745">
        <ele>42.208</ele>
        <time>2021-06-16T10:44:49Z</time>
      </trkpt>
      <trkpt lat="36.742825" lon="-3.304717">
        <ele>39.463</ele>
        <time>2021-06-16T10:44:51Z</time>
      </trkpt>
      <trkpt lat="36.742603" lon="-3.304693">
        <ele>37.191</ele>
        <time>2021-06-16T10:44:53Z</time>
      </trkpt>
      <trkpt lat="36.742394" lon="-3.304704">
        <ele>35.495</ele>
        <time>2021-06-16T10:44:55Z</time>
      </trkpt>
      <trkpt lat="36.742235" lon="-3.304748">
        <ele>34.664</ele>
        <time>2021-06-16T10:44:57Z</time>
      </trkpt>
      <trkpt lat="36.742181" lon="-3.304793">
        <ele>34.097</ele>
        <time>2021-06-16T10:44:58Z</time>
      </trkpt>
      <trkpt lat="36.742117" lon="-3.304953">
        <ele>33.534</ele>
        <time>2021-06-16T10:45:00Z</time>
      </trkpt>
      <trkpt lat="36.742079" lon="-3.305192">
        <ele>33.251</ele>
        <time>2021-06-16T10:45:02Z</time>
      </trkpt>
      <trkpt lat="36.742057" lon="-3.305332">
        <ele>33.021</ele>
        <time>2021-06-16T10:45:03Z</time>
      </trkpt>
      <trkpt lat="36.742006" lon="-3.305627">
        <ele>32.928</ele>
        <time>2021-06-16T10:45:05Z</time>
      </trkpt>
      <trkpt lat="36.741939" lon="-3.305936">
        <ele>33.589</ele>
        <time>2021-06-16T10:45:07Z</time>
      </trkpt>
      <trkpt lat="36.741903" lon="-3.306096">
        <ele>34.117</ele>
        <time>2021-06-16T10:45:08Z</time>
      </trkpt>
      <trkpt lat="36.741869" lon="-3.306256">
        <ele>34.608</ele>
        <time>2021-06-16T10:45:09Z</time>
      </trkpt>
      <trkpt lat="36.741825" lon="-3.30641">
        <ele>35.069</ele>
        <time>2021-06-16T10:45:10Z</time>
      </trkpt>
      <trkpt lat="36.741763" lon="-3.306552">
        <ele>34.567</ele>
        <time>2021-06-16T10:45:11Z</time>
      </trkpt>
      <trkpt lat="36.741682" lon="-3.306674">
        <ele>33.931</ele>
        <time>2021-06-16T10:45:12Z</time>
      </trkpt>
      <trkpt lat="36.741474" lon="-3.306867">
        <ele>33.320</ele>
        <time>2021-06-16T10:45:14Z</time>
      </trkpt>
      <trkpt lat="36.74125" lon="-3.307045">
        <ele>32.793</ele>
        <time>2021-06-16T10:45:16Z</time>
      </trkpt>
      <trkpt lat="36.741147" lon="-3.307158">
        <ele>31.870</ele>
        <time>2021-06-16T10:45:17Z</time>
      </trkpt>
      <trkpt lat="36.741047" lon="-3.307282">
        <ele>31.087</ele>
        <time>2021-06-16T10:45:18Z</time>
      </trkpt>
      <trkpt lat="36.740953" lon="-3.307428">
        <ele>30.067</ele>
        <time>2021-06-16T10:45:19Z</time>
      </trkpt>
      <trkpt lat="36.740864" lon="-3.307589">
        <ele>29.157</ele>
        <time>2021-06-16T10:45:20Z</time>
      </trkpt>
      <trkpt lat="36.74069" lon="-3.307911">
        <ele>28.300</ele>
        <time>2021-06-16T10:45:22Z</time>
      </trkpt>
      <trkpt lat="36.740605" lon="-3.308072">
        <ele>27.920</ele>
        <time>2021-06-16T10:45:23Z</time>
      </trkpt>
      <trkpt lat="36.740445" lon="-3.308381">
        <ele>26.308</ele>
        <time>2021-06-16T10:45:25Z</time>
      </trkpt>
      <trkpt lat="36.740247" lon="-3.308647">
        <ele>24.752</ele>
        <time>2021-06-16T10:45:27Z</time>
      </trkpt>
      <trkpt lat="36.740025" lon="-3.308854">
        <ele>23.360</ele>
        <time>2021-06-16T10:45:29Z</time>
      </trkpt>
      <trkpt lat="36.739825" lon="-3.309076">
        <ele>22.154</ele>
        <time>2021-06-16T10:45:31Z</time>
      </trkpt>
      <trkpt lat="36.739663" lon="-3.309353">
        <ele>20.933</ele>
        <time>2021-06-16T10:45:33Z</time>
      </trkpt>
      <trkpt lat="36.739585" lon="-3.309505">
        <ele>19.896</ele>
        <time>2021-06-16T10:45:34Z</time>
      </trkpt>
      <trkpt lat="36.739444" lon="-3.309827">
        <ele>18.923</ele>
        <time>2021-06-16T10:45:36Z</time>
      </trkpt>
      <trkpt lat="36.739386" lon="-3.309993">
        <ele>18.240</ele>
        <time>2021-06-16T10:45:37Z</time>
      </trkpt>
      <trkpt lat="36.739334" lon="-3.310318">
        <ele>17.730</ele>
        <time>2021-06-16T10:45:39Z</time>
      </trkpt>
      <trkpt lat="36.739341" lon="-3.310467">
        <ele>17.124</ele>
        <time>2021-06-16T10:45:40Z</time>
      </trkpt>
      <trkpt lat="36.739426" lon="-3.310733">
        <ele>16.004</ele>
        <time>2021-06-16T10:45:42Z</time>
      </trkpt>
      <trkpt lat="36.739503" lon="-3.310861">
        <ele>14.914</ele>
        <time>2021-06-16T10:45:43Z</time>
      </trkpt>
      <trkpt lat="36.739591" lon="-3.310988">
        <ele>14.208</ele>
        <time>2021-06-16T10:45:44Z</time>
      </trkpt>
      <trkpt lat="36.739774" lon="-3.311252">
        <ele>13.739</ele>
        <time>2021-06-16T10:45:46Z</time>
      </trkpt>
      <trkpt lat="36.73995" lon="-3.311526">
        <ele>12.877</ele>
        <time>2021-06-16T10:45:48Z</time>
      </trkpt>
      <trkpt lat="36.740032" lon="-3.311673">
        <ele>12.681</ele>
        <time>2021-06-16T10:45:49Z</time>
      </trkpt>
      <trkpt lat="36.740203" lon="-3.311964">
        <ele>12.750</ele>
        <time>2021-06-16T10:45:51Z</time>
      </trkpt>
      <trkpt lat="36.740398" lon="-3.312252">
        <ele>12.223</ele>
        <time>2021-06-16T10:45:53Z</time>
      </trkpt>
      <trkpt lat="36.740475" lon="-3.312406">
        <ele>11.990</ele>
        <time>2021-06-16T10:45:54Z</time>
      </trkpt>
      <trkpt lat="36.740614" lon="-3.312727">
        <ele>11.587</ele>
        <time>2021-06-16T10:45:56Z</time>
      </trkpt>
      <trkpt lat="36.740795" lon="-3.312994">
        <ele>10.947</ele>
        <time>2021-06-16T10:45:58Z</time>
      </trkpt>
      <trkpt lat="36.740894" lon="-3.31312">
        <ele>10.474</ele>
        <time>2021-06-16T10:45:59Z</time>
      </trkpt>
      <trkpt lat="36.741069" lon="-3.313391">
        <ele>10.056</ele>
        <time>2021-06-16T10:46:01Z</time>
      </trkpt>
      <trkpt lat="36.741152" lon="-3.31353">
        <ele>9.921</ele>
        <time>2021-06-16T10:46:02Z</time>
      </trkpt>
      <trkpt lat="36.741323" lon="-3.313808">
        <ele>10.508</ele>
        <time>2021-06-16T10:46:04Z</time>
      </trkpt>
      <trkpt lat="36.741414" lon="-3.313942">
        <ele>11.014</ele>
        <time>2021-06-16T10:46:05Z</time>
      </trkpt>
      <trkpt lat="36.741614" lon="-3.314194">
        <ele>11.542</ele>
        <time>2021-06-16T10:46:07Z</time>
      </trkpt>
      <trkpt lat="36.741709" lon="-3.314328">
        <ele>12.166</ele>
        <time>2021-06-16T10:46:08Z</time>
      </trkpt>
      <trkpt lat="36.741867" lon="-3.314631">
        <ele>13.235</ele>
        <time>2021-06-16T10:46:10Z</time>
      </trkpt>
      <trkpt lat="36.741989" lon="-3.314956">
        <ele>13.838</ele>
        <time>2021-06-16T10:46:12Z</time>
      </trkpt>
      <trkpt lat="36.742028" lon="-3.315138">
        <ele>14.745</ele>
        <time>2021-06-16T10:46:13Z</time>
      </trkpt>
      <trkpt lat="36.742064" lon="-3.315507">
        <ele>15.492</ele>
        <time>2021-06-16T10:46:15Z</time>
      </trkpt>
      <trkpt lat="36.742073" lon="-3.315695">
        <ele>15.572</ele>
        <time>2021-06-16T10:46:16Z</time>
      </trkpt>
      <trkpt lat="36.742085" lon="-3.316069">
        <ele>15.539</ele>
        <time>2021-06-16T10:46:18Z</time>
      </trkpt>
      <trkpt lat="36.742084" lon="-3.316261">
        <ele>15.601</ele>
        <time>2021-06-16T10:46:19Z</time>
      </trkpt>
      <trkpt lat="36.742092" lon="-3.316636">
        <ele>15.421</ele>
        <time>2021-06-16T10:46:21Z</time>
      </trkpt>
      <trkpt lat="36.742092" lon="-3.316826">
        <ele>15.208</ele>
        <time>2021-06-16T10:46:22Z</time>
      </trkpt>
      <trkpt lat="36.742067" lon="-3.317193">
        <ele>14.310</ele>
        <time>2021-06-16T10:46:24Z</time>
      </trkpt>
      <trkpt lat="36.742034" lon="-3.317374">
        <ele>13.568</ele>
        <time>2021-06-16T10:46:25Z</time>
      </trkpt>
      <trkpt lat="36.741991" lon="-3.317744">
        <ele>13.082</ele>
        <time>2021-06-16T10:46:27Z</time>
      </trkpt>
      <trkpt lat="36.741989" lon="-3.317934">
        <ele>12.691</ele>
        <time>2021-06-16T10:46:28Z</time>
      </trkpt>
      <trkpt lat="36.741985" lon="-3.318326">
        <ele>12.684</ele>
        <time>2021-06-16T10:46:30Z</time>
      </trkpt>
      <trkpt lat="36.741941" lon="-3.318719">
        <ele>12.491</ele>
        <time>2021-06-16T10:46:32Z</time>
      </trkpt>
      <trkpt lat="36.741911" lon="-3.318917">
        <ele>11.948</ele>
        <time>2021-06-16T10:46:33Z</time>
      </trkpt>
      <trkpt lat="36.741877" lon="-3.319109">
        <ele>11.738</ele>
        <time>2021-06-16T10:46:34Z</time>
      </trkpt>
      <trkpt lat="36.741841" lon="-3.319296">
        <ele>10.872</ele>
        <time>2021-06-16T10:46:35Z</time>
      </trkpt>
      <trkpt lat="36.741806" lon="-3.319644">
        <ele>10.413</ele>
        <time>2021-06-16T10:46:37Z</time>
      </trkpt>
      <trkpt lat="36.741823" lon="-3.319815">
        <ele>10.714</ele>
        <time>2021-06-16T10:46:38Z</time>
      </trkpt>
      <trkpt lat="36.741913" lon="-3.320159">
        <ele>10.408</ele>
        <time>2021-06-16T10:46:40Z</time>
      </trkpt>
      <trkpt lat="36.741968" lon="-3.320334">
        <ele>10.384</ele>
        <time>2021-06-16T10:46:41Z</time>
      </trkpt>
      <trkpt lat="36.742023" lon="-3.320509">
        <ele>10.682</ele>
        <time>2021-06-16T10:46:42Z</time>
      </trkpt>
      <trkpt lat="36.742077" lon="-3.320687">
        <ele>11.086</ele>
        <time>2021-06-16T10:46:43Z</time>
      </trkpt>
      <trkpt lat="36.742165" lon="-3.321051">
        <ele>11.515</ele>
        <time>2021-06-16T10:46:45Z</time>
      </trkpt>
      <trkpt lat="36.742199" lon="-3.321424">
        <ele>12.068</ele>
        <time>2021-06-16T10:46:47Z</time>
      </trkpt>
      <trkpt lat="36.742198" lon="-3.321606">
        <ele>12.685</ele>
        <time>2021-06-16T10:46:48Z</time>
      </trkpt>
      <trkpt lat="36.742176" lon="-3.321788">
        <ele>13.012</ele>
        <time>2021-06-16T10:46:49Z</time>
      </trkpt>
      <trkpt lat="36.742142" lon="-3.321971">
        <ele>13.172</ele>
        <time>2021-06-16T10:46:50Z</time>
      </trkpt>
      <trkpt lat="36.742021" lon="-3.322337">
        <ele>13.839</ele>
        <time>2021-06-16T10:46:52Z</time>
      </trkpt>
      <trkpt lat="36.741945" lon="-3.32251">
        <ele>14.301</ele>
        <time>2021-06-16T10:46:53Z</time>
      </trkpt>
      <trkpt lat="36.741747" lon="-3.322818">
        <ele>14.921</ele>
        <time>2021-06-16T10:46:55Z</time>
      </trkpt>
      <trkpt lat="36.741514" lon="-3.323066">
        <ele>15.808</ele>
        <time>2021-06-16T10:46:57Z</time>
      </trkpt>
      <trkpt lat="36.741419" lon="-3.323202">
        <ele>16.490</ele>
        <time>2021-06-16T10:46:58Z</time>
      </trkpt>
      <trkpt lat="36.741345" lon="-3.323349">
        <ele>17.398</ele>
        <time>2021-06-16T10:46:59Z</time>
      </trkpt>
      <trkpt lat="36.741266" lon="-3.323688">
        <ele>18.232</ele>
        <time>2021-06-16T10:47:01Z</time>
      </trkpt>
      <trkpt lat="36.741233" lon="-3.323867">
        <ele>18.591</ele>
        <time>2021-06-16T10:47:02Z</time>
      </trkpt>
      <trkpt lat="36.741147" lon="-3.324233">
        <ele>19.344</ele>
        <time>2021-06-16T10:47:04Z</time>
      </trkpt>
      <trkpt lat="36.741006" lon="-3.32458">
        <ele>19.631</ele>
        <time>2021-06-16T10:47:06Z</time>
      </trkpt>
      <trkpt lat="36.740928" lon="-3.324753">
        <ele>20.118</ele>
        <time>2021-06-16T10:47:07Z</time>
      </trkpt>
      <trkpt lat="36.74078" lon="-3.325116">
        <ele>21.168</ele>
        <time>2021-06-16T10:47:09Z</time>
      </trkpt>
      <trkpt lat="36.740714" lon="-3.325306">
        <ele>22.181</ele>
        <time>2021-06-16T10:47:10Z</time>
      </trkpt>
      <trkpt lat="36.740582" lon="-3.32569">
        <ele>22.861</ele>
        <time>2021-06-16T10:47:12Z</time>
      </trkpt>
      <trkpt lat="36.740459" lon="-3.326076">
        <ele>24.017</ele>
        <time>2021-06-16T10:47:14Z</time>
      </trkpt>
      <trkpt lat="36.740413" lon="-3.326272">
        <ele>25.508</ele>
        <time>2021-06-16T10:47:15Z</time>
      </trkpt>
      <trkpt lat="36.740373" lon="-3.326467">
        <ele>27.055</ele>
        <time>2021-06-16T10:47:16Z</time>
      </trkpt>
      <trkpt lat="36.740305" lon="-3.326861">
        <ele>29.073</ele>
        <time>2021-06-16T10:47:18Z</time>
      </trkpt>
      <trkpt lat="36.740265" lon="-3.327251">
        <ele>31.047</ele>
        <time>2021-06-16T10:47:20Z</time>
      </trkpt>
      <trkpt lat="36.740161" lon="-3.327635">
        <ele>32.796</ele>
        <time>2021-06-16T10:47:22Z</time>
      </trkpt>
      <trkpt lat="36.740035" lon="-3.328008">
        <ele>33.629</ele>
        <time>2021-06-16T10:47:24Z</time>
      </trkpt>
      <trkpt lat="36.739875" lon="-3.328376">
        <ele>35.176</ele>
        <time>2021-06-16T10:47:26Z</time>
      </trkpt>
      <trkpt lat="36.739794" lon="-3.328557">
        <ele>36.053</ele>
        <time>2021-06-16T10:47:27Z</time>
      </trkpt>
      <trkpt lat="36.739664" lon="-3.32892">
        <ele>37.413</ele>
        <time>2021-06-16T10:47:29Z</time>
      </trkpt>
      <trkpt lat="36.739582" lon="-3.329303">
        <ele>38.163</ele>
        <time>2021-06-16T10:47:31Z</time>
      </trkpt>
      <trkpt lat="36.739537" lon="-3.329491">
        <ele>38.644</ele>
        <time>2021-06-16T10:47:32Z</time>
      </trkpt>
      <trkpt lat="36.739445" lon="-3.329877">
        <ele>39.118</ele>
        <time>2021-06-16T10:47:34Z</time>
      </trkpt>
      <trkpt lat="36.739374" lon="-3.330265">
        <ele>40.808</ele>
        <time>2021-06-16T10:47:36Z</time>
      </trkpt>
      <trkpt lat="36.739341" lon="-3.330459">
        <ele>42.723</ele>
        <time>2021-06-16T10:47:37Z</time>
      </trkpt>
      <trkpt lat="36.739309" lon="-3.330653">
        <ele>44.741</ele>
        <time>2021-06-16T10:47:38Z</time>
      </trkpt>
      <trkpt lat="36.739276" lon="-3.330845">
        <ele>46.335</ele>
        <time>2021-06-16T10:47:39Z</time>
      </trkpt>
      <trkpt lat="36.739235" lon="-3.331227">
        <ele>48.484</ele>
        <time>2021-06-16T10:47:41Z</time>
      </trkpt>
      <trkpt lat="36.739218" lon="-3.331423">
        <ele>50.167</ele>
        <time>2021-06-16T10:47:42Z</time>
      </trkpt>
      <trkpt lat="36.739213" lon="-3.331622">
        <ele>51.114</ele>
        <time>2021-06-16T10:47:43Z</time>
      </trkpt>
      <trkpt lat="36.739227" lon="-3.332015">
        <ele>52.521</ele>
        <time>2021-06-16T10:47:45Z</time>
      </trkpt>
      <trkpt lat="36.739239" lon="-3.33221">
        <ele>54.031</ele>
        <time>2021-06-16T10:47:46Z</time>
      </trkpt>
      <trkpt lat="36.739264" lon="-3.332386">
        <ele>56.099</ele>
        <time>2021-06-16T10:47:47Z</time>
      </trkpt>
      <trkpt lat="36.739309" lon="-3.332546">
        <ele>57.307</ele>
        <time>2021-06-16T10:47:48Z</time>
      </trkpt>
      <trkpt lat="36.739366" lon="-3.332704">
        <ele>59.027</ele>
        <time>2021-06-16T10:47:49Z</time>
      </trkpt>
      <trkpt lat="36.739515" lon="-3.333015">
        <ele>60.308</ele>
        <time>2021-06-16T10:47:51Z</time>
      </trkpt>
      <trkpt lat="36.739596" lon="-3.333172">
        <ele>60.956</ele>
        <time>2021-06-16T10:47:52Z</time>
      </trkpt>
      <trkpt lat="36.739761" lon="-3.333485">
        <ele>62.224</ele>
        <time>2021-06-16T10:47:54Z</time>
      </trkpt>
      <trkpt lat="36.739847" lon="-3.33364">
        <ele>63.398</ele>
        <time>2021-06-16T10:47:55Z</time>
      </trkpt>
      <trkpt lat="36.739934" lon="-3.333793">
        <ele>64.867</ele>
        <time>2021-06-16T10:47:56Z</time>
      </trkpt>
      <trkpt lat="36.740023" lon="-3.333942">
        <ele>65.820</ele>
        <time>2021-06-16T10:47:57Z</time>
      </trkpt>
      <trkpt lat="36.740207" lon="-3.334226">
        <ele>67.037</ele>
        <time>2021-06-16T10:47:59Z</time>
      </trkpt>
      <trkpt lat="36.740279" lon="-3.334372">
        <ele>68.454</ele>
        <time>2021-06-16T10:48:00Z</time>
      </trkpt>
      <trkpt lat="36.740362" lon="-3.334687">
        <ele>69.684</ele>
        <time>2021-06-16T10:48:02Z</time>
      </trkpt>
      <trkpt lat="36.740358" lon="-3.334858">
        <ele>71.612</ele>
        <time>2021-06-16T10:48:03Z</time>
      </trkpt>
      <trkpt lat="36.740338" lon="-3.335031">
        <ele>73.532</ele>
        <time>2021-06-16T10:48:04Z</time>
      </trkpt>
      <trkpt lat="36.740305" lon="-3.33539">
        <ele>75.605</ele>
        <time>2021-06-16T10:48:06Z</time>
      </trkpt>
      <trkpt lat="36.740276" lon="-3.335756">
        <ele>78.108</ele>
        <time>2021-06-16T10:48:08Z</time>
      </trkpt>
      <trkpt lat="36.740243" lon="-3.33612">
        <ele>79.328</ele>
        <time>2021-06-16T10:48:10Z</time>
      </trkpt>
      <trkpt lat="36.740214" lon="-3.336302">
        <ele>80.786</ele>
        <time>2021-06-16T10:48:11Z</time>
      </trkpt>
      <trkpt lat="36.740172" lon="-3.336484">
        <ele>82.320</ele>
        <time>2021-06-16T10:48:12Z</time>
      </trkpt>
      <trkpt lat="36.74011" lon="-3.336851">
        <ele>83.669</ele>
        <time>2021-06-16T10:48:14Z</time>
      </trkpt>
      <trkpt lat="36.740099" lon="-3.337035">
        <ele>84.632</ele>
        <time>2021-06-16T10:48:15Z</time>
      </trkpt>
      <trkpt lat="36.740097" lon="-3.337222">
        <ele>85.529</ele>
        <time>2021-06-16T10:48:16Z</time>
      </trkpt>
      <trkpt lat="36.740085" lon="-3.337411">
        <ele>86.986</ele>
        <time>2021-06-16T10:48:17Z</time>
      </trkpt>
      <trkpt lat="36.740061" lon="-3.337773">
        <ele>88.746</ele>
        <time>2021-06-16T10:48:19Z</time>
      </trkpt>
      <trkpt lat="36.740085" lon="-3.338117">
        <ele>90.569</ele>
        <time>2021-06-16T10:48:21Z</time>
      </trkpt>
      <trkpt lat="36.74013" lon="-3.338287">
        <ele>91.704</ele>
        <time>2021-06-16T10:48:22Z</time>
      </trkpt>
      <trkpt lat="36.740248" lon="-3.338605">
        <ele>93.824</ele>
        <time>2021-06-16T10:48:24Z</time>
      </trkpt>
      <trkpt lat="36.740388" lon="-3.338909">
        <ele>95.508</ele>
        <time>2021-06-16T10:48:26Z</time>
      </trkpt>
      <trkpt lat="36.74056" lon="-3.339175">
        <ele>96.873</ele>
        <time>2021-06-16T10:48:28Z</time>
      </trkpt>
      <trkpt lat="36.740713" lon="-3.33936">
        <ele>98.681</ele>
        <time>2021-06-16T10:48:30Z</time>
      </trkpt>
      <trkpt lat="36.740785" lon="-3.339529">
        <ele>100.065</ele>
        <time>2021-06-16T10:48:32Z</time>
      </trkpt>
      <trkpt lat="36.740743" lon="-3.339727">
        <ele>101.664</ele>
        <time>2021-06-16T10:48:34Z</time>
      </trkpt>
      <trkpt lat="36.740655" lon="-3.339798">
        <ele>102.787</ele>
        <time>2021-06-16T10:48:35Z</time>
      </trkpt>
      <trkpt lat="36.740552" lon="-3.339847">
        <ele>103.164</ele>
        <time>2021-06-16T10:48:36Z</time>
      </trkpt>
      <trkpt lat="36.740328" lon="-3.339847">
        <ele>103.781</ele>
        <time>2021-06-16T10:48:38Z</time>
      </trkpt>
      <trkpt lat="36.740176" lon="-3.339988">
        <ele>104.421</ele>
        <time>2021-06-16T10:48:40Z</time>
      </trkpt>
      <trkpt lat="36.740059" lon="-3.340232">
        <ele>104.592</ele>
        <time>2021-06-16T10:48:42Z</time>
      </trkpt>
      <trkpt lat="36.739993" lon="-3.34036">
        <ele>104.573</ele>
        <time>2021-06-16T10:48:43Z</time>
      </trkpt>
      <trkpt lat="36.73983" lon="-3.340601">
        <ele>104.320</ele>
        <time>2021-06-16T10:48:45Z</time>
      </trkpt>
      <trkpt lat="36.739715" lon="-3.340693">
        <ele>104.808</ele>
        <time>2021-06-16T10:48:46Z</time>
      </trkpt>
      <trkpt lat="36.739585" lon="-3.340765">
        <ele>104.426</ele>
        <time>2021-06-16T10:48:47Z</time>
      </trkpt>
      <trkpt lat="36.739448" lon="-3.340823">
        <ele>103.724</ele>
        <time>2021-06-16T10:48:48Z</time>
      </trkpt>
      <trkpt lat="36.739172" lon="-3.340926">
        <ele>103.038</ele>
        <time>2021-06-16T10:48:50Z</time>
      </trkpt>
      <trkpt lat="36.739041" lon="-3.340997">
        <ele>102.437</ele>
        <time>2021-06-16T10:48:51Z</time>
      </trkpt>
      <trkpt lat="36.73892" lon="-3.341092">
        <ele>102.020</ele>
        <time>2021-06-16T10:48:52Z</time>
      </trkpt>
      <trkpt lat="36.73871" lon="-3.341338">
        <ele>101.247</ele>
        <time>2021-06-16T10:48:54Z</time>
      </trkpt>
      <trkpt lat="36.738613" lon="-3.341475">
        <ele>100.754</ele>
        <time>2021-06-16T10:48:55Z</time>
      </trkpt>
      <trkpt lat="36.738514" lon="-3.341615">
        <ele>100.214</ele>
        <time>2021-06-16T10:48:56Z</time>
      </trkpt>
      <trkpt lat="36.738314" lon="-3.34189">
        <ele>99.558</ele>
        <time>2021-06-16T10:48:58Z</time>
      </trkpt>
      <trkpt lat="36.738126" lon="-3.342153">
        <ele>98.952</ele>
        <time>2021-06-16T10:49:00Z</time>
      </trkpt>
      <trkpt lat="36.738039" lon="-3.342291">
        <ele>98.117</ele>
        <time>2021-06-16T10:49:01Z</time>
      </trkpt>
      <trkpt lat="36.737891" lon="-3.34259">
        <ele>97.008</ele>
        <time>2021-06-16T10:49:03Z</time>
      </trkpt>
      <trkpt lat="36.737819" lon="-3.342744">
        <ele>96.362</ele>
        <time>2021-06-16T10:49:04Z</time>
      </trkpt>
      <trkpt lat="36.73774" lon="-3.342895">
        <ele>95.940</ele>
        <time>2021-06-16T10:49:05Z</time>
      </trkpt>
      <trkpt lat="36.737659" lon="-3.343035">
        <ele>95.174</ele>
        <time>2021-06-16T10:49:06Z</time>
      </trkpt>
      <trkpt lat="36.737484" lon="-3.34329">
        <ele>94.463</ele>
        <time>2021-06-16T10:49:08Z</time>
      </trkpt>
      <trkpt lat="36.737395" lon="-3.343415">
        <ele>93.916</ele>
        <time>2021-06-16T10:49:09Z</time>
      </trkpt>
      <trkpt lat="36.737239" lon="-3.343679">
        <ele>92.513</ele>
        <time>2021-06-16T10:49:11Z</time>
      </trkpt>
      <trkpt lat="36.73709" lon="-3.343951">
        <ele>91.350</ele>
        <time>2021-06-16T10:49:13Z</time>
      </trkpt>
      <trkpt lat="36.737007" lon="-3.344079">
        <ele>90.410</ele>
        <time>2021-06-16T10:49:14Z</time>
      </trkpt>
      <trkpt lat="36.736907" lon="-3.344196">
        <ele>90.079</ele>
        <time>2021-06-16T10:49:15Z</time>
      </trkpt>
      <trkpt lat="36.736699" lon="-3.34442">
        <ele>89.105</ele>
        <time>2021-06-16T10:49:17Z</time>
      </trkpt>
      <trkpt lat="36.736491" lon="-3.344655">
        <ele>88.425</ele>
        <time>2021-06-16T10:49:19Z</time>
      </trkpt>
      <trkpt lat="36.736385" lon="-3.344767">
        <ele>88.008</ele>
        <time>2021-06-16T10:49:20Z</time>
      </trkpt>
      <trkpt lat="36.736202" lon="-3.34499">
        <ele>88.174</ele>
        <time>2021-06-16T10:49:22Z</time>
      </trkpt>
      <trkpt lat="36.736077" lon="-3.345261">
        <ele>87.482</ele>
        <time>2021-06-16T10:49:24Z</time>
      </trkpt>
      <trkpt lat="36.736043" lon="-3.345421">
        <ele>86.376</ele>
        <time>2021-06-16T10:49:25Z</time>
      </trkpt>
      <trkpt lat="36.736011" lon="-3.345586">
        <ele>85.345</ele>
        <time>2021-06-16T10:49:26Z</time>
      </trkpt>
      <trkpt lat="36.735894" lon="-3.345902">
        <ele>84.738</ele>
        <time>2021-06-16T10:49:28Z</time>
      </trkpt>
      <trkpt lat="36.735799" lon="-3.346037">
        <ele>83.955</ele>
        <time>2021-06-16T10:49:29Z</time>
      </trkpt>
      <trkpt lat="36.73558" lon="-3.346278">
        <ele>83.022</ele>
        <time>2021-06-16T10:49:31Z</time>
      </trkpt>
      <trkpt lat="36.735358" lon="-3.346515">
        <ele>81.962</ele>
        <time>2021-06-16T10:49:33Z</time>
      </trkpt>
      <trkpt lat="36.735243" lon="-3.346634">
        <ele>81.148</ele>
        <time>2021-06-16T10:49:34Z</time>
      </trkpt>
      <trkpt lat="36.735027" lon="-3.346883">
        <ele>79.561</ele>
        <time>2021-06-16T10:49:36Z</time>
      </trkpt>
      <trkpt lat="36.734816" lon="-3.347132">
        <ele>77.317</ele>
        <time>2021-06-16T10:49:38Z</time>
      </trkpt>
      <trkpt lat="36.734607" lon="-3.347356">
        <ele>75.108</ele>
        <time>2021-06-16T10:49:40Z</time>
      </trkpt>
      <trkpt lat="36.734499" lon="-3.347473">
        <ele>73.361</ele>
        <time>2021-06-16T10:49:41Z</time>
      </trkpt>
      <trkpt lat="36.734388" lon="-3.34759">
        <ele>71.799</ele>
        <time>2021-06-16T10:49:42Z</time>
      </trkpt>
      <trkpt lat="36.7343" lon="-3.347711">
        <ele>70.573</ele>
        <time>2021-06-16T10:49:43Z</time>
      </trkpt>
      <trkpt lat="36.73419" lon="-3.347976">
        <ele>68.872</ele>
        <time>2021-06-16T10:49:45Z</time>
      </trkpt>
      <trkpt lat="36.734167" lon="-3.348121">
        <ele>67.535</ele>
        <time>2021-06-16T10:49:46Z</time>
      </trkpt>
      <trkpt lat="36.734114" lon="-3.348396">
        <ele>65.632</ele>
        <time>2021-06-16T10:49:48Z</time>
      </trkpt>
      <trkpt lat="36.733935" lon="-3.348562">
        <ele>64.149</ele>
        <time>2021-06-16T10:49:50Z</time>
      </trkpt>
      <trkpt lat="36.733709" lon="-3.348656">
        <ele>62.419</ele>
        <time>2021-06-16T10:49:52Z</time>
      </trkpt>
      <trkpt lat="36.733541" lon="-3.348858">
        <ele>61.091</ele>
        <time>2021-06-16T10:49:54Z</time>
      </trkpt>
      <trkpt lat="36.733471" lon="-3.348986">
        <ele>60.181</ele>
        <time>2021-06-16T10:49:55Z</time>
      </trkpt>
      <trkpt lat="36.733347" lon="-3.349244">
        <ele>59.119</ele>
        <time>2021-06-16T10:49:57Z</time>
      </trkpt>
      <trkpt lat="36.733291" lon="-3.349375">
        <ele>58.308</ele>
        <time>2021-06-16T10:49:58Z</time>
      </trkpt>
      <trkpt lat="36.733255" lon="-3.349512">
        <ele>57.626</ele>
        <time>2021-06-16T10:49:59Z</time>
      </trkpt>
      <trkpt lat="36.733248" lon="-3.349655">
        <ele>57.024</ele>
        <time>2021-06-16T10:50:00Z</time>
      </trkpt>
      <trkpt lat="36.733272" lon="-3.3498">
        <ele>56.158</ele>
        <time>2021-06-16T10:50:01Z</time>
      </trkpt>
      <trkpt lat="36.733325" lon="-3.350083">
        <ele>54.857</ele>
        <time>2021-06-16T10:50:03Z</time>
      </trkpt>
      <trkpt lat="36.733317" lon="-3.35023">
        <ele>53.720</ele>
        <time>2021-06-16T10:50:04Z</time>
      </trkpt>
      <trkpt lat="36.733289" lon="-3.350377">
        <ele>52.947</ele>
        <time>2021-06-16T10:50:05Z</time>
      </trkpt>
      <trkpt lat="36.733218" lon="-3.350683">
        <ele>51.994</ele>
        <time>2021-06-16T10:50:07Z</time>
      </trkpt>
      <trkpt lat="36.733247" lon="-3.350964">
        <ele>50.344</ele>
        <time>2021-06-16T10:50:09Z</time>
      </trkpt>
      <trkpt lat="36.733302" lon="-3.351086">
        <ele>48.968</ele>
        <time>2021-06-16T10:50:10Z</time>
      </trkpt>
      <trkpt lat="36.733355" lon="-3.351322">
        <ele>47.542</ele>
        <time>2021-06-16T10:50:12Z</time>
      </trkpt>
      <trkpt lat="36.733304" lon="-3.351458">
        <ele>46.526</ele>
        <time>2021-06-16T10:50:13Z</time>
      </trkpt>
      <trkpt lat="36.733233" lon="-3.351751">
        <ele>45.008</ele>
        <time>2021-06-16T10:50:15Z</time>
      </trkpt>
      <trkpt lat="36.733336" lon="-3.351995">
        <ele>43.673</ele>
        <time>2021-06-16T10:50:17Z</time>
      </trkpt>
      <trkpt lat="36.733422" lon="-3.352088">
        <ele>42.831</ele>
        <time>2021-06-16T10:50:18Z</time>
      </trkpt>
      <trkpt lat="36.733579" lon="-3.352259">
        <ele>42.235</ele>
        <time>2021-06-16T10:50:20Z</time>
      </trkpt>
      <trkpt lat="36.733614" lon="-3.352371">
        <ele>41.284</ele>
        <time>2021-06-16T10:50:21Z</time>
      </trkpt>
      <trkpt lat="36.733581" lon="-3.352609">
        <ele>40.457</ele>
        <time>2021-06-16T10:50:23Z</time>
      </trkpt>
      <trkpt lat="36.733426" lon="-3.352838">
        <ele>38.934</ele>
        <time>2021-06-16T10:50:25Z</time>
      </trkpt>
      <trkpt lat="36.733175" lon="-3.352996">
        <ele>37.341</ele>
        <time>2021-06-16T10:50:27Z</time>
      </trkpt>
      <trkpt lat="36.733034" lon="-3.353045">
        <ele>36.541</ele>
        <time>2021-06-16T10:50:28Z</time>
      </trkpt>
      <trkpt lat="36.732901" lon="-3.353101">
        <ele>35.556</ele>
        <time>2021-06-16T10:50:29Z</time>
      </trkpt>
      <trkpt lat="36.732647" lon="-3.353227">
        <ele>34.259</ele>
        <time>2021-06-16T10:50:31Z</time>
      </trkpt>
      <trkpt lat="36.732524" lon="-3.35329">
        <ele>33.014</ele>
        <time>2021-06-16T10:50:32Z</time>
      </trkpt>
      <trkpt lat="36.732403" lon="-3.353352">
        <ele>31.608</ele>
        <time>2021-06-16T10:50:33Z</time>
      </trkpt>
      <trkpt lat="36.732183" lon="-3.353451">
        <ele>30.332</ele>
        <time>2021-06-16T10:50:35Z</time>
      </trkpt>
      <trkpt lat="36.732032" lon="-3.353589">
        <ele>29.580</ele>
        <time>2021-06-16T10:50:37Z</time>
      </trkpt>
      <trkpt lat="36.732007" lon="-3.353697">
        <ele>28.434</ele>
        <time>2021-06-16T10:50:38Z</time>
      </trkpt>
      <trkpt lat="36.732014" lon="-3.353825">
        <ele>27.673</ele>
        <time>2021-06-16T10:50:39Z</time>
      </trkpt>
      <trkpt lat="36.732059" lon="-3.354093">
        <ele>26.756</ele>
        <time>2021-06-16T10:50:41Z</time>
      </trkpt>
      <trkpt lat="36.732063" lon="-3.35423">
        <ele>26.133</ele>
        <time>2021-06-16T10:50:42Z</time>
      </trkpt>
      <trkpt lat="36.731977" lon="-3.354486">
        <ele>25.680</ele>
        <time>2021-06-16T10:50:44Z</time>
      </trkpt>
      <trkpt lat="36.731891" lon="-3.354598">
        <ele>25.470</ele>
        <time>2021-06-16T10:50:45Z</time>
      </trkpt>
      <trkpt lat="36.73168" lon="-3.354771">
        <ele>25.317</ele>
        <time>2021-06-16T10:50:47Z</time>
      </trkpt>
      <trkpt lat="36.731454" lon="-3.354816">
        <ele>24.687</ele>
        <time>2021-06-16T10:50:49Z</time>
      </trkpt>
      <trkpt lat="36.731226" lon="-3.354801">
        <ele>23.915</ele>
        <time>2021-06-16T10:50:51Z</time>
      </trkpt>
      <trkpt lat="36.731" lon="-3.354777">
        <ele>22.808</ele>
        <time>2021-06-16T10:50:53Z</time>
      </trkpt>
      <trkpt lat="36.730886" lon="-3.354759">
        <ele>21.618</ele>
        <time>2021-06-16T10:50:54Z</time>
      </trkpt>
      <trkpt lat="36.730669" lon="-3.354714">
        <ele>20.676</ele>
        <time>2021-06-16T10:50:56Z</time>
      </trkpt>
      <trkpt lat="36.730569" lon="-3.354694">
        <ele>19.530</ele>
        <time>2021-06-16T10:50:57Z</time>
      </trkpt>
      <trkpt lat="36.7304" lon="-3.354667">
        <ele>18.559</ele>
        <time>2021-06-16T10:50:59Z</time>
      </trkpt>
      <trkpt lat="36.730274" lon="-3.354661">
        <ele>17.462</ele>
        <time>2021-06-16T10:51:01Z</time>
      </trkpt>
      <trkpt lat="36.730181" lon="-3.354748">
        <ele>17.219</ele>
        <time>2021-06-16T10:51:03Z</time>
      </trkpt>
      <trkpt lat="36.730138" lon="-3.354904">
        <ele>17.446</ele>
        <time>2021-06-16T10:51:05Z</time>
      </trkpt>
      <trkpt lat="36.730141" lon="-3.355105">
        <ele>17.976</ele>
        <time>2021-06-16T10:51:07Z</time>
      </trkpt>
      <trkpt lat="36.730167" lon="-3.355213">
        <ele>18.652</ele>
        <time>2021-06-16T10:51:08Z</time>
      </trkpt>
      <trkpt lat="36.730252" lon="-3.355436">
        <ele>19.353</ele>
        <time>2021-06-16T10:51:10Z</time>
      </trkpt>
      <trkpt lat="36.730298" lon="-3.355555">
        <ele>19.708</ele>
        <time>2021-06-16T10:51:11Z</time>
      </trkpt>
      <trkpt lat="36.730341" lon="-3.35568">
        <ele>19.808</ele>
        <time>2021-06-16T10:51:12Z</time>
      </trkpt>
      <trkpt lat="36.730417" lon="-3.355943">
        <ele>21.032</ele>
        <time>2021-06-16T10:51:14Z</time>
      </trkpt>
      <trkpt lat="36.730503" lon="-3.356231">
        <ele>22.350</ele>
        <time>2021-06-16T10:51:16Z</time>
      </trkpt>
      <trkpt lat="36.730596" lon="-3.356522">
        <ele>23.594</ele>
        <time>2021-06-16T10:51:18Z</time>
      </trkpt>
      <trkpt lat="36.730641" lon="-3.356661">
        <ele>24.253</ele>
        <time>2021-06-16T10:51:19Z</time>
      </trkpt>
      <trkpt lat="36.730726" lon="-3.356912">
        <ele>25.386</ele>
        <time>2021-06-16T10:51:21Z</time>
      </trkpt>
      <trkpt lat="36.730768" lon="-3.357024">
        <ele>26.053</ele>
        <time>2021-06-16T10:51:22Z</time>
      </trkpt>
      <trkpt lat="36.73081" lon="-3.357125">
        <ele>26.690</ele>
        <time>2021-06-16T10:51:23Z</time>
      </trkpt>
      <trkpt lat="36.730935" lon="-3.357262">
        <ele>26.270</ele>
        <time>2021-06-16T10:51:25Z</time>
      </trkpt>
      <trkpt lat="36.731008" lon="-3.357309">
        <ele>26.019</ele>
        <time>2021-06-16T10:51:26Z</time>
      </trkpt>
      <trkpt lat="36.731142" lon="-3.357326">
        <ele>25.709</ele>
        <time>2021-06-16T10:51:28Z</time>
      </trkpt>
      <trkpt lat="36.731203" lon="-3.357334">
        <ele>25.619</ele>
        <time>2021-06-16T10:51:29Z</time>
      </trkpt>
      <trkpt lat="36.731326" lon="-3.357307">
        <ele>25.808</ele>
        <time>2021-06-16T10:51:31Z</time>
      </trkpt>
      <trkpt lat="36.731392" lon="-3.357262">
        <ele>26.648</ele>
        <time>2021-06-16T10:51:32Z</time>
      </trkpt>
      <trkpt lat="36.731528" lon="-3.357151">
        <ele>27.476</ele>
        <time>2021-06-16T10:51:34Z</time>
      </trkpt>
      <trkpt lat="36.731601" lon="-3.357087">
        <ele>28.150</ele>
        <time>2021-06-16T10:51:35Z</time>
      </trkpt>
      <trkpt lat="36.731675" lon="-3.357025">
        <ele>28.949</ele>
        <time>2021-06-16T10:51:36Z</time>
      </trkpt>
      <trkpt lat="36.731746" lon="-3.356955">
        <ele>29.672</ele>
        <time>2021-06-16T10:51:37Z</time>
      </trkpt>
      <trkpt lat="36.731828" lon="-3.356756">
        <ele>30.479</ele>
        <time>2021-06-16T10:51:39Z</time>
      </trkpt>
      <trkpt lat="36.731808" lon="-3.356512">
        <ele>31.176</ele>
        <time>2021-06-16T10:51:41Z</time>
      </trkpt>
      <trkpt lat="36.731682" lon="-3.356313">
        <ele>31.486</ele>
        <time>2021-06-16T10:51:43Z</time>
      </trkpt>
      <trkpt lat="36.731585" lon="-3.356256">
        <ele>31.515</ele>
        <time>2021-06-16T10:51:44Z</time>
      </trkpt>
      <trkpt lat="36.731371" lon="-3.356238">
        <ele>31.765</ele>
        <time>2021-06-16T10:51:46Z</time>
      </trkpt>
      <trkpt lat="36.731196" lon="-3.35637">
        <ele>32.111</ele>
        <time>2021-06-16T10:51:48Z</time>
      </trkpt>
      <trkpt lat="36.731122" lon="-3.356473">
        <ele>32.308</ele>
        <time>2021-06-16T10:51:49Z</time>
      </trkpt>
      <trkpt lat="36.731047" lon="-3.356581">
        <ele>32.398</ele>
        <time>2021-06-16T10:51:50Z</time>
      </trkpt>
      <trkpt lat="36.730887" lon="-3.356806">
        <ele>32.246</ele>
        <time>2021-06-16T10:51:52Z</time>
      </trkpt>
      <trkpt lat="36.730714" lon="-3.357066">
        <ele>32.050</ele>
        <time>2021-06-16T10:51:54Z</time>
      </trkpt>
      <trkpt lat="36.730619" lon="-3.3572">
        <ele>32.049</ele>
        <time>2021-06-16T10:51:55Z</time>
      </trkpt>
      <trkpt lat="36.730423" lon="-3.357479">
        <ele>31.562</ele>
        <time>2021-06-16T10:51:57Z</time>
      </trkpt>
      <trkpt lat="36.730226" lon="-3.357765">
        <ele>31.429</ele>
        <time>2021-06-16T10:51:59Z</time>
      </trkpt>
      <trkpt lat="36.730126" lon="-3.357913">
        <ele>31.446</ele>
        <time>2021-06-16T10:52:00Z</time>
      </trkpt>
      <trkpt lat="36.729906" lon="-3.358207">
        <ele>31.386</ele>
        <time>2021-06-16T10:52:02Z</time>
      </trkpt>
      <trkpt lat="36.729784" lon="-3.358357">
        <ele>31.283</ele>
        <time>2021-06-16T10:52:03Z</time>
      </trkpt>
      <trkpt lat="36.729654" lon="-3.358506">
        <ele>31.125</ele>
        <time>2021-06-16T10:52:04Z</time>
      </trkpt>
      <trkpt lat="36.729514" lon="-3.358647">
        <ele>30.617</ele>
        <time>2021-06-16T10:52:05Z</time>
      </trkpt>
      <trkpt lat="36.729217" lon="-3.358907">
        <ele>30.308</ele>
        <time>2021-06-16T10:52:07Z</time>
      </trkpt>
      <trkpt lat="36.72906" lon="-3.359028">
        <ele>29.775</ele>
        <time>2021-06-16T10:52:08Z</time>
      </trkpt>
      <trkpt lat="36.728739" lon="-3.359253">
        <ele>28.773</ele>
        <time>2021-06-16T10:52:10Z</time>
      </trkpt>
      <trkpt lat="36.728398" lon="-3.359455">
        <ele>27.917</ele>
        <time>2021-06-16T10:52:12Z</time>
      </trkpt>
      <trkpt lat="36.728046" lon="-3.359611">
        <ele>27.426</ele>
        <time>2021-06-16T10:52:14Z</time>
      </trkpt>
      <trkpt lat="36.727684" lon="-3.359725">
        <ele>26.489</ele>
        <time>2021-06-16T10:52:16Z</time>
      </trkpt>
      <trkpt lat="36.727316" lon="-3.35981">
        <ele>25.586</ele>
        <time>2021-06-16T10:52:18Z</time>
      </trkpt>
      <trkpt lat="36.726953" lon="-3.35989">
        <ele>24.593</ele>
        <time>2021-06-16T10:52:20Z</time>
      </trkpt>
      <trkpt lat="36.726773" lon="-3.359933">
        <ele>23.973</ele>
        <time>2021-06-16T10:52:21Z</time>
      </trkpt>
      <trkpt lat="36.72642" lon="-3.360033">
        <ele>23.145</ele>
        <time>2021-06-16T10:52:23Z</time>
      </trkpt>
      <trkpt lat="36.726082" lon="-3.360165">
        <ele>22.147</ele>
        <time>2021-06-16T10:52:25Z</time>
      </trkpt>
      <trkpt lat="36.72592" lon="-3.360246">
        <ele>21.411</ele>
        <time>2021-06-16T10:52:26Z</time>
      </trkpt>
      <trkpt lat="36.725761" lon="-3.360337">
        <ele>20.908</ele>
        <time>2021-06-16T10:52:27Z</time>
      </trkpt>
      <trkpt lat="36.72546" lon="-3.360557">
        <ele>20.681</ele>
        <time>2021-06-16T10:52:29Z</time>
      </trkpt>
      <trkpt lat="36.725163" lon="-3.360806">
        <ele>19.939</ele>
        <time>2021-06-16T10:52:31Z</time>
      </trkpt>
      <trkpt lat="36.724871" lon="-3.361077">
        <ele>19.473</ele>
        <time>2021-06-16T10:52:33Z</time>
      </trkpt>
      <trkpt lat="36.724585" lon="-3.361368">
        <ele>18.622</ele>
        <time>2021-06-16T10:52:35Z</time>
      </trkpt>
      <trkpt lat="36.724441" lon="-3.36152">
        <ele>17.745</ele>
        <time>2021-06-16T10:52:36Z</time>
      </trkpt>
      <trkpt lat="36.724151" lon="-3.361826">
        <ele>16.642</ele>
        <time>2021-06-16T10:52:38Z</time>
      </trkpt>
      <trkpt lat="36.724005" lon="-3.361979">
        <ele>15.559</ele>
        <time>2021-06-16T10:52:39Z</time>
      </trkpt>
      <trkpt lat="36.723856" lon="-3.36213">
        <ele>14.649</ele>
        <time>2021-06-16T10:52:40Z</time>
      </trkpt>
      <trkpt lat="36.72357" lon="-3.362429">
        <ele>14.057</ele>
        <time>2021-06-16T10:52:42Z</time>
      </trkpt>
      <trkpt lat="36.723426" lon="-3.362574">
        <ele>13.300</ele>
        <time>2021-06-16T10:52:43Z</time>
      </trkpt>
      <trkpt lat="36.72328" lon="-3.362718">
        <ele>12.520</ele>
        <time>2021-06-16T10:52:44Z</time>
      </trkpt>
      <trkpt lat="36.723133" lon="-3.362862">
        <ele>12.108</ele>
        <time>2021-06-16T10:52:45Z</time>
      </trkpt>
      <trkpt lat="36.722984" lon="-3.363008">
        <ele>11.512</ele>
        <time>2021-06-16T10:52:46Z</time>
      </trkpt>
      <trkpt lat="36.722694" lon="-3.363298">
        <ele>10.870</ele>
        <time>2021-06-16T10:52:48Z</time>
      </trkpt>
      <trkpt lat="36.722554" lon="-3.363443">
        <ele>10.294</ele>
        <time>2021-06-16T10:52:49Z</time>
      </trkpt>
      <trkpt lat="36.72228" lon="-3.363728">
        <ele>9.993</ele>
        <time>2021-06-16T10:52:51Z</time>
      </trkpt>
      <trkpt lat="36.722144" lon="-3.363866">
        <ele>9.666</ele>
        <time>2021-06-16T10:52:52Z</time>
      </trkpt>
      <trkpt lat="36.72187" lon="-3.364144">
        <ele>9.533</ele>
        <time>2021-06-16T10:52:54Z</time>
      </trkpt>
      <trkpt lat="36.721587" lon="-3.36442">
        <ele>9.480</ele>
        <time>2021-06-16T10:52:56Z</time>
      </trkpt>
      <trkpt lat="36.7213" lon="-3.364683">
        <ele>9.160</ele>
        <time>2021-06-16T10:52:58Z</time>
      </trkpt>
      <trkpt lat="36.721156" lon="-3.364812">
        <ele>9.092</ele>
        <time>2021-06-16T10:52:59Z</time>
      </trkpt>
      <trkpt lat="36.720844" lon="-3.365029">
        <ele>9.273</ele>
        <time>2021-06-16T10:53:01Z</time>
      </trkpt>
      <trkpt lat="36.72049" lon="-3.365132">
        <ele>10.520</ele>
        <time>2021-06-16T10:53:03Z</time>
      </trkpt>
      <trkpt lat="36.720118" lon="-3.365128">
        <ele>11.508</ele>
        <time>2021-06-16T10:53:05Z</time>
      </trkpt>
      <trkpt lat="36.719747" lon="-3.365017">
        <ele>12.556</ele>
        <time>2021-06-16T10:53:07Z</time>
      </trkpt>
      <trkpt lat="36.719568" lon="-3.364927">
        <ele>13.084</ele>
        <time>2021-06-16T10:53:08Z</time>
      </trkpt>
      <trkpt lat="36.719229" lon="-3.364674">
        <ele>14.368</ele>
        <time>2021-06-16T10:53:10Z</time>
      </trkpt>
      <trkpt lat="36.719064" lon="-3.364532">
        <ele>15.737</ele>
        <time>2021-06-16T10:53:11Z</time>
      </trkpt>
      <trkpt lat="36.718901" lon="-3.364391">
        <ele>16.980</ele>
        <time>2021-06-16T10:53:12Z</time>
      </trkpt>
      <trkpt lat="36.718587" lon="-3.364121">
        <ele>18.277</ele>
        <time>2021-06-16T10:53:14Z</time>
      </trkpt>
      <trkpt lat="36.718293" lon="-3.363843">
        <ele>19.894</ele>
        <time>2021-06-16T10:53:16Z</time>
      </trkpt>
      <trkpt lat="36.718002" lon="-3.363566">
        <ele>21.894</ele>
        <time>2021-06-16T10:53:18Z</time>
      </trkpt>
      <trkpt lat="36.717725" lon="-3.363311">
        <ele>24.097</ele>
        <time>2021-06-16T10:53:20Z</time>
      </trkpt>
      <trkpt lat="36.717442" lon="-3.363143">
        <ele>25.723</ele>
        <time>2021-06-16T10:53:22Z</time>
      </trkpt>
      <trkpt lat="36.717292" lon="-3.363116">
        <ele>27.325</ele>
        <time>2021-06-16T10:53:23Z</time>
      </trkpt>
      <trkpt lat="36.716981" lon="-3.363152">
        <ele>28.508</ele>
        <time>2021-06-16T10:53:25Z</time>
      </trkpt>
      <trkpt lat="36.716835" lon="-3.363232">
        <ele>30.186</ele>
        <time>2021-06-16T10:53:26Z</time>
      </trkpt>
      <trkpt lat="36.716735" lon="-3.363404">
        <ele>32.064</ele>
        <time>2021-06-16T10:53:27Z</time>
      </trkpt>
      <trkpt lat="36.716607" lon="-3.363842">
        <ele>34.198</ele>
        <time>2021-06-16T10:53:29Z</time>
      </trkpt>
      <trkpt lat="36.716558" lon="-3.364061">
        <ele>35.667</ele>
        <time>2021-06-16T10:53:30Z</time>
      </trkpt>
      <trkpt lat="36.716444" lon="-3.364482">
        <ele>37.820</ele>
        <time>2021-06-16T10:53:32Z</time>
      </trkpt>
      <trkpt lat="36.716376" lon="-3.364684">
        <ele>39.417</ele>
        <time>2021-06-16T10:53:33Z</time>
      </trkpt>
      <trkpt lat="36.716251" lon="-3.365081">
        <ele>41.644</ele>
        <time>2021-06-16T10:53:35Z</time>
      </trkpt>
      <trkpt lat="36.716096" lon="-3.365443">
        <ele>42.854</ele>
        <time>2021-06-16T10:53:37Z</time>
      </trkpt>
      <trkpt lat="36.715968" lon="-3.365577">
        <ele>44.518</ele>
        <time>2021-06-16T10:53:38Z</time>
      </trkpt>
      <trkpt lat="36.71566" lon="-3.365727">
        <ele>47.298</ele>
        <time>2021-06-16T10:53:40Z</time>
      </trkpt>
      <trkpt lat="36.715494" lon="-3.365753">
        <ele>49.317</ele>
        <time>2021-06-16T10:53:41Z</time>
      </trkpt>
      <trkpt lat="36.715173" lon="-3.365813">
        <ele>51.408</ele>
        <time>2021-06-16T10:53:43Z</time>
      </trkpt>
      <trkpt lat="36.714913" lon="-3.366006">
        <ele>54.068</ele>
        <time>2021-06-16T10:53:45Z</time>
      </trkpt>
      <trkpt lat="36.714765" lon="-3.366349">
        <ele>57.676</ele>
        <time>2021-06-16T10:53:47Z</time>
      </trkpt>
      <trkpt lat="36.714754" lon="-3.366753">
        <ele>60.630</ele>
        <time>2021-06-16T10:53:49Z</time>
      </trkpt>
      <trkpt lat="36.714784" lon="-3.366958">
        <ele>62.649</ele>
        <time>2021-06-16T10:53:50Z</time>
      </trkpt>
      <trkpt lat="36.714826" lon="-3.367164">
        <ele>64.042</ele>
        <time>2021-06-16T10:53:51Z</time>
      </trkpt>
      <trkpt lat="36.714927" lon="-3.367558">
        <ele>66.369</ele>
        <time>2021-06-16T10:53:53Z</time>
      </trkpt>
      <trkpt lat="36.715018" lon="-3.367961">
        <ele>68.396</ele>
        <time>2021-06-16T10:53:55Z</time>
      </trkpt>
      <trkpt lat="36.715105" lon="-3.368381">
        <ele>70.026</ele>
        <time>2021-06-16T10:53:57Z</time>
      </trkpt>
      <trkpt lat="36.715146" lon="-3.368586">
        <ele>72.033</ele>
        <time>2021-06-16T10:53:58Z</time>
      </trkpt>
      <trkpt lat="36.715227" lon="-3.369">
        <ele>74.423</ele>
        <time>2021-06-16T10:54:00Z</time>
      </trkpt>
      <trkpt lat="36.715266" lon="-3.369195">
        <ele>75.815</ele>
        <time>2021-06-16T10:54:01Z</time>
      </trkpt>
      <trkpt lat="36.715276" lon="-3.369397">
        <ele>77.108</ele>
        <time>2021-06-16T10:54:02Z</time>
      </trkpt>
      <trkpt lat="36.715197" lon="-3.369809">
        <ele>78.750</ele>
        <time>2021-06-16T10:54:04Z</time>
      </trkpt>
      <trkpt lat="36.715129" lon="-3.369999">
        <ele>79.978</ele>
        <time>2021-06-16T10:54:05Z</time>
      </trkpt>
      <trkpt lat="36.715018" lon="-3.37037">
        <ele>81.892</ele>
        <time>2021-06-16T10:54:07Z</time>
      </trkpt>
      <trkpt lat="36.715017" lon="-3.370564">
        <ele>82.841</ele>
        <time>2021-06-16T10:54:08Z</time>
      </trkpt>
      <trkpt lat="36.715054" lon="-3.370753">
        <ele>84.334</ele>
        <time>2021-06-16T10:54:09Z</time>
      </trkpt>
      <trkpt lat="36.715118" lon="-3.370935">
        <ele>86.021</ele>
        <time>2021-06-16T10:54:10Z</time>
      </trkpt>
      <trkpt lat="36.715295" lon="-3.371255">
        <ele>88.078</ele>
        <time>2021-06-16T10:54:12Z</time>
      </trkpt>
      <trkpt lat="36.715402" lon="-3.371393">
        <ele>90.428</ele>
        <time>2021-06-16T10:54:13Z</time>
      </trkpt>
      <trkpt lat="36.715492" lon="-3.371546">
        <ele>92.236</ele>
        <time>2021-06-16T10:54:14Z</time>
      </trkpt>
      <trkpt lat="36.715565" lon="-3.371714">
        <ele>93.417</ele>
        <time>2021-06-16T10:54:15Z</time>
      </trkpt>
      <trkpt lat="36.715651" lon="-3.37209">
        <ele>93.918</ele>
        <time>2021-06-16T10:54:17Z</time>
      </trkpt>
      <trkpt lat="36.715658" lon="-3.372287">
        <ele>95.508</ele>
        <time>2021-06-16T10:54:18Z</time>
      </trkpt>
      <trkpt lat="36.715656" lon="-3.372673">
        <ele>96.690</ele>
        <time>2021-06-16T10:54:20Z</time>
      </trkpt>
      <trkpt lat="36.715634" lon="-3.373087">
        <ele>98.328</ele>
        <time>2021-06-16T10:54:22Z</time>
      </trkpt>
      <trkpt lat="36.715617" lon="-3.373497">
        <ele>100.592</ele>
        <time>2021-06-16T10:54:24Z</time>
      </trkpt>
      <trkpt lat="36.7156" lon="-3.37391">
        <ele>102.881</ele>
        <time>2021-06-16T10:54:26Z</time>
      </trkpt>
      <trkpt lat="36.715595" lon="-3.374116">
        <ele>105.054</ele>
        <time>2021-06-16T10:54:27Z</time>
      </trkpt>
      <trkpt lat="36.71561" lon="-3.374517">
        <ele>107.051</ele>
        <time>2021-06-16T10:54:29Z</time>
      </trkpt>
      <trkpt lat="36.715685" lon="-3.374907">
        <ele>109.028</ele>
        <time>2021-06-16T10:54:31Z</time>
      </trkpt>
      <trkpt lat="36.715753" lon="-3.375097">
        <ele>110.998</ele>
        <time>2021-06-16T10:54:32Z</time>
      </trkpt>
      <trkpt lat="36.71582" lon="-3.375288">
        <ele>112.769</ele>
        <time>2021-06-16T10:54:33Z</time>
      </trkpt>
      <trkpt lat="36.715908" lon="-3.375681">
        <ele>113.704</ele>
        <time>2021-06-16T10:54:35Z</time>
      </trkpt>
      <trkpt lat="36.715903" lon="-3.376095">
        <ele>114.724</ele>
        <time>2021-06-16T10:54:37Z</time>
      </trkpt>
      <trkpt lat="36.715819" lon="-3.376509">
        <ele>116.308</ele>
        <time>2021-06-16T10:54:39Z</time>
      </trkpt>
      <trkpt lat="36.715642" lon="-3.37691">
        <ele>118.413</ele>
        <time>2021-06-16T10:54:41Z</time>
      </trkpt>
      <trkpt lat="36.715544" lon="-3.377108">
        <ele>120.451</ele>
        <time>2021-06-16T10:54:42Z</time>
      </trkpt>
      <trkpt lat="36.715452" lon="-3.377302">
        <ele>121.815</ele>
        <time>2021-06-16T10:54:43Z</time>
      </trkpt>
      <trkpt lat="36.715269" lon="-3.377698">
        <ele>123.024</ele>
        <time>2021-06-16T10:54:45Z</time>
      </trkpt>
      <trkpt lat="36.71511" lon="-3.378097">
        <ele>123.627</ele>
        <time>2021-06-16T10:54:47Z</time>
      </trkpt>
      <trkpt lat="36.715036" lon="-3.37829">
        <ele>123.944</ele>
        <time>2021-06-16T10:54:48Z</time>
      </trkpt>
      <trkpt lat="36.71488" lon="-3.378657">
        <ele>124.431</ele>
        <time>2021-06-16T10:54:50Z</time>
      </trkpt>
      <trkpt lat="36.714732" lon="-3.379006">
        <ele>124.221</ele>
        <time>2021-06-16T10:54:52Z</time>
      </trkpt>
      <trkpt lat="36.71466" lon="-3.379174">
        <ele>124.561</ele>
        <time>2021-06-16T10:54:53Z</time>
      </trkpt>
      <trkpt lat="36.714515" lon="-3.379518">
        <ele>124.121</ele>
        <time>2021-06-16T10:54:55Z</time>
      </trkpt>
      <trkpt lat="36.714387" lon="-3.3799">
        <ele>123.913</ele>
        <time>2021-06-16T10:54:57Z</time>
      </trkpt>
      <trkpt lat="36.714284" lon="-3.380311">
        <ele>123.808</ele>
        <time>2021-06-16T10:54:59Z</time>
      </trkpt>
      <trkpt lat="36.713854" lon="-3.383782">
        <ele>120.053</ele>
        <time>2021-06-16T10:55:16Z</time>
      </trkpt>
      <trkpt lat="36.713573" lon="-3.384046">
        <ele>116.251</ele>
        <time>2021-06-16T10:55:18Z</time>
      </trkpt>
      <trkpt lat="36.7133" lon="-3.384313">
        <ele>112.775</ele>
        <time>2021-06-16T10:55:20Z</time>
      </trkpt>
      <trkpt lat="36.713031" lon="-3.38459">
        <ele>109.834</ele>
        <time>2021-06-16T10:55:22Z</time>
      </trkpt>
      <trkpt lat="36.712916" lon="-3.38474">
        <ele>107.957</ele>
        <time>2021-06-16T10:55:23Z</time>
      </trkpt>
      <trkpt lat="36.712822" lon="-3.384899">
        <ele>106.794</ele>
        <time>2021-06-16T10:55:24Z</time>
      </trkpt>
      <trkpt lat="36.712715" lon="-3.385265">
        <ele>104.561</ele>
        <time>2021-06-16T10:55:26Z</time>
      </trkpt>
      <trkpt lat="36.712689" lon="-3.385466">
        <ele>102.941</ele>
        <time>2021-06-16T10:55:27Z</time>
      </trkpt>
      <trkpt lat="36.712688" lon="-3.385679">
        <ele>101.059</ele>
        <time>2021-06-16T10:55:28Z</time>
      </trkpt>
      <trkpt lat="36.712713" lon="-3.385893">
        <ele>99.303</ele>
        <time>2021-06-16T10:55:29Z</time>
      </trkpt>
      <trkpt lat="36.712797" lon="-3.386319">
        <ele>97.223</ele>
        <time>2021-06-16T10:55:31Z</time>
      </trkpt>
      <trkpt lat="36.712825" lon="-3.386758">
        <ele>95.508</ele>
        <time>2021-06-16T10:55:33Z</time>
      </trkpt>
      <trkpt lat="36.71275" lon="-3.387181">
        <ele>93.742</ele>
        <time>2021-06-16T10:55:35Z</time>
      </trkpt>
      <trkpt lat="36.712692" lon="-3.387391">
        <ele>91.820</ele>
        <time>2021-06-16T10:55:36Z</time>
      </trkpt>
      <trkpt lat="36.712621" lon="-3.387825">
        <ele>89.524</ele>
        <time>2021-06-16T10:55:38Z</time>
      </trkpt>
      <trkpt lat="36.71263" lon="-3.388044">
        <ele>88.043</ele>
        <time>2021-06-16T10:55:39Z</time>
      </trkpt>
      <trkpt lat="36.712727" lon="-3.388464">
        <ele>86.086</ele>
        <time>2021-06-16T10:55:41Z</time>
      </trkpt>
      <trkpt lat="36.712877" lon="-3.388859">
        <ele>84.353</ele>
        <time>2021-06-16T10:55:43Z</time>
      </trkpt>
      <trkpt lat="36.712957" lon="-3.389043">
        <ele>82.570</ele>
        <time>2021-06-16T10:55:44Z</time>
      </trkpt>
      <trkpt lat="36.713022" lon="-3.389415">
        <ele>81.160</ele>
        <time>2021-06-16T10:55:46Z</time>
      </trkpt>
      <trkpt lat="36.712919" lon="-3.389765">
        <ele>79.375</ele>
        <time>2021-06-16T10:55:48Z</time>
      </trkpt>
      <trkpt lat="36.712827" lon="-3.389897">
        <ele>77.828</ele>
        <time>2021-06-16T10:55:49Z</time>
      </trkpt>
      <trkpt lat="36.712708" lon="-3.390018">
        <ele>76.120</ele>
        <time>2021-06-16T10:55:50Z</time>
      </trkpt>
      <trkpt lat="36.712581" lon="-3.390119">
        <ele>74.608</ele>
        <time>2021-06-16T10:55:51Z</time>
      </trkpt>
      <trkpt lat="36.712266" lon="-3.390132">
        <ele>73.454</ele>
        <time>2021-06-16T10:55:53Z</time>
      </trkpt>
      <trkpt lat="36.712061" lon="-3.390021">
        <ele>72.892</ele>
        <time>2021-06-16T10:55:54Z</time>
      </trkpt>
      <trkpt lat="36.711862" lon="-3.389894">
        <ele>71.956</ele>
        <time>2021-06-16T10:55:55Z</time>
      </trkpt>
      <trkpt lat="36.711484" lon="-3.38975">
        <ele>69.195</ele>
        <time>2021-06-16T10:55:57Z</time>
      </trkpt>
      <trkpt lat="36.711117" lon="-3.38977">
        <ele>66.078</ele>
        <time>2021-06-16T10:55:59Z</time>
      </trkpt>
      <trkpt lat="36.710945" lon="-3.389838">
        <ele>63.595</ele>
        <time>2021-06-16T10:56:00Z</time>
      </trkpt>
      <trkpt lat="36.710787" lon="-3.389947">
        <ele>61.392</ele>
        <time>2021-06-16T10:56:01Z</time>
      </trkpt>
      <trkpt lat="36.710531" lon="-3.390253">
        <ele>59.832</ele>
        <time>2021-06-16T10:56:03Z</time>
      </trkpt>
      <trkpt lat="36.710443" lon="-3.390455">
        <ele>58.136</ele>
        <time>2021-06-16T10:56:04Z</time>
      </trkpt>
      <trkpt lat="36.710342" lon="-3.390901">
        <ele>55.617</ele>
        <time>2021-06-16T10:56:06Z</time>
      </trkpt>
      <trkpt lat="36.710342" lon="-3.391135">
        <ele>53.818</ele>
        <time>2021-06-16T10:56:07Z</time>
      </trkpt>
      <trkpt lat="36.710374" lon="-3.391613">
        <ele>51.508</ele>
        <time>2021-06-16T10:56:09Z</time>
      </trkpt>
      <trkpt lat="36.710354" lon="-3.392077">
        <ele>49.370</ele>
        <time>2021-06-16T10:56:11Z</time>
      </trkpt>
      <trkpt lat="36.710297" lon="-3.392297">
        <ele>47.518</ele>
        <time>2021-06-16T10:56:12Z</time>
      </trkpt>
      <trkpt lat="36.710068" lon="-3.392646">
        <ele>45.992</ele>
        <time>2021-06-16T10:56:14Z</time>
      </trkpt>
      <trkpt lat="36.70974" lon="-3.392824">
        <ele>44.561</ele>
        <time>2021-06-16T10:56:16Z</time>
      </trkpt>
      <trkpt lat="36.709386" lon="-3.392902">
        <ele>43.414</ele>
        <time>2021-06-16T10:56:18Z</time>
      </trkpt>
      <trkpt lat="36.709049" lon="-3.393009">
        <ele>42.571</ele>
        <time>2021-06-16T10:56:20Z</time>
      </trkpt>
      <trkpt lat="36.708892" lon="-3.393098">
        <ele>41.738</ele>
        <time>2021-06-16T10:56:21Z</time>
      </trkpt>
      <trkpt lat="36.708749" lon="-3.393213">
        <ele>41.158</ele>
        <time>2021-06-16T10:56:22Z</time>
      </trkpt>
      <trkpt lat="36.708619" lon="-3.393348">
        <ele>41.123</ele>
        <time>2021-06-16T10:56:23Z</time>
      </trkpt>
      <trkpt lat="36.708505" lon="-3.393499">
        <ele>40.883</ele>
        <time>2021-06-16T10:56:24Z</time>
      </trkpt>
      <trkpt lat="36.708405" lon="-3.393665">
        <ele>41.011</ele>
        <time>2021-06-16T10:56:25Z</time>
      </trkpt>
      <trkpt lat="36.708253" lon="-3.394037">
        <ele>41.108</ele>
        <time>2021-06-16T10:56:27Z</time>
      </trkpt>
      <trkpt lat="36.708208" lon="-3.394238">
        <ele>41.069</ele>
        <time>2021-06-16T10:56:28Z</time>
      </trkpt>
      <trkpt lat="36.708177" lon="-3.394442">
        <ele>40.867</ele>
        <time>2021-06-16T10:56:29Z</time>
      </trkpt>
      <trkpt lat="36.708158" lon="-3.39465">
        <ele>40.971</ele>
        <time>2021-06-16T10:56:30Z</time>
      </trkpt>
      <trkpt lat="36.70815" lon="-3.394858">
        <ele>41.280</ele>
        <time>2021-06-16T10:56:31Z</time>
      </trkpt>
      <trkpt lat="36.708148" lon="-3.395284">
        <ele>41.913</ele>
        <time>2021-06-16T10:56:33Z</time>
      </trkpt>
      <trkpt lat="36.708143" lon="-3.395502">
        <ele>42.410</ele>
        <time>2021-06-16T10:56:34Z</time>
      </trkpt>
      <trkpt lat="36.708116" lon="-3.395939">
        <ele>43.297</ele>
        <time>2021-06-16T10:56:36Z</time>
      </trkpt>
      <trkpt lat="36.708092" lon="-3.39638">
        <ele>44.177</ele>
        <time>2021-06-16T10:56:38Z</time>
      </trkpt>
      <trkpt lat="36.708072" lon="-3.396808">
        <ele>46.016</ele>
        <time>2021-06-16T10:56:40Z</time>
      </trkpt>
      <trkpt lat="36.708006" lon="-3.397209">
        <ele>47.076</ele>
        <time>2021-06-16T10:56:42Z</time>
      </trkpt>
      <trkpt lat="36.707805" lon="-3.397551">
        <ele>48.213</ele>
        <time>2021-06-16T10:56:44Z</time>
      </trkpt>
      <trkpt lat="36.70755" lon="-3.397836">
        <ele>49.208</ele>
        <time>2021-06-16T10:56:46Z</time>
      </trkpt>
      <trkpt lat="36.707296" lon="-3.398105">
        <ele>50.748</ele>
        <time>2021-06-16T10:56:48Z</time>
      </trkpt>
      <trkpt lat="36.707087" lon="-3.398422">
        <ele>52.286</ele>
        <time>2021-06-16T10:56:50Z</time>
      </trkpt>
      <trkpt lat="36.706982" lon="-3.398815">
        <ele>53.050</ele>
        <time>2021-06-16T10:56:52Z</time>
      </trkpt>
      <trkpt lat="36.706977" lon="-3.399031">
        <ele>53.639</ele>
        <time>2021-06-16T10:56:53Z</time>
      </trkpt>
      <trkpt lat="36.706992" lon="-3.399244">
        <ele>53.712</ele>
        <time>2021-06-16T10:56:54Z</time>
      </trkpt>
      <trkpt lat="36.707103" lon="-3.399636">
        <ele>53.819</ele>
        <time>2021-06-16T10:56:56Z</time>
      </trkpt>
      <trkpt lat="36.707171" lon="-3.399823">
        <ele>53.986</ele>
        <time>2021-06-16T10:56:57Z</time>
      </trkpt>
      <trkpt lat="36.70739" lon="-3.400139">
        <ele>54.356</ele>
        <time>2021-06-16T10:56:59Z</time>
      </trkpt>
      <trkpt lat="36.707553" lon="-3.400244">
        <ele>54.066</ele>
        <time>2021-06-16T10:57:00Z</time>
      </trkpt>
      <trkpt lat="36.707715" lon="-3.40034">
        <ele>53.629</ele>
        <time>2021-06-16T10:57:01Z</time>
      </trkpt>
      <trkpt lat="36.707874" lon="-3.400437">
        <ele>53.621</ele>
        <time>2021-06-16T10:57:02Z</time>
      </trkpt>
      <trkpt lat="36.708174" lon="-3.400659">
        <ele>53.708</ele>
        <time>2021-06-16T10:57:04Z</time>
      </trkpt>
      <trkpt lat="36.70829" lon="-3.400823">
        <ele>54.053</ele>
        <time>2021-06-16T10:57:05Z</time>
      </trkpt>
      <trkpt lat="36.708438" lon="-3.401223">
        <ele>54.251</ele>
        <time>2021-06-16T10:57:07Z</time>
      </trkpt>
      <trkpt lat="36.708485" lon="-3.401675">
        <ele>54.835</ele>
        <time>2021-06-16T10:57:09Z</time>
      </trkpt>
      <trkpt lat="36.708452" lon="-3.402135">
        <ele>54.714</ele>
        <time>2021-06-16T10:57:11Z</time>
      </trkpt>
      <trkpt lat="36.708431" lon="-3.402362">
        <ele>54.567</ele>
        <time>2021-06-16T10:57:12Z</time>
      </trkpt>
      <trkpt lat="36.708409" lon="-3.402584">
        <ele>54.514</ele>
        <time>2021-06-16T10:57:13Z</time>
      </trkpt>
      <trkpt lat="36.708394" lon="-3.402809">
        <ele>54.451</ele>
        <time>2021-06-16T10:57:14Z</time>
      </trkpt>
      <trkpt lat="36.708375" lon="-3.403256">
        <ele>54.931</ele>
        <time>2021-06-16T10:57:16Z</time>
      </trkpt>
      <trkpt lat="36.708345" lon="-3.4037">
        <ele>55.937</ele>
        <time>2021-06-16T10:57:18Z</time>
      </trkpt>
      <trkpt lat="36.708256" lon="-3.404128">
        <ele>56.849</ele>
        <time>2021-06-16T10:57:20Z</time>
      </trkpt>
      <trkpt lat="36.708173" lon="-3.404328">
        <ele>57.113</ele>
        <time>2021-06-16T10:57:21Z</time>
      </trkpt>
      <trkpt lat="36.707948" lon="-3.404678">
        <ele>57.608</ele>
        <time>2021-06-16T10:57:23Z</time>
      </trkpt>
      <trkpt lat="36.707809" lon="-3.404835">
        <ele>57.620</ele>
        <time>2021-06-16T10:57:24Z</time>
      </trkpt>
      <trkpt lat="36.707662" lon="-3.404982">
        <ele>57.588</ele>
        <time>2021-06-16T10:57:25Z</time>
      </trkpt>
      <trkpt lat="36.707358" lon="-3.405238">
        <ele>57.692</ele>
        <time>2021-06-16T10:57:27Z</time>
      </trkpt>
      <trkpt lat="36.707014" lon="-3.405404">
        <ele>57.751</ele>
        <time>2021-06-16T10:57:29Z</time>
      </trkpt>
      <trkpt lat="36.706647" lon="-3.405443">
        <ele>58.284</ele>
        <time>2021-06-16T10:57:31Z</time>
      </trkpt>
      <trkpt lat="36.706469" lon="-3.405433">
        <ele>58.341</ele>
        <time>2021-06-16T10:57:32Z</time>
      </trkpt>
      <trkpt lat="36.706134" lon="-3.40543">
        <ele>58.458</ele>
        <time>2021-06-16T10:57:34Z</time>
      </trkpt>
      <trkpt lat="36.705971" lon="-3.405461">
        <ele>58.748</ele>
        <time>2021-06-16T10:57:35Z</time>
      </trkpt>
      <trkpt lat="36.705664" lon="-3.405603">
        <ele>59.179</ele>
        <time>2021-06-16T10:57:37Z</time>
      </trkpt>
      <trkpt lat="36.70552" lon="-3.405722">
        <ele>59.505</ele>
        <time>2021-06-16T10:57:38Z</time>
      </trkpt>
      <trkpt lat="36.705338" lon="-3.406084">
        <ele>59.625</ele>
        <time>2021-06-16T10:57:40Z</time>
      </trkpt>
      <trkpt lat="36.705283" lon="-3.406293">
        <ele>59.608</ele>
        <time>2021-06-16T10:57:41Z</time>
      </trkpt>
      <trkpt lat="36.705227" lon="-3.406734">
        <ele>59.414</ele>
        <time>2021-06-16T10:57:43Z</time>
      </trkpt>
      <trkpt lat="36.705201" lon="-3.40695">
        <ele>59.592</ele>
        <time>2021-06-16T10:57:44Z</time>
      </trkpt>
      <trkpt lat="36.705155" lon="-3.407155">
        <ele>59.446</ele>
        <time>2021-06-16T10:57:45Z</time>
      </trkpt>
      <trkpt lat="36.705075" lon="-3.407337">
        <ele>59.695</ele>
        <time>2021-06-16T10:57:46Z</time>
      </trkpt>
      <trkpt lat="36.704797" lon="-3.407601">
        <ele>59.048</ele>
        <time>2021-06-16T10:57:48Z</time>
      </trkpt>
      <trkpt lat="36.704624" lon="-3.407681">
        <ele>58.855</ele>
        <time>2021-06-16T10:57:49Z</time>
      </trkpt>
      <trkpt lat="36.704263" lon="-3.407675">
        <ele>58.242</ele>
        <time>2021-06-16T10:57:51Z</time>
      </trkpt>
      <trkpt lat="36.703917" lon="-3.407585">
        <ele>57.892</ele>
        <time>2021-06-16T10:57:53Z</time>
      </trkpt>
      <trkpt lat="36.703743" lon="-3.407568">
        <ele>57.144</ele>
        <time>2021-06-16T10:57:54Z</time>
      </trkpt>
      <trkpt lat="36.703569" lon="-3.40758">
        <ele>56.805</ele>
        <time>2021-06-16T10:57:55Z</time>
      </trkpt>
      <trkpt lat="36.703397" lon="-3.407619">
        <ele>56.215</ele>
        <time>2021-06-16T10:57:56Z</time>
      </trkpt>
      <trkpt lat="36.703067" lon="-3.407774">
        <ele>55.408</ele>
        <time>2021-06-16T10:57:58Z</time>
      </trkpt>
      <trkpt lat="36.702917" lon="-3.407895">
        <ele>55.221</ele>
        <time>2021-06-16T10:57:59Z</time>
      </trkpt>
      <trkpt lat="36.702777" lon="-3.408041">
        <ele>55.029</ele>
        <time>2021-06-16T10:58:00Z</time>
      </trkpt>
      <trkpt lat="36.702649" lon="-3.408205">
        <ele>55.153</ele>
        <time>2021-06-16T10:58:01Z</time>
      </trkpt>
      <trkpt lat="36.702467" lon="-3.408581">
        <ele>55.132</ele>
        <time>2021-06-16T10:58:03Z</time>
      </trkpt>
      <trkpt lat="36.702376" lon="-3.409012">
        <ele>54.375</ele>
        <time>2021-06-16T10:58:05Z</time>
      </trkpt>
      <trkpt lat="36.702366" lon="-3.409238">
        <ele>54.142</ele>
        <time>2021-06-16T10:58:06Z</time>
      </trkpt>
      <trkpt lat="36.702411" lon="-3.409683">
        <ele>53.549</ele>
        <time>2021-06-16T10:58:08Z</time>
      </trkpt>
      <trkpt lat="36.702536" lon="-3.4101">
        <ele>52.859</ele>
        <time>2021-06-16T10:58:10Z</time>
      </trkpt>
      <trkpt lat="36.702636" lon="-3.410292">
        <ele>52.143</ele>
        <time>2021-06-16T10:58:11Z</time>
      </trkpt>
      <trkpt lat="36.702758" lon="-3.410461">
        <ele>51.864</ele>
        <time>2021-06-16T10:58:12Z</time>
      </trkpt>
      <trkpt lat="36.702896" lon="-3.41061">
        <ele>51.810</ele>
        <time>2021-06-16T10:58:13Z</time>
      </trkpt>
      <trkpt lat="36.70304" lon="-3.41074">
        <ele>52.008</ele>
        <time>2021-06-16T10:58:14Z</time>
      </trkpt>
      <trkpt lat="36.703371" lon="-3.410929">
        <ele>52.121</ele>
        <time>2021-06-16T10:58:16Z</time>
      </trkpt>
      <trkpt lat="36.703542" lon="-3.41099">
        <ele>52.479</ele>
        <time>2021-06-16T10:58:17Z</time>
      </trkpt>
      <trkpt lat="36.70388" lon="-3.411064">
        <ele>53.163</ele>
        <time>2021-06-16T10:58:19Z</time>
      </trkpt>
      <trkpt lat="36.704188" lon="-3.411172">
        <ele>53.262</ele>
        <time>2021-06-16T10:58:21Z</time>
      </trkpt>
      <trkpt lat="36.704316" lon="-3.41128">
        <ele>52.935</ele>
        <time>2021-06-16T10:58:22Z</time>
      </trkpt>
      <trkpt lat="36.704537" lon="-3.411571">
        <ele>52.742</ele>
        <time>2021-06-16T10:58:24Z</time>
      </trkpt>
      <trkpt lat="36.704642" lon="-3.411736">
        <ele>52.369</ele>
        <time>2021-06-16T10:58:25Z</time>
      </trkpt>
      <trkpt lat="36.704746" lon="-3.411905">
        <ele>51.799</ele>
        <time>2021-06-16T10:58:26Z</time>
      </trkpt>
      <trkpt lat="36.70485" lon="-3.412072">
        <ele>51.386</ele>
        <time>2021-06-16T10:58:27Z</time>
      </trkpt>
      <trkpt lat="36.705012" lon="-3.412428">
        <ele>50.360</ele>
        <time>2021-06-16T10:58:29Z</time>
      </trkpt>
      <trkpt lat="36.705117" lon="-3.412816">
        <ele>48.626</ele>
        <time>2021-06-16T10:58:31Z</time>
      </trkpt>
      <trkpt lat="36.705178" lon="-3.413212">
        <ele>46.608</ele>
        <time>2021-06-16T10:58:33Z</time>
      </trkpt>
      <trkpt lat="36.705192" lon="-3.413406">
        <ele>44.955</ele>
        <time>2021-06-16T10:58:34Z</time>
      </trkpt>
      <trkpt lat="36.705185" lon="-3.413781">
        <ele>43.293</ele>
        <time>2021-06-16T10:58:36Z</time>
      </trkpt>
      <trkpt lat="36.705131" lon="-3.414175">
        <ele>41.267</ele>
        <time>2021-06-16T10:58:38Z</time>
      </trkpt>
      <trkpt lat="36.705104" lon="-3.414368">
        <ele>39.346</ele>
        <time>2021-06-16T10:58:39Z</time>
      </trkpt>
      <trkpt lat="36.705076" lon="-3.414558">
        <ele>37.719</ele>
        <time>2021-06-16T10:58:40Z</time>
      </trkpt>
      <trkpt lat="36.705023" lon="-3.414938">
        <ele>35.896</ele>
        <time>2021-06-16T10:58:42Z</time>
      </trkpt>
      <trkpt lat="36.704972" lon="-3.415314">
        <ele>35.083</ele>
        <time>2021-06-16T10:58:44Z</time>
      </trkpt>
      <trkpt lat="36.704948" lon="-3.4155">
        <ele>34.693</ele>
        <time>2021-06-16T10:58:45Z</time>
      </trkpt>
      <trkpt lat="36.704843" lon="-3.415857">
        <ele>34.568</ele>
        <time>2021-06-16T10:58:47Z</time>
      </trkpt>
      <trkpt lat="36.704754" lon="-3.416029">
        <ele>34.242</ele>
        <time>2021-06-16T10:58:48Z</time>
      </trkpt>
      <trkpt lat="36.704509" lon="-3.416325">
        <ele>33.026</ele>
        <time>2021-06-16T10:58:50Z</time>
      </trkpt>
      <trkpt lat="36.704222" lon="-3.416509">
        <ele>31.508</ele>
        <time>2021-06-16T10:58:52Z</time>
      </trkpt>
      <trkpt lat="36.703917" lon="-3.416539">
        <ele>29.773</ele>
        <time>2021-06-16T10:58:54Z</time>
      </trkpt>
      <trkpt lat="36.703757" lon="-3.416469">
        <ele>28.281</ele>
        <time>2021-06-16T10:58:55Z</time>
      </trkpt>
      <trkpt lat="36.703603" lon="-3.416377">
        <ele>26.725</ele>
        <time>2021-06-16T10:58:56Z</time>
      </trkpt>
      <trkpt lat="36.703331" lon="-3.416232">
        <ele>24.534</ele>
        <time>2021-06-16T10:58:58Z</time>
      </trkpt>
      <trkpt lat="36.703106" lon="-3.416111">
        <ele>22.337</ele>
        <time>2021-06-16T10:59:00Z</time>
      </trkpt>
      <trkpt lat="36.703003" lon="-3.416056">
        <ele>20.684</ele>
        <time>2021-06-16T10:59:01Z</time>
      </trkpt>
      <trkpt lat="36.702901" lon="-3.416006">
        <ele>19.231</ele>
        <time>2021-06-16T10:59:02Z</time>
      </trkpt>
      <trkpt lat="36.70272" lon="-3.415932">
        <ele>18.131</ele>
        <time>2021-06-16T10:59:04Z</time>
      </trkpt>
      <trkpt lat="36.702556" lon="-3.41588">
        <ele>16.382</ele>
        <time>2021-06-16T10:59:06Z</time>
      </trkpt>
      <trkpt lat="36.702485" lon="-3.415861">
        <ele>15.343</ele>
        <time>2021-06-16T10:59:07Z</time>
      </trkpt>
      <trkpt lat="36.702419" lon="-3.415841">
        <ele>14.317</ele>
        <time>2021-06-16T10:59:08Z</time>
      </trkpt>
      <trkpt lat="36.702304" lon="-3.415813">
        <ele>13.908</ele>
        <time>2021-06-16T10:59:10Z</time>
      </trkpt>
      <trkpt lat="36.702247" lon="-3.415801">
        <ele>13.755</ele>
        <time>2021-06-16T10:59:11Z</time>
      </trkpt>
      <trkpt lat="36.702195" lon="-3.415791">
        <ele>13.393</ele>
        <time>2021-06-16T10:59:12Z</time>
      </trkpt>
      <trkpt lat="36.702111" lon="-3.415778">
        <ele>12.047</ele>
        <time>2021-06-16T10:59:14Z</time>
      </trkpt>
      <trkpt lat="36.702053" lon="-3.415768">
        <ele>11.016</ele>
        <time>2021-06-16T10:59:16Z</time>
      </trkpt>
      <trkpt lat="36.702005" lon="-3.415756">
        <ele>10.829</ele>
        <time>2021-06-16T10:59:18Z</time>
      </trkpt>
      <trkpt lat="36.70194" lon="-3.415768">
        <ele>8.976</ele>
        <time>2021-06-16T10:59:45Z</time>
      </trkpt>
      <trkpt lat="36.701873" lon="-3.415759">
        <ele>7.863</ele>
        <time>2021-06-16T10:59:46Z</time>
      </trkpt>
      <trkpt lat="36.701787" lon="-3.415768">
        <ele>7.123</ele>
        <time>2021-06-16T10:59:47Z</time>
      </trkpt>
      <trkpt lat="36.701593" lon="-3.415863">
        <ele>6.771</ele>
        <time>2021-06-16T10:59:49Z</time>
      </trkpt>
      <trkpt lat="36.701412" lon="-3.416024">
        <ele>6.441</ele>
        <time>2021-06-16T10:59:51Z</time>
      </trkpt>
      <trkpt lat="36.701327" lon="-3.416112">
        <ele>6.215</ele>
        <time>2021-06-16T10:59:52Z</time>
      </trkpt>
      <trkpt lat="36.701248" lon="-3.416198">
        <ele>6.108</ele>
        <time>2021-06-16T10:59:53Z</time>
      </trkpt>
      <trkpt lat="36.701109" lon="-3.416369">
        <ele>6.024</ele>
        <time>2021-06-16T10:59:55Z</time>
      </trkpt>
      <trkpt lat="36.700976" lon="-3.416533">
        <ele>6.092</ele>
        <time>2021-06-16T10:59:57Z</time>
      </trkpt>
      <trkpt lat="36.700916" lon="-3.416618">
        <ele>6.086</ele>
        <time>2021-06-16T10:59:58Z</time>
      </trkpt>
      <trkpt lat="36.700834" lon="-3.416819">
        <ele>6.095</ele>
        <time>2021-06-16T11:00:00Z</time>
      </trkpt>
      <trkpt lat="36.700809" lon="-3.416931">
        <ele>6.048</ele>
        <time>2021-06-16T11:00:01Z</time>
      </trkpt>
      <trkpt lat="36.700799" lon="-3.41718">
        <ele>6.045</ele>
        <time>2021-06-16T11:00:03Z</time>
      </trkpt>
      <trkpt lat="36.700809" lon="-3.417438">
        <ele>6.092</ele>
        <time>2021-06-16T11:00:05Z</time>
      </trkpt>
      <trkpt lat="36.700826" lon="-3.417697">
        <ele>6.052</ele>
        <time>2021-06-16T11:00:07Z</time>
      </trkpt>
      <trkpt lat="36.700836" lon="-3.417966">
        <ele>6.067</ele>
        <time>2021-06-16T11:00:09Z</time>
      </trkpt>
      <trkpt lat="36.700855" lon="-3.418245">
        <ele>6.081</ele>
        <time>2021-06-16T11:00:11Z</time>
      </trkpt>
      <trkpt lat="36.700856" lon="-3.418394">
        <ele>6.019</ele>
        <time>2021-06-16T11:00:12Z</time>
      </trkpt>
      <trkpt lat="36.700859" lon="-3.418548">
        <ele>6.008</ele>
        <time>2021-06-16T11:00:13Z</time>
      </trkpt>
      <trkpt lat="36.700856" lon="-3.418882">
        <ele>6.073</ele>
        <time>2021-06-16T11:00:15Z</time>
      </trkpt>
      <trkpt lat="36.70086" lon="-3.419219">
        <ele>6.051</ele>
        <time>2021-06-16T11:00:17Z</time>
      </trkpt>
      <trkpt lat="36.700859" lon="-3.419397">
        <ele>6.075</ele>
        <time>2021-06-16T11:00:18Z</time>
      </trkpt>
      <trkpt lat="36.700866" lon="-3.419748">
        <ele>6.014</ele>
        <time>2021-06-16T11:00:20Z</time>
      </trkpt>
      <trkpt lat="36.700866" lon="-3.420107">
        <ele>6.087</ele>
        <time>2021-06-16T11:00:22Z</time>
      </trkpt>
      <trkpt lat="36.700862" lon="-3.420294">
        <ele>6.054</ele>
        <time>2021-06-16T11:00:23Z</time>
      </trkpt>
      <trkpt lat="36.700857" lon="-3.420669">
        <ele>6.061</ele>
        <time>2021-06-16T11:00:25Z</time>
      </trkpt>
      <trkpt lat="36.70086" lon="-3.420851">
        <ele>6.071</ele>
        <time>2021-06-16T11:00:26Z</time>
      </trkpt>
      <trkpt lat="36.700859" lon="-3.421035">
        <ele>6.084</ele>
        <time>2021-06-16T11:00:27Z</time>
      </trkpt>
      <trkpt lat="36.700849" lon="-3.421434">
        <ele>6.007</ele>
        <time>2021-06-16T11:00:29Z</time>
      </trkpt>
      <trkpt lat="36.700853" lon="-3.421839">
        <ele>6.017</ele>
        <time>2021-06-16T11:00:31Z</time>
      </trkpt>
      <trkpt lat="36.700859" lon="-3.422258">
        <ele>6.008</ele>
        <time>2021-06-16T11:00:33Z</time>
      </trkpt>
      <trkpt lat="36.700859" lon="-3.422696">
        <ele>6.135</ele>
        <time>2021-06-16T11:00:35Z</time>
      </trkpt>
      <trkpt lat="36.700863" lon="-3.42313">
        <ele>6.123</ele>
        <time>2021-06-16T11:00:37Z</time>
      </trkpt>
      <trkpt lat="36.700866" lon="-3.423349">
        <ele>6.127</ele>
        <time>2021-06-16T11:00:38Z</time>
      </trkpt>
      <trkpt lat="36.700876" lon="-3.423784">
        <ele>6.166</ele>
        <time>2021-06-16T11:00:40Z</time>
      </trkpt>
      <trkpt lat="36.700886" lon="-3.424229">
        <ele>6.179</ele>
        <time>2021-06-16T11:00:42Z</time>
      </trkpt>
      <trkpt lat="36.70088" lon="-3.424688">
        <ele>6.196</ele>
        <time>2021-06-16T11:00:44Z</time>
      </trkpt>
      <trkpt lat="36.700878" lon="-3.424917">
        <ele>6.563</ele>
        <time>2021-06-16T11:00:45Z</time>
      </trkpt>
      <trkpt lat="36.700877" lon="-3.425368">
        <ele>6.793</ele>
        <time>2021-06-16T11:00:47Z</time>
      </trkpt>
      <trkpt lat="36.700876" lon="-3.425817">
        <ele>6.823</ele>
        <time>2021-06-16T11:00:49Z</time>
      </trkpt>
      <trkpt lat="36.700875" lon="-3.426046">
        <ele>7.083</ele>
        <time>2021-06-16T11:00:50Z</time>
      </trkpt>
      <trkpt lat="36.700875" lon="-3.426498">
        <ele>7.111</ele>
        <time>2021-06-16T11:00:52Z</time>
      </trkpt>
      <trkpt lat="36.700886" lon="-3.426957">
        <ele>7.308</ele>
        <time>2021-06-16T11:00:54Z</time>
      </trkpt>
      <trkpt lat="36.700881" lon="-3.427181">
        <ele>7.319</ele>
        <time>2021-06-16T11:00:55Z</time>
      </trkpt>
      <trkpt lat="36.700877" lon="-3.427405">
        <ele>7.967</ele>
        <time>2021-06-16T11:00:56Z</time>
      </trkpt>
      <trkpt lat="36.70087" lon="-3.427839">
        <ele>8.481</ele>
        <time>2021-06-16T11:00:58Z</time>
      </trkpt>
      <trkpt lat="36.700872" lon="-3.428263">
        <ele>8.530</ele>
        <time>2021-06-16T11:01:00Z</time>
      </trkpt>
      <trkpt lat="36.700881" lon="-3.428671">
        <ele>8.813</ele>
        <time>2021-06-16T11:01:02Z</time>
      </trkpt>
      <trkpt lat="36.700883" lon="-3.428876">
        <ele>8.950</ele>
        <time>2021-06-16T11:01:03Z</time>
      </trkpt>
      <trkpt lat="36.70088" lon="-3.429282">
        <ele>9.257</ele>
        <time>2021-06-16T11:01:05Z</time>
      </trkpt>
      <trkpt lat="36.700878" lon="-3.429492">
        <ele>9.367</ele>
        <time>2021-06-16T11:01:06Z</time>
      </trkpt>
      <trkpt lat="36.700887" lon="-3.429908">
        <ele>9.988</ele>
        <time>2021-06-16T11:01:08Z</time>
      </trkpt>
      <trkpt lat="36.700888" lon="-3.430118">
        <ele>10.024</ele>
        <time>2021-06-16T11:01:09Z</time>
      </trkpt>
      <trkpt lat="36.700891" lon="-3.430331">
        <ele>10.426</ele>
        <time>2021-06-16T11:01:10Z</time>
      </trkpt>
      <trkpt lat="36.700894" lon="-3.43054">
        <ele>10.708</ele>
        <time>2021-06-16T11:01:11Z</time>
      </trkpt>
      <trkpt lat="36.700894" lon="-3.430742">
        <ele>10.585</ele>
        <time>2021-06-16T11:01:12Z</time>
      </trkpt>
      <trkpt lat="36.700894" lon="-3.431153">
        <ele>10.153</ele>
        <time>2021-06-16T11:01:14Z</time>
      </trkpt>
      <trkpt lat="36.70089" lon="-3.43156">
        <ele>9.667</ele>
        <time>2021-06-16T11:01:16Z</time>
      </trkpt>
      <trkpt lat="36.700891" lon="-3.431771">
        <ele>9.396</ele>
        <time>2021-06-16T11:01:17Z</time>
      </trkpt>
      <trkpt lat="36.700891" lon="-3.432168">
        <ele>8.729</ele>
        <time>2021-06-16T11:01:19Z</time>
      </trkpt>
      <trkpt lat="36.700894" lon="-3.432366">
        <ele>8.176</ele>
        <time>2021-06-16T11:01:20Z</time>
      </trkpt>
      <trkpt lat="36.700901" lon="-3.432765">
        <ele>7.623</ele>
        <time>2021-06-16T11:01:22Z</time>
      </trkpt>
      <trkpt lat="36.700901" lon="-3.432966">
        <ele>7.083</ele>
        <time>2021-06-16T11:01:23Z</time>
      </trkpt>
      <trkpt lat="36.700902" lon="-3.43337">
        <ele>7.054</ele>
        <time>2021-06-16T11:01:25Z</time>
      </trkpt>
      <trkpt lat="36.700901" lon="-3.433572">
        <ele>6.856</ele>
        <time>2021-06-16T11:01:26Z</time>
      </trkpt>
      <trkpt lat="36.700901" lon="-3.43377">
        <ele>6.511</ele>
        <time>2021-06-16T11:01:27Z</time>
      </trkpt>
      <trkpt lat="36.700905" lon="-3.43416">
        <ele>6.408</ele>
        <time>2021-06-16T11:01:29Z</time>
      </trkpt>
      <trkpt lat="36.700906" lon="-3.434351">
        <ele>6.292</ele>
        <time>2021-06-16T11:01:30Z</time>
      </trkpt>
      <trkpt lat="36.700907" lon="-3.434716">
        <ele>6.270</ele>
        <time>2021-06-16T11:01:32Z</time>
      </trkpt>
      <trkpt lat="36.700908" lon="-3.43488">
        <ele>6.354</ele>
        <time>2021-06-16T11:01:33Z</time>
      </trkpt>
      <trkpt lat="36.700913" lon="-3.435178">
        <ele>6.413</ele>
        <time>2021-06-16T11:01:35Z</time>
      </trkpt>
      <trkpt lat="36.700912" lon="-3.435312">
        <ele>6.236</ele>
        <time>2021-06-16T11:01:36Z</time>
      </trkpt>
      <trkpt lat="36.700912" lon="-3.435422">
        <ele>6.083</ele>
        <time>2021-06-16T11:01:37Z</time>
      </trkpt>
      <trkpt lat="36.700924" lon="-3.435571">
        <ele>5.910</ele>
        <time>2021-06-16T11:01:39Z</time>
      </trkpt>
      <trkpt lat="36.700939" lon="-3.435662">
        <ele>5.930</ele>
        <time>2021-06-16T11:01:41Z</time>
      </trkpt>
      <trkpt lat="36.700963" lon="-3.435738">
        <ele>5.917</ele>
        <time>2021-06-16T11:01:44Z</time>
      </trkpt>
      <trkpt lat="36.700968" lon="-3.435808">
        <ele>6.187</ele>
        <time>2021-06-16T11:01:46Z</time>
      </trkpt>
      <trkpt lat="36.700964" lon="-3.435914">
        <ele>6.515</ele>
        <time>2021-06-16T11:01:48Z</time>
      </trkpt>
      <trkpt lat="36.700967" lon="-3.435979">
        <ele>6.408</ele>
        <time>2021-06-16T11:01:51Z</time>
      </trkpt>
      <trkpt lat="36.700946" lon="-3.436052">
        <ele>5.578</ele>
        <time>2021-06-16T11:05:43Z</time>
      </trkpt>
      <trkpt lat="36.700921" lon="-3.436162">
        <ele>5.056</ele>
        <time>2021-06-16T11:05:51Z</time>
      </trkpt>
      <trkpt lat="36.700925" lon="-3.436243">
        <ele>4.760</ele>
        <time>2021-06-16T11:05:52Z</time>
      </trkpt>
      <trkpt lat="36.700973" lon="-3.436388">
        <ele>4.589</ele>
        <time>2021-06-16T11:05:54Z</time>
      </trkpt>
      <trkpt lat="36.701003" lon="-3.436562">
        <ele>4.442</ele>
        <time>2021-06-16T11:05:56Z</time>
      </trkpt>
      <trkpt lat="36.700982" lon="-3.436664">
        <ele>4.389</ele>
        <time>2021-06-16T11:05:57Z</time>
      </trkpt>
      <trkpt lat="36.700924" lon="-3.436903">
        <ele>4.276</ele>
        <time>2021-06-16T11:05:59Z</time>
      </trkpt>
      <trkpt lat="36.700917" lon="-3.437197">
        <ele>4.246</ele>
        <time>2021-06-16T11:06:01Z</time>
      </trkpt>
      <trkpt lat="36.700913" lon="-3.437525">
        <ele>4.249</ele>
        <time>2021-06-16T11:06:03Z</time>
      </trkpt>
      <trkpt lat="36.700914" lon="-3.437879">
        <ele>4.202</ele>
        <time>2021-06-16T11:06:05Z</time>
      </trkpt>
      <trkpt lat="36.700916" lon="-3.438065">
        <ele>4.222</ele>
        <time>2021-06-16T11:06:06Z</time>
      </trkpt>
      <trkpt lat="36.700918" lon="-3.438253">
        <ele>4.208</ele>
        <time>2021-06-16T11:06:07Z</time>
      </trkpt>
      <trkpt lat="36.700921" lon="-3.438444">
        <ele>4.261</ele>
        <time>2021-06-16T11:06:08Z</time>
      </trkpt>
      <trkpt lat="36.700922" lon="-3.438639">
        <ele>4.239</ele>
        <time>2021-06-16T11:06:09Z</time>
      </trkpt>
      <trkpt lat="36.700922" lon="-3.438837">
        <ele>4.283</ele>
        <time>2021-06-16T11:06:10Z</time>
      </trkpt>
      <trkpt lat="36.700927" lon="-3.439239">
        <ele>4.282</ele>
        <time>2021-06-16T11:06:12Z</time>
      </trkpt>
      <trkpt lat="36.700927" lon="-3.439441">
        <ele>4.225</ele>
        <time>2021-06-16T11:06:13Z</time>
      </trkpt>
      <trkpt lat="36.700931" lon="-3.439847">
        <ele>4.242</ele>
        <time>2021-06-16T11:06:15Z</time>
      </trkpt>
      <trkpt lat="36.700932" lon="-3.440053">
        <ele>4.289</ele>
        <time>2021-06-16T11:06:16Z</time>
      </trkpt>
      <trkpt lat="36.700933" lon="-3.440258">
        <ele>4.289</ele>
        <time>2021-06-16T11:06:17Z</time>
      </trkpt>
      <trkpt lat="36.700937" lon="-3.440658">
        <ele>4.245</ele>
        <time>2021-06-16T11:06:19Z</time>
      </trkpt>
      <trkpt lat="36.700937" lon="-3.441065">
        <ele>4.247</ele>
        <time>2021-06-16T11:06:21Z</time>
      </trkpt>
      <trkpt lat="36.700935" lon="-3.441271">
        <ele>4.211</ele>
        <time>2021-06-16T11:06:22Z</time>
      </trkpt>
      <trkpt lat="36.700931" lon="-3.441468">
        <ele>4.208</ele>
        <time>2021-06-16T11:06:23Z</time>
      </trkpt>
      <trkpt lat="36.70093" lon="-3.441652">
        <ele>4.231</ele>
        <time>2021-06-16T11:06:24Z</time>
      </trkpt>
      <trkpt lat="36.700928" lon="-3.441822">
        <ele>4.219</ele>
        <time>2021-06-16T11:06:25Z</time>
      </trkpt>
      <trkpt lat="36.700926" lon="-3.442117">
        <ele>4.213</ele>
        <time>2021-06-16T11:06:27Z</time>
      </trkpt>
      <trkpt lat="36.700941" lon="-3.442377">
        <ele>4.292</ele>
        <time>2021-06-16T11:06:29Z</time>
      </trkpt>
      <trkpt lat="36.700955" lon="-3.442494">
        <ele>4.275</ele>
        <time>2021-06-16T11:06:30Z</time>
      </trkpt>
      <trkpt lat="36.700982" lon="-3.442641">
        <ele>4.142</ele>
        <time>2021-06-16T11:06:32Z</time>
      </trkpt>
      <trkpt lat="36.701011" lon="-3.442721">
        <ele>4.099</ele>
        <time>2021-06-16T11:06:37Z</time>
      </trkpt>
      <trkpt lat="36.70103" lon="-3.442833">
        <ele>4.029</ele>
        <time>2021-06-16T11:06:39Z</time>
      </trkpt>
      <trkpt lat="36.701023" lon="-3.442923">
        <ele>4.057</ele>
        <time>2021-06-16T11:06:40Z</time>
      </trkpt>
      <trkpt lat="36.700964" lon="-3.44314">
        <ele>4.000</ele>
        <time>2021-06-16T11:06:42Z</time>
      </trkpt>
      <trkpt lat="36.700927" lon="-3.443401">
        <ele>4.020</ele>
        <time>2021-06-16T11:06:44Z</time>
      </trkpt>
      <trkpt lat="36.700929" lon="-3.443547">
        <ele>4.008</ele>
        <time>2021-06-16T11:06:45Z</time>
      </trkpt>
      <trkpt lat="36.700936" lon="-3.4437">
        <ele>4.032</ele>
        <time>2021-06-16T11:06:46Z</time>
      </trkpt>
      <trkpt lat="36.700941" lon="-3.44386">
        <ele>4.010</ele>
        <time>2021-06-16T11:06:47Z</time>
      </trkpt>
      <trkpt lat="36.700938" lon="-3.444209">
        <ele>4.034</ele>
        <time>2021-06-16T11:06:49Z</time>
      </trkpt>
      <trkpt lat="36.700932" lon="-3.444582">
        <ele>4.053</ele>
        <time>2021-06-16T11:06:51Z</time>
      </trkpt>
      <trkpt lat="36.700933" lon="-3.444775">
        <ele>3.776</ele>
        <time>2021-06-16T11:06:52Z</time>
      </trkpt>
      <trkpt lat="36.700933" lon="-3.444975">
        <ele>3.413</ele>
        <time>2021-06-16T11:06:53Z</time>
      </trkpt>
      <trkpt lat="36.700933" lon="-3.445395">
        <ele>3.460</ele>
        <time>2021-06-16T11:06:55Z</time>
      </trkpt>
      <trkpt lat="36.700936" lon="-3.445836">
        <ele>3.790</ele>
        <time>2021-06-16T11:06:57Z</time>
      </trkpt>
      <trkpt lat="36.700936" lon="-3.446066">
        <ele>3.821</ele>
        <time>2021-06-16T11:06:58Z</time>
      </trkpt>
      <trkpt lat="36.700931" lon="-3.446531">
        <ele>4.141</ele>
        <time>2021-06-16T11:07:00Z</time>
      </trkpt>
      <trkpt lat="36.70093" lon="-3.446767">
        <ele>3.905</ele>
        <time>2021-06-16T11:07:01Z</time>
      </trkpt>
      <trkpt lat="36.70093" lon="-3.447004">
        <ele>3.608</ele>
        <time>2021-06-16T11:07:02Z</time>
      </trkpt>
      <trkpt lat="36.700933" lon="-3.447245">
        <ele>3.599</ele>
        <time>2021-06-16T11:07:03Z</time>
      </trkpt>
      <trkpt lat="36.700937" lon="-3.447727">
        <ele>3.697</ele>
        <time>2021-06-16T11:07:05Z</time>
      </trkpt>
      <trkpt lat="36.700934" lon="-3.448214">
        <ele>3.811</ele>
        <time>2021-06-16T11:07:07Z</time>
      </trkpt>
      <trkpt lat="36.700931" lon="-3.448704">
        <ele>3.720</ele>
        <time>2021-06-16T11:07:09Z</time>
      </trkpt>
      <trkpt lat="36.700935" lon="-3.448948">
        <ele>3.813</ele>
        <time>2021-06-16T11:07:10Z</time>
      </trkpt>
      <trkpt lat="36.700937" lon="-3.449195">
        <ele>3.870</ele>
        <time>2021-06-16T11:07:11Z</time>
      </trkpt>
      <trkpt lat="36.70094" lon="-3.449438">
        <ele>4.577</ele>
        <time>2021-06-16T11:07:12Z</time>
      </trkpt>
      <trkpt lat="36.700942" lon="-3.449917">
        <ele>4.387</ele>
        <time>2021-06-16T11:07:14Z</time>
      </trkpt>
      <trkpt lat="36.70094" lon="-3.450384">
        <ele>4.328</ele>
        <time>2021-06-16T11:07:16Z</time>
      </trkpt>
      <trkpt lat="36.70094" lon="-3.450611">
        <ele>4.289</ele>
        <time>2021-06-16T11:07:17Z</time>
      </trkpt>
      <trkpt lat="36.700938" lon="-3.451047">
        <ele>3.917</ele>
        <time>2021-06-16T11:07:19Z</time>
      </trkpt>
      <trkpt lat="36.700941" lon="-3.451252">
        <ele>3.508</ele>
        <time>2021-06-16T11:07:20Z</time>
      </trkpt>
      <trkpt lat="36.700948" lon="-3.451651">
        <ele>2.859</ele>
        <time>2021-06-16T11:07:22Z</time>
      </trkpt>
      <trkpt lat="36.70095" lon="-3.451839">
        <ele>2.537</ele>
        <time>2021-06-16T11:07:23Z</time>
      </trkpt>
      <trkpt lat="36.70095" lon="-3.452198">
        <ele>2.491</ele>
        <time>2021-06-16T11:07:25Z</time>
      </trkpt>
      <trkpt lat="36.700949" lon="-3.452365">
        <ele>2.630</ele>
        <time>2021-06-16T11:07:26Z</time>
      </trkpt>
      <trkpt lat="36.700956" lon="-3.452659">
        <ele>2.623</ele>
        <time>2021-06-16T11:07:28Z</time>
      </trkpt>
      <trkpt lat="36.70098" lon="-3.452792">
        <ele>2.450</ele>
        <time>2021-06-16T11:07:29Z</time>
      </trkpt>
      <trkpt lat="36.701019" lon="-3.452918">
        <ele>2.597</ele>
        <time>2021-06-16T11:07:30Z</time>
      </trkpt>
      <trkpt lat="36.701044" lon="-3.453041">
        <ele>2.287</ele>
        <time>2021-06-16T11:07:31Z</time>
      </trkpt>
      <trkpt lat="36.701037" lon="-3.45317">
        <ele>2.214</ele>
        <time>2021-06-16T11:07:32Z</time>
      </trkpt>
      <trkpt lat="36.701004" lon="-3.453311">
        <ele>2.054</ele>
        <time>2021-06-16T11:07:33Z</time>
      </trkpt>
      <trkpt lat="36.700947" lon="-3.453631">
        <ele>1.809</ele>
        <time>2021-06-16T11:07:35Z</time>
      </trkpt>
      <trkpt lat="36.700945" lon="-3.453818">
        <ele>1.908</ele>
        <time>2021-06-16T11:07:36Z</time>
      </trkpt>
      <trkpt lat="36.700949" lon="-3.454016">
        <ele>1.868</ele>
        <time>2021-06-16T11:07:37Z</time>
      </trkpt>
      <trkpt lat="36.700947" lon="-3.454434">
        <ele>1.286</ele>
        <time>2021-06-16T11:07:39Z</time>
      </trkpt>
      <trkpt lat="36.700939" lon="-3.454653">
        <ele>0.540</ele>
        <time>2021-06-16T11:07:40Z</time>
      </trkpt>
      <trkpt lat="36.700934" lon="-3.454884">
        <ele>0.639</ele>
        <time>2021-06-16T11:07:41Z</time>
      </trkpt>
      <trkpt lat="36.700944" lon="-3.455373">
        <ele>0.972</ele>
        <time>2021-06-16T11:07:43Z</time>
      </trkpt>
      <trkpt lat="36.700968" lon="-3.455883">
        <ele>1.799</ele>
        <time>2021-06-16T11:07:45Z</time>
      </trkpt>
      <trkpt lat="36.700967" lon="-3.456407">
        <ele>3.066</ele>
        <time>2021-06-16T11:07:47Z</time>
      </trkpt>
      <trkpt lat="36.700959" lon="-3.456657">
        <ele>4.026</ele>
        <time>2021-06-16T11:07:48Z</time>
      </trkpt>
      <trkpt lat="36.700907" lon="-3.457155">
        <ele>5.519</ele>
        <time>2021-06-16T11:07:50Z</time>
      </trkpt>
      <trkpt lat="36.700777" lon="-3.457645">
        <ele>7.409</ele>
        <time>2021-06-16T11:07:52Z</time>
      </trkpt>
      <trkpt lat="36.700582" lon="-3.458093">
        <ele>9.419</ele>
        <time>2021-06-16T11:07:54Z</time>
      </trkpt>
      <trkpt lat="36.700318" lon="-3.458483">
        <ele>11.608</ele>
        <time>2021-06-16T11:07:56Z</time>
      </trkpt>
      <trkpt lat="36.699999" lon="-3.458818">
        <ele>13.588</ele>
        <time>2021-06-16T11:07:58Z</time>
      </trkpt>
      <trkpt lat="36.699826" lon="-3.458964">
        <ele>14.596</ele>
        <time>2021-06-16T11:07:59Z</time>
      </trkpt>
      <trkpt lat="36.699653" lon="-3.459093">
        <ele>15.540</ele>
        <time>2021-06-16T11:08:00Z</time>
      </trkpt>
      <trkpt lat="36.699301" lon="-3.459311">
        <ele>17.149</ele>
        <time>2021-06-16T11:08:02Z</time>
      </trkpt>
      <trkpt lat="36.698957" lon="-3.459539">
        <ele>18.542</ele>
        <time>2021-06-16T11:08:04Z</time>
      </trkpt>
      <trkpt lat="36.698659" lon="-3.459847">
        <ele>20.119</ele>
        <time>2021-06-16T11:08:06Z</time>
      </trkpt>
      <trkpt lat="36.698416" lon="-3.460226">
        <ele>21.966</ele>
        <time>2021-06-16T11:08:08Z</time>
      </trkpt>
      <trkpt lat="36.698224" lon="-3.460656">
        <ele>23.136</ele>
        <time>2021-06-16T11:08:10Z</time>
      </trkpt>
      <trkpt lat="36.698135" lon="-3.460875">
        <ele>24.259</ele>
        <time>2021-06-16T11:08:11Z</time>
      </trkpt>
      <trkpt lat="36.697971" lon="-3.461321">
        <ele>25.603</ele>
        <time>2021-06-16T11:08:13Z</time>
      </trkpt>
      <trkpt lat="36.697878" lon="-3.461543">
        <ele>26.823</ele>
        <time>2021-06-16T11:08:14Z</time>
      </trkpt>
      <trkpt lat="36.697646" lon="-3.461954">
        <ele>28.608</ele>
        <time>2021-06-16T11:08:16Z</time>
      </trkpt>
      <trkpt lat="36.69736" lon="-3.462325">
        <ele>30.462</ele>
        <time>2021-06-16T11:08:18Z</time>
      </trkpt>
      <trkpt lat="36.697207" lon="-3.462501">
        <ele>31.980</ele>
        <time>2021-06-16T11:08:19Z</time>
      </trkpt>
      <trkpt lat="36.696898" lon="-3.462845">
        <ele>33.614</ele>
        <time>2021-06-16T11:08:21Z</time>
      </trkpt>
      <trkpt lat="36.696747" lon="-3.463021">
        <ele>34.923</ele>
        <time>2021-06-16T11:08:22Z</time>
      </trkpt>
      <trkpt lat="36.696595" lon="-3.463192">
        <ele>36.216</ele>
        <time>2021-06-16T11:08:23Z</time>
      </trkpt>
      <trkpt lat="36.696308" lon="-3.463521">
        <ele>37.783</ele>
        <time>2021-06-16T11:08:25Z</time>
      </trkpt>
      <trkpt lat="36.696059" lon="-3.463866">
        <ele>39.240</ele>
        <time>2021-06-16T11:08:27Z</time>
      </trkpt>
      <trkpt lat="36.695956" lon="-3.464054">
        <ele>40.170</ele>
        <time>2021-06-16T11:08:28Z</time>
      </trkpt>
      <trkpt lat="36.695793" lon="-3.464466">
        <ele>41.314</ele>
        <time>2021-06-16T11:08:30Z</time>
      </trkpt>
      <trkpt lat="36.695647" lon="-3.464903">
        <ele>42.254</ele>
        <time>2021-06-16T11:08:32Z</time>
      </trkpt>
      <trkpt lat="36.695456" lon="-3.467224">
        <ele>44.509</ele>
        <time>2021-06-16T11:08:43Z</time>
      </trkpt>
      <trkpt lat="36.695466" lon="-3.467436">
        <ele>46.608</ele>
        <time>2021-06-16T11:08:44Z</time>
      </trkpt>
      <trkpt lat="36.695516" lon="-3.467858">
        <ele>48.988</ele>
        <time>2021-06-16T11:08:46Z</time>
      </trkpt>
      <trkpt lat="36.695554" lon="-3.46807">
        <ele>50.166</ele>
        <time>2021-06-16T11:08:47Z</time>
      </trkpt>
      <trkpt lat="36.695602" lon="-3.468278">
        <ele>50.790</ele>
        <time>2021-06-16T11:08:48Z</time>
      </trkpt>
      <trkpt lat="36.695742" lon="-3.468679">
        <ele>51.419</ele>
        <time>2021-06-16T11:08:50Z</time>
      </trkpt>
      <trkpt lat="36.695912" lon="-3.469064">
        <ele>51.882</ele>
        <time>2021-06-16T11:08:52Z</time>
      </trkpt>
      <trkpt lat="36.696137" lon="-3.46942">
        <ele>52.439</ele>
        <time>2021-06-16T11:08:54Z</time>
      </trkpt>
      <trkpt lat="36.696265" lon="-3.469596">
        <ele>52.246</ele>
        <time>2021-06-16T11:08:55Z</time>
      </trkpt>
      <trkpt lat="36.696394" lon="-3.469777">
        <ele>52.136</ele>
        <time>2021-06-16T11:08:56Z</time>
      </trkpt>
      <trkpt lat="36.696638" lon="-3.470154">
        <ele>52.285</ele>
        <time>2021-06-16T11:08:58Z</time>
      </trkpt>
      <trkpt lat="36.696888" lon="-3.470517">
        <ele>52.289</ele>
        <time>2021-06-16T11:09:00Z</time>
      </trkpt>
      <trkpt lat="36.697132" lon="-3.470909">
        <ele>51.817</ele>
        <time>2021-06-16T11:09:02Z</time>
      </trkpt>
      <trkpt lat="36.697256" lon="-3.471106">
        <ele>51.308</ele>
        <time>2021-06-16T11:09:03Z</time>
      </trkpt>
      <trkpt lat="36.697507" lon="-3.471504">
        <ele>51.335</ele>
        <time>2021-06-16T11:09:05Z</time>
      </trkpt>
      <trkpt lat="36.697751" lon="-3.471912">
        <ele>50.533</ele>
        <time>2021-06-16T11:09:07Z</time>
      </trkpt>
      <trkpt lat="36.697872" lon="-3.472126">
        <ele>49.887</ele>
        <time>2021-06-16T11:09:08Z</time>
      </trkpt>
      <trkpt lat="36.698099" lon="-3.472561">
        <ele>48.656</ele>
        <time>2021-06-16T11:09:10Z</time>
      </trkpt>
      <trkpt lat="36.698209" lon="-3.472774">
        <ele>47.619</ele>
        <time>2021-06-16T11:09:11Z</time>
      </trkpt>
      <trkpt lat="36.698408" lon="-3.473196">
        <ele>46.676</ele>
        <time>2021-06-16T11:09:13Z</time>
      </trkpt>
      <trkpt lat="36.698578" lon="-3.473623">
        <ele>45.593</ele>
        <time>2021-06-16T11:09:15Z</time>
      </trkpt>
      <trkpt lat="36.698719" lon="-3.474073">
        <ele>44.573</ele>
        <time>2021-06-16T11:09:17Z</time>
      </trkpt>
      <trkpt lat="36.69883" lon="-3.474535">
        <ele>43.271</ele>
        <time>2021-06-16T11:09:19Z</time>
      </trkpt>
      <trkpt lat="36.698913" lon="-3.47499">
        <ele>41.441</ele>
        <time>2021-06-16T11:09:21Z</time>
      </trkpt>
      <trkpt lat="36.698983" lon="-3.475413">
        <ele>39.315</ele>
        <time>2021-06-16T11:09:23Z</time>
      </trkpt>
      <trkpt lat="36.699011" lon="-3.475775">
        <ele>37.108</ele>
        <time>2021-06-16T11:09:25Z</time>
      </trkpt>
      <trkpt lat="36.699019" lon="-3.475958">
        <ele>35.734</ele>
        <time>2021-06-16T11:09:26Z</time>
      </trkpt>
      <trkpt lat="36.699034" lon="-3.47633">
        <ele>34.562</ele>
        <time>2021-06-16T11:09:28Z</time>
      </trkpt>
      <trkpt lat="36.699053" lon="-3.4767">
        <ele>32.666</ele>
        <time>2021-06-16T11:09:30Z</time>
      </trkpt>
      <trkpt lat="36.699074" lon="-3.477072">
        <ele>30.135</ele>
        <time>2021-06-16T11:09:32Z</time>
      </trkpt>
      <trkpt lat="36.699091" lon="-3.477434">
        <ele>27.748</ele>
        <time>2021-06-16T11:09:34Z</time>
      </trkpt>
      <trkpt lat="36.699096" lon="-3.477619">
        <ele>25.685</ele>
        <time>2021-06-16T11:09:35Z</time>
      </trkpt>
      <trkpt lat="36.699103" lon="-3.477806">
        <ele>24.082</ele>
        <time>2021-06-16T11:09:36Z</time>
      </trkpt>
      <trkpt lat="36.699111" lon="-3.477992">
        <ele>22.832</ele>
        <time>2021-06-16T11:09:37Z</time>
      </trkpt>
      <trkpt lat="36.699132" lon="-3.478354">
        <ele>21.179</ele>
        <time>2021-06-16T11:09:39Z</time>
      </trkpt>
      <trkpt lat="36.699148" lon="-3.478537">
        <ele>19.905</ele>
        <time>2021-06-16T11:09:40Z</time>
      </trkpt>
      <trkpt lat="36.699163" lon="-3.478717">
        <ele>19.125</ele>
        <time>2021-06-16T11:09:41Z</time>
      </trkpt>
      <trkpt lat="36.699182" lon="-3.479055">
        <ele>17.408</ele>
        <time>2021-06-16T11:09:43Z</time>
      </trkpt>
      <trkpt lat="36.69919" lon="-3.479214">
        <ele>15.844</ele>
        <time>2021-06-16T11:09:44Z</time>
      </trkpt>
      <trkpt lat="36.699201" lon="-3.479361">
        <ele>14.652</ele>
        <time>2021-06-16T11:09:45Z</time>
      </trkpt>
      <trkpt lat="36.699235" lon="-3.479646">
        <ele>13.396</ele>
        <time>2021-06-16T11:09:47Z</time>
      </trkpt>
      <trkpt lat="36.699251" lon="-3.479782">
        <ele>12.545</ele>
        <time>2021-06-16T11:09:48Z</time>
      </trkpt>
      <trkpt lat="36.699311" lon="-3.480025">
        <ele>11.628</ele>
        <time>2021-06-16T11:09:50Z</time>
      </trkpt>
      <trkpt lat="36.699374" lon="-3.480111">
        <ele>11.315</ele>
        <time>2021-06-16T11:09:51Z</time>
      </trkpt>
      <trkpt lat="36.699496" lon="-3.480266">
        <ele>10.672</ele>
        <time>2021-06-16T11:09:53Z</time>
      </trkpt>
      <trkpt lat="36.699531" lon="-3.48036">
        <ele>10.182</ele>
        <time>2021-06-16T11:09:54Z</time>
      </trkpt>
      <trkpt lat="36.699528" lon="-3.480461">
        <ele>9.538</ele>
        <time>2021-06-16T11:09:55Z</time>
      </trkpt>
      <trkpt lat="36.699498" lon="-3.480683">
        <ele>8.670</ele>
        <time>2021-06-16T11:09:57Z</time>
      </trkpt>
      <trkpt lat="36.699512" lon="-3.480793">
        <ele>7.917</ele>
        <time>2021-06-16T11:09:58Z</time>
      </trkpt>
      <trkpt lat="36.699575" lon="-3.481022">
        <ele>7.208</ele>
        <time>2021-06-16T11:10:00Z</time>
      </trkpt>
      <trkpt lat="36.699672" lon="-3.481261">
        <ele>6.780</ele>
        <time>2021-06-16T11:10:02Z</time>
      </trkpt>
      <trkpt lat="36.699749" lon="-3.48151">
        <ele>6.868</ele>
        <time>2021-06-16T11:10:04Z</time>
      </trkpt>
      <trkpt lat="36.699786" lon="-3.481634">
        <ele>6.772</ele>
        <time>2021-06-16T11:10:05Z</time>
      </trkpt>
      <trkpt lat="36.699817" lon="-3.481759">
        <ele>6.541</ele>
        <time>2021-06-16T11:10:06Z</time>
      </trkpt>
      <trkpt lat="36.699875" lon="-3.481999">
        <ele>6.294</ele>
        <time>2021-06-16T11:10:08Z</time>
      </trkpt>
      <trkpt lat="36.699923" lon="-3.48217">
        <ele>6.071</ele>
        <time>2021-06-16T11:10:10Z</time>
      </trkpt>
      <trkpt lat="36.699954" lon="-3.482283">
        <ele>5.878</ele>
        <time>2021-06-16T11:10:12Z</time>
      </trkpt>
      <trkpt lat="36.699984" lon="-3.482344">
        <ele>5.998</ele>
        <time>2021-06-16T11:10:14Z</time>
      </trkpt>
      <trkpt lat="36.700007" lon="-3.482416">
        <ele>5.473</ele>
        <time>2021-06-16T11:10:16Z</time>
      </trkpt>
      <trkpt lat="36.700059" lon="-3.482439">
        <ele>6.585</ele>
        <time>2021-06-16T11:10:35Z</time>
      </trkpt>
      <trkpt lat="36.7001" lon="-3.482471">
        <ele>7.213</ele>
        <time>2021-06-16T11:10:42Z</time>
      </trkpt>
      <trkpt lat="36.700138" lon="-3.482596">
        <ele>7.608</ele>
        <time>2021-06-16T11:10:44Z</time>
      </trkpt>
      <trkpt lat="36.700159" lon="-3.482685">
        <ele>7.974</ele>
        <time>2021-06-16T11:10:45Z</time>
      </trkpt>
      <trkpt lat="36.700214" lon="-3.482882">
        <ele>8.172</ele>
        <time>2021-06-16T11:10:47Z</time>
      </trkpt>
      <trkpt lat="36.700246" lon="-3.482981">
        <ele>8.226</ele>
        <time>2021-06-16T11:10:48Z</time>
      </trkpt>
      <trkpt lat="36.700309" lon="-3.483197">
        <ele>8.365</ele>
        <time>2021-06-16T11:10:50Z</time>
      </trkpt>
      <trkpt lat="36.700378" lon="-3.483427">
        <ele>8.328</ele>
        <time>2021-06-16T11:10:52Z</time>
      </trkpt>
      <trkpt lat="36.700422" lon="-3.48355">
        <ele>8.335</ele>
        <time>2021-06-16T11:10:53Z</time>
      </trkpt>
      <trkpt lat="36.700463" lon="-3.483669">
        <ele>8.322</ele>
        <time>2021-06-16T11:10:54Z</time>
      </trkpt>
      <trkpt lat="36.700506" lon="-3.483785">
        <ele>8.352</ele>
        <time>2021-06-16T11:10:55Z</time>
      </trkpt>
      <trkpt lat="36.700605" lon="-3.484024">
        <ele>8.376</ele>
        <time>2021-06-16T11:10:57Z</time>
      </trkpt>
      <trkpt lat="36.700658" lon="-3.484153">
        <ele>8.390</ele>
        <time>2021-06-16T11:10:58Z</time>
      </trkpt>
      <trkpt lat="36.700785" lon="-3.484406">
        <ele>8.319</ele>
        <time>2021-06-16T11:11:00Z</time>
      </trkpt>
      <trkpt lat="36.700855" lon="-3.484528">
        <ele>8.308</ele>
        <time>2021-06-16T11:11:01Z</time>
      </trkpt>
      <trkpt lat="36.700926" lon="-3.484655">
        <ele>8.354</ele>
        <time>2021-06-16T11:11:02Z</time>
      </trkpt>
      <trkpt lat="36.701101" lon="-3.484881">
        <ele>8.352</ele>
        <time>2021-06-16T11:11:04Z</time>
      </trkpt>
      <trkpt lat="36.701261" lon="-3.485115">
        <ele>8.366</ele>
        <time>2021-06-16T11:11:06Z</time>
      </trkpt>
      <trkpt lat="36.701403" lon="-3.485355">
        <ele>8.365</ele>
        <time>2021-06-16T11:11:08Z</time>
      </trkpt>
      <trkpt lat="36.701546" lon="-3.485599">
        <ele>8.398</ele>
        <time>2021-06-16T11:11:10Z</time>
      </trkpt>
      <trkpt lat="36.701614" lon="-3.485727">
        <ele>8.355</ele>
        <time>2021-06-16T11:11:11Z</time>
      </trkpt>
      <trkpt lat="36.701682" lon="-3.485852">
        <ele>8.342</ele>
        <time>2021-06-16T11:11:12Z</time>
      </trkpt>
      <trkpt lat="36.701821" lon="-3.486091">
        <ele>8.392</ele>
        <time>2021-06-16T11:11:14Z</time>
      </trkpt>
      <trkpt lat="36.701959" lon="-3.486327">
        <ele>8.394</ele>
        <time>2021-06-16T11:11:16Z</time>
      </trkpt>
      <trkpt lat="36.702092" lon="-3.486572">
        <ele>8.357</ele>
        <time>2021-06-16T11:11:18Z</time>
      </trkpt>
      <trkpt lat="36.70223" lon="-3.486792">
        <ele>8.322</ele>
        <time>2021-06-16T11:11:20Z</time>
      </trkpt>
      <trkpt lat="36.702304" lon="-3.486903">
        <ele>8.308</ele>
        <time>2021-06-16T11:11:21Z</time>
      </trkpt>
      <trkpt lat="36.702374" lon="-3.487018">
        <ele>8.396</ele>
        <time>2021-06-16T11:11:22Z</time>
      </trkpt>
      <trkpt lat="36.702443" lon="-3.48713">
        <ele>8.394</ele>
        <time>2021-06-16T11:11:23Z</time>
      </trkpt>
      <trkpt lat="36.70259" lon="-3.487354">
        <ele>8.318</ele>
        <time>2021-06-16T11:11:25Z</time>
      </trkpt>
      <trkpt lat="36.702762" lon="-3.487548">
        <ele>8.397</ele>
        <time>2021-06-16T11:11:27Z</time>
      </trkpt>
      <trkpt lat="36.702854" lon="-3.487636">
        <ele>8.330</ele>
        <time>2021-06-16T11:11:28Z</time>
      </trkpt>
      <trkpt lat="36.702949" lon="-3.487714">
        <ele>8.347</ele>
        <time>2021-06-16T11:11:29Z</time>
      </trkpt>
      <trkpt lat="36.703141" lon="-3.487867">
        <ele>8.324</ele>
        <time>2021-06-16T11:11:31Z</time>
      </trkpt>
      <trkpt lat="36.703243" lon="-3.487946">
        <ele>8.354</ele>
        <time>2021-06-16T11:11:32Z</time>
      </trkpt>
      <trkpt lat="36.703451" lon="-3.48809">
        <ele>8.355</ele>
        <time>2021-06-16T11:11:34Z</time>
      </trkpt>
      <trkpt lat="36.703631" lon="-3.488258">
        <ele>8.307</ele>
        <time>2021-06-16T11:11:36Z</time>
      </trkpt>
      <trkpt lat="36.703719" lon="-3.488358">
        <ele>8.317</ele>
        <time>2021-06-16T11:11:37Z</time>
      </trkpt>
      <trkpt lat="36.703879" lon="-3.488573">
        <ele>8.308</ele>
        <time>2021-06-16T11:11:39Z</time>
      </trkpt>
      <trkpt lat="36.703956" lon="-3.488686">
        <ele>6.332</ele>
        <time>2021-06-16T11:11:40Z</time>
      </trkpt>
      <trkpt lat="36.704114" lon="-3.488922">
        <ele>5.420</ele>
        <time>2021-06-16T11:11:42Z</time>
      </trkpt>
      <trkpt lat="36.704234" lon="-3.489147">
        <ele>4.724</ele>
        <time>2021-06-16T11:11:44Z</time>
      </trkpt>
      <trkpt lat="36.704292" lon="-3.489251">
        <ele>4.443</ele>
        <time>2021-06-16T11:11:45Z</time>
      </trkpt>
      <trkpt lat="36.704408" lon="-3.489439">
        <ele>4.446</ele>
        <time>2021-06-16T11:11:47Z</time>
      </trkpt>
      <trkpt lat="36.704461" lon="-3.489538">
        <ele>4.973</ele>
        <time>2021-06-16T11:11:48Z</time>
      </trkpt>
      <trkpt lat="36.704568" lon="-3.489738">
        <ele>4.870</ele>
        <time>2021-06-16T11:11:50Z</time>
      </trkpt>
      <trkpt lat="36.704679" lon="-3.48993">
        <ele>4.430</ele>
        <time>2021-06-16T11:11:52Z</time>
      </trkpt>
      <trkpt lat="36.704734" lon="-3.49003">
        <ele>4.272</ele>
        <time>2021-06-16T11:11:53Z</time>
      </trkpt>
      <trkpt lat="36.704847" lon="-3.490218">
        <ele>4.013</ele>
        <time>2021-06-16T11:11:55Z</time>
      </trkpt>
      <trkpt lat="36.704951" lon="-3.490393">
        <ele>3.614</ele>
        <time>2021-06-16T11:11:57Z</time>
      </trkpt>
      <trkpt lat="36.704993" lon="-3.490479">
        <ele>3.508</ele>
        <time>2021-06-16T11:11:58Z</time>
      </trkpt>
      <trkpt lat="36.705036" lon="-3.490566">
        <ele>3.154</ele>
        <time>2021-06-16T11:11:59Z</time>
      </trkpt>
      <trkpt lat="36.705123" lon="-3.490716">
        <ele>3.782</ele>
        <time>2021-06-16T11:12:01Z</time>
      </trkpt>
      <trkpt lat="36.70516" lon="-3.4908">
        <ele>4.466</ele>
        <time>2021-06-16T11:12:02Z</time>
      </trkpt>
      <trkpt lat="36.705245" lon="-3.490964">
        <ele>5.165</ele>
        <time>2021-06-16T11:12:04Z</time>
      </trkpt>
      <trkpt lat="36.705338" lon="-3.491137">
        <ele>5.498</ele>
        <time>2021-06-16T11:12:06Z</time>
      </trkpt>
      <trkpt lat="36.705392" lon="-3.49121">
        <ele>4.965</ele>
        <time>2021-06-16T11:12:07Z</time>
      </trkpt>
      <trkpt lat="36.705442" lon="-3.491274">
        <ele>4.342</ele>
        <time>2021-06-16T11:12:08Z</time>
      </trkpt>
      <trkpt lat="36.705538" lon="-3.491398">
        <ele>3.882</ele>
        <time>2021-06-16T11:12:10Z</time>
      </trkpt>
      <trkpt lat="36.705566" lon="-3.491457">
        <ele>2.869</ele>
        <time>2021-06-16T11:12:11Z</time>
      </trkpt>
      <trkpt lat="36.705593" lon="-3.491511">
        <ele>2.004</ele>
        <time>2021-06-16T11:12:12Z</time>
      </trkpt>
      <trkpt lat="36.705634" lon="-3.491572">
        <ele>1.924</ele>
        <time>2021-06-16T11:12:14Z</time>
      </trkpt>
      <trkpt lat="36.705666" lon="-3.491614">
        <ele>2.708</ele>
        <time>2021-06-16T11:12:16Z</time>
      </trkpt>
      <trkpt lat="36.705636" lon="-3.491657">
        <ele>4.343</ele>
        <time>2021-06-16T11:12:30Z</time>
      </trkpt>
      <trkpt lat="36.705689" lon="-3.491715">
        <ele>5.241</ele>
        <time>2021-06-16T11:12:40Z</time>
      </trkpt>
      <trkpt lat="36.705722" lon="-3.49176">
        <ele>5.765</ele>
        <time>2021-06-16T11:12:41Z</time>
      </trkpt>
      <trkpt lat="36.705815" lon="-3.491866">
        <ele>6.054</ele>
        <time>2021-06-16T11:12:43Z</time>
      </trkpt>
      <trkpt lat="36.705914" lon="-3.491982">
        <ele>6.277</ele>
        <time>2021-06-16T11:12:45Z</time>
      </trkpt>
      <trkpt lat="36.705956" lon="-3.492036">
        <ele>6.364</ele>
        <time>2021-06-16T11:12:46Z</time>
      </trkpt>
      <trkpt lat="36.706036" lon="-3.492158">
        <ele>6.471</ele>
        <time>2021-06-16T11:12:48Z</time>
      </trkpt>
      <trkpt lat="36.706087" lon="-3.492212">
        <ele>6.481</ele>
        <time>2021-06-16T11:12:49Z</time>
      </trkpt>
      <trkpt lat="36.706213" lon="-3.492303">
        <ele>6.596</ele>
        <time>2021-06-16T11:12:51Z</time>
      </trkpt>
      <trkpt lat="36.706359" lon="-3.492372">
        <ele>6.531</ele>
        <time>2021-06-16T11:12:53Z</time>
      </trkpt>
      <trkpt lat="36.706519" lon="-3.492424">
        <ele>6.524</ele>
        <time>2021-06-16T11:12:55Z</time>
      </trkpt>
      <trkpt lat="36.706615" lon="-3.492434">
        <ele>6.508</ele>
        <time>2021-06-16T11:12:56Z</time>
      </trkpt>
      <trkpt lat="36.706712" lon="-3.492436">
        <ele>6.596</ele>
        <time>2021-06-16T11:12:57Z</time>
      </trkpt>
      <trkpt lat="36.706919" lon="-3.492421">
        <ele>6.564</ele>
        <time>2021-06-16T11:12:59Z</time>
      </trkpt>
      <trkpt lat="36.707032" lon="-3.492407">
        <ele>6.548</ele>
        <time>2021-06-16T11:13:00Z</time>
      </trkpt>
      <trkpt lat="36.707248" lon="-3.492375">
        <ele>6.567</ele>
        <time>2021-06-16T11:13:02Z</time>
      </trkpt>
      <trkpt lat="36.707454" lon="-3.492353">
        <ele>6.550</ele>
        <time>2021-06-16T11:13:04Z</time>
      </trkpt>
      <trkpt lat="36.707555" lon="-3.49234">
        <ele>6.567</ele>
        <time>2021-06-16T11:13:05Z</time>
      </trkpt>
      <trkpt lat="36.707649" lon="-3.49233">
        <ele>6.524</ele>
        <time>2021-06-16T11:13:06Z</time>
      </trkpt>
      <trkpt lat="36.707789" lon="-3.492317">
        <ele>6.524</ele>
        <time>2021-06-16T11:13:08Z</time>
      </trkpt>
      <trkpt lat="36.707862" lon="-3.492301">
        <ele>6.572</ele>
        <time>2021-06-16T11:13:10Z</time>
      </trkpt>
      <trkpt lat="36.70789" lon="-3.492252">
        <ele>6.613</ele>
        <time>2021-06-16T11:13:30Z</time>
      </trkpt>
      <trkpt lat="36.707959" lon="-3.492246">
        <ele>6.714</ele>
        <time>2021-06-16T11:13:37Z</time>
      </trkpt>
      <trkpt lat="36.70808" lon="-3.492235">
        <ele>6.808</ele>
        <time>2021-06-16T11:13:39Z</time>
      </trkpt>
      <trkpt lat="36.708161" lon="-3.492229">
        <ele>6.884</ele>
        <time>2021-06-16T11:13:40Z</time>
      </trkpt>
      <trkpt lat="36.70832" lon="-3.492219">
        <ele>6.872</ele>
        <time>2021-06-16T11:13:42Z</time>
      </trkpt>
      <trkpt lat="36.708394" lon="-3.492216">
        <ele>6.886</ele>
        <time>2021-06-16T11:13:43Z</time>
      </trkpt>
      <trkpt lat="36.70855" lon="-3.492216">
        <ele>6.875</ele>
        <time>2021-06-16T11:13:45Z</time>
      </trkpt>
      <trkpt lat="36.708724" lon="-3.492225">
        <ele>6.898</ele>
        <time>2021-06-16T11:13:47Z</time>
      </trkpt>
      <trkpt lat="36.70882" lon="-3.492232">
        <ele>6.885</ele>
        <time>2021-06-16T11:13:48Z</time>
      </trkpt>
      <trkpt lat="36.709032" lon="-3.492263">
        <ele>6.852</ele>
        <time>2021-06-16T11:13:50Z</time>
      </trkpt>
      <trkpt lat="36.709262" lon="-3.492315">
        <ele>6.822</ele>
        <time>2021-06-16T11:13:52Z</time>
      </trkpt>
      <trkpt lat="36.709382" lon="-3.492343">
        <ele>6.896</ele>
        <time>2021-06-16T11:13:53Z</time>
      </trkpt>
      <trkpt lat="36.709622" lon="-3.492414">
        <ele>6.831</ele>
        <time>2021-06-16T11:13:55Z</time>
      </trkpt>
      <trkpt lat="36.709859" lon="-3.492503">
        <ele>6.824</ele>
        <time>2021-06-16T11:13:57Z</time>
      </trkpt>
      <trkpt lat="36.709983" lon="-3.492552">
        <ele>6.808</ele>
        <time>2021-06-16T11:13:58Z</time>
      </trkpt>
      <trkpt lat="36.710227" lon="-3.492663">
        <ele>6.826</ele>
        <time>2021-06-16T11:14:00Z</time>
      </trkpt>
      <trkpt lat="36.710351" lon="-3.492724">
        <ele>6.834</ele>
        <time>2021-06-16T11:14:01Z</time>
      </trkpt>
      <trkpt lat="36.710601" lon="-3.492867">
        <ele>6.828</ele>
        <time>2021-06-16T11:14:03Z</time>
      </trkpt>
      <trkpt lat="36.710851" lon="-3.493044">
        <ele>6.867</ele>
        <time>2021-06-16T11:14:05Z</time>
      </trkpt>
      <trkpt lat="36.710977" lon="-3.493138">
        <ele>6.890</ele>
        <time>2021-06-16T11:14:06Z</time>
      </trkpt>
      <trkpt lat="36.711233" lon="-3.493332">
        <ele>6.877</ele>
        <time>2021-06-16T11:14:08Z</time>
      </trkpt>
      <trkpt lat="36.711364" lon="-3.493427">
        <ele>6.874</ele>
        <time>2021-06-16T11:14:09Z</time>
      </trkpt>
      <trkpt lat="36.711624" lon="-3.493606">
        <ele>6.874</ele>
        <time>2021-06-16T11:14:11Z</time>
      </trkpt>
      <trkpt lat="36.711872" lon="-3.493782">
        <ele>6.871</ele>
        <time>2021-06-16T11:14:13Z</time>
      </trkpt>
      <trkpt lat="36.712115" lon="-3.49396">
        <ele>6.841</ele>
        <time>2021-06-16T11:14:15Z</time>
      </trkpt>
      <trkpt lat="36.712355" lon="-3.494136">
        <ele>6.815</ele>
        <time>2021-06-16T11:14:17Z</time>
      </trkpt>
      <trkpt lat="36.712472" lon="-3.494225">
        <ele>6.808</ele>
        <time>2021-06-16T11:14:18Z</time>
      </trkpt>
      <trkpt lat="36.712714" lon="-3.494398">
        <ele>6.864</ele>
        <time>2021-06-16T11:14:20Z</time>
      </trkpt>
      <trkpt lat="36.712839" lon="-3.494485">
        <ele>6.822</ele>
        <time>2021-06-16T11:14:21Z</time>
      </trkpt>
      <trkpt lat="36.713097" lon="-3.494659">
        <ele>6.836</ele>
        <time>2021-06-16T11:14:23Z</time>
      </trkpt>
      <trkpt lat="36.713356" lon="-3.494838">
        <ele>6.855</ele>
        <time>2021-06-16T11:14:25Z</time>
      </trkpt>
      <trkpt lat="36.713487" lon="-3.494928">
        <ele>6.838</ele>
        <time>2021-06-16T11:14:26Z</time>
      </trkpt>
      <trkpt lat="36.713616" lon="-3.495018">
        <ele>6.865</ele>
        <time>2021-06-16T11:14:27Z</time>
      </trkpt>
      <trkpt lat="36.713875" lon="-3.495209">
        <ele>6.832</ele>
        <time>2021-06-16T11:14:29Z</time>
      </trkpt>
      <trkpt lat="36.714132" lon="-3.495404">
        <ele>6.892</ele>
        <time>2021-06-16T11:14:31Z</time>
      </trkpt>
      <trkpt lat="36.714263" lon="-3.495501">
        <ele>6.897</ele>
        <time>2021-06-16T11:14:32Z</time>
      </trkpt>
      <trkpt lat="36.714537" lon="-3.495691">
        <ele>6.823</ele>
        <time>2021-06-16T11:14:34Z</time>
      </trkpt>
      <trkpt lat="36.714672" lon="-3.495787">
        <ele>6.825</ele>
        <time>2021-06-16T11:14:35Z</time>
      </trkpt>
      <trkpt lat="36.714934" lon="-3.495989">
        <ele>10.108</ele>
        <time>2021-06-16T11:14:37Z</time>
      </trkpt>
      <trkpt lat="36.715061" lon="-3.496096">
        <ele>12.416</ele>
        <time>2021-06-16T11:14:38Z</time>
      </trkpt>
      <trkpt lat="36.715317" lon="-3.496322">
        <ele>14.194</ele>
        <time>2021-06-16T11:14:40Z</time>
      </trkpt>
      <trkpt lat="36.71557" lon="-3.496553">
        <ele>15.088</ele>
        <time>2021-06-16T11:14:42Z</time>
      </trkpt>
      <trkpt lat="36.715687" lon="-3.49667">
        <ele>15.057</ele>
        <time>2021-06-16T11:14:43Z</time>
      </trkpt>
      <trkpt lat="36.715799" lon="-3.496787">
        <ele>15.360</ele>
        <time>2021-06-16T11:14:44Z</time>
      </trkpt>
      <trkpt lat="36.715912" lon="-3.496904">
        <ele>15.617</ele>
        <time>2021-06-16T11:14:45Z</time>
      </trkpt>
      <trkpt lat="36.716028" lon="-3.497024">
        <ele>15.644</ele>
        <time>2021-06-16T11:14:46Z</time>
      </trkpt>
      <trkpt lat="36.716258" lon="-3.497267">
        <ele>15.594</ele>
        <time>2021-06-16T11:14:48Z</time>
      </trkpt>
      <trkpt lat="36.716377" lon="-3.497389">
        <ele>15.335</ele>
        <time>2021-06-16T11:14:49Z</time>
      </trkpt>
      <trkpt lat="36.716616" lon="-3.497641">
        <ele>14.886</ele>
        <time>2021-06-16T11:14:51Z</time>
      </trkpt>
      <trkpt lat="36.716868" lon="-3.497887">
        <ele>15.214</ele>
        <time>2021-06-16T11:14:53Z</time>
      </trkpt>
      <trkpt lat="36.716996" lon="-3.498003">
        <ele>15.608</ele>
        <time>2021-06-16T11:14:54Z</time>
      </trkpt>
      <trkpt lat="36.717281" lon="-3.498203">
        <ele>15.640</ele>
        <time>2021-06-16T11:14:56Z</time>
      </trkpt>
      <trkpt lat="36.71743" lon="-3.49829">
        <ele>15.358</ele>
        <time>2021-06-16T11:14:57Z</time>
      </trkpt>
      <trkpt lat="36.717581" lon="-3.498365">
        <ele>15.562</ele>
        <time>2021-06-16T11:14:58Z</time>
      </trkpt>
      <trkpt lat="36.717891" lon="-3.498494">
        <ele>15.061</ele>
        <time>2021-06-16T11:15:00Z</time>
      </trkpt>
      <trkpt lat="36.718188" lon="-3.49861">
        <ele>14.554</ele>
        <time>2021-06-16T11:15:02Z</time>
      </trkpt>
      <trkpt lat="36.718329" lon="-3.498666">
        <ele>14.311</ele>
        <time>2021-06-16T11:15:03Z</time>
      </trkpt>
      <trkpt lat="36.718467" lon="-3.49872">
        <ele>14.498</ele>
        <time>2021-06-16T11:15:04Z</time>
      </trkpt>
      <trkpt lat="36.718602" lon="-3.498772">
        <ele>14.468</ele>
        <time>2021-06-16T11:15:05Z</time>
      </trkpt>
      <trkpt lat="36.718734" lon="-3.498824">
        <ele>14.281</ele>
        <time>2021-06-16T11:15:06Z</time>
      </trkpt>
      <trkpt lat="36.718992" lon="-3.498929">
        <ele>14.461</ele>
        <time>2021-06-16T11:15:08Z</time>
      </trkpt>
      <trkpt lat="36.719232" lon="-3.499029">
        <ele>14.117</ele>
        <time>2021-06-16T11:15:10Z</time>
      </trkpt>
      <trkpt lat="36.719352" lon="-3.499079">
        <ele>13.808</ele>
        <time>2021-06-16T11:15:11Z</time>
      </trkpt>
      <trkpt lat="36.719586" lon="-3.499185">
        <ele>13.715</ele>
        <time>2021-06-16T11:15:13Z</time>
      </trkpt>
      <trkpt lat="36.719822" lon="-3.499296">
        <ele>13.973</ele>
        <time>2021-06-16T11:15:15Z</time>
      </trkpt>
      <trkpt lat="36.720064" lon="-3.499429">
        <ele>13.987</ele>
        <time>2021-06-16T11:15:17Z</time>
      </trkpt>
      <trkpt lat="36.720192" lon="-3.499518">
        <ele>14.186</ele>
        <time>2021-06-16T11:15:18Z</time>
      </trkpt>
      <trkpt lat="36.720483" lon="-3.499733">
        <ele>14.459</ele>
        <time>2021-06-16T11:15:20Z</time>
      </trkpt>
      <trkpt lat="36.720809" lon="-3.499939">
        <ele>14.776</ele>
        <time>2021-06-16T11:15:22Z</time>
      </trkpt>
      <trkpt lat="36.720979" lon="-3.500047">
        <ele>15.213</ele>
        <time>2021-06-16T11:15:23Z</time>
      </trkpt>
      <trkpt lat="36.7213" lon="-3.500288">
        <ele>15.493</ele>
        <time>2021-06-16T11:15:25Z</time>
      </trkpt>
      <trkpt lat="36.721459" lon="-3.500421">
        <ele>15.737</ele>
        <time>2021-06-16T11:15:26Z</time>
      </trkpt>
      <trkpt lat="36.721616" lon="-3.50056">
        <ele>15.949</ele>
        <time>2021-06-16T11:15:27Z</time>
      </trkpt>
      <trkpt lat="36.72177" lon="-3.500701">
        <ele>16.113</ele>
        <time>2021-06-16T11:15:28Z</time>
      </trkpt>
      <trkpt lat="36.72207" lon="-3.500991">
        <ele>16.108</ele>
        <time>2021-06-16T11:15:30Z</time>
      </trkpt>
      <trkpt lat="36.722351" lon="-3.501293">
        <ele>16.750</ele>
        <time>2021-06-16T11:15:32Z</time>
      </trkpt>
      <trkpt lat="36.722489" lon="-3.501445">
        <ele>17.178</ele>
        <time>2021-06-16T11:15:33Z</time>
      </trkpt>
      <trkpt lat="36.722765" lon="-3.501739">
        <ele>17.482</ele>
        <time>2021-06-16T11:15:35Z</time>
      </trkpt>
      <trkpt lat="36.722901" lon="-3.501883">
        <ele>17.361</ele>
        <time>2021-06-16T11:15:36Z</time>
      </trkpt>
      <trkpt lat="36.723037" lon="-3.502028">
        <ele>16.954</ele>
        <time>2021-06-16T11:15:37Z</time>
      </trkpt>
      <trkpt lat="36.723305" lon="-3.50232">
        <ele>16.581</ele>
        <time>2021-06-16T11:15:39Z</time>
      </trkpt>
      <trkpt lat="36.723442" lon="-3.502467">
        <ele>16.618</ele>
        <time>2021-06-16T11:15:40Z</time>
      </trkpt>
      <trkpt lat="36.723714" lon="-3.502764">
        <ele>16.558</ele>
        <time>2021-06-16T11:15:42Z</time>
      </trkpt>
      <trkpt lat="36.723851" lon="-3.502907">
        <ele>16.632</ele>
        <time>2021-06-16T11:15:43Z</time>
      </trkpt>
      <trkpt lat="36.724113" lon="-3.503179">
        <ele>16.292</ele>
        <time>2021-06-16T11:15:45Z</time>
      </trkpt>
      <trkpt lat="36.724244" lon="-3.503309">
        <ele>15.911</ele>
        <time>2021-06-16T11:15:46Z</time>
      </trkpt>
      <trkpt lat="36.724371" lon="-3.503436">
        <ele>15.308</ele>
        <time>2021-06-16T11:15:47Z</time>
      </trkpt>
      <trkpt lat="36.724505" lon="-3.503559">
        <ele>14.790</ele>
        <time>2021-06-16T11:15:48Z</time>
      </trkpt>
      <trkpt lat="36.72477" lon="-3.503792">
        <ele>13.938</ele>
        <time>2021-06-16T11:15:50Z</time>
      </trkpt>
      <trkpt lat="36.725042" lon="-3.504002">
        <ele>13.452</ele>
        <time>2021-06-16T11:15:52Z</time>
      </trkpt>
      <trkpt lat="36.725313" lon="-3.504202">
        <ele>13.021</ele>
        <time>2021-06-16T11:15:54Z</time>
      </trkpt>
      <trkpt lat="36.725563" lon="-3.504382">
        <ele>12.984</ele>
        <time>2021-06-16T11:15:56Z</time>
      </trkpt>
      <trkpt lat="36.725816" lon="-3.504551">
        <ele>12.311</ele>
        <time>2021-06-16T11:15:58Z</time>
      </trkpt>
      <trkpt lat="36.725943" lon="-3.504636">
        <ele>12.298</ele>
        <time>2021-06-16T11:15:59Z</time>
      </trkpt>
      <trkpt lat="36.726185" lon="-3.504806">
        <ele>12.148</ele>
        <time>2021-06-16T11:16:01Z</time>
      </trkpt>
      <trkpt lat="36.726302" lon="-3.504889">
        <ele>12.151</ele>
        <time>2021-06-16T11:16:02Z</time>
      </trkpt>
      <trkpt lat="36.726508" lon="-3.505038">
        <ele>12.101</ele>
        <time>2021-06-16T11:16:04Z</time>
      </trkpt>
      <trkpt lat="36.7266" lon="-3.505101">
        <ele>12.411</ele>
        <time>2021-06-16T11:16:05Z</time>
      </trkpt>
      <trkpt lat="36.726684" lon="-3.505153">
        <ele>12.108</ele>
        <time>2021-06-16T11:16:06Z</time>
      </trkpt>
      <trkpt lat="36.726757" lon="-3.505194">
        <ele>12.232</ele>
        <time>2021-06-16T11:16:07Z</time>
      </trkpt>
      <trkpt lat="36.726872" lon="-3.50523">
        <ele>12.180</ele>
        <time>2021-06-16T11:16:09Z</time>
      </trkpt>
      <trkpt lat="36.726932" lon="-3.505231">
        <ele>12.164</ele>
        <time>2021-06-16T11:16:10Z</time>
      </trkpt>
      <trkpt lat="36.727088" lon="-3.505187">
        <ele>12.073</ele>
        <time>2021-06-16T11:16:12Z</time>
      </trkpt>
      <trkpt lat="36.727175" lon="-3.505156">
        <ele>12.186</ele>
        <time>2021-06-16T11:16:13Z</time>
      </trkpt>
      <trkpt lat="36.727271" lon="-3.505147">
        <ele>12.083</ele>
        <time>2021-06-16T11:16:14Z</time>
      </trkpt>
      <trkpt lat="36.727366" lon="-3.50517">
        <ele>11.960</ele>
        <time>2021-06-16T11:16:15Z</time>
      </trkpt>
      <trkpt lat="36.727532" lon="-3.505291">
        <ele>11.840</ele>
        <time>2021-06-16T11:16:17Z</time>
      </trkpt>
      <trkpt lat="36.727617" lon="-3.505519">
        <ele>11.571</ele>
        <time>2021-06-16T11:16:19Z</time>
      </trkpt>
      <trkpt lat="36.727644" lon="-3.505778">
        <ele>11.041</ele>
        <time>2021-06-16T11:16:21Z</time>
      </trkpt>
      <trkpt lat="36.727765" lon="-3.505994">
        <ele>11.115</ele>
        <time>2021-06-16T11:16:23Z</time>
      </trkpt>
      <trkpt lat="36.727858" lon="-3.50608">
        <ele>10.808</ele>
        <time>2021-06-16T11:16:24Z</time>
      </trkpt>
      <trkpt lat="36.727958" lon="-3.506162">
        <ele>10.864</ele>
        <time>2021-06-16T11:16:25Z</time>
      </trkpt>
      <trkpt lat="36.728164" lon="-3.506342">
        <ele>10.852</ele>
        <time>2021-06-16T11:16:27Z</time>
      </trkpt>
      <trkpt lat="36.728266" lon="-3.506438">
        <ele>10.546</ele>
        <time>2021-06-16T11:16:28Z</time>
      </trkpt>
      <trkpt lat="36.72847" lon="-3.506632">
        <ele>10.025</ele>
        <time>2021-06-16T11:16:30Z</time>
      </trkpt>
      <trkpt lat="36.728665" lon="-3.506839">
        <ele>9.778</ele>
        <time>2021-06-16T11:16:32Z</time>
      </trkpt>
      <trkpt lat="36.728759" lon="-3.50695">
        <ele>9.515</ele>
        <time>2021-06-16T11:16:33Z</time>
      </trkpt>
      <trkpt lat="36.72885" lon="-3.507062">
        <ele>9.632</ele>
        <time>2021-06-16T11:16:34Z</time>
      </trkpt>
      <trkpt lat="36.728941" lon="-3.507171">
        <ele>9.312</ele>
        <time>2021-06-16T11:16:35Z</time>
      </trkpt>
      <trkpt lat="36.729099" lon="-3.507368">
        <ele>9.184</ele>
        <time>2021-06-16T11:16:37Z</time>
      </trkpt>
      <trkpt lat="36.729167" lon="-3.507457">
        <ele>8.907</ele>
        <time>2021-06-16T11:16:38Z</time>
      </trkpt>
      <trkpt lat="36.729287" lon="-3.507634">
        <ele>8.617</ele>
        <time>2021-06-16T11:16:40Z</time>
      </trkpt>
      <trkpt lat="36.729399" lon="-3.507794">
        <ele>8.408</ele>
        <time>2021-06-16T11:16:42Z</time>
      </trkpt>
      <trkpt lat="36.729451" lon="-3.507868">
        <ele>8.565</ele>
        <time>2021-06-16T11:16:43Z</time>
      </trkpt>
      <trkpt lat="36.729542" lon="-3.507986">
        <ele>8.493</ele>
        <time>2021-06-16T11:16:45Z</time>
      </trkpt>
      <trkpt lat="36.729581" lon="-3.508027">
        <ele>8.287</ele>
        <time>2021-06-16T11:16:46Z</time>
      </trkpt>
      <trkpt lat="36.729633" lon="-3.508055">
        <ele>8.096</ele>
        <time>2021-06-16T11:16:48Z</time>
      </trkpt>
      <trkpt lat="36.729679" lon="-3.508066">
        <ele>7.959</ele>
        <time>2021-06-16T11:16:50Z</time>
      </trkpt>
      <trkpt lat="36.72976" lon="-3.508101">
        <ele>8.146</ele>
        <time>2021-06-16T11:16:52Z</time>
      </trkpt>
      <trkpt lat="36.729858" lon="-3.508175">
        <ele>8.483</ele>
        <time>2021-06-16T11:16:54Z</time>
      </trkpt>
      <trkpt lat="36.729902" lon="-3.508228">
        <ele>8.933</ele>
        <time>2021-06-16T11:16:55Z</time>
      </trkpt>
      <trkpt lat="36.729937" lon="-3.508276">
        <ele>9.014</ele>
        <time>2021-06-16T11:16:56Z</time>
      </trkpt>
      <trkpt lat="36.729963" lon="-3.508351">
        <ele>9.154</ele>
        <time>2021-06-16T11:16:58Z</time>
      </trkpt>
      <trkpt lat="36.729956" lon="-3.508421">
        <ele>9.409</ele>
        <time>2021-06-16T11:17:00Z</time>
      </trkpt>
      <trkpt lat="36.729899" lon="-3.508439">
        <ele>9.208</ele>
        <time>2021-06-16T11:18:19Z</time>
      </trkpt>
      <trkpt lat="36.729847" lon="-3.508497">
        <ele>9.118</ele>
        <time>2021-06-16T11:18:21Z</time>
      </trkpt>
      <trkpt lat="36.729717" lon="-3.508564">
        <ele>9.086</ele>
        <time>2021-06-16T11:18:23Z</time>
      </trkpt>
      <trkpt lat="36.729638" lon="-3.508565">
        <ele>9.040</ele>
        <time>2021-06-16T11:18:24Z</time>
      </trkpt>
      <trkpt lat="36.729571" lon="-3.508529">
        <ele>9.029</ele>
        <time>2021-06-16T11:18:25Z</time>
      </trkpt>
      <trkpt lat="36.729524" lon="-3.508464">
        <ele>9.082</ele>
        <time>2021-06-16T11:18:26Z</time>
      </trkpt>
      <trkpt lat="36.729496" lon="-3.508289">
        <ele>9.059</ele>
        <time>2021-06-16T11:18:28Z</time>
      </trkpt>
      <trkpt lat="36.729572" lon="-3.508147">
        <ele>9.096</ele>
        <time>2021-06-16T11:18:30Z</time>
      </trkpt>
      <trkpt lat="36.72964" lon="-3.508105">
        <ele>9.076</ele>
        <time>2021-06-16T11:18:31Z</time>
      </trkpt>
      <trkpt lat="36.729713" lon="-3.508086">
        <ele>9.018</ele>
        <time>2021-06-16T11:18:32Z</time>
      </trkpt>
      <trkpt lat="36.729787" lon="-3.508087">
        <ele>9.098</ele>
        <time>2021-06-16T11:18:33Z</time>
      </trkpt>
      <trkpt lat="36.729934" lon="-3.508114">
        <ele>9.017</ele>
        <time>2021-06-16T11:18:35Z</time>
      </trkpt>
      <trkpt lat="36.730009" lon="-3.508131">
        <ele>9.008</ele>
        <time>2021-06-16T11:18:36Z</time>
      </trkpt>
      <trkpt lat="36.730175" lon="-3.508175">
        <ele>9.068</ele>
        <time>2021-06-16T11:18:38Z</time>
      </trkpt>
      <trkpt lat="36.730266" lon="-3.5082">
        <ele>9.046</ele>
        <time>2021-06-16T11:18:39Z</time>
      </trkpt>
      <trkpt lat="36.730456" lon="-3.508265">
        <ele>9.070</ele>
        <time>2021-06-16T11:18:41Z</time>
      </trkpt>
      <trkpt lat="36.730639" lon="-3.508345">
        <ele>9.069</ele>
        <time>2021-06-16T11:18:43Z</time>
      </trkpt>
      <trkpt lat="36.730734" lon="-3.508387">
        <ele>9.082</ele>
        <time>2021-06-16T11:18:44Z</time>
      </trkpt>
      <trkpt lat="36.730921" lon="-3.508475">
        <ele>9.039</ele>
        <time>2021-06-16T11:18:46Z</time>
      </trkpt>
      <trkpt lat="36.731006" lon="-3.508517">
        <ele>9.046</ele>
        <time>2021-06-16T11:18:47Z</time>
      </trkpt>
      <trkpt lat="36.731161" lon="-3.508597">
        <ele>9.086</ele>
        <time>2021-06-16T11:18:49Z</time>
      </trkpt>
      <trkpt lat="36.731223" lon="-3.508631">
        <ele>9.064</ele>
        <time>2021-06-16T11:18:50Z</time>
      </trkpt>
      <trkpt lat="36.731278" lon="-3.508661">
        <ele>9.006</ele>
        <time>2021-06-16T11:18:51Z</time>
      </trkpt>
      <trkpt lat="36.731374" lon="-3.508711">
        <ele>9.016</ele>
        <time>2021-06-16T11:18:53Z</time>
      </trkpt>
      <trkpt lat="36.73149" lon="-3.508787">
        <ele>9.008</ele>
        <time>2021-06-16T11:18:55Z</time>
      </trkpt>
      <trkpt lat="36.731597" lon="-3.508868">
        <ele>9.083</ele>
        <time>2021-06-16T11:18:57Z</time>
      </trkpt>
      <trkpt lat="36.731643" lon="-3.508903">
        <ele>9.051</ele>
        <time>2021-06-16T11:18:58Z</time>
      </trkpt>
      <trkpt lat="36.731681" lon="-3.508934">
        <ele>9.065</ele>
        <time>2021-06-16T11:18:59Z</time>
      </trkpt>
      <trkpt lat="36.73176" lon="-3.508995">
        <ele>9.064</ele>
        <time>2021-06-16T11:19:01Z</time>
      </trkpt>
      <trkpt lat="36.731812" lon="-3.509034">
        <ele>9.097</ele>
        <time>2021-06-16T11:19:02Z</time>
      </trkpt>
      <trkpt lat="36.731939" lon="-3.509133">
        <ele>9.034</ele>
        <time>2021-06-16T11:19:04Z</time>
      </trkpt>
      <trkpt lat="36.732085" lon="-3.509253">
        <ele>9.031</ele>
        <time>2021-06-16T11:19:06Z</time>
      </trkpt>
      <trkpt lat="36.732224" lon="-3.509362">
        <ele>9.031</ele>
        <time>2021-06-16T11:19:08Z</time>
      </trkpt>
      <trkpt lat="36.732313" lon="-3.509428">
        <ele>9.047</ele>
        <time>2021-06-16T11:19:10Z</time>
      </trkpt>
      <trkpt lat="36.73237" lon="-3.50947">
        <ele>9.029</ele>
        <time>2021-06-16T11:19:12Z</time>
      </trkpt>
      <trkpt lat="36.732417" lon="-3.509511">
        <ele>9.021</ele>
        <time>2021-06-16T11:19:13Z</time>
      </trkpt>
      <trkpt lat="36.732471" lon="-3.509556">
        <ele>9.008</ele>
        <time>2021-06-16T11:19:14Z</time>
      </trkpt>
      <trkpt lat="36.732598" lon="-3.509658">
        <ele>9.091</ele>
        <time>2021-06-16T11:19:16Z</time>
      </trkpt>
      <trkpt lat="36.732726" lon="-3.509761">
        <ele>10.989</ele>
        <time>2021-06-16T11:19:18Z</time>
      </trkpt>
      <trkpt lat="36.732794" lon="-3.509814">
        <ele>11.923</ele>
        <time>2021-06-16T11:19:19Z</time>
      </trkpt>
      <trkpt lat="36.73286" lon="-3.509871">
        <ele>12.582</ele>
        <time>2021-06-16T11:19:20Z</time>
      </trkpt>
      <trkpt lat="36.732924" lon="-3.509927">
        <ele>13.315</ele>
        <time>2021-06-16T11:19:21Z</time>
      </trkpt>
      <trkpt lat="36.732989" lon="-3.509972">
        <ele>13.762</ele>
        <time>2021-06-16T11:19:22Z</time>
      </trkpt>
      <trkpt lat="36.733074" lon="-3.510037">
        <ele>14.359</ele>
        <time>2021-06-16T11:19:24Z</time>
      </trkpt>
      <trkpt lat="36.733138" lon="-3.510087">
        <ele>14.679</ele>
        <time>2021-06-16T11:19:26Z</time>
      </trkpt>
      <trkpt lat="36.733185" lon="-3.510115">
        <ele>14.667</ele>
        <time>2021-06-16T11:19:27Z</time>
      </trkpt>
      <trkpt lat="36.73329" lon="-3.51012">
        <ele>14.681</ele>
        <time>2021-06-16T11:19:29Z</time>
      </trkpt>
      <trkpt lat="36.733346" lon="-3.510079">
        <ele>14.819</ele>
        <time>2021-06-16T11:19:30Z</time>
      </trkpt>
      <trkpt lat="36.733412" lon="-3.509969">
        <ele>14.108</ele>
        <time>2021-06-16T11:19:32Z</time>
      </trkpt>
      <trkpt lat="36.73344" lon="-3.509889">
        <ele>14.143</ele>
        <time>2021-06-16T11:19:34Z</time>
      </trkpt>
      <trkpt lat="36.733475" lon="-3.5098">
        <ele>14.361</ele>
        <time>2021-06-16T11:19:36Z</time>
      </trkpt>
      <trkpt lat="36.733524" lon="-3.509703">
        <ele>14.315</ele>
        <time>2021-06-16T11:19:38Z</time>
      </trkpt>
      <trkpt lat="36.733571" lon="-3.509598">
        <ele>14.174</ele>
        <time>2021-06-16T11:19:40Z</time>
      </trkpt>
      <trkpt lat="36.733611" lon="-3.509513">
        <ele>14.047</ele>
        <time>2021-06-16T11:19:42Z</time>
      </trkpt>
      <trkpt lat="36.733632" lon="-3.509456">
        <ele>14.244</ele>
        <time>2021-06-16T11:19:44Z</time>
      </trkpt>
      <trkpt lat="36.733662" lon="-3.509394">
        <ele>13.631</ele>
        <time>2021-06-16T11:19:47Z</time>
      </trkpt>
      <trkpt lat="36.733695" lon="-3.50933">
        <ele>13.251</ele>
        <time>2021-06-16T11:19:49Z</time>
      </trkpt>
      <trkpt lat="36.733737" lon="-3.509245">
        <ele>13.223</ele>
        <time>2021-06-16T11:19:51Z</time>
      </trkpt>
      <trkpt lat="36.733773" lon="-3.509173">
        <ele>13.083</ele>
        <time>2021-06-16T11:19:53Z</time>
      </trkpt>
      <trkpt lat="36.733808" lon="-3.509119">
        <ele>12.411</ele>
        <time>2021-06-16T11:19:59Z</time>
      </trkpt>
      <trkpt lat="36.733855" lon="-3.509095">
        <ele>12.008</ele>
        <time>2021-06-16T11:20:01Z</time>
      </trkpt>
      <trkpt lat="36.733908" lon="-3.509122">
        <ele>11.829</ele>
        <time>2021-06-16T11:20:02Z</time>
      </trkpt>
      <trkpt lat="36.734037" lon="-3.509234">
        <ele>11.747</ele>
        <time>2021-06-16T11:20:04Z</time>
      </trkpt>
      <trkpt lat="36.734103" lon="-3.509297">
        <ele>11.631</ele>
        <time>2021-06-16T11:20:05Z</time>
      </trkpt>
      <trkpt lat="36.734175" lon="-3.509357">
        <ele>11.680</ele>
        <time>2021-06-16T11:20:06Z</time>
      </trkpt>
      <trkpt lat="36.734252" lon="-3.509419">
        <ele>11.643</ele>
        <time>2021-06-16T11:20:07Z</time>
      </trkpt>
      <trkpt lat="36.734411" lon="-3.509551">
        <ele>11.670</ele>
        <time>2021-06-16T11:20:09Z</time>
      </trkpt>
      <trkpt lat="36.734495" lon="-3.509621">
        <ele>11.687</ele>
        <time>2021-06-16T11:20:10Z</time>
      </trkpt>
      <trkpt lat="36.734671" lon="-3.509758">
        <ele>11.677</ele>
        <time>2021-06-16T11:20:12Z</time>
      </trkpt>
      <trkpt lat="36.734831" lon="-3.509891">
        <ele>11.687</ele>
        <time>2021-06-16T11:20:14Z</time>
      </trkpt>
      <trkpt lat="36.734988" lon="-3.510016">
        <ele>11.642</ele>
        <time>2021-06-16T11:20:16Z</time>
      </trkpt>
      <trkpt lat="36.735161" lon="-3.510147">
        <ele>11.626</ele>
        <time>2021-06-16T11:20:18Z</time>
      </trkpt>
      <trkpt lat="36.735337" lon="-3.510291">
        <ele>11.608</ele>
        <time>2021-06-16T11:20:20Z</time>
      </trkpt>
      <trkpt lat="36.735421" lon="-3.510365">
        <ele>11.665</ele>
        <time>2021-06-16T11:20:21Z</time>
      </trkpt>
      <trkpt lat="36.735507" lon="-3.510433">
        <ele>11.633</ele>
        <time>2021-06-16T11:20:22Z</time>
      </trkpt>
      <trkpt lat="36.735687" lon="-3.510565">
        <ele>11.637</ele>
        <time>2021-06-16T11:20:24Z</time>
      </trkpt>
      <trkpt lat="36.735775" lon="-3.510633">
        <ele>11.626</ele>
        <time>2021-06-16T11:20:25Z</time>
      </trkpt>
      <trkpt lat="36.73594" lon="-3.510769">
        <ele>11.639</ele>
        <time>2021-06-16T11:20:27Z</time>
      </trkpt>
      <trkpt lat="36.736092" lon="-3.510894">
        <ele>11.626</ele>
        <time>2021-06-16T11:20:29Z</time>
      </trkpt>
      <trkpt lat="36.73623" lon="-3.511003">
        <ele>11.623</ele>
        <time>2021-06-16T11:20:31Z</time>
      </trkpt>
      <trkpt lat="36.736299" lon="-3.511055">
        <ele>11.693</ele>
        <time>2021-06-16T11:20:32Z</time>
      </trkpt>
      <trkpt lat="36.73645" lon="-3.511165">
        <ele>11.674</ele>
        <time>2021-06-16T11:20:34Z</time>
      </trkpt>
      <trkpt lat="36.736615" lon="-3.511261">
        <ele>11.656</ele>
        <time>2021-06-16T11:20:36Z</time>
      </trkpt>
      <trkpt lat="36.736764" lon="-3.511388">
        <ele>11.621</ele>
        <time>2021-06-16T11:20:38Z</time>
      </trkpt>
      <trkpt lat="36.736923" lon="-3.511509">
        <ele>11.608</ele>
        <time>2021-06-16T11:20:40Z</time>
      </trkpt>
      <trkpt lat="36.737078" lon="-3.511643">
        <ele>11.664</ele>
        <time>2021-06-16T11:20:42Z</time>
      </trkpt>
      <trkpt lat="36.737149" lon="-3.511706">
        <ele>11.662</ele>
        <time>2021-06-16T11:20:43Z</time>
      </trkpt>
      <trkpt lat="36.737218" lon="-3.511762">
        <ele>11.666</ele>
        <time>2021-06-16T11:20:44Z</time>
      </trkpt>
      <trkpt lat="36.73728" lon="-3.511812">
        <ele>11.655</ele>
        <time>2021-06-16T11:20:45Z</time>
      </trkpt>
      <trkpt lat="36.737372" lon="-3.511892">
        <ele>11.678</ele>
        <time>2021-06-16T11:20:47Z</time>
      </trkpt>
      <trkpt lat="36.737468" lon="-3.511944">
        <ele>11.625</ele>
        <time>2021-06-16T11:20:49Z</time>
      </trkpt>
      <trkpt lat="36.737528" lon="-3.511947">
        <ele>11.662</ele>
        <time>2021-06-16T11:20:50Z</time>
      </trkpt>
      <trkpt lat="36.737666" lon="-3.511931">
        <ele>11.682</ele>
        <time>2021-06-16T11:20:52Z</time>
      </trkpt>
      <trkpt lat="36.737736" lon="-3.511939">
        <ele>11.686</ele>
        <time>2021-06-16T11:20:53Z</time>
      </trkpt>
      <trkpt lat="36.737797" lon="-3.511975">
        <ele>11.660</ele>
        <time>2021-06-16T11:20:54Z</time>
      </trkpt>
      <trkpt lat="36.737834" lon="-3.512037">
        <ele>11.626</ele>
        <time>2021-06-16T11:20:55Z</time>
      </trkpt>
      <trkpt lat="36.737846" lon="-3.512189">
        <ele>11.608</ele>
        <time>2021-06-16T11:20:57Z</time>
      </trkpt>
      <trkpt lat="36.73781" lon="-3.512267">
        <ele>15.665</ele>
        <time>2021-06-16T11:20:58Z</time>
      </trkpt>
      <trkpt lat="36.737756" lon="-3.512344">
        <ele>18.373</ele>
        <time>2021-06-16T11:20:59Z</time>
      </trkpt>
      <trkpt lat="36.73765" lon="-3.512504">
        <ele>19.147</ele>
        <time>2021-06-16T11:21:01Z</time>
      </trkpt>
      <trkpt lat="36.737607" lon="-3.512592">
        <ele>19.616</ele>
        <time>2021-06-16T11:21:02Z</time>
      </trkpt>
      <trkpt lat="36.737545" lon="-3.512769">
        <ele>19.569</ele>
        <time>2021-06-16T11:21:04Z</time>
      </trkpt>
      <trkpt lat="36.737497" lon="-3.512932">
        <ele>19.796</ele>
        <time>2021-06-16T11:21:06Z</time>
      </trkpt>
      <trkpt lat="36.737488" lon="-3.513018">
        <ele>19.823</ele>
        <time>2021-06-16T11:21:08Z</time>
      </trkpt>
      <trkpt lat="36.737531" lon="-3.513049">
        <ele>19.843</ele>
        <time>2021-06-16T11:21:10Z</time>
      </trkpt>
      <trkpt lat="36.737575" lon="-3.513074">
        <ele>19.774</ele>
        <time>2021-06-16T11:21:13Z</time>
      </trkpt>
      <trkpt lat="36.737593" lon="-3.513133">
        <ele>20.056</ele>
        <time>2021-06-16T11:21:16Z</time>
      </trkpt>
      <trkpt lat="36.737572" lon="-3.513208">
        <ele>20.221</ele>
        <time>2021-06-16T11:21:19Z</time>
      </trkpt>
      <trkpt lat="36.737521" lon="-3.513235">
        <ele>20.308</ele>
        <time>2021-06-16T11:21:23Z</time>
      </trkpt>
      <trkpt lat="36.737486" lon="-3.513274">
        <ele>20.544</ele>
        <time>2021-06-16T11:22:28Z</time>
      </trkpt>
      <trkpt lat="36.737741" lon="-3.513419">
        <ele>71.342</ele>
        <time>2021-06-16T11:41:50Z</time>
      </trkpt>
      <trkpt lat="36.737744" lon="-3.513476">
        <ele>56.096</ele>
        <time>2021-06-16T11:42:22Z</time>
      </trkpt>
      <trkpt lat="36.7377" lon="-3.51351">
        <ele>38.975</ele>
        <time>2021-06-16T11:43:44Z</time>
      </trkpt>
      <trkpt lat="36.737662" lon="-3.513563">
        <ele>20.768</ele>
        <time>2021-06-16T11:43:47Z</time>
      </trkpt>
      <trkpt lat="36.737595" lon="-3.513593">
        <ele>20.775</ele>
        <time>2021-06-16T11:43:49Z</time>
      </trkpt>
      <trkpt lat="36.737546" lon="-3.513593">
        <ele>20.752</ele>
        <time>2021-06-16T11:43:50Z</time>
      </trkpt>
      <trkpt lat="36.737431" lon="-3.513529">
        <ele>20.792</ele>
        <time>2021-06-16T11:43:52Z</time>
      </trkpt>
      <trkpt lat="36.737338" lon="-3.513461">
        <ele>20.737</ele>
        <time>2021-06-16T11:43:54Z</time>
      </trkpt>
      <trkpt lat="36.737266" lon="-3.5134">
        <ele>20.749</ele>
        <time>2021-06-16T11:43:56Z</time>
      </trkpt>
      <trkpt lat="36.737223" lon="-3.513365">
        <ele>20.713</ele>
        <time>2021-06-16T11:43:57Z</time>
      </trkpt>
      <trkpt lat="36.737173" lon="-3.51333">
        <ele>20.708</ele>
        <time>2021-06-16T11:43:58Z</time>
      </trkpt>
      <trkpt lat="36.737069" lon="-3.513265">
        <ele>20.750</ele>
        <time>2021-06-16T11:44:00Z</time>
      </trkpt>
      <trkpt lat="36.737018" lon="-3.513229">
        <ele>20.718</ele>
        <time>2021-06-16T11:44:01Z</time>
      </trkpt>
      <trkpt lat="36.736919" lon="-3.513156">
        <ele>20.762</ele>
        <time>2021-06-16T11:44:03Z</time>
      </trkpt>
      <trkpt lat="36.736825" lon="-3.513081">
        <ele>20.771</ele>
        <time>2021-06-16T11:44:05Z</time>
      </trkpt>
      <trkpt lat="36.736731" lon="-3.513005">
        <ele>20.744</ele>
        <time>2021-06-16T11:44:07Z</time>
      </trkpt>
      <trkpt lat="36.736683" lon="-3.512963">
        <ele>20.761</ele>
        <time>2021-06-16T11:44:08Z</time>
      </trkpt>
      <trkpt lat="36.736567" lon="-3.512861">
        <ele>20.728</ele>
        <time>2021-06-16T11:44:10Z</time>
      </trkpt>
      <trkpt lat="36.736465" lon="-3.512777">
        <ele>20.778</ele>
        <time>2021-06-16T11:44:12Z</time>
      </trkpt>
      <trkpt lat="36.736394" lon="-3.512727">
        <ele>20.783</ele>
        <time>2021-06-16T11:44:14Z</time>
      </trkpt>
      <trkpt lat="36.736289" lon="-3.512647">
        <ele>20.725</ele>
        <time>2021-06-16T11:44:16Z</time>
      </trkpt>
      <trkpt lat="36.736226" lon="-3.512605">
        <ele>20.717</ele>
        <time>2021-06-16T11:44:17Z</time>
      </trkpt>
      <trkpt lat="36.73608" lon="-3.512501">
        <ele>20.708</ele>
        <time>2021-06-16T11:44:19Z</time>
      </trkpt>
      <trkpt lat="36.736003" lon="-3.51244">
        <ele>20.765</ele>
        <time>2021-06-16T11:44:20Z</time>
      </trkpt>
      <trkpt lat="36.735852" lon="-3.512319">
        <ele>20.753</ele>
        <time>2021-06-16T11:44:22Z</time>
      </trkpt>
      <trkpt lat="36.735785" lon="-3.512264">
        <ele>20.787</ele>
        <time>2021-06-16T11:44:23Z</time>
      </trkpt>
      <trkpt lat="36.73568" lon="-3.51218">
        <ele>20.726</ele>
        <time>2021-06-16T11:44:25Z</time>
      </trkpt>
      <trkpt lat="36.735603" lon="-3.512116">
        <ele>20.779</ele>
        <time>2021-06-16T11:44:27Z</time>
      </trkpt>
      <trkpt lat="36.735504" lon="-3.512034">
        <ele>20.756</ele>
        <time>2021-06-16T11:44:29Z</time>
      </trkpt>
      <trkpt lat="36.735444" lon="-3.511986">
        <ele>20.743</ele>
        <time>2021-06-16T11:44:30Z</time>
      </trkpt>
      <trkpt lat="36.735378" lon="-3.511933">
        <ele>20.763</ele>
        <time>2021-06-16T11:44:31Z</time>
      </trkpt>
      <trkpt lat="36.735311" lon="-3.511876">
        <ele>20.728</ele>
        <time>2021-06-16T11:44:32Z</time>
      </trkpt>
      <trkpt lat="36.735169" lon="-3.511756">
        <ele>20.789</ele>
        <time>2021-06-16T11:44:34Z</time>
      </trkpt>
      <trkpt lat="36.735029" lon="-3.511651">
        <ele>20.717</ele>
        <time>2021-06-16T11:44:36Z</time>
      </trkpt>
      <trkpt lat="36.73497" lon="-3.511605">
        <ele>20.708</ele>
        <time>2021-06-16T11:44:37Z</time>
      </trkpt>
      <trkpt lat="36.734873" lon="-3.511526">
        <ele>20.789</ele>
        <time>2021-06-16T11:44:39Z</time>
      </trkpt>
      <trkpt lat="36.734788" lon="-3.511459">
        <ele>20.757</ele>
        <time>2021-06-16T11:44:41Z</time>
      </trkpt>
      <trkpt lat="36.734735" lon="-3.511417">
        <ele>20.771</ele>
        <time>2021-06-16T11:44:42Z</time>
      </trkpt>
      <trkpt lat="36.734675" lon="-3.511366">
        <ele>20.790</ele>
        <time>2021-06-16T11:44:43Z</time>
      </trkpt>
      <trkpt lat="36.734609" lon="-3.51131">
        <ele>20.783</ele>
        <time>2021-06-16T11:44:44Z</time>
      </trkpt>
      <trkpt lat="36.734469" lon="-3.511197">
        <ele>17.270</ele>
        <time>2021-06-16T11:44:46Z</time>
      </trkpt>
      <trkpt lat="36.734401" lon="-3.51114">
        <ele>15.587</ele>
        <time>2021-06-16T11:44:47Z</time>
      </trkpt>
      <trkpt lat="36.734335" lon="-3.511085">
        <ele>14.547</ele>
        <time>2021-06-16T11:44:48Z</time>
      </trkpt>
      <trkpt lat="36.734212" lon="-3.510985">
        <ele>13.495</ele>
        <time>2021-06-16T11:44:50Z</time>
      </trkpt>
      <trkpt lat="36.734118" lon="-3.510911">
        <ele>13.349</ele>
        <time>2021-06-16T11:44:52Z</time>
      </trkpt>
      <trkpt lat="36.734029" lon="-3.510841">
        <ele>13.023</ele>
        <time>2021-06-16T11:44:54Z</time>
      </trkpt>
      <trkpt lat="36.733926" lon="-3.510752">
        <ele>13.008</ele>
        <time>2021-06-16T11:44:56Z</time>
      </trkpt>
      <trkpt lat="36.733791" lon="-3.510639">
        <ele>12.916</ele>
        <time>2021-06-16T11:44:58Z</time>
      </trkpt>
      <trkpt lat="36.733716" lon="-3.510579">
        <ele>12.844</ele>
        <time>2021-06-16T11:44:59Z</time>
      </trkpt>
      <trkpt lat="36.733643" lon="-3.510521">
        <ele>12.648</ele>
        <time>2021-06-16T11:45:00Z</time>
      </trkpt>
      <trkpt lat="36.73351" lon="-3.510426">
        <ele>12.237</ele>
        <time>2021-06-16T11:45:02Z</time>
      </trkpt>
      <trkpt lat="36.733454" lon="-3.510391">
        <ele>11.640</ele>
        <time>2021-06-16T11:45:03Z</time>
      </trkpt>
      <trkpt lat="36.733368" lon="-3.510329">
        <ele>11.227</ele>
        <time>2021-06-16T11:45:05Z</time>
      </trkpt>
      <trkpt lat="36.733329" lon="-3.510296">
        <ele>11.264</ele>
        <time>2021-06-16T11:45:06Z</time>
      </trkpt>
      <trkpt lat="36.73323" lon="-3.510208">
        <ele>11.464</ele>
        <time>2021-06-16T11:45:08Z</time>
      </trkpt>
      <trkpt lat="36.733175" lon="-3.51016">
        <ele>11.263</ele>
        <time>2021-06-16T11:45:09Z</time>
      </trkpt>
      <trkpt lat="36.733117" lon="-3.510111">
        <ele>10.944</ele>
        <time>2021-06-16T11:45:10Z</time>
      </trkpt>
      <trkpt lat="36.733058" lon="-3.510061">
        <ele>10.918</ele>
        <time>2021-06-16T11:45:11Z</time>
      </trkpt>
      <trkpt lat="36.732956" lon="-3.509977">
        <ele>10.908</ele>
        <time>2021-06-16T11:45:13Z</time>
      </trkpt>
      <trkpt lat="36.732867" lon="-3.509898">
        <ele>10.943</ele>
        <time>2021-06-16T11:45:15Z</time>
      </trkpt>
      <trkpt lat="36.732816" lon="-3.509854">
        <ele>10.981</ele>
        <time>2021-06-16T11:45:16Z</time>
      </trkpt>
      <trkpt lat="36.732758" lon="-3.509807">
        <ele>10.995</ele>
        <time>2021-06-16T11:45:17Z</time>
      </trkpt>
      <trkpt lat="36.732697" lon="-3.509757">
        <ele>11.284</ele>
        <time>2021-06-16T11:45:18Z</time>
      </trkpt>
      <trkpt lat="36.732575" lon="-3.509661">
        <ele>11.157</ele>
        <time>2021-06-16T11:45:20Z</time>
      </trkpt>
      <trkpt lat="36.732452" lon="-3.509567">
        <ele>10.834</ele>
        <time>2021-06-16T11:45:22Z</time>
      </trkpt>
      <trkpt lat="36.732336" lon="-3.509482">
        <ele>10.831</ele>
        <time>2021-06-16T11:45:24Z</time>
      </trkpt>
      <trkpt lat="36.732285" lon="-3.509444">
        <ele>11.061</ele>
        <time>2021-06-16T11:45:25Z</time>
      </trkpt>
      <trkpt lat="36.732237" lon="-3.509409">
        <ele>11.224</ele>
        <time>2021-06-16T11:45:26Z</time>
      </trkpt>
      <trkpt lat="36.73217" lon="-3.509361">
        <ele>11.304</ele>
        <time>2021-06-16T11:45:28Z</time>
      </trkpt>
      <trkpt lat="36.732131" lon="-3.509327">
        <ele>11.014</ele>
        <time>2021-06-16T11:45:29Z</time>
      </trkpt>
      <trkpt lat="36.732052" lon="-3.509256">
        <ele>10.808</ele>
        <time>2021-06-16T11:45:31Z</time>
      </trkpt>
      <trkpt lat="36.732007" lon="-3.509216">
        <ele>10.649</ele>
        <time>2021-06-16T11:45:32Z</time>
      </trkpt>
      <trkpt lat="36.731909" lon="-3.509128">
        <ele>10.637</ele>
        <time>2021-06-16T11:45:34Z</time>
      </trkpt>
      <trkpt lat="36.731851" lon="-3.509088">
        <ele>10.611</ele>
        <time>2021-06-16T11:45:35Z</time>
      </trkpt>
      <trkpt lat="36.731753" lon="-3.509014">
        <ele>10.830</ele>
        <time>2021-06-16T11:45:37Z</time>
      </trkpt>
      <trkpt lat="36.731676" lon="-3.508961">
        <ele>11.533</ele>
        <time>2021-06-16T11:45:39Z</time>
      </trkpt>
      <trkpt lat="36.731606" lon="-3.508906">
        <ele>11.760</ele>
        <time>2021-06-16T11:45:41Z</time>
      </trkpt>
      <trkpt lat="36.731536" lon="-3.508865">
        <ele>12.027</ele>
        <time>2021-06-16T11:45:43Z</time>
      </trkpt>
      <trkpt lat="36.731495" lon="-3.508836">
        <ele>12.237</ele>
        <time>2021-06-16T11:45:44Z</time>
      </trkpt>
      <trkpt lat="36.73141" lon="-3.508767">
        <ele>12.357</ele>
        <time>2021-06-16T11:45:46Z</time>
      </trkpt>
      <trkpt lat="36.731317" lon="-3.508703">
        <ele>12.500</ele>
        <time>2021-06-16T11:45:48Z</time>
      </trkpt>
      <trkpt lat="36.731272" lon="-3.50867">
        <ele>12.920</ele>
        <time>2021-06-16T11:45:49Z</time>
      </trkpt>
      <trkpt lat="36.731221" lon="-3.508636">
        <ele>13.108</ele>
        <time>2021-06-16T11:45:50Z</time>
      </trkpt>
      <trkpt lat="36.731117" lon="-3.50858">
        <ele>13.712</ele>
        <time>2021-06-16T11:45:52Z</time>
      </trkpt>
      <trkpt lat="36.731018" lon="-3.508528">
        <ele>14.150</ele>
        <time>2021-06-16T11:45:54Z</time>
      </trkpt>
      <trkpt lat="36.730969" lon="-3.508504">
        <ele>14.334</ele>
        <time>2021-06-16T11:45:55Z</time>
      </trkpt>
      <trkpt lat="36.730878" lon="-3.508458">
        <ele>14.483</ele>
        <time>2021-06-16T11:45:57Z</time>
      </trkpt>
      <trkpt lat="36.730787" lon="-3.508415">
        <ele>14.136</ele>
        <time>2021-06-16T11:45:59Z</time>
      </trkpt>
      <trkpt lat="36.730685" lon="-3.508374">
        <ele>13.513</ele>
        <time>2021-06-16T11:46:01Z</time>
      </trkpt>
      <trkpt lat="36.730633" lon="-3.508353">
        <ele>13.470</ele>
        <time>2021-06-16T11:46:02Z</time>
      </trkpt>
      <trkpt lat="36.730525" lon="-3.508303">
        <ele>13.430</ele>
        <time>2021-06-16T11:46:04Z</time>
      </trkpt>
      <trkpt lat="36.730465" lon="-3.508275">
        <ele>13.044</ele>
        <time>2021-06-16T11:46:05Z</time>
      </trkpt>
      <trkpt lat="36.730346" lon="-3.508248">
        <ele>12.505</ele>
        <time>2021-06-16T11:46:07Z</time>
      </trkpt>
      <trkpt lat="36.730283" lon="-3.508242">
        <ele>12.715</ele>
        <time>2021-06-16T11:46:08Z</time>
      </trkpt>
      <trkpt lat="36.730162" lon="-3.508237">
        <ele>12.208</ele>
        <time>2021-06-16T11:46:10Z</time>
      </trkpt>
      <trkpt lat="36.730105" lon="-3.508238">
        <ele>11.831</ele>
        <time>2021-06-16T11:46:11Z</time>
      </trkpt>
      <trkpt lat="36.730054" lon="-3.50824">
        <ele>11.239</ele>
        <time>2021-06-16T11:46:12Z</time>
      </trkpt>
      <trkpt lat="36.729975" lon="-3.508273">
        <ele>11.073</ele>
        <time>2021-06-16T11:46:14Z</time>
      </trkpt>
      <trkpt lat="36.729923" lon="-3.50835">
        <ele>10.622</ele>
        <time>2021-06-16T11:46:16Z</time>
      </trkpt>
      <trkpt lat="36.729903" lon="-3.508423">
        <ele>10.475</ele>
        <time>2021-06-16T11:46:17Z</time>
      </trkpt>
      <trkpt lat="36.729926" lon="-3.508605">
        <ele>10.222</ele>
        <time>2021-06-16T11:46:19Z</time>
      </trkpt>
      <trkpt lat="36.730016" lon="-3.508785">
        <ele>10.049</ele>
        <time>2021-06-16T11:46:21Z</time>
      </trkpt>
      <trkpt lat="36.73013" lon="-3.508978">
        <ele>9.799</ele>
        <time>2021-06-16T11:46:23Z</time>
      </trkpt>
      <trkpt lat="36.730187" lon="-3.509081">
        <ele>9.538</ele>
        <time>2021-06-16T11:46:24Z</time>
      </trkpt>
      <trkpt lat="36.730306" lon="-3.5093">
        <ele>9.570</ele>
        <time>2021-06-16T11:46:26Z</time>
      </trkpt>
      <trkpt lat="36.730422" lon="-3.50954">
        <ele>9.817</ele>
        <time>2021-06-16T11:46:28Z</time>
      </trkpt>
      <trkpt lat="36.730532" lon="-3.509788">
        <ele>10.208</ele>
        <time>2021-06-16T11:46:30Z</time>
      </trkpt>
      <trkpt lat="36.730639" lon="-3.510045">
        <ele>10.250</ele>
        <time>2021-06-16T11:46:32Z</time>
      </trkpt>
      <trkpt lat="36.730693" lon="-3.510177">
        <ele>10.768</ele>
        <time>2021-06-16T11:46:33Z</time>
      </trkpt>
      <trkpt lat="36.730795" lon="-3.510451">
        <ele>11.292</ele>
        <time>2021-06-16T11:46:35Z</time>
      </trkpt>
      <trkpt lat="36.7309" lon="-3.510732">
        <ele>11.911</ele>
        <time>2021-06-16T11:46:37Z</time>
      </trkpt>
      <trkpt lat="36.730947" lon="-3.510871">
        <ele>12.674</ele>
        <time>2021-06-16T11:46:38Z</time>
      </trkpt>
      <trkpt lat="36.731031" lon="-3.511158">
        <ele>13.371</ele>
        <time>2021-06-16T11:46:40Z</time>
      </trkpt>
      <trkpt lat="36.731074" lon="-3.511305">
        <ele>13.638</ele>
        <time>2021-06-16T11:46:41Z</time>
      </trkpt>
      <trkpt lat="36.731119" lon="-3.511451">
        <ele>14.018</ele>
        <time>2021-06-16T11:46:42Z</time>
      </trkpt>
      <trkpt lat="36.73116" lon="-3.511597">
        <ele>14.295</ele>
        <time>2021-06-16T11:46:43Z</time>
      </trkpt>
      <trkpt lat="36.731239" lon="-3.511897">
        <ele>14.949</ele>
        <time>2021-06-16T11:46:45Z</time>
      </trkpt>
      <trkpt lat="36.731277" lon="-3.51205">
        <ele>15.323</ele>
        <time>2021-06-16T11:46:46Z</time>
      </trkpt>
      <trkpt lat="36.731356" lon="-3.512361">
        <ele>15.508</ele>
        <time>2021-06-16T11:46:48Z</time>
      </trkpt>
      <trkpt lat="36.731397" lon="-3.512521">
        <ele>15.436</ele>
        <time>2021-06-16T11:46:49Z</time>
      </trkpt>
      <trkpt lat="36.731486" lon="-3.512844">
        <ele>15.694</ele>
        <time>2021-06-16T11:46:51Z</time>
      </trkpt>
      <trkpt lat="36.731531" lon="-3.513007">
        <ele>15.798</ele>
        <time>2021-06-16T11:46:52Z</time>
      </trkpt>
      <trkpt lat="36.731571" lon="-3.513169">
        <ele>16.167</ele>
        <time>2021-06-16T11:46:53Z</time>
      </trkpt>
      <trkpt lat="36.731656" lon="-3.513504">
        <ele>16.170</ele>
        <time>2021-06-16T11:46:55Z</time>
      </trkpt>
      <trkpt lat="36.73175" lon="-3.513845">
        <ele>15.917</ele>
        <time>2021-06-16T11:46:57Z</time>
      </trkpt>
      <trkpt lat="36.731796" lon="-3.514017">
        <ele>15.954</ele>
        <time>2021-06-16T11:46:58Z</time>
      </trkpt>
      <trkpt lat="36.731883" lon="-3.514355">
        <ele>16.044</ele>
        <time>2021-06-16T11:47:00Z</time>
      </trkpt>
      <trkpt lat="36.731925" lon="-3.514521">
        <ele>16.164</ele>
        <time>2021-06-16T11:47:01Z</time>
      </trkpt>
      <trkpt lat="36.731967" lon="-3.514687">
        <ele>16.306</ele>
        <time>2021-06-16T11:47:02Z</time>
      </trkpt>
      <trkpt lat="36.732008" lon="-3.514853">
        <ele>16.316</ele>
        <time>2021-06-16T11:47:03Z</time>
      </trkpt>
      <trkpt lat="36.732052" lon="-3.515021">
        <ele>15.908</ele>
        <time>2021-06-16T11:47:04Z</time>
      </trkpt>
      <trkpt lat="36.732099" lon="-3.51519">
        <ele>16.013</ele>
        <time>2021-06-16T11:47:05Z</time>
      </trkpt>
      <trkpt lat="36.73218" lon="-3.515521">
        <ele>15.861</ele>
        <time>2021-06-16T11:47:07Z</time>
      </trkpt>
      <trkpt lat="36.732218" lon="-3.515686">
        <ele>16.085</ele>
        <time>2021-06-16T11:47:08Z</time>
      </trkpt>
      <trkpt lat="36.732301" lon="-3.516017">
        <ele>15.934</ele>
        <time>2021-06-16T11:47:10Z</time>
      </trkpt>
      <trkpt lat="36.732344" lon="-3.516183">
        <ele>16.297</ele>
        <time>2021-06-16T11:47:11Z</time>
      </trkpt>
      <trkpt lat="36.732435" lon="-3.516521">
        <ele>16.054</ele>
        <time>2021-06-16T11:47:13Z</time>
      </trkpt>
      <trkpt lat="36.732525" lon="-3.516863">
        <ele>16.251</ele>
        <time>2021-06-16T11:47:15Z</time>
      </trkpt>
      <trkpt lat="36.732572" lon="-3.51704">
        <ele>16.361</ele>
        <time>2021-06-16T11:47:16Z</time>
      </trkpt>
      <trkpt lat="36.73262" lon="-3.517219">
        <ele>16.212</ele>
        <time>2021-06-16T11:47:17Z</time>
      </trkpt>
      <trkpt lat="36.732723" lon="-3.517585">
        <ele>16.032</ele>
        <time>2021-06-16T11:47:19Z</time>
      </trkpt>
      <trkpt lat="36.732774" lon="-3.517771">
        <ele>16.005</ele>
        <time>2021-06-16T11:47:20Z</time>
      </trkpt>
      <trkpt lat="36.732867" lon="-3.51814">
        <ele>16.008</ele>
        <time>2021-06-16T11:47:22Z</time>
      </trkpt>
      <trkpt lat="36.732962" lon="-3.518504">
        <ele>15.598</ele>
        <time>2021-06-16T11:47:24Z</time>
      </trkpt>
      <trkpt lat="36.73301" lon="-3.518688">
        <ele>15.186</ele>
        <time>2021-06-16T11:47:25Z</time>
      </trkpt>
      <trkpt lat="36.733058" lon="-3.518873">
        <ele>15.110</ele>
        <time>2021-06-16T11:47:26Z</time>
      </trkpt>
      <trkpt lat="36.733108" lon="-3.519058">
        <ele>15.039</ele>
        <time>2021-06-16T11:47:27Z</time>
      </trkpt>
      <trkpt lat="36.733209" lon="-3.519431">
        <ele>15.122</ele>
        <time>2021-06-16T11:47:29Z</time>
      </trkpt>
      <trkpt lat="36.733305" lon="-3.519807">
        <ele>14.729</ele>
        <time>2021-06-16T11:47:31Z</time>
      </trkpt>
      <trkpt lat="36.733353" lon="-3.519999">
        <ele>14.526</ele>
        <time>2021-06-16T11:47:32Z</time>
      </trkpt>
      <trkpt lat="36.733455" lon="-3.520391">
        <ele>14.066</ele>
        <time>2021-06-16T11:47:34Z</time>
      </trkpt>
      <trkpt lat="36.733507" lon="-3.520587">
        <ele>13.572</ele>
        <time>2021-06-16T11:47:35Z</time>
      </trkpt>
      <trkpt lat="36.733607" lon="-3.520973">
        <ele>13.513</ele>
        <time>2021-06-16T11:47:37Z</time>
      </trkpt>
      <trkpt lat="36.733657" lon="-3.521166">
        <ele>13.514</ele>
        <time>2021-06-16T11:47:38Z</time>
      </trkpt>
      <trkpt lat="36.733708" lon="-3.521359">
        <ele>13.508</ele>
        <time>2021-06-16T11:47:39Z</time>
      </trkpt>
      <trkpt lat="36.733807" lon="-3.521737">
        <ele>13.444</ele>
        <time>2021-06-16T11:47:41Z</time>
      </trkpt>
      <trkpt lat="36.73386" lon="-3.521926">
        <ele>12.952</ele>
        <time>2021-06-16T11:47:42Z</time>
      </trkpt>
      <trkpt lat="36.73396" lon="-3.522292">
        <ele>13.116</ele>
        <time>2021-06-16T11:47:44Z</time>
      </trkpt>
      <trkpt lat="36.734053" lon="-3.522655">
        <ele>13.335</ele>
        <time>2021-06-16T11:47:46Z</time>
      </trkpt>
      <trkpt lat="36.7341" lon="-3.522839">
        <ele>13.138</ele>
        <time>2021-06-16T11:47:47Z</time>
      </trkpt>
      <trkpt lat="36.734195" lon="-3.523207">
        <ele>13.255</ele>
        <time>2021-06-16T11:47:49Z</time>
      </trkpt>
      <trkpt lat="36.734245" lon="-3.52339">
        <ele>13.132</ele>
        <time>2021-06-16T11:47:50Z</time>
      </trkpt>
      <trkpt lat="36.734298" lon="-3.523581">
        <ele>13.062</ele>
        <time>2021-06-16T11:47:51Z</time>
      </trkpt>
      <trkpt lat="36.734405" lon="-3.523974">
        <ele>13.085</ele>
        <time>2021-06-16T11:47:53Z</time>
      </trkpt>
      <trkpt lat="36.734458" lon="-3.524171">
        <ele>13.089</ele>
        <time>2021-06-16T11:47:54Z</time>
      </trkpt>
      <trkpt lat="36.734568" lon="-3.524572">
        <ele>13.117</ele>
        <time>2021-06-16T11:47:56Z</time>
      </trkpt>
      <trkpt lat="36.734682" lon="-3.524983">
        <ele>12.908</ele>
        <time>2021-06-16T11:47:58Z</time>
      </trkpt>
      <trkpt lat="36.7348" lon="-3.525392">
        <ele>12.715</ele>
        <time>2021-06-16T11:48:00Z</time>
      </trkpt>
      <trkpt lat="36.734859" lon="-3.525597">
        <ele>12.293</ele>
        <time>2021-06-16T11:48:01Z</time>
      </trkpt>
      <trkpt lat="36.734974" lon="-3.525999">
        <ele>12.787</ele>
        <time>2021-06-16T11:48:03Z</time>
      </trkpt>
      <trkpt lat="36.735096" lon="-3.526399">
        <ele>13.136</ele>
        <time>2021-06-16T11:48:05Z</time>
      </trkpt>
      <trkpt lat="36.735213" lon="-3.526793">
        <ele>13.099</ele>
        <time>2021-06-16T11:48:07Z</time>
      </trkpt>
      <trkpt lat="36.735274" lon="-3.526989">
        <ele>12.526</ele>
        <time>2021-06-16T11:48:08Z</time>
      </trkpt>
      <trkpt lat="36.735398" lon="-3.527383">
        <ele>12.343</ele>
        <time>2021-06-16T11:48:10Z</time>
      </trkpt>
      <trkpt lat="36.735459" lon="-3.527578">
        <ele>12.213</ele>
        <time>2021-06-16T11:48:11Z</time>
      </trkpt>
      <trkpt lat="36.735517" lon="-3.52777">
        <ele>12.124</ele>
        <time>2021-06-16T11:48:12Z</time>
      </trkpt>
      <trkpt lat="36.735641" lon="-3.52816">
        <ele>12.104</ele>
        <time>2021-06-16T11:48:14Z</time>
      </trkpt>
      <trkpt lat="36.735763" lon="-3.528553">
        <ele>11.514</ele>
        <time>2021-06-16T11:48:16Z</time>
      </trkpt>
      <trkpt lat="36.735822" lon="-3.528754">
        <ele>11.608</ele>
        <time>2021-06-16T11:48:17Z</time>
      </trkpt>
      <trkpt lat="36.73595" lon="-3.529149">
        <ele>11.589</ele>
        <time>2021-06-16T11:48:19Z</time>
      </trkpt>
      <trkpt lat="36.736017" lon="-3.529346">
        <ele>11.787</ele>
        <time>2021-06-16T11:48:20Z</time>
      </trkpt>
      <trkpt lat="36.736081" lon="-3.529545">
        <ele>11.381</ele>
        <time>2021-06-16T11:48:21Z</time>
      </trkpt>
      <trkpt lat="36.73621" lon="-3.529942">
        <ele>10.920</ele>
        <time>2021-06-16T11:48:23Z</time>
      </trkpt>
      <trkpt lat="36.736273" lon="-3.530137">
        <ele>10.593</ele>
        <time>2021-06-16T11:48:24Z</time>
      </trkpt>
      <trkpt lat="36.736409" lon="-3.530538">
        <ele>10.080</ele>
        <time>2021-06-16T11:48:26Z</time>
      </trkpt>
      <trkpt lat="36.736541" lon="-3.53094">
        <ele>10.067</ele>
        <time>2021-06-16T11:48:28Z</time>
      </trkpt>
      <trkpt lat="36.736606" lon="-3.531141">
        <ele>10.177</ele>
        <time>2021-06-16T11:48:29Z</time>
      </trkpt>
      <trkpt lat="36.736731" lon="-3.531542">
        <ele>10.466</ele>
        <time>2021-06-16T11:48:31Z</time>
      </trkpt>
      <trkpt lat="36.736795" lon="-3.531746">
        <ele>10.729</ele>
        <time>2021-06-16T11:48:32Z</time>
      </trkpt>
      <trkpt lat="36.736863" lon="-3.531949">
        <ele>10.321</ele>
        <time>2021-06-16T11:48:33Z</time>
      </trkpt>
      <trkpt lat="36.736999" lon="-3.532356">
        <ele>11.008</ele>
        <time>2021-06-16T11:48:35Z</time>
      </trkpt>
      <trkpt lat="36.737137" lon="-3.532775">
        <ele>11.353</ele>
        <time>2021-06-16T11:48:37Z</time>
      </trkpt>
      <trkpt lat="36.737279" lon="-3.533195">
        <ele>11.061</ele>
        <time>2021-06-16T11:48:39Z</time>
      </trkpt>
      <trkpt lat="36.73735" lon="-3.533405">
        <ele>10.745</ele>
        <time>2021-06-16T11:48:40Z</time>
      </trkpt>
      <trkpt lat="36.73742" lon="-3.533615">
        <ele>10.384</ele>
        <time>2021-06-16T11:48:41Z</time>
      </trkpt>
      <trkpt lat="36.737562" lon="-3.534038">
        <ele>10.087</ele>
        <time>2021-06-16T11:48:43Z</time>
      </trkpt>
      <trkpt lat="36.737632" lon="-3.534248">
        <ele>10.174</ele>
        <time>2021-06-16T11:48:44Z</time>
      </trkpt>
      <trkpt lat="36.737701" lon="-3.534454">
        <ele>9.941</ele>
        <time>2021-06-16T11:48:45Z</time>
      </trkpt>
      <trkpt lat="36.737832" lon="-3.534868">
        <ele>9.531</ele>
        <time>2021-06-16T11:48:47Z</time>
      </trkpt>
      <trkpt lat="36.737961" lon="-3.535285">
        <ele>9.598</ele>
        <time>2021-06-16T11:48:49Z</time>
      </trkpt>
      <trkpt lat="36.73809" lon="-3.535697">
        <ele>8.815</ele>
        <time>2021-06-16T11:48:51Z</time>
      </trkpt>
      <trkpt lat="36.738217" lon="-3.536105">
        <ele>8.326</ele>
        <time>2021-06-16T11:48:53Z</time>
      </trkpt>
      <trkpt lat="36.738274" lon="-3.53631">
        <ele>8.008</ele>
        <time>2021-06-16T11:48:54Z</time>
      </trkpt>
      <trkpt lat="36.738392" lon="-3.536703">
        <ele>8.026</ele>
        <time>2021-06-16T11:48:56Z</time>
      </trkpt>
      <trkpt lat="36.738452" lon="-3.536895">
        <ele>7.544</ele>
        <time>2021-06-16T11:48:57Z</time>
      </trkpt>
      <trkpt lat="36.738566" lon="-3.53728">
        <ele>7.468</ele>
        <time>2021-06-16T11:48:59Z</time>
      </trkpt>
      <trkpt lat="36.738619" lon="-3.537472">
        <ele>7.427</ele>
        <time>2021-06-16T11:49:00Z</time>
      </trkpt>
      <trkpt lat="36.738672" lon="-3.537664">
        <ele>7.680</ele>
        <time>2021-06-16T11:49:01Z</time>
      </trkpt>
      <trkpt lat="36.738782" lon="-3.538042">
        <ele>7.827</ele>
        <time>2021-06-16T11:49:03Z</time>
      </trkpt>
      <trkpt lat="36.738884" lon="-3.53842">
        <ele>8.224</ele>
        <time>2021-06-16T11:49:05Z</time>
      </trkpt>
      <trkpt lat="36.738992" lon="-3.538799">
        <ele>8.024</ele>
        <time>2021-06-16T11:49:07Z</time>
      </trkpt>
      <trkpt lat="36.739095" lon="-3.539179">
        <ele>7.865</ele>
        <time>2021-06-16T11:49:09Z</time>
      </trkpt>
      <trkpt lat="36.739196" lon="-3.539551">
        <ele>7.968</ele>
        <time>2021-06-16T11:49:11Z</time>
      </trkpt>
      <trkpt lat="36.739297" lon="-3.539921">
        <ele>8.214</ele>
        <time>2021-06-16T11:49:13Z</time>
      </trkpt>
      <trkpt lat="36.739348" lon="-3.540105">
        <ele>8.608</ele>
        <time>2021-06-16T11:49:14Z</time>
      </trkpt>
      <trkpt lat="36.739448" lon="-3.540466">
        <ele>8.933</ele>
        <time>2021-06-16T11:49:16Z</time>
      </trkpt>
      <trkpt lat="36.739549" lon="-3.540829">
        <ele>9.351</ele>
        <time>2021-06-16T11:49:18Z</time>
      </trkpt>
      <trkpt lat="36.739599" lon="-3.541011">
        <ele>9.615</ele>
        <time>2021-06-16T11:49:19Z</time>
      </trkpt>
      <trkpt lat="36.739699" lon="-3.541378">
        <ele>9.794</ele>
        <time>2021-06-16T11:49:21Z</time>
      </trkpt>
      <trkpt lat="36.739754" lon="-3.541562">
        <ele>9.697</ele>
        <time>2021-06-16T11:49:22Z</time>
      </trkpt>
      <trkpt lat="36.739809" lon="-3.541751">
        <ele>10.034</ele>
        <time>2021-06-16T11:49:23Z</time>
      </trkpt>
      <trkpt lat="36.739863" lon="-3.541939">
        <ele>10.241</ele>
        <time>2021-06-16T11:49:24Z</time>
      </trkpt>
      <trkpt lat="36.739976" lon="-3.542301">
        <ele>9.961</ele>
        <time>2021-06-16T11:49:26Z</time>
      </trkpt>
      <trkpt lat="36.740076" lon="-3.542655">
        <ele>9.627</ele>
        <time>2021-06-16T11:49:28Z</time>
      </trkpt>
      <trkpt lat="36.740178" lon="-3.543006">
        <ele>9.468</ele>
        <time>2021-06-16T11:49:30Z</time>
      </trkpt>
      <trkpt lat="36.74028" lon="-3.543355">
        <ele>9.514</ele>
        <time>2021-06-16T11:49:32Z</time>
      </trkpt>
      <trkpt lat="36.740333" lon="-3.543529">
        <ele>9.008</ele>
        <time>2021-06-16T11:49:33Z</time>
      </trkpt>
      <trkpt lat="36.740386" lon="-3.5437">
        <ele>8.999</ele>
        <time>2021-06-16T11:49:34Z</time>
      </trkpt>
      <trkpt lat="36.740489" lon="-3.54404">
        <ele>8.677</ele>
        <time>2021-06-16T11:49:36Z</time>
      </trkpt>
      <trkpt lat="36.740541" lon="-3.544213">
        <ele>8.851</ele>
        <time>2021-06-16T11:49:37Z</time>
      </trkpt>
      <trkpt lat="36.740592" lon="-3.544385">
        <ele>8.620</ele>
        <time>2021-06-16T11:49:38Z</time>
      </trkpt>
      <trkpt lat="36.740692" lon="-3.544719">
        <ele>8.493</ele>
        <time>2021-06-16T11:49:40Z</time>
      </trkpt>
      <trkpt lat="36.740741" lon="-3.544886">
        <ele>8.140</ele>
        <time>2021-06-16T11:49:41Z</time>
      </trkpt>
      <trkpt lat="36.740833" lon="-3.545225">
        <ele>7.717</ele>
        <time>2021-06-16T11:49:43Z</time>
      </trkpt>
      <trkpt lat="36.74088" lon="-3.545391">
        <ele>7.847</ele>
        <time>2021-06-16T11:49:44Z</time>
      </trkpt>
      <trkpt lat="36.740927" lon="-3.545557">
        <ele>8.022</ele>
        <time>2021-06-16T11:49:45Z</time>
      </trkpt>
      <trkpt lat="36.740972" lon="-3.545723">
        <ele>7.962</ele>
        <time>2021-06-16T11:49:46Z</time>
      </trkpt>
      <trkpt lat="36.741073" lon="-3.546051">
        <ele>8.108</ele>
        <time>2021-06-16T11:49:48Z</time>
      </trkpt>
      <trkpt lat="36.741123" lon="-3.546216">
        <ele>7.708</ele>
        <time>2021-06-16T11:49:49Z</time>
      </trkpt>
      <trkpt lat="36.741223" lon="-3.546546">
        <ele>7.749</ele>
        <time>2021-06-16T11:49:51Z</time>
      </trkpt>
      <trkpt lat="36.741315" lon="-3.546869">
        <ele>7.517</ele>
        <time>2021-06-16T11:49:53Z</time>
      </trkpt>
      <trkpt lat="36.741361" lon="-3.547024">
        <ele>7.441</ele>
        <time>2021-06-16T11:49:54Z</time>
      </trkpt>
      <trkpt lat="36.741447" lon="-3.547332">
        <ele>7.650</ele>
        <time>2021-06-16T11:49:56Z</time>
      </trkpt>
      <trkpt lat="36.741489" lon="-3.547485">
        <ele>7.453</ele>
        <time>2021-06-16T11:49:57Z</time>
      </trkpt>
      <trkpt lat="36.741535" lon="-3.547634">
        <ele>7.620</ele>
        <time>2021-06-16T11:49:58Z</time>
      </trkpt>
      <trkpt lat="36.741625" lon="-3.547933">
        <ele>7.957</ele>
        <time>2021-06-16T11:50:00Z</time>
      </trkpt>
      <trkpt lat="36.741716" lon="-3.548252">
        <ele>7.997</ele>
        <time>2021-06-16T11:50:02Z</time>
      </trkpt>
      <trkpt lat="36.741762" lon="-3.548414">
        <ele>8.133</ele>
        <time>2021-06-16T11:50:03Z</time>
      </trkpt>
      <trkpt lat="36.741809" lon="-3.548577">
        <ele>7.823</ele>
        <time>2021-06-16T11:50:04Z</time>
      </trkpt>
      <trkpt lat="36.741898" lon="-3.548905">
        <ele>8.015</ele>
        <time>2021-06-16T11:50:06Z</time>
      </trkpt>
      <trkpt lat="36.741946" lon="-3.549069">
        <ele>8.208</ele>
        <time>2021-06-16T11:50:07Z</time>
      </trkpt>
      <trkpt lat="36.742044" lon="-3.549391">
        <ele>8.130</ele>
        <time>2021-06-16T11:50:09Z</time>
      </trkpt>
      <trkpt lat="36.742139" lon="-3.549707">
        <ele>8.138</ele>
        <time>2021-06-16T11:50:11Z</time>
      </trkpt>
      <trkpt lat="36.742235" lon="-3.550016">
        <ele>7.982</ele>
        <time>2021-06-16T11:50:13Z</time>
      </trkpt>
      <trkpt lat="36.742324" lon="-3.550343">
        <ele>7.451</ele>
        <time>2021-06-16T11:50:15Z</time>
      </trkpt>
      <trkpt lat="36.742373" lon="-3.550504">
        <ele>7.544</ele>
        <time>2021-06-16T11:50:16Z</time>
      </trkpt>
      <trkpt lat="36.742467" lon="-3.550828">
        <ele>7.461</ele>
        <time>2021-06-16T11:50:18Z</time>
      </trkpt>
      <trkpt lat="36.74256" lon="-3.551142">
        <ele>7.818</ele>
        <time>2021-06-16T11:50:20Z</time>
      </trkpt>
      <trkpt lat="36.742606" lon="-3.551298">
        <ele>7.878</ele>
        <time>2021-06-16T11:50:21Z</time>
      </trkpt>
      <trkpt lat="36.742696" lon="-3.551618">
        <ele>8.557</ele>
        <time>2021-06-16T11:50:23Z</time>
      </trkpt>
      <trkpt lat="36.742796" lon="-3.55193">
        <ele>8.800</ele>
        <time>2021-06-16T11:50:25Z</time>
      </trkpt>
      <trkpt lat="36.74284" lon="-3.552095">
        <ele>9.120</ele>
        <time>2021-06-16T11:50:26Z</time>
      </trkpt>
      <trkpt lat="36.742924" lon="-3.552422">
        <ele>9.508</ele>
        <time>2021-06-16T11:50:28Z</time>
      </trkpt>
      <trkpt lat="36.742966" lon="-3.552587">
        <ele>9.642</ele>
        <time>2021-06-16T11:50:29Z</time>
      </trkpt>
      <trkpt lat="36.743057" lon="-3.55292">
        <ele>9.620</ele>
        <time>2021-06-16T11:50:31Z</time>
      </trkpt>
      <trkpt lat="36.743151" lon="-3.553246">
        <ele>9.954</ele>
        <time>2021-06-16T11:50:33Z</time>
      </trkpt>
      <trkpt lat="36.743193" lon="-3.553415">
        <ele>10.233</ele>
        <time>2021-06-16T11:50:34Z</time>
      </trkpt>
      <trkpt lat="36.743232" lon="-3.553599">
        <ele>10.196</ele>
        <time>2021-06-16T11:50:35Z</time>
      </trkpt>
      <trkpt lat="36.743311" lon="-3.553944">
        <ele>10.293</ele>
        <time>2021-06-16T11:50:37Z</time>
      </trkpt>
      <trkpt lat="36.743355" lon="-3.554121">
        <ele>10.220</ele>
        <time>2021-06-16T11:50:38Z</time>
      </trkpt>
      <trkpt lat="36.74343" lon="-3.554481">
        <ele>10.260</ele>
        <time>2021-06-16T11:50:40Z</time>
      </trkpt>
      <trkpt lat="36.743506" lon="-3.554841">
        <ele>10.333</ele>
        <time>2021-06-16T11:50:42Z</time>
      </trkpt>
      <trkpt lat="36.743584" lon="-3.555196">
        <ele>10.523</ele>
        <time>2021-06-16T11:50:44Z</time>
      </trkpt>
      <trkpt lat="36.743649" lon="-3.555563">
        <ele>10.515</ele>
        <time>2021-06-16T11:50:46Z</time>
      </trkpt>
      <trkpt lat="36.743707" lon="-3.555937">
        <ele>10.508</ele>
        <time>2021-06-16T11:50:48Z</time>
      </trkpt>
      <trkpt lat="36.743768" lon="-3.55631">
        <ele>10.410</ele>
        <time>2021-06-16T11:50:50Z</time>
      </trkpt>
      <trkpt lat="36.743799" lon="-3.556496">
        <ele>10.578</ele>
        <time>2021-06-16T11:50:51Z</time>
      </trkpt>
      <trkpt lat="36.743832" lon="-3.556681">
        <ele>11.022</ele>
        <time>2021-06-16T11:50:52Z</time>
      </trkpt>
      <trkpt lat="36.743861" lon="-3.556869">
        <ele>11.441</ele>
        <time>2021-06-16T11:50:53Z</time>
      </trkpt>
      <trkpt lat="36.743926" lon="-3.55724">
        <ele>11.914</ele>
        <time>2021-06-16T11:50:55Z</time>
      </trkpt>
      <trkpt lat="36.743986" lon="-3.55761">
        <ele>12.691</ele>
        <time>2021-06-16T11:50:57Z</time>
      </trkpt>
      <trkpt lat="36.744017" lon="-3.557796">
        <ele>12.958</ele>
        <time>2021-06-16T11:50:58Z</time>
      </trkpt>
      <trkpt lat="36.744048" lon="-3.557983">
        <ele>13.428</ele>
        <time>2021-06-16T11:50:59Z</time>
      </trkpt>
      <trkpt lat="36.744079" lon="-3.558166">
        <ele>13.876</ele>
        <time>2021-06-16T11:51:00Z</time>
      </trkpt>
      <trkpt lat="36.744111" lon="-3.558346">
        <ele>13.890</ele>
        <time>2021-06-16T11:51:01Z</time>
      </trkpt>
      <trkpt lat="36.744178" lon="-3.55871">
        <ele>14.319</ele>
        <time>2021-06-16T11:51:03Z</time>
      </trkpt>
      <trkpt lat="36.744245" lon="-3.559079">
        <ele>14.708</ele>
        <time>2021-06-16T11:51:05Z</time>
      </trkpt>
      <trkpt lat="36.74428" lon="-3.559261">
        <ele>14.954</ele>
        <time>2021-06-16T11:51:06Z</time>
      </trkpt>
      <trkpt lat="36.744314" lon="-3.55944">
        <ele>15.492</ele>
        <time>2021-06-16T11:51:07Z</time>
      </trkpt>
      <trkpt lat="36.744374" lon="-3.559801">
        <ele>16.356</ele>
        <time>2021-06-16T11:51:09Z</time>
      </trkpt>
      <trkpt lat="36.744404" lon="-3.559985">
        <ele>17.215</ele>
        <time>2021-06-16T11:51:10Z</time>
      </trkpt>
      <trkpt lat="36.744435" lon="-3.560167">
        <ele>17.738</ele>
        <time>2021-06-16T11:51:11Z</time>
      </trkpt>
      <trkpt lat="36.744492" lon="-3.56053">
        <ele>18.445</ele>
        <time>2021-06-16T11:51:13Z</time>
      </trkpt>
      <trkpt lat="36.744554" lon="-3.560894">
        <ele>19.042</ele>
        <time>2021-06-16T11:51:15Z</time>
      </trkpt>
      <trkpt lat="36.744616" lon="-3.561259">
        <ele>20.112</ele>
        <time>2021-06-16T11:51:17Z</time>
      </trkpt>
      <trkpt lat="36.744677" lon="-3.561623">
        <ele>21.545</ele>
        <time>2021-06-16T11:51:19Z</time>
      </trkpt>
      <trkpt lat="36.74471" lon="-3.561806">
        <ele>22.147</ele>
        <time>2021-06-16T11:51:20Z</time>
      </trkpt>
      <trkpt lat="36.744771" lon="-3.562174">
        <ele>23.111</ele>
        <time>2021-06-16T11:51:22Z</time>
      </trkpt>
      <trkpt lat="36.74483" lon="-3.562547">
        <ele>24.208</ele>
        <time>2021-06-16T11:51:24Z</time>
      </trkpt>
      <trkpt lat="36.744896" lon="-3.562915">
        <ele>24.791</ele>
        <time>2021-06-16T11:51:26Z</time>
      </trkpt>
      <trkpt lat="36.744924" lon="-3.563106">
        <ele>25.059</ele>
        <time>2021-06-16T11:51:27Z</time>
      </trkpt>
      <trkpt lat="36.744978" lon="-3.563488">
        <ele>25.333</ele>
        <time>2021-06-16T11:51:29Z</time>
      </trkpt>
      <trkpt lat="36.745033" lon="-3.563886">
        <ele>25.032</ele>
        <time>2021-06-16T11:51:31Z</time>
      </trkpt>
      <trkpt lat="36.745084" lon="-3.564284">
        <ele>24.945</ele>
        <time>2021-06-16T11:51:33Z</time>
      </trkpt>
      <trkpt lat="36.745109" lon="-3.564488">
        <ele>25.132</ele>
        <time>2021-06-16T11:51:34Z</time>
      </trkpt>
      <trkpt lat="36.745151" lon="-3.564894">
        <ele>25.349</ele>
        <time>2021-06-16T11:51:36Z</time>
      </trkpt>
      <trkpt lat="36.745185" lon="-3.565301">
        <ele>25.369</ele>
        <time>2021-06-16T11:51:38Z</time>
      </trkpt>
      <trkpt lat="36.745202" lon="-3.565506">
        <ele>25.645</ele>
        <time>2021-06-16T11:51:39Z</time>
      </trkpt>
      <trkpt lat="36.745237" lon="-3.565918">
        <ele>25.347</ele>
        <time>2021-06-16T11:51:41Z</time>
      </trkpt>
      <trkpt lat="36.745253" lon="-3.566131">
        <ele>24.811</ele>
        <time>2021-06-16T11:51:42Z</time>
      </trkpt>
      <trkpt lat="36.745286" lon="-3.566548">
        <ele>24.108</ele>
        <time>2021-06-16T11:51:44Z</time>
      </trkpt>
      <trkpt lat="36.745316" lon="-3.566947">
        <ele>23.881</ele>
        <time>2021-06-16T11:51:46Z</time>
      </trkpt>
      <trkpt lat="36.745327" lon="-3.567143">
        <ele>23.589</ele>
        <time>2021-06-16T11:51:47Z</time>
      </trkpt>
      <trkpt lat="36.745339" lon="-3.567547">
        <ele>23.463</ele>
        <time>2021-06-16T11:51:49Z</time>
      </trkpt>
      <trkpt lat="36.745362" lon="-3.567943">
        <ele>23.392</ele>
        <time>2021-06-16T11:51:51Z</time>
      </trkpt>
      <trkpt lat="36.745371" lon="-3.568144">
        <ele>23.215</ele>
        <time>2021-06-16T11:51:52Z</time>
      </trkpt>
      <trkpt lat="36.74538" lon="-3.568345">
        <ele>23.472</ele>
        <time>2021-06-16T11:51:53Z</time>
      </trkpt>
      <trkpt lat="36.74539" lon="-3.568548">
        <ele>23.179</ele>
        <time>2021-06-16T11:51:54Z</time>
      </trkpt>
      <trkpt lat="36.745408" lon="-3.568746">
        <ele>22.369</ele>
        <time>2021-06-16T11:51:55Z</time>
      </trkpt>
      <trkpt lat="36.745445" lon="-3.569139">
        <ele>22.058</ele>
        <time>2021-06-16T11:51:57Z</time>
      </trkpt>
      <trkpt lat="36.745474" lon="-3.569535">
        <ele>22.252</ele>
        <time>2021-06-16T11:51:59Z</time>
      </trkpt>
      <trkpt lat="36.745487" lon="-3.569732">
        <ele>21.817</ele>
        <time>2021-06-16T11:52:00Z</time>
      </trkpt>
      <trkpt lat="36.745497" lon="-3.569934">
        <ele>22.008</ele>
        <time>2021-06-16T11:52:01Z</time>
      </trkpt>
      <trkpt lat="36.745509" lon="-3.570137">
        <ele>22.482</ele>
        <time>2021-06-16T11:52:02Z</time>
      </trkpt>
      <trkpt lat="36.745537" lon="-3.570544">
        <ele>22.190</ele>
        <time>2021-06-16T11:52:04Z</time>
      </trkpt>
      <trkpt lat="36.745556" lon="-3.570958">
        <ele>22.194</ele>
        <time>2021-06-16T11:52:06Z</time>
      </trkpt>
      <trkpt lat="36.745577" lon="-3.571372">
        <ele>22.083</ele>
        <time>2021-06-16T11:52:08Z</time>
      </trkpt>
      <trkpt lat="36.745588" lon="-3.571577">
        <ele>21.616</ele>
        <time>2021-06-16T11:52:09Z</time>
      </trkpt>
      <trkpt lat="36.745608" lon="-3.57199">
        <ele>21.413</ele>
        <time>2021-06-16T11:52:11Z</time>
      </trkpt>
      <trkpt lat="36.745635" lon="-3.572405">
        <ele>21.390</ele>
        <time>2021-06-16T11:52:13Z</time>
      </trkpt>
      <trkpt lat="36.745661" lon="-3.572826">
        <ele>21.080</ele>
        <time>2021-06-16T11:52:15Z</time>
      </trkpt>
      <trkpt lat="36.745675" lon="-3.573037">
        <ele>20.981</ele>
        <time>2021-06-16T11:52:16Z</time>
      </trkpt>
      <trkpt lat="36.745703" lon="-3.573447">
        <ele>20.961</ele>
        <time>2021-06-16T11:52:18Z</time>
      </trkpt>
      <trkpt lat="36.745725" lon="-3.573857">
        <ele>20.917</ele>
        <time>2021-06-16T11:52:20Z</time>
      </trkpt>
      <trkpt lat="36.745737" lon="-3.574063">
        <ele>20.908</ele>
        <time>2021-06-16T11:52:21Z</time>
      </trkpt>
      <trkpt lat="36.745748" lon="-3.57427">
        <ele>20.725</ele>
        <time>2021-06-16T11:52:22Z</time>
      </trkpt>
      <trkpt lat="36.745765" lon="-3.574478">
        <ele>20.633</ele>
        <time>2021-06-16T11:52:23Z</time>
      </trkpt>
      <trkpt lat="36.7458" lon="-3.574885">
        <ele>20.487</ele>
        <time>2021-06-16T11:52:25Z</time>
      </trkpt>
      <trkpt lat="36.745808" lon="-3.575082">
        <ele>20.426</ele>
        <time>2021-06-16T11:52:26Z</time>
      </trkpt>
      <trkpt lat="36.745823" lon="-3.575472">
        <ele>20.559</ele>
        <time>2021-06-16T11:52:28Z</time>
      </trkpt>
      <trkpt lat="36.745835" lon="-3.575666">
        <ele>20.376</ele>
        <time>2021-06-16T11:52:29Z</time>
      </trkpt>
      <trkpt lat="36.745862" lon="-3.576065">
        <ele>20.443</ele>
        <time>2021-06-16T11:52:31Z</time>
      </trkpt>
      <trkpt lat="36.745873" lon="-3.576264">
        <ele>20.593</ele>
        <time>2021-06-16T11:52:32Z</time>
      </trkpt>
      <trkpt lat="36.745896" lon="-3.576666">
        <ele>20.599</ele>
        <time>2021-06-16T11:52:34Z</time>
      </trkpt>
      <trkpt lat="36.745907" lon="-3.576874">
        <ele>20.507</ele>
        <time>2021-06-16T11:52:35Z</time>
      </trkpt>
      <trkpt lat="36.74593" lon="-3.577294">
        <ele>20.527</ele>
        <time>2021-06-16T11:52:37Z</time>
      </trkpt>
      <trkpt lat="36.745944" lon="-3.577505">
        <ele>20.308</ele>
        <time>2021-06-16T11:52:38Z</time>
      </trkpt>
      <trkpt lat="36.745975" lon="-3.577918">
        <ele>20.696</ele>
        <time>2021-06-16T11:52:40Z</time>
      </trkpt>
      <trkpt lat="36.745989" lon="-3.578119">
        <ele>20.654</ele>
        <time>2021-06-16T11:52:41Z</time>
      </trkpt>
      <trkpt lat="36.746015" lon="-3.578527">
        <ele>19.958</ele>
        <time>2021-06-16T11:52:43Z</time>
      </trkpt>
      <trkpt lat="36.746031" lon="-3.578932">
        <ele>19.917</ele>
        <time>2021-06-16T11:52:45Z</time>
      </trkpt>
      <trkpt lat="36.746058" lon="-3.579326">
        <ele>19.280</ele>
        <time>2021-06-16T11:52:47Z</time>
      </trkpt>
      <trkpt lat="36.746073" lon="-3.579527">
        <ele>18.747</ele>
        <time>2021-06-16T11:52:48Z</time>
      </trkpt>
      <trkpt lat="36.746099" lon="-3.579929">
        <ele>18.244</ele>
        <time>2021-06-16T11:52:50Z</time>
      </trkpt>
      <trkpt lat="36.74613" lon="-3.580327">
        <ele>17.854</ele>
        <time>2021-06-16T11:52:52Z</time>
      </trkpt>
      <trkpt lat="36.746144" lon="-3.580527">
        <ele>17.611</ele>
        <time>2021-06-16T11:52:53Z</time>
      </trkpt>
      <trkpt lat="36.74617" lon="-3.580927">
        <ele>17.621</ele>
        <time>2021-06-16T11:52:55Z</time>
      </trkpt>
      <trkpt lat="36.74618" lon="-3.581132">
        <ele>17.803</ele>
        <time>2021-06-16T11:52:56Z</time>
      </trkpt>
      <trkpt lat="36.746188" lon="-3.581337">
        <ele>17.608</ele>
        <time>2021-06-16T11:52:57Z</time>
      </trkpt>
      <trkpt lat="36.746211" lon="-3.58175">
        <ele>17.578</ele>
        <time>2021-06-16T11:52:59Z</time>
      </trkpt>
      <trkpt lat="36.746238" lon="-3.582151">
        <ele>17.976</ele>
        <time>2021-06-16T11:53:01Z</time>
      </trkpt>
      <trkpt lat="36.746249" lon="-3.582359">
        <ele>18.120</ele>
        <time>2021-06-16T11:53:02Z</time>
      </trkpt>
      <trkpt lat="36.746262" lon="-3.58257">
        <ele>17.769</ele>
        <time>2021-06-16T11:53:03Z</time>
      </trkpt>
      <trkpt lat="36.7463" lon="-3.582968">
        <ele>17.612</ele>
        <time>2021-06-16T11:53:05Z</time>
      </trkpt>
      <trkpt lat="36.746378" lon="-3.583342">
        <ele>17.629</ele>
        <time>2021-06-16T11:53:07Z</time>
      </trkpt>
      <trkpt lat="36.746509" lon="-3.58369">
        <ele>17.656</ele>
        <time>2021-06-16T11:53:09Z</time>
      </trkpt>
      <trkpt lat="36.746585" lon="-3.58386">
        <ele>17.756</ele>
        <time>2021-06-16T11:53:10Z</time>
      </trkpt>
      <trkpt lat="36.746742" lon="-3.584201">
        <ele>17.537</ele>
        <time>2021-06-16T11:53:12Z</time>
      </trkpt>
      <trkpt lat="36.746823" lon="-3.584377">
        <ele>17.649</ele>
        <time>2021-06-16T11:53:13Z</time>
      </trkpt>
      <trkpt lat="36.746988" lon="-3.584723">
        <ele>17.513</ele>
        <time>2021-06-16T11:53:15Z</time>
      </trkpt>
      <trkpt lat="36.747145" lon="-3.585068">
        <ele>17.808</ele>
        <time>2021-06-16T11:53:17Z</time>
      </trkpt>
      <trkpt lat="36.747299" lon="-3.585404">
        <ele>18.330</ele>
        <time>2021-06-16T11:53:19Z</time>
      </trkpt>
      <trkpt lat="36.74745" lon="-3.585744">
        <ele>18.898</ele>
        <time>2021-06-16T11:53:21Z</time>
      </trkpt>
      <trkpt lat="36.747527" lon="-3.585918">
        <ele>18.892</ele>
        <time>2021-06-16T11:53:22Z</time>
      </trkpt>
      <trkpt lat="36.747684" lon="-3.586265">
        <ele>19.121</ele>
        <time>2021-06-16T11:53:24Z</time>
      </trkpt>
      <trkpt lat="36.747761" lon="-3.58644">
        <ele>19.034</ele>
        <time>2021-06-16T11:53:25Z</time>
      </trkpt>
      <trkpt lat="36.747834" lon="-3.586615">
        <ele>19.671</ele>
        <time>2021-06-16T11:53:26Z</time>
      </trkpt>
      <trkpt lat="36.747988" lon="-3.586958">
        <ele>19.938</ele>
        <time>2021-06-16T11:53:28Z</time>
      </trkpt>
      <trkpt lat="36.748068" lon="-3.587129">
        <ele>20.188</ele>
        <time>2021-06-16T11:53:29Z</time>
      </trkpt>
      <trkpt lat="36.748144" lon="-3.587301">
        <ele>20.691</ele>
        <time>2021-06-16T11:53:30Z</time>
      </trkpt>
      <trkpt lat="36.748216" lon="-3.58747">
        <ele>20.881</ele>
        <time>2021-06-16T11:53:31Z</time>
      </trkpt>
      <trkpt lat="36.748287" lon="-3.587637">
        <ele>20.719</ele>
        <time>2021-06-16T11:53:32Z</time>
      </trkpt>
      <trkpt lat="36.74843" lon="-3.587974">
        <ele>20.908</ele>
        <time>2021-06-16T11:53:34Z</time>
      </trkpt>
      <trkpt lat="36.748505" lon="-3.588144">
        <ele>21.036</ele>
        <time>2021-06-16T11:53:35Z</time>
      </trkpt>
      <trkpt lat="36.748582" lon="-3.588309">
        <ele>21.014</ele>
        <time>2021-06-16T11:53:36Z</time>
      </trkpt>
      <trkpt lat="36.748738" lon="-3.588642">
        <ele>21.158</ele>
        <time>2021-06-16T11:53:38Z</time>
      </trkpt>
      <trkpt lat="36.748874" lon="-3.58898">
        <ele>21.187</ele>
        <time>2021-06-16T11:53:40Z</time>
      </trkpt>
      <trkpt lat="36.748978" lon="-3.589323">
        <ele>21.230</ele>
        <time>2021-06-16T11:53:42Z</time>
      </trkpt>
      <trkpt lat="36.749021" lon="-3.589691">
        <ele>22.587</ele>
        <time>2021-06-16T11:53:44Z</time>
      </trkpt>
      <trkpt lat="36.749013" lon="-3.589881">
        <ele>23.634</ele>
        <time>2021-06-16T11:53:45Z</time>
      </trkpt>
      <trkpt lat="36.748975" lon="-3.590247">
        <ele>24.544</ele>
        <time>2021-06-16T11:53:47Z</time>
      </trkpt>
      <trkpt lat="36.748945" lon="-3.590421">
        <ele>24.752</ele>
        <time>2021-06-16T11:53:48Z</time>
      </trkpt>
      <trkpt lat="36.748848" lon="-3.590755">
        <ele>25.553</ele>
        <time>2021-06-16T11:53:50Z</time>
      </trkpt>
      <trkpt lat="36.748786" lon="-3.590917">
        <ele>26.508</ele>
        <time>2021-06-16T11:53:51Z</time>
      </trkpt>
      <trkpt lat="36.748635" lon="-3.591232">
        <ele>28.008</ele>
        <time>2021-06-16T11:53:53Z</time>
      </trkpt>
      <trkpt lat="36.748472" lon="-3.591522">
        <ele>28.922</ele>
        <time>2021-06-16T11:53:55Z</time>
      </trkpt>
      <trkpt lat="36.748379" lon="-3.591657">
        <ele>29.490</ele>
        <time>2021-06-16T11:53:56Z</time>
      </trkpt>
      <trkpt lat="36.748192" lon="-3.591943">
        <ele>31.034</ele>
        <time>2021-06-16T11:53:58Z</time>
      </trkpt>
      <trkpt lat="36.748095" lon="-3.592073">
        <ele>32.153</ele>
        <time>2021-06-16T11:53:59Z</time>
      </trkpt>
      <trkpt lat="36.748002" lon="-3.592198">
        <ele>32.766</ele>
        <time>2021-06-16T11:54:00Z</time>
      </trkpt>
      <trkpt lat="36.747821" lon="-3.592453">
        <ele>33.113</ele>
        <time>2021-06-16T11:54:02Z</time>
      </trkpt>
      <trkpt lat="36.747737" lon="-3.592587">
        <ele>33.950</ele>
        <time>2021-06-16T11:54:03Z</time>
      </trkpt>
      <trkpt lat="36.747658" lon="-3.592726">
        <ele>35.180</ele>
        <time>2021-06-16T11:54:04Z</time>
      </trkpt>
      <trkpt lat="36.747542" lon="-3.593017">
        <ele>36.362</ele>
        <time>2021-06-16T11:54:06Z</time>
      </trkpt>
      <trkpt lat="36.747461" lon="-3.593343">
        <ele>37.783</ele>
        <time>2021-06-16T11:54:08Z</time>
      </trkpt>
      <trkpt lat="36.747433" lon="-3.593687">
        <ele>39.111</ele>
        <time>2021-06-16T11:54:10Z</time>
      </trkpt>
      <trkpt lat="36.747431" lon="-3.593864">
        <ele>40.208</ele>
        <time>2021-06-16T11:54:11Z</time>
      </trkpt>
      <trkpt lat="36.747461" lon="-3.594216">
        <ele>41.653</ele>
        <time>2021-06-16T11:54:13Z</time>
      </trkpt>
      <trkpt lat="36.747509" lon="-3.59457">
        <ele>43.211</ele>
        <time>2021-06-16T11:54:15Z</time>
      </trkpt>
      <trkpt lat="36.747534" lon="-3.594749">
        <ele>44.915</ele>
        <time>2021-06-16T11:54:16Z</time>
      </trkpt>
      <trkpt lat="36.74756" lon="-3.59493">
        <ele>46.324</ele>
        <time>2021-06-16T11:54:17Z</time>
      </trkpt>
      <trkpt lat="36.747582" lon="-3.595113">
        <ele>47.217</ele>
        <time>2021-06-16T11:54:18Z</time>
      </trkpt>
      <trkpt lat="36.74762" lon="-3.595481">
        <ele>48.244</ele>
        <time>2021-06-16T11:54:20Z</time>
      </trkpt>
      <trkpt lat="36.747631" lon="-3.595672">
        <ele>49.111</ele>
        <time>2021-06-16T11:54:21Z</time>
      </trkpt>
      <trkpt lat="36.747609" lon="-3.596061">
        <ele>49.111</ele>
        <time>2021-06-16T11:54:23Z</time>
      </trkpt>
      <trkpt lat="36.747591" lon="-3.596254">
        <ele>48.829</ele>
        <time>2021-06-16T11:54:24Z</time>
      </trkpt>
      <trkpt lat="36.747572" lon="-3.596446">
        <ele>48.900</ele>
        <time>2021-06-16T11:54:25Z</time>
      </trkpt>
      <trkpt lat="36.747516" lon="-3.596821">
        <ele>48.620</ele>
        <time>2021-06-16T11:54:27Z</time>
      </trkpt>
      <trkpt lat="36.747486" lon="-3.597002">
        <ele>48.108</ele>
        <time>2021-06-16T11:54:28Z</time>
      </trkpt>
      <trkpt lat="36.74744" lon="-3.597341">
        <ele>46.849</ele>
        <time>2021-06-16T11:54:30Z</time>
      </trkpt>
      <trkpt lat="36.747407" lon="-3.597666">
        <ele>45.527</ele>
        <time>2021-06-16T11:54:32Z</time>
      </trkpt>
      <trkpt lat="36.747392" lon="-3.598005">
        <ele>44.451</ele>
        <time>2021-06-16T11:54:34Z</time>
      </trkpt>
      <trkpt lat="36.747394" lon="-3.598172">
        <ele>43.820</ele>
        <time>2021-06-16T11:54:35Z</time>
      </trkpt>
      <trkpt lat="36.747454" lon="-3.598488">
        <ele>43.153</ele>
        <time>2021-06-16T11:54:37Z</time>
      </trkpt>
      <trkpt lat="36.747507" lon="-3.598641">
        <ele>42.580</ele>
        <time>2021-06-16T11:54:38Z</time>
      </trkpt>
      <trkpt lat="36.747574" lon="-3.598789">
        <ele>41.217</ele>
        <time>2021-06-16T11:54:39Z</time>
      </trkpt>
      <trkpt lat="36.747647" lon="-3.598935">
        <ele>40.047</ele>
        <time>2021-06-16T11:54:40Z</time>
      </trkpt>
      <trkpt lat="36.747834" lon="-3.599199">
        <ele>39.436</ele>
        <time>2021-06-16T11:54:42Z</time>
      </trkpt>
      <trkpt lat="36.748083" lon="-3.599384">
        <ele>39.017</ele>
        <time>2021-06-16T11:54:44Z</time>
      </trkpt>
      <trkpt lat="36.748336" lon="-3.599566">
        <ele>38.318</ele>
        <time>2021-06-16T11:54:46Z</time>
      </trkpt>
      <trkpt lat="36.748461" lon="-3.599656">
        <ele>38.008</ele>
        <time>2021-06-16T11:54:47Z</time>
      </trkpt>
      <trkpt lat="36.748672" lon="-3.599882">
        <ele>37.290</ele>
        <time>2021-06-16T11:54:49Z</time>
      </trkpt>
      <trkpt lat="36.748754" lon="-3.600018">
        <ele>36.458</ele>
        <time>2021-06-16T11:54:50Z</time>
      </trkpt>
      <trkpt lat="36.748838" lon="-3.600347">
        <ele>35.972</ele>
        <time>2021-06-16T11:54:52Z</time>
      </trkpt>
      <trkpt lat="36.748837" lon="-3.600523">
        <ele>35.571</ele>
        <time>2021-06-16T11:54:53Z</time>
      </trkpt>
      <trkpt lat="36.748756" lon="-3.600848">
        <ele>35.324</ele>
        <time>2021-06-16T11:54:55Z</time>
      </trkpt>
      <trkpt lat="36.748625" lon="-3.601096">
        <ele>35.781</ele>
        <time>2021-06-16T11:54:57Z</time>
      </trkpt>
      <trkpt lat="36.748427" lon="-3.601274">
        <ele>35.838</ele>
        <time>2021-06-16T11:54:59Z</time>
      </trkpt>
      <trkpt lat="36.748208" lon="-3.601405">
        <ele>36.118</ele>
        <time>2021-06-16T11:55:01Z</time>
      </trkpt>
      <trkpt lat="36.747979" lon="-3.601524">
        <ele>36.542</ele>
        <time>2021-06-16T11:55:03Z</time>
      </trkpt>
      <trkpt lat="36.747743" lon="-3.601648">
        <ele>37.022</ele>
        <time>2021-06-16T11:55:05Z</time>
      </trkpt>
      <trkpt lat="36.747625" lon="-3.601718">
        <ele>37.714</ele>
        <time>2021-06-16T11:55:06Z</time>
      </trkpt>
      <trkpt lat="36.747512" lon="-3.6018">
        <ele>38.708</ele>
        <time>2021-06-16T11:55:07Z</time>
      </trkpt>
      <trkpt lat="36.747318" lon="-3.602024">
        <ele>40.121</ele>
        <time>2021-06-16T11:55:09Z</time>
      </trkpt>
      <trkpt lat="36.747144" lon="-3.602272">
        <ele>41.179</ele>
        <time>2021-06-16T11:55:11Z</time>
      </trkpt>
      <trkpt lat="36.74701" lon="-3.602592">
        <ele>42.453</ele>
        <time>2021-06-16T11:55:13Z</time>
      </trkpt>
      <trkpt lat="36.746908" lon="-3.602958">
        <ele>44.412</ele>
        <time>2021-06-16T11:55:15Z</time>
      </trkpt>
      <trkpt lat="36.746807" lon="-3.603319">
        <ele>46.245</ele>
        <time>2021-06-16T11:55:17Z</time>
      </trkpt>
      <trkpt lat="36.746651" lon="-3.60362">
        <ele>48.812</ele>
        <time>2021-06-16T11:55:19Z</time>
      </trkpt>
      <trkpt lat="36.746428" lon="-3.60383">
        <ele>51.349</ele>
        <time>2021-06-16T11:55:21Z</time>
      </trkpt>
      <trkpt lat="36.746299" lon="-3.60391">
        <ele>53.559</ele>
        <time>2021-06-16T11:55:22Z</time>
      </trkpt>
      <trkpt lat="36.746043" lon="-3.604073">
        <ele>56.197</ele>
        <time>2021-06-16T11:55:24Z</time>
      </trkpt>
      <trkpt lat="36.745933" lon="-3.604181">
        <ele>58.223</ele>
        <time>2021-06-16T11:55:25Z</time>
      </trkpt>
      <trkpt lat="36.745763" lon="-3.604464">
        <ele>60.025</ele>
        <time>2021-06-16T11:55:27Z</time>
      </trkpt>
      <trkpt lat="36.745705" lon="-3.604625">
        <ele>61.808</ele>
        <time>2021-06-16T11:55:28Z</time>
      </trkpt>
      <trkpt lat="36.745653" lon="-3.604976">
        <ele>63.716</ele>
        <time>2021-06-16T11:55:30Z</time>
      </trkpt>
      <trkpt lat="36.745689" lon="-3.605321">
        <ele>65.194</ele>
        <time>2021-06-16T11:55:32Z</time>
      </trkpt>
      <trkpt lat="36.745711" lon="-3.605494">
        <ele>66.588</ele>
        <time>2021-06-16T11:55:33Z</time>
      </trkpt>
      <trkpt lat="36.745793" lon="-3.605831">
        <ele>68.027</ele>
        <time>2021-06-16T11:55:35Z</time>
      </trkpt>
      <trkpt lat="36.745879" lon="-3.60618">
        <ele>69.490</ele>
        <time>2021-06-16T11:55:37Z</time>
      </trkpt>
      <trkpt lat="36.745953" lon="-3.606536">
        <ele>71.067</ele>
        <time>2021-06-16T11:55:39Z</time>
      </trkpt>
      <trkpt lat="36.746009" lon="-3.606904">
        <ele>72.064</ele>
        <time>2021-06-16T11:55:41Z</time>
      </trkpt>
      <trkpt lat="36.746032" lon="-3.607083">
        <ele>72.914</ele>
        <time>2021-06-16T11:55:42Z</time>
      </trkpt>
      <trkpt lat="36.74605" lon="-3.60726">
        <ele>73.535</ele>
        <time>2021-06-16T11:55:43Z</time>
      </trkpt>
      <trkpt lat="36.746077" lon="-3.607623">
        <ele>74.086</ele>
        <time>2021-06-16T11:55:45Z</time>
      </trkpt>
      <trkpt lat="36.746062" lon="-3.607998">
        <ele>75.114</ele>
        <time>2021-06-16T11:55:47Z</time>
      </trkpt>
      <trkpt lat="36.746051" lon="-3.608187">
        <ele>75.708</ele>
        <time>2021-06-16T11:55:48Z</time>
      </trkpt>
      <trkpt lat="36.746037" lon="-3.608374">
        <ele>76.350</ele>
        <time>2021-06-16T11:55:49Z</time>
      </trkpt>
      <trkpt lat="36.746019" lon="-3.608559">
        <ele>77.178</ele>
        <time>2021-06-16T11:55:50Z</time>
      </trkpt>
      <trkpt lat="36.745973" lon="-3.608932">
        <ele>77.712</ele>
        <time>2021-06-16T11:55:52Z</time>
      </trkpt>
      <trkpt lat="36.745949" lon="-3.609119">
        <ele>78.161</ele>
        <time>2021-06-16T11:55:53Z</time>
      </trkpt>
      <trkpt lat="36.745926" lon="-3.609304">
        <ele>78.184</ele>
        <time>2021-06-16T11:55:54Z</time>
      </trkpt>
      <trkpt lat="36.745901" lon="-3.609493">
        <ele>78.521</ele>
        <time>2021-06-16T11:55:55Z</time>
      </trkpt>
      <trkpt lat="36.745871" lon="-3.609686">
        <ele>78.888</ele>
        <time>2021-06-16T11:55:56Z</time>
      </trkpt>
      <trkpt lat="36.74581" lon="-3.610058">
        <ele>79.198</ele>
        <time>2021-06-16T11:55:58Z</time>
      </trkpt>
      <trkpt lat="36.745744" lon="-3.610425">
        <ele>80.054</ele>
        <time>2021-06-16T11:56:00Z</time>
      </trkpt>
      <trkpt lat="36.745724" lon="-3.610622">
        <ele>81.056</ele>
        <time>2021-06-16T11:56:01Z</time>
      </trkpt>
      <trkpt lat="36.74571" lon="-3.610818">
        <ele>81.411</ele>
        <time>2021-06-16T11:56:02Z</time>
      </trkpt>
      <trkpt lat="36.745693" lon="-3.611214">
        <ele>81.308</ele>
        <time>2021-06-16T11:56:04Z</time>
      </trkpt>
      <trkpt lat="36.745688" lon="-3.611597">
        <ele>81.372</ele>
        <time>2021-06-16T11:56:06Z</time>
      </trkpt>
      <trkpt lat="36.745684" lon="-3.611784">
        <ele>81.920</ele>
        <time>2021-06-16T11:56:07Z</time>
      </trkpt>
      <trkpt lat="36.745684" lon="-3.611967">
        <ele>82.394</ele>
        <time>2021-06-16T11:56:08Z</time>
      </trkpt>
      <trkpt lat="36.745682" lon="-3.61233">
        <ele>83.493</ele>
        <time>2021-06-16T11:56:10Z</time>
      </trkpt>
      <trkpt lat="36.745678" lon="-3.612693">
        <ele>84.996</ele>
        <time>2021-06-16T11:56:12Z</time>
      </trkpt>
      <trkpt lat="36.74564" lon="-3.613057">
        <ele>86.263</ele>
        <time>2021-06-16T11:56:14Z</time>
      </trkpt>
      <trkpt lat="36.745601" lon="-3.613241">
        <ele>87.350</ele>
        <time>2021-06-16T11:56:15Z</time>
      </trkpt>
      <trkpt lat="36.745491" lon="-3.613594">
        <ele>88.140</ele>
        <time>2021-06-16T11:56:17Z</time>
      </trkpt>
      <trkpt lat="36.745316" lon="-3.61391">
        <ele>88.726</ele>
        <time>2021-06-16T11:56:19Z</time>
      </trkpt>
      <trkpt lat="36.745116" lon="-3.6142">
        <ele>89.547</ele>
        <time>2021-06-16T11:56:21Z</time>
      </trkpt>
      <trkpt lat="36.745016" lon="-3.614338">
        <ele>90.111</ele>
        <time>2021-06-16T11:56:22Z</time>
      </trkpt>
      <trkpt lat="36.744822" lon="-3.614616">
        <ele>90.208</ele>
        <time>2021-06-16T11:56:24Z</time>
      </trkpt>
      <trkpt lat="36.744662" lon="-3.614921">
        <ele>90.529</ele>
        <time>2021-06-16T11:56:26Z</time>
      </trkpt>
      <trkpt lat="36.744531" lon="-3.615257">
        <ele>91.157</ele>
        <time>2021-06-16T11:56:28Z</time>
      </trkpt>
      <trkpt lat="36.744419" lon="-3.615618">
        <ele>91.511</ele>
        <time>2021-06-16T11:56:30Z</time>
      </trkpt>
      <trkpt lat="36.744312" lon="-3.615992">
        <ele>92.030</ele>
        <time>2021-06-16T11:56:32Z</time>
      </trkpt>
      <trkpt lat="36.744238" lon="-3.616369">
        <ele>92.723</ele>
        <time>2021-06-16T11:56:34Z</time>
      </trkpt>
      <trkpt lat="36.744191" lon="-3.616747">
        <ele>93.530</ele>
        <time>2021-06-16T11:56:36Z</time>
      </trkpt>
      <trkpt lat="36.744143" lon="-3.617131">
        <ele>94.027</ele>
        <time>2021-06-16T11:56:38Z</time>
      </trkpt>
      <trkpt lat="36.744116" lon="-3.617323">
        <ele>94.517</ele>
        <time>2021-06-16T11:56:39Z</time>
      </trkpt>
      <trkpt lat="36.744068" lon="-3.617708">
        <ele>94.269</ele>
        <time>2021-06-16T11:56:41Z</time>
      </trkpt>
      <trkpt lat="36.744043" lon="-3.617903">
        <ele>94.204</ele>
        <time>2021-06-16T11:56:42Z</time>
      </trkpt>
      <trkpt lat="36.743994" lon="-3.618277">
        <ele>94.324</ele>
        <time>2021-06-16T11:56:44Z</time>
      </trkpt>
      <trkpt lat="36.74397" lon="-3.618454">
        <ele>94.308</ele>
        <time>2021-06-16T11:56:45Z</time>
      </trkpt>
      <trkpt lat="36.743935" lon="-3.618811">
        <ele>93.643</ele>
        <time>2021-06-16T11:56:47Z</time>
      </trkpt>
      <trkpt lat="36.743916" lon="-3.619176">
        <ele>93.831</ele>
        <time>2021-06-16T11:56:49Z</time>
      </trkpt>
      <trkpt lat="36.743936" lon="-3.619359">
        <ele>93.785</ele>
        <time>2021-06-16T11:56:50Z</time>
      </trkpt>
      <trkpt lat="36.743976" lon="-3.619539">
        <ele>93.884</ele>
        <time>2021-06-16T11:56:51Z</time>
      </trkpt>
      <trkpt lat="36.744094" lon="-3.619893">
        <ele>93.267</ele>
        <time>2021-06-16T11:56:53Z</time>
      </trkpt>
      <trkpt lat="36.744275" lon="-3.620206">
        <ele>92.644</ele>
        <time>2021-06-16T11:56:55Z</time>
      </trkpt>
      <trkpt lat="36.744393" lon="-3.62033">
        <ele>92.221</ele>
        <time>2021-06-16T11:56:56Z</time>
      </trkpt>
      <trkpt lat="36.744516" lon="-3.62045">
        <ele>91.991</ele>
        <time>2021-06-16T11:56:57Z</time>
      </trkpt>
      <trkpt lat="36.744767" lon="-3.620694">
        <ele>91.431</ele>
        <time>2021-06-16T11:56:59Z</time>
      </trkpt>
      <trkpt lat="36.744903" lon="-3.620817">
        <ele>91.161</ele>
        <time>2021-06-16T11:57:00Z</time>
      </trkpt>
      <trkpt lat="36.74503" lon="-3.620945">
        <ele>90.807</ele>
        <time>2021-06-16T11:57:01Z</time>
      </trkpt>
      <trkpt lat="36.745292" lon="-3.621201">
        <ele>90.908</ele>
        <time>2021-06-16T11:57:03Z</time>
      </trkpt>
      <trkpt lat="36.745435" lon="-3.62133">
        <ele>91.110</ele>
        <time>2021-06-16T11:57:04Z</time>
      </trkpt>
      <trkpt lat="36.745715" lon="-3.621596">
        <ele>91.088</ele>
        <time>2021-06-16T11:57:06Z</time>
      </trkpt>
      <trkpt lat="36.745993" lon="-3.621863">
        <ele>90.742</ele>
        <time>2021-06-16T11:57:08Z</time>
      </trkpt>
      <trkpt lat="36.746279" lon="-3.62213">
        <ele>90.071</ele>
        <time>2021-06-16T11:57:10Z</time>
      </trkpt>
      <trkpt lat="36.746561" lon="-3.622411">
        <ele>89.864</ele>
        <time>2021-06-16T11:57:12Z</time>
      </trkpt>
      <trkpt lat="36.746704" lon="-3.62255">
        <ele>89.061</ele>
        <time>2021-06-16T11:57:13Z</time>
      </trkpt>
      <trkpt lat="36.746834" lon="-3.622694">
        <ele>87.598</ele>
        <time>2021-06-16T11:57:14Z</time>
      </trkpt>
      <trkpt lat="36.747038" lon="-3.623041">
        <ele>86.088</ele>
        <time>2021-06-16T11:57:16Z</time>
      </trkpt>
      <trkpt lat="36.74714" lon="-3.623449">
        <ele>85.835</ele>
        <time>2021-06-16T11:57:18Z</time>
      </trkpt>
      <trkpt lat="36.747117" lon="-3.623884">
        <ele>86.186</ele>
        <time>2021-06-16T11:57:20Z</time>
      </trkpt>
      <trkpt lat="36.747056" lon="-3.62409">
        <ele>86.314</ele>
        <time>2021-06-16T11:57:21Z</time>
      </trkpt>
      <trkpt lat="36.746977" lon="-3.62428">
        <ele>86.608</ele>
        <time>2021-06-16T11:57:22Z</time>
      </trkpt>
      <trkpt lat="36.746718" lon="-3.624572">
        <ele>87.150</ele>
        <time>2021-06-16T11:57:24Z</time>
      </trkpt>
      <trkpt lat="36.746403" lon="-3.624763">
        <ele>87.648</ele>
        <time>2021-06-16T11:57:26Z</time>
      </trkpt>
      <trkpt lat="36.746084" lon="-3.624909">
        <ele>88.252</ele>
        <time>2021-06-16T11:57:28Z</time>
      </trkpt>
      <trkpt lat="36.745925" lon="-3.624979">
        <ele>88.811</ele>
        <time>2021-06-16T11:57:29Z</time>
      </trkpt>
      <trkpt lat="36.745769" lon="-3.625051">
        <ele>89.754</ele>
        <time>2021-06-16T11:57:30Z</time>
      </trkpt>
      <trkpt lat="36.745459" lon="-3.625197">
        <ele>90.321</ele>
        <time>2021-06-16T11:57:32Z</time>
      </trkpt>
      <trkpt lat="36.745152" lon="-3.625339">
        <ele>91.468</ele>
        <time>2021-06-16T11:57:34Z</time>
      </trkpt>
      <trkpt lat="36.744846" lon="-3.625482">
        <ele>92.688</ele>
        <time>2021-06-16T11:57:36Z</time>
      </trkpt>
      <trkpt lat="36.744552" lon="-3.625669">
        <ele>93.197</ele>
        <time>2021-06-16T11:57:38Z</time>
      </trkpt>
      <trkpt lat="36.744419" lon="-3.62579">
        <ele>93.723</ele>
        <time>2021-06-16T11:57:39Z</time>
      </trkpt>
      <trkpt lat="36.744296" lon="-3.625931">
        <ele>94.125</ele>
        <time>2021-06-16T11:57:40Z</time>
      </trkpt>
      <trkpt lat="36.744185" lon="-3.626088">
        <ele>94.308</ele>
        <time>2021-06-16T11:57:41Z</time>
      </trkpt>
      <trkpt lat="36.744008" lon="-3.626445">
        <ele>94.876</ele>
        <time>2021-06-16T11:57:43Z</time>
      </trkpt>
      <trkpt lat="36.743902" lon="-3.626844">
        <ele>95.124</ele>
        <time>2021-06-16T11:57:45Z</time>
      </trkpt>
      <trkpt lat="36.743871" lon="-3.627056">
        <ele>95.768</ele>
        <time>2021-06-16T11:57:46Z</time>
      </trkpt>
      <trkpt lat="36.743869" lon="-3.627485">
        <ele>96.117</ele>
        <time>2021-06-16T11:57:48Z</time>
      </trkpt>
      <trkpt lat="36.743881" lon="-3.6277">
        <ele>96.540</ele>
        <time>2021-06-16T11:57:49Z</time>
      </trkpt>
      <trkpt lat="36.743892" lon="-3.627912">
        <ele>96.597</ele>
        <time>2021-06-16T11:57:50Z</time>
      </trkpt>
      <trkpt lat="36.743903" lon="-3.628122">
        <ele>96.634</ele>
        <time>2021-06-16T11:57:51Z</time>
      </trkpt>
      <trkpt lat="36.743917" lon="-3.628535">
        <ele>97.164</ele>
        <time>2021-06-16T11:57:53Z</time>
      </trkpt>
      <trkpt lat="36.743924" lon="-3.628738">
        <ele>97.539</ele>
        <time>2021-06-16T11:57:54Z</time>
      </trkpt>
      <trkpt lat="36.743936" lon="-3.629147">
        <ele>97.901</ele>
        <time>2021-06-16T11:57:56Z</time>
      </trkpt>
      <trkpt lat="36.743979" lon="-3.629548">
        <ele>98.321</ele>
        <time>2021-06-16T11:57:58Z</time>
      </trkpt>
      <trkpt lat="36.744038" lon="-3.629734">
        <ele>98.808</ele>
        <time>2021-06-16T11:57:59Z</time>
      </trkpt>
      <trkpt lat="36.744114" lon="-3.629908">
        <ele>99.440</ele>
        <time>2021-06-16T11:58:00Z</time>
      </trkpt>
      <trkpt lat="36.744313" lon="-3.630211">
        <ele>100.348</ele>
        <time>2021-06-16T11:58:02Z</time>
      </trkpt>
      <trkpt lat="36.744409" lon="-3.630359">
        <ele>100.832</ele>
        <time>2021-06-16T11:58:03Z</time>
      </trkpt>
      <trkpt lat="36.744538" lon="-3.630707">
        <ele>101.571</ele>
        <time>2021-06-16T11:58:05Z</time>
      </trkpt>
      <trkpt lat="36.744536" lon="-3.631108">
        <ele>102.474</ele>
        <time>2021-06-16T11:58:07Z</time>
      </trkpt>
      <trkpt lat="36.744431" lon="-3.631495">
        <ele>103.621</ele>
        <time>2021-06-16T11:58:09Z</time>
      </trkpt>
      <trkpt lat="36.744293" lon="-3.631859">
        <ele>105.078</ele>
        <time>2021-06-16T11:58:11Z</time>
      </trkpt>
      <trkpt lat="36.744147" lon="-3.632227">
        <ele>105.368</ele>
        <time>2021-06-16T11:58:13Z</time>
      </trkpt>
      <trkpt lat="36.744073" lon="-3.632413">
        <ele>105.768</ele>
        <time>2021-06-16T11:58:14Z</time>
      </trkpt>
      <trkpt lat="36.743995" lon="-3.632593">
        <ele>105.842</ele>
        <time>2021-06-16T11:58:15Z</time>
      </trkpt>
      <trkpt lat="36.743847" lon="-3.632957">
        <ele>105.826</ele>
        <time>2021-06-16T11:58:17Z</time>
      </trkpt>
      <trkpt lat="36.743786" lon="-3.633153">
        <ele>106.008</ele>
        <time>2021-06-16T11:58:18Z</time>
      </trkpt>
      <trkpt lat="36.743739" lon="-3.633356">
        <ele>106.453</ele>
        <time>2021-06-16T11:58:19Z</time>
      </trkpt>
      <trkpt lat="36.743699" lon="-3.63376">
        <ele>107.311</ele>
        <time>2021-06-16T11:58:21Z</time>
      </trkpt>
      <trkpt lat="36.743696" lon="-3.633971">
        <ele>107.725</ele>
        <time>2021-06-16T11:58:22Z</time>
      </trkpt>
      <trkpt lat="36.743696" lon="-3.634179">
        <ele>108.684</ele>
        <time>2021-06-16T11:58:23Z</time>
      </trkpt>
      <trkpt lat="36.743697" lon="-3.634595">
        <ele>109.617</ele>
        <time>2021-06-16T11:58:25Z</time>
      </trkpt>
      <trkpt lat="36.743699" lon="-3.634991">
        <ele>110.854</ele>
        <time>2021-06-16T11:58:27Z</time>
      </trkpt>
      <trkpt lat="36.743697" lon="-3.635193">
        <ele>111.841</ele>
        <time>2021-06-16T11:58:28Z</time>
      </trkpt>
      <trkpt lat="36.743694" lon="-3.635397">
        <ele>112.521</ele>
        <time>2021-06-16T11:58:29Z</time>
      </trkpt>
      <trkpt lat="36.74369" lon="-3.635605">
        <ele>113.211</ele>
        <time>2021-06-16T11:58:30Z</time>
      </trkpt>
      <trkpt lat="36.74369" lon="-3.636009">
        <ele>113.721</ele>
        <time>2021-06-16T11:58:32Z</time>
      </trkpt>
      <trkpt lat="36.743693" lon="-3.636204">
        <ele>114.103</ele>
        <time>2021-06-16T11:58:33Z</time>
      </trkpt>
      <trkpt lat="36.743697" lon="-3.636393">
        <ele>114.608</ele>
        <time>2021-06-16T11:58:34Z</time>
      </trkpt>
      <trkpt lat="36.743738" lon="-3.636766">
        <ele>114.928</ele>
        <time>2021-06-16T11:58:36Z</time>
      </trkpt>
      <trkpt lat="36.74384" lon="-3.637131">
        <ele>114.896</ele>
        <time>2021-06-16T11:58:38Z</time>
      </trkpt>
      <trkpt lat="36.744002" lon="-3.637473">
        <ele>114.450</ele>
        <time>2021-06-16T11:58:40Z</time>
      </trkpt>
      <trkpt lat="36.744096" lon="-3.637638">
        <ele>114.159</ele>
        <time>2021-06-16T11:58:41Z</time>
      </trkpt>
      <trkpt lat="36.744296" lon="-3.637957">
        <ele>114.152</ele>
        <time>2021-06-16T11:58:43Z</time>
      </trkpt>
      <trkpt lat="36.74455" lon="-3.638226">
        <ele>114.149</ele>
        <time>2021-06-16T11:58:45Z</time>
      </trkpt>
      <trkpt lat="36.744685" lon="-3.638338">
        <ele>113.926</ele>
        <time>2021-06-16T11:58:46Z</time>
      </trkpt>
      <trkpt lat="36.744957" lon="-3.638527">
        <ele>112.916</ele>
        <time>2021-06-16T11:58:48Z</time>
      </trkpt>
      <trkpt lat="36.745221" lon="-3.638715">
        <ele>112.374</ele>
        <time>2021-06-16T11:58:50Z</time>
      </trkpt>
      <trkpt lat="36.745343" lon="-3.638822">
        <ele>111.656</ele>
        <time>2021-06-16T11:58:51Z</time>
      </trkpt>
      <trkpt lat="36.745569" lon="-3.639069">
        <ele>110.721</ele>
        <time>2021-06-16T11:58:53Z</time>
      </trkpt>
      <trkpt lat="36.745633" lon="-3.639248">
        <ele>109.808</ele>
        <time>2021-06-16T11:58:54Z</time>
      </trkpt>
      <trkpt lat="36.745671" lon="-3.639444">
        <ele>109.134</ele>
        <time>2021-06-16T11:58:55Z</time>
      </trkpt>
      <trkpt lat="36.745772" lon="-3.63981">
        <ele>108.332</ele>
        <time>2021-06-16T11:58:57Z</time>
      </trkpt>
      <trkpt lat="36.74584" lon="-3.639972">
        <ele>108.266</ele>
        <time>2021-06-16T11:58:58Z</time>
      </trkpt>
      <trkpt lat="36.74605" lon="-3.640225">
        <ele>107.475</ele>
        <time>2021-06-16T11:59:00Z</time>
      </trkpt>
      <trkpt lat="36.746188" lon="-3.640327">
        <ele>106.968</ele>
        <time>2021-06-16T11:59:01Z</time>
      </trkpt>
      <trkpt lat="36.746489" lon="-3.640419">
        <ele>106.445</ele>
        <time>2021-06-16T11:59:03Z</time>
      </trkpt>
      <trkpt lat="36.746643" lon="-3.640397">
        <ele>105.922</ele>
        <time>2021-06-16T11:59:04Z</time>
      </trkpt>
      <trkpt lat="36.746797" lon="-3.640339">
        <ele>105.232</ele>
        <time>2021-06-16T11:59:05Z</time>
      </trkpt>
      <trkpt lat="36.747074" lon="-3.640169">
        <ele>104.182</ele>
        <time>2021-06-16T11:59:07Z</time>
      </trkpt>
      <trkpt lat="36.747355" lon="-3.64006">
        <ele>102.443</ele>
        <time>2021-06-16T11:59:09Z</time>
      </trkpt>
      <trkpt lat="36.747648" lon="-3.640141">
        <ele>100.317</ele>
        <time>2021-06-16T11:59:11Z</time>
      </trkpt>
      <trkpt lat="36.747781" lon="-3.640242">
        <ele>98.908</ele>
        <time>2021-06-16T11:59:12Z</time>
      </trkpt>
      <trkpt lat="36.748001" lon="-3.640508">
        <ele>97.635</ele>
        <time>2021-06-16T11:59:14Z</time>
      </trkpt>
      <trkpt lat="36.748253" lon="-3.640704">
        <ele>95.343</ele>
        <time>2021-06-16T11:59:16Z</time>
      </trkpt>
      <trkpt lat="36.748544" lon="-3.640751">
        <ele>93.397</ele>
        <time>2021-06-16T11:59:18Z</time>
      </trkpt>
      <trkpt lat="36.748692" lon="-3.64072">
        <ele>92.166</ele>
        <time>2021-06-16T11:59:19Z</time>
      </trkpt>
      <trkpt lat="36.748978" lon="-3.640501">
        <ele>91.029</ele>
        <time>2021-06-16T11:59:21Z</time>
      </trkpt>
      <trkpt lat="36.749124" lon="-3.640413">
        <ele>90.256</ele>
        <time>2021-06-16T11:59:22Z</time>
      </trkpt>
      <trkpt lat="36.749283" lon="-3.640366">
        <ele>90.293</ele>
        <time>2021-06-16T11:59:23Z</time>
      </trkpt>
      <trkpt lat="36.749605" lon="-3.640365">
        <ele>90.323</ele>
        <time>2021-06-16T11:59:25Z</time>
      </trkpt>
      <trkpt lat="36.749763" lon="-3.640445">
        <ele>90.255</ele>
        <time>2021-06-16T11:59:26Z</time>
      </trkpt>
      <trkpt lat="36.749897" lon="-3.640579">
        <ele>90.507</ele>
        <time>2021-06-16T11:59:27Z</time>
      </trkpt>
      <trkpt lat="36.750087" lon="-3.640916">
        <ele>90.117</ele>
        <time>2021-06-16T11:59:29Z</time>
      </trkpt>
      <trkpt lat="36.75014" lon="-3.641112">
        <ele>89.908</ele>
        <time>2021-06-16T11:59:30Z</time>
      </trkpt>
      <trkpt lat="36.750163" lon="-3.641518">
        <ele>90.082</ele>
        <time>2021-06-16T11:59:32Z</time>
      </trkpt>
      <trkpt lat="36.750132" lon="-3.641718">
        <ele>90.410</ele>
        <time>2021-06-16T11:59:33Z</time>
      </trkpt>
      <trkpt lat="36.75007" lon="-3.641902">
        <ele>90.684</ele>
        <time>2021-06-16T11:59:34Z</time>
      </trkpt>
      <trkpt lat="36.74998" lon="-3.64207">
        <ele>90.893</ele>
        <time>2021-06-16T11:59:35Z</time>
      </trkpt>
      <trkpt lat="36.749727" lon="-3.642333">
        <ele>91.336</ele>
        <time>2021-06-16T11:59:37Z</time>
      </trkpt>
      <trkpt lat="36.74958" lon="-3.64243">
        <ele>91.983</ele>
        <time>2021-06-16T11:59:38Z</time>
      </trkpt>
      <trkpt lat="36.749428" lon="-3.642517">
        <ele>92.390</ele>
        <time>2021-06-16T11:59:39Z</time>
      </trkpt>
      <trkpt lat="36.749117" lon="-3.642675">
        <ele>92.870</ele>
        <time>2021-06-16T11:59:41Z</time>
      </trkpt>
      <trkpt lat="36.748815" lon="-3.642829">
        <ele>93.221</ele>
        <time>2021-06-16T11:59:43Z</time>
      </trkpt>
      <trkpt lat="36.748666" lon="-3.642911">
        <ele>93.441</ele>
        <time>2021-06-16T11:59:44Z</time>
      </trkpt>
      <trkpt lat="36.748524" lon="-3.642997">
        <ele>94.105</ele>
        <time>2021-06-16T11:59:45Z</time>
      </trkpt>
      <trkpt lat="36.748255" lon="-3.643193">
        <ele>94.908</ele>
        <time>2021-06-16T11:59:47Z</time>
      </trkpt>
      <trkpt lat="36.748008" lon="-3.643432">
        <ele>95.319</ele>
        <time>2021-06-16T11:59:49Z</time>
      </trkpt>
      <trkpt lat="36.747897" lon="-3.643568">
        <ele>95.437</ele>
        <time>2021-06-16T11:59:50Z</time>
      </trkpt>
      <trkpt lat="36.747704" lon="-3.643877">
        <ele>96.081</ele>
        <time>2021-06-16T11:59:52Z</time>
      </trkpt>
      <trkpt lat="36.747535" lon="-3.644206">
        <ele>96.360</ele>
        <time>2021-06-16T11:59:54Z</time>
      </trkpt>
      <trkpt lat="36.747452" lon="-3.64437">
        <ele>96.813</ele>
        <time>2021-06-16T11:59:55Z</time>
      </trkpt>
      <trkpt lat="36.747286" lon="-3.644691">
        <ele>97.370</ele>
        <time>2021-06-16T11:59:57Z</time>
      </trkpt>
      <trkpt lat="36.747205" lon="-3.644851">
        <ele>97.657</ele>
        <time>2021-06-16T11:59:58Z</time>
      </trkpt>
      <trkpt lat="36.747129" lon="-3.645017">
        <ele>98.327</ele>
        <time>2021-06-16T11:59:59Z</time>
      </trkpt>
      <trkpt lat="36.747015" lon="-3.645369">
        <ele>99.045</ele>
        <time>2021-06-16T12:00:01Z</time>
      </trkpt>
      <trkpt lat="36.746984" lon="-3.645555">
        <ele>99.847</ele>
        <time>2021-06-16T12:00:02Z</time>
      </trkpt>
      <trkpt lat="36.746974" lon="-3.645747">
        <ele>100.011</ele>
        <time>2021-06-16T12:00:03Z</time>
      </trkpt>
      <trkpt lat="36.746989" lon="-3.645938">
        <ele>100.108</ele>
        <time>2021-06-16T12:00:04Z</time>
      </trkpt>
      <trkpt lat="36.747092" lon="-3.646287">
        <ele>100.561</ele>
        <time>2021-06-16T12:00:06Z</time>
      </trkpt>
      <trkpt lat="36.747292" lon="-3.646563">
        <ele>100.619</ele>
        <time>2021-06-16T12:00:08Z</time>
      </trkpt>
      <trkpt lat="36.747559" lon="-3.646759">
        <ele>101.333</ele>
        <time>2021-06-16T12:00:10Z</time>
      </trkpt>
      <trkpt lat="36.747856" lon="-3.646886">
        <ele>102.172</ele>
        <time>2021-06-16T12:00:12Z</time>
      </trkpt>
      <trkpt lat="36.747997" lon="-3.646947">
        <ele>102.645</ele>
        <time>2021-06-16T12:00:13Z</time>
      </trkpt>
      <trkpt lat="36.74815" lon="-3.646998">
        <ele>102.712</ele>
        <time>2021-06-16T12:00:14Z</time>
      </trkpt>
      <trkpt lat="36.748468" lon="-3.647097">
        <ele>102.639</ele>
        <time>2021-06-16T12:00:16Z</time>
      </trkpt>
      <trkpt lat="36.748623" lon="-3.647152">
        <ele>102.569</ele>
        <time>2021-06-16T12:00:17Z</time>
      </trkpt>
      <trkpt lat="36.74894" lon="-3.647283">
        <ele>102.453</ele>
        <time>2021-06-16T12:00:19Z</time>
      </trkpt>
      <trkpt lat="36.749241" lon="-3.647446">
        <ele>102.104</ele>
        <time>2021-06-16T12:00:21Z</time>
      </trkpt>
      <trkpt lat="36.749534" lon="-3.647631">
        <ele>102.214</ele>
        <time>2021-06-16T12:00:23Z</time>
      </trkpt>
      <trkpt lat="36.74968" lon="-3.647729">
        <ele>101.608</ele>
        <time>2021-06-16T12:00:24Z</time>
      </trkpt>
      <trkpt lat="36.749827" lon="-3.647829">
        <ele>100.932</ele>
        <time>2021-06-16T12:00:25Z</time>
      </trkpt>
      <trkpt lat="36.75012" lon="-3.64804">
        <ele>100.460</ele>
        <time>2021-06-16T12:00:27Z</time>
      </trkpt>
      <trkpt lat="36.750264" lon="-3.648153">
        <ele>100.094</ele>
        <time>2021-06-16T12:00:28Z</time>
      </trkpt>
      <trkpt lat="36.750401" lon="-3.648269">
        <ele>99.473</ele>
        <time>2021-06-16T12:00:29Z</time>
      </trkpt>
      <trkpt lat="36.750664" lon="-3.648511">
        <ele>99.556</ele>
        <time>2021-06-16T12:00:31Z</time>
      </trkpt>
      <trkpt lat="36.75091" lon="-3.648781">
        <ele>98.843</ele>
        <time>2021-06-16T12:00:33Z</time>
      </trkpt>
      <trkpt lat="36.751151" lon="-3.649061">
        <ele>97.940</ele>
        <time>2021-06-16T12:00:35Z</time>
      </trkpt>
      <trkpt lat="36.751383" lon="-3.649352">
        <ele>97.140</ele>
        <time>2021-06-16T12:00:37Z</time>
      </trkpt>
      <trkpt lat="36.751629" lon="-3.649649">
        <ele>96.099</ele>
        <time>2021-06-16T12:00:39Z</time>
      </trkpt>
      <trkpt lat="36.751749" lon="-3.649796">
        <ele>95.507</ele>
        <time>2021-06-16T12:00:40Z</time>
      </trkpt>
      <trkpt lat="36.751974" lon="-3.650097">
        <ele>94.427</ele>
        <time>2021-06-16T12:00:42Z</time>
      </trkpt>
      <trkpt lat="36.752197" lon="-3.650402">
        <ele>92.908</ele>
        <time>2021-06-16T12:00:44Z</time>
      </trkpt>
      <trkpt lat="36.752294" lon="-3.650567">
        <ele>91.556</ele>
        <time>2021-06-16T12:00:45Z</time>
      </trkpt>
      <trkpt lat="36.752366" lon="-3.650746">
        <ele>89.834</ele>
        <time>2021-06-16T12:00:46Z</time>
      </trkpt>
      <trkpt lat="36.752438" lon="-3.65114">
        <ele>88.518</ele>
        <time>2021-06-16T12:00:48Z</time>
      </trkpt>
      <trkpt lat="36.752411" lon="-3.651546">
        <ele>86.647</ele>
        <time>2021-06-16T12:00:50Z</time>
      </trkpt>
      <trkpt lat="36.752347" lon="-3.651946">
        <ele>85.320</ele>
        <time>2021-06-16T12:00:52Z</time>
      </trkpt>
      <trkpt lat="36.752375" lon="-3.652346">
        <ele>82.937</ele>
        <time>2021-06-16T12:00:54Z</time>
      </trkpt>
      <trkpt lat="36.752447" lon="-3.652528">
        <ele>81.124</ele>
        <time>2021-06-16T12:00:55Z</time>
      </trkpt>
      <trkpt lat="36.752536" lon="-3.652691">
        <ele>79.784</ele>
        <time>2021-06-16T12:00:56Z</time>
      </trkpt>
      <trkpt lat="36.752816" lon="-3.652876">
        <ele>78.525</ele>
        <time>2021-06-16T12:00:58Z</time>
      </trkpt>
      <trkpt lat="36.753162" lon="-3.652741">
        <ele>77.226</ele>
        <time>2021-06-16T12:01:00Z</time>
      </trkpt>
      <trkpt lat="36.753446" lon="-3.652497">
        <ele>75.408</ele>
        <time>2021-06-16T12:01:02Z</time>
      </trkpt>
      <trkpt lat="36.753682" lon="-3.652224">
        <ele>73.708</ele>
        <time>2021-06-16T12:01:04Z</time>
      </trkpt>
      <trkpt lat="36.753806" lon="-3.652113">
        <ele>72.289</ele>
        <time>2021-06-16T12:01:05Z</time>
      </trkpt>
      <trkpt lat="36.754082" lon="-3.651966">
        <ele>70.737</ele>
        <time>2021-06-16T12:01:07Z</time>
      </trkpt>
      <trkpt lat="36.754226" lon="-3.651942">
        <ele>69.681</ele>
        <time>2021-06-16T12:01:08Z</time>
      </trkpt>
      <trkpt lat="36.754358" lon="-3.651937">
        <ele>68.790</ele>
        <time>2021-06-16T12:01:09Z</time>
      </trkpt>
      <trkpt lat="36.754587" lon="-3.652004">
        <ele>67.773</ele>
        <time>2021-06-16T12:01:11Z</time>
      </trkpt>
      <trkpt lat="36.754772" lon="-3.652149">
        <ele>67.040</ele>
        <time>2021-06-16T12:01:13Z</time>
      </trkpt>
      <trkpt lat="36.754932" lon="-3.652338">
        <ele>66.797</ele>
        <time>2021-06-16T12:01:15Z</time>
      </trkpt>
      <trkpt lat="36.755078" lon="-3.652519">
        <ele>66.037</ele>
        <time>2021-06-16T12:01:17Z</time>
      </trkpt>
      <trkpt lat="36.755216" lon="-3.65266">
        <ele>65.656</ele>
        <time>2021-06-16T12:01:19Z</time>
      </trkpt>
      <trkpt lat="36.755356" lon="-3.652753">
        <ele>65.359</ele>
        <time>2021-06-16T12:01:21Z</time>
      </trkpt>
      <trkpt lat="36.755416" lon="-3.652804">
        <ele>65.214</ele>
        <time>2021-06-16T12:01:22Z</time>
      </trkpt>
      <trkpt lat="36.755459" lon="-3.652876">
        <ele>64.608</ele>
        <time>2021-06-16T12:01:23Z</time>
      </trkpt>
      <trkpt lat="36.755485" lon="-3.652959">
        <ele>63.942</ele>
        <time>2021-06-16T12:01:24Z</time>
      </trkpt>
      <trkpt lat="36.755473" lon="-3.653141">
        <ele>63.320</ele>
        <time>2021-06-16T12:01:26Z</time>
      </trkpt>
      <trkpt lat="36.755431" lon="-3.653224">
        <ele>63.094</ele>
        <time>2021-06-16T12:01:27Z</time>
      </trkpt>
      <trkpt lat="36.755374" lon="-3.653296">
        <ele>62.693</ele>
        <time>2021-06-16T12:01:28Z</time>
      </trkpt>
      <trkpt lat="36.75526" lon="-3.653441">
        <ele>62.546</ele>
        <time>2021-06-16T12:01:30Z</time>
      </trkpt>
      <trkpt lat="36.755233" lon="-3.653535">
        <ele>62.183</ele>
        <time>2021-06-16T12:01:31Z</time>
      </trkpt>
      <trkpt lat="36.75522" lon="-3.653643">
        <ele>61.860</ele>
        <time>2021-06-16T12:01:32Z</time>
      </trkpt>
      <trkpt lat="36.755216" lon="-3.65376">
        <ele>61.660</ele>
        <time>2021-06-16T12:01:33Z</time>
      </trkpt>
      <trkpt lat="36.755194" lon="-3.654018">
        <ele>61.247</ele>
        <time>2021-06-16T12:01:35Z</time>
      </trkpt>
      <trkpt lat="36.755163" lon="-3.654153">
        <ele>60.829</ele>
        <time>2021-06-16T12:01:36Z</time>
      </trkpt>
      <trkpt lat="36.755067" lon="-3.654431">
        <ele>60.421</ele>
        <time>2021-06-16T12:01:38Z</time>
      </trkpt>
      <trkpt lat="36.754936" lon="-3.654703">
        <ele>59.708</ele>
        <time>2021-06-16T12:01:40Z</time>
      </trkpt>
      <trkpt lat="36.754868" lon="-3.654838">
        <ele>59.411</ele>
        <time>2021-06-16T12:01:41Z</time>
      </trkpt>
      <trkpt lat="36.754699" lon="-3.65507">
        <ele>58.189</ele>
        <time>2021-06-16T12:01:43Z</time>
      </trkpt>
      <trkpt lat="36.754593" lon="-3.655164">
        <ele>57.023</ele>
        <time>2021-06-16T12:01:44Z</time>
      </trkpt>
      <trkpt lat="36.754374" lon="-3.655346">
        <ele>55.432</ele>
        <time>2021-06-16T12:01:46Z</time>
      </trkpt>
      <trkpt lat="36.754261" lon="-3.655426">
        <ele>54.075</ele>
        <time>2021-06-16T12:01:47Z</time>
      </trkpt>
      <trkpt lat="36.754026" lon="-3.655566">
        <ele>52.742</ele>
        <time>2021-06-16T12:01:49Z</time>
      </trkpt>
      <trkpt lat="36.753781" lon="-3.655707">
        <ele>51.929</ele>
        <time>2021-06-16T12:01:51Z</time>
      </trkpt>
      <trkpt lat="36.753546" lon="-3.655867">
        <ele>51.239</ele>
        <time>2021-06-16T12:01:53Z</time>
      </trkpt>
      <trkpt lat="36.753326" lon="-3.656069">
        <ele>51.235</ele>
        <time>2021-06-16T12:01:55Z</time>
      </trkpt>
      <trkpt lat="36.753127" lon="-3.656303">
        <ele>51.886</ele>
        <time>2021-06-16T12:01:57Z</time>
      </trkpt>
      <trkpt lat="36.753034" lon="-3.656434">
        <ele>51.814</ele>
        <time>2021-06-16T12:01:58Z</time>
      </trkpt>
      <trkpt lat="36.752946" lon="-3.656569">
        <ele>52.008</ele>
        <time>2021-06-16T12:01:59Z</time>
      </trkpt>
      <trkpt lat="36.752779" lon="-3.656833">
        <ele>52.550</ele>
        <time>2021-06-16T12:02:01Z</time>
      </trkpt>
      <trkpt lat="36.752696" lon="-3.656959">
        <ele>52.628</ele>
        <time>2021-06-16T12:02:02Z</time>
      </trkpt>
      <trkpt lat="36.752529" lon="-3.657194">
        <ele>52.872</ele>
        <time>2021-06-16T12:02:04Z</time>
      </trkpt>
      <trkpt lat="36.752442" lon="-3.657309">
        <ele>52.941</ele>
        <time>2021-06-16T12:02:05Z</time>
      </trkpt>
      <trkpt lat="36.752254" lon="-3.657515">
        <ele>53.084</ele>
        <time>2021-06-16T12:02:07Z</time>
      </trkpt>
      <trkpt lat="36.752059" lon="-3.657704">
        <ele>52.871</ele>
        <time>2021-06-16T12:02:09Z</time>
      </trkpt>
      <trkpt lat="36.75196" lon="-3.657794">
        <ele>52.758</ele>
        <time>2021-06-16T12:02:10Z</time>
      </trkpt>
      <trkpt lat="36.751762" lon="-3.657976">
        <ele>52.378</ele>
        <time>2021-06-16T12:02:12Z</time>
      </trkpt>
      <trkpt lat="36.751658" lon="-3.658059">
        <ele>52.311</ele>
        <time>2021-06-16T12:02:13Z</time>
      </trkpt>
      <trkpt lat="36.751435" lon="-3.658194">
        <ele>52.121</ele>
        <time>2021-06-16T12:02:15Z</time>
      </trkpt>
      <trkpt lat="36.751194" lon="-3.658274">
        <ele>52.203</ele>
        <time>2021-06-16T12:02:17Z</time>
      </trkpt>
      <trkpt lat="36.751073" lon="-3.658296">
        <ele>51.908</ele>
        <time>2021-06-16T12:02:18Z</time>
      </trkpt>
      <trkpt lat="36.75095" lon="-3.658309">
        <ele>51.768</ele>
        <time>2021-06-16T12:02:19Z</time>
      </trkpt>
      <trkpt lat="36.750717" lon="-3.658332">
        <ele>51.226</ele>
        <time>2021-06-16T12:02:21Z</time>
      </trkpt>
      <trkpt lat="36.750489" lon="-3.658375">
        <ele>50.330</ele>
        <time>2021-06-16T12:02:23Z</time>
      </trkpt>
      <trkpt lat="36.750264" lon="-3.658476">
        <ele>50.319</ele>
        <time>2021-06-16T12:02:25Z</time>
      </trkpt>
      <trkpt lat="36.750159" lon="-3.65855">
        <ele>50.842</ele>
        <time>2021-06-16T12:02:26Z</time>
      </trkpt>
      <trkpt lat="36.750061" lon="-3.658648">
        <ele>50.529</ele>
        <time>2021-06-16T12:02:27Z</time>
      </trkpt>
      <trkpt lat="36.749918" lon="-3.658902">
        <ele>49.756</ele>
        <time>2021-06-16T12:02:29Z</time>
      </trkpt>
      <trkpt lat="36.749867" lon="-3.659047">
        <ele>49.276</ele>
        <time>2021-06-16T12:02:30Z</time>
      </trkpt>
      <trkpt lat="36.749793" lon="-3.659345">
        <ele>49.048</ele>
        <time>2021-06-16T12:02:32Z</time>
      </trkpt>
      <trkpt lat="36.749764" lon="-3.659497">
        <ele>48.561</ele>
        <time>2021-06-16T12:02:33Z</time>
      </trkpt>
      <trkpt lat="36.749699" lon="-3.659797">
        <ele>47.517</ele>
        <time>2021-06-16T12:02:35Z</time>
      </trkpt>
      <trkpt lat="36.749653" lon="-3.659945">
        <ele>47.008</ele>
        <time>2021-06-16T12:02:36Z</time>
      </trkpt>
      <trkpt lat="36.74954" lon="-3.660229">
        <ele>46.481</ele>
        <time>2021-06-16T12:02:38Z</time>
      </trkpt>
      <trkpt lat="36.749469" lon="-3.660352">
        <ele>45.479</ele>
        <time>2021-06-16T12:02:39Z</time>
      </trkpt>
      <trkpt lat="36.749291" lon="-3.660551">
        <ele>43.353</ele>
        <time>2021-06-16T12:02:41Z</time>
      </trkpt>
      <trkpt lat="36.749107" lon="-3.660756">
        <ele>41.492</ele>
        <time>2021-06-16T12:02:43Z</time>
      </trkpt>
      <trkpt lat="36.749017" lon="-3.660868">
        <ele>40.415</ele>
        <time>2021-06-16T12:02:44Z</time>
      </trkpt>
      <trkpt lat="36.748879" lon="-3.66114">
        <ele>38.662</ele>
        <time>2021-06-16T12:02:46Z</time>
      </trkpt>
      <trkpt lat="36.748822" lon="-3.661452">
        <ele>37.619</ele>
        <time>2021-06-16T12:02:48Z</time>
      </trkpt>
      <trkpt lat="36.748835" lon="-3.661784">
        <ele>36.779</ele>
        <time>2021-06-16T12:02:50Z</time>
      </trkpt>
      <trkpt lat="36.748886" lon="-3.661939">
        <ele>35.729</ele>
        <time>2021-06-16T12:02:51Z</time>
      </trkpt>
      <trkpt lat="36.749015" lon="-3.662229">
        <ele>34.600</ele>
        <time>2021-06-16T12:02:53Z</time>
      </trkpt>
      <trkpt lat="36.74914" lon="-3.662512">
        <ele>33.520</ele>
        <time>2021-06-16T12:02:55Z</time>
      </trkpt>
      <trkpt lat="36.749256" lon="-3.662797">
        <ele>32.608</ele>
        <time>2021-06-16T12:02:57Z</time>
      </trkpt>
      <trkpt lat="36.749302" lon="-3.662941">
        <ele>32.189</ele>
        <time>2021-06-16T12:02:58Z</time>
      </trkpt>
      <trkpt lat="36.749373" lon="-3.663229">
        <ele>31.767</ele>
        <time>2021-06-16T12:03:00Z</time>
      </trkpt>
      <trkpt lat="36.749391" lon="-3.663379">
        <ele>31.011</ele>
        <time>2021-06-16T12:03:01Z</time>
      </trkpt>
      <trkpt lat="36.749392" lon="-3.663529">
        <ele>30.240</ele>
        <time>2021-06-16T12:03:02Z</time>
      </trkpt>
      <trkpt lat="36.749381" lon="-3.663673">
        <ele>29.533</ele>
        <time>2021-06-16T12:03:03Z</time>
      </trkpt>
      <trkpt lat="36.749337" lon="-3.663942">
        <ele>28.780</ele>
        <time>2021-06-16T12:03:05Z</time>
      </trkpt>
      <trkpt lat="36.749303" lon="-3.664076">
        <ele>28.327</ele>
        <time>2021-06-16T12:03:06Z</time>
      </trkpt>
      <trkpt lat="36.749223" lon="-3.664333">
        <ele>27.957</ele>
        <time>2021-06-16T12:03:08Z</time>
      </trkpt>
      <trkpt lat="36.749183" lon="-3.664456">
        <ele>27.833</ele>
        <time>2021-06-16T12:03:09Z</time>
      </trkpt>
      <trkpt lat="36.749121" lon="-3.664652">
        <ele>27.923</ele>
        <time>2021-06-16T12:03:11Z</time>
      </trkpt>
      <trkpt lat="36.749073" lon="-3.664787">
        <ele>27.715</ele>
        <time>2021-06-16T12:03:13Z</time>
      </trkpt>
      <trkpt lat="36.749042" lon="-3.664844">
        <ele>27.408</ele>
        <time>2021-06-16T12:03:15Z</time>
      </trkpt>
      <trkpt lat="36.749019" lon="-3.664906">
        <ele>27.160</ele>
        <time>2021-06-16T12:03:18Z</time>
      </trkpt>
      <trkpt lat="36.749008" lon="-3.664967">
        <ele>27.238</ele>
        <time>2021-06-16T12:03:28Z</time>
      </trkpt>
      <trkpt lat="36.748968" lon="-3.665035">
        <ele>27.192</ele>
        <time>2021-06-16T12:03:31Z</time>
      </trkpt>
      <trkpt lat="36.748943" lon="-3.665083">
        <ele>27.081</ele>
        <time>2021-06-16T12:03:32Z</time>
      </trkpt>
      <trkpt lat="36.748889" lon="-3.665184">
        <ele>26.994</ele>
        <time>2021-06-16T12:03:34Z</time>
      </trkpt>
      <trkpt lat="36.748831" lon="-3.665268">
        <ele>26.971</ele>
        <time>2021-06-16T12:03:36Z</time>
      </trkpt>
      <trkpt lat="36.748763" lon="-3.665342">
        <ele>26.978</ele>
        <time>2021-06-16T12:03:38Z</time>
      </trkpt>
      <trkpt lat="36.748704" lon="-3.665408">
        <ele>26.938</ele>
        <time>2021-06-16T12:03:40Z</time>
      </trkpt>
      <trkpt lat="36.748649" lon="-3.665451">
        <ele>26.938</ele>
        <time>2021-06-16T12:03:41Z</time>
      </trkpt>
      <trkpt lat="36.748601" lon="-3.665494">
        <ele>26.970</ele>
        <time>2021-06-16T12:03:42Z</time>
      </trkpt>
      <trkpt lat="36.748548" lon="-3.665539">
        <ele>26.917</ele>
        <time>2021-06-16T12:03:43Z</time>
      </trkpt>
      <trkpt lat="36.748487" lon="-3.665584">
        <ele>26.908</ele>
        <time>2021-06-16T12:03:44Z</time>
      </trkpt>
      <trkpt lat="36.748346" lon="-3.665685">
        <ele>26.920</ele>
        <time>2021-06-16T12:03:46Z</time>
      </trkpt>
      <trkpt lat="36.748174" lon="-3.665766">
        <ele>26.928</ele>
        <time>2021-06-16T12:03:48Z</time>
      </trkpt>
      <trkpt lat="36.74808" lon="-3.665787">
        <ele>26.912</ele>
        <time>2021-06-16T12:03:49Z</time>
      </trkpt>
      <trkpt lat="36.747983" lon="-3.665794">
        <ele>26.981</ele>
        <time>2021-06-16T12:03:50Z</time>
      </trkpt>
      <trkpt lat="36.747798" lon="-3.665787">
        <ele>26.954</ele>
        <time>2021-06-16T12:03:52Z</time>
      </trkpt>
      <trkpt lat="36.747642" lon="-3.665788">
        <ele>26.971</ele>
        <time>2021-06-16T12:03:54Z</time>
      </trkpt>
      <trkpt lat="36.747555" lon="-3.665785">
        <ele>26.918</ele>
        <time>2021-06-16T12:03:55Z</time>
      </trkpt>
      <trkpt lat="36.747375" lon="-3.665782">
        <ele>26.968</ele>
        <time>2021-06-16T12:03:57Z</time>
      </trkpt>
      <trkpt lat="36.747286" lon="-3.665786">
        <ele>26.944</ele>
        <time>2021-06-16T12:03:58Z</time>
      </trkpt>
      <trkpt lat="36.747206" lon="-3.665781">
        <ele>26.905</ele>
        <time>2021-06-16T12:03:59Z</time>
      </trkpt>
      <trkpt lat="36.747047" lon="-3.665773">
        <ele>26.915</ele>
        <time>2021-06-16T12:04:01Z</time>
      </trkpt>
      <trkpt lat="36.746886" lon="-3.665778">
        <ele>26.908</ele>
        <time>2021-06-16T12:04:03Z</time>
      </trkpt>
      <trkpt lat="36.746791" lon="-3.665797">
        <ele>26.951</ele>
        <time>2021-06-16T12:04:04Z</time>
      </trkpt>
      <trkpt lat="36.746695" lon="-3.665818">
        <ele>26.989</ele>
        <time>2021-06-16T12:04:05Z</time>
      </trkpt>
      <trkpt lat="36.74659" lon="-3.665844">
        <ele>26.943</ele>
        <time>2021-06-16T12:04:06Z</time>
      </trkpt>
      <trkpt lat="36.746371" lon="-3.6659">
        <ele>26.992</ele>
        <time>2021-06-16T12:04:08Z</time>
      </trkpt>
      <trkpt lat="36.746139" lon="-3.665959">
        <ele>26.915</ele>
        <time>2021-06-16T12:04:10Z</time>
      </trkpt>
      <trkpt lat="36.746012" lon="-3.665993">
        <ele>26.932</ele>
        <time>2021-06-16T12:04:11Z</time>
      </trkpt>
      <trkpt lat="36.745887" lon="-3.666037">
        <ele>26.969</ele>
        <time>2021-06-16T12:04:12Z</time>
      </trkpt>
      <trkpt lat="36.745764" lon="-3.666086">
        <ele>26.989</ele>
        <time>2021-06-16T12:04:13Z</time>
      </trkpt>
      <trkpt lat="36.745515" lon="-3.666214">
        <ele>26.939</ele>
        <time>2021-06-16T12:04:15Z</time>
      </trkpt>
      <trkpt lat="36.744643" lon="-3.667131">
        <ele>26.901</ele>
        <time>2021-06-16T12:04:24Z</time>
      </trkpt>
      <trkpt lat="36.744534" lon="-3.667449">
        <ele>26.921</ele>
        <time>2021-06-16T12:04:26Z</time>
      </trkpt>
      <trkpt lat="36.744485" lon="-3.667601">
        <ele>26.908</ele>
        <time>2021-06-16T12:04:27Z</time>
      </trkpt>
      <trkpt lat="36.744397" lon="-3.667885">
        <ele>26.950</ele>
        <time>2021-06-16T12:04:29Z</time>
      </trkpt>
      <trkpt lat="36.744362" lon="-3.668025">
        <ele>26.938</ele>
        <time>2021-06-16T12:04:30Z</time>
      </trkpt>
      <trkpt lat="36.744344" lon="-3.668162">
        <ele>26.982</ele>
        <time>2021-06-16T12:04:31Z</time>
      </trkpt>
      <trkpt lat="36.744332" lon="-3.668431">
        <ele>26.911</ele>
        <time>2021-06-16T12:04:33Z</time>
      </trkpt>
      <trkpt lat="36.74436" lon="-3.668677">
        <ele>26.944</ele>
        <time>2021-06-16T12:04:35Z</time>
      </trkpt>
      <trkpt lat="36.744402" lon="-3.668905">
        <ele>26.941</ele>
        <time>2021-06-16T12:04:37Z</time>
      </trkpt>
      <trkpt lat="36.74446" lon="-3.669128">
        <ele>26.928</ele>
        <time>2021-06-16T12:04:39Z</time>
      </trkpt>
      <trkpt lat="36.744488" lon="-3.669243">
        <ele>26.988</ele>
        <time>2021-06-16T12:04:40Z</time>
      </trkpt>
      <trkpt lat="36.744556" lon="-3.66948">
        <ele>30.993</ele>
        <time>2021-06-16T12:04:42Z</time>
      </trkpt>
      <trkpt lat="36.744623" lon="-3.669746">
        <ele>34.965</ele>
        <time>2021-06-16T12:04:44Z</time>
      </trkpt>
      <trkpt lat="36.744675" lon="-3.670025">
        <ele>38.921</ele>
        <time>2021-06-16T12:04:46Z</time>
      </trkpt>
      <trkpt lat="36.744686" lon="-3.670172">
        <ele>42.908</ele>
        <time>2021-06-16T12:04:47Z</time>
      </trkpt>
      <trkpt lat="36.744673" lon="-3.67047">
        <ele>46.986</ele>
        <time>2021-06-16T12:04:49Z</time>
      </trkpt>
      <trkpt lat="36.744625" lon="-3.670773">
        <ele>50.934</ele>
        <time>2021-06-16T12:04:51Z</time>
      </trkpt>
      <trkpt lat="36.744589" lon="-3.670922">
        <ele>54.968</ele>
        <time>2021-06-16T12:04:52Z</time>
      </trkpt>
      <trkpt lat="36.744536" lon="-3.671068">
        <ele>58.977</ele>
        <time>2021-06-16T12:04:53Z</time>
      </trkpt>
      <trkpt lat="36.744406" lon="-3.671352">
        <ele>62.330</ele>
        <time>2021-06-16T12:04:55Z</time>
      </trkpt>
      <trkpt lat="36.744244" lon="-3.67162">
        <ele>64.397</ele>
        <time>2021-06-16T12:04:57Z</time>
      </trkpt>
      <trkpt lat="36.744159" lon="-3.671753">
        <ele>65.634</ele>
        <time>2021-06-16T12:04:58Z</time>
      </trkpt>
      <trkpt lat="36.743976" lon="-3.672022">
        <ele>66.394</ele>
        <time>2021-06-16T12:05:00Z</time>
      </trkpt>
      <trkpt lat="36.743806" lon="-3.672305">
        <ele>66.481</ele>
        <time>2021-06-16T12:05:02Z</time>
      </trkpt>
      <trkpt lat="36.743727" lon="-3.67244">
        <ele>66.061</ele>
        <time>2021-06-16T12:05:03Z</time>
      </trkpt>
      <trkpt lat="36.74364" lon="-3.672569">
        <ele>65.817</ele>
        <time>2021-06-16T12:05:04Z</time>
      </trkpt>
      <trkpt lat="36.743554" lon="-3.672699">
        <ele>65.308</ele>
        <time>2021-06-16T12:05:05Z</time>
      </trkpt>
      <trkpt lat="36.743397" lon="-3.672954">
        <ele>64.865</ele>
        <time>2021-06-16T12:05:07Z</time>
      </trkpt>
      <trkpt lat="36.743318" lon="-3.673077">
        <ele>64.413</ele>
        <time>2021-06-16T12:05:08Z</time>
      </trkpt>
      <trkpt lat="36.743246" lon="-3.673208">
        <ele>64.437</ele>
        <time>2021-06-16T12:05:09Z</time>
      </trkpt>
      <trkpt lat="36.743176" lon="-3.673344">
        <ele>64.696</ele>
        <time>2021-06-16T12:05:10Z</time>
      </trkpt>
      <trkpt lat="36.74303" lon="-3.673604">
        <ele>64.659</ele>
        <time>2021-06-16T12:05:12Z</time>
      </trkpt>
      <trkpt lat="36.74289" lon="-3.673829">
        <ele>63.296</ele>
        <time>2021-06-16T12:05:14Z</time>
      </trkpt>
      <trkpt lat="36.742808" lon="-3.673936">
        <ele>62.443</ele>
        <time>2021-06-16T12:05:15Z</time>
      </trkpt>
      <trkpt lat="36.742635" lon="-3.674176">
        <ele>61.783</ele>
        <time>2021-06-16T12:05:17Z</time>
      </trkpt>
      <trkpt lat="36.742546" lon="-3.674305">
        <ele>61.257</ele>
        <time>2021-06-16T12:05:18Z</time>
      </trkpt>
      <trkpt lat="36.742373" lon="-3.674559">
        <ele>60.000</ele>
        <time>2021-06-16T12:05:20Z</time>
      </trkpt>
      <trkpt lat="36.742196" lon="-3.674827">
        <ele>58.620</ele>
        <time>2021-06-16T12:05:22Z</time>
      </trkpt>
      <trkpt lat="36.742002" lon="-3.675078">
        <ele>57.508</ele>
        <time>2021-06-16T12:05:24Z</time>
      </trkpt>
      <trkpt lat="36.7419" lon="-3.675203">
        <ele>56.442</ele>
        <time>2021-06-16T12:05:25Z</time>
      </trkpt>
      <trkpt lat="36.741696" lon="-3.675463">
        <ele>55.280</ele>
        <time>2021-06-16T12:05:27Z</time>
      </trkpt>
      <trkpt lat="36.741588" lon="-3.675586">
        <ele>54.284</ele>
        <time>2021-06-16T12:05:28Z</time>
      </trkpt>
      <trkpt lat="36.741354" lon="-3.675816">
        <ele>53.123</ele>
        <time>2021-06-16T12:05:30Z</time>
      </trkpt>
      <trkpt lat="36.741233" lon="-3.675931">
        <ele>52.296</ele>
        <time>2021-06-16T12:05:31Z</time>
      </trkpt>
      <trkpt lat="36.74111" lon="-3.676044">
        <ele>51.393</ele>
        <time>2021-06-16T12:05:32Z</time>
      </trkpt>
      <trkpt lat="36.740859" lon="-3.676243">
        <ele>50.840</ele>
        <time>2021-06-16T12:05:34Z</time>
      </trkpt>
      <trkpt lat="36.740734" lon="-3.676345">
        <ele>50.930</ele>
        <time>2021-06-16T12:05:35Z</time>
      </trkpt>
      <trkpt lat="36.740485" lon="-3.676518">
        <ele>51.455</ele>
        <time>2021-06-16T12:05:37Z</time>
      </trkpt>
      <trkpt lat="36.740228" lon="-3.67665">
        <ele>50.707</ele>
        <time>2021-06-16T12:05:39Z</time>
      </trkpt>
      <trkpt lat="36.73997" lon="-3.67677">
        <ele>49.817</ele>
        <time>2021-06-16T12:05:41Z</time>
      </trkpt>
      <trkpt lat="36.739843" lon="-3.676823">
        <ele>48.708</ele>
        <time>2021-06-16T12:05:42Z</time>
      </trkpt>
      <trkpt lat="36.739589" lon="-3.676927">
        <ele>47.592</ele>
        <time>2021-06-16T12:05:44Z</time>
      </trkpt>
      <trkpt lat="36.739461" lon="-3.67698">
        <ele>46.650</ele>
        <time>2021-06-16T12:05:45Z</time>
      </trkpt>
      <trkpt lat="36.739204" lon="-3.677087">
        <ele>45.614</ele>
        <time>2021-06-16T12:05:47Z</time>
      </trkpt>
      <trkpt lat="36.738958" lon="-3.677215">
        <ele>44.323</ele>
        <time>2021-06-16T12:05:49Z</time>
      </trkpt>
      <trkpt lat="36.738836" lon="-3.677274">
        <ele>43.176</ele>
        <time>2021-06-16T12:05:50Z</time>
      </trkpt>
      <trkpt lat="36.738594" lon="-3.67741">
        <ele>42.193</ele>
        <time>2021-06-16T12:05:52Z</time>
      </trkpt>
      <trkpt lat="36.738474" lon="-3.677477">
        <ele>41.180</ele>
        <time>2021-06-16T12:05:53Z</time>
      </trkpt>
      <trkpt lat="36.738238" lon="-3.677619">
        <ele>39.970</ele>
        <time>2021-06-16T12:05:55Z</time>
      </trkpt>
      <trkpt lat="36.738118" lon="-3.677693">
        <ele>38.814</ele>
        <time>2021-06-16T12:05:56Z</time>
      </trkpt>
      <trkpt lat="36.738003" lon="-3.677782">
        <ele>37.854</ele>
        <time>2021-06-16T12:05:57Z</time>
      </trkpt>
      <trkpt lat="36.737895" lon="-3.677866">
        <ele>37.309</ele>
        <time>2021-06-16T12:05:58Z</time>
      </trkpt>
      <trkpt lat="36.737725" lon="-3.678028">
        <ele>37.408</ele>
        <time>2021-06-16T12:06:00Z</time>
      </trkpt>
      <trkpt lat="36.737645" lon="-3.678101">
        <ele>37.228</ele>
        <time>2021-06-16T12:06:01Z</time>
      </trkpt>
      <trkpt lat="36.737503" lon="-3.678235">
        <ele>36.746</ele>
        <time>2021-06-16T12:06:03Z</time>
      </trkpt>
      <trkpt lat="36.737373" lon="-3.678371">
        <ele>36.460</ele>
        <time>2021-06-16T12:06:05Z</time>
      </trkpt>
      <trkpt lat="36.737245" lon="-3.678499">
        <ele>36.339</ele>
        <time>2021-06-16T12:06:07Z</time>
      </trkpt>
      <trkpt lat="36.737125" lon="-3.678613">
        <ele>35.872</ele>
        <time>2021-06-16T12:06:09Z</time>
      </trkpt>
      <trkpt lat="36.737009" lon="-3.678718">
        <ele>34.819</ele>
        <time>2021-06-16T12:06:11Z</time>
      </trkpt>
      <trkpt lat="36.736953" lon="-3.678773">
        <ele>34.036</ele>
        <time>2021-06-16T12:06:12Z</time>
      </trkpt>
      <trkpt lat="36.73686" lon="-3.678911">
        <ele>33.226</ele>
        <time>2021-06-16T12:06:14Z</time>
      </trkpt>
      <trkpt lat="36.736787" lon="-3.679072">
        <ele>32.713</ele>
        <time>2021-06-16T12:06:16Z</time>
      </trkpt>
      <trkpt lat="36.736745" lon="-3.679145">
        <ele>31.443</ele>
        <time>2021-06-16T12:06:17Z</time>
      </trkpt>
      <trkpt lat="36.736634" lon="-3.679277">
        <ele>30.207</ele>
        <time>2021-06-16T12:06:19Z</time>
      </trkpt>
      <trkpt lat="36.736578" lon="-3.679351">
        <ele>29.208</ele>
        <time>2021-06-16T12:06:20Z</time>
      </trkpt>
      <trkpt lat="36.736526" lon="-3.679433">
        <ele>28.048</ele>
        <time>2021-06-16T12:06:21Z</time>
      </trkpt>
      <trkpt lat="36.736484" lon="-3.679527">
        <ele>27.526</ele>
        <time>2021-06-16T12:06:22Z</time>
      </trkpt>
      <trkpt lat="36.736406" lon="-3.679728">
        <ele>26.640</ele>
        <time>2021-06-16T12:06:24Z</time>
      </trkpt>
      <trkpt lat="36.736367" lon="-3.679835">
        <ele>25.939</ele>
        <time>2021-06-16T12:06:25Z</time>
      </trkpt>
      <trkpt lat="36.73629" lon="-3.680064">
        <ele>25.422</ele>
        <time>2021-06-16T12:06:27Z</time>
      </trkpt>
      <trkpt lat="36.736249" lon="-3.680187">
        <ele>25.249</ele>
        <time>2021-06-16T12:06:28Z</time>
      </trkpt>
      <trkpt lat="36.736209" lon="-3.68031">
        <ele>24.776</ele>
        <time>2021-06-16T12:06:29Z</time>
      </trkpt>
      <trkpt lat="36.736175" lon="-3.68044">
        <ele>24.476</ele>
        <time>2021-06-16T12:06:30Z</time>
      </trkpt>
      <trkpt lat="36.736109" lon="-3.680717">
        <ele>24.011</ele>
        <time>2021-06-16T12:06:32Z</time>
      </trkpt>
      <trkpt lat="36.736049" lon="-3.681005">
        <ele>23.321</ele>
        <time>2021-06-16T12:06:34Z</time>
      </trkpt>
      <trkpt lat="36.736024" lon="-3.681146">
        <ele>22.403</ele>
        <time>2021-06-16T12:06:35Z</time>
      </trkpt>
      <trkpt lat="36.735991" lon="-3.681447">
        <ele>21.908</ele>
        <time>2021-06-16T12:06:37Z</time>
      </trkpt>
      <trkpt lat="36.735962" lon="-3.681738">
        <ele>20.748</ele>
        <time>2021-06-16T12:06:39Z</time>
      </trkpt>
      <trkpt lat="36.735954" lon="-3.681888">
        <ele>19.996</ele>
        <time>2021-06-16T12:06:40Z</time>
      </trkpt>
      <trkpt lat="36.735958" lon="-3.68218">
        <ele>18.920</ele>
        <time>2021-06-16T12:06:42Z</time>
      </trkpt>
      <trkpt lat="36.735967" lon="-3.682307">
        <ele>17.199</ele>
        <time>2021-06-16T12:06:43Z</time>
      </trkpt>
      <trkpt lat="36.73598" lon="-3.682422">
        <ele>15.742</ele>
        <time>2021-06-16T12:06:44Z</time>
      </trkpt>
      <trkpt lat="36.735997" lon="-3.682528">
        <ele>14.159</ele>
        <time>2021-06-16T12:06:45Z</time>
      </trkpt>
      <trkpt lat="36.736021" lon="-3.682711">
        <ele>12.796</ele>
        <time>2021-06-16T12:06:47Z</time>
      </trkpt>
      <trkpt lat="36.73605" lon="-3.682869">
        <ele>11.756</ele>
        <time>2021-06-16T12:06:49Z</time>
      </trkpt>
      <trkpt lat="36.736087" lon="-3.683048">
        <ele>10.826</ele>
        <time>2021-06-16T12:06:51Z</time>
      </trkpt>
      <trkpt lat="36.736128" lon="-3.683259">
        <ele>9.647</ele>
        <time>2021-06-16T12:06:53Z</time>
      </trkpt>
      <trkpt lat="36.736149" lon="-3.683373">
        <ele>8.711</ele>
        <time>2021-06-16T12:06:54Z</time>
      </trkpt>
      <trkpt lat="36.736196" lon="-3.68361">
        <ele>7.908</ele>
        <time>2021-06-16T12:06:56Z</time>
      </trkpt>
      <trkpt lat="36.736222" lon="-3.683726">
        <ele>7.459</ele>
        <time>2021-06-16T12:06:57Z</time>
      </trkpt>
      <trkpt lat="36.73627" lon="-3.683952">
        <ele>7.147</ele>
        <time>2021-06-16T12:06:59Z</time>
      </trkpt>
      <trkpt lat="36.736309" lon="-3.684167">
        <ele>7.241</ele>
        <time>2021-06-16T12:07:01Z</time>
      </trkpt>
      <trkpt lat="36.736348" lon="-3.684377">
        <ele>6.910</ele>
        <time>2021-06-16T12:07:03Z</time>
      </trkpt>
      <trkpt lat="36.736363" lon="-3.684481">
        <ele>6.983</ele>
        <time>2021-06-16T12:07:04Z</time>
      </trkpt>
      <trkpt lat="36.736375" lon="-3.684581">
        <ele>6.820</ele>
        <time>2021-06-16T12:07:05Z</time>
      </trkpt>
      <trkpt lat="36.7364" lon="-3.684765">
        <ele>6.677</ele>
        <time>2021-06-16T12:07:07Z</time>
      </trkpt>
      <trkpt lat="36.736406" lon="-3.684863">
        <ele>6.757</ele>
        <time>2021-06-16T12:07:08Z</time>
      </trkpt>
      <trkpt lat="36.736438" lon="-3.685048">
        <ele>6.621</ele>
        <time>2021-06-16T12:07:10Z</time>
      </trkpt>
      <trkpt lat="36.73646" lon="-3.685125">
        <ele>5.941</ele>
        <time>2021-06-16T12:07:11Z</time>
      </trkpt>
      <trkpt lat="36.736487" lon="-3.68526">
        <ele>5.205</ele>
        <time>2021-06-16T12:07:13Z</time>
      </trkpt>
      <trkpt lat="36.736496" lon="-3.685316">
        <ele>4.208</ele>
        <time>2021-06-16T12:07:14Z</time>
      </trkpt>
      <trkpt lat="36.736505" lon="-3.685431">
        <ele>3.289</ele>
        <time>2021-06-16T12:07:16Z</time>
      </trkpt>
      <trkpt lat="36.73653" lon="-3.685507">
        <ele>1.747</ele>
        <time>2021-06-16T12:07:17Z</time>
      </trkpt>
      <trkpt lat="36.736563" lon="-3.685599">
        <ele>0.691</ele>
        <time>2021-06-16T12:07:18Z</time>
      </trkpt>
      <trkpt lat="36.736592" lon="-3.685706">
        <ele>-0.390</ele>
        <time>2021-06-16T12:07:19Z</time>
      </trkpt>
      <trkpt lat="36.736617" lon="-3.685928">
        <ele>-1.053</ele>
        <time>2021-06-16T12:07:21Z</time>
      </trkpt>
      <trkpt lat="36.736654" lon="-3.686146">
        <ele>-1.030</ele>
        <time>2021-06-16T12:07:23Z</time>
      </trkpt>
      <trkpt lat="36.736678" lon="-3.686248">
        <ele>-0.817</ele>
        <time>2021-06-16T12:07:24Z</time>
      </trkpt>
      <trkpt lat="36.736712" lon="-3.686429">
        <ele>-0.567</ele>
        <time>2021-06-16T12:07:26Z</time>
      </trkpt>
      <trkpt lat="36.736745" lon="-3.686593">
        <ele>-0.444</ele>
        <time>2021-06-16T12:07:28Z</time>
      </trkpt>
      <trkpt lat="36.736758" lon="-3.686663">
        <ele>-0.605</ele>
        <time>2021-06-16T12:07:29Z</time>
      </trkpt>
      <trkpt lat="36.736768" lon="-3.68673">
        <ele>-0.115</ele>
        <time>2021-06-16T12:07:30Z</time>
      </trkpt>
      <trkpt lat="36.736775" lon="-3.686796">
        <ele>1.008</ele>
        <time>2021-06-16T12:07:31Z</time>
      </trkpt>
      <trkpt lat="36.736796" lon="-3.6869">
        <ele>1.661</ele>
        <time>2021-06-16T12:07:33Z</time>
      </trkpt>
      <trkpt lat="36.736828" lon="-3.686981">
        <ele>1.859</ele>
        <time>2021-06-16T12:07:35Z</time>
      </trkpt>
      <trkpt lat="36.736845" lon="-3.687077">
        <ele>2.313</ele>
        <time>2021-06-16T12:07:37Z</time>
      </trkpt>
      <trkpt lat="36.736851" lon="-3.687154">
        <ele>4.472</ele>
        <time>2021-06-16T12:07:39Z</time>
      </trkpt>
      <trkpt lat="36.736866" lon="-3.687225">
        <ele>5.845</ele>
        <time>2021-06-16T12:07:54Z</time>
      </trkpt>
      <trkpt lat="36.73688" lon="-3.687324">
        <ele>6.782</ele>
        <time>2021-06-16T12:07:56Z</time>
      </trkpt>
      <trkpt lat="36.736902" lon="-3.687444">
        <ele>7.219</ele>
        <time>2021-06-16T12:07:58Z</time>
      </trkpt>
      <trkpt lat="36.736938" lon="-3.687648">
        <ele>7.549</ele>
        <time>2021-06-16T12:08:00Z</time>
      </trkpt>
      <trkpt lat="36.736959" lon="-3.687763">
        <ele>7.735</ele>
        <time>2021-06-16T12:08:01Z</time>
      </trkpt>
      <trkpt lat="36.736979" lon="-3.687879">
        <ele>7.886</ele>
        <time>2021-06-16T12:08:02Z</time>
      </trkpt>
      <trkpt lat="36.737002" lon="-3.688003">
        <ele>7.914</ele>
        <time>2021-06-16T12:08:03Z</time>
      </trkpt>
      <trkpt lat="36.737045" lon="-3.688257">
        <ele>7.908</ele>
        <time>2021-06-16T12:08:05Z</time>
      </trkpt>
      <trkpt lat="36.73707" lon="-3.688393">
        <ele>7.980</ele>
        <time>2021-06-16T12:08:06Z</time>
      </trkpt>
      <trkpt lat="36.737127" lon="-3.688666">
        <ele>7.928</ele>
        <time>2021-06-16T12:08:08Z</time>
      </trkpt>
      <trkpt lat="36.737163" lon="-3.688802">
        <ele>7.942</ele>
        <time>2021-06-16T12:08:09Z</time>
      </trkpt>
      <trkpt lat="36.737225" lon="-3.689084">
        <ele>7.961</ele>
        <time>2021-06-16T12:08:11Z</time>
      </trkpt>
      <trkpt lat="36.73728" lon="-3.689381">
        <ele>7.984</ele>
        <time>2021-06-16T12:08:13Z</time>
      </trkpt>
      <trkpt lat="36.737318" lon="-3.689538">
        <ele>7.961</ele>
        <time>2021-06-16T12:08:14Z</time>
      </trkpt>
      <trkpt lat="36.737401" lon="-3.689859">
        <ele>7.938</ele>
        <time>2021-06-16T12:08:16Z</time>
      </trkpt>
      <trkpt lat="36.737445" lon="-3.690024">
        <ele>7.958</ele>
        <time>2021-06-16T12:08:17Z</time>
      </trkpt>
      <trkpt lat="36.737534" lon="-3.690361">
        <ele>7.979</ele>
        <time>2021-06-16T12:08:19Z</time>
      </trkpt>
      <trkpt lat="36.737587" lon="-3.69053">
        <ele>7.905</ele>
        <time>2021-06-16T12:08:20Z</time>
      </trkpt>
      <trkpt lat="36.737639" lon="-3.690701">
        <ele>7.925</ele>
        <time>2021-06-16T12:08:21Z</time>
      </trkpt>
      <trkpt lat="36.737747" lon="-3.691042">
        <ele>7.908</ele>
        <time>2021-06-16T12:08:23Z</time>
      </trkpt>
      <trkpt lat="36.737862" lon="-3.691384">
        <ele>7.914</ele>
        <time>2021-06-16T12:08:25Z</time>
      </trkpt>
      <trkpt lat="36.737983" lon="-3.69173">
        <ele>7.932</ele>
        <time>2021-06-16T12:08:27Z</time>
      </trkpt>
      <trkpt lat="36.738045" lon="-3.691905">
        <ele>7.936</ele>
        <time>2021-06-16T12:08:28Z</time>
      </trkpt>
      <trkpt lat="36.73817" lon="-3.692271">
        <ele>7.965</ele>
        <time>2021-06-16T12:08:30Z</time>
      </trkpt>
      <trkpt lat="36.738236" lon="-3.69246">
        <ele>7.958</ele>
        <time>2021-06-16T12:08:31Z</time>
      </trkpt>
      <trkpt lat="36.738372" lon="-3.692833">
        <ele>7.955</ele>
        <time>2021-06-16T12:08:33Z</time>
      </trkpt>
      <trkpt lat="36.738512" lon="-3.69321">
        <ele>7.972</ele>
        <time>2021-06-16T12:08:35Z</time>
      </trkpt>
      <trkpt lat="36.73866" lon="-3.69358">
        <ele>7.942</ele>
        <time>2021-06-16T12:08:37Z</time>
      </trkpt>
      <trkpt lat="36.738732" lon="-3.693765">
        <ele>7.949</ele>
        <time>2021-06-16T12:08:38Z</time>
      </trkpt>
      <trkpt lat="36.738803" lon="-3.693949">
        <ele>7.902</ele>
        <time>2021-06-16T12:08:39Z</time>
      </trkpt>
      <trkpt lat="36.738949" lon="-3.694315">
        <ele>7.922</ele>
        <time>2021-06-16T12:08:41Z</time>
      </trkpt>
      <trkpt lat="36.739086" lon="-3.694681">
        <ele>7.908</ele>
        <time>2021-06-16T12:08:43Z</time>
      </trkpt>
      <trkpt lat="36.739156" lon="-3.694864">
        <ele>7.961</ele>
        <time>2021-06-16T12:08:44Z</time>
      </trkpt>
      <trkpt lat="36.739295" lon="-3.695235">
        <ele>7.949</ele>
        <time>2021-06-16T12:08:46Z</time>
      </trkpt>
      <trkpt lat="36.73936" lon="-3.69542">
        <ele>7.913</ele>
        <time>2021-06-16T12:08:47Z</time>
      </trkpt>
      <trkpt lat="36.739425" lon="-3.695603">
        <ele>7.932</ele>
        <time>2021-06-16T12:08:48Z</time>
      </trkpt>
      <trkpt lat="36.739494" lon="-3.695785">
        <ele>7.985</ele>
        <time>2021-06-16T12:08:49Z</time>
      </trkpt>
      <trkpt lat="36.73963" lon="-3.696134">
        <ele>7.952</ele>
        <time>2021-06-16T12:08:51Z</time>
      </trkpt>
      <trkpt lat="36.739758" lon="-3.696458">
        <ele>7.959</ele>
        <time>2021-06-16T12:08:53Z</time>
      </trkpt>
      <trkpt lat="36.739817" lon="-3.696607">
        <ele>11.919</ele>
        <time>2021-06-16T12:08:54Z</time>
      </trkpt>
      <trkpt lat="36.739872" lon="-3.696754">
        <ele>15.991</ele>
        <time>2021-06-16T12:08:55Z</time>
      </trkpt>
      <trkpt lat="36.739923" lon="-3.696898">
        <ele>19.981</ele>
        <time>2021-06-16T12:08:56Z</time>
      </trkpt>
      <trkpt lat="36.740026" lon="-3.697167">
        <ele>23.919</ele>
        <time>2021-06-16T12:08:58Z</time>
      </trkpt>
      <trkpt lat="36.740075" lon="-3.6973">
        <ele>27.208</ele>
        <time>2021-06-16T12:08:59Z</time>
      </trkpt>
      <trkpt lat="36.740121" lon="-3.697429">
        <ele>29.536</ele>
        <time>2021-06-16T12:09:00Z</time>
      </trkpt>
      <trkpt lat="36.740203" lon="-3.697669">
        <ele>31.454</ele>
        <time>2021-06-16T12:09:02Z</time>
      </trkpt>
      <trkpt lat="36.740239" lon="-3.697883">
        <ele>33.378</ele>
        <time>2021-06-16T12:09:04Z</time>
      </trkpt>
      <trkpt lat="36.74025" lon="-3.69798">
        <ele>34.997</ele>
        <time>2021-06-16T12:09:05Z</time>
      </trkpt>
      <trkpt lat="36.740261" lon="-3.698067">
        <ele>36.180</ele>
        <time>2021-06-16T12:09:06Z</time>
      </trkpt>
      <trkpt lat="36.740268" lon="-3.698143">
        <ele>37.127</ele>
        <time>2021-06-16T12:09:07Z</time>
      </trkpt>
      <trkpt lat="36.740284" lon="-3.698269">
        <ele>38.334</ele>
        <time>2021-06-16T12:09:09Z</time>
      </trkpt>
      <trkpt lat="36.740289" lon="-3.698326">
        <ele>38.734</ele>
        <time>2021-06-16T12:09:10Z</time>
      </trkpt>
      <trkpt lat="36.740295" lon="-3.698405">
        <ele>38.952</ele>
        <time>2021-06-16T12:09:12Z</time>
      </trkpt>
      <trkpt lat="36.740327" lon="-3.69848">
        <ele>39.453</ele>
        <time>2021-06-16T12:09:14Z</time>
      </trkpt>
      <trkpt lat="36.740348" lon="-3.698571">
        <ele>39.108</ele>
        <time>2021-06-16T12:09:16Z</time>
      </trkpt>
      <trkpt lat="36.740363" lon="-3.698636">
        <ele>39.608</ele>
        <time>2021-06-16T12:09:17Z</time>
      </trkpt>
      <trkpt lat="36.740366" lon="-3.698709">
        <ele>39.872</ele>
        <time>2021-06-16T12:09:18Z</time>
      </trkpt>
      <trkpt lat="36.740365" lon="-3.698838">
        <ele>40.450</ele>
        <time>2021-06-16T12:09:20Z</time>
      </trkpt>
      <trkpt lat="36.740362" lon="-3.698923">
        <ele>39.564</ele>
        <time>2021-06-16T12:09:22Z</time>
      </trkpt>
      <trkpt lat="36.740368" lon="-3.699014">
        <ele>39.063</ele>
        <time>2021-06-16T12:09:24Z</time>
      </trkpt>
      <trkpt lat="36.740351" lon="-3.699088">
        <ele>38.646</ele>
        <time>2021-06-16T12:09:27Z</time>
      </trkpt>
      <trkpt lat="36.740328" lon="-3.699147">
        <ele>38.483</ele>
        <time>2021-06-16T12:09:30Z</time>
      </trkpt>
      <trkpt lat="36.740329" lon="-3.699209">
        <ele>38.430</ele>
        <time>2021-06-16T12:09:43Z</time>
      </trkpt>
      <trkpt lat="36.74029" lon="-3.699256">
        <ele>38.490</ele>
        <time>2021-06-16T12:09:50Z</time>
      </trkpt>
      <trkpt lat="36.740253" lon="-3.699311">
        <ele>38.577</ele>
        <time>2021-06-16T12:09:52Z</time>
      </trkpt>
      <trkpt lat="36.740224" lon="-3.699378">
        <ele>38.561</ele>
        <time>2021-06-16T12:09:53Z</time>
      </trkpt>
      <trkpt lat="36.740204" lon="-3.699462">
        <ele>38.527</ele>
        <time>2021-06-16T12:09:54Z</time>
      </trkpt>
      <trkpt lat="36.740187" lon="-3.699548">
        <ele>38.508</ele>
        <time>2021-06-16T12:09:55Z</time>
      </trkpt>
      <trkpt lat="36.740151" lon="-3.699752">
        <ele>38.534</ele>
        <time>2021-06-16T12:09:57Z</time>
      </trkpt>
      <trkpt lat="36.740137" lon="-3.699865">
        <ele>38.562</ele>
        <time>2021-06-16T12:09:58Z</time>
      </trkpt>
      <trkpt lat="36.740122" lon="-3.700111">
        <ele>38.546</ele>
        <time>2021-06-16T12:10:00Z</time>
      </trkpt>
      <trkpt lat="36.740121" lon="-3.700238">
        <ele>38.595</ele>
        <time>2021-06-16T12:10:01Z</time>
      </trkpt>
      <trkpt lat="36.740133" lon="-3.700516">
        <ele>38.558</ele>
        <time>2021-06-16T12:10:03Z</time>
      </trkpt>
      <trkpt lat="36.740183" lon="-3.7008">
        <ele>38.565</ele>
        <time>2021-06-16T12:10:05Z</time>
      </trkpt>
      <trkpt lat="36.740214" lon="-3.700947">
        <ele>38.572</ele>
        <time>2021-06-16T12:10:06Z</time>
      </trkpt>
      <trkpt lat="36.740242" lon="-3.701094">
        <ele>38.582</ele>
        <time>2021-06-16T12:10:07Z</time>
      </trkpt>
      <trkpt lat="36.740268" lon="-3.701241">
        <ele>38.532</ele>
        <time>2021-06-16T12:10:08Z</time>
      </trkpt>
      <trkpt lat="36.740294" lon="-3.701544">
        <ele>38.592</ele>
        <time>2021-06-16T12:10:10Z</time>
      </trkpt>
      <trkpt lat="36.740248" lon="-3.70185">
        <ele>38.511</ele>
        <time>2021-06-16T12:10:12Z</time>
      </trkpt>
      <trkpt lat="36.74014" lon="-3.702134">
        <ele>38.508</ele>
        <time>2021-06-16T12:10:14Z</time>
      </trkpt>
      <trkpt lat="36.74007" lon="-3.702272">
        <ele>38.540</ele>
        <time>2021-06-16T12:10:15Z</time>
      </trkpt>
      <trkpt lat="36.739941" lon="-3.702552">
        <ele>38.538</ele>
        <time>2021-06-16T12:10:17Z</time>
      </trkpt>
      <trkpt lat="36.739879" lon="-3.702697">
        <ele>38.542</ele>
        <time>2021-06-16T12:10:18Z</time>
      </trkpt>
      <trkpt lat="36.739798" lon="-3.703003">
        <ele>38.551</ele>
        <time>2021-06-16T12:10:20Z</time>
      </trkpt>
      <trkpt lat="36.739775" lon="-3.703171">
        <ele>38.594</ele>
        <time>2021-06-16T12:10:21Z</time>
      </trkpt>
      <trkpt lat="36.739779" lon="-3.703506">
        <ele>38.541</ele>
        <time>2021-06-16T12:10:23Z</time>
      </trkpt>
      <trkpt lat="36.739801" lon="-3.703674">
        <ele>38.568</ele>
        <time>2021-06-16T12:10:24Z</time>
      </trkpt>
      <trkpt lat="36.739843" lon="-3.703836">
        <ele>38.588</ele>
        <time>2021-06-16T12:10:25Z</time>
      </trkpt>
      <trkpt lat="36.739911" lon="-3.703988">
        <ele>38.548</ele>
        <time>2021-06-16T12:10:26Z</time>
      </trkpt>
      <trkpt lat="36.74009" lon="-3.704254">
        <ele>38.561</ele>
        <time>2021-06-16T12:10:28Z</time>
      </trkpt>
      <trkpt lat="36.740195" lon="-3.704375">
        <ele>38.517</ele>
        <time>2021-06-16T12:10:29Z</time>
      </trkpt>
      <trkpt lat="36.740401" lon="-3.704617">
        <ele>38.508</ele>
        <time>2021-06-16T12:10:31Z</time>
      </trkpt>
      <trkpt lat="36.7405" lon="-3.704747">
        <ele>38.531</ele>
        <time>2021-06-16T12:10:32Z</time>
      </trkpt>
      <trkpt lat="36.740598" lon="-3.704878">
        <ele>38.519</ele>
        <time>2021-06-16T12:10:33Z</time>
      </trkpt>
      <trkpt lat="36.740791" lon="-3.705132">
        <ele>38.563</ele>
        <time>2021-06-16T12:10:35Z</time>
      </trkpt>
      <trkpt lat="36.74088" lon="-3.705259">
        <ele>38.522</ele>
        <time>2021-06-16T12:10:36Z</time>
      </trkpt>
      <trkpt lat="36.741024" lon="-3.705542">
        <ele>38.515</ele>
        <time>2021-06-16T12:10:38Z</time>
      </trkpt>
      <trkpt lat="36.741052" lon="-3.705708">
        <ele>38.592</ele>
        <time>2021-06-16T12:10:39Z</time>
      </trkpt>
      <trkpt lat="36.740987" lon="-3.706042">
        <ele>38.599</ele>
        <time>2021-06-16T12:10:41Z</time>
      </trkpt>
      <trkpt lat="36.740903" lon="-3.706186">
        <ele>38.519</ele>
        <time>2021-06-16T12:10:42Z</time>
      </trkpt>
      <trkpt lat="36.740688" lon="-3.70643">
        <ele>38.531</ele>
        <time>2021-06-16T12:10:44Z</time>
      </trkpt>
      <trkpt lat="36.740403" lon="-3.706517">
        <ele>38.561</ele>
        <time>2021-06-16T12:10:46Z</time>
      </trkpt>
      <trkpt lat="36.740251" lon="-3.706514">
        <ele>38.507</ele>
        <time>2021-06-16T12:10:47Z</time>
      </trkpt>
      <trkpt lat="36.739961" lon="-3.706478">
        <ele>38.508</ele>
        <time>2021-06-16T12:10:49Z</time>
      </trkpt>
      <trkpt lat="36.739674" lon="-3.706552">
        <ele>38.560</ele>
        <time>2021-06-16T12:10:51Z</time>
      </trkpt>
      <trkpt lat="36.739539" lon="-3.706626">
        <ele>38.578</ele>
        <time>2021-06-16T12:10:52Z</time>
      </trkpt>
      <trkpt lat="36.739307" lon="-3.706846">
        <ele>42.552</ele>
        <time>2021-06-16T12:10:54Z</time>
      </trkpt>
      <trkpt lat="36.739197" lon="-3.706969">
        <ele>46.561</ele>
        <time>2021-06-16T12:10:55Z</time>
      </trkpt>
      <trkpt lat="36.738977" lon="-3.70722">
        <ele>50.534</ele>
        <time>2021-06-16T12:10:57Z</time>
      </trkpt>
      <trkpt lat="36.738868" lon="-3.707352">
        <ele>54.561</ele>
        <time>2021-06-16T12:10:58Z</time>
      </trkpt>
      <trkpt lat="36.738681" lon="-3.707646">
        <ele>58.518</ele>
        <time>2021-06-16T12:11:00Z</time>
      </trkpt>
      <trkpt lat="36.7386" lon="-3.707803">
        <ele>62.538</ele>
        <time>2021-06-16T12:11:01Z</time>
      </trkpt>
      <trkpt lat="36.738517" lon="-3.707947">
        <ele>66.576</ele>
        <time>2021-06-16T12:11:02Z</time>
      </trkpt>
      <trkpt lat="36.738304" lon="-3.708178">
        <ele>70.590</ele>
        <time>2021-06-16T12:11:04Z</time>
      </trkpt>
      <trkpt lat="36.738169" lon="-3.70826">
        <ele>74.519</ele>
        <time>2021-06-16T12:11:05Z</time>
      </trkpt>
      <trkpt lat="36.738023" lon="-3.708324">
        <ele>78.508</ele>
        <time>2021-06-16T12:11:06Z</time>
      </trkpt>
      <trkpt lat="36.737739" lon="-3.708433">
        <ele>82.554</ele>
        <time>2021-06-16T12:11:08Z</time>
      </trkpt>
      <trkpt lat="36.737451" lon="-3.708539">
        <ele>86.582</ele>
        <time>2021-06-16T12:11:10Z</time>
      </trkpt>
      <trkpt lat="36.73716" lon="-3.708651">
        <ele>90.586</ele>
        <time>2021-06-16T12:11:12Z</time>
      </trkpt>
      <trkpt lat="36.736884" lon="-3.708785">
        <ele>94.595</ele>
        <time>2021-06-16T12:11:14Z</time>
      </trkpt>
      <trkpt lat="36.736757" lon="-3.708877">
        <ele>97.018</ele>
        <time>2021-06-16T12:11:15Z</time>
      </trkpt>
      <trkpt lat="36.736537" lon="-3.709137">
        <ele>98.475</ele>
        <time>2021-06-16T12:11:17Z</time>
      </trkpt>
      <trkpt lat="36.736408" lon="-3.70949">
        <ele>98.982</ele>
        <time>2021-06-16T12:11:19Z</time>
      </trkpt>
      <trkpt lat="36.73639" lon="-3.709686">
        <ele>98.142</ele>
        <time>2021-06-16T12:11:20Z</time>
      </trkpt>
      <trkpt lat="36.736403" lon="-3.709887">
        <ele>97.656</ele>
        <time>2021-06-16T12:11:21Z</time>
      </trkpt>
      <trkpt lat="36.736507" lon="-3.710276">
        <ele>96.859</ele>
        <time>2021-06-16T12:11:23Z</time>
      </trkpt>
      <trkpt lat="36.736597" lon="-3.71045">
        <ele>96.014</ele>
        <time>2021-06-16T12:11:24Z</time>
      </trkpt>
      <trkpt lat="36.736707" lon="-3.710615">
        <ele>94.908</ele>
        <time>2021-06-16T12:11:25Z</time>
      </trkpt>
      <trkpt lat="36.736941" lon="-3.710937">
        <ele>94.082</ele>
        <time>2021-06-16T12:11:27Z</time>
      </trkpt>
      <trkpt lat="36.73706" lon="-3.711101">
        <ele>93.060</ele>
        <time>2021-06-16T12:11:28Z</time>
      </trkpt>
      <trkpt lat="36.7373" lon="-3.711436">
        <ele>90.754</ele>
        <time>2021-06-16T12:11:30Z</time>
      </trkpt>
      <trkpt lat="36.737535" lon="-3.711773">
        <ele>88.573</ele>
        <time>2021-06-16T12:11:32Z</time>
      </trkpt>
      <trkpt lat="36.737653" lon="-3.711941">
        <ele>86.616</ele>
        <time>2021-06-16T12:11:33Z</time>
      </trkpt>
      <trkpt lat="36.737771" lon="-3.712111">
        <ele>85.173</ele>
        <time>2021-06-16T12:11:34Z</time>
      </trkpt>
      <trkpt lat="36.737886" lon="-3.712285">
        <ele>83.950</ele>
        <time>2021-06-16T12:11:35Z</time>
      </trkpt>
      <trkpt lat="36.737995" lon="-3.712466">
        <ele>82.760</ele>
        <time>2021-06-16T12:11:36Z</time>
      </trkpt>
      <trkpt lat="36.738083" lon="-3.712655">
        <ele>81.437</ele>
        <time>2021-06-16T12:11:37Z</time>
      </trkpt>
      <trkpt lat="36.738147" lon="-3.712856">
        <ele>79.649</ele>
        <time>2021-06-16T12:11:38Z</time>
      </trkpt>
      <trkpt lat="36.738207" lon="-3.713284">
        <ele>77.913</ele>
        <time>2021-06-16T12:11:40Z</time>
      </trkpt>
      <trkpt lat="36.738201" lon="-3.713501">
        <ele>76.308</ele>
        <time>2021-06-16T12:11:41Z</time>
      </trkpt>
      <trkpt lat="36.738116" lon="-3.713918">
        <ele>74.830</ele>
        <time>2021-06-16T12:11:43Z</time>
      </trkpt>
      <trkpt lat="36.737945" lon="-3.714299">
        <ele>73.288</ele>
        <time>2021-06-16T12:11:45Z</time>
      </trkpt>
      <trkpt lat="36.737697" lon="-3.714621">
        <ele>71.972</ele>
        <time>2021-06-16T12:11:47Z</time>
      </trkpt>
      <trkpt lat="36.737554" lon="-3.714744">
        <ele>71.531</ele>
        <time>2021-06-16T12:11:48Z</time>
      </trkpt>
      <trkpt lat="36.737216" lon="-3.714891">
        <ele>71.514</ele>
        <time>2021-06-16T12:11:50Z</time>
      </trkpt>
      <trkpt lat="36.737034" lon="-3.714919">
        <ele>71.761</ele>
        <time>2021-06-16T12:11:51Z</time>
      </trkpt>
      <trkpt lat="36.736676" lon="-3.714915">
        <ele>72.378</ele>
        <time>2021-06-16T12:11:53Z</time>
      </trkpt>
      <trkpt lat="36.736349" lon="-3.714852">
        <ele>73.148</ele>
        <time>2021-06-16T12:11:55Z</time>
      </trkpt>
      <trkpt lat="36.736197" lon="-3.71483">
        <ele>73.578</ele>
        <time>2021-06-16T12:11:56Z</time>
      </trkpt>
      <trkpt lat="36.7359" lon="-3.714849">
        <ele>74.933</ele>
        <time>2021-06-16T12:11:58Z</time>
      </trkpt>
      <trkpt lat="36.735627" lon="-3.714976">
        <ele>76.726</ele>
        <time>2021-06-16T12:12:00Z</time>
      </trkpt>
      <trkpt lat="36.735403" lon="-3.715227">
        <ele>77.908</ele>
        <time>2021-06-16T12:12:02Z</time>
      </trkpt>
      <trkpt lat="36.735275" lon="-3.715602">
        <ele>78.724</ele>
        <time>2021-06-16T12:12:04Z</time>
      </trkpt>
      <trkpt lat="36.735263" lon="-3.715797">
        <ele>79.992</ele>
        <time>2021-06-16T12:12:05Z</time>
      </trkpt>
      <trkpt lat="36.735293" lon="-3.715992">
        <ele>80.876</ele>
        <time>2021-06-16T12:12:06Z</time>
      </trkpt>
      <trkpt lat="36.73535" lon="-3.716177">
        <ele>81.785</ele>
        <time>2021-06-16T12:12:07Z</time>
      </trkpt>
      <trkpt lat="36.735525" lon="-3.716499">
        <ele>83.298</ele>
        <time>2021-06-16T12:12:09Z</time>
      </trkpt>
      <trkpt lat="36.735775" lon="-3.716733">
        <ele>84.815</ele>
        <time>2021-06-16T12:12:11Z</time>
      </trkpt>
      <trkpt lat="36.736045" lon="-3.71691">
        <ele>85.882</ele>
        <time>2021-06-16T12:12:13Z</time>
      </trkpt>
      <trkpt lat="36.736188" lon="-3.716985">
        <ele>86.492</ele>
        <time>2021-06-16T12:12:14Z</time>
      </trkpt>
      <trkpt lat="36.736468" lon="-3.717171">
        <ele>87.096</ele>
        <time>2021-06-16T12:12:16Z</time>
      </trkpt>
      <trkpt lat="36.736589" lon="-3.717298">
        <ele>87.131</ele>
        <time>2021-06-16T12:12:17Z</time>
      </trkpt>
      <trkpt lat="36.736754" lon="-3.717612">
        <ele>87.924</ele>
        <time>2021-06-16T12:12:19Z</time>
      </trkpt>
      <trkpt lat="36.7368" lon="-3.717793">
        <ele>89.008</ele>
        <time>2021-06-16T12:12:20Z</time>
      </trkpt>
      <trkpt lat="36.736821" lon="-3.718175">
        <ele>90.096</ele>
        <time>2021-06-16T12:12:22Z</time>
      </trkpt>
      <trkpt lat="36.736759" lon="-3.718551">
        <ele>91.124</ele>
        <time>2021-06-16T12:12:24Z</time>
      </trkpt>
      <trkpt lat="36.73671" lon="-3.718736">
        <ele>92.018</ele>
        <time>2021-06-16T12:12:25Z</time>
      </trkpt>
      <trkpt lat="36.736624" lon="-3.719094">
        <ele>92.917</ele>
        <time>2021-06-16T12:12:27Z</time>
      </trkpt>
      <trkpt lat="36.736572" lon="-3.719469">
        <ele>93.940</ele>
        <time>2021-06-16T12:12:29Z</time>
      </trkpt>
      <trkpt lat="36.736627" lon="-3.719826">
        <ele>95.067</ele>
        <time>2021-06-16T12:12:31Z</time>
      </trkpt>
      <trkpt lat="36.73675" lon="-3.72016">
        <ele>95.884</ele>
        <time>2021-06-16T12:12:33Z</time>
      </trkpt>
      <trkpt lat="36.736853" lon="-3.7203">
        <ele>96.414</ele>
        <time>2021-06-16T12:12:34Z</time>
      </trkpt>
      <trkpt lat="36.736966" lon="-3.720424">
        <ele>97.083</ele>
        <time>2021-06-16T12:12:35Z</time>
      </trkpt>
      <trkpt lat="36.73708" lon="-3.720536">
        <ele>97.825</ele>
        <time>2021-06-16T12:12:36Z</time>
      </trkpt>
      <trkpt lat="36.737278" lon="-3.720794">
        <ele>99.317</ele>
        <time>2021-06-16T12:12:38Z</time>
      </trkpt>
      <trkpt lat="36.737419" lon="-3.721116">
        <ele>101.208</ele>
        <time>2021-06-16T12:12:40Z</time>
      </trkpt>
      <trkpt lat="36.73746" lon="-3.721303">
        <ele>103.015</ele>
        <time>2021-06-16T12:12:41Z</time>
      </trkpt>
      <trkpt lat="36.73748" lon="-3.721687">
        <ele>104.613</ele>
        <time>2021-06-16T12:12:43Z</time>
      </trkpt>
      <trkpt lat="36.737431" lon="-3.722068">
        <ele>106.297</ele>
        <time>2021-06-16T12:12:45Z</time>
      </trkpt>
      <trkpt lat="36.737395" lon="-3.722256">
        <ele>107.456</ele>
        <time>2021-06-16T12:12:46Z</time>
      </trkpt>
      <trkpt lat="36.737327" lon="-3.72264">
        <ele>108.859</ele>
        <time>2021-06-16T12:12:48Z</time>
      </trkpt>
      <trkpt lat="36.737293" lon="-3.722832">
        <ele>109.696</ele>
        <time>2021-06-16T12:12:49Z</time>
      </trkpt>
      <trkpt lat="36.737233" lon="-3.723211">
        <ele>110.443</ele>
        <time>2021-06-16T12:12:51Z</time>
      </trkpt>
      <trkpt lat="36.737202" lon="-3.723608">
        <ele>111.473</ele>
        <time>2021-06-16T12:12:53Z</time>
      </trkpt>
      <trkpt lat="36.737187" lon="-3.723809">
        <ele>112.084</ele>
        <time>2021-06-16T12:12:54Z</time>
      </trkpt>
      <trkpt lat="36.737956" lon="-3.727442">
        <ele>113.707</ele>
        <time>2021-06-16T12:13:15Z</time>
      </trkpt>
      <trkpt lat="36.737899" lon="-3.727632">
        <ele>114.617</ele>
        <time>2021-06-16T12:13:16Z</time>
      </trkpt>
      <trkpt lat="36.737741" lon="-3.727974">
        <ele>112.908</ele>
        <time>2021-06-16T12:13:18Z</time>
      </trkpt>
      <trkpt lat="36.737634" lon="-3.728131">
        <ele>112.455</ele>
        <time>2021-06-16T12:13:19Z</time>
      </trkpt>
      <trkpt lat="36.73738" lon="-3.728386">
        <ele>112.233</ele>
        <time>2021-06-16T12:13:21Z</time>
      </trkpt>
      <trkpt lat="36.73724" lon="-3.728495">
        <ele>111.687</ele>
        <time>2021-06-16T12:13:22Z</time>
      </trkpt>
      <trkpt lat="36.737106" lon="-3.728603">
        <ele>110.946</ele>
        <time>2021-06-16T12:13:23Z</time>
      </trkpt>
      <trkpt lat="36.736983" lon="-3.728716">
        <ele>110.039</ele>
        <time>2021-06-16T12:13:24Z</time>
      </trkpt>
      <trkpt lat="36.736874" lon="-3.728842">
        <ele>109.446</ele>
        <time>2021-06-16T12:13:25Z</time>
      </trkpt>
      <trkpt lat="36.736782" lon="-3.728988">
        <ele>109.063</ele>
        <time>2021-06-16T12:13:26Z</time>
      </trkpt>
      <trkpt lat="36.736707" lon="-3.729145">
        <ele>108.473</ele>
        <time>2021-06-16T12:13:27Z</time>
      </trkpt>
      <trkpt lat="36.73664" lon="-3.72952">
        <ele>107.778</ele>
        <time>2021-06-16T12:13:29Z</time>
      </trkpt>
      <trkpt lat="36.736647" lon="-3.729901">
        <ele>106.433</ele>
        <time>2021-06-16T12:13:31Z</time>
      </trkpt>
      <trkpt lat="36.736686" lon="-3.730276">
        <ele>104.626</ele>
        <time>2021-06-16T12:13:33Z</time>
      </trkpt>
      <trkpt lat="36.7367" lon="-3.730464">
        <ele>102.908</ele>
        <time>2021-06-16T12:13:34Z</time>
      </trkpt>
      <trkpt lat="36.736727" lon="-3.730858">
        <ele>101.044</ele>
        <time>2021-06-16T12:13:36Z</time>
      </trkpt>
      <trkpt lat="36.736744" lon="-3.731058">
        <ele>99.432</ele>
        <time>2021-06-16T12:13:37Z</time>
      </trkpt>
      <trkpt lat="36.736779" lon="-3.731472">
        <ele>97.196</ele>
        <time>2021-06-16T12:13:39Z</time>
      </trkpt>
      <trkpt lat="36.736798" lon="-3.731685">
        <ele>95.075</ele>
        <time>2021-06-16T12:13:40Z</time>
      </trkpt>
      <trkpt lat="36.736829" lon="-3.732117">
        <ele>93.068</ele>
        <time>2021-06-16T12:13:42Z</time>
      </trkpt>
      <trkpt lat="36.73685" lon="-3.732543">
        <ele>91.145</ele>
        <time>2021-06-16T12:13:44Z</time>
      </trkpt>
      <trkpt lat="36.736872" lon="-3.732972">
        <ele>89.062</ele>
        <time>2021-06-16T12:13:46Z</time>
      </trkpt>
      <trkpt lat="36.736885" lon="-3.733184">
        <ele>87.152</ele>
        <time>2021-06-16T12:13:47Z</time>
      </trkpt>
      <trkpt lat="36.736917" lon="-3.733609">
        <ele>85.113</ele>
        <time>2021-06-16T12:13:49Z</time>
      </trkpt>
      <trkpt lat="36.736944" lon="-3.733817">
        <ele>83.443</ele>
        <time>2021-06-16T12:13:50Z</time>
      </trkpt>
      <trkpt lat="36.736995" lon="-3.73402">
        <ele>81.707</ele>
        <time>2021-06-16T12:13:51Z</time>
      </trkpt>
      <trkpt lat="36.737159" lon="-3.734395">
        <ele>80.708</ele>
        <time>2021-06-16T12:13:53Z</time>
      </trkpt>
      <trkpt lat="36.737263" lon="-3.734566">
        <ele>79.848</ele>
        <time>2021-06-16T12:13:54Z</time>
      </trkpt>
      <trkpt lat="36.737553" lon="-3.734813">
        <ele>77.746</ele>
        <time>2021-06-16T12:13:56Z</time>
      </trkpt>
      <trkpt lat="36.737884" lon="-3.734958">
        <ele>75.930</ele>
        <time>2021-06-16T12:13:58Z</time>
      </trkpt>
      <trkpt lat="36.738062" lon="-3.73498">
        <ele>74.919</ele>
        <time>2021-06-16T12:13:59Z</time>
      </trkpt>
      <trkpt lat="36.738239" lon="-3.734985">
        <ele>74.072</ele>
        <time>2021-06-16T12:14:00Z</time>
      </trkpt>
      <trkpt lat="36.738587" lon="-3.735013">
        <ele>71.679</ele>
        <time>2021-06-16T12:14:02Z</time>
      </trkpt>
      <trkpt lat="36.738756" lon="-3.735069">
        <ele>70.046</ele>
        <time>2021-06-16T12:14:03Z</time>
      </trkpt>
      <trkpt lat="36.739059" lon="-3.735266">
        <ele>68.066</ele>
        <time>2021-06-16T12:14:05Z</time>
      </trkpt>
      <trkpt lat="36.739302" lon="-3.735586">
        <ele>65.882</ele>
        <time>2021-06-16T12:14:07Z</time>
      </trkpt>
      <trkpt lat="36.739433" lon="-3.735979">
        <ele>63.243</ele>
        <time>2021-06-16T12:14:09Z</time>
      </trkpt>
      <trkpt lat="36.73947" lon="-3.736401">
        <ele>60.517</ele>
        <time>2021-06-16T12:14:11Z</time>
      </trkpt>
      <trkpt lat="36.7394" lon="-3.736825">
        <ele>58.108</ele>
        <time>2021-06-16T12:14:13Z</time>
      </trkpt>
      <trkpt lat="36.739222" lon="-3.737192">
        <ele>55.245</ele>
        <time>2021-06-16T12:14:15Z</time>
      </trkpt>
      <trkpt lat="36.739103" lon="-3.737345">
        <ele>53.063</ele>
        <time>2021-06-16T12:14:16Z</time>
      </trkpt>
      <trkpt lat="36.73883" lon="-3.737577">
        <ele>50.847</ele>
        <time>2021-06-16T12:14:18Z</time>
      </trkpt>
      <trkpt lat="36.73869" lon="-3.737664">
        <ele>49.266</ele>
        <time>2021-06-16T12:14:19Z</time>
      </trkpt>
      <trkpt lat="36.738428" lon="-3.737823">
        <ele>47.119</ele>
        <time>2021-06-16T12:14:21Z</time>
      </trkpt>
      <trkpt lat="36.738302" lon="-3.737906">
        <ele>45.116</ele>
        <time>2021-06-16T12:14:22Z</time>
      </trkpt>
      <trkpt lat="36.738057" lon="-3.738067">
        <ele>43.453</ele>
        <time>2021-06-16T12:14:24Z</time>
      </trkpt>
      <trkpt lat="36.737809" lon="-3.73823">
        <ele>41.783</ele>
        <time>2021-06-16T12:14:26Z</time>
      </trkpt>
      <trkpt lat="36.737689" lon="-3.738316">
        <ele>39.972</ele>
        <time>2021-06-16T12:14:27Z</time>
      </trkpt>
      <trkpt lat="36.737439" lon="-3.738483">
        <ele>38.413</ele>
        <time>2021-06-16T12:14:29Z</time>
      </trkpt>
      <trkpt lat="36.737318" lon="-3.738561">
        <ele>37.014</ele>
        <time>2021-06-16T12:14:30Z</time>
      </trkpt>
      <trkpt lat="36.737195" lon="-3.738639">
        <ele>35.908</ele>
        <time>2021-06-16T12:14:31Z</time>
      </trkpt>
      <trkpt lat="36.73707" lon="-3.738718">
        <ele>34.814</ele>
        <time>2021-06-16T12:14:32Z</time>
      </trkpt>
      <trkpt lat="36.736829" lon="-3.738878">
        <ele>33.682</ele>
        <time>2021-06-16T12:14:34Z</time>
      </trkpt>
      <trkpt lat="36.736711" lon="-3.738951">
        <ele>33.016</ele>
        <time>2021-06-16T12:14:35Z</time>
      </trkpt>
      <trkpt lat="36.736594" lon="-3.739025">
        <ele>32.335</ele>
        <time>2021-06-16T12:14:36Z</time>
      </trkpt>
      <trkpt lat="36.736477" lon="-3.739101">
        <ele>31.678</ele>
        <time>2021-06-16T12:14:37Z</time>
      </trkpt>
      <trkpt lat="36.736248" lon="-3.73924">
        <ele>29.765</ele>
        <time>2021-06-16T12:14:39Z</time>
      </trkpt>
      <trkpt lat="36.736025" lon="-3.739387">
        <ele>28.122</ele>
        <time>2021-06-16T12:14:41Z</time>
      </trkpt>
      <trkpt lat="36.735922" lon="-3.739475">
        <ele>26.622</ele>
        <time>2021-06-16T12:14:42Z</time>
      </trkpt>
      <trkpt lat="36.735831" lon="-3.739577">
        <ele>25.476</ele>
        <time>2021-06-16T12:14:43Z</time>
      </trkpt>
      <trkpt lat="36.735709" lon="-3.739843">
        <ele>24.090</ele>
        <time>2021-06-16T12:14:45Z</time>
      </trkpt>
      <trkpt lat="36.735685" lon="-3.740168">
        <ele>23.019</ele>
        <time>2021-06-16T12:14:47Z</time>
      </trkpt>
      <trkpt lat="36.735758" lon="-3.740486">
        <ele>21.408</ele>
        <time>2021-06-16T12:14:49Z</time>
      </trkpt>
      <trkpt lat="36.735823" lon="-3.740643">
        <ele>19.664</ele>
        <time>2021-06-16T12:14:50Z</time>
      </trkpt>
      <trkpt lat="36.735899" lon="-3.740796">
        <ele>18.392</ele>
        <time>2021-06-16T12:14:51Z</time>
      </trkpt>
      <trkpt lat="36.736087" lon="-3.741089">
        <ele>17.666</ele>
        <time>2021-06-16T12:14:53Z</time>
      </trkpt>
      <trkpt lat="36.736302" lon="-3.741362">
        <ele>16.625</ele>
        <time>2021-06-16T12:14:55Z</time>
      </trkpt>
      <trkpt lat="36.736411" lon="-3.741502">
        <ele>15.888</ele>
        <time>2021-06-16T12:14:56Z</time>
      </trkpt>
      <trkpt lat="36.736635" lon="-3.741787">
        <ele>15.065</ele>
        <time>2021-06-16T12:14:58Z</time>
      </trkpt>
      <trkpt lat="36.736746" lon="-3.741937">
        <ele>14.692</ele>
        <time>2021-06-16T12:14:59Z</time>
      </trkpt>
      <trkpt lat="36.736935" lon="-3.742249">
        <ele>14.942</ele>
        <time>2021-06-16T12:15:01Z</time>
      </trkpt>
      <trkpt lat="36.73702" lon="-3.742416">
        <ele>15.079</ele>
        <time>2021-06-16T12:15:02Z</time>
      </trkpt>
      <trkpt lat="36.737183" lon="-3.742758">
        <ele>15.005</ele>
        <time>2021-06-16T12:15:04Z</time>
      </trkpt>
      <trkpt lat="36.737339" lon="-3.7431">
        <ele>15.125</ele>
        <time>2021-06-16T12:15:06Z</time>
      </trkpt>
      <trkpt lat="36.737506" lon="-3.743441">
        <ele>15.008</ele>
        <time>2021-06-16T12:15:08Z</time>
      </trkpt>
      <trkpt lat="36.737598" lon="-3.743604">
        <ele>15.194</ele>
        <time>2021-06-16T12:15:09Z</time>
      </trkpt>
      <trkpt lat="36.737793" lon="-3.743903">
        <ele>15.332</ele>
        <time>2021-06-16T12:15:11Z</time>
      </trkpt>
      <trkpt lat="36.737895" lon="-3.744054">
        <ele>16.036</ele>
        <time>2021-06-16T12:15:12Z</time>
      </trkpt>
      <trkpt lat="36.738101" lon="-3.744363">
        <ele>15.945</ele>
        <time>2021-06-16T12:15:14Z</time>
      </trkpt>
      <trkpt lat="36.738289" lon="-3.744683">
        <ele>15.728</ele>
        <time>2021-06-16T12:15:16Z</time>
      </trkpt>
      <trkpt lat="36.738464" lon="-3.744999">
        <ele>15.315</ele>
        <time>2021-06-16T12:15:18Z</time>
      </trkpt>
      <trkpt lat="36.738548" lon="-3.745161">
        <ele>15.272</ele>
        <time>2021-06-16T12:15:19Z</time>
      </trkpt>
      <trkpt lat="36.738722" lon="-3.745486">
        <ele>15.982</ele>
        <time>2021-06-16T12:15:21Z</time>
      </trkpt>
      <trkpt lat="36.738805" lon="-3.745645">
        <ele>16.533</ele>
        <time>2021-06-16T12:15:22Z</time>
      </trkpt>
      <trkpt lat="36.73898" lon="-3.745964">
        <ele>17.123</ele>
        <time>2021-06-16T12:15:24Z</time>
      </trkpt>
      <trkpt lat="36.739164" lon="-3.746281">
        <ele>17.115</ele>
        <time>2021-06-16T12:15:26Z</time>
      </trkpt>
      <trkpt lat="36.739364" lon="-3.74658">
        <ele>17.208</ele>
        <time>2021-06-16T12:15:28Z</time>
      </trkpt>
      <trkpt lat="36.73959" lon="-3.74685">
        <ele>17.520</ele>
        <time>2021-06-16T12:15:30Z</time>
      </trkpt>
      <trkpt lat="36.739719" lon="-3.746969">
        <ele>17.768</ele>
        <time>2021-06-16T12:15:31Z</time>
      </trkpt>
      <trkpt lat="36.739998" lon="-3.74718">
        <ele>17.552</ele>
        <time>2021-06-16T12:15:33Z</time>
      </trkpt>
      <trkpt lat="36.740297" lon="-3.747358">
        <ele>17.881</ele>
        <time>2021-06-16T12:15:35Z</time>
      </trkpt>
      <trkpt lat="36.74061" lon="-3.747488">
        <ele>18.134</ele>
        <time>2021-06-16T12:15:37Z</time>
      </trkpt>
      <trkpt lat="36.740929" lon="-3.747574">
        <ele>18.571</ele>
        <time>2021-06-16T12:15:39Z</time>
      </trkpt>
      <trkpt lat="36.741092" lon="-3.747598">
        <ele>18.538</ele>
        <time>2021-06-16T12:15:40Z</time>
      </trkpt>
      <trkpt lat="36.741255" lon="-3.747612">
        <ele>18.978</ele>
        <time>2021-06-16T12:15:41Z</time>
      </trkpt>
      <trkpt lat="36.741579" lon="-3.747633">
        <ele>19.218</ele>
        <time>2021-06-16T12:15:43Z</time>
      </trkpt>
      <trkpt lat="36.7419" lon="-3.747656">
        <ele>19.298</ele>
        <time>2021-06-16T12:15:45Z</time>
      </trkpt>
      <trkpt lat="36.742061" lon="-3.74767">
        <ele>19.317</ele>
        <time>2021-06-16T12:15:46Z</time>
      </trkpt>
      <trkpt lat="36.742389" lon="-3.747701">
        <ele>19.208</ele>
        <time>2021-06-16T12:15:48Z</time>
      </trkpt>
      <trkpt lat="36.742717" lon="-3.747733">
        <ele>19.688</ele>
        <time>2021-06-16T12:15:50Z</time>
      </trkpt>
      <trkpt lat="36.743035" lon="-3.747773">
        <ele>20.296</ele>
        <time>2021-06-16T12:15:52Z</time>
      </trkpt>
      <trkpt lat="36.743192" lon="-3.747796">
        <ele>20.730</ele>
        <time>2021-06-16T12:15:53Z</time>
      </trkpt>
      <trkpt lat="36.743501" lon="-3.747868">
        <ele>20.869</ele>
        <time>2021-06-16T12:15:55Z</time>
      </trkpt>
      <trkpt lat="36.743656" lon="-3.747923">
        <ele>20.472</ele>
        <time>2021-06-16T12:15:56Z</time>
      </trkpt>
      <trkpt lat="36.743942" lon="-3.748118">
        <ele>20.829</ele>
        <time>2021-06-16T12:15:58Z</time>
      </trkpt>
      <trkpt lat="36.744074" lon="-3.748242">
        <ele>21.646</ele>
        <time>2021-06-16T12:15:59Z</time>
      </trkpt>
      <trkpt lat="36.744312" lon="-3.74853">
        <ele>22.446</ele>
        <time>2021-06-16T12:16:01Z</time>
      </trkpt>
      <trkpt lat="36.744508" lon="-3.748862">
        <ele>23.567</ele>
        <time>2021-06-16T12:16:03Z</time>
      </trkpt>
      <trkpt lat="36.74464" lon="-3.74924">
        <ele>24.881</ele>
        <time>2021-06-16T12:16:05Z</time>
      </trkpt>
      <trkpt lat="36.744683" lon="-3.749437">
        <ele>26.319</ele>
        <time>2021-06-16T12:16:06Z</time>
      </trkpt>
      <trkpt lat="36.744702" lon="-3.749836">
        <ele>28.308</ele>
        <time>2021-06-16T12:16:08Z</time>
      </trkpt>
      <trkpt lat="36.74463" lon="-3.750229">
        <ele>30.043</ele>
        <time>2021-06-16T12:16:10Z</time>
      </trkpt>
      <trkpt lat="36.744486" lon="-3.750589">
        <ele>31.531</ele>
        <time>2021-06-16T12:16:12Z</time>
      </trkpt>
      <trkpt lat="36.744275" lon="-3.75088">
        <ele>32.955</ele>
        <time>2021-06-16T12:16:14Z</time>
      </trkpt>
      <trkpt lat="36.744013" lon="-3.751104">
        <ele>34.194</ele>
        <time>2021-06-16T12:16:16Z</time>
      </trkpt>
      <trkpt lat="36.743731" lon="-3.751277">
        <ele>35.717</ele>
        <time>2021-06-16T12:16:18Z</time>
      </trkpt>
      <trkpt lat="36.743444" lon="-3.751436">
        <ele>37.524</ele>
        <time>2021-06-16T12:16:20Z</time>
      </trkpt>
      <trkpt lat="36.743174" lon="-3.75162">
        <ele>39.231</ele>
        <time>2021-06-16T12:16:22Z</time>
      </trkpt>
      <trkpt lat="36.743056" lon="-3.751739">
        <ele>40.391</ele>
        <time>2021-06-16T12:16:23Z</time>
      </trkpt>
      <trkpt lat="36.742968" lon="-3.751892">
        <ele>41.362</ele>
        <time>2021-06-16T12:16:24Z</time>
      </trkpt>
      <trkpt lat="36.742896" lon="-3.752256">
        <ele>43.083</ele>
        <time>2021-06-16T12:16:26Z</time>
      </trkpt>
      <trkpt lat="36.742956" lon="-3.75261">
        <ele>44.711</ele>
        <time>2021-06-16T12:16:28Z</time>
      </trkpt>
      <trkpt lat="36.743142" lon="-3.752861">
        <ele>46.708</ele>
        <time>2021-06-16T12:16:30Z</time>
      </trkpt>
      <trkpt lat="36.743388" lon="-3.752999">
        <ele>48.873</ele>
        <time>2021-06-16T12:16:32Z</time>
      </trkpt>
      <trkpt lat="36.743516" lon="-3.753054">
        <ele>50.231</ele>
        <time>2021-06-16T12:16:33Z</time>
      </trkpt>
      <trkpt lat="36.743761" lon="-3.753159">
        <ele>51.865</ele>
        <time>2021-06-16T12:16:35Z</time>
      </trkpt>
      <trkpt lat="36.743978" lon="-3.753259">
        <ele>53.454</ele>
        <time>2021-06-16T12:16:37Z</time>
      </trkpt>
      <trkpt lat="36.744154" lon="-3.753374">
        <ele>54.357</ele>
        <time>2021-06-16T12:16:39Z</time>
      </trkpt>
      <trkpt lat="36.744322" lon="-3.753444">
        <ele>55.024</ele>
        <time>2021-06-16T12:16:41Z</time>
      </trkpt>
      <trkpt lat="36.744405" lon="-3.753464">
        <ele>55.481</ele>
        <time>2021-06-16T12:16:42Z</time>
      </trkpt>
      <trkpt lat="36.744552" lon="-3.753542">
        <ele>55.971</ele>
        <time>2021-06-16T12:16:44Z</time>
      </trkpt>
      <trkpt lat="36.744622" lon="-3.753706">
        <ele>56.619</ele>
        <time>2021-06-16T12:16:46Z</time>
      </trkpt>
      <trkpt lat="36.744586" lon="-3.753905">
        <ele>57.209</ele>
        <time>2021-06-16T12:16:48Z</time>
      </trkpt>
      <trkpt lat="36.744531" lon="-3.753994">
        <ele>58.119</ele>
        <time>2021-06-16T12:16:49Z</time>
      </trkpt>
      <trkpt lat="36.744388" lon="-3.754162">
        <ele>58.708</ele>
        <time>2021-06-16T12:16:51Z</time>
      </trkpt>
      <trkpt lat="36.744328" lon="-3.754261">
        <ele>59.768</ele>
        <time>2021-06-16T12:16:52Z</time>
      </trkpt>
      <trkpt lat="36.744263" lon="-3.754503">
        <ele>60.576</ele>
        <time>2021-06-16T12:16:54Z</time>
      </trkpt>
      <trkpt lat="36.744256" lon="-3.754641">
        <ele>61.420</ele>
        <time>2021-06-16T12:16:55Z</time>
      </trkpt>
      <trkpt lat="36.744262" lon="-3.754928">
        <ele>62.699</ele>
        <time>2021-06-16T12:16:57Z</time>
      </trkpt>
      <trkpt lat="36.744273" lon="-3.755076">
        <ele>63.892</ele>
        <time>2021-06-16T12:16:58Z</time>
      </trkpt>
      <trkpt lat="36.7443" lon="-3.755385">
        <ele>65.469</ele>
        <time>2021-06-16T12:17:00Z</time>
      </trkpt>
      <trkpt lat="36.744319" lon="-3.755542">
        <ele>67.096</ele>
        <time>2021-06-16T12:17:01Z</time>
      </trkpt>
      <trkpt lat="36.744346" lon="-3.755698">
        <ele>68.386</ele>
        <time>2021-06-16T12:17:02Z</time>
      </trkpt>
      <trkpt lat="36.744426" lon="-3.756003">
        <ele>70.053</ele>
        <time>2021-06-16T12:17:04Z</time>
      </trkpt>
      <trkpt lat="36.744473" lon="-3.756153">
        <ele>71.604</ele>
        <time>2021-06-16T12:17:05Z</time>
      </trkpt>
      <trkpt lat="36.744612" lon="-3.756444">
        <ele>73.114</ele>
        <time>2021-06-16T12:17:07Z</time>
      </trkpt>
      <trkpt lat="36.744701" lon="-3.756572">
        <ele>74.208</ele>
        <time>2021-06-16T12:17:08Z</time>
      </trkpt>
      <trkpt lat="36.74489" lon="-3.756814">
        <ele>75.762</ele>
        <time>2021-06-16T12:17:10Z</time>
      </trkpt>
      <trkpt lat="36.744998" lon="-3.75693">
        <ele>77.190</ele>
        <time>2021-06-16T12:17:11Z</time>
      </trkpt>
      <trkpt lat="36.74511" lon="-3.757036">
        <ele>78.854</ele>
        <time>2021-06-16T12:17:12Z</time>
      </trkpt>
      <trkpt lat="36.745329" lon="-3.757251">
        <ele>80.323</ele>
        <time>2021-06-16T12:17:14Z</time>
      </trkpt>
      <trkpt lat="36.745478" lon="-3.757542">
        <ele>82.586</ele>
        <time>2021-06-16T12:17:16Z</time>
      </trkpt>
      <trkpt lat="36.745555" lon="-3.757894">
        <ele>85.313</ele>
        <time>2021-06-16T12:17:18Z</time>
      </trkpt>
      <trkpt lat="36.74555" lon="-3.758259">
        <ele>87.870</ele>
        <time>2021-06-16T12:17:20Z</time>
      </trkpt>
      <trkpt lat="36.745464" lon="-3.75861">
        <ele>90.470</ele>
        <time>2021-06-16T12:17:22Z</time>
      </trkpt>
      <trkpt lat="36.745302" lon="-3.758917">
        <ele>92.977</ele>
        <time>2021-06-16T12:17:24Z</time>
      </trkpt>
      <trkpt lat="36.745081" lon="-3.759155">
        <ele>94.961</ele>
        <time>2021-06-16T12:17:26Z</time>
      </trkpt>
      <trkpt lat="36.744809" lon="-3.759293">
        <ele>95.627</ele>
        <time>2021-06-16T12:17:28Z</time>
      </trkpt>
      <trkpt lat="36.74466" lon="-3.759327">
        <ele>96.608</ele>
        <time>2021-06-16T12:17:29Z</time>
      </trkpt>
      <trkpt lat="36.744509" lon="-3.759343">
        <ele>97.174</ele>
        <time>2021-06-16T12:17:30Z</time>
      </trkpt>
      <trkpt lat="36.744218" lon="-3.759356">
        <ele>97.152</ele>
        <time>2021-06-16T12:17:32Z</time>
      </trkpt>
      <trkpt lat="36.74408" lon="-3.759316">
        <ele>96.736</ele>
        <time>2021-06-16T12:17:33Z</time>
      </trkpt>
      <trkpt lat="36.743798" lon="-3.759147">
        <ele>95.995</ele>
        <time>2021-06-16T12:17:35Z</time>
      </trkpt>
      <trkpt lat="36.743578" lon="-3.758798">
        <ele>96.418</ele>
        <time>2021-06-16T12:17:37Z</time>
      </trkpt>
      <trkpt lat="36.74338" lon="-3.758462">
        <ele>97.885</ele>
        <time>2021-06-16T12:17:39Z</time>
      </trkpt>
      <trkpt lat="36.74327" lon="-3.758318">
        <ele>99.122</ele>
        <time>2021-06-16T12:17:40Z</time>
      </trkpt>
      <trkpt lat="36.743004" lon="-3.758121">
        <ele>100.062</ele>
        <time>2021-06-16T12:17:42Z</time>
      </trkpt>
      <trkpt lat="36.742703" lon="-3.758027">
        <ele>101.681</ele>
        <time>2021-06-16T12:17:44Z</time>
      </trkpt>
      <trkpt lat="36.742408" lon="-3.758025">
        <ele>105.061</ele>
        <time>2021-06-16T12:17:46Z</time>
      </trkpt>
      <trkpt lat="36.74226" lon="-3.758074">
        <ele>107.217</ele>
        <time>2021-06-16T12:17:47Z</time>
      </trkpt>
      <trkpt lat="36.74199" lon="-3.758224">
        <ele>109.208</ele>
        <time>2021-06-16T12:17:49Z</time>
      </trkpt>
      <trkpt lat="36.741757" lon="-3.758453">
        <ele>110.515</ele>
        <time>2021-06-16T12:17:51Z</time>
      </trkpt>
      <trkpt lat="36.741544" lon="-3.75873">
        <ele>112.863</ele>
        <time>2021-06-16T12:17:53Z</time>
      </trkpt>
      <trkpt lat="36.741474" lon="-3.758893">
        <ele>113.957</ele>
        <time>2021-06-16T12:17:54Z</time>
      </trkpt>
      <trkpt lat="36.74144" lon="-3.759076">
        <ele>114.896</ele>
        <time>2021-06-16T12:17:55Z</time>
      </trkpt>
      <trkpt lat="36.74143" lon="-3.759464">
        <ele>116.789</ele>
        <time>2021-06-16T12:17:57Z</time>
      </trkpt>
      <trkpt lat="36.741441" lon="-3.759657">
        <ele>118.186</ele>
        <time>2021-06-16T12:17:58Z</time>
      </trkpt>
      <trkpt lat="36.74148" lon="-3.760036">
        <ele>120.883</ele>
        <time>2021-06-16T12:18:00Z</time>
      </trkpt>
      <trkpt lat="36.741519" lon="-3.760419">
        <ele>122.593</ele>
        <time>2021-06-16T12:18:02Z</time>
      </trkpt>
      <trkpt lat="36.741563" lon="-3.760805">
        <ele>124.079</ele>
        <time>2021-06-16T12:18:04Z</time>
      </trkpt>
      <trkpt lat="36.741593" lon="-3.760997">
        <ele>125.605</ele>
        <time>2021-06-16T12:18:05Z</time>
      </trkpt>
      <trkpt lat="36.741629" lon="-3.761183">
        <ele>127.125</ele>
        <time>2021-06-16T12:18:06Z</time>
      </trkpt>
      <trkpt lat="36.741709" lon="-3.761541">
        <ele>128.708</ele>
        <time>2021-06-16T12:18:08Z</time>
      </trkpt>
      <trkpt lat="36.741803" lon="-3.761886">
        <ele>130.294</ele>
        <time>2021-06-16T12:18:10Z</time>
      </trkpt>
      <trkpt lat="36.741896" lon="-3.762239">
        <ele>132.062</ele>
        <time>2021-06-16T12:18:12Z</time>
      </trkpt>
      <trkpt lat="36.741985" lon="-3.762613">
        <ele>133.276</ele>
        <time>2021-06-16T12:18:14Z</time>
      </trkpt>
      <trkpt lat="36.742028" lon="-3.762804">
        <ele>134.525</ele>
        <time>2021-06-16T12:18:15Z</time>
      </trkpt>
      <trkpt lat="36.742067" lon="-3.762996">
        <ele>135.718</ele>
        <time>2021-06-16T12:18:16Z</time>
      </trkpt>
      <trkpt lat="36.742139" lon="-3.763378">
        <ele>136.725</ele>
        <time>2021-06-16T12:18:18Z</time>
      </trkpt>
      <trkpt lat="36.742211" lon="-3.763758">
        <ele>137.272</ele>
        <time>2021-06-16T12:18:20Z</time>
      </trkpt>
      <trkpt lat="36.742246" lon="-3.763951">
        <ele>137.842</ele>
        <time>2021-06-16T12:18:21Z</time>
      </trkpt>
      <trkpt lat="36.74228" lon="-3.764146">
        <ele>138.399</ele>
        <time>2021-06-16T12:18:22Z</time>
      </trkpt>
      <trkpt lat="36.742333" lon="-3.764545">
        <ele>139.307</ele>
        <time>2021-06-16T12:18:24Z</time>
      </trkpt>
      <trkpt lat="36.742354" lon="-3.76475">
        <ele>139.927</ele>
        <time>2021-06-16T12:18:25Z</time>
      </trkpt>
      <trkpt lat="36.742397" lon="-3.76516">
        <ele>140.208</ele>
        <time>2021-06-16T12:18:27Z</time>
      </trkpt>
      <trkpt lat="36.745104" lon="-3.772438">
        <ele>140.326</ele>
        <time>2021-06-16T12:19:11Z</time>
      </trkpt>
      <trkpt lat="36.745225" lon="-3.772587">
        <ele>140.464</ele>
        <time>2021-06-16T12:19:12Z</time>
      </trkpt>
      <trkpt lat="36.745456" lon="-3.772909">
        <ele>140.458</ele>
        <time>2021-06-16T12:19:14Z</time>
      </trkpt>
      <trkpt lat="36.745643" lon="-3.77324">
        <ele>140.437</ele>
        <time>2021-06-16T12:19:16Z</time>
      </trkpt>
      <trkpt lat="36.745773" lon="-3.773594">
        <ele>140.440</ele>
        <time>2021-06-16T12:19:18Z</time>
      </trkpt>
      <trkpt lat="36.745828" lon="-3.773785">
        <ele>140.467</ele>
        <time>2021-06-16T12:19:19Z</time>
      </trkpt>
      <trkpt lat="36.74588" lon="-3.773983">
        <ele>140.484</ele>
        <time>2021-06-16T12:19:20Z</time>
      </trkpt>
      <trkpt lat="36.745984" lon="-3.774377">
        <ele>140.484</ele>
        <time>2021-06-16T12:19:22Z</time>
      </trkpt>
      <trkpt lat="36.746093" lon="-3.774741">
        <ele>140.497</ele>
        <time>2021-06-16T12:19:24Z</time>
      </trkpt>
      <trkpt lat="36.746249" lon="-3.775063">
        <ele>140.423</ele>
        <time>2021-06-16T12:19:26Z</time>
      </trkpt>
      <trkpt lat="36.746479" lon="-3.775336">
        <ele>140.425</ele>
        <time>2021-06-16T12:19:28Z</time>
      </trkpt>
      <trkpt lat="36.746624" lon="-3.775443">
        <ele>140.408</ele>
        <time>2021-06-16T12:19:29Z</time>
      </trkpt>
      <trkpt lat="36.746776" lon="-3.775535">
        <ele>140.496</ele>
        <time>2021-06-16T12:19:30Z</time>
      </trkpt>
      <trkpt lat="36.747085" lon="-3.77571">
        <ele>140.494</ele>
        <time>2021-06-16T12:19:32Z</time>
      </trkpt>
      <trkpt lat="36.747381" lon="-3.775926">
        <ele>140.438</ele>
        <time>2021-06-16T12:19:34Z</time>
      </trkpt>
      <trkpt lat="36.747655" lon="-3.776172">
        <ele>140.467</ele>
        <time>2021-06-16T12:19:36Z</time>
      </trkpt>
      <trkpt lat="36.747779" lon="-3.776307">
        <ele>140.470</ele>
        <time>2021-06-16T12:19:37Z</time>
      </trkpt>
      <trkpt lat="36.74803" lon="-3.776587">
        <ele>140.437</ele>
        <time>2021-06-16T12:19:39Z</time>
      </trkpt>
      <trkpt lat="36.748166" lon="-3.77672">
        <ele>140.444</ele>
        <time>2021-06-16T12:19:40Z</time>
      </trkpt>
      <trkpt lat="36.748423" lon="-3.776992">
        <ele>140.444</ele>
        <time>2021-06-16T12:19:42Z</time>
      </trkpt>
      <trkpt lat="36.748714" lon="-3.777243">
        <ele>140.472</ele>
        <time>2021-06-16T12:19:44Z</time>
      </trkpt>
      <trkpt lat="36.748863" lon="-3.777355">
        <ele>140.413</ele>
        <time>2021-06-16T12:19:45Z</time>
      </trkpt>
      <trkpt lat="36.749135" lon="-3.777588">
        <ele>140.414</ele>
        <time>2021-06-16T12:19:47Z</time>
      </trkpt>
      <trkpt lat="36.749265" lon="-3.777716">
        <ele>140.408</ele>
        <time>2021-06-16T12:19:48Z</time>
      </trkpt>
      <trkpt lat="36.749394" lon="-3.777843">
        <ele>140.494</ele>
        <time>2021-06-16T12:19:49Z</time>
      </trkpt>
      <trkpt lat="36.749618" lon="-3.778138">
        <ele>140.452</ele>
        <time>2021-06-16T12:19:51Z</time>
      </trkpt>
      <trkpt lat="36.74971" lon="-3.778314">
        <ele>140.486</ele>
        <time>2021-06-16T12:19:52Z</time>
      </trkpt>
      <trkpt lat="36.749885" lon="-3.778675">
        <ele>140.475</ele>
        <time>2021-06-16T12:19:54Z</time>
      </trkpt>
      <trkpt lat="36.750055" lon="-3.779014">
        <ele>140.458</ele>
        <time>2021-06-16T12:19:56Z</time>
      </trkpt>
      <trkpt lat="36.750159" lon="-3.77916">
        <ele>140.465</ele>
        <time>2021-06-16T12:19:57Z</time>
      </trkpt>
      <trkpt lat="36.750402" lon="-3.779414">
        <ele>140.462</ele>
        <time>2021-06-16T12:19:59Z</time>
      </trkpt>
      <trkpt lat="36.750547" lon="-3.779511">
        <ele>140.422</ele>
        <time>2021-06-16T12:20:00Z</time>
      </trkpt>
      <trkpt lat="36.750848" lon="-3.779661">
        <ele>140.481</ele>
        <time>2021-06-16T12:20:02Z</time>
      </trkpt>
      <trkpt lat="36.750997" lon="-3.77973">
        <ele>140.461</ele>
        <time>2021-06-16T12:20:03Z</time>
      </trkpt>
      <trkpt lat="36.751284" lon="-3.779885">
        <ele>140.417</ele>
        <time>2021-06-16T12:20:05Z</time>
      </trkpt>
      <trkpt lat="36.751573" lon="-3.78004">
        <ele>140.408</ele>
        <time>2021-06-16T12:20:07Z</time>
      </trkpt>
      <trkpt lat="36.751852" lon="-3.780191">
        <ele>140.475</ele>
        <time>2021-06-16T12:20:09Z</time>
      </trkpt>
      <trkpt lat="36.751986" lon="-3.780281">
        <ele>138.013</ele>
        <time>2021-06-16T12:20:10Z</time>
      </trkpt>
      <trkpt lat="36.752113" lon="-3.780401">
        <ele>137.127</ele>
        <time>2021-06-16T12:20:11Z</time>
      </trkpt>
      <trkpt lat="36.752313" lon="-3.780695">
        <ele>136.516</ele>
        <time>2021-06-16T12:20:13Z</time>
      </trkpt>
      <trkpt lat="36.752416" lon="-3.781056">
        <ele>135.969</ele>
        <time>2021-06-16T12:20:15Z</time>
      </trkpt>
      <trkpt lat="36.752433" lon="-3.781249">
        <ele>135.886</ele>
        <time>2021-06-16T12:20:16Z</time>
      </trkpt>
      <trkpt lat="36.752388" lon="-3.78163">
        <ele>135.763</ele>
        <time>2021-06-16T12:20:18Z</time>
      </trkpt>
      <trkpt lat="36.752252" lon="-3.781969">
        <ele>136.293</ele>
        <time>2021-06-16T12:20:20Z</time>
      </trkpt>
      <trkpt lat="36.752025" lon="-3.782229">
        <ele>137.158</ele>
        <time>2021-06-16T12:20:22Z</time>
      </trkpt>
      <trkpt lat="36.75175" lon="-3.782399">
        <ele>138.052</ele>
        <time>2021-06-16T12:20:24Z</time>
      </trkpt>
      <trkpt lat="36.751606" lon="-3.782457">
        <ele>138.717</ele>
        <time>2021-06-16T12:20:25Z</time>
      </trkpt>
      <trkpt lat="36.751325" lon="-3.782554">
        <ele>139.108</ele>
        <time>2021-06-16T12:20:27Z</time>
      </trkpt>
      <trkpt lat="36.751183" lon="-3.782602">
        <ele>139.322</ele>
        <time>2021-06-16T12:20:28Z</time>
      </trkpt>
      <trkpt lat="36.750909" lon="-3.782711">
        <ele>139.850</ele>
        <time>2021-06-16T12:20:30Z</time>
      </trkpt>
      <trkpt lat="36.75079" lon="-3.782784">
        <ele>140.654</ele>
        <time>2021-06-16T12:20:31Z</time>
      </trkpt>
      <trkpt lat="36.750632" lon="-3.782956">
        <ele>141.313</ele>
        <time>2021-06-16T12:20:33Z</time>
      </trkpt>
      <trkpt lat="36.750597" lon="-3.783143">
        <ele>141.866</ele>
        <time>2021-06-16T12:20:35Z</time>
      </trkpt>
      <trkpt lat="36.750573" lon="-3.783224">
        <ele>142.083</ele>
        <time>2021-06-16T12:20:36Z</time>
      </trkpt>
      <trkpt lat="36.750525" lon="-3.783281">
        <ele>142.390</ele>
        <time>2021-06-16T12:20:37Z</time>
      </trkpt>
      <trkpt lat="36.750406" lon="-3.783382">
        <ele>142.790</ele>
        <time>2021-06-16T12:20:39Z</time>
      </trkpt>
      <trkpt lat="36.750362" lon="-3.783476">
        <ele>142.867</ele>
        <time>2021-06-16T12:20:40Z</time>
      </trkpt>
      <trkpt lat="36.750308" lon="-3.783731">
        <ele>142.181</ele>
        <time>2021-06-16T12:20:42Z</time>
      </trkpt>
      <trkpt lat="36.750293" lon="-3.783861">
        <ele>142.319</ele>
        <time>2021-06-16T12:20:43Z</time>
      </trkpt>
      <trkpt lat="36.750281" lon="-3.783997">
        <ele>142.308</ele>
        <time>2021-06-16T12:20:44Z</time>
      </trkpt>
      <trkpt lat="36.750266" lon="-3.784271">
        <ele>143.073</ele>
        <time>2021-06-16T12:20:46Z</time>
      </trkpt>
      <trkpt lat="36.750257" lon="-3.784557">
        <ele>143.621</ele>
        <time>2021-06-16T12:20:48Z</time>
      </trkpt>
      <trkpt lat="36.750236" lon="-3.78485">
        <ele>143.895</ele>
        <time>2021-06-16T12:20:50Z</time>
      </trkpt>
      <trkpt lat="36.75018" lon="-3.785145">
        <ele>144.334</ele>
        <time>2021-06-16T12:20:52Z</time>
      </trkpt>
      <trkpt lat="36.750132" lon="-3.785286">
        <ele>144.687</ele>
        <time>2021-06-16T12:20:53Z</time>
      </trkpt>
      <trkpt lat="36.750019" lon="-3.785552">
        <ele>144.834</ele>
        <time>2021-06-16T12:20:55Z</time>
      </trkpt>
      <trkpt lat="36.749969" lon="-3.785693">
        <ele>145.051</ele>
        <time>2021-06-16T12:20:56Z</time>
      </trkpt>
      <trkpt lat="36.749921" lon="-3.786007">
        <ele>144.941</ele>
        <time>2021-06-16T12:20:58Z</time>
      </trkpt>
      <trkpt lat="36.74992" lon="-3.786168">
        <ele>145.073</ele>
        <time>2021-06-16T12:20:59Z</time>
      </trkpt>
      <trkpt lat="36.749947" lon="-3.786339">
        <ele>144.485</ele>
        <time>2021-06-16T12:21:00Z</time>
      </trkpt>
      <trkpt lat="36.750058" lon="-3.786681">
        <ele>143.313</ele>
        <time>2021-06-16T12:21:02Z</time>
      </trkpt>
      <trkpt lat="36.750122" lon="-3.786852">
        <ele>142.308</ele>
        <time>2021-06-16T12:21:03Z</time>
      </trkpt>
      <trkpt lat="36.750231" lon="-3.787205">
        <ele>140.594</ele>
        <time>2021-06-16T12:21:05Z</time>
      </trkpt>
      <trkpt lat="36.750258" lon="-3.787393">
        <ele>139.452</ele>
        <time>2021-06-16T12:21:06Z</time>
      </trkpt>
      <trkpt lat="36.750244" lon="-3.787775">
        <ele>138.256</ele>
        <time>2021-06-16T12:21:08Z</time>
      </trkpt>
      <trkpt lat="36.750128" lon="-3.788124">
        <ele>136.565</ele>
        <time>2021-06-16T12:21:10Z</time>
      </trkpt>
      <trkpt lat="36.750037" lon="-3.788279">
        <ele>135.598</ele>
        <time>2021-06-16T12:21:11Z</time>
      </trkpt>
      <trkpt lat="36.749934" lon="-3.788418">
        <ele>134.415</ele>
        <time>2021-06-16T12:21:12Z</time>
      </trkpt>
      <trkpt lat="36.749706" lon="-3.788656">
        <ele>133.272</ele>
        <time>2021-06-16T12:21:14Z</time>
      </trkpt>
      <trkpt lat="36.749587" lon="-3.788759">
        <ele>132.512</ele>
        <time>2021-06-16T12:21:15Z</time>
      </trkpt>
      <trkpt lat="36.749461" lon="-3.788865">
        <ele>131.653</ele>
        <time>2021-06-16T12:21:16Z</time>
      </trkpt>
      <trkpt lat="36.749213" lon="-3.789025">
        <ele>130.404</ele>
        <time>2021-06-16T12:21:18Z</time>
      </trkpt>
      <trkpt lat="36.749075" lon="-3.789062">
        <ele>129.214</ele>
        <time>2021-06-16T12:21:19Z</time>
      </trkpt>
      <trkpt lat="36.748932" lon="-3.789065">
        <ele>128.508</ele>
        <time>2021-06-16T12:21:20Z</time>
      </trkpt>
      <trkpt lat="36.748649" lon="-3.789024">
        <ele>128.232</ele>
        <time>2021-06-16T12:21:22Z</time>
      </trkpt>
      <trkpt lat="36.748507" lon="-3.789014">
        <ele>127.720</ele>
        <time>2021-06-16T12:21:23Z</time>
      </trkpt>
      <trkpt lat="36.748238" lon="-3.789072">
        <ele>127.664</ele>
        <time>2021-06-16T12:21:25Z</time>
      </trkpt>
      <trkpt lat="36.748021" lon="-3.789253">
        <ele>126.773</ele>
        <time>2021-06-16T12:21:27Z</time>
      </trkpt>
      <trkpt lat="36.747942" lon="-3.789412">
        <ele>125.816</ele>
        <time>2021-06-16T12:21:28Z</time>
      </trkpt>
      <trkpt lat="36.747877" lon="-3.789572">
        <ele>125.483</ele>
        <time>2021-06-16T12:21:29Z</time>
      </trkpt>
      <trkpt lat="36.747844" lon="-3.789951">
        <ele>124.520</ele>
        <time>2021-06-16T12:21:31Z</time>
      </trkpt>
      <trkpt lat="36.747864" lon="-3.790141">
        <ele>123.770</ele>
        <time>2021-06-16T12:21:32Z</time>
      </trkpt>
      <trkpt lat="36.747944" lon="-3.790498">
        <ele>123.671</ele>
        <time>2021-06-16T12:21:34Z</time>
      </trkpt>
      <trkpt lat="36.747984" lon="-3.790675">
        <ele>123.841</ele>
        <time>2021-06-16T12:21:35Z</time>
      </trkpt>
      <trkpt lat="36.748094" lon="-3.791039">
        <ele>123.415</ele>
        <time>2021-06-16T12:21:37Z</time>
      </trkpt>
      <trkpt lat="36.748149" lon="-3.791223">
        <ele>123.108</ele>
        <time>2021-06-16T12:21:38Z</time>
      </trkpt>
      <trkpt lat="36.748257" lon="-3.791594">
        <ele>122.564</ele>
        <time>2021-06-16T12:21:40Z</time>
      </trkpt>
      <trkpt lat="36.748305" lon="-3.79178">
        <ele>122.312</ele>
        <time>2021-06-16T12:21:41Z</time>
      </trkpt>
      <trkpt lat="36.748347" lon="-3.791969">
        <ele>122.286</ele>
        <time>2021-06-16T12:21:42Z</time>
      </trkpt>
      <trkpt lat="36.748397" lon="-3.792351">
        <ele>122.045</ele>
        <time>2021-06-16T12:21:44Z</time>
      </trkpt>
      <trkpt lat="36.748403" lon="-3.792545">
        <ele>121.638</ele>
        <time>2021-06-16T12:21:45Z</time>
      </trkpt>
      <trkpt lat="36.748389" lon="-3.792735">
        <ele>121.125</ele>
        <time>2021-06-16T12:21:46Z</time>
      </trkpt>
      <trkpt lat="36.748355" lon="-3.792923">
        <ele>120.632</ele>
        <time>2021-06-16T12:21:47Z</time>
      </trkpt>
      <trkpt lat="36.748253" lon="-3.793277">
        <ele>120.242</ele>
        <time>2021-06-16T12:21:49Z</time>
      </trkpt>
      <trkpt lat="36.74819" lon="-3.793451">
        <ele>119.894</ele>
        <time>2021-06-16T12:21:50Z</time>
      </trkpt>
      <trkpt lat="36.748059" lon="-3.793793">
        <ele>119.857</ele>
        <time>2021-06-16T12:21:52Z</time>
      </trkpt>
      <trkpt lat="36.747939" lon="-3.794125">
        <ele>118.622</ele>
        <time>2021-06-16T12:21:54Z</time>
      </trkpt>
      <trkpt lat="36.747875" lon="-3.794296">
        <ele>118.208</ele>
        <time>2021-06-16T12:21:55Z</time>
      </trkpt>
      <trkpt lat="36.747756" lon="-3.794647">
        <ele>117.826</ele>
        <time>2021-06-16T12:21:57Z</time>
      </trkpt>
      <trkpt lat="36.747679" lon="-3.795022">
        <ele>117.524</ele>
        <time>2021-06-16T12:21:59Z</time>
      </trkpt>
      <trkpt lat="36.7477" lon="-3.79538">
        <ele>116.938</ele>
        <time>2021-06-16T12:22:01Z</time>
      </trkpt>
      <trkpt lat="36.747745" lon="-3.795557">
        <ele>116.747</ele>
        <time>2021-06-16T12:22:02Z</time>
      </trkpt>
      <trkpt lat="36.747812" lon="-3.795722">
        <ele>116.840</ele>
        <time>2021-06-16T12:22:03Z</time>
      </trkpt>
      <trkpt lat="36.748031" lon="-3.795991">
        <ele>116.047</ele>
        <time>2021-06-16T12:22:05Z</time>
      </trkpt>
      <trkpt lat="36.748328" lon="-3.796143">
        <ele>115.254</ele>
        <time>2021-06-16T12:22:07Z</time>
      </trkpt>
      <trkpt lat="36.748656" lon="-3.796163">
        <ele>114.964</ele>
        <time>2021-06-16T12:22:09Z</time>
      </trkpt>
      <trkpt lat="36.748824" lon="-3.796149">
        <ele>114.619</ele>
        <time>2021-06-16T12:22:10Z</time>
      </trkpt>
      <trkpt lat="36.749154" lon="-3.796095">
        <ele>114.209</ele>
        <time>2021-06-16T12:22:12Z</time>
      </trkpt>
      <trkpt lat="36.74932" lon="-3.796057">
        <ele>113.619</ele>
        <time>2021-06-16T12:22:13Z</time>
      </trkpt>
      <trkpt lat="36.749483" lon="-3.796016">
        <ele>112.808</ele>
        <time>2021-06-16T12:22:14Z</time>
      </trkpt>
      <trkpt lat="36.749796" lon="-3.79594">
        <ele>111.298</ele>
        <time>2021-06-16T12:22:16Z</time>
      </trkpt>
      <trkpt lat="36.75011" lon="-3.79588">
        <ele>110.296</ele>
        <time>2021-06-16T12:22:18Z</time>
      </trkpt>
      <trkpt lat="36.750404" lon="-3.795833">
        <ele>109.870</ele>
        <time>2021-06-16T12:22:20Z</time>
      </trkpt>
      <trkpt lat="36.750692" lon="-3.79582">
        <ele>109.319</ele>
        <time>2021-06-16T12:22:22Z</time>
      </trkpt>
      <trkpt lat="36.750927" lon="-3.795904">
        <ele>106.952</ele>
        <time>2021-06-16T12:22:24Z</time>
      </trkpt>
      <trkpt lat="36.751096" lon="-3.796112">
        <ele>104.719</ele>
        <time>2021-06-16T12:22:26Z</time>
      </trkpt>
      <trkpt lat="36.751146" lon="-3.796256">
        <ele>103.226</ele>
        <time>2021-06-16T12:22:27Z</time>
      </trkpt>
      <trkpt lat="36.75116" lon="-3.796392">
        <ele>102.576</ele>
        <time>2021-06-16T12:22:28Z</time>
      </trkpt>
      <trkpt lat="36.750991" lon="-3.796693">
        <ele>101.891</ele>
        <time>2021-06-16T12:22:30Z</time>
      </trkpt>
      <trkpt lat="36.750856" lon="-3.796785">
        <ele>100.681</ele>
        <time>2021-06-16T12:22:31Z</time>
      </trkpt>
      <trkpt lat="36.750567" lon="-3.796885">
        <ele>98.819</ele>
        <time>2021-06-16T12:22:33Z</time>
      </trkpt>
      <trkpt lat="36.750412" lon="-3.796908">
        <ele>97.908</ele>
        <time>2021-06-16T12:22:34Z</time>
      </trkpt>
      <trkpt lat="36.750086" lon="-3.796904">
        <ele>94.776</ele>
        <time>2021-06-16T12:22:36Z</time>
      </trkpt>
      <trkpt lat="36.749943" lon="-3.796959">
        <ele>92.654</ele>
        <time>2021-06-16T12:22:37Z</time>
      </trkpt>
      <trkpt lat="36.749686" lon="-3.797162">
        <ele>90.668</ele>
        <time>2021-06-16T12:22:39Z</time>
      </trkpt>
      <trkpt lat="36.749442" lon="-3.797454">
        <ele>87.647</ele>
        <time>2021-06-16T12:22:41Z</time>
      </trkpt>
      <trkpt lat="36.749321" lon="-3.797608">
        <ele>85.310</ele>
        <time>2021-06-16T12:22:42Z</time>
      </trkpt>
      <trkpt lat="36.749192" lon="-3.79775">
        <ele>83.567</ele>
        <time>2021-06-16T12:22:43Z</time>
      </trkpt>
      <trkpt lat="36.748894" lon="-3.797929">
        <ele>82.364</ele>
        <time>2021-06-16T12:22:45Z</time>
      </trkpt>
      <trkpt lat="36.748737" lon="-3.797995">
        <ele>81.534</ele>
        <time>2021-06-16T12:22:46Z</time>
      </trkpt>
      <trkpt lat="36.748453" lon="-3.798143">
        <ele>80.176</ele>
        <time>2021-06-16T12:22:48Z</time>
      </trkpt>
      <trkpt lat="36.748206" lon="-3.798363">
        <ele>78.290</ele>
        <time>2021-06-16T12:22:50Z</time>
      </trkpt>
      <trkpt lat="36.748106" lon="-3.798509">
        <ele>76.519</ele>
        <time>2021-06-16T12:22:51Z</time>
      </trkpt>
      <trkpt lat="36.747934" lon="-3.798841">
        <ele>75.508</ele>
        <time>2021-06-16T12:22:53Z</time>
      </trkpt>
      <trkpt lat="36.747877" lon="-3.799019">
        <ele>74.074</ele>
        <time>2021-06-16T12:22:54Z</time>
      </trkpt>
      <trkpt lat="36.747842" lon="-3.799201">
        <ele>72.822</ele>
        <time>2021-06-16T12:22:55Z</time>
      </trkpt>
      <trkpt lat="36.747827" lon="-3.799584">
        <ele>71.356</ele>
        <time>2021-06-16T12:22:57Z</time>
      </trkpt>
      <trkpt lat="36.747849" lon="-3.799972">
        <ele>70.385</ele>
        <time>2021-06-16T12:22:59Z</time>
      </trkpt>
      <trkpt lat="36.747874" lon="-3.800362">
        <ele>69.518</ele>
        <time>2021-06-16T12:23:01Z</time>
      </trkpt>
      <trkpt lat="36.747928" lon="-3.800755">
        <ele>69.655</ele>
        <time>2021-06-16T12:23:03Z</time>
      </trkpt>
      <trkpt lat="36.747969" lon="-3.800951">
        <ele>69.622</ele>
        <time>2021-06-16T12:23:04Z</time>
      </trkpt>
      <trkpt lat="36.748029" lon="-3.80114">
        <ele>69.532</ele>
        <time>2021-06-16T12:23:05Z</time>
      </trkpt>
      <trkpt lat="36.748211" lon="-3.80148">
        <ele>68.526</ele>
        <time>2021-06-16T12:23:07Z</time>
      </trkpt>
      <trkpt lat="36.748455" lon="-3.801764">
        <ele>67.447</ele>
        <time>2021-06-16T12:23:09Z</time>
      </trkpt>
      <trkpt lat="36.748598" lon="-3.801881">
        <ele>66.711</ele>
        <time>2021-06-16T12:23:10Z</time>
      </trkpt>
      <trkpt lat="36.748906" lon="-3.802076">
        <ele>65.308</ele>
        <time>2021-06-16T12:23:12Z</time>
      </trkpt>
      <trkpt lat="36.749058" lon="-3.802169">
        <ele>64.499</ele>
        <time>2021-06-16T12:23:13Z</time>
      </trkpt>
      <trkpt lat="36.749209" lon="-3.802263">
        <ele>63.537</ele>
        <time>2021-06-16T12:23:14Z</time>
      </trkpt>
      <trkpt lat="36.749503" lon="-3.802447">
        <ele>62.971</ele>
        <time>2021-06-16T12:23:16Z</time>
      </trkpt>
      <trkpt lat="36.749645" lon="-3.802545">
        <ele>62.990</ele>
        <time>2021-06-16T12:23:17Z</time>
      </trkpt>
      <trkpt lat="36.749784" lon="-3.802648">
        <ele>62.873</ele>
        <time>2021-06-16T12:23:18Z</time>
      </trkpt>
      <trkpt lat="36.750035" lon="-3.802905">
        <ele>62.040</ele>
        <time>2021-06-16T12:23:20Z</time>
      </trkpt>
      <trkpt lat="36.75021" lon="-3.803243">
        <ele>61.237</ele>
        <time>2021-06-16T12:23:22Z</time>
      </trkpt>
      <trkpt lat="36.7503" lon="-3.803625">
        <ele>60.497</ele>
        <time>2021-06-16T12:23:24Z</time>
      </trkpt>
      <trkpt lat="36.750315" lon="-3.804026">
        <ele>59.931</ele>
        <time>2021-06-16T12:23:26Z</time>
      </trkpt>
      <trkpt lat="36.750284" lon="-3.804224">
        <ele>59.161</ele>
        <time>2021-06-16T12:23:27Z</time>
      </trkpt>
      <trkpt lat="36.750232" lon="-3.804415">
        <ele>58.607</ele>
        <time>2021-06-16T12:23:28Z</time>
      </trkpt>
      <trkpt lat="36.750083" lon="-3.804771">
        <ele>57.808</ele>
        <time>2021-06-16T12:23:30Z</time>
      </trkpt>
      <trkpt lat="36.749996" lon="-3.804938">
        <ele>57.590</ele>
        <time>2021-06-16T12:23:31Z</time>
      </trkpt>
      <trkpt lat="36.749834" lon="-3.805267">
        <ele>57.248</ele>
        <time>2021-06-16T12:23:33Z</time>
      </trkpt>
      <trkpt lat="36.74979" lon="-3.80544">
        <ele>56.522</ele>
        <time>2021-06-16T12:23:34Z</time>
      </trkpt>
      <trkpt lat="36.749783" lon="-3.805619">
        <ele>56.131</ele>
        <time>2021-06-16T12:23:35Z</time>
      </trkpt>
      <trkpt lat="36.749882" lon="-3.805973">
        <ele>56.144</ele>
        <time>2021-06-16T12:23:37Z</time>
      </trkpt>
      <trkpt lat="36.749981" lon="-3.806122">
        <ele>56.161</ele>
        <time>2021-06-16T12:23:38Z</time>
      </trkpt>
      <trkpt lat="36.750095" lon="-3.806257">
        <ele>56.838</ele>
        <time>2021-06-16T12:23:39Z</time>
      </trkpt>
      <trkpt lat="36.75033" lon="-3.806519">
        <ele>56.998</ele>
        <time>2021-06-16T12:23:41Z</time>
      </trkpt>
      <trkpt lat="36.750449" lon="-3.806657">
        <ele>57.335</ele>
        <time>2021-06-16T12:23:42Z</time>
      </trkpt>
      <trkpt lat="36.750673" lon="-3.806953">
        <ele>57.086</ele>
        <time>2021-06-16T12:23:44Z</time>
      </trkpt>
      <trkpt lat="36.750784" lon="-3.807104">
        <ele>56.814</ele>
        <time>2021-06-16T12:23:45Z</time>
      </trkpt>
      <trkpt lat="36.750996" lon="-3.807424">
        <ele>56.508</ele>
        <time>2021-06-16T12:23:47Z</time>
      </trkpt>
      <trkpt lat="36.751087" lon="-3.807598">
        <ele>56.450</ele>
        <time>2021-06-16T12:23:48Z</time>
      </trkpt>
      <trkpt lat="36.751159" lon="-3.807788">
        <ele>56.718</ele>
        <time>2021-06-16T12:23:49Z</time>
      </trkpt>
      <trkpt lat="36.751246" lon="-3.808196">
        <ele>56.992</ele>
        <time>2021-06-16T12:23:51Z</time>
      </trkpt>
      <trkpt lat="36.751278" lon="-3.808621">
        <ele>56.791</ele>
        <time>2021-06-16T12:23:53Z</time>
      </trkpt>
      <trkpt lat="36.751289" lon="-3.809033">
        <ele>56.234</ele>
        <time>2021-06-16T12:23:55Z</time>
      </trkpt>
      <trkpt lat="36.751302" lon="-3.809229">
        <ele>55.971</ele>
        <time>2021-06-16T12:23:56Z</time>
      </trkpt>
      <trkpt lat="36.751304" lon="-3.809588">
        <ele>55.838</ele>
        <time>2021-06-16T12:23:58Z</time>
      </trkpt>
      <trkpt lat="36.751322" lon="-3.809971">
        <ele>56.088</ele>
        <time>2021-06-16T12:24:00Z</time>
      </trkpt>
      <trkpt lat="36.751385" lon="-3.810367">
        <ele>56.442</ele>
        <time>2021-06-16T12:24:02Z</time>
      </trkpt>
      <trkpt lat="36.751471" lon="-3.810756">
        <ele>56.122</ele>
        <time>2021-06-16T12:24:04Z</time>
      </trkpt>
      <trkpt lat="36.751529" lon="-3.810951">
        <ele>55.714</ele>
        <time>2021-06-16T12:24:05Z</time>
      </trkpt>
      <trkpt lat="36.751672" lon="-3.811332">
        <ele>54.908</ele>
        <time>2021-06-16T12:24:07Z</time>
      </trkpt>
      <trkpt lat="36.751751" lon="-3.81152">
        <ele>54.451</ele>
        <time>2021-06-16T12:24:08Z</time>
      </trkpt>
      <trkpt lat="36.751836" lon="-3.811704">
        <ele>53.839</ele>
        <time>2021-06-16T12:24:09Z</time>
      </trkpt>
      <trkpt lat="36.751929" lon="-3.811884">
        <ele>53.373</ele>
        <time>2021-06-16T12:24:10Z</time>
      </trkpt>
      <trkpt lat="36.75213" lon="-3.812235">
        <ele>52.352</ele>
        <time>2021-06-16T12:24:12Z</time>
      </trkpt>
      <trkpt lat="36.752335" lon="-3.812585">
        <ele>51.055</ele>
        <time>2021-06-16T12:24:14Z</time>
      </trkpt>
      <trkpt lat="36.752527" lon="-3.812917">
        <ele>49.382</ele>
        <time>2021-06-16T12:24:16Z</time>
      </trkpt>
      <trkpt lat="36.75272" lon="-3.813245">
        <ele>47.689</ele>
        <time>2021-06-16T12:24:18Z</time>
      </trkpt>
      <trkpt lat="36.752821" lon="-3.813411">
        <ele>46.229</ele>
        <time>2021-06-16T12:24:19Z</time>
      </trkpt>
      <trkpt lat="36.752926" lon="-3.813585">
        <ele>45.227</ele>
        <time>2021-06-16T12:24:20Z</time>
      </trkpt>
      <trkpt lat="36.753115" lon="-3.813917">
        <ele>45.268</ele>
        <time>2021-06-16T12:24:22Z</time>
      </trkpt>
      <trkpt lat="36.753295" lon="-3.814262">
        <ele>44.214</ele>
        <time>2021-06-16T12:24:24Z</time>
      </trkpt>
      <trkpt lat="36.753426" lon="-3.814636">
        <ele>43.508</ele>
        <time>2021-06-16T12:24:26Z</time>
      </trkpt>
      <trkpt lat="36.753459" lon="-3.814832">
        <ele>43.039</ele>
        <time>2021-06-16T12:24:27Z</time>
      </trkpt>
      <trkpt lat="36.753465" lon="-3.815241">
        <ele>42.747</ele>
        <time>2021-06-16T12:24:29Z</time>
      </trkpt>
      <trkpt lat="36.753379" lon="-3.815654">
        <ele>42.671</ele>
        <time>2021-06-16T12:24:31Z</time>
      </trkpt>
      <trkpt lat="36.75326" lon="-3.816041">
        <ele>43.440</ele>
        <time>2021-06-16T12:24:33Z</time>
      </trkpt>
      <trkpt lat="36.753239" lon="-3.816227">
        <ele>44.463</ele>
        <time>2021-06-16T12:24:34Z</time>
      </trkpt>
      <trkpt lat="36.753304" lon="-3.816599">
        <ele>44.970</ele>
        <time>2021-06-16T12:24:36Z</time>
      </trkpt>
      <trkpt lat="36.753356" lon="-3.816771">
        <ele>45.287</ele>
        <time>2021-06-16T12:24:37Z</time>
      </trkpt>
      <trkpt lat="36.753542" lon="-3.817079">
        <ele>46.487</ele>
        <time>2021-06-16T12:24:39Z</time>
      </trkpt>
      <trkpt lat="36.753653" lon="-3.817225">
        <ele>47.937</ele>
        <time>2021-06-16T12:24:40Z</time>
      </trkpt>
      <trkpt lat="36.753871" lon="-3.817506">
        <ele>50.049</ele>
        <time>2021-06-16T12:24:42Z</time>
      </trkpt>
      <trkpt lat="36.75398" lon="-3.81765">
        <ele>52.313</ele>
        <time>2021-06-16T12:24:43Z</time>
      </trkpt>
      <trkpt lat="36.754199" lon="-3.817938">
        <ele>54.808</ele>
        <time>2021-06-16T12:24:45Z</time>
      </trkpt>
      <trkpt lat="36.754298" lon="-3.818091">
        <ele>56.840</ele>
        <time>2021-06-16T12:24:46Z</time>
      </trkpt>
      <trkpt lat="36.754461" lon="-3.818431">
        <ele>58.648</ele>
        <time>2021-06-16T12:24:48Z</time>
      </trkpt>
      <trkpt lat="36.754522" lon="-3.818616">
        <ele>60.212</ele>
        <time>2021-06-16T12:24:49Z</time>
      </trkpt>
      <trkpt lat="36.754569" lon="-3.818809">
        <ele>61.181</ele>
        <time>2021-06-16T12:24:50Z</time>
      </trkpt>
      <trkpt lat="36.7546" lon="-3.819214">
        <ele>62.534</ele>
        <time>2021-06-16T12:24:52Z</time>
      </trkpt>
      <trkpt lat="36.754568" lon="-3.819625">
        <ele>64.551</ele>
        <time>2021-06-16T12:24:54Z</time>
      </trkpt>
      <trkpt lat="36.754542" lon="-3.819828">
        <ele>66.188</ele>
        <time>2021-06-16T12:24:55Z</time>
      </trkpt>
      <trkpt lat="36.754475" lon="-3.820241">
        <ele>68.518</ele>
        <time>2021-06-16T12:24:57Z</time>
      </trkpt>
      <trkpt lat="36.754448" lon="-3.820448">
        <ele>70.643</ele>
        <time>2021-06-16T12:24:58Z</time>
      </trkpt>
      <trkpt lat="36.754431" lon="-3.820652">
        <ele>72.564</ele>
        <time>2021-06-16T12:24:59Z</time>
      </trkpt>
      <trkpt lat="36.754444" lon="-3.821055">
        <ele>74.510</ele>
        <time>2021-06-16T12:25:01Z</time>
      </trkpt>
      <trkpt lat="36.754478" lon="-3.821249">
        <ele>76.408</ele>
        <time>2021-06-16T12:25:02Z</time>
      </trkpt>
      <trkpt lat="36.754534" lon="-3.821431">
        <ele>77.961</ele>
        <time>2021-06-16T12:25:03Z</time>
      </trkpt>
      <trkpt lat="36.754688" lon="-3.821756">
        <ele>79.179</ele>
        <time>2021-06-16T12:25:05Z</time>
      </trkpt>
      <trkpt lat="36.754909" lon="-3.822042">
        <ele>81.543</ele>
        <time>2021-06-16T12:25:07Z</time>
      </trkpt>
      <trkpt lat="36.755132" lon="-3.822322">
        <ele>84.262</ele>
        <time>2021-06-16T12:25:09Z</time>
      </trkpt>
      <trkpt lat="36.755243" lon="-3.822456">
        <ele>86.035</ele>
        <time>2021-06-16T12:25:10Z</time>
      </trkpt>
      <trkpt lat="36.75544" lon="-3.822746">
        <ele>87.412</ele>
        <time>2021-06-16T12:25:12Z</time>
      </trkpt>
      <trkpt lat="36.755518" lon="-3.822911">
        <ele>88.529</ele>
        <time>2021-06-16T12:25:13Z</time>
      </trkpt>
      <trkpt lat="36.75564" lon="-3.823269">
        <ele>89.289</ele>
        <time>2021-06-16T12:25:15Z</time>
      </trkpt>
      <trkpt lat="36.755727" lon="-3.823636">
        <ele>90.317</ele>
        <time>2021-06-16T12:25:17Z</time>
      </trkpt>
      <trkpt lat="36.755763" lon="-3.823824">
        <ele>91.887</ele>
        <time>2021-06-16T12:25:18Z</time>
      </trkpt>
      <trkpt lat="36.755896" lon="-3.824166">
        <ele>93.715</ele>
        <time>2021-06-16T12:25:20Z</time>
      </trkpt>
      <trkpt lat="36.756129" lon="-3.824427">
        <ele>95.208</ele>
        <time>2021-06-16T12:25:22Z</time>
      </trkpt>
      <trkpt lat="36.756425" lon="-3.824515">
        <ele>96.978</ele>
        <time>2021-06-16T12:25:24Z</time>
      </trkpt>
      <trkpt lat="36.756598" lon="-3.824523">
        <ele>97.656</ele>
        <time>2021-06-16T12:25:25Z</time>
      </trkpt>
      <trkpt lat="36.756764" lon="-3.824522">
        <ele>98.650</ele>
        <time>2021-06-16T12:25:26Z</time>
      </trkpt>
      <trkpt lat="36.757096" lon="-3.824554">
        <ele>99.639</ele>
        <time>2021-06-16T12:25:28Z</time>
      </trkpt>
      <trkpt lat="36.757249" lon="-3.824594">
        <ele>100.872</ele>
        <time>2021-06-16T12:25:29Z</time>
      </trkpt>
      <trkpt lat="36.757388" lon="-3.824642">
        <ele>101.279</ele>
        <time>2021-06-16T12:25:30Z</time>
      </trkpt>
      <trkpt lat="36.757648" lon="-3.824818">
        <ele>103.146</ele>
        <time>2021-06-16T12:25:32Z</time>
      </trkpt>
      <trkpt lat="36.757853" lon="-3.825117">
        <ele>105.636</ele>
        <time>2021-06-16T12:25:34Z</time>
      </trkpt>
      <trkpt lat="36.757932" lon="-3.825291">
        <ele>107.964</ele>
        <time>2021-06-16T12:25:35Z</time>
      </trkpt>
      <trkpt lat="36.75799" lon="-3.825477">
        <ele>109.606</ele>
        <time>2021-06-16T12:25:36Z</time>
      </trkpt>
      <trkpt lat="36.758056" lon="-3.825867">
        <ele>110.816</ele>
        <time>2021-06-16T12:25:38Z</time>
      </trkpt>
      <trkpt lat="36.758088" lon="-3.826269">
        <ele>111.808</ele>
        <time>2021-06-16T12:25:40Z</time>
      </trkpt>
      <trkpt lat="36.758084" lon="-3.826467">
        <ele>112.813</ele>
        <time>2021-06-16T12:25:41Z</time>
      </trkpt>
      <trkpt lat="36.758073" lon="-3.826667">
        <ele>113.891</ele>
        <time>2021-06-16T12:25:42Z</time>
      </trkpt>
      <trkpt lat="36.758055" lon="-3.827067">
        <ele>114.565</ele>
        <time>2021-06-16T12:25:44Z</time>
      </trkpt>
      <trkpt lat="36.758046" lon="-3.82727">
        <ele>114.914</ele>
        <time>2021-06-16T12:25:45Z</time>
      </trkpt>
      <trkpt lat="36.758034" lon="-3.827476">
        <ele>115.557</ele>
        <time>2021-06-16T12:25:46Z</time>
      </trkpt>
      <trkpt lat="36.758008" lon="-3.827875">
        <ele>116.154</ele>
        <time>2021-06-16T12:25:48Z</time>
      </trkpt>
      <trkpt lat="36.757996" lon="-3.828267">
        <ele>117.131</ele>
        <time>2021-06-16T12:25:50Z</time>
      </trkpt>
      <trkpt lat="36.757996" lon="-3.828467">
        <ele>118.511</ele>
        <time>2021-06-16T12:25:51Z</time>
      </trkpt>
      <trkpt lat="36.758022" lon="-3.828868">
        <ele>119.446</ele>
        <time>2021-06-16T12:25:53Z</time>
      </trkpt>
      <trkpt lat="36.758081" lon="-3.829275">
        <ele>120.488</ele>
        <time>2021-06-16T12:25:55Z</time>
      </trkpt>
      <trkpt lat="36.758123" lon="-3.829479">
        <ele>121.516</ele>
        <time>2021-06-16T12:25:56Z</time>
      </trkpt>
      <trkpt lat="36.758256" lon="-3.829868">
        <ele>122.508</ele>
        <time>2021-06-16T12:25:58Z</time>
      </trkpt>
      <trkpt lat="36.758337" lon="-3.830063">
        <ele>123.851</ele>
        <time>2021-06-16T12:25:59Z</time>
      </trkpt>
      <trkpt lat="36.758508" lon="-3.830458">
        <ele>124.599</ele>
        <time>2021-06-16T12:26:01Z</time>
      </trkpt>
      <trkpt lat="36.758598" lon="-3.830659">
        <ele>125.053</ele>
        <time>2021-06-16T12:26:02Z</time>
      </trkpt>
      <trkpt lat="36.758766" lon="-3.831035">
        <ele>124.662</ele>
        <time>2021-06-16T12:26:04Z</time>
      </trkpt>
      <trkpt lat="36.758847" lon="-3.831216">
        <ele>124.025</ele>
        <time>2021-06-16T12:26:05Z</time>
      </trkpt>
      <trkpt lat="36.759005" lon="-3.831567">
        <ele>122.932</ele>
        <time>2021-06-16T12:26:07Z</time>
      </trkpt>
      <trkpt lat="36.759162" lon="-3.831902">
        <ele>121.569</ele>
        <time>2021-06-16T12:26:09Z</time>
      </trkpt>
      <trkpt lat="36.759315" lon="-3.832228">
        <ele>120.399</ele>
        <time>2021-06-16T12:26:11Z</time>
      </trkpt>
      <trkpt lat="36.759386" lon="-3.832397">
        <ele>119.747</ele>
        <time>2021-06-16T12:26:12Z</time>
      </trkpt>
      <trkpt lat="36.759451" lon="-3.832566">
        <ele>118.929</ele>
        <time>2021-06-16T12:26:13Z</time>
      </trkpt>
      <trkpt lat="36.759516" lon="-3.832739">
        <ele>117.921</ele>
        <time>2021-06-16T12:26:14Z</time>
      </trkpt>
      <trkpt lat="36.759618" lon="-3.833093">
        <ele>117.308</ele>
        <time>2021-06-16T12:26:16Z</time>
      </trkpt>
      <trkpt lat="36.759643" lon="-3.833279">
        <ele>116.771</ele>
        <time>2021-06-16T12:26:17Z</time>
      </trkpt>
      <trkpt lat="36.759656" lon="-3.833465">
        <ele>116.649</ele>
        <time>2021-06-16T12:26:18Z</time>
      </trkpt>
      <trkpt lat="36.759656" lon="-3.833648">
        <ele>116.073</ele>
        <time>2021-06-16T12:26:19Z</time>
      </trkpt>
      <trkpt lat="36.759634" lon="-3.833829">
        <ele>115.892</ele>
        <time>2021-06-16T12:26:20Z</time>
      </trkpt>
      <trkpt lat="36.759546" lon="-3.834163">
        <ele>115.285</ele>
        <time>2021-06-16T12:26:22Z</time>
      </trkpt>
      <trkpt lat="36.759403" lon="-3.83447">
        <ele>114.682</ele>
        <time>2021-06-16T12:26:24Z</time>
      </trkpt>
      <trkpt lat="36.759314" lon="-3.834617">
        <ele>114.479</ele>
        <time>2021-06-16T12:26:25Z</time>
      </trkpt>
      <trkpt lat="36.759224" lon="-3.834754">
        <ele>113.799</ele>
        <time>2021-06-16T12:26:26Z</time>
      </trkpt>
      <trkpt lat="36.759133" lon="-3.834887">
        <ele>113.319</ele>
        <time>2021-06-16T12:26:27Z</time>
      </trkpt>
      <trkpt lat="36.758968" lon="-3.835178">
        <ele>112.909</ele>
        <time>2021-06-16T12:26:29Z</time>
      </trkpt>
      <trkpt lat="36.758909" lon="-3.835344">
        <ele>112.419</ele>
        <time>2021-06-16T12:26:30Z</time>
      </trkpt>
      <trkpt lat="36.758839" lon="-3.835706">
        <ele>111.808</ele>
        <time>2021-06-16T12:26:32Z</time>
      </trkpt>
      <trkpt lat="36.758828" lon="-3.836094">
        <ele>110.718</ele>
        <time>2021-06-16T12:26:34Z</time>
      </trkpt>
      <trkpt lat="36.758887" lon="-3.836484">
        <ele>110.156</ele>
        <time>2021-06-16T12:26:36Z</time>
      </trkpt>
      <trkpt lat="36.758933" lon="-3.836681">
        <ele>110.040</ele>
        <time>2021-06-16T12:26:37Z</time>
      </trkpt>
      <trkpt lat="36.759032" lon="-3.837068">
        <ele>110.199</ele>
        <time>2021-06-16T12:26:39Z</time>
      </trkpt>
      <trkpt lat="36.759144" lon="-3.837457">
        <ele>110.452</ele>
        <time>2021-06-16T12:26:41Z</time>
      </trkpt>
      <trkpt lat="36.759205" lon="-3.837654">
        <ele>110.279</ele>
        <time>2021-06-16T12:26:42Z</time>
      </trkpt>
      <trkpt lat="36.759268" lon="-3.83785">
        <ele>109.996</ele>
        <time>2021-06-16T12:26:43Z</time>
      </trkpt>
      <trkpt lat="36.759381" lon="-3.838237">
        <ele>110.236</ele>
        <time>2021-06-16T12:26:45Z</time>
      </trkpt>
      <trkpt lat="36.759483" lon="-3.83862">
        <ele>110.337</ele>
        <time>2021-06-16T12:26:47Z</time>
      </trkpt>
      <trkpt lat="36.759582" lon="-3.839002">
        <ele>111.249</ele>
        <time>2021-06-16T12:26:49Z</time>
      </trkpt>
      <trkpt lat="36.759632" lon="-3.839194">
        <ele>111.613</ele>
        <time>2021-06-16T12:26:50Z</time>
      </trkpt>
      <trkpt lat="36.759711" lon="-3.83958">
        <ele>112.308</ele>
        <time>2021-06-16T12:26:52Z</time>
      </trkpt>
      <trkpt lat="36.759759" lon="-3.839962">
        <ele>112.840</ele>
        <time>2021-06-16T12:26:54Z</time>
      </trkpt>
      <trkpt lat="36.759775" lon="-3.840135">
        <ele>113.148</ele>
        <time>2021-06-16T12:26:55Z</time>
      </trkpt>
      <trkpt lat="36.75979" lon="-3.840386">
        <ele>113.692</ele>
        <time>2021-06-16T12:26:57Z</time>
      </trkpt>
      <trkpt lat="36.759793" lon="-3.840537">
        <ele>113.951</ele>
        <time>2021-06-16T12:26:59Z</time>
      </trkpt>
      <trkpt lat="36.759785" lon="-3.84061">
        <ele>114.724</ele>
        <time>2021-06-16T12:27:01Z</time>
      </trkpt>
      <trkpt lat="36.75978" lon="-3.840705">
        <ele>115.511</ele>
        <time>2021-06-16T12:27:03Z</time>
      </trkpt>
      <trkpt lat="36.759763" lon="-3.840832">
        <ele>116.578</ele>
        <time>2021-06-16T12:27:05Z</time>
      </trkpt>
      <trkpt lat="36.759771" lon="-3.840908">
        <ele>117.318</ele>
        <time>2021-06-16T12:27:06Z</time>
      </trkpt>
      <trkpt lat="36.759795" lon="-3.840989">
        <ele>117.892</ele>
        <time>2021-06-16T12:27:07Z</time>
      </trkpt>
      <trkpt lat="36.759822" lon="-3.841074">
        <ele>117.773</ele>
        <time>2021-06-16T12:27:08Z</time>
      </trkpt>
      <trkpt lat="36.759838" lon="-3.841163">
        <ele>117.720</ele>
        <time>2021-06-16T12:27:09Z</time>
      </trkpt>
      <trkpt lat="36.759834" lon="-3.841255">
        <ele>117.708</ele>
        <time>2021-06-16T12:27:10Z</time>
      </trkpt>
      <trkpt lat="36.759775" lon="-3.841445">
        <ele>117.956</ele>
        <time>2021-06-16T12:27:12Z</time>
      </trkpt>
      <trkpt lat="36.759744" lon="-3.841555">
        <ele>118.234</ele>
        <time>2021-06-16T12:27:13Z</time>
      </trkpt>
      <trkpt lat="36.759723" lon="-3.84176">
        <ele>118.448</ele>
        <time>2021-06-16T12:27:15Z</time>
      </trkpt>
      <trkpt lat="36.759725" lon="-3.841887">
        <ele>118.647</ele>
        <time>2021-06-16T12:27:17Z</time>
      </trkpt>
      <trkpt lat="36.759728" lon="-3.841963">
        <ele>118.650</ele>
        <time>2021-06-16T12:27:19Z</time>
      </trkpt>
      <trkpt lat="36.759734" lon="-3.842082">
        <ele>119.017</ele>
        <time>2021-06-16T12:27:21Z</time>
      </trkpt>
      <trkpt lat="36.759735" lon="-3.842166">
        <ele>119.074</ele>
        <time>2021-06-16T12:27:22Z</time>
      </trkpt>
      <trkpt lat="36.759739" lon="-3.842261">
        <ele>118.664</ele>
        <time>2021-06-16T12:27:23Z</time>
      </trkpt>
      <trkpt lat="36.759752" lon="-3.842483">
        <ele>118.829</ele>
        <time>2021-06-16T12:27:25Z</time>
      </trkpt>
      <trkpt lat="36.759763" lon="-3.842604">
        <ele>118.700</ele>
        <time>2021-06-16T12:27:26Z</time>
      </trkpt>
      <trkpt lat="36.759776" lon="-3.842726">
        <ele>118.820</ele>
        <time>2021-06-16T12:27:27Z</time>
      </trkpt>
      <trkpt lat="36.759796" lon="-3.84285">
        <ele>118.808</ele>
        <time>2021-06-16T12:27:28Z</time>
      </trkpt>
      <trkpt lat="36.759847" lon="-3.843098">
        <ele>118.949</ele>
        <time>2021-06-16T12:27:30Z</time>
      </trkpt>
      <trkpt lat="36.759883" lon="-3.843219">
        <ele>118.767</ele>
        <time>2021-06-16T12:27:31Z</time>
      </trkpt>
      <trkpt lat="36.759952" lon="-3.843468">
        <ele>118.491</ele>
        <time>2021-06-16T12:27:33Z</time>
      </trkpt>
      <trkpt lat="36.759981" lon="-3.843599">
        <ele>118.490</ele>
        <time>2021-06-16T12:27:34Z</time>
      </trkpt>
      <trkpt lat="36.760024" lon="-3.843871">
        <ele>118.333</ele>
        <time>2021-06-16T12:27:36Z</time>
      </trkpt>
      <trkpt lat="36.760036" lon="-3.844158">
        <ele>118.120</ele>
        <time>2021-06-16T12:27:38Z</time>
      </trkpt>
      <trkpt lat="36.76003" lon="-3.844298">
        <ele>118.157</ele>
        <time>2021-06-16T12:27:39Z</time>
      </trkpt>
      <trkpt lat="36.760026" lon="-3.844598">
        <ele>118.527</ele>
        <time>2021-06-16T12:27:41Z</time>
      </trkpt>
      <trkpt lat="36.759972" lon="-3.844868">
        <ele>118.596</ele>
        <time>2021-06-16T12:27:43Z</time>
      </trkpt>
      <trkpt lat="36.759948" lon="-3.844997">
        <ele>118.731</ele>
        <time>2021-06-16T12:27:44Z</time>
      </trkpt>
      <trkpt lat="36.7599" lon="-3.845252">
        <ele>119.324</ele>
        <time>2021-06-16T12:27:46Z</time>
      </trkpt>
      <trkpt lat="36.759848" lon="-3.845505">
        <ele>120.408</ele>
        <time>2021-06-16T12:27:48Z</time>
      </trkpt>
      <trkpt lat="36.759818" lon="-3.845613">
        <ele>120.886</ele>
        <time>2021-06-16T12:27:49Z</time>
      </trkpt>
      <trkpt lat="36.759745" lon="-3.84582">
        <ele>121.494</ele>
        <time>2021-06-16T12:27:51Z</time>
      </trkpt>
      <trkpt lat="36.759698" lon="-3.845921">
        <ele>121.598</ele>
        <time>2021-06-16T12:27:52Z</time>
      </trkpt>
      <trkpt lat="36.759647" lon="-3.846012">
        <ele>121.027</ele>
        <time>2021-06-16T12:27:53Z</time>
      </trkpt>
      <trkpt lat="36.759543" lon="-3.84619">
        <ele>120.130</ele>
        <time>2021-06-16T12:27:55Z</time>
      </trkpt>
      <trkpt lat="36.759465" lon="-3.846388">
        <ele>118.967</ele>
        <time>2021-06-16T12:27:57Z</time>
      </trkpt>
      <trkpt lat="36.759454" lon="-3.846504">
        <ele>118.124</ele>
        <time>2021-06-16T12:27:58Z</time>
      </trkpt>
      <trkpt lat="36.759421" lon="-3.846718">
        <ele>117.784</ele>
        <time>2021-06-16T12:28:00Z</time>
      </trkpt>
      <trkpt lat="36.759375" lon="-3.846809">
        <ele>117.316</ele>
        <time>2021-06-16T12:28:01Z</time>
      </trkpt>
      <trkpt lat="36.759216" lon="-3.846909">
        <ele>116.676</ele>
        <time>2021-06-16T12:28:03Z</time>
      </trkpt>
      <trkpt lat="36.759121" lon="-3.846916">
        <ele>115.513</ele>
        <time>2021-06-16T12:28:04Z</time>
      </trkpt>
      <trkpt lat="36.759022" lon="-3.846902">
        <ele>114.408</ele>
        <time>2021-06-16T12:28:05Z</time>
      </trkpt>
      <trkpt lat="36.758812" lon="-3.84687">
        <ele>113.448</ele>
        <time>2021-06-16T12:28:07Z</time>
      </trkpt>
      <trkpt lat="36.758703" lon="-3.846897">
        <ele>112.956</ele>
        <time>2021-06-16T12:28:08Z</time>
      </trkpt>
      <trkpt lat="36.758488" lon="-3.846995">
        <ele>112.390</ele>
        <time>2021-06-16T12:28:10Z</time>
      </trkpt>
      <trkpt lat="36.75838" lon="-3.847061">
        <ele>111.719</ele>
        <time>2021-06-16T12:28:11Z</time>
      </trkpt>
      <trkpt lat="36.758268" lon="-3.847131">
        <ele>111.522</ele>
        <time>2021-06-16T12:28:12Z</time>
      </trkpt>
      <trkpt lat="36.75816" lon="-3.847204">
        <ele>111.089</ele>
        <time>2021-06-16T12:28:13Z</time>
      </trkpt>
      <trkpt lat="36.758053" lon="-3.847284">
        <ele>111.336</ele>
        <time>2021-06-16T12:28:14Z</time>
      </trkpt>
      <trkpt lat="36.757858" lon="-3.847472">
        <ele>111.276</ele>
        <time>2021-06-16T12:28:16Z</time>
      </trkpt>
      <trkpt lat="36.757692" lon="-3.847704">
        <ele>110.366</ele>
        <time>2021-06-16T12:28:18Z</time>
      </trkpt>
      <trkpt lat="36.757556" lon="-3.847966">
        <ele>109.629</ele>
        <time>2021-06-16T12:28:20Z</time>
      </trkpt>
      <trkpt lat="36.757501" lon="-3.848107">
        <ele>108.721</ele>
        <time>2021-06-16T12:28:21Z</time>
      </trkpt>
      <trkpt lat="36.757419" lon="-3.848408">
        <ele>107.808</ele>
        <time>2021-06-16T12:28:23Z</time>
      </trkpt>
      <trkpt lat="36.757384" lon="-3.848568">
        <ele>107.043</ele>
        <time>2021-06-16T12:28:24Z</time>
      </trkpt>
      <trkpt lat="36.757357" lon="-3.848725">
        <ele>106.211</ele>
        <time>2021-06-16T12:28:25Z</time>
      </trkpt>
      <trkpt lat="36.757302" lon="-3.849038">
        <ele>105.585</ele>
        <time>2021-06-16T12:28:27Z</time>
      </trkpt>
      <trkpt lat="36.757236" lon="-3.849354">
        <ele>104.564</ele>
        <time>2021-06-16T12:28:29Z</time>
      </trkpt>
      <trkpt lat="36.757148" lon="-3.849674">
        <ele>103.167</ele>
        <time>2021-06-16T12:28:31Z</time>
      </trkpt>
      <trkpt lat="36.757032" lon="-3.849991">
        <ele>102.184</ele>
        <time>2021-06-16T12:28:33Z</time>
      </trkpt>
      <trkpt lat="36.756892" lon="-3.850289">
        <ele>100.991</ele>
        <time>2021-06-16T12:28:35Z</time>
      </trkpt>
      <trkpt lat="36.756732" lon="-3.850587">
        <ele>100.071</ele>
        <time>2021-06-16T12:28:37Z</time>
      </trkpt>
      <trkpt lat="36.756645" lon="-3.850725">
        <ele>98.769</ele>
        <time>2021-06-16T12:28:38Z</time>
      </trkpt>
      <trkpt lat="36.756551" lon="-3.850853">
        <ele>98.404</ele>
        <time>2021-06-16T12:28:39Z</time>
      </trkpt>
      <trkpt lat="36.756366" lon="-3.851068">
        <ele>98.224</ele>
        <time>2021-06-16T12:28:41Z</time>
      </trkpt>
      <trkpt lat="36.75628" lon="-3.85116">
        <ele>97.708</ele>
        <time>2021-06-16T12:28:42Z</time>
      </trkpt>
      <trkpt lat="36.756203" lon="-3.851253">
        <ele>97.023</ele>
        <time>2021-06-16T12:28:43Z</time>
      </trkpt>
      <trkpt lat="36.75608" lon="-3.851471">
        <ele>95.991</ele>
        <time>2021-06-16T12:28:45Z</time>
      </trkpt>
      <trkpt lat="36.756006" lon="-3.851712">
        <ele>95.365</ele>
        <time>2021-06-16T12:28:47Z</time>
      </trkpt>
      <trkpt lat="36.755974" lon="-3.851819">
        <ele>94.714</ele>
        <time>2021-06-16T12:28:48Z</time>
      </trkpt>
      <trkpt lat="36.755845" lon="-3.851968">
        <ele>93.877</ele>
        <time>2021-06-16T12:28:50Z</time>
      </trkpt>
      <trkpt lat="36.755664" lon="-3.851989">
        <ele>93.244</ele>
        <time>2021-06-16T12:28:52Z</time>
      </trkpt>
      <trkpt lat="36.755577" lon="-3.851954">
        <ele>93.091</ele>
        <time>2021-06-16T12:28:53Z</time>
      </trkpt>
      <trkpt lat="36.755492" lon="-3.85193">
        <ele>92.631</ele>
        <time>2021-06-16T12:28:54Z</time>
      </trkpt>
      <trkpt lat="36.755326" lon="-3.852008">
        <ele>92.112</ele>
        <time>2021-06-16T12:28:56Z</time>
      </trkpt>
      <trkpt lat="36.755247" lon="-3.852095">
        <ele>91.532</ele>
        <time>2021-06-16T12:28:57Z</time>
      </trkpt>
      <trkpt lat="36.7551" lon="-3.852324">
        <ele>91.405</ele>
        <time>2021-06-16T12:28:59Z</time>
      </trkpt>
      <trkpt lat="36.755035" lon="-3.852464">
        <ele>91.108</ele>
        <time>2021-06-16T12:29:00Z</time>
      </trkpt>
      <trkpt lat="36.754929" lon="-3.852755">
        <ele>90.278</ele>
        <time>2021-06-16T12:29:02Z</time>
      </trkpt>
      <trkpt lat="36.754897" lon="-3.852914">
        <ele>89.256</ele>
        <time>2021-06-16T12:29:03Z</time>
      </trkpt>
      <trkpt lat="36.754864" lon="-3.853237">
        <ele>87.730</ele>
        <time>2021-06-16T12:29:05Z</time>
      </trkpt>
      <trkpt lat="36.754884" lon="-3.853564">
        <ele>86.769</ele>
        <time>2021-06-16T12:29:07Z</time>
      </trkpt>
      <trkpt lat="36.754936" lon="-3.8539">
        <ele>85.752</ele>
        <time>2021-06-16T12:29:09Z</time>
      </trkpt>
      <trkpt lat="36.754966" lon="-3.854068">
        <ele>84.759</ele>
        <time>2021-06-16T12:29:10Z</time>
      </trkpt>
      <trkpt lat="36.755021" lon="-3.85441">
        <ele>84.316</ele>
        <time>2021-06-16T12:29:12Z</time>
      </trkpt>
      <trkpt lat="36.755078" lon="-3.854755">
        <ele>83.316</ele>
        <time>2021-06-16T12:29:14Z</time>
      </trkpt>
      <trkpt lat="36.755129" lon="-3.855098">
        <ele>82.511</ele>
        <time>2021-06-16T12:29:16Z</time>
      </trkpt>
      <trkpt lat="36.755155" lon="-3.855273">
        <ele>81.821</ele>
        <time>2021-06-16T12:29:17Z</time>
      </trkpt>
      <trkpt lat="36.755198" lon="-3.855628">
        <ele>81.203</ele>
        <time>2021-06-16T12:29:19Z</time>
      </trkpt>
      <trkpt lat="36.75524" lon="-3.855988">
        <ele>80.508</ele>
        <time>2021-06-16T12:29:21Z</time>
      </trkpt>
      <trkpt lat="36.755266" lon="-3.856171">
        <ele>80.618</ele>
        <time>2021-06-16T12:29:22Z</time>
      </trkpt>
      <trkpt lat="36.755321" lon="-3.856541">
        <ele>80.526</ele>
        <time>2021-06-16T12:29:24Z</time>
      </trkpt>
      <trkpt lat="36.755378" lon="-3.856911">
        <ele>79.920</ele>
        <time>2021-06-16T12:29:26Z</time>
      </trkpt>
      <trkpt lat="36.755432" lon="-3.857279">
        <ele>79.769</ele>
        <time>2021-06-16T12:29:28Z</time>
      </trkpt>
      <trkpt lat="36.755455" lon="-3.857458">
        <ele>79.512</ele>
        <time>2021-06-16T12:29:29Z</time>
      </trkpt>
      <trkpt lat="36.755493" lon="-3.857808">
        <ele>79.269</ele>
        <time>2021-06-16T12:29:31Z</time>
      </trkpt>
      <trkpt lat="36.75551" lon="-3.857979">
        <ele>79.136</ele>
        <time>2021-06-16T12:29:32Z</time>
      </trkpt>
      <trkpt lat="36.755556" lon="-3.858309">
        <ele>78.986</ele>
        <time>2021-06-16T12:29:34Z</time>
      </trkpt>
      <trkpt lat="36.755607" lon="-3.858625">
        <ele>78.453</ele>
        <time>2021-06-16T12:29:36Z</time>
      </trkpt>
      <trkpt lat="36.755638" lon="-3.858782">
        <ele>78.104</ele>
        <time>2021-06-16T12:29:37Z</time>
      </trkpt>
      <trkpt lat="36.755677" lon="-3.85894">
        <ele>77.914</ele>
        <time>2021-06-16T12:29:38Z</time>
      </trkpt>
      <trkpt lat="36.755782" lon="-3.859254">
        <ele>78.308</ele>
        <time>2021-06-16T12:29:40Z</time>
      </trkpt>
      <trkpt lat="36.75594" lon="-3.859536">
        <ele>78.162</ele>
        <time>2021-06-16T12:29:42Z</time>
      </trkpt>
      <trkpt lat="36.756034" lon="-3.85966">
        <ele>78.210</ele>
        <time>2021-06-16T12:29:43Z</time>
      </trkpt>
      <trkpt lat="36.756257" lon="-3.859878">
        <ele>78.194</ele>
        <time>2021-06-16T12:29:45Z</time>
      </trkpt>
      <trkpt lat="36.756515" lon="-3.860064">
        <ele>77.783</ele>
        <time>2021-06-16T12:29:47Z</time>
      </trkpt>
      <trkpt lat="36.75678" lon="-3.860254">
        <ele>76.796</ele>
        <time>2021-06-16T12:29:49Z</time>
      </trkpt>
      <trkpt lat="36.756908" lon="-3.860353">
        <ele>76.293</ele>
        <time>2021-06-16T12:29:50Z</time>
      </trkpt>
      <trkpt lat="36.757154" lon="-3.860573">
        <ele>75.860</ele>
        <time>2021-06-16T12:29:52Z</time>
      </trkpt>
      <trkpt lat="36.757353" lon="-3.860847">
        <ele>75.670</ele>
        <time>2021-06-16T12:29:54Z</time>
      </trkpt>
      <trkpt lat="36.757433" lon="-3.861007">
        <ele>75.587</ele>
        <time>2021-06-16T12:29:55Z</time>
      </trkpt>
      <trkpt lat="36.757555" lon="-3.861352">
        <ele>74.842</ele>
        <time>2021-06-16T12:29:57Z</time>
      </trkpt>
      <trkpt lat="36.757596" lon="-3.861527">
        <ele>74.226</ele>
        <time>2021-06-16T12:29:58Z</time>
      </trkpt>
      <trkpt lat="36.757627" lon="-3.8617">
        <ele>73.808</ele>
        <time>2021-06-16T12:29:59Z</time>
      </trkpt>
      <trkpt lat="36.757687" lon="-3.862023">
        <ele>73.555</ele>
        <time>2021-06-16T12:30:01Z</time>
      </trkpt>
      <trkpt lat="36.757757" lon="-3.862315">
        <ele>73.023</ele>
        <time>2021-06-16T12:30:03Z</time>
      </trkpt>
      <trkpt lat="36.757796" lon="-3.862453">
        <ele>72.587</ele>
        <time>2021-06-16T12:30:04Z</time>
      </trkpt>
      <trkpt lat="36.75783" lon="-3.86259">
        <ele>72.036</ele>
        <time>2021-06-16T12:30:05Z</time>
      </trkpt>
      <trkpt lat="36.75788" lon="-3.862842">
        <ele>71.649</ele>
        <time>2021-06-16T12:30:07Z</time>
      </trkpt>
      <trkpt lat="36.757903" lon="-3.86296">
        <ele>71.296</ele>
        <time>2021-06-16T12:30:08Z</time>
      </trkpt>
      <trkpt lat="36.757959" lon="-3.86318">
        <ele>71.813</ele>
        <time>2021-06-16T12:30:10Z</time>
      </trkpt>
      <trkpt lat="36.758049" lon="-3.863352">
        <ele>72.213</ele>
        <time>2021-06-16T12:30:12Z</time>
      </trkpt>
      <trkpt lat="36.758101" lon="-3.86343">
        <ele>73.023</ele>
        <time>2021-06-16T12:30:13Z</time>
      </trkpt>
      <trkpt lat="36.758183" lon="-3.863602">
        <ele>73.783</ele>
        <time>2021-06-16T12:30:15Z</time>
      </trkpt>
      <trkpt lat="36.758185" lon="-3.863804">
        <ele>74.211</ele>
        <time>2021-06-16T12:30:17Z</time>
      </trkpt>
      <trkpt lat="36.758171" lon="-3.863909">
        <ele>74.108</ele>
        <time>2021-06-16T12:30:18Z</time>
      </trkpt>
      <trkpt lat="36.758157" lon="-3.86402">
        <ele>74.389</ele>
        <time>2021-06-16T12:30:19Z</time>
      </trkpt>
      <trkpt lat="36.758182" lon="-3.864247">
        <ele>74.627</ele>
        <time>2021-06-16T12:30:21Z</time>
      </trkpt>
      <trkpt lat="36.758252" lon="-3.864472">
        <ele>75.131</ele>
        <time>2021-06-16T12:30:23Z</time>
      </trkpt>
      <trkpt lat="36.758282" lon="-3.864591">
        <ele>75.330</ele>
        <time>2021-06-16T12:30:24Z</time>
      </trkpt>
      <trkpt lat="36.758311" lon="-3.864714">
        <ele>75.443</ele>
        <time>2021-06-16T12:30:25Z</time>
      </trkpt>
      <trkpt lat="36.758363" lon="-3.864966">
        <ele>75.950</ele>
        <time>2021-06-16T12:30:27Z</time>
      </trkpt>
      <trkpt lat="36.758394" lon="-3.8651">
        <ele>76.147</ele>
        <time>2021-06-16T12:30:28Z</time>
      </trkpt>
      <trkpt lat="36.758449" lon="-3.865378">
        <ele>77.777</ele>
        <time>2021-06-16T12:30:30Z</time>
      </trkpt>
      <trkpt lat="36.758475" lon="-3.865518">
        <ele>78.557</ele>
        <time>2021-06-16T12:30:31Z</time>
      </trkpt>
      <trkpt lat="36.758503" lon="-3.865659">
        <ele>79.500</ele>
        <time>2021-06-16T12:30:32Z</time>
      </trkpt>
      <trkpt lat="36.758557" lon="-3.865951">
        <ele>79.920</ele>
        <time>2021-06-16T12:30:34Z</time>
      </trkpt>
      <trkpt lat="36.758572" lon="-3.866099">
        <ele>79.808</ele>
        <time>2021-06-16T12:30:35Z</time>
      </trkpt>
      <trkpt lat="36.758584" lon="-3.866407">
        <ele>80.142</ele>
        <time>2021-06-16T12:30:37Z</time>
      </trkpt>
      <trkpt lat="36.758585" lon="-3.866561">
        <ele>80.180</ele>
        <time>2021-06-16T12:30:38Z</time>
      </trkpt>
      <trkpt lat="36.758582" lon="-3.866712">
        <ele>80.194</ele>
        <time>2021-06-16T12:30:39Z</time>
      </trkpt>
      <trkpt lat="36.758552" lon="-3.866996">
        <ele>80.053</ele>
        <time>2021-06-16T12:30:41Z</time>
      </trkpt>
      <trkpt lat="36.758521" lon="-3.867273">
        <ele>80.036</ele>
        <time>2021-06-16T12:30:43Z</time>
      </trkpt>
      <trkpt lat="36.758488" lon="-3.867525">
        <ele>80.133</ele>
        <time>2021-06-16T12:30:45Z</time>
      </trkpt>
      <trkpt lat="36.758467" lon="-3.867655">
        <ele>80.470</ele>
        <time>2021-06-16T12:30:46Z</time>
      </trkpt>
      <trkpt lat="36.758445" lon="-3.867782">
        <ele>80.630</ele>
        <time>2021-06-16T12:30:47Z</time>
      </trkpt>
      <trkpt lat="36.75842" lon="-3.867903">
        <ele>80.616</ele>
        <time>2021-06-16T12:30:48Z</time>
      </trkpt>
      <trkpt lat="36.758367" lon="-3.868139">
        <ele>80.776</ele>
        <time>2021-06-16T12:30:50Z</time>
      </trkpt>
      <trkpt lat="36.758316" lon="-3.868366">
        <ele>80.713</ele>
        <time>2021-06-16T12:30:52Z</time>
      </trkpt>
      <trkpt lat="36.758295" lon="-3.868472">
        <ele>80.708</ele>
        <time>2021-06-16T12:30:53Z</time>
      </trkpt>
      <trkpt lat="36.758288" lon="-3.868562">
        <ele>80.668</ele>
        <time>2021-06-16T12:30:54Z</time>
      </trkpt>
      <trkpt lat="36.758305" lon="-3.868709">
        <ele>80.696</ele>
        <time>2021-06-16T12:30:56Z</time>
      </trkpt>
      <trkpt lat="36.758324" lon="-3.868773">
        <ele>80.330</ele>
        <time>2021-06-16T12:30:57Z</time>
      </trkpt>
      <trkpt lat="36.758359" lon="-3.868885">
        <ele>80.099</ele>
        <time>2021-06-16T12:30:59Z</time>
      </trkpt>
      <trkpt lat="36.758369" lon="-3.868953">
        <ele>79.592</ele>
        <time>2021-06-16T12:31:00Z</time>
      </trkpt>
      <trkpt lat="36.758364" lon="-3.869032">
        <ele>78.949</ele>
        <time>2021-06-16T12:31:01Z</time>
      </trkpt>
      <trkpt lat="36.758342" lon="-3.869107">
        <ele>78.586</ele>
        <time>2021-06-16T12:31:02Z</time>
      </trkpt>
      <trkpt lat="36.758269" lon="-3.869225">
        <ele>77.946</ele>
        <time>2021-06-16T12:31:04Z</time>
      </trkpt>
      <trkpt lat="36.758234" lon="-3.869292">
        <ele>77.513</ele>
        <time>2021-06-16T12:31:05Z</time>
      </trkpt>
      <trkpt lat="36.758212" lon="-3.86937">
        <ele>77.143</ele>
        <time>2021-06-16T12:31:06Z</time>
      </trkpt>
      <trkpt lat="36.758202" lon="-3.869464">
        <ele>76.907</ele>
        <time>2021-06-16T12:31:07Z</time>
      </trkpt>
      <trkpt lat="36.75821" lon="-3.869683">
        <ele>77.108</ele>
        <time>2021-06-16T12:31:09Z</time>
      </trkpt>
      <trkpt lat="36.758238" lon="-3.869915">
        <ele>77.178</ele>
        <time>2021-06-16T12:31:11Z</time>
      </trkpt>
      <trkpt lat="36.758257" lon="-3.870027">
        <ele>77.086</ele>
        <time>2021-06-16T12:31:12Z</time>
      </trkpt>
      <trkpt lat="36.758302" lon="-3.870244">
        <ele>76.740</ele>
        <time>2021-06-16T12:31:14Z</time>
      </trkpt>
      <trkpt lat="36.758345" lon="-3.870474">
        <ele>76.119</ele>
        <time>2021-06-16T12:31:16Z</time>
      </trkpt>
      <trkpt lat="36.758362" lon="-3.870737">
        <ele>76.022</ele>
        <time>2021-06-16T12:31:18Z</time>
      </trkpt>
      <trkpt lat="36.758357" lon="-3.870879">
        <ele>76.019</ele>
        <time>2021-06-16T12:31:19Z</time>
      </trkpt>
      <trkpt lat="36.758338" lon="-3.871022">
        <ele>75.126</ele>
        <time>2021-06-16T12:31:20Z</time>
      </trkpt>
      <trkpt lat="36.758305" lon="-3.871164">
        <ele>74.386</ele>
        <time>2021-06-16T12:31:21Z</time>
      </trkpt>
      <trkpt lat="36.758262" lon="-3.871302">
        <ele>73.855</ele>
        <time>2021-06-16T12:31:22Z</time>
      </trkpt>
      <trkpt lat="36.758207" lon="-3.871436">
        <ele>73.207</ele>
        <time>2021-06-16T12:31:23Z</time>
      </trkpt>
      <trkpt lat="36.758061" lon="-3.871668">
        <ele>72.517</ele>
        <time>2021-06-16T12:31:25Z</time>
      </trkpt>
      <trkpt lat="36.757971" lon="-3.871767">
        <ele>72.008</ele>
        <time>2021-06-16T12:31:26Z</time>
      </trkpt>
      <trkpt lat="36.757773" lon="-3.87194">
        <ele>71.222</ele>
        <time>2021-06-16T12:31:28Z</time>
      </trkpt>
      <trkpt lat="36.757668" lon="-3.872017">
        <ele>70.250</ele>
        <time>2021-06-16T12:31:29Z</time>
      </trkpt>
      <trkpt lat="36.757563" lon="-3.872086">
        <ele>69.834</ele>
        <time>2021-06-16T12:31:30Z</time>
      </trkpt>
      <trkpt lat="36.757356" lon="-3.872229">
        <ele>69.383</ele>
        <time>2021-06-16T12:31:32Z</time>
      </trkpt>
      <trkpt lat="36.757161" lon="-3.872359">
        <ele>68.986</ele>
        <time>2021-06-16T12:31:34Z</time>
      </trkpt>
      <trkpt lat="36.757065" lon="-3.872425">
        <ele>68.413</ele>
        <time>2021-06-16T12:31:35Z</time>
      </trkpt>
      <trkpt lat="36.756912" lon="-3.87254">
        <ele>67.720</ele>
        <time>2021-06-16T12:31:37Z</time>
      </trkpt>
      <trkpt lat="36.756855" lon="-3.872593">
        <ele>67.590</ele>
        <time>2021-06-16T12:31:38Z</time>
      </trkpt>
      <trkpt lat="36.756768" lon="-3.872727">
        <ele>67.656</ele>
        <time>2021-06-16T12:31:40Z</time>
      </trkpt>
      <trkpt lat="36.756737" lon="-3.872804">
        <ele>67.559</ele>
        <time>2021-06-16T12:31:41Z</time>
      </trkpt>
      <trkpt lat="36.756661" lon="-3.87293">
        <ele>67.014</ele>
        <time>2021-06-16T12:31:43Z</time>
      </trkpt>
      <trkpt lat="36.756619" lon="-3.872966">
        <ele>66.608</ele>
        <time>2021-06-16T12:31:44Z</time>
      </trkpt>
      <trkpt lat="36.756568" lon="-3.872993">
        <ele>66.312</ele>
        <time>2021-06-16T12:31:45Z</time>
      </trkpt>
      <trkpt lat="36.756407" lon="-3.872994">
        <ele>66.480</ele>
        <time>2021-06-16T12:31:47Z</time>
      </trkpt>
      <trkpt lat="36.756241" lon="-3.873032">
        <ele>66.544</ele>
        <time>2021-06-16T12:31:49Z</time>
      </trkpt>
      <trkpt lat="36.756078" lon="-3.873128">
        <ele>66.093</ele>
        <time>2021-06-16T12:31:51Z</time>
      </trkpt>
      <trkpt lat="36.755909" lon="-3.873253">
        <ele>65.316</ele>
        <time>2021-06-16T12:31:53Z</time>
      </trkpt>
      <trkpt lat="36.755821" lon="-3.873319">
        <ele>64.833</ele>
        <time>2021-06-16T12:31:54Z</time>
      </trkpt>
      <trkpt lat="36.755647" lon="-3.873449">
        <ele>64.750</ele>
        <time>2021-06-16T12:31:56Z</time>
      </trkpt>
      <trkpt lat="36.755569" lon="-3.873506">
        <ele>64.720</ele>
        <time>2021-06-16T12:31:57Z</time>
      </trkpt>
      <trkpt lat="36.755426" lon="-3.873611">
        <ele>64.554</ele>
        <time>2021-06-16T12:31:59Z</time>
      </trkpt>
      <trkpt lat="36.755359" lon="-3.873665">
        <ele>64.156</ele>
        <time>2021-06-16T12:32:00Z</time>
      </trkpt>
      <trkpt lat="36.755253" lon="-3.873759">
        <ele>63.911</ele>
        <time>2021-06-16T12:32:02Z</time>
      </trkpt>
      <trkpt lat="36.755206" lon="-3.873793">
        <ele>63.808</ele>
        <time>2021-06-16T12:32:03Z</time>
      </trkpt>
      <trkpt lat="36.755125" lon="-3.873846">
        <ele>63.772</ele>
        <time>2021-06-16T12:32:05Z</time>
      </trkpt>
      <trkpt lat="36.755058" lon="-3.873891">
        <ele>63.450</ele>
        <time>2021-06-16T12:32:07Z</time>
      </trkpt>
      <trkpt lat="36.755017" lon="-3.873923">
        <ele>63.414</ele>
        <time>2021-06-16T12:32:08Z</time>
      </trkpt>
      <trkpt lat="36.754971" lon="-3.873958">
        <ele>63.263</ele>
        <time>2021-06-16T12:32:09Z</time>
      </trkpt>
      <trkpt lat="36.75487" lon="-3.874034">
        <ele>62.526</ele>
        <time>2021-06-16T12:32:11Z</time>
      </trkpt>
      <trkpt lat="36.754809" lon="-3.874081">
        <ele>61.583</ele>
        <time>2021-06-16T12:32:12Z</time>
      </trkpt>
      <trkpt lat="36.754674" lon="-3.874178">
        <ele>61.250</ele>
        <time>2021-06-16T12:32:14Z</time>
      </trkpt>
      <trkpt lat="36.754606" lon="-3.874229">
        <ele>60.810</ele>
        <time>2021-06-16T12:32:15Z</time>
      </trkpt>
      <trkpt lat="36.754462" lon="-3.874344">
        <ele>60.393</ele>
        <time>2021-06-16T12:32:17Z</time>
      </trkpt>
      <trkpt lat="36.754313" lon="-3.874461">
        <ele>59.665</ele>
        <time>2021-06-16T12:32:19Z</time>
      </trkpt>
      <trkpt lat="36.754159" lon="-3.874576">
        <ele>58.721</ele>
        <time>2021-06-16T12:32:21Z</time>
      </trkpt>
      <trkpt lat="36.754001" lon="-3.87469">
        <ele>58.408</ele>
        <time>2021-06-16T12:32:23Z</time>
      </trkpt>
      <trkpt lat="36.753844" lon="-3.874799">
        <ele>57.786</ele>
        <time>2021-06-16T12:32:25Z</time>
      </trkpt>
      <trkpt lat="36.7537" lon="-3.874906">
        <ele>56.984</ele>
        <time>2021-06-16T12:32:27Z</time>
      </trkpt>
      <trkpt lat="36.753637" lon="-3.874951">
        <ele>56.428</ele>
        <time>2021-06-16T12:32:28Z</time>
      </trkpt>
      <trkpt lat="36.75355" lon="-3.875022">
        <ele>56.097</ele>
        <time>2021-06-16T12:32:30Z</time>
      </trkpt>
      <trkpt lat="36.75351" lon="-3.875061">
        <ele>55.910</ele>
        <time>2021-06-16T12:32:32Z</time>
      </trkpt>
      <trkpt lat="36.753468" lon="-3.875113">
        <ele>55.787</ele>
        <time>2021-06-16T12:32:34Z</time>
      </trkpt>
      <trkpt lat="36.753405" lon="-3.875212">
        <ele>55.734</ele>
        <time>2021-06-16T12:32:36Z</time>
      </trkpt>
      <trkpt lat="36.753328" lon="-3.875315">
        <ele>55.474</ele>
        <time>2021-06-16T12:32:38Z</time>
      </trkpt>
      <trkpt lat="36.753235" lon="-3.87539">
        <ele>55.394</ele>
        <time>2021-06-16T12:32:40Z</time>
      </trkpt>
      <trkpt lat="36.753182" lon="-3.87541">
        <ele>55.557</ele>
        <time>2021-06-16T12:32:41Z</time>
      </trkpt>
      <trkpt lat="36.753085" lon="-3.875413">
        <ele>55.522</ele>
        <time>2021-06-16T12:32:43Z</time>
      </trkpt>
      <trkpt lat="36.753032" lon="-3.875413">
        <ele>55.508</ele>
        <time>2021-06-16T12:32:45Z</time>
      </trkpt>
      <trkpt lat="36.752957" lon="-3.875436">
        <ele>55.676</ele>
        <time>2021-06-16T12:32:47Z</time>
      </trkpt>
      <trkpt lat="36.752894" lon="-3.875468">
        <ele>55.034</ele>
        <time>2021-06-16T12:32:49Z</time>
      </trkpt>
      <trkpt lat="36.752812" lon="-3.875535">
        <ele>54.778</ele>
        <time>2021-06-16T12:32:51Z</time>
      </trkpt>
      <trkpt lat="36.752722" lon="-3.875602">
        <ele>54.567</ele>
        <time>2021-06-16T12:32:53Z</time>
      </trkpt>
      <trkpt lat="36.752674" lon="-3.875634">
        <ele>54.240</ele>
        <time>2021-06-16T12:32:55Z</time>
      </trkpt>
      <trkpt lat="36.752631" lon="-3.875669">
        <ele>54.047</ele>
        <time>2021-06-16T12:32:57Z</time>
      </trkpt>
      <trkpt lat="36.752593" lon="-3.875703">
        <ele>53.544</ele>
        <time>2021-06-16T12:33:03Z</time>
      </trkpt>
      <trkpt lat="36.752538" lon="-3.875746">
        <ele>53.124</ele>
        <time>2021-06-16T12:33:05Z</time>
      </trkpt>
      <trkpt lat="36.752492" lon="-3.875775">
        <ele>52.821</ele>
        <time>2021-06-16T12:33:06Z</time>
      </trkpt>
      <trkpt lat="36.752443" lon="-3.875808">
        <ele>52.641</ele>
        <time>2021-06-16T12:33:07Z</time>
      </trkpt>
      <trkpt lat="36.75239" lon="-3.875847">
        <ele>52.505</ele>
        <time>2021-06-16T12:33:08Z</time>
      </trkpt>
      <trkpt lat="36.752336" lon="-3.875887">
        <ele>52.508</ele>
        <time>2021-06-16T12:33:09Z</time>
      </trkpt>
      <trkpt lat="36.752209" lon="-3.875981">
        <ele>52.559</ele>
        <time>2021-06-16T12:33:11Z</time>
      </trkpt>
      <trkpt lat="36.752074" lon="-3.876085">
        <ele>52.567</ele>
        <time>2021-06-16T12:33:13Z</time>
      </trkpt>
      <trkpt lat="36.752005" lon="-3.876138">
        <ele>52.571</ele>
        <time>2021-06-16T12:33:14Z</time>
      </trkpt>
      <trkpt lat="36.751878" lon="-3.876248">
        <ele>52.560</ele>
        <time>2021-06-16T12:33:16Z</time>
      </trkpt>
      <trkpt lat="36.751752" lon="-3.876373">
        <ele>52.553</ele>
        <time>2021-06-16T12:33:18Z</time>
      </trkpt>
      <trkpt lat="36.751649" lon="-3.876503">
        <ele>52.520</ele>
        <time>2021-06-16T12:33:20Z</time>
      </trkpt>
      <trkpt lat="36.751595" lon="-3.876565">
        <ele>52.587</ele>
        <time>2021-06-16T12:33:22Z</time>
      </trkpt>
      <trkpt lat="36.751547" lon="-3.876598">
        <ele>52.517</ele>
        <time>2021-06-16T12:33:25Z</time>
      </trkpt>
      <trkpt lat="36.751503" lon="-3.876639">
        <ele>52.314</ele>
        <time>2021-06-16T12:33:27Z</time>
      </trkpt>
      <trkpt lat="36.751464" lon="-3.876683">
        <ele>52.254</ele>
        <time>2021-06-16T12:33:30Z</time>
      </trkpt>
      <trkpt lat="36.75145" lon="-3.87674">
        <ele>51.809</ele>
        <time>2021-06-16T12:33:33Z</time>
      </trkpt>
      <trkpt lat="36.751426" lon="-3.876801">
        <ele>51.508</ele>
        <time>2021-06-16T12:33:36Z</time>
      </trkpt>
      <trkpt lat="36.751405" lon="-3.876857">
        <ele>51.168</ele>
        <time>2021-06-16T12:33:38Z</time>
      </trkpt>
      <trkpt lat="36.751395" lon="-3.876918">
        <ele>50.846</ele>
        <time>2021-06-16T12:33:39Z</time>
      </trkpt>
      <trkpt lat="36.751351" lon="-3.877053">
        <ele>50.620</ele>
        <time>2021-06-16T12:33:41Z</time>
      </trkpt>
      <trkpt lat="36.751306" lon="-3.877112">
        <ele>50.529</ele>
        <time>2021-06-16T12:33:42Z</time>
      </trkpt>
      <trkpt lat="36.751206" lon="-3.877239">
        <ele>50.532</ele>
        <time>2021-06-16T12:33:44Z</time>
      </trkpt>
      <trkpt lat="36.751163" lon="-3.877312">
        <ele>50.539</ele>
        <time>2021-06-16T12:33:45Z</time>
      </trkpt>
      <trkpt lat="36.751101" lon="-3.877498">
        <ele>50.556</ele>
        <time>2021-06-16T12:33:47Z</time>
      </trkpt>
      <trkpt lat="36.751069" lon="-3.877604">
        <ele>50.586</ele>
        <time>2021-06-16T12:33:48Z</time>
      </trkpt>
      <trkpt lat="36.750997" lon="-3.877829">
        <ele>50.563</ele>
        <time>2021-06-16T12:33:50Z</time>
      </trkpt>
      <trkpt lat="36.750928" lon="-3.878051">
        <ele>50.544</ele>
        <time>2021-06-16T12:33:52Z</time>
      </trkpt>
      <trkpt lat="36.750892" lon="-3.87816">
        <ele>50.518</ele>
        <time>2021-06-16T12:33:53Z</time>
      </trkpt>
      <trkpt lat="36.750837" lon="-3.878332">
        <ele>50.508</ele>
        <time>2021-06-16T12:33:55Z</time>
      </trkpt>
      <trkpt lat="36.750819" lon="-3.878395">
        <ele>50.533</ele>
        <time>2021-06-16T12:33:56Z</time>
      </trkpt>
      <trkpt lat="36.750797" lon="-3.878471">
        <ele>50.561</ele>
        <time>2021-06-16T12:33:57Z</time>
      </trkpt>
      <trkpt lat="36.750769" lon="-3.878558">
        <ele>50.585</ele>
        <time>2021-06-16T12:33:58Z</time>
      </trkpt>
      <trkpt lat="36.750699" lon="-3.87876">
        <ele>50.514</ele>
        <time>2021-06-16T12:34:00Z</time>
      </trkpt>
      <trkpt lat="36.750663" lon="-3.878877">
        <ele>50.537</ele>
        <time>2021-06-16T12:34:01Z</time>
      </trkpt>
      <trkpt lat="36.750575" lon="-3.879149">
        <ele>50.554</ele>
        <time>2021-06-16T12:34:03Z</time>
      </trkpt>
      <trkpt lat="36.750479" lon="-3.879443">
        <ele>50.521</ele>
        <time>2021-06-16T12:34:05Z</time>
      </trkpt>
      <trkpt lat="36.750431" lon="-3.879591">
        <ele>50.541</ele>
        <time>2021-06-16T12:34:06Z</time>
      </trkpt>
      <trkpt lat="36.750383" lon="-3.879741">
        <ele>50.575</ele>
        <time>2021-06-16T12:34:07Z</time>
      </trkpt>
      <trkpt lat="36.750291" lon="-3.880035">
        <ele>50.528</ele>
        <time>2021-06-16T12:34:09Z</time>
      </trkpt>
      <trkpt lat="36.750202" lon="-3.880316">
        <ele>50.520</ele>
        <time>2021-06-16T12:34:11Z</time>
      </trkpt>
      <trkpt lat="36.750115" lon="-3.880601">
        <ele>50.508</ele>
        <time>2021-06-16T12:34:13Z</time>
      </trkpt>
      <trkpt lat="36.750068" lon="-3.880738">
        <ele>50.564</ele>
        <time>2021-06-16T12:34:14Z</time>
      </trkpt>
      <trkpt lat="36.750021" lon="-3.880874">
        <ele>50.562</ele>
        <time>2021-06-16T12:34:15Z</time>
      </trkpt>
      <trkpt lat="36.749932" lon="-3.881142">
        <ele>50.586</ele>
        <time>2021-06-16T12:34:17Z</time>
      </trkpt>
      <trkpt lat="36.749889" lon="-3.881277">
        <ele>50.585</ele>
        <time>2021-06-16T12:34:18Z</time>
      </trkpt>
      <trkpt lat="36.749802" lon="-3.881537">
        <ele>50.568</ele>
        <time>2021-06-16T12:34:20Z</time>
      </trkpt>
      <trkpt lat="36.749757" lon="-3.881665">
        <ele>50.575</ele>
        <time>2021-06-16T12:34:21Z</time>
      </trkpt>
      <trkpt lat="36.749708" lon="-3.881791">
        <ele>50.532</ele>
        <time>2021-06-16T12:34:22Z</time>
      </trkpt>
      <trkpt lat="36.749598" lon="-3.882016">
        <ele>50.562</ele>
        <time>2021-06-16T12:34:24Z</time>
      </trkpt>
      <trkpt lat="36.749504" lon="-3.882209">
        <ele>50.581</ele>
        <time>2021-06-16T12:34:26Z</time>
      </trkpt>
      <trkpt lat="36.749427" lon="-3.882377">
        <ele>50.561</ele>
        <time>2021-06-16T12:34:28Z</time>
      </trkpt>
      <trkpt lat="36.749396" lon="-3.882454">
        <ele>50.517</ele>
        <time>2021-06-16T12:34:29Z</time>
      </trkpt>
      <trkpt lat="36.749376" lon="-3.882516">
        <ele>50.508</ele>
        <time>2021-06-16T12:34:30Z</time>
      </trkpt>
      <trkpt lat="36.749381" lon="-3.882591">
        <ele>50.555</ele>
        <time>2021-06-16T12:34:32Z</time>
      </trkpt>
      <trkpt lat="36.749397" lon="-3.882663">
        <ele>50.583</ele>
        <time>2021-06-16T12:34:34Z</time>
      </trkpt>
      <trkpt lat="36.749418" lon="-3.882716">
        <ele>50.567</ele>
        <time>2021-06-16T12:34:35Z</time>
      </trkpt>
      <trkpt lat="36.749459" lon="-3.882775">
        <ele>50.516</ele>
        <time>2021-06-16T12:34:36Z</time>
      </trkpt>
      <trkpt lat="36.749518" lon="-3.882827">
        <ele>50.569</ele>
        <time>2021-06-16T12:34:37Z</time>
      </trkpt>
      <trkpt lat="36.749669" lon="-3.882897">
        <ele>46.586</ele>
        <time>2021-06-16T12:34:39Z</time>
      </trkpt>
      <trkpt lat="36.749753" lon="-3.882917">
        <ele>43.713</ele>
        <time>2021-06-16T12:34:40Z</time>
      </trkpt>
      <trkpt lat="36.749928" lon="-3.882944">
        <ele>42.263</ele>
        <time>2021-06-16T12:34:42Z</time>
      </trkpt>
      <trkpt lat="36.750126" lon="-3.882972">
        <ele>42.083</ele>
        <time>2021-06-16T12:34:44Z</time>
      </trkpt>
      <trkpt lat="36.750331" lon="-3.882986">
        <ele>42.325</ele>
        <time>2021-06-16T12:34:46Z</time>
      </trkpt>
      <trkpt lat="36.75044" lon="-3.882992">
        <ele>42.917</ele>
        <time>2021-06-16T12:34:47Z</time>
      </trkpt>
      <trkpt lat="36.750553" lon="-3.882993">
        <ele>44.108</ele>
        <time>2021-06-16T12:34:48Z</time>
      </trkpt>
      <trkpt lat="36.750788" lon="-3.88299">
        <ele>45.175</ele>
        <time>2021-06-16T12:34:50Z</time>
      </trkpt>
      <trkpt lat="36.750906" lon="-3.882983">
        <ele>45.923</ele>
        <time>2021-06-16T12:34:51Z</time>
      </trkpt>
      <trkpt lat="36.751023" lon="-3.882979">
        <ele>46.647</ele>
        <time>2021-06-16T12:34:52Z</time>
      </trkpt>
      <trkpt lat="36.751138" lon="-3.88298">
        <ele>46.966</ele>
        <time>2021-06-16T12:34:53Z</time>
      </trkpt>
      <trkpt lat="36.75137" lon="-3.882987">
        <ele>47.389</ele>
        <time>2021-06-16T12:34:55Z</time>
      </trkpt>
      <trkpt lat="36.751483" lon="-3.882992">
        <ele>48.226</ele>
        <time>2021-06-16T12:34:56Z</time>
      </trkpt>
      <trkpt lat="36.751596" lon="-3.883001">
        <ele>49.263</ele>
        <time>2021-06-16T12:34:57Z</time>
      </trkpt>
      <trkpt lat="36.751829" lon="-3.883021">
        <ele>49.853</ele>
        <time>2021-06-16T12:34:59Z</time>
      </trkpt>
      <trkpt lat="36.752068" lon="-3.883066">
        <ele>50.774</ele>
        <time>2021-06-16T12:35:01Z</time>
      </trkpt>
      <trkpt lat="36.752188" lon="-3.883095">
        <ele>51.856</ele>
        <time>2021-06-16T12:35:02Z</time>
      </trkpt>
      <trkpt lat="36.752417" lon="-3.883167">
        <ele>53.521</ele>
        <time>2021-06-16T12:35:04Z</time>
      </trkpt>
      <trkpt lat="36.752534" lon="-3.883201">
        <ele>54.808</ele>
        <time>2021-06-16T12:35:05Z</time>
      </trkpt>
      <trkpt lat="36.75277" lon="-3.883283">
        <ele>56.344</ele>
        <time>2021-06-16T12:35:07Z</time>
      </trkpt>
      <trkpt lat="36.752885" lon="-3.883321">
        <ele>57.452</ele>
        <time>2021-06-16T12:35:08Z</time>
      </trkpt>
      <trkpt lat="36.75311" lon="-3.883412">
        <ele>58.316</ele>
        <time>2021-06-16T12:35:10Z</time>
      </trkpt>
      <trkpt lat="36.75333" lon="-3.88352">
        <ele>59.055</ele>
        <time>2021-06-16T12:35:12Z</time>
      </trkpt>
      <trkpt lat="36.753538" lon="-3.883636">
        <ele>60.148</ele>
        <time>2021-06-16T12:35:14Z</time>
      </trkpt>
      <trkpt lat="36.753636" lon="-3.883695">
        <ele>60.845</ele>
        <time>2021-06-16T12:35:15Z</time>
      </trkpt>
      <trkpt lat="36.753829" lon="-3.88382">
        <ele>61.692</ele>
        <time>2021-06-16T12:35:17Z</time>
      </trkpt>
      <trkpt lat="36.753923" lon="-3.883883">
        <ele>62.232</ele>
        <time>2021-06-16T12:35:18Z</time>
      </trkpt>
      <trkpt lat="36.754009" lon="-3.883945">
        <ele>62.592</ele>
        <time>2021-06-16T12:35:19Z</time>
      </trkpt>
      <trkpt lat="36.754087" lon="-3.884014">
        <ele>63.073</ele>
        <time>2021-06-16T12:35:20Z</time>
      </trkpt>
      <trkpt lat="36.754247" lon="-3.884128">
        <ele>63.520</ele>
        <time>2021-06-16T12:35:22Z</time>
      </trkpt>
      <trkpt lat="36.754328" lon="-3.884173">
        <ele>64.008</ele>
        <time>2021-06-16T12:35:23Z</time>
      </trkpt>
      <trkpt lat="36.754407" lon="-3.884206">
        <ele>64.246</ele>
        <time>2021-06-16T12:35:24Z</time>
      </trkpt>
      <trkpt lat="36.754478" lon="-3.884236">
        <ele>64.364</ele>
        <time>2021-06-16T12:35:25Z</time>
      </trkpt>
      <trkpt lat="36.75453" lon="-3.884282">
        <ele>64.578</ele>
        <time>2021-06-16T12:35:26Z</time>
      </trkpt>
      <trkpt lat="36.754581" lon="-3.884407">
        <ele>64.377</ele>
        <time>2021-06-16T12:35:28Z</time>
      </trkpt>
      <trkpt lat="36.754514" lon="-3.884508">
        <ele>63.890</ele>
        <time>2021-06-16T12:35:30Z</time>
      </trkpt>
      <trkpt lat="36.754471" lon="-3.884525">
        <ele>63.697</ele>
        <time>2021-06-16T12:35:31Z</time>
      </trkpt>
      <trkpt lat="36.754371" lon="-3.884545">
        <ele>63.864</ele>
        <time>2021-06-16T12:35:33Z</time>
      </trkpt>
      <trkpt lat="36.754319" lon="-3.884556">
        <ele>63.774</ele>
        <time>2021-06-16T12:35:34Z</time>
      </trkpt>
      <trkpt lat="36.754266" lon="-3.884578">
        <ele>63.778</ele>
        <time>2021-06-16T12:35:35Z</time>
      </trkpt>
      <trkpt lat="36.754216" lon="-3.884611">
        <ele>63.733</ele>
        <time>2021-06-16T12:35:36Z</time>
      </trkpt>
      <trkpt lat="36.754169" lon="-3.884651">
        <ele>63.826</ele>
        <time>2021-06-16T12:35:37Z</time>
      </trkpt>
      <trkpt lat="36.754095" lon="-3.884725">
        <ele>64.608</ele>
        <time>2021-06-16T12:35:39Z</time>
      </trkpt>
      <trkpt lat="36.754119" lon="-3.884788">
        <ele>65.124</ele>
        <time>2021-06-16T12:35:41Z</time>
      </trkpt>
      <trkpt lat="36.75417" lon="-3.884819">
        <ele>65.622</ele>
        <time>2021-06-16T12:35:43Z</time>
      </trkpt>
      <trkpt lat="36.754209" lon="-3.884768">
        <ele>65.896</ele>
        <time>2021-06-16T12:35:45Z</time>
      </trkpt>
      <trkpt lat="36.754227" lon="-3.884704">
        <ele>65.415</ele>
        <time>2021-06-16T12:35:47Z</time>
      </trkpt>
      <trkpt lat="36.75426" lon="-3.884664">
        <ele>65.238</ele>
        <time>2021-06-16T12:35:50Z</time>
      </trkpt>
      <trkpt lat="36.754295" lon="-3.884627">
        <ele>64.425</ele>
        <time>2021-06-16T12:36:33Z</time>
      </trkpt>
      <trkpt lat="36.754267" lon="-3.884671">
        <ele>64.212</ele>
        <time>2021-06-16T12:41:31Z</time>
      </trkpt>
      <trkpt lat="36.754237" lon="-3.884726">
        <ele>65.522</ele>
        <time>2021-06-16T12:47:08Z</time>
      </trkpt>
      <trkpt lat="36.754282" lon="-3.884716">
        <ele>65.226</ele>
        <time>2021-06-16T12:49:24Z</time>
      </trkpt>
      <trkpt lat="36.754234" lon="-3.884707">
        <ele>64.247</ele>
        <time>2021-06-16T12:50:57Z</time>
      </trkpt>
      <trkpt lat="36.754213" lon="-3.884757">
        <ele>64.411</ele>
        <time>2021-06-16T12:52:23Z</time>
      </trkpt>
      <trkpt lat="36.75426" lon="-3.884764">
        <ele>64.508</ele>
        <time>2021-06-16T12:52:33Z</time>
      </trkpt>
      <trkpt lat="36.754303" lon="-3.884793">
        <ele>64.569</ele>
        <time>2021-06-16T12:52:39Z</time>
      </trkpt>
      <trkpt lat="36.754278" lon="-3.884746">
        <ele>64.487</ele>
        <time>2021-06-16T12:56:25Z</time>
      </trkpt>
      <trkpt lat="36.754303" lon="-3.884793">
        <ele>63.951</ele>
        <time>2021-06-16T12:57:10Z</time>
      </trkpt>
      <trkpt lat="36.754347" lon="-3.884819">
        <ele>64.260</ele>
        <time>2021-06-16T13:00:56Z</time>
      </trkpt>
      <trkpt lat="36.754359" lon="-3.884874">
        <ele>64.213</ele>
        <time>2021-06-16T13:02:37Z</time>
      </trkpt>
      <trkpt lat="36.754368" lon="-3.884818">
        <ele>64.160</ele>
        <time>2021-06-16T13:03:16Z</time>
      </trkpt>
      <trkpt lat="36.754401" lon="-3.884857">
        <ele>64.187</ele>
        <time>2021-06-16T13:03:27Z</time>
      </trkpt>
      <trkpt lat="36.754301" lon="-3.884648">
        <ele>114.827</ele>
        <time>2021-06-16T13:36:26Z</time>
      </trkpt>
      <trkpt lat="36.75433" lon="-3.884701">
        <ele>97.784</ele>
        <time>2021-06-16T13:38:35Z</time>
      </trkpt>
      <trkpt lat="36.754293" lon="-3.884748">
        <ele>80.207</ele>
        <time>2021-06-16T13:38:37Z</time>
      </trkpt>
      <trkpt lat="36.754223" lon="-3.884791">
        <ele>64.417</ele>
        <time>2021-06-16T13:38:39Z</time>
      </trkpt>
      <trkpt lat="36.754149" lon="-3.884817">
        <ele>64.508</ele>
        <time>2021-06-16T13:38:41Z</time>
      </trkpt>
      <trkpt lat="36.754093" lon="-3.88481">
        <ele>64.575</ele>
        <time>2021-06-16T13:38:43Z</time>
      </trkpt>
      <trkpt lat="36.75408" lon="-3.884735">
        <ele>65.483</ele>
        <time>2021-06-16T13:38:46Z</time>
      </trkpt>
      <trkpt lat="36.754123" lon="-3.88464">
        <ele>65.237</ele>
        <time>2021-06-16T13:38:48Z</time>
      </trkpt>
      <trkpt lat="36.754167" lon="-3.88459">
        <ele>65.396</ele>
        <time>2021-06-16T13:38:49Z</time>
      </trkpt>
      <trkpt lat="36.754249" lon="-3.884507">
        <ele>65.039</ele>
        <time>2021-06-16T13:38:51Z</time>
      </trkpt>
      <trkpt lat="36.754281" lon="-3.884453">
        <ele>65.146</ele>
        <time>2021-06-16T13:38:52Z</time>
      </trkpt>
      <trkpt lat="36.754283" lon="-3.884336">
        <ele>65.363</ele>
        <time>2021-06-16T13:38:54Z</time>
      </trkpt>
      <trkpt lat="36.75425" lon="-3.884269">
        <ele>65.663</ele>
        <time>2021-06-16T13:38:55Z</time>
      </trkpt>
      <trkpt lat="36.754203" lon="-3.884203">
        <ele>65.445</ele>
        <time>2021-06-16T13:38:56Z</time>
      </trkpt>
      <trkpt lat="36.754074" lon="-3.884073">
        <ele>65.747</ele>
        <time>2021-06-16T13:38:58Z</time>
      </trkpt>
      <trkpt lat="36.753893" lon="-3.883942">
        <ele>65.511</ele>
        <time>2021-06-16T13:39:00Z</time>
      </trkpt>
      <trkpt lat="36.753794" lon="-3.883879">
        <ele>65.308</ele>
        <time>2021-06-16T13:39:01Z</time>
      </trkpt>
      <trkpt lat="36.753598" lon="-3.883757">
        <ele>65.141</ele>
        <time>2021-06-16T13:39:03Z</time>
      </trkpt>
      <trkpt lat="36.753391" lon="-3.883641">
        <ele>65.029</ele>
        <time>2021-06-16T13:39:05Z</time>
      </trkpt>
      <trkpt lat="36.753183" lon="-3.883532">
        <ele>64.653</ele>
        <time>2021-06-16T13:39:07Z</time>
      </trkpt>
      <trkpt lat="36.753076" lon="-3.883481">
        <ele>64.252</ele>
        <time>2021-06-16T13:39:08Z</time>
      </trkpt>
      <trkpt lat="36.75297" lon="-3.883431">
        <ele>63.695</ele>
        <time>2021-06-16T13:39:09Z</time>
      </trkpt>
      <trkpt lat="36.752862" lon="-3.883389">
        <ele>62.672</ele>
        <time>2021-06-16T13:39:10Z</time>
      </trkpt>
      <trkpt lat="36.752755" lon="-3.883345">
        <ele>61.769</ele>
        <time>2021-06-16T13:39:11Z</time>
      </trkpt>
      <trkpt lat="36.752549" lon="-3.883264">
        <ele>61.019</ele>
        <time>2021-06-16T13:39:13Z</time>
      </trkpt>
      <trkpt lat="36.75233" lon="-3.883195">
        <ele>60.079</ele>
        <time>2021-06-16T13:39:15Z</time>
      </trkpt>
      <trkpt lat="36.752101" lon="-3.883138">
        <ele>58.805</ele>
        <time>2021-06-16T13:39:17Z</time>
      </trkpt>
      <trkpt lat="36.751984" lon="-3.883115">
        <ele>57.625</ele>
        <time>2021-06-16T13:39:18Z</time>
      </trkpt>
      <trkpt lat="36.751866" lon="-3.883096">
        <ele>57.008</ele>
        <time>2021-06-16T13:39:19Z</time>
      </trkpt>
      <trkpt lat="36.751632" lon="-3.883064">
        <ele>55.934</ele>
        <time>2021-06-16T13:39:21Z</time>
      </trkpt>
      <trkpt lat="36.751515" lon="-3.883052">
        <ele>55.172</ele>
        <time>2021-06-16T13:39:22Z</time>
      </trkpt>
      <trkpt lat="36.75128" lon="-3.883034">
        <ele>54.016</ele>
        <time>2021-06-16T13:39:24Z</time>
      </trkpt>
      <trkpt lat="36.751162" lon="-3.883028">
        <ele>52.835</ele>
        <time>2021-06-16T13:39:25Z</time>
      </trkpt>
      <trkpt lat="36.750931" lon="-3.88303">
        <ele>51.118</ele>
        <time>2021-06-16T13:39:27Z</time>
      </trkpt>
      <trkpt lat="36.750702" lon="-3.883045">
        <ele>49.455</ele>
        <time>2021-06-16T13:39:29Z</time>
      </trkpt>
      <trkpt lat="36.750467" lon="-3.883066">
        <ele>47.562</ele>
        <time>2021-06-16T13:39:31Z</time>
      </trkpt>
      <trkpt lat="36.750349" lon="-3.88307">
        <ele>45.642</ele>
        <time>2021-06-16T13:39:32Z</time>
      </trkpt>
      <trkpt lat="36.750126" lon="-3.883057">
        <ele>43.537</ele>
        <time>2021-06-16T13:39:34Z</time>
      </trkpt>
      <trkpt lat="36.750025" lon="-3.883042">
        <ele>42.149</ele>
        <time>2021-06-16T13:39:35Z</time>
      </trkpt>
      <trkpt lat="36.749926" lon="-3.883023">
        <ele>41.113</ele>
        <time>2021-06-16T13:39:36Z</time>
      </trkpt>
      <trkpt lat="36.749746" lon="-3.882983">
        <ele>40.308</ele>
        <time>2021-06-16T13:39:38Z</time>
      </trkpt>
      <trkpt lat="36.749664" lon="-3.882971">
        <ele>40.190</ele>
        <time>2021-06-16T13:39:39Z</time>
      </trkpt>
      <trkpt lat="36.749541" lon="-3.88297">
        <ele>39.538</ele>
        <time>2021-06-16T13:39:41Z</time>
      </trkpt>
      <trkpt lat="36.749481" lon="-3.882983">
        <ele>39.052</ele>
        <time>2021-06-16T13:39:43Z</time>
      </trkpt>
      <trkpt lat="36.749423" lon="-3.883">
        <ele>38.791</ele>
        <time>2021-06-16T13:39:53Z</time>
      </trkpt>
      <trkpt lat="36.749325" lon="-3.883044">
        <ele>38.594</ele>
        <time>2021-06-16T13:39:55Z</time>
      </trkpt>
      <trkpt lat="36.749161" lon="-3.88314">
        <ele>38.421</ele>
        <time>2021-06-16T13:39:57Z</time>
      </trkpt>
      <trkpt lat="36.749083" lon="-3.883217">
        <ele>38.338</ele>
        <time>2021-06-16T13:39:58Z</time>
      </trkpt>
      <trkpt lat="36.74896" lon="-3.883418">
        <ele>38.338</ele>
        <time>2021-06-16T13:40:00Z</time>
      </trkpt>
      <trkpt lat="36.748835" lon="-3.883645">
        <ele>38.317</ele>
        <time>2021-06-16T13:40:02Z</time>
      </trkpt>
      <trkpt lat="36.74869" lon="-3.883899">
        <ele>38.387</ele>
        <time>2021-06-16T13:40:04Z</time>
      </trkpt>
      <trkpt lat="36.748609" lon="-3.884034">
        <ele>38.315</ele>
        <time>2021-06-16T13:40:05Z</time>
      </trkpt>
      <trkpt lat="36.748525" lon="-3.884174">
        <ele>38.308</ele>
        <time>2021-06-16T13:40:06Z</time>
      </trkpt>
      <trkpt lat="36.748356" lon="-3.88446">
        <ele>38.378</ele>
        <time>2021-06-16T13:40:08Z</time>
      </trkpt>
      <trkpt lat="36.748189" lon="-3.884752">
        <ele>38.366</ele>
        <time>2021-06-16T13:40:10Z</time>
      </trkpt>
      <trkpt lat="36.74803" lon="-3.88505">
        <ele>38.320</ele>
        <time>2021-06-16T13:40:12Z</time>
      </trkpt>
      <trkpt lat="36.747883" lon="-3.885345">
        <ele>38.349</ele>
        <time>2021-06-16T13:40:14Z</time>
      </trkpt>
      <trkpt lat="36.747756" lon="-3.885647">
        <ele>38.392</ele>
        <time>2021-06-16T13:40:16Z</time>
      </trkpt>
      <trkpt lat="36.747702" lon="-3.8858">
        <ele>38.329</ele>
        <time>2021-06-16T13:40:17Z</time>
      </trkpt>
      <trkpt lat="36.747602" lon="-3.886108">
        <ele>38.396</ele>
        <time>2021-06-16T13:40:19Z</time>
      </trkpt>
      <trkpt lat="36.747555" lon="-3.886262">
        <ele>38.356</ele>
        <time>2021-06-16T13:40:20Z</time>
      </trkpt>
      <trkpt lat="36.747475" lon="-3.886562">
        <ele>38.348</ele>
        <time>2021-06-16T13:40:22Z</time>
      </trkpt>
      <trkpt lat="36.747402" lon="-3.886859">
        <ele>38.361</ele>
        <time>2021-06-16T13:40:24Z</time>
      </trkpt>
      <trkpt lat="36.747345" lon="-3.887153">
        <ele>38.317</ele>
        <time>2021-06-16T13:40:26Z</time>
      </trkpt>
      <trkpt lat="36.747301" lon="-3.887436">
        <ele>38.308</ele>
        <time>2021-06-16T13:40:28Z</time>
      </trkpt>
      <trkpt lat="36.747256" lon="-3.887705">
        <ele>38.331</ele>
        <time>2021-06-16T13:40:30Z</time>
      </trkpt>
      <trkpt lat="36.747232" lon="-3.887848">
        <ele>38.379</ele>
        <time>2021-06-16T13:40:31Z</time>
      </trkpt>
      <trkpt lat="36.747182" lon="-3.888141">
        <ele>38.363</ele>
        <time>2021-06-16T13:40:33Z</time>
      </trkpt>
      <trkpt lat="36.747158" lon="-3.888291">
        <ele>38.382</ele>
        <time>2021-06-16T13:40:34Z</time>
      </trkpt>
      <trkpt lat="36.747109" lon="-3.888599">
        <ele>38.395</ele>
        <time>2021-06-16T13:40:36Z</time>
      </trkpt>
      <trkpt lat="36.747062" lon="-3.888915">
        <ele>38.382</ele>
        <time>2021-06-16T13:40:38Z</time>
      </trkpt>
      <trkpt lat="36.747039" lon="-3.889075">
        <ele>38.349</ele>
        <time>2021-06-16T13:40:39Z</time>
      </trkpt>
      <trkpt lat="36.747017" lon="-3.889237">
        <ele>38.339</ele>
        <time>2021-06-16T13:40:40Z</time>
      </trkpt>
      <trkpt lat="36.74699" lon="-3.889404">
        <ele>38.331</ele>
        <time>2021-06-16T13:40:41Z</time>
      </trkpt>
      <trkpt lat="36.746961" lon="-3.889573">
        <ele>38.361</ele>
        <time>2021-06-16T13:40:42Z</time>
      </trkpt>
      <trkpt lat="36.746932" lon="-3.889742">
        <ele>38.307</ele>
        <time>2021-06-16T13:40:43Z</time>
      </trkpt>
      <trkpt lat="36.74687" lon="-3.890084">
        <ele>34.308</ele>
        <time>2021-06-16T13:40:45Z</time>
      </trkpt>
      <trkpt lat="36.746839" lon="-3.89026">
        <ele>30.310</ele>
        <time>2021-06-16T13:40:46Z</time>
      </trkpt>
      <trkpt lat="36.746781" lon="-3.890614">
        <ele>26.478</ele>
        <time>2021-06-16T13:40:48Z</time>
      </trkpt>
      <trkpt lat="36.74672" lon="-3.890974">
        <ele>23.872</ele>
        <time>2021-06-16T13:40:50Z</time>
      </trkpt>
      <trkpt lat="36.746654" lon="-3.89134">
        <ele>21.971</ele>
        <time>2021-06-16T13:40:52Z</time>
      </trkpt>
      <trkpt lat="36.746623" lon="-3.891527">
        <ele>20.674</ele>
        <time>2021-06-16T13:40:53Z</time>
      </trkpt>
      <trkpt lat="36.74657" lon="-3.891898">
        <ele>19.751</ele>
        <time>2021-06-16T13:40:55Z</time>
      </trkpt>
      <trkpt lat="36.746513" lon="-3.892255">
        <ele>19.078</ele>
        <time>2021-06-16T13:40:57Z</time>
      </trkpt>
      <trkpt lat="36.746458" lon="-3.89259">
        <ele>18.288</ele>
        <time>2021-06-16T13:40:59Z</time>
      </trkpt>
      <trkpt lat="36.746431" lon="-3.892755">
        <ele>17.577</ele>
        <time>2021-06-16T13:41:00Z</time>
      </trkpt>
      <trkpt lat="36.746405" lon="-3.892918">
        <ele>17.061</ele>
        <time>2021-06-16T13:41:01Z</time>
      </trkpt>
      <trkpt lat="36.746354" lon="-3.89323">
        <ele>16.227</ele>
        <time>2021-06-16T13:41:03Z</time>
      </trkpt>
      <trkpt lat="36.746305" lon="-3.893529">
        <ele>15.408</ele>
        <time>2021-06-16T13:41:05Z</time>
      </trkpt>
      <trkpt lat="36.746283" lon="-3.893676">
        <ele>15.064</ele>
        <time>2021-06-16T13:41:06Z</time>
      </trkpt>
      <trkpt lat="36.746239" lon="-3.893963">
        <ele>14.632</ele>
        <time>2021-06-16T13:41:08Z</time>
      </trkpt>
      <trkpt lat="36.746214" lon="-3.894104">
        <ele>14.386</ele>
        <time>2021-06-16T13:41:09Z</time>
      </trkpt>
      <trkpt lat="36.746169" lon="-3.894389">
        <ele>14.045</ele>
        <time>2021-06-16T13:41:11Z</time>
      </trkpt>
      <trkpt lat="36.746113" lon="-3.894699">
        <ele>13.468</ele>
        <time>2021-06-16T13:41:13Z</time>
      </trkpt>
      <trkpt lat="36.746057" lon="-3.89501">
        <ele>12.725</ele>
        <time>2021-06-16T13:41:15Z</time>
      </trkpt>
      <trkpt lat="36.746026" lon="-3.895174">
        <ele>12.112</ele>
        <time>2021-06-16T13:41:16Z</time>
      </trkpt>
      <trkpt lat="36.745999" lon="-3.895343">
        <ele>11.822</ele>
        <time>2021-06-16T13:41:17Z</time>
      </trkpt>
      <trkpt lat="36.745942" lon="-3.895688">
        <ele>11.347</ele>
        <time>2021-06-16T13:41:19Z</time>
      </trkpt>
      <trkpt lat="36.745913" lon="-3.895863">
        <ele>11.029</ele>
        <time>2021-06-16T13:41:20Z</time>
      </trkpt>
      <trkpt lat="36.745854" lon="-3.896218">
        <ele>10.521</ele>
        <time>2021-06-16T13:41:22Z</time>
      </trkpt>
      <trkpt lat="36.745825" lon="-3.896393">
        <ele>10.008</ele>
        <time>2021-06-16T13:41:23Z</time>
      </trkpt>
      <trkpt lat="36.745796" lon="-3.896568">
        <ele>9.381</ele>
        <time>2021-06-16T13:41:24Z</time>
      </trkpt>
      <trkpt lat="36.745737" lon="-3.896909">
        <ele>8.879</ele>
        <time>2021-06-16T13:41:26Z</time>
      </trkpt>
      <trkpt lat="36.745707" lon="-3.897071">
        <ele>8.333</ele>
        <time>2021-06-16T13:41:27Z</time>
      </trkpt>
      <trkpt lat="36.745648" lon="-3.897376">
        <ele>8.152</ele>
        <time>2021-06-16T13:41:29Z</time>
      </trkpt>
      <trkpt lat="36.7456" lon="-3.897666">
        <ele>8.295</ele>
        <time>2021-06-16T13:41:31Z</time>
      </trkpt>
      <trkpt lat="36.745555" lon="-3.897963">
        <ele>8.042</ele>
        <time>2021-06-16T13:41:33Z</time>
      </trkpt>
      <trkpt lat="36.74553" lon="-3.89811">
        <ele>7.969</ele>
        <time>2021-06-16T13:41:34Z</time>
      </trkpt>
      <trkpt lat="36.745479" lon="-3.898397">
        <ele>7.929</ele>
        <time>2021-06-16T13:41:36Z</time>
      </trkpt>
      <trkpt lat="36.745455" lon="-3.898541">
        <ele>8.295</ele>
        <time>2021-06-16T13:41:37Z</time>
      </trkpt>
      <trkpt lat="36.745404" lon="-3.898832">
        <ele>8.449</ele>
        <time>2021-06-16T13:41:39Z</time>
      </trkpt>
      <trkpt lat="36.74538" lon="-3.898979">
        <ele>8.623</ele>
        <time>2021-06-16T13:41:40Z</time>
      </trkpt>
      <trkpt lat="36.745358" lon="-3.899126">
        <ele>8.808</ele>
        <time>2021-06-16T13:41:41Z</time>
      </trkpt>
      <trkpt lat="36.745336" lon="-3.899275">
        <ele>8.796</ele>
        <time>2021-06-16T13:41:42Z</time>
      </trkpt>
      <trkpt lat="36.745288" lon="-3.899572">
        <ele>9.054</ele>
        <time>2021-06-16T13:41:44Z</time>
      </trkpt>
      <trkpt lat="36.745265" lon="-3.899721">
        <ele>9.338</ele>
        <time>2021-06-16T13:41:45Z</time>
      </trkpt>
      <trkpt lat="36.745218" lon="-3.900016">
        <ele>9.167</ele>
        <time>2021-06-16T13:41:47Z</time>
      </trkpt>
      <trkpt lat="36.745191" lon="-3.900168">
        <ele>9.250</ele>
        <time>2021-06-16T13:41:48Z</time>
      </trkpt>
      <trkpt lat="36.745166" lon="-3.900316">
        <ele>9.287</ele>
        <time>2021-06-16T13:41:49Z</time>
      </trkpt>
      <trkpt lat="36.74512" lon="-3.900592">
        <ele>9.474</ele>
        <time>2021-06-16T13:41:51Z</time>
      </trkpt>
      <trkpt lat="36.745097" lon="-3.900721">
        <ele>9.444</ele>
        <time>2021-06-16T13:41:52Z</time>
      </trkpt>
      <trkpt lat="36.745059" lon="-3.90098">
        <ele>10.333</ele>
        <time>2021-06-16T13:41:54Z</time>
      </trkpt>
      <trkpt lat="36.74502" lon="-3.901244">
        <ele>10.823</ele>
        <time>2021-06-16T13:41:56Z</time>
      </trkpt>
      <trkpt lat="36.744976" lon="-3.901509">
        <ele>11.115</ele>
        <time>2021-06-16T13:41:58Z</time>
      </trkpt>
      <trkpt lat="36.744932" lon="-3.901779">
        <ele>11.508</ele>
        <time>2021-06-16T13:42:00Z</time>
      </trkpt>
      <trkpt lat="36.74489" lon="-3.902049">
        <ele>11.830</ele>
        <time>2021-06-16T13:42:02Z</time>
      </trkpt>
      <trkpt lat="36.744841" lon="-3.902326">
        <ele>12.358</ele>
        <time>2021-06-16T13:42:04Z</time>
      </trkpt>
      <trkpt lat="36.744784" lon="-3.902617">
        <ele>12.772</ele>
        <time>2021-06-16T13:42:06Z</time>
      </trkpt>
      <trkpt lat="36.744758" lon="-3.902768">
        <ele>13.181</ele>
        <time>2021-06-16T13:42:07Z</time>
      </trkpt>
      <trkpt lat="36.744701" lon="-3.903066">
        <ele>13.584</ele>
        <time>2021-06-16T13:42:09Z</time>
      </trkpt>
      <trkpt lat="36.744612" lon="-3.903324">
        <ele>14.171</ele>
        <time>2021-06-16T13:42:11Z</time>
      </trkpt>
      <trkpt lat="36.744489" lon="-3.90351">
        <ele>14.878</ele>
        <time>2021-06-16T13:42:13Z</time>
      </trkpt>
      <trkpt lat="36.744429" lon="-3.903585">
        <ele>15.618</ele>
        <time>2021-06-16T13:42:14Z</time>
      </trkpt>
      <trkpt lat="36.744328" lon="-3.903735">
        <ele>16.541</ele>
        <time>2021-06-16T13:42:16Z</time>
      </trkpt>
      <trkpt lat="36.744224" lon="-3.90389">
        <ele>17.081</ele>
        <time>2021-06-16T13:42:18Z</time>
      </trkpt>
      <trkpt lat="36.74415" lon="-3.903947">
        <ele>17.009</ele>
        <time>2021-06-16T13:42:19Z</time>
      </trkpt>
      <trkpt lat="36.743972" lon="-3.904063">
        <ele>17.408</ele>
        <time>2021-06-16T13:42:21Z</time>
      </trkpt>
      <trkpt lat="36.743886" lon="-3.904148">
        <ele>17.781</ele>
        <time>2021-06-16T13:42:22Z</time>
      </trkpt>
      <trkpt lat="36.743734" lon="-3.904364">
        <ele>18.529</ele>
        <time>2021-06-16T13:42:24Z</time>
      </trkpt>
      <trkpt lat="36.743604" lon="-3.904613">
        <ele>19.653</ele>
        <time>2021-06-16T13:42:26Z</time>
      </trkpt>
      <trkpt lat="36.7435" lon="-3.904895">
        <ele>20.792</ele>
        <time>2021-06-16T13:42:28Z</time>
      </trkpt>
      <trkpt lat="36.743461" lon="-3.90505">
        <ele>21.585</ele>
        <time>2021-06-16T13:42:29Z</time>
      </trkpt>
      <trkpt lat="36.743436" lon="-3.905219">
        <ele>22.012</ele>
        <time>2021-06-16T13:42:30Z</time>
      </trkpt>
      <trkpt lat="36.743426" lon="-3.905575">
        <ele>23.089</ele>
        <time>2021-06-16T13:42:32Z</time>
      </trkpt>
      <trkpt lat="36.743443" lon="-3.905754">
        <ele>23.729</ele>
        <time>2021-06-16T13:42:33Z</time>
      </trkpt>
      <trkpt lat="36.743496" lon="-3.906087">
        <ele>24.265</ele>
        <time>2021-06-16T13:42:35Z</time>
      </trkpt>
      <trkpt lat="36.743519" lon="-3.906248">
        <ele>24.468</ele>
        <time>2021-06-16T13:42:36Z</time>
      </trkpt>
      <trkpt lat="36.743539" lon="-3.906409">
        <ele>24.514</ele>
        <time>2021-06-16T13:42:37Z</time>
      </trkpt>
      <trkpt lat="36.743532" lon="-3.906723">
        <ele>24.608</ele>
        <time>2021-06-16T13:42:39Z</time>
      </trkpt>
      <trkpt lat="36.74351" lon="-3.906868">
        <ele>24.653</ele>
        <time>2021-06-16T13:42:40Z</time>
      </trkpt>
      <trkpt lat="36.74345" lon="-3.907111">
        <ele>24.691</ele>
        <time>2021-06-16T13:42:42Z</time>
      </trkpt>
      <trkpt lat="36.743418" lon="-3.907218">
        <ele>24.695</ele>
        <time>2021-06-16T13:42:43Z</time>
      </trkpt>
      <trkpt lat="36.743392" lon="-3.90743">
        <ele>24.444</ele>
        <time>2021-06-16T13:42:45Z</time>
      </trkpt>
      <trkpt lat="36.743413" lon="-3.90763">
        <ele>24.337</ele>
        <time>2021-06-16T13:42:47Z</time>
      </trkpt>
      <trkpt lat="36.743427" lon="-3.907725">
        <ele>24.114</ele>
        <time>2021-06-16T13:42:48Z</time>
      </trkpt>
      <trkpt lat="36.743408" lon="-3.907922">
        <ele>23.861</ele>
        <time>2021-06-16T13:42:50Z</time>
      </trkpt>
      <trkpt lat="36.743307" lon="-3.908116">
        <ele>23.641</ele>
        <time>2021-06-16T13:42:52Z</time>
      </trkpt>
      <trkpt lat="36.743238" lon="-3.908216">
        <ele>23.651</ele>
        <time>2021-06-16T13:42:53Z</time>
      </trkpt>
      <trkpt lat="36.743102" lon="-3.908439">
        <ele>23.401</ele>
        <time>2021-06-16T13:42:55Z</time>
      </trkpt>
      <trkpt lat="36.743042" lon="-3.908565">
        <ele>23.011</ele>
        <time>2021-06-16T13:42:56Z</time>
      </trkpt>
      <trkpt lat="36.742946" lon="-3.908839">
        <ele>22.708</ele>
        <time>2021-06-16T13:42:58Z</time>
      </trkpt>
      <trkpt lat="36.742907" lon="-3.908978">
        <ele>22.522</ele>
        <time>2021-06-16T13:42:59Z</time>
      </trkpt>
      <trkpt lat="36.742877" lon="-3.909124">
        <ele>22.180</ele>
        <time>2021-06-16T13:43:00Z</time>
      </trkpt>
      <trkpt lat="36.742852" lon="-3.909275">
        <ele>22.524</ele>
        <time>2021-06-16T13:43:01Z</time>
      </trkpt>
      <trkpt lat="36.742832" lon="-3.909585">
        <ele>22.163</ele>
        <time>2021-06-16T13:43:03Z</time>
      </trkpt>
      <trkpt lat="36.742834" lon="-3.909744">
        <ele>21.316</ele>
        <time>2021-06-16T13:43:04Z</time>
      </trkpt>
      <trkpt lat="36.742853" lon="-3.910063">
        <ele>20.263</ele>
        <time>2021-06-16T13:43:06Z</time>
      </trkpt>
      <trkpt lat="36.742871" lon="-3.910226">
        <ele>19.490</ele>
        <time>2021-06-16T13:43:07Z</time>
      </trkpt>
      <trkpt lat="36.742908" lon="-3.910556">
        <ele>18.770</ele>
        <time>2021-06-16T13:43:09Z</time>
      </trkpt>
      <trkpt lat="36.742946" lon="-3.910877">
        <ele>18.455</ele>
        <time>2021-06-16T13:43:11Z</time>
      </trkpt>
      <trkpt lat="36.742978" lon="-3.911191">
        <ele>17.707</ele>
        <time>2021-06-16T13:43:13Z</time>
      </trkpt>
      <trkpt lat="36.743003" lon="-3.911512">
        <ele>16.717</ele>
        <time>2021-06-16T13:43:15Z</time>
      </trkpt>
      <trkpt lat="36.74304" lon="-3.91182">
        <ele>16.208</ele>
        <time>2021-06-16T13:43:17Z</time>
      </trkpt>
      <trkpt lat="36.743052" lon="-3.911972">
        <ele>16.122</ele>
        <time>2021-06-16T13:43:18Z</time>
      </trkpt>
      <trkpt lat="36.743036" lon="-3.912271">
        <ele>14.780</ele>
        <time>2021-06-16T13:43:20Z</time>
      </trkpt>
      <trkpt lat="36.743019" lon="-3.91242">
        <ele>13.874</ele>
        <time>2021-06-16T13:43:21Z</time>
      </trkpt>
      <trkpt lat="36.742994" lon="-3.912566">
        <ele>12.443</ele>
        <time>2021-06-16T13:43:22Z</time>
      </trkpt>
      <trkpt lat="36.742919" lon="-3.91285">
        <ele>11.456</ele>
        <time>2021-06-16T13:43:24Z</time>
      </trkpt>
      <trkpt lat="36.742868" lon="-3.912992">
        <ele>10.833</ele>
        <time>2021-06-16T13:43:25Z</time>
      </trkpt>
      <trkpt lat="36.742749" lon="-3.913269">
        <ele>10.430</ele>
        <time>2021-06-16T13:43:27Z</time>
      </trkpt>
      <trkpt lat="36.742594" lon="-3.913518">
        <ele>10.150</ele>
        <time>2021-06-16T13:43:29Z</time>
      </trkpt>
      <trkpt lat="36.742426" lon="-3.913749">
        <ele>10.016</ele>
        <time>2021-06-16T13:43:31Z</time>
      </trkpt>
      <trkpt lat="36.742344" lon="-3.913865">
        <ele>10.276</ele>
        <time>2021-06-16T13:43:32Z</time>
      </trkpt>
      <trkpt lat="36.742193" lon="-3.914099">
        <ele>9.913</ele>
        <time>2021-06-16T13:43:34Z</time>
      </trkpt>
      <trkpt lat="36.742054" lon="-3.914325">
        <ele>9.708</ele>
        <time>2021-06-16T13:43:36Z</time>
      </trkpt>
      <trkpt lat="36.741929" lon="-3.914578">
        <ele>9.878</ele>
        <time>2021-06-16T13:43:38Z</time>
      </trkpt>
      <trkpt lat="36.74187" lon="-3.914717">
        <ele>9.986</ele>
        <time>2021-06-16T13:43:39Z</time>
      </trkpt>
      <trkpt lat="36.741812" lon="-3.914865">
        <ele>9.850</ele>
        <time>2021-06-16T13:43:40Z</time>
      </trkpt>
      <trkpt lat="36.741701" lon="-3.915185">
        <ele>9.499</ele>
        <time>2021-06-16T13:43:42Z</time>
      </trkpt>
      <trkpt lat="36.7416" lon="-3.915491">
        <ele>9.142</ele>
        <time>2021-06-16T13:43:44Z</time>
      </trkpt>
      <trkpt lat="36.741551" lon="-3.91563">
        <ele>9.019</ele>
        <time>2021-06-16T13:43:45Z</time>
      </trkpt>
      <trkpt lat="36.741462" lon="-3.915895">
        <ele>8.626</ele>
        <time>2021-06-16T13:43:47Z</time>
      </trkpt>
      <trkpt lat="36.741419" lon="-3.916033">
        <ele>8.726</ele>
        <time>2021-06-16T13:43:48Z</time>
      </trkpt>
      <trkpt lat="36.741344" lon="-3.916329">
        <ele>8.653</ele>
        <time>2021-06-16T13:43:50Z</time>
      </trkpt>
      <trkpt lat="36.741297" lon="-3.916639">
        <ele>8.704</ele>
        <time>2021-06-16T13:43:52Z</time>
      </trkpt>
      <trkpt lat="36.741283" lon="-3.916793">
        <ele>8.614</ele>
        <time>2021-06-16T13:43:53Z</time>
      </trkpt>
      <trkpt lat="36.741268" lon="-3.917098">
        <ele>8.708</ele>
        <time>2021-06-16T13:43:55Z</time>
      </trkpt>
      <trkpt lat="36.74125" lon="-3.9174">
        <ele>9.482</ele>
        <time>2021-06-16T13:43:57Z</time>
      </trkpt>
      <trkpt lat="36.741242" lon="-3.917549">
        <ele>9.840</ele>
        <time>2021-06-16T13:43:58Z</time>
      </trkpt>
      <trkpt lat="36.741222" lon="-3.917843">
        <ele>10.524</ele>
        <time>2021-06-16T13:44:00Z</time>
      </trkpt>
      <trkpt lat="36.741204" lon="-3.918146">
        <ele>10.383</ele>
        <time>2021-06-16T13:44:02Z</time>
      </trkpt>
      <trkpt lat="36.741193" lon="-3.9183">
        <ele>10.456</ele>
        <time>2021-06-16T13:44:03Z</time>
      </trkpt>
      <trkpt lat="36.741184" lon="-3.918453">
        <ele>10.823</ele>
        <time>2021-06-16T13:44:04Z</time>
      </trkpt>
      <trkpt lat="36.74116" lon="-3.918755">
        <ele>11.230</ele>
        <time>2021-06-16T13:44:06Z</time>
      </trkpt>
      <trkpt lat="36.741142" lon="-3.919052">
        <ele>11.320</ele>
        <time>2021-06-16T13:44:08Z</time>
      </trkpt>
      <trkpt lat="36.741134" lon="-3.919202">
        <ele>11.526</ele>
        <time>2021-06-16T13:44:09Z</time>
      </trkpt>
      <trkpt lat="36.741117" lon="-3.919503">
        <ele>11.447</ele>
        <time>2021-06-16T13:44:11Z</time>
      </trkpt>
      <trkpt lat="36.741095" lon="-3.919811">
        <ele>11.511</ele>
        <time>2021-06-16T13:44:13Z</time>
      </trkpt>
      <trkpt lat="36.741074" lon="-3.920123">
        <ele>11.308</ele>
        <time>2021-06-16T13:44:15Z</time>
      </trkpt>
      <trkpt lat="36.741053" lon="-3.920437">
        <ele>11.589</ele>
        <time>2021-06-16T13:44:17Z</time>
      </trkpt>
      <trkpt lat="36.741006" lon="-3.920801">
        <ele>11.347</ele>
        <time>2021-06-16T13:44:19Z</time>
      </trkpt>
      <trkpt lat="36.740936" lon="-3.921235">
        <ele>11.551</ele>
        <time>2021-06-16T13:44:21Z</time>
      </trkpt>
      <trkpt lat="36.740832" lon="-3.921644">
        <ele>11.580</ele>
        <time>2021-06-16T13:44:23Z</time>
      </trkpt>
      <trkpt lat="36.740677" lon="-3.922011">
        <ele>11.183</ele>
        <time>2021-06-16T13:44:25Z</time>
      </trkpt>
      <trkpt lat="36.7405" lon="-3.922357">
        <ele>11.390</ele>
        <time>2021-06-16T13:44:27Z</time>
      </trkpt>
      <trkpt lat="36.740406" lon="-3.922528">
        <ele>11.457</ele>
        <time>2021-06-16T13:44:28Z</time>
      </trkpt>
      <trkpt lat="36.740309" lon="-3.922699">
        <ele>11.497</ele>
        <time>2021-06-16T13:44:29Z</time>
      </trkpt>
      <trkpt lat="36.740211" lon="-3.922873">
        <ele>11.413</ele>
        <time>2021-06-16T13:44:30Z</time>
      </trkpt>
      <trkpt lat="36.740018" lon="-3.923223">
        <ele>11.743</ele>
        <time>2021-06-16T13:44:32Z</time>
      </trkpt>
      <trkpt lat="36.739923" lon="-3.923401">
        <ele>11.907</ele>
        <time>2021-06-16T13:44:33Z</time>
      </trkpt>
      <trkpt lat="36.739827" lon="-3.923576">
        <ele>12.208</ele>
        <time>2021-06-16T13:44:34Z</time>
      </trkpt>
      <trkpt lat="36.739637" lon="-3.923925">
        <ele>12.358</ele>
        <time>2021-06-16T13:44:36Z</time>
      </trkpt>
      <trkpt lat="36.739543" lon="-3.924104">
        <ele>12.416</ele>
        <time>2021-06-16T13:44:37Z</time>
      </trkpt>
      <trkpt lat="36.739359" lon="-3.924452">
        <ele>12.680</ele>
        <time>2021-06-16T13:44:39Z</time>
      </trkpt>
      <trkpt lat="36.739268" lon="-3.924625">
        <ele>12.869</ele>
        <time>2021-06-16T13:44:40Z</time>
      </trkpt>
      <trkpt lat="36.739077" lon="-3.924955">
        <ele>12.972</ele>
        <time>2021-06-16T13:44:42Z</time>
      </trkpt>
      <trkpt lat="36.73887" lon="-3.92527">
        <ele>13.939</ele>
        <time>2021-06-16T13:44:44Z</time>
      </trkpt>
      <trkpt lat="36.738758" lon="-3.925418">
        <ele>14.626</ele>
        <time>2021-06-16T13:44:45Z</time>
      </trkpt>
      <trkpt lat="36.738639" lon="-3.925557">
        <ele>14.696</ele>
        <time>2021-06-16T13:44:46Z</time>
      </trkpt>
      <trkpt lat="36.738391" lon="-3.925811">
        <ele>14.875</ele>
        <time>2021-06-16T13:44:48Z</time>
      </trkpt>
      <trkpt lat="36.738118" lon="-3.92603">
        <ele>15.028</ele>
        <time>2021-06-16T13:44:50Z</time>
      </trkpt>
      <trkpt lat="36.737978" lon="-3.926133">
        <ele>15.220</ele>
        <time>2021-06-16T13:44:51Z</time>
      </trkpt>
      <trkpt lat="36.737834" lon="-3.926235">
        <ele>15.108</ele>
        <time>2021-06-16T13:44:52Z</time>
      </trkpt>
      <trkpt lat="36.737697" lon="-3.926353">
        <ele>15.094</ele>
        <time>2021-06-16T13:44:53Z</time>
      </trkpt>
      <trkpt lat="36.737479" lon="-3.926658">
        <ele>14.732</ele>
        <time>2021-06-16T13:44:55Z</time>
      </trkpt>
      <trkpt lat="36.737399" lon="-3.926843">
        <ele>15.056</ele>
        <time>2021-06-16T13:44:56Z</time>
      </trkpt>
      <trkpt lat="36.73734" lon="-3.927041">
        <ele>15.215</ele>
        <time>2021-06-16T13:44:57Z</time>
      </trkpt>
      <trkpt lat="36.737282" lon="-3.927462">
        <ele>14.928</ele>
        <time>2021-06-16T13:44:59Z</time>
      </trkpt>
      <trkpt lat="36.737258" lon="-3.927894">
        <ele>15.165</ele>
        <time>2021-06-16T13:45:01Z</time>
      </trkpt>
      <trkpt lat="36.737236" lon="-3.928109">
        <ele>15.132</ele>
        <time>2021-06-16T13:45:02Z</time>
      </trkpt>
      <trkpt lat="36.737207" lon="-3.928323">
        <ele>15.222</ele>
        <time>2021-06-16T13:45:03Z</time>
      </trkpt>
      <trkpt lat="36.737099" lon="-3.928744">
        <ele>14.859</ele>
        <time>2021-06-16T13:45:05Z</time>
      </trkpt>
      <trkpt lat="36.737022" lon="-3.92895">
        <ele>14.403</ele>
        <time>2021-06-16T13:45:06Z</time>
      </trkpt>
      <trkpt lat="36.736858" lon="-3.92936">
        <ele>14.323</ele>
        <time>2021-06-16T13:45:08Z</time>
      </trkpt>
      <trkpt lat="36.736731" lon="-3.929785">
        <ele>13.808</ele>
        <time>2021-06-16T13:45:10Z</time>
      </trkpt>
      <trkpt lat="36.736679" lon="-3.930003">
        <ele>13.422</ele>
        <time>2021-06-16T13:45:11Z</time>
      </trkpt>
      <trkpt lat="36.736638" lon="-3.930225">
        <ele>12.730</ele>
        <time>2021-06-16T13:45:12Z</time>
      </trkpt>
      <trkpt lat="36.736603" lon="-3.930449">
        <ele>12.284</ele>
        <time>2021-06-16T13:45:13Z</time>
      </trkpt>
      <trkpt lat="36.736537" lon="-3.930887">
        <ele>11.633</ele>
        <time>2021-06-16T13:45:15Z</time>
      </trkpt>
      <trkpt lat="36.736496" lon="-3.931101">
        <ele>11.296</ele>
        <time>2021-06-16T13:45:16Z</time>
      </trkpt>
      <trkpt lat="36.73639" lon="-3.931514">
        <ele>10.853</ele>
        <time>2021-06-16T13:45:18Z</time>
      </trkpt>
      <trkpt lat="36.736324" lon="-3.931705">
        <ele>10.530</ele>
        <time>2021-06-16T13:45:19Z</time>
      </trkpt>
      <trkpt lat="36.736248" lon="-3.931879">
        <ele>10.470</ele>
        <time>2021-06-16T13:45:20Z</time>
      </trkpt>
      <trkpt lat="36.736103" lon="-3.932165">
        <ele>10.645</ele>
        <time>2021-06-16T13:45:22Z</time>
      </trkpt>
      <trkpt lat="36.736035" lon="-3.932288">
        <ele>10.847</ele>
        <time>2021-06-16T13:45:23Z</time>
      </trkpt>
      <trkpt lat="36.735905" lon="-3.932521">
        <ele>10.711</ele>
        <time>2021-06-16T13:45:25Z</time>
      </trkpt>
      <trkpt lat="36.735841" lon="-3.932638">
        <ele>10.908</ele>
        <time>2021-06-16T13:45:26Z</time>
      </trkpt>
      <trkpt lat="36.735776" lon="-3.932758">
        <ele>11.291</ele>
        <time>2021-06-16T13:45:27Z</time>
      </trkpt>
      <trkpt lat="36.735641" lon="-3.933002">
        <ele>11.399</ele>
        <time>2021-06-16T13:45:29Z</time>
      </trkpt>
      <trkpt lat="36.735574" lon="-3.933125">
        <ele>11.553</ele>
        <time>2021-06-16T13:45:30Z</time>
      </trkpt>
      <trkpt lat="36.735513" lon="-3.933249">
        <ele>11.772</ele>
        <time>2021-06-16T13:45:31Z</time>
      </trkpt>
      <trkpt lat="36.735406" lon="-3.933509">
        <ele>11.525</ele>
        <time>2021-06-16T13:45:33Z</time>
      </trkpt>
      <trkpt lat="36.735337" lon="-3.933806">
        <ele>11.542</ele>
        <time>2021-06-16T13:45:35Z</time>
      </trkpt>
      <trkpt lat="36.735318" lon="-3.933958">
        <ele>11.499</ele>
        <time>2021-06-16T13:45:36Z</time>
      </trkpt>
      <trkpt lat="36.735251" lon="-3.934241">
        <ele>11.559</ele>
        <time>2021-06-16T13:45:38Z</time>
      </trkpt>
      <trkpt lat="36.735098" lon="-3.934495">
        <ele>11.367</ele>
        <time>2021-06-16T13:45:40Z</time>
      </trkpt>
      <trkpt lat="36.734942" lon="-3.934773">
        <ele>11.181</ele>
        <time>2021-06-16T13:45:42Z</time>
      </trkpt>
      <trkpt lat="36.734879" lon="-3.934934">
        <ele>10.619</ele>
        <time>2021-06-16T13:45:43Z</time>
      </trkpt>
      <trkpt lat="36.734823" lon="-3.935105">
        <ele>10.708</ele>
        <time>2021-06-16T13:45:44Z</time>
      </trkpt>
      <trkpt lat="36.734724" lon="-3.935457">
        <ele>10.963</ele>
        <time>2021-06-16T13:45:46Z</time>
      </trkpt>
      <trkpt lat="36.734681" lon="-3.935634">
        <ele>10.681</ele>
        <time>2021-06-16T13:45:47Z</time>
      </trkpt>
      <trkpt lat="36.7346" lon="-3.93597">
        <ele>10.445</ele>
        <time>2021-06-16T13:45:49Z</time>
      </trkpt>
      <trkpt lat="36.73456" lon="-3.936133">
        <ele>9.974</ele>
        <time>2021-06-16T13:45:50Z</time>
      </trkpt>
      <trkpt lat="36.734517" lon="-3.936292">
        <ele>9.717</ele>
        <time>2021-06-16T13:45:51Z</time>
      </trkpt>
      <trkpt lat="36.734421" lon="-3.9366">
        <ele>9.274</ele>
        <time>2021-06-16T13:45:53Z</time>
      </trkpt>
      <trkpt lat="36.734366" lon="-3.936753">
        <ele>8.931</ele>
        <time>2021-06-16T13:45:54Z</time>
      </trkpt>
      <trkpt lat="36.734309" lon="-3.936904">
        <ele>8.751</ele>
        <time>2021-06-16T13:45:55Z</time>
      </trkpt>
      <trkpt lat="36.734249" lon="-3.937052">
        <ele>8.487</ele>
        <time>2021-06-16T13:45:56Z</time>
      </trkpt>
      <trkpt lat="36.734193" lon="-3.937196">
        <ele>8.042</ele>
        <time>2021-06-16T13:45:57Z</time>
      </trkpt>
      <trkpt lat="36.734097" lon="-3.937445">
        <ele>7.626</ele>
        <time>2021-06-16T13:45:59Z</time>
      </trkpt>
      <trkpt lat="36.734059" lon="-3.937547">
        <ele>7.708</ele>
        <time>2021-06-16T13:46:00Z</time>
      </trkpt>
      <trkpt lat="36.734024" lon="-3.937641">
        <ele>7.635</ele>
        <time>2021-06-16T13:46:01Z</time>
      </trkpt>
      <trkpt lat="36.733952" lon="-3.937834">
        <ele>7.273</ele>
        <time>2021-06-16T13:46:03Z</time>
      </trkpt>
      <trkpt lat="36.733915" lon="-3.937944">
        <ele>7.357</ele>
        <time>2021-06-16T13:46:04Z</time>
      </trkpt>
      <trkpt lat="36.733837" lon="-3.938183">
        <ele>7.496</ele>
        <time>2021-06-16T13:46:06Z</time>
      </trkpt>
      <trkpt lat="36.733757" lon="-3.93843">
        <ele>7.619</ele>
        <time>2021-06-16T13:46:08Z</time>
      </trkpt>
      <trkpt lat="36.733717" lon="-3.938556">
        <ele>7.496</ele>
        <time>2021-06-16T13:46:09Z</time>
      </trkpt>
      <trkpt lat="36.733637" lon="-3.938808">
        <ele>7.063</ele>
        <time>2021-06-16T13:46:11Z</time>
      </trkpt>
      <trkpt lat="36.733559" lon="-3.939067">
        <ele>6.913</ele>
        <time>2021-06-16T13:46:13Z</time>
      </trkpt>
      <trkpt lat="36.73348" lon="-3.939339">
        <ele>7.033</ele>
        <time>2021-06-16T13:46:15Z</time>
      </trkpt>
      <trkpt lat="36.733397" lon="-3.939618">
        <ele>7.323</ele>
        <time>2021-06-16T13:46:17Z</time>
      </trkpt>
      <trkpt lat="36.733351" lon="-3.93976">
        <ele>7.315</ele>
        <time>2021-06-16T13:46:18Z</time>
      </trkpt>
      <trkpt lat="36.733258" lon="-3.940043">
        <ele>7.308</ele>
        <time>2021-06-16T13:46:20Z</time>
      </trkpt>
      <trkpt lat="36.733213" lon="-3.940184">
        <ele>6.920</ele>
        <time>2021-06-16T13:46:21Z</time>
      </trkpt>
      <trkpt lat="36.733171" lon="-3.940324">
        <ele>6.828</ele>
        <time>2021-06-16T13:46:22Z</time>
      </trkpt>
      <trkpt lat="36.733085" lon="-3.940602">
        <ele>6.692</ele>
        <time>2021-06-16T13:46:24Z</time>
      </trkpt>
      <trkpt lat="36.733043" lon="-3.940738">
        <ele>6.641</ele>
        <time>2021-06-16T13:46:25Z</time>
      </trkpt>
      <trkpt lat="36.732965" lon="-3.941005">
        <ele>6.234</ele>
        <time>2021-06-16T13:46:27Z</time>
      </trkpt>
      <trkpt lat="36.732884" lon="-3.941269">
        <ele>5.511</ele>
        <time>2021-06-16T13:46:29Z</time>
      </trkpt>
      <trkpt lat="36.732845" lon="-3.941402">
        <ele>4.978</ele>
        <time>2021-06-16T13:46:30Z</time>
      </trkpt>
      <trkpt lat="36.732764" lon="-3.94167">
        <ele>4.438</ele>
        <time>2021-06-16T13:46:32Z</time>
      </trkpt>
      <trkpt lat="36.732679" lon="-3.941949">
        <ele>4.585</ele>
        <time>2021-06-16T13:46:34Z</time>
      </trkpt>
      <trkpt lat="36.732636" lon="-3.94209">
        <ele>4.389</ele>
        <time>2021-06-16T13:46:35Z</time>
      </trkpt>
      <trkpt lat="36.73255" lon="-3.942377">
        <ele>4.517</ele>
        <time>2021-06-16T13:46:37Z</time>
      </trkpt>
      <trkpt lat="36.732506" lon="-3.942524">
        <ele>4.908</ele>
        <time>2021-06-16T13:46:38Z</time>
      </trkpt>
      <trkpt lat="36.732462" lon="-3.942668">
        <ele>5.125</ele>
        <time>2021-06-16T13:46:39Z</time>
      </trkpt>
      <trkpt lat="36.732376" lon="-3.942953">
        <ele>5.133</ele>
        <time>2021-06-16T13:46:41Z</time>
      </trkpt>
      <trkpt lat="36.732336" lon="-3.943095">
        <ele>5.457</ele>
        <time>2021-06-16T13:46:42Z</time>
      </trkpt>
      <trkpt lat="36.732258" lon="-3.943381">
        <ele>5.566</ele>
        <time>2021-06-16T13:46:44Z</time>
      </trkpt>
      <trkpt lat="36.732215" lon="-3.943528">
        <ele>5.289</ele>
        <time>2021-06-16T13:46:45Z</time>
      </trkpt>
      <trkpt lat="36.73214" lon="-3.943803">
        <ele>5.486</ele>
        <time>2021-06-16T13:46:47Z</time>
      </trkpt>
      <trkpt lat="36.732068" lon="-3.944065">
        <ele>6.063</ele>
        <time>2021-06-16T13:46:49Z</time>
      </trkpt>
      <trkpt lat="36.732" lon="-3.944309">
        <ele>6.183</ele>
        <time>2021-06-16T13:46:51Z</time>
      </trkpt>
      <trkpt lat="36.731941" lon="-3.944518">
        <ele>6.611</ele>
        <time>2021-06-16T13:46:53Z</time>
      </trkpt>
      <trkpt lat="36.731885" lon="-3.944719">
        <ele>6.721</ele>
        <time>2021-06-16T13:46:55Z</time>
      </trkpt>
      <trkpt lat="36.731827" lon="-3.944945">
        <ele>7.003</ele>
        <time>2021-06-16T13:46:57Z</time>
      </trkpt>
      <trkpt lat="36.731788" lon="-3.94508">
        <ele>7.008</ele>
        <time>2021-06-16T13:46:58Z</time>
      </trkpt>
      <trkpt lat="36.731745" lon="-3.945227">
        <ele>6.848</ele>
        <time>2021-06-16T13:46:59Z</time>
      </trkpt>
      <trkpt lat="36.731703" lon="-3.945377">
        <ele>6.846</ele>
        <time>2021-06-16T13:47:00Z</time>
      </trkpt>
      <trkpt lat="36.731666" lon="-3.94553">
        <ele>6.980</ele>
        <time>2021-06-16T13:47:01Z</time>
      </trkpt>
      <trkpt lat="36.731632" lon="-3.945683">
        <ele>6.749</ele>
        <time>2021-06-16T13:47:02Z</time>
      </trkpt>
      <trkpt lat="36.731598" lon="-3.94583">
        <ele>6.572</ele>
        <time>2021-06-16T13:47:03Z</time>
      </trkpt>
      <trkpt lat="36.731525" lon="-3.946117">
        <ele>6.349</ele>
        <time>2021-06-16T13:47:05Z</time>
      </trkpt>
      <trkpt lat="36.731488" lon="-3.946266">
        <ele>6.136</ele>
        <time>2021-06-16T13:47:06Z</time>
      </trkpt>
      <trkpt lat="36.731409" lon="-3.946576">
        <ele>5.496</ele>
        <time>2021-06-16T13:47:08Z</time>
      </trkpt>
      <trkpt lat="36.731365" lon="-3.946737">
        <ele>5.247</ele>
        <time>2021-06-16T13:47:09Z</time>
      </trkpt>
      <trkpt lat="36.731278" lon="-3.947054">
        <ele>5.229</ele>
        <time>2021-06-16T13:47:11Z</time>
      </trkpt>
      <trkpt lat="36.731232" lon="-3.947216">
        <ele>5.121</ele>
        <time>2021-06-16T13:47:12Z</time>
      </trkpt>
      <trkpt lat="36.731188" lon="-3.947378">
        <ele>5.208</ele>
        <time>2021-06-16T13:47:13Z</time>
      </trkpt>
      <trkpt lat="36.731096" lon="-3.947712">
        <ele>5.121</ele>
        <time>2021-06-16T13:47:15Z</time>
      </trkpt>
      <trkpt lat="36.731005" lon="-3.948053">
        <ele>4.749</ele>
        <time>2021-06-16T13:47:17Z</time>
      </trkpt>
      <trkpt lat="36.730962" lon="-3.948223">
        <ele>4.843</ele>
        <time>2021-06-16T13:47:18Z</time>
      </trkpt>
      <trkpt lat="36.73087" lon="-3.948561">
        <ele>5.292</ele>
        <time>2021-06-16T13:47:20Z</time>
      </trkpt>
      <trkpt lat="36.730777" lon="-3.948894">
        <ele>5.625</ele>
        <time>2021-06-16T13:47:22Z</time>
      </trkpt>
      <trkpt lat="36.73073" lon="-3.949057">
        <ele>5.982</ele>
        <time>2021-06-16T13:47:23Z</time>
      </trkpt>
      <trkpt lat="36.730687" lon="-3.949222">
        <ele>6.149</ele>
        <time>2021-06-16T13:47:24Z</time>
      </trkpt>
      <trkpt lat="36.730645" lon="-3.949387">
        <ele>6.319</ele>
        <time>2021-06-16T13:47:25Z</time>
      </trkpt>
      <trkpt lat="36.730604" lon="-3.949551">
        <ele>6.362</ele>
        <time>2021-06-16T13:47:26Z</time>
      </trkpt>
      <trkpt lat="36.730514" lon="-3.949882">
        <ele>6.683</ele>
        <time>2021-06-16T13:47:28Z</time>
      </trkpt>
      <trkpt lat="36.730474" lon="-3.950047">
        <ele>7.011</ele>
        <time>2021-06-16T13:47:29Z</time>
      </trkpt>
      <trkpt lat="36.730394" lon="-3.950374">
        <ele>7.408</ele>
        <time>2021-06-16T13:47:31Z</time>
      </trkpt>
      <trkpt lat="36.730353" lon="-3.95054">
        <ele>7.683</ele>
        <time>2021-06-16T13:47:32Z</time>
      </trkpt>
      <trkpt lat="36.730265" lon="-3.950867">
        <ele>8.211</ele>
        <time>2021-06-16T13:47:34Z</time>
      </trkpt>
      <trkpt lat="36.730185" lon="-3.951187">
        <ele>8.825</ele>
        <time>2021-06-16T13:47:36Z</time>
      </trkpt>
      <trkpt lat="36.730148" lon="-3.951347">
        <ele>9.514</ele>
        <time>2021-06-16T13:47:37Z</time>
      </trkpt>
      <trkpt lat="36.730077" lon="-3.951672">
        <ele>10.027</ele>
        <time>2021-06-16T13:47:39Z</time>
      </trkpt>
      <trkpt lat="36.730009" lon="-3.951999">
        <ele>10.534</ele>
        <time>2021-06-16T13:47:41Z</time>
      </trkpt>
      <trkpt lat="36.72996" lon="-3.952316">
        <ele>10.821</ele>
        <time>2021-06-16T13:47:43Z</time>
      </trkpt>
      <trkpt lat="36.72992" lon="-3.95263">
        <ele>11.591</ele>
        <time>2021-06-16T13:47:45Z</time>
      </trkpt>
      <trkpt lat="36.729877" lon="-3.952936">
        <ele>11.932</ele>
        <time>2021-06-16T13:47:47Z</time>
      </trkpt>
      <trkpt lat="36.729863" lon="-3.953074">
        <ele>12.492</ele>
        <time>2021-06-16T13:47:48Z</time>
      </trkpt>
      <trkpt lat="36.729847" lon="-3.953208">
        <ele>12.711</ele>
        <time>2021-06-16T13:47:49Z</time>
      </trkpt>
      <trkpt lat="36.729837" lon="-3.953333">
        <ele>13.108</ele>
        <time>2021-06-16T13:47:50Z</time>
      </trkpt>
      <trkpt lat="36.729844" lon="-3.953563">
        <ele>13.610</ele>
        <time>2021-06-16T13:47:52Z</time>
      </trkpt>
      <trkpt lat="36.729859" lon="-3.953682">
        <ele>13.458</ele>
        <time>2021-06-16T13:47:53Z</time>
      </trkpt>
      <trkpt lat="36.729885" lon="-3.953938">
        <ele>13.292</ele>
        <time>2021-06-16T13:47:55Z</time>
      </trkpt>
      <trkpt lat="36.729846" lon="-3.954196">
        <ele>13.031</ele>
        <time>2021-06-16T13:47:57Z</time>
      </trkpt>
      <trkpt lat="36.729766" lon="-3.954467">
        <ele>12.954</ele>
        <time>2021-06-16T13:47:59Z</time>
      </trkpt>
      <trkpt lat="36.729717" lon="-3.954755">
        <ele>12.811</ele>
        <time>2021-06-16T13:48:01Z</time>
      </trkpt>
      <trkpt lat="36.729683" lon="-3.955045">
        <ele>12.728</ele>
        <time>2021-06-16T13:48:03Z</time>
      </trkpt>
      <trkpt lat="36.729653" lon="-3.955355">
        <ele>12.318</ele>
        <time>2021-06-16T13:48:05Z</time>
      </trkpt>
      <trkpt lat="36.729627" lon="-3.955667">
        <ele>12.579</ele>
        <time>2021-06-16T13:48:07Z</time>
      </trkpt>
      <trkpt lat="36.729601" lon="-3.955987">
        <ele>12.605</ele>
        <time>2021-06-16T13:48:09Z</time>
      </trkpt>
      <trkpt lat="36.729575" lon="-3.956311">
        <ele>12.825</ele>
        <time>2021-06-16T13:48:11Z</time>
      </trkpt>
      <trkpt lat="36.729544" lon="-3.956642">
        <ele>13.308</ele>
        <time>2021-06-16T13:48:13Z</time>
      </trkpt>
      <trkpt lat="36.72953" lon="-3.95681">
        <ele>13.434</ele>
        <time>2021-06-16T13:48:14Z</time>
      </trkpt>
      <trkpt lat="36.729522" lon="-3.95698">
        <ele>13.372</ele>
        <time>2021-06-16T13:48:15Z</time>
      </trkpt>
      <trkpt lat="36.729515" lon="-3.95715">
        <ele>13.356</ele>
        <time>2021-06-16T13:48:16Z</time>
      </trkpt>
      <trkpt lat="36.729519" lon="-3.957492">
        <ele>13.665</ele>
        <time>2021-06-16T13:48:18Z</time>
      </trkpt>
      <trkpt lat="36.729528" lon="-3.957662">
        <ele>13.718</ele>
        <time>2021-06-16T13:48:19Z</time>
      </trkpt>
      <trkpt lat="36.729546" lon="-3.95783">
        <ele>14.045</ele>
        <time>2021-06-16T13:48:20Z</time>
      </trkpt>
      <trkpt lat="36.729572" lon="-3.957999">
        <ele>14.432</ele>
        <time>2021-06-16T13:48:21Z</time>
      </trkpt>
      <trkpt lat="36.729638" lon="-3.958334">
        <ele>14.822</ele>
        <time>2021-06-16T13:48:23Z</time>
      </trkpt>
      <trkpt lat="36.729678" lon="-3.958496">
        <ele>15.117</ele>
        <time>2021-06-16T13:48:24Z</time>
      </trkpt>
      <trkpt lat="36.729757" lon="-3.958813">
        <ele>15.387</ele>
        <time>2021-06-16T13:48:26Z</time>
      </trkpt>
      <trkpt lat="36.729798" lon="-3.958959">
        <ele>15.815</ele>
        <time>2021-06-16T13:48:27Z</time>
      </trkpt>
      <trkpt lat="36.729878" lon="-3.959224">
        <ele>16.108</ele>
        <time>2021-06-16T13:48:29Z</time>
      </trkpt>
      <trkpt lat="36.72996" lon="-3.959445">
        <ele>16.668</ele>
        <time>2021-06-16T13:48:31Z</time>
      </trkpt>
      <trkpt lat="36.730062" lon="-3.959603">
        <ele>17.256</ele>
        <time>2021-06-16T13:48:33Z</time>
      </trkpt>
      <trkpt lat="36.73011" lon="-3.959649">
        <ele>17.560</ele>
        <time>2021-06-16T13:48:34Z</time>
      </trkpt>
      <trkpt lat="36.730182" lon="-3.959703">
        <ele>17.839</ele>
        <time>2021-06-16T13:48:36Z</time>
      </trkpt>
      <trkpt lat="36.730246" lon="-3.959752">
        <ele>18.932</ele>
        <time>2021-06-16T13:48:38Z</time>
      </trkpt>
      <trkpt lat="36.730286" lon="-3.95979">
        <ele>19.399</ele>
        <time>2021-06-16T13:48:39Z</time>
      </trkpt>
      <trkpt lat="36.730417" lon="-3.95987">
        <ele>19.556</ele>
        <time>2021-06-16T13:48:41Z</time>
      </trkpt>
      <trkpt lat="36.730599" lon="-3.959922">
        <ele>19.866</ele>
        <time>2021-06-16T13:48:43Z</time>
      </trkpt>
      <trkpt lat="36.730824" lon="-3.959951">
        <ele>20.342</ele>
        <time>2021-06-16T13:48:45Z</time>
      </trkpt>
      <trkpt lat="36.730942" lon="-3.959967">
        <ele>20.722</ele>
        <time>2021-06-16T13:48:46Z</time>
      </trkpt>
      <trkpt lat="36.73106" lon="-3.959985">
        <ele>21.214</ele>
        <time>2021-06-16T13:48:47Z</time>
      </trkpt>
      <trkpt lat="36.731176" lon="-3.960002">
        <ele>21.508</ele>
        <time>2021-06-16T13:48:48Z</time>
      </trkpt>
      <trkpt lat="36.731402" lon="-3.960043">
        <ele>21.551</ele>
        <time>2021-06-16T13:48:50Z</time>
      </trkpt>
      <trkpt lat="36.731607" lon="-3.960086">
        <ele>22.059</ele>
        <time>2021-06-16T13:48:52Z</time>
      </trkpt>
      <trkpt lat="36.731777" lon="-3.960117">
        <ele>22.093</ele>
        <time>2021-06-16T13:48:54Z</time>
      </trkpt>
      <trkpt lat="36.731929" lon="-3.960143">
        <ele>22.412</ele>
        <time>2021-06-16T13:48:56Z</time>
      </trkpt>
      <trkpt lat="36.731998" lon="-3.960153">
        <ele>22.565</ele>
        <time>2021-06-16T13:48:57Z</time>
      </trkpt>
      <trkpt lat="36.732132" lon="-3.96016">
        <ele>22.632</ele>
        <time>2021-06-16T13:48:59Z</time>
      </trkpt>
      <trkpt lat="36.732283" lon="-3.960147">
        <ele>22.759</ele>
        <time>2021-06-16T13:49:01Z</time>
      </trkpt>
      <trkpt lat="36.732367" lon="-3.960162">
        <ele>22.639</ele>
        <time>2021-06-16T13:49:02Z</time>
      </trkpt>
      <trkpt lat="36.732455" lon="-3.960199">
        <ele>22.762</ele>
        <time>2021-06-16T13:49:03Z</time>
      </trkpt>
      <trkpt lat="36.732653" lon="-3.96026">
        <ele>22.983</ele>
        <time>2021-06-16T13:49:05Z</time>
      </trkpt>
      <trkpt lat="36.732867" lon="-3.960294">
        <ele>23.011</ele>
        <time>2021-06-16T13:49:07Z</time>
      </trkpt>
      <trkpt lat="36.732979" lon="-3.960305">
        <ele>23.308</ele>
        <time>2021-06-16T13:49:08Z</time>
      </trkpt>
      <trkpt lat="36.733203" lon="-3.960298">
        <ele>23.783</ele>
        <time>2021-06-16T13:49:10Z</time>
      </trkpt>
      <trkpt lat="36.733314" lon="-3.960278">
        <ele>24.231</ele>
        <time>2021-06-16T13:49:11Z</time>
      </trkpt>
      <trkpt lat="36.733418" lon="-3.960252">
        <ele>24.565</ele>
        <time>2021-06-16T13:49:12Z</time>
      </trkpt>
      <trkpt lat="36.733614" lon="-3.960182">
        <ele>25.054</ele>
        <time>2021-06-16T13:49:14Z</time>
      </trkpt>
      <trkpt lat="36.733807" lon="-3.960114">
        <ele>25.457</ele>
        <time>2021-06-16T13:49:16Z</time>
      </trkpt>
      <trkpt lat="36.734001" lon="-3.960051">
        <ele>26.024</ele>
        <time>2021-06-16T13:49:18Z</time>
      </trkpt>
      <trkpt lat="36.734103" lon="-3.960018">
        <ele>26.671</ele>
        <time>2021-06-16T13:49:19Z</time>
      </trkpt>
      <trkpt lat="36.734209" lon="-3.959981">
        <ele>27.081</ele>
        <time>2021-06-16T13:49:20Z</time>
      </trkpt>
      <trkpt lat="36.734318" lon="-3.959941">
        <ele>27.419</ele>
        <time>2021-06-16T13:49:21Z</time>
      </trkpt>
      <trkpt lat="36.734433" lon="-3.959902">
        <ele>27.909</ele>
        <time>2021-06-16T13:49:22Z</time>
      </trkpt>
      <trkpt lat="36.734549" lon="-3.959869">
        <ele>28.319</ele>
        <time>2021-06-16T13:49:23Z</time>
      </trkpt>
      <trkpt lat="36.734794" lon="-3.9598">
        <ele>28.908</ele>
        <time>2021-06-16T13:49:25Z</time>
      </trkpt>
      <trkpt lat="36.734921" lon="-3.959768">
        <ele>29.548</ele>
        <time>2021-06-16T13:49:26Z</time>
      </trkpt>
      <trkpt lat="36.735178" lon="-3.959703">
        <ele>30.446</ele>
        <time>2021-06-16T13:49:28Z</time>
      </trkpt>
      <trkpt lat="36.735435" lon="-3.959625">
        <ele>31.460</ele>
        <time>2021-06-16T13:49:30Z</time>
      </trkpt>
      <trkpt lat="36.735557" lon="-3.959582">
        <ele>32.139</ele>
        <time>2021-06-16T13:49:31Z</time>
      </trkpt>
      <trkpt lat="36.735675" lon="-3.95954">
        <ele>32.682</ele>
        <time>2021-06-16T13:49:32Z</time>
      </trkpt>
      <trkpt lat="36.735917" lon="-3.959465">
        <ele>33.429</ele>
        <time>2021-06-16T13:49:34Z</time>
      </trkpt>
      <trkpt lat="36.736175" lon="-3.959418">
        <ele>33.976</ele>
        <time>2021-06-16T13:49:36Z</time>
      </trkpt>
      <trkpt lat="36.736447" lon="-3.959388">
        <ele>34.916</ele>
        <time>2021-06-16T13:49:38Z</time>
      </trkpt>
      <trkpt lat="36.736583" lon="-3.959371">
        <ele>35.492</ele>
        <time>2021-06-16T13:49:39Z</time>
      </trkpt>
      <trkpt lat="36.736845" lon="-3.959326">
        <ele>36.173</ele>
        <time>2021-06-16T13:49:41Z</time>
      </trkpt>
      <trkpt lat="36.736972" lon="-3.95929">
        <ele>36.720</ele>
        <time>2021-06-16T13:49:42Z</time>
      </trkpt>
      <trkpt lat="36.737091" lon="-3.959245">
        <ele>37.208</ele>
        <time>2021-06-16T13:49:43Z</time>
      </trkpt>
      <trkpt lat="36.737327" lon="-3.959137">
        <ele>37.346</ele>
        <time>2021-06-16T13:49:45Z</time>
      </trkpt>
      <trkpt lat="36.737557" lon="-3.959001">
        <ele>37.614</ele>
        <time>2021-06-16T13:49:47Z</time>
      </trkpt>
      <trkpt lat="36.737665" lon="-3.958926">
        <ele>38.088</ele>
        <time>2021-06-16T13:49:48Z</time>
      </trkpt>
      <trkpt lat="36.737863" lon="-3.958794">
        <ele>38.187</ele>
        <time>2021-06-16T13:49:50Z</time>
      </trkpt>
      <trkpt lat="36.737956" lon="-3.958733">
        <ele>38.440</ele>
        <time>2021-06-16T13:49:51Z</time>
      </trkpt>
      <trkpt lat="36.738155" lon="-3.95861">
        <ele>39.027</ele>
        <time>2021-06-16T13:49:53Z</time>
      </trkpt>
      <trkpt lat="36.738366" lon="-3.958465">
        <ele>39.634</ele>
        <time>2021-06-16T13:49:55Z</time>
      </trkpt>
      <trkpt lat="36.738472" lon="-3.958386">
        <ele>39.954</ele>
        <time>2021-06-16T13:49:56Z</time>
      </trkpt>
      <trkpt lat="36.738578" lon="-3.958302">
        <ele>40.127</ele>
        <time>2021-06-16T13:49:57Z</time>
      </trkpt>
      <trkpt lat="36.738779" lon="-3.958124">
        <ele>40.268</ele>
        <time>2021-06-16T13:49:59Z</time>
      </trkpt>
      <trkpt lat="36.738874" lon="-3.958031">
        <ele>39.814</ele>
        <time>2021-06-16T13:50:00Z</time>
      </trkpt>
      <trkpt lat="36.73897" lon="-3.957942">
        <ele>39.408</ele>
        <time>2021-06-16T13:50:01Z</time>
      </trkpt>
      <trkpt lat="36.73916" lon="-3.957771">
        <ele>39.269</ele>
        <time>2021-06-16T13:50:03Z</time>
      </trkpt>
      <trkpt lat="36.739356" lon="-3.957625">
        <ele>38.427</ele>
        <time>2021-06-16T13:50:05Z</time>
      </trkpt>
      <trkpt lat="36.739565" lon="-3.957534">
        <ele>37.221</ele>
        <time>2021-06-16T13:50:07Z</time>
      </trkpt>
      <trkpt lat="36.739782" lon="-3.957512">
        <ele>36.730</ele>
        <time>2021-06-16T13:50:09Z</time>
      </trkpt>
      <trkpt lat="36.740003" lon="-3.957501">
        <ele>36.783</ele>
        <time>2021-06-16T13:50:11Z</time>
      </trkpt>
      <trkpt lat="36.740205" lon="-3.957424">
        <ele>36.530</ele>
        <time>2021-06-16T13:50:13Z</time>
      </trkpt>
      <trkpt lat="36.740339" lon="-3.957249">
        <ele>36.247</ele>
        <time>2021-06-16T13:50:15Z</time>
      </trkpt>
      <trkpt lat="36.740394" lon="-3.957053">
        <ele>36.077</ele>
        <time>2021-06-16T13:50:17Z</time>
      </trkpt>
      <trkpt lat="36.740398" lon="-3.95683">
        <ele>36.095</ele>
        <time>2021-06-16T13:50:19Z</time>
      </trkpt>
      <trkpt lat="36.740415" lon="-3.956596">
        <ele>36.349</ele>
        <time>2021-06-16T13:50:21Z</time>
      </trkpt>
      <trkpt lat="36.740522" lon="-3.956448">
        <ele>36.823</ele>
        <time>2021-06-16T13:50:23Z</time>
      </trkpt>
      <trkpt lat="36.740677" lon="-3.956402">
        <ele>36.808</ele>
        <time>2021-06-16T13:50:25Z</time>
      </trkpt>
      <trkpt lat="36.740751" lon="-3.956429">
        <ele>36.996</ele>
        <time>2021-06-16T13:50:26Z</time>
      </trkpt>
      <trkpt lat="36.74088" lon="-3.956555">
        <ele>37.594</ele>
        <time>2021-06-16T13:50:28Z</time>
      </trkpt>
      <trkpt lat="36.74093" lon="-3.95665">
        <ele>37.758</ele>
        <time>2021-06-16T13:50:29Z</time>
      </trkpt>
      <trkpt lat="36.741025" lon="-3.956863">
        <ele>38.067</ele>
        <time>2021-06-16T13:50:31Z</time>
      </trkpt>
      <trkpt lat="36.741194" lon="-3.957051">
        <ele>38.220</ele>
        <time>2021-06-16T13:50:33Z</time>
      </trkpt>
      <trkpt lat="36.741394" lon="-3.95717">
        <ele>39.267</ele>
        <time>2021-06-16T13:50:35Z</time>
      </trkpt>
      <trkpt lat="36.741511" lon="-3.957235">
        <ele>39.884</ele>
        <time>2021-06-16T13:50:36Z</time>
      </trkpt>
      <trkpt lat="36.741632" lon="-3.957303">
        <ele>40.574</ele>
        <time>2021-06-16T13:50:37Z</time>
      </trkpt>
      <trkpt lat="36.741865" lon="-3.957439">
        <ele>41.325</ele>
        <time>2021-06-16T13:50:39Z</time>
      </trkpt>
      <trkpt lat="36.742122" lon="-3.957588">
        <ele>42.526</ele>
        <time>2021-06-16T13:50:41Z</time>
      </trkpt>
      <trkpt lat="36.742351" lon="-3.957712">
        <ele>43.908</ele>
        <time>2021-06-16T13:50:43Z</time>
      </trkpt>
      <trkpt lat="36.742478" lon="-3.957788">
        <ele>45.008</ele>
        <time>2021-06-16T13:50:44Z</time>
      </trkpt>
      <trkpt lat="36.742615" lon="-3.95787">
        <ele>46.059</ele>
        <time>2021-06-16T13:50:45Z</time>
      </trkpt>
      <trkpt lat="36.742875" lon="-3.958021">
        <ele>47.737</ele>
        <time>2021-06-16T13:50:47Z</time>
      </trkpt>
      <trkpt lat="36.743012" lon="-3.958104">
        <ele>48.921</ele>
        <time>2021-06-16T13:50:48Z</time>
      </trkpt>
      <trkpt lat="36.743169" lon="-3.958198">
        <ele>50.330</ele>
        <time>2021-06-16T13:50:49Z</time>
      </trkpt>
      <trkpt lat="36.74343" lon="-3.958348">
        <ele>52.363</ele>
        <time>2021-06-16T13:50:51Z</time>
      </trkpt>
      <trkpt lat="36.743575" lon="-3.95843">
        <ele>53.550</ele>
        <time>2021-06-16T13:50:52Z</time>
      </trkpt>
      <trkpt lat="36.743882" lon="-3.958609">
        <ele>55.337</ele>
        <time>2021-06-16T13:50:54Z</time>
      </trkpt>
      <trkpt lat="36.744152" lon="-3.958767">
        <ele>57.357</ele>
        <time>2021-06-16T13:50:56Z</time>
      </trkpt>
      <trkpt lat="36.744469" lon="-3.958957">
        <ele>59.736</ele>
        <time>2021-06-16T13:50:58Z</time>
      </trkpt>
      <trkpt lat="36.744746" lon="-3.95912">
        <ele>62.117</ele>
        <time>2021-06-16T13:51:00Z</time>
      </trkpt>
      <trkpt lat="36.744899" lon="-3.959209">
        <ele>63.718</ele>
        <time>2021-06-16T13:51:01Z</time>
      </trkpt>
      <trkpt lat="36.745069" lon="-3.959306">
        <ele>65.208</ele>
        <time>2021-06-16T13:51:02Z</time>
      </trkpt>
      <trkpt lat="36.745343" lon="-3.959456">
        <ele>66.680</ele>
        <time>2021-06-16T13:51:04Z</time>
      </trkpt>
      <trkpt lat="36.745492" lon="-3.959536">
        <ele>68.128</ele>
        <time>2021-06-16T13:51:05Z</time>
      </trkpt>
      <trkpt lat="36.745819" lon="-3.959683">
        <ele>69.862</ele>
        <time>2021-06-16T13:51:07Z</time>
      </trkpt>
      <trkpt lat="36.746122" lon="-3.959743">
        <ele>71.231</ele>
        <time>2021-06-16T13:51:09Z</time>
      </trkpt>
      <trkpt lat="36.746292" lon="-3.959749">
        <ele>72.334</ele>
        <time>2021-06-16T13:51:10Z</time>
      </trkpt>
      <trkpt lat="36.746481" lon="-3.959734">
        <ele>73.441</ele>
        <time>2021-06-16T13:51:11Z</time>
      </trkpt>
      <trkpt lat="36.74679" lon="-3.959651">
        <ele>74.328</ele>
        <time>2021-06-16T13:51:13Z</time>
      </trkpt>
      <trkpt lat="36.74696" lon="-3.959591">
        <ele>74.888</ele>
        <time>2021-06-16T13:51:14Z</time>
      </trkpt>
      <trkpt lat="36.747287" lon="-3.959463">
        <ele>75.221</ele>
        <time>2021-06-16T13:51:16Z</time>
      </trkpt>
      <trkpt lat="36.747619" lon="-3.959333">
        <ele>75.741</ele>
        <time>2021-06-16T13:51:18Z</time>
      </trkpt>
      <trkpt lat="36.747786" lon="-3.959271">
        <ele>76.405</ele>
        <time>2021-06-16T13:51:19Z</time>
      </trkpt>
      <trkpt lat="36.747965" lon="-3.959211">
        <ele>77.008</ele>
        <time>2021-06-16T13:51:20Z</time>
      </trkpt>
      <trkpt lat="36.748281" lon="-3.959123">
        <ele>77.929</ele>
        <time>2021-06-16T13:51:22Z</time>
      </trkpt>
      <trkpt lat="36.748449" lon="-3.959094">
        <ele>78.787</ele>
        <time>2021-06-16T13:51:23Z</time>
      </trkpt>
      <trkpt lat="36.748622" lon="-3.959073">
        <ele>79.191</ele>
        <time>2021-06-16T13:51:24Z</time>
      </trkpt>
      <trkpt lat="36.748957" lon="-3.959071">
        <ele>80.430</ele>
        <time>2021-06-16T13:51:26Z</time>
      </trkpt>
      <trkpt lat="36.749127" lon="-3.959085">
        <ele>81.893</ele>
        <time>2021-06-16T13:51:27Z</time>
      </trkpt>
      <trkpt lat="36.749315" lon="-3.959112">
        <ele>83.260</ele>
        <time>2021-06-16T13:51:28Z</time>
      </trkpt>
      <trkpt lat="36.749615" lon="-3.95919">
        <ele>85.287</ele>
        <time>2021-06-16T13:51:30Z</time>
      </trkpt>
      <trkpt lat="36.749941" lon="-3.959317">
        <ele>87.867</ele>
        <time>2021-06-16T13:51:32Z</time>
      </trkpt>
      <trkpt lat="36.75023" lon="-3.95947">
        <ele>90.588</ele>
        <time>2021-06-16T13:51:34Z</time>
      </trkpt>
      <trkpt lat="36.75037" lon="-3.959562">
        <ele>92.624</ele>
        <time>2021-06-16T13:51:35Z</time>
      </trkpt>
      <trkpt lat="36.750634" lon="-3.959754">
        <ele>94.726</ele>
        <time>2021-06-16T13:51:37Z</time>
      </trkpt>
      <trkpt lat="36.750809" lon="-3.959908">
        <ele>96.508</ele>
        <time>2021-06-16T13:51:39Z</time>
      </trkpt>
      <trkpt lat="36.75097" lon="-3.960046">
        <ele>98.085</ele>
        <time>2021-06-16T13:51:41Z</time>
      </trkpt>
      <trkpt lat="36.751063" lon="-3.960102">
        <ele>98.773</ele>
        <time>2021-06-16T13:51:42Z</time>
      </trkpt>
      <trkpt lat="36.751226" lon="-3.960151">
        <ele>99.667</ele>
        <time>2021-06-16T13:51:44Z</time>
      </trkpt>
      <trkpt lat="36.75131" lon="-3.960191">
        <ele>100.316</ele>
        <time>2021-06-16T13:51:45Z</time>
      </trkpt>
      <trkpt lat="36.751435" lon="-3.960357">
        <ele>100.589</ele>
        <time>2021-06-16T13:51:47Z</time>
      </trkpt>
      <trkpt lat="36.751525" lon="-3.960528">
        <ele>100.966</ele>
        <time>2021-06-16T13:51:49Z</time>
      </trkpt>
      <trkpt lat="36.751594" lon="-3.9606">
        <ele>101.053</ele>
        <time>2021-06-16T13:51:50Z</time>
      </trkpt>
      <trkpt lat="36.751758" lon="-3.960699">
        <ele>100.823</ele>
        <time>2021-06-16T13:51:52Z</time>
      </trkpt>
      <trkpt lat="36.751843" lon="-3.960723">
        <ele>100.613</ele>
        <time>2021-06-16T13:51:53Z</time>
      </trkpt>
      <trkpt lat="36.752019" lon="-3.960707">
        <ele>101.443</ele>
        <time>2021-06-16T13:51:55Z</time>
      </trkpt>
      <trkpt lat="36.752108" lon="-3.960685">
        <ele>101.907</ele>
        <time>2021-06-16T13:51:56Z</time>
      </trkpt>
      <trkpt lat="36.752207" lon="-3.960674">
        <ele>102.308</ele>
        <time>2021-06-16T13:51:57Z</time>
      </trkpt>
      <trkpt lat="36.752339" lon="-3.960747">
        <ele>102.328</ele>
        <time>2021-06-16T13:51:59Z</time>
      </trkpt>
      <trkpt lat="36.752387" lon="-3.96094">
        <ele>101.696</ele>
        <time>2021-06-16T13:52:01Z</time>
      </trkpt>
      <trkpt lat="36.752362" lon="-3.961053">
        <ele>101.380</ele>
        <time>2021-06-16T13:52:02Z</time>
      </trkpt>
      <trkpt lat="36.752242" lon="-3.9612">
        <ele>101.169</ele>
        <time>2021-06-16T13:52:04Z</time>
      </trkpt>
      <trkpt lat="36.752056" lon="-3.961331">
        <ele>101.042</ele>
        <time>2021-06-16T13:52:06Z</time>
      </trkpt>
      <trkpt lat="36.751946" lon="-3.961426">
        <ele>101.139</ele>
        <time>2021-06-16T13:52:07Z</time>
      </trkpt>
      <trkpt lat="36.751782" lon="-3.961646">
        <ele>101.856</ele>
        <time>2021-06-16T13:52:09Z</time>
      </trkpt>
      <trkpt lat="36.751698" lon="-3.961782">
        <ele>102.666</ele>
        <time>2021-06-16T13:52:10Z</time>
      </trkpt>
      <trkpt lat="36.751523" lon="-3.962083">
        <ele>104.444</ele>
        <time>2021-06-16T13:52:12Z</time>
      </trkpt>
      <trkpt lat="36.751364" lon="-3.962346">
        <ele>105.905</ele>
        <time>2021-06-16T13:52:14Z</time>
      </trkpt>
      <trkpt lat="36.751188" lon="-3.962642">
        <ele>107.815</ele>
        <time>2021-06-16T13:52:16Z</time>
      </trkpt>
      <trkpt lat="36.751084" lon="-3.962809">
        <ele>109.508</ele>
        <time>2021-06-16T13:52:17Z</time>
      </trkpt>
      <trkpt lat="36.750911" lon="-3.963076">
        <ele>111.551</ele>
        <time>2021-06-16T13:52:19Z</time>
      </trkpt>
      <trkpt lat="36.750721" lon="-3.963365">
        <ele>113.449</ele>
        <time>2021-06-16T13:52:21Z</time>
      </trkpt>
      <trkpt lat="36.750616" lon="-3.963528">
        <ele>115.133</ele>
        <time>2021-06-16T13:52:22Z</time>
      </trkpt>
      <trkpt lat="36.750441" lon="-3.963792">
        <ele>116.652</ele>
        <time>2021-06-16T13:52:24Z</time>
      </trkpt>
      <trkpt lat="36.750348" lon="-3.963939">
        <ele>117.615</ele>
        <time>2021-06-16T13:52:25Z</time>
      </trkpt>
      <trkpt lat="36.750251" lon="-3.964088">
        <ele>118.492</ele>
        <time>2021-06-16T13:52:26Z</time>
      </trkpt>
      <trkpt lat="36.750139" lon="-3.964257">
        <ele>119.489</ele>
        <time>2021-06-16T13:52:27Z</time>
      </trkpt>
      <trkpt lat="36.749952" lon="-3.96455">
        <ele>120.359</ele>
        <time>2021-06-16T13:52:29Z</time>
      </trkpt>
      <trkpt lat="36.749855" lon="-3.964719">
        <ele>121.166</ele>
        <time>2021-06-16T13:52:30Z</time>
      </trkpt>
      <trkpt lat="36.749752" lon="-3.96489">
        <ele>121.629</ele>
        <time>2021-06-16T13:52:31Z</time>
      </trkpt>
      <trkpt lat="36.749633" lon="-3.965085">
        <ele>122.021</ele>
        <time>2021-06-16T13:52:32Z</time>
      </trkpt>
      <trkpt lat="36.749424" lon="-3.965412">
        <ele>122.208</ele>
        <time>2021-06-16T13:52:34Z</time>
      </trkpt>
      <trkpt lat="36.749304" lon="-3.965592">
        <ele>122.763</ele>
        <time>2021-06-16T13:52:35Z</time>
      </trkpt>
      <trkpt lat="36.749187" lon="-3.965772">
        <ele>123.451</ele>
        <time>2021-06-16T13:52:36Z</time>
      </trkpt>
      <trkpt lat="36.749062" lon="-3.965975">
        <ele>123.915</ele>
        <time>2021-06-16T13:52:37Z</time>
      </trkpt>
      <trkpt lat="36.74886" lon="-3.966313">
        <ele>124.154</ele>
        <time>2021-06-16T13:52:39Z</time>
      </trkpt>
      <trkpt lat="36.748752" lon="-3.966504">
        <ele>124.617</ele>
        <time>2021-06-16T13:52:40Z</time>
      </trkpt>
      <trkpt lat="36.748527" lon="-3.966923">
        <ele>125.354</ele>
        <time>2021-06-16T13:52:42Z</time>
      </trkpt>
      <trkpt lat="36.748345" lon="-3.967302">
        <ele>125.651</ele>
        <time>2021-06-16T13:52:44Z</time>
      </trkpt>
      <trkpt lat="36.748161" lon="-3.967736">
        <ele>125.741</ele>
        <time>2021-06-16T13:52:46Z</time>
      </trkpt>
      <trkpt lat="36.748064" lon="-3.967986">
        <ele>125.882</ele>
        <time>2021-06-16T13:52:47Z</time>
      </trkpt>
      <trkpt lat="36.747922" lon="-3.968394">
        <ele>125.843</ele>
        <time>2021-06-16T13:52:49Z</time>
      </trkpt>
      <trkpt lat="36.747777" lon="-3.96885">
        <ele>125.717</ele>
        <time>2021-06-16T13:52:51Z</time>
      </trkpt>
      <trkpt lat="36.747706" lon="-3.969114">
        <ele>125.508</ele>
        <time>2021-06-16T13:52:52Z</time>
      </trkpt>
      <trkpt lat="36.7476" lon="-3.969553">
        <ele>125.285</ele>
        <time>2021-06-16T13:52:54Z</time>
      </trkpt>
      <trkpt lat="36.747506" lon="-3.970039">
        <ele>125.243</ele>
        <time>2021-06-16T13:52:56Z</time>
      </trkpt>
      <trkpt lat="36.747463" lon="-3.970314">
        <ele>124.967</ele>
        <time>2021-06-16T13:52:57Z</time>
      </trkpt>
      <trkpt lat="36.747412" lon="-3.970769">
        <ele>124.176</ele>
        <time>2021-06-16T13:52:59Z</time>
      </trkpt>
      <trkpt lat="36.74739" lon="-3.971019">
        <ele>123.929</ele>
        <time>2021-06-16T13:53:00Z</time>
      </trkpt>
      <trkpt lat="36.74737" lon="-3.971279">
        <ele>123.686</ele>
        <time>2021-06-16T13:53:01Z</time>
      </trkpt>
      <trkpt lat="36.747352" lon="-3.971769">
        <ele>122.993</ele>
        <time>2021-06-16T13:53:03Z</time>
      </trkpt>
      <trkpt lat="36.747346" lon="-3.972306">
        <ele>122.063</ele>
        <time>2021-06-16T13:53:05Z</time>
      </trkpt>
      <trkpt lat="36.747374" lon="-3.972775">
        <ele>120.967</ele>
        <time>2021-06-16T13:53:07Z</time>
      </trkpt>
      <trkpt lat="36.747395" lon="-3.973034">
        <ele>119.881</ele>
        <time>2021-06-16T13:53:08Z</time>
      </trkpt>
      <trkpt lat="36.747446" lon="-3.973546">
        <ele>117.719</ele>
        <time>2021-06-16T13:53:10Z</time>
      </trkpt>
      <trkpt lat="36.747504" lon="-3.974062">
        <ele>115.808</ele>
        <time>2021-06-16T13:53:12Z</time>
      </trkpt>
      <trkpt lat="36.747579" lon="-3.974619">
        <ele>114.583</ele>
        <time>2021-06-16T13:53:14Z</time>
      </trkpt>
      <trkpt lat="36.747644" lon="-3.975098">
        <ele>113.621</ele>
        <time>2021-06-16T13:53:16Z</time>
      </trkpt>
      <trkpt lat="36.747703" lon="-3.975625">
        <ele>112.565</ele>
        <time>2021-06-16T13:53:18Z</time>
      </trkpt>
      <trkpt lat="36.747728" lon="-3.97589">
        <ele>111.494</ele>
        <time>2021-06-16T13:53:19Z</time>
      </trkpt>
      <trkpt lat="36.747745" lon="-3.976155">
        <ele>110.027</ele>
        <time>2021-06-16T13:53:20Z</time>
      </trkpt>
      <trkpt lat="36.747763" lon="-3.976703">
        <ele>108.484</ele>
        <time>2021-06-16T13:53:22Z</time>
      </trkpt>
      <trkpt lat="36.747755" lon="-3.977175">
        <ele>107.011</ele>
        <time>2021-06-16T13:53:24Z</time>
      </trkpt>
      <trkpt lat="36.747726" lon="-3.977694">
        <ele>105.861</ele>
        <time>2021-06-16T13:53:26Z</time>
      </trkpt>
      <trkpt lat="36.747674" lon="-3.978176">
        <ele>104.525</ele>
        <time>2021-06-16T13:53:28Z</time>
      </trkpt>
      <trkpt lat="36.747599" lon="-3.978693">
        <ele>103.826</ele>
        <time>2021-06-16T13:53:30Z</time>
      </trkpt>
      <trkpt lat="36.747521" lon="-3.979135">
        <ele>103.008</ele>
        <time>2021-06-16T13:53:32Z</time>
      </trkpt>
      <trkpt lat="36.747429" lon="-3.979615">
        <ele>102.108</ele>
        <time>2021-06-16T13:53:34Z</time>
      </trkpt>
      <trkpt lat="36.747373" lon="-3.979887">
        <ele>101.879</ele>
        <time>2021-06-16T13:53:35Z</time>
      </trkpt>
      <trkpt lat="36.747282" lon="-3.980326">
        <ele>101.827</ele>
        <time>2021-06-16T13:53:37Z</time>
      </trkpt>
      <trkpt lat="36.747238" lon="-3.980569">
        <ele>101.661</ele>
        <time>2021-06-16T13:53:38Z</time>
      </trkpt>
      <trkpt lat="36.747191" lon="-3.980836">
        <ele>101.590</ele>
        <time>2021-06-16T13:53:39Z</time>
      </trkpt>
      <trkpt lat="36.747116" lon="-3.981266">
        <ele>101.623</ele>
        <time>2021-06-16T13:53:41Z</time>
      </trkpt>
      <trkpt lat="36.747054" lon="-3.981736">
        <ele>102.480</ele>
        <time>2021-06-16T13:53:43Z</time>
      </trkpt>
      <trkpt lat="36.747021" lon="-3.982003">
        <ele>103.377</ele>
        <time>2021-06-16T13:53:44Z</time>
      </trkpt>
      <trkpt lat="36.746978" lon="-3.98244">
        <ele>103.667</ele>
        <time>2021-06-16T13:53:46Z</time>
      </trkpt>
      <trkpt lat="36.746956" lon="-3.982683">
        <ele>103.968</ele>
        <time>2021-06-16T13:53:47Z</time>
      </trkpt>
      <trkpt lat="36.746932" lon="-3.982958">
        <ele>104.142</ele>
        <time>2021-06-16T13:53:48Z</time>
      </trkpt>
      <trkpt lat="36.7469" lon="-3.98341">
        <ele>104.626</ele>
        <time>2021-06-16T13:53:50Z</time>
      </trkpt>
      <trkpt lat="36.746886" lon="-3.983662">
        <ele>104.908</ele>
        <time>2021-06-16T13:53:51Z</time>
      </trkpt>
      <trkpt lat="36.746872" lon="-3.984204">
        <ele>105.163</ele>
        <time>2021-06-16T13:53:53Z</time>
      </trkpt>
      <trkpt lat="36.746876" lon="-3.984675">
        <ele>104.931</ele>
        <time>2021-06-16T13:53:55Z</time>
      </trkpt>
      <trkpt lat="36.746884" lon="-3.984939">
        <ele>104.965</ele>
        <time>2021-06-16T13:53:56Z</time>
      </trkpt>
      <trkpt lat="36.746891" lon="-3.98523">
        <ele>104.764</ele>
        <time>2021-06-16T13:53:57Z</time>
      </trkpt>
      <trkpt lat="36.746921" lon="-3.98571">
        <ele>104.687</ele>
        <time>2021-06-16T13:53:59Z</time>
      </trkpt>
      <trkpt lat="36.74694" lon="-3.985973">
        <ele>104.574</ele>
        <time>2021-06-16T13:54:00Z</time>
      </trkpt>
      <trkpt lat="36.746964" lon="-3.986266">
        <ele>104.211</ele>
        <time>2021-06-16T13:54:01Z</time>
      </trkpt>
      <trkpt lat="36.74702" lon="-3.986744">
        <ele>103.271</ele>
        <time>2021-06-16T13:54:03Z</time>
      </trkpt>
      <trkpt lat="36.747054" lon="-3.987006">
        <ele>102.495</ele>
        <time>2021-06-16T13:54:04Z</time>
      </trkpt>
      <trkpt lat="36.74713" lon="-3.987563">
        <ele>101.549</ele>
        <time>2021-06-16T13:54:06Z</time>
      </trkpt>
      <trkpt lat="36.747213" lon="-3.988039">
        <ele>100.323</ele>
        <time>2021-06-16T13:54:08Z</time>
      </trkpt>
      <trkpt lat="36.747264" lon="-3.988301">
        <ele>99.108</ele>
        <time>2021-06-16T13:54:09Z</time>
      </trkpt>
      <trkpt lat="36.747321" lon="-3.988588">
        <ele>98.256</ele>
        <time>2021-06-16T13:54:10Z</time>
      </trkpt>
      <trkpt lat="36.747428" lon="-3.989059">
        <ele>96.564</ele>
        <time>2021-06-16T13:54:12Z</time>
      </trkpt>
      <trkpt lat="36.747492" lon="-3.989317">
        <ele>95.478</ele>
        <time>2021-06-16T13:54:13Z</time>
      </trkpt>
      <trkpt lat="36.747626" lon="-3.989822">
        <ele>93.857</ele>
        <time>2021-06-16T13:54:15Z</time>
      </trkpt>
      <trkpt lat="36.747698" lon="-3.990071">
        <ele>92.460</ele>
        <time>2021-06-16T13:54:16Z</time>
      </trkpt>
      <trkpt lat="36.747847" lon="-3.990562">
        <ele>90.927</ele>
        <time>2021-06-16T13:54:18Z</time>
      </trkpt>
      <trkpt lat="36.747923" lon="-3.990804">
        <ele>89.334</ele>
        <time>2021-06-16T13:54:19Z</time>
      </trkpt>
      <trkpt lat="36.748079" lon="-3.991274">
        <ele>87.624</ele>
        <time>2021-06-16T13:54:21Z</time>
      </trkpt>
      <trkpt lat="36.748167" lon="-3.991502">
        <ele>86.477</ele>
        <time>2021-06-16T13:54:22Z</time>
      </trkpt>
      <trkpt lat="36.748356" lon="-3.991984">
        <ele>84.061</ele>
        <time>2021-06-16T13:54:24Z</time>
      </trkpt>
      <trkpt lat="36.748516" lon="-3.992408">
        <ele>82.127</ele>
        <time>2021-06-16T13:54:26Z</time>
      </trkpt>
      <trkpt lat="36.748699" lon="-3.992907">
        <ele>80.008</ele>
        <time>2021-06-16T13:54:28Z</time>
      </trkpt>
      <trkpt lat="36.748854" lon="-3.993341">
        <ele>77.674</ele>
        <time>2021-06-16T13:54:30Z</time>
      </trkpt>
      <trkpt lat="36.749018" lon="-3.993838">
        <ele>75.112</ele>
        <time>2021-06-16T13:54:32Z</time>
      </trkpt>
      <trkpt lat="36.74915" lon="-3.994328">
        <ele>72.646</ele>
        <time>2021-06-16T13:54:34Z</time>
      </trkpt>
      <trkpt lat="36.749267" lon="-3.994863">
        <ele>70.465</ele>
        <time>2021-06-16T13:54:36Z</time>
      </trkpt>
      <trkpt lat="36.749341" lon="-3.995324">
        <ele>68.148</ele>
        <time>2021-06-16T13:54:38Z</time>
      </trkpt>
      <trkpt lat="36.749374" lon="-3.995576">
        <ele>66.575</ele>
        <time>2021-06-16T13:54:39Z</time>
      </trkpt>
      <trkpt lat="36.749424" lon="-3.996063">
        <ele>64.532</ele>
        <time>2021-06-16T13:54:41Z</time>
      </trkpt>
      <trkpt lat="36.74944" lon="-3.996307">
        <ele>62.822</ele>
        <time>2021-06-16T13:54:42Z</time>
      </trkpt>
      <trkpt lat="36.749449" lon="-3.996552">
        <ele>61.832</ele>
        <time>2021-06-16T13:54:43Z</time>
      </trkpt>
      <trkpt lat="36.749453" lon="-3.996798">
        <ele>60.992</ele>
        <time>2021-06-16T13:54:44Z</time>
      </trkpt>
      <trkpt lat="36.749452" lon="-3.997075">
        <ele>59.611</ele>
        <time>2021-06-16T13:54:45Z</time>
      </trkpt>
      <trkpt lat="36.749431" lon="-3.997537">
        <ele>58.608</ele>
        <time>2021-06-16T13:54:47Z</time>
      </trkpt>
      <trkpt lat="36.749392" lon="-3.998077">
        <ele>57.760</ele>
        <time>2021-06-16T13:54:49Z</time>
      </trkpt>
      <trkpt lat="36.749344" lon="-3.998532">
        <ele>56.758</ele>
        <time>2021-06-16T13:54:51Z</time>
      </trkpt>
      <trkpt lat="36.749285" lon="-3.999067">
        <ele>55.822</ele>
        <time>2021-06-16T13:54:53Z</time>
      </trkpt>
      <trkpt lat="36.749238" lon="-3.999537">
        <ele>54.681</ele>
        <time>2021-06-16T13:54:55Z</time>
      </trkpt>
      <trkpt lat="36.749185" lon="-4.000063">
        <ele>53.414</ele>
        <time>2021-06-16T13:54:57Z</time>
      </trkpt>
      <trkpt lat="36.749158" lon="-4.000355">
        <ele>52.361</ele>
        <time>2021-06-16T13:54:58Z</time>
      </trkpt>
      <trkpt lat="36.749122" lon="-4.00083">
        <ele>51.678</ele>
        <time>2021-06-16T13:55:00Z</time>
      </trkpt>
      <trkpt lat="36.749103" lon="-4.001377">
        <ele>51.318</ele>
        <time>2021-06-16T13:55:02Z</time>
      </trkpt>
      <trkpt lat="36.749105" lon="-4.001839">
        <ele>51.119</ele>
        <time>2021-06-16T13:55:04Z</time>
      </trkpt>
      <trkpt lat="36.749138" lon="-4.002328">
        <ele>51.209</ele>
        <time>2021-06-16T13:55:06Z</time>
      </trkpt>
      <trkpt lat="36.749162" lon="-4.002602">
        <ele>51.619</ele>
        <time>2021-06-16T13:55:07Z</time>
      </trkpt>
      <trkpt lat="36.749219" lon="-4.00304">
        <ele>51.908</ele>
        <time>2021-06-16T13:55:09Z</time>
      </trkpt>
      <trkpt lat="36.749254" lon="-4.003282">
        <ele>52.328</ele>
        <time>2021-06-16T13:55:10Z</time>
      </trkpt>
      <trkpt lat="36.749298" lon="-4.003548">
        <ele>52.466</ele>
        <time>2021-06-16T13:55:11Z</time>
      </trkpt>
      <trkpt lat="36.749381" lon="-4.003978">
        <ele>52.480</ele>
        <time>2021-06-16T13:55:13Z</time>
      </trkpt>
      <trkpt lat="36.749497" lon="-4.00445">
        <ele>52.729</ele>
        <time>2021-06-16T13:55:15Z</time>
      </trkpt>
      <trkpt lat="36.749637" lon="-4.00489">
        <ele>52.962</ele>
        <time>2021-06-16T13:55:17Z</time>
      </trkpt>
      <trkpt lat="36.74971" lon="-4.005117">
        <ele>53.019</ele>
        <time>2021-06-16T13:55:18Z</time>
      </trkpt>
      <trkpt lat="36.749793" lon="-4.005371">
        <ele>53.026</ele>
        <time>2021-06-16T13:55:19Z</time>
      </trkpt>
      <trkpt lat="36.749951" lon="-4.005774">
        <ele>52.956</ele>
        <time>2021-06-16T13:55:21Z</time>
      </trkpt>
      <trkpt lat="36.750046" lon="-4.00599">
        <ele>53.366</ele>
        <time>2021-06-16T13:55:22Z</time>
      </trkpt>
      <trkpt lat="36.750253" lon="-4.00644">
        <ele>53.529</ele>
        <time>2021-06-16T13:55:24Z</time>
      </trkpt>
      <trkpt lat="36.750432" lon="-4.00683">
        <ele>53.621</ele>
        <time>2021-06-16T13:55:26Z</time>
      </trkpt>
      <trkpt lat="36.750634" lon="-4.00728">
        <ele>53.908</ele>
        <time>2021-06-16T13:55:28Z</time>
      </trkpt>
      <trkpt lat="36.750796" lon="-4.007654">
        <ele>53.833</ele>
        <time>2021-06-16T13:55:30Z</time>
      </trkpt>
      <trkpt lat="36.752577" lon="-4.01309">
        <ele>54.091</ele>
        <time>2021-06-16T13:55:53Z</time>
      </trkpt>
      <trkpt lat="36.752647" lon="-4.013521">
        <ele>54.515</ele>
        <time>2021-06-16T13:55:55Z</time>
      </trkpt>
      <trkpt lat="36.752713" lon="-4.014035">
        <ele>55.094</ele>
        <time>2021-06-16T13:55:57Z</time>
      </trkpt>
      <trkpt lat="36.752764" lon="-4.014475">
        <ele>55.547</ele>
        <time>2021-06-16T13:55:59Z</time>
      </trkpt>
      <trkpt lat="36.752806" lon="-4.014965">
        <ele>55.734</ele>
        <time>2021-06-16T13:56:01Z</time>
      </trkpt>
      <trkpt lat="36.752826" lon="-4.015213">
        <ele>55.871</ele>
        <time>2021-06-16T13:56:02Z</time>
      </trkpt>
      <trkpt lat="36.752843" lon="-4.01546">
        <ele>55.691</ele>
        <time>2021-06-16T13:56:03Z</time>
      </trkpt>
      <trkpt lat="36.752871" lon="-4.015982">
        <ele>55.894</ele>
        <time>2021-06-16T13:56:05Z</time>
      </trkpt>
      <trkpt lat="36.752882" lon="-4.016439">
        <ele>56.257</ele>
        <time>2021-06-16T13:56:07Z</time>
      </trkpt>
      <trkpt lat="36.752883" lon="-4.016692">
        <ele>56.322</ele>
        <time>2021-06-16T13:56:08Z</time>
      </trkpt>
      <trkpt lat="36.752882" lon="-4.016944">
        <ele>56.508</ele>
        <time>2021-06-16T13:56:09Z</time>
      </trkpt>
      <trkpt lat="36.752872" lon="-4.017233">
        <ele>56.886</ele>
        <time>2021-06-16T13:56:10Z</time>
      </trkpt>
      <trkpt lat="36.752851" lon="-4.017691">
        <ele>57.344</ele>
        <time>2021-06-16T13:56:12Z</time>
      </trkpt>
      <trkpt lat="36.752823" lon="-4.018224">
        <ele>58.368</ele>
        <time>2021-06-16T13:56:14Z</time>
      </trkpt>
      <trkpt lat="36.752787" lon="-4.01867">
        <ele>59.337</ele>
        <time>2021-06-16T13:56:16Z</time>
      </trkpt>
      <trkpt lat="36.752731" lon="-4.019148">
        <ele>60.520</ele>
        <time>2021-06-16T13:56:18Z</time>
      </trkpt>
      <trkpt lat="36.752699" lon="-4.019407">
        <ele>61.847</ele>
        <time>2021-06-16T13:56:19Z</time>
      </trkpt>
      <trkpt lat="36.752638" lon="-4.019827">
        <ele>63.074</ele>
        <time>2021-06-16T13:56:21Z</time>
      </trkpt>
      <trkpt lat="36.752596" lon="-4.020057">
        <ele>64.174</ele>
        <time>2021-06-16T13:56:22Z</time>
      </trkpt>
      <trkpt lat="36.75255" lon="-4.020317">
        <ele>64.846</ele>
        <time>2021-06-16T13:56:23Z</time>
      </trkpt>
      <trkpt lat="36.75247" lon="-4.020739">
        <ele>65.388</ele>
        <time>2021-06-16T13:56:25Z</time>
      </trkpt>
      <trkpt lat="36.752422" lon="-4.020969">
        <ele>66.416</ele>
        <time>2021-06-16T13:56:26Z</time>
      </trkpt>
      <trkpt lat="36.752317" lon="-4.021462">
        <ele>67.708</ele>
        <time>2021-06-16T13:56:28Z</time>
      </trkpt>
      <trkpt lat="36.752226" lon="-4.021891">
        <ele>69.421</ele>
        <time>2021-06-16T13:56:30Z</time>
      </trkpt>
      <trkpt lat="36.752175" lon="-4.022129">
        <ele>70.629</ele>
        <time>2021-06-16T13:56:31Z</time>
      </trkpt>
      <trkpt lat="36.752116" lon="-4.02239">
        <ele>72.013</ele>
        <time>2021-06-16T13:56:32Z</time>
      </trkpt>
      <trkpt lat="36.752024" lon="-4.022817">
        <ele>73.182</ele>
        <time>2021-06-16T13:56:34Z</time>
      </trkpt>
      <trkpt lat="36.751921" lon="-4.023289">
        <ele>73.995</ele>
        <time>2021-06-16T13:56:36Z</time>
      </trkpt>
      <trkpt lat="36.751868" lon="-4.023554">
        <ele>74.672</ele>
        <time>2021-06-16T13:56:37Z</time>
      </trkpt>
      <trkpt lat="36.751783" lon="-4.023986">
        <ele>75.239</ele>
        <time>2021-06-16T13:56:39Z</time>
      </trkpt>
      <trkpt lat="36.751735" lon="-4.024228">
        <ele>75.959</ele>
        <time>2021-06-16T13:56:40Z</time>
      </trkpt>
      <trkpt lat="36.751683" lon="-4.024497">
        <ele>77.227</ele>
        <time>2021-06-16T13:56:41Z</time>
      </trkpt>
      <trkpt lat="36.751606" lon="-4.024936">
        <ele>78.168</ele>
        <time>2021-06-16T13:56:43Z</time>
      </trkpt>
      <trkpt lat="36.751527" lon="-4.025425">
        <ele>78.914</ele>
        <time>2021-06-16T13:56:45Z</time>
      </trkpt>
      <trkpt lat="36.751484" lon="-4.025696">
        <ele>79.408</ele>
        <time>2021-06-16T13:56:46Z</time>
      </trkpt>
      <trkpt lat="36.751415" lon="-4.026147">
        <ele>80.289</ele>
        <time>2021-06-16T13:56:48Z</time>
      </trkpt>
      <trkpt lat="36.751379" lon="-4.026395">
        <ele>80.757</ele>
        <time>2021-06-16T13:56:49Z</time>
      </trkpt>
      <trkpt lat="36.751342" lon="-4.02667">
        <ele>80.791</ele>
        <time>2021-06-16T13:56:50Z</time>
      </trkpt>
      <trkpt lat="36.751291" lon="-4.027109">
        <ele>80.770</ele>
        <time>2021-06-16T13:56:52Z</time>
      </trkpt>
      <trkpt lat="36.751264" lon="-4.027354">
        <ele>81.033</ele>
        <time>2021-06-16T13:56:53Z</time>
      </trkpt>
      <trkpt lat="36.751235" lon="-4.02761">
        <ele>81.230</ele>
        <time>2021-06-16T13:56:54Z</time>
      </trkpt>
      <trkpt lat="36.751186" lon="-4.028083">
        <ele>81.547</ele>
        <time>2021-06-16T13:56:56Z</time>
      </trkpt>
      <trkpt lat="36.751138" lon="-4.028587">
        <ele>81.447</ele>
        <time>2021-06-16T13:56:58Z</time>
      </trkpt>
      <trkpt lat="36.751101" lon="-4.029039">
        <ele>81.831</ele>
        <time>2021-06-16T13:57:00Z</time>
      </trkpt>
      <trkpt lat="36.751084" lon="-4.029293">
        <ele>81.961</ele>
        <time>2021-06-16T13:57:01Z</time>
      </trkpt>
      <trkpt lat="36.751061" lon="-4.029791">
        <ele>81.907</ele>
        <time>2021-06-16T13:57:03Z</time>
      </trkpt>
      <trkpt lat="36.751041" lon="-4.030301">
        <ele>81.208</ele>
        <time>2021-06-16T13:57:05Z</time>
      </trkpt>
      <trkpt lat="36.751029" lon="-4.030591">
        <ele>81.260</ele>
        <time>2021-06-16T13:57:06Z</time>
      </trkpt>
      <trkpt lat="36.751025" lon="-4.031057">
        <ele>81.368</ele>
        <time>2021-06-16T13:57:08Z</time>
      </trkpt>
      <trkpt lat="36.751019" lon="-4.031325">
        <ele>81.132</ele>
        <time>2021-06-16T13:57:09Z</time>
      </trkpt>
      <trkpt lat="36.751013" lon="-4.031596">
        <ele>81.011</ele>
        <time>2021-06-16T13:57:10Z</time>
      </trkpt>
      <trkpt lat="36.75101" lon="-4.032083">
        <ele>80.254</ele>
        <time>2021-06-16T13:57:12Z</time>
      </trkpt>
      <trkpt lat="36.751014" lon="-4.032625">
        <ele>79.691</ele>
        <time>2021-06-16T13:57:14Z</time>
      </trkpt>
      <trkpt lat="36.751026" lon="-4.03309">
        <ele>78.548</ele>
        <time>2021-06-16T13:57:16Z</time>
      </trkpt>
      <trkpt lat="36.75104" lon="-4.033614">
        <ele>77.298</ele>
        <time>2021-06-16T13:57:18Z</time>
      </trkpt>
      <trkpt lat="36.751048" lon="-4.033911">
        <ele>75.995</ele>
        <time>2021-06-16T13:57:19Z</time>
      </trkpt>
      <trkpt lat="36.751074" lon="-4.034383">
        <ele>73.949</ele>
        <time>2021-06-16T13:57:21Z</time>
      </trkpt>
      <trkpt lat="36.751091" lon="-4.034645">
        <ele>72.623</ele>
        <time>2021-06-16T13:57:22Z</time>
      </trkpt>
      <trkpt lat="36.75111" lon="-4.034932">
        <ele>71.308</ele>
        <time>2021-06-16T13:57:23Z</time>
      </trkpt>
      <trkpt lat="36.751155" lon="-4.035433">
        <ele>69.646</ele>
        <time>2021-06-16T13:57:25Z</time>
      </trkpt>
      <trkpt lat="36.751183" lon="-4.035706">
        <ele>68.154</ele>
        <time>2021-06-16T13:57:26Z</time>
      </trkpt>
      <trkpt lat="36.751252" lon="-4.036286">
        <ele>66.558</ele>
        <time>2021-06-16T13:57:28Z</time>
      </trkpt>
      <trkpt lat="36.751333" lon="-4.036776">
        <ele>65.357</ele>
        <time>2021-06-16T13:57:30Z</time>
      </trkpt>
      <trkpt lat="36.751385" lon="-4.037045">
        <ele>63.850</ele>
        <time>2021-06-16T13:57:31Z</time>
      </trkpt>
      <trkpt lat="36.751444" lon="-4.037343">
        <ele>62.217</ele>
        <time>2021-06-16T13:57:32Z</time>
      </trkpt>
      <trkpt lat="36.751545" lon="-4.037813">
        <ele>60.534</ele>
        <time>2021-06-16T13:57:34Z</time>
      </trkpt>
      <trkpt lat="36.751602" lon="-4.038068">
        <ele>59.124</ele>
        <time>2021-06-16T13:57:35Z</time>
      </trkpt>
      <trkpt lat="36.751726" lon="-4.038589">
        <ele>57.411</ele>
        <time>2021-06-16T13:57:37Z</time>
      </trkpt>
      <trkpt lat="36.751859" lon="-4.039036">
        <ele>55.121</ele>
        <time>2021-06-16T13:57:39Z</time>
      </trkpt>
      <trkpt lat="36.751934" lon="-4.039281">
        <ele>53.403</ele>
        <time>2021-06-16T13:57:40Z</time>
      </trkpt>
      <trkpt lat="36.752024" lon="-4.039546">
        <ele>52.008</ele>
        <time>2021-06-16T13:57:41Z</time>
      </trkpt>
      <trkpt lat="36.752188" lon="-4.039965">
        <ele>51.148</ele>
        <time>2021-06-16T13:57:43Z</time>
      </trkpt>
      <trkpt lat="36.752377" lon="-4.040446">
        <ele>49.786</ele>
        <time>2021-06-16T13:57:45Z</time>
      </trkpt>
      <trkpt lat="36.752574" lon="-4.040873">
        <ele>47.860</ele>
        <time>2021-06-16T13:57:47Z</time>
      </trkpt>
      <trkpt lat="36.752679" lon="-4.041092">
        <ele>46.659</ele>
        <time>2021-06-16T13:57:48Z</time>
      </trkpt>
      <trkpt lat="36.752805" lon="-4.041335">
        <ele>46.142</ele>
        <time>2021-06-16T13:57:49Z</time>
      </trkpt>
      <trkpt lat="36.753026" lon="-4.041715">
        <ele>45.139</ele>
        <time>2021-06-16T13:57:51Z</time>
      </trkpt>
      <trkpt lat="36.753281" lon="-4.042126">
        <ele>44.056</ele>
        <time>2021-06-16T13:57:53Z</time>
      </trkpt>
      <trkpt lat="36.753426" lon="-4.042353">
        <ele>42.966</ele>
        <time>2021-06-16T13:57:54Z</time>
      </trkpt>
      <trkpt lat="36.75368" lon="-4.042715">
        <ele>41.594</ele>
        <time>2021-06-16T13:57:56Z</time>
      </trkpt>
      <trkpt lat="36.753824" lon="-4.042903">
        <ele>40.757</ele>
        <time>2021-06-16T13:57:57Z</time>
      </trkpt>
      <trkpt lat="36.753987" lon="-4.04311">
        <ele>40.022</ele>
        <time>2021-06-16T13:57:58Z</time>
      </trkpt>
      <trkpt lat="36.754261" lon="-4.043431">
        <ele>39.408</ele>
        <time>2021-06-16T13:58:00Z</time>
      </trkpt>
      <trkpt lat="36.754415" lon="-4.043601">
        <ele>38.956</ele>
        <time>2021-06-16T13:58:01Z</time>
      </trkpt>
      <trkpt lat="36.754573" lon="-4.043771">
        <ele>38.484</ele>
        <time>2021-06-16T13:58:02Z</time>
      </trkpt>
      <trkpt lat="36.754876" lon="-4.04408">
        <ele>37.948</ele>
        <time>2021-06-16T13:58:04Z</time>
      </trkpt>
      <trkpt lat="36.755032" lon="-4.044236">
        <ele>37.727</ele>
        <time>2021-06-16T13:58:05Z</time>
      </trkpt>
      <trkpt lat="36.755209" lon="-4.044408">
        <ele>37.350</ele>
        <time>2021-06-16T13:58:06Z</time>
      </trkpt>
      <trkpt lat="36.755499" lon="-4.044687">
        <ele>37.367</ele>
        <time>2021-06-16T13:58:08Z</time>
      </trkpt>
      <trkpt lat="36.755813" lon="-4.044989">
        <ele>37.044</ele>
        <time>2021-06-16T13:58:10Z</time>
      </trkpt>
      <trkpt lat="36.755974" lon="-4.045137">
        <ele>36.534</ele>
        <time>2021-06-16T13:58:11Z</time>
      </trkpt>
      <trkpt lat="36.756297" lon="-4.045434">
        <ele>36.692</ele>
        <time>2021-06-16T13:58:13Z</time>
      </trkpt>
      <trkpt lat="36.756478" lon="-4.045599">
        <ele>37.173</ele>
        <time>2021-06-16T13:58:14Z</time>
      </trkpt>
      <trkpt lat="36.756765" lon="-4.045884">
        <ele>37.320</ele>
        <time>2021-06-16T13:58:16Z</time>
      </trkpt>
      <trkpt lat="36.75707" lon="-4.046214">
        <ele>38.308</ele>
        <time>2021-06-16T13:58:18Z</time>
      </trkpt>
      <trkpt lat="36.757216" lon="-4.046383">
        <ele>38.926</ele>
        <time>2021-06-16T13:58:19Z</time>
      </trkpt>
      <trkpt lat="36.757503" lon="-4.046724">
        <ele>39.844</ele>
        <time>2021-06-16T13:58:21Z</time>
      </trkpt>
      <trkpt lat="36.757658" lon="-4.046923">
        <ele>40.538</ele>
        <time>2021-06-16T13:58:22Z</time>
      </trkpt>
      <trkpt lat="36.757908" lon="-4.047268">
        <ele>40.967</ele>
        <time>2021-06-16T13:58:24Z</time>
      </trkpt>
      <trkpt lat="36.758045" lon="-4.047462">
        <ele>41.070</ele>
        <time>2021-06-16T13:58:25Z</time>
      </trkpt>
      <trkpt lat="36.758307" lon="-4.047853">
        <ele>41.757</ele>
        <time>2021-06-16T13:58:27Z</time>
      </trkpt>
      <trkpt lat="36.758554" lon="-4.048247">
        <ele>42.544</ele>
        <time>2021-06-16T13:58:29Z</time>
      </trkpt>
      <trkpt lat="36.758685" lon="-4.048471">
        <ele>43.494</ele>
        <time>2021-06-16T13:58:30Z</time>
      </trkpt>
      <trkpt lat="36.758891" lon="-4.048847">
        <ele>44.653</ele>
        <time>2021-06-16T13:58:32Z</time>
      </trkpt>
      <trkpt lat="36.759106" lon="-4.049269">
        <ele>45.304</ele>
        <time>2021-06-16T13:58:34Z</time>
      </trkpt>
      <trkpt lat="36.759223" lon="-4.049504">
        <ele>46.114</ele>
        <time>2021-06-16T13:58:35Z</time>
      </trkpt>
      <trkpt lat="36.759399" lon="-4.049891">
        <ele>47.408</ele>
        <time>2021-06-16T13:58:37Z</time>
      </trkpt>
      <trkpt lat="36.759495" lon="-4.050104">
        <ele>48.542</ele>
        <time>2021-06-16T13:58:38Z</time>
      </trkpt>
      <trkpt lat="36.759596" lon="-4.050345">
        <ele>49.670</ele>
        <time>2021-06-16T13:58:39Z</time>
      </trkpt>
      <trkpt lat="36.759745" lon="-4.050759">
        <ele>51.074</ele>
        <time>2021-06-16T13:58:41Z</time>
      </trkpt>
      <trkpt lat="36.759824" lon="-4.050984">
        <ele>52.093</ele>
        <time>2021-06-16T13:58:42Z</time>
      </trkpt>
      <trkpt lat="36.759905" lon="-4.051215">
        <ele>53.256</ele>
        <time>2021-06-16T13:58:43Z</time>
      </trkpt>
      <trkpt lat="36.760047" lon="-4.051666">
        <ele>54.393</ele>
        <time>2021-06-16T13:58:45Z</time>
      </trkpt>
      <trkpt lat="36.760115" lon="-4.051901">
        <ele>55.230</ele>
        <time>2021-06-16T13:58:46Z</time>
      </trkpt>
      <trkpt lat="36.760191" lon="-4.052162">
        <ele>56.350</ele>
        <time>2021-06-16T13:58:47Z</time>
      </trkpt>
      <trkpt lat="36.760304" lon="-4.052594">
        <ele>57.413</ele>
        <time>2021-06-16T13:58:49Z</time>
      </trkpt>
      <trkpt lat="36.760359" lon="-4.052833">
        <ele>58.143</ele>
        <time>2021-06-16T13:58:50Z</time>
      </trkpt>
      <trkpt lat="36.760454" lon="-4.053321">
        <ele>59.507</ele>
        <time>2021-06-16T13:58:52Z</time>
      </trkpt>
      <trkpt lat="36.760498" lon="-4.053564">
        <ele>61.008</ele>
        <time>2021-06-16T13:58:53Z</time>
      </trkpt>
      <trkpt lat="36.760541" lon="-4.053804">
        <ele>62.078</ele>
        <time>2021-06-16T13:58:54Z</time>
      </trkpt>
      <trkpt lat="36.76058" lon="-4.054044">
        <ele>63.016</ele>
        <time>2021-06-16T13:58:55Z</time>
      </trkpt>
      <trkpt lat="36.760618" lon="-4.054315">
        <ele>63.950</ele>
        <time>2021-06-16T13:58:56Z</time>
      </trkpt>
      <trkpt lat="36.760667" lon="-4.054754">
        <ele>65.459</ele>
        <time>2021-06-16T13:58:58Z</time>
      </trkpt>
      <trkpt lat="36.760689" lon="-4.054998">
        <ele>66.642</ele>
        <time>2021-06-16T13:58:59Z</time>
      </trkpt>
      <trkpt lat="36.760717" lon="-4.055307">
        <ele>67.839</ele>
        <time>2021-06-16T13:59:00Z</time>
      </trkpt>
      <trkpt lat="36.760742" lon="-4.055691">
        <ele>69.216</ele>
        <time>2021-06-16T13:59:02Z</time>
      </trkpt>
      <trkpt lat="36.760758" lon="-4.05595">
        <ele>70.456</ele>
        <time>2021-06-16T13:59:03Z</time>
      </trkpt>
      <trkpt lat="36.760791" lon="-4.05648">
        <ele>71.199</ele>
        <time>2021-06-16T13:59:05Z</time>
      </trkpt>
      <trkpt lat="36.760808" lon="-4.056938">
        <ele>71.407</ele>
        <time>2021-06-16T13:59:07Z</time>
      </trkpt>
      <trkpt lat="36.760828" lon="-4.057451">
        <ele>72.227</ele>
        <time>2021-06-16T13:59:09Z</time>
      </trkpt>
      <trkpt lat="36.760845" lon="-4.057735">
        <ele>72.608</ele>
        <time>2021-06-16T13:59:10Z</time>
      </trkpt>
      <trkpt lat="36.760879" lon="-4.058201">
        <ele>73.456</ele>
        <time>2021-06-16T13:59:12Z</time>
      </trkpt>
      <trkpt lat="36.7609" lon="-4.058457">
        <ele>74.354</ele>
        <time>2021-06-16T13:59:13Z</time>
      </trkpt>
      <trkpt lat="36.760929" lon="-4.058738">
        <ele>75.198</ele>
        <time>2021-06-16T13:59:14Z</time>
      </trkpt>
      <trkpt lat="36.760992" lon="-4.059196">
        <ele>76.087</ele>
        <time>2021-06-16T13:59:16Z</time>
      </trkpt>
      <trkpt lat="36.761069" lon="-4.059704">
        <ele>76.850</ele>
        <time>2021-06-16T13:59:18Z</time>
      </trkpt>
      <trkpt lat="36.761163" lon="-4.060179">
        <ele>77.667</ele>
        <time>2021-06-16T13:59:20Z</time>
      </trkpt>
      <trkpt lat="36.761215" lon="-4.06042">
        <ele>78.094</ele>
        <time>2021-06-16T13:59:21Z</time>
      </trkpt>
      <trkpt lat="36.761277" lon="-4.060691">
        <ele>78.084</ele>
        <time>2021-06-16T13:59:22Z</time>
      </trkpt>
      <trkpt lat="36.761396" lon="-4.06113">
        <ele>77.718</ele>
        <time>2021-06-16T13:59:24Z</time>
      </trkpt>
      <trkpt lat="36.761531" lon="-4.061612">
        <ele>78.398</ele>
        <time>2021-06-16T13:59:26Z</time>
      </trkpt>
      <trkpt lat="36.761673" lon="-4.06208">
        <ele>78.517</ele>
        <time>2021-06-16T13:59:28Z</time>
      </trkpt>
      <trkpt lat="36.761746" lon="-4.062309">
        <ele>78.708</ele>
        <time>2021-06-16T13:59:29Z</time>
      </trkpt>
      <trkpt lat="36.761821" lon="-4.062538">
        <ele>78.888</ele>
        <time>2021-06-16T13:59:30Z</time>
      </trkpt>
      <trkpt lat="36.761899" lon="-4.062769">
        <ele>79.036</ele>
        <time>2021-06-16T13:59:31Z</time>
      </trkpt>
      <trkpt lat="36.762058" lon="-4.063223">
        <ele>79.240</ele>
        <time>2021-06-16T13:59:33Z</time>
      </trkpt>
      <trkpt lat="36.76223" lon="-4.063708">
        <ele>79.439</ele>
        <time>2021-06-16T13:59:35Z</time>
      </trkpt>
      <trkpt lat="36.762385" lon="-4.064125">
        <ele>79.672</ele>
        <time>2021-06-16T13:59:37Z</time>
      </trkpt>
      <trkpt lat="36.762469" lon="-4.064362">
        <ele>79.779</ele>
        <time>2021-06-16T13:59:38Z</time>
      </trkpt>
      <trkpt lat="36.762561" lon="-4.064622">
        <ele>79.346</ele>
        <time>2021-06-16T13:59:39Z</time>
      </trkpt>
      <trkpt lat="36.76271" lon="-4.065046">
        <ele>78.946</ele>
        <time>2021-06-16T13:59:41Z</time>
      </trkpt>
      <trkpt lat="36.76279" lon="-4.065282">
        <ele>77.941</ele>
        <time>2021-06-16T13:59:42Z</time>
      </trkpt>
      <trkpt lat="36.762954" lon="-4.065752">
        <ele>77.281</ele>
        <time>2021-06-16T13:59:44Z</time>
      </trkpt>
      <trkpt lat="36.763102" lon="-4.066237">
        <ele>76.509</ele>
        <time>2021-06-16T13:59:46Z</time>
      </trkpt>
      <trkpt lat="36.763166" lon="-4.066489">
        <ele>75.708</ele>
        <time>2021-06-16T13:59:47Z</time>
      </trkpt>
      <trkpt lat="36.763289" lon="-4.066993">
        <ele>74.961</ele>
        <time>2021-06-16T13:59:49Z</time>
      </trkpt>
      <trkpt lat="36.763383" lon="-4.067514">
        <ele>74.129</ele>
        <time>2021-06-16T13:59:51Z</time>
      </trkpt>
      <trkpt lat="36.763463" lon="-4.068023">
        <ele>72.733</ele>
        <time>2021-06-16T13:59:53Z</time>
      </trkpt>
      <trkpt lat="36.763499" lon="-4.068285">
        <ele>71.452</ele>
        <time>2021-06-16T13:59:54Z</time>
      </trkpt>
      <trkpt lat="36.763558" lon="-4.068803">
        <ele>69.575</ele>
        <time>2021-06-16T13:59:56Z</time>
      </trkpt>
      <trkpt lat="36.763585" lon="-4.069081">
        <ele>67.932</ele>
        <time>2021-06-16T13:59:57Z</time>
      </trkpt>
      <trkpt lat="36.763625" lon="-4.069585">
        <ele>65.879</ele>
        <time>2021-06-16T13:59:59Z</time>
      </trkpt>
      <trkpt lat="36.763641" lon="-4.069849">
        <ele>65.149</ele>
        <time>2021-06-16T14:00:00Z</time>
      </trkpt>
      <trkpt lat="36.763659" lon="-4.070399">
        <ele>63.454</ele>
        <time>2021-06-16T14:00:02Z</time>
      </trkpt>
      <trkpt lat="36.763649" lon="-4.070882">
        <ele>61.856</ele>
        <time>2021-06-16T14:00:04Z</time>
      </trkpt>
      <trkpt lat="36.76362" lon="-4.071425">
        <ele>59.911</ele>
        <time>2021-06-16T14:00:06Z</time>
      </trkpt>
      <trkpt lat="36.76358" lon="-4.071888">
        <ele>58.308</ele>
        <time>2021-06-16T14:00:08Z</time>
      </trkpt>
      <trkpt lat="36.76352" lon="-4.072388">
        <ele>56.812</ele>
        <time>2021-06-16T14:00:10Z</time>
      </trkpt>
      <trkpt lat="36.763479" lon="-4.072668">
        <ele>55.450</ele>
        <time>2021-06-16T14:00:11Z</time>
      </trkpt>
      <trkpt lat="36.763401" lon="-4.07313">
        <ele>53.874</ele>
        <time>2021-06-16T14:00:13Z</time>
      </trkpt>
      <trkpt lat="36.763302" lon="-4.073655">
        <ele>52.233</ele>
        <time>2021-06-16T14:00:15Z</time>
      </trkpt>
      <trkpt lat="36.763199" lon="-4.074108">
        <ele>51.196</ele>
        <time>2021-06-16T14:00:17Z</time>
      </trkpt>
      <trkpt lat="36.763132" lon="-4.074354">
        <ele>50.233</ele>
        <time>2021-06-16T14:00:18Z</time>
      </trkpt>
      <trkpt lat="36.762986" lon="-4.074861">
        <ele>49.270</ele>
        <time>2021-06-16T14:00:20Z</time>
      </trkpt>
      <trkpt lat="36.76285" lon="-4.075293">
        <ele>47.830</ele>
        <time>2021-06-16T14:00:22Z</time>
      </trkpt>
      <trkpt lat="36.762688" lon="-4.075777">
        <ele>46.121</ele>
        <time>2021-06-16T14:00:24Z</time>
      </trkpt>
      <trkpt lat="36.762537" lon="-4.07619">
        <ele>45.041</ele>
        <time>2021-06-16T14:00:26Z</time>
      </trkpt>
      <trkpt lat="36.762448" lon="-4.076419">
        <ele>44.305</ele>
        <time>2021-06-16T14:00:27Z</time>
      </trkpt>
      <trkpt lat="36.762354" lon="-4.076657">
        <ele>43.508</ele>
        <time>2021-06-16T14:00:28Z</time>
      </trkpt>
      <trkpt lat="36.762174" lon="-4.077082">
        <ele>42.489</ele>
        <time>2021-06-16T14:00:30Z</time>
      </trkpt>
      <trkpt lat="36.761967" lon="-4.077557">
        <ele>41.657</ele>
        <time>2021-06-16T14:00:32Z</time>
      </trkpt>
      <trkpt lat="36.76179" lon="-4.077962">
        <ele>41.031</ele>
        <time>2021-06-16T14:00:34Z</time>
      </trkpt>
      <trkpt lat="36.761692" lon="-4.078185">
        <ele>40.660</ele>
        <time>2021-06-16T14:00:35Z</time>
      </trkpt>
      <trkpt lat="36.761594" lon="-4.078405">
        <ele>40.543</ele>
        <time>2021-06-16T14:00:36Z</time>
      </trkpt>
      <trkpt lat="36.761483" lon="-4.078647">
        <ele>40.340</ele>
        <time>2021-06-16T14:00:37Z</time>
      </trkpt>
      <trkpt lat="36.761307" lon="-4.079037">
        <ele>40.157</ele>
        <time>2021-06-16T14:00:39Z</time>
      </trkpt>
      <trkpt lat="36.761209" lon="-4.079252">
        <ele>39.847</ele>
        <time>2021-06-16T14:00:40Z</time>
      </trkpt>
      <trkpt lat="36.761096" lon="-4.079492">
        <ele>39.561</ele>
        <time>2021-06-16T14:00:41Z</time>
      </trkpt>
      <trkpt lat="36.760919" lon="-4.079874">
        <ele>38.921</ele>
        <time>2021-06-16T14:00:43Z</time>
      </trkpt>
      <trkpt lat="36.760823" lon="-4.080085">
        <ele>38.713</ele>
        <time>2021-06-16T14:00:44Z</time>
      </trkpt>
      <trkpt lat="36.760714" lon="-4.080322">
        <ele>38.608</ele>
        <time>2021-06-16T14:00:45Z</time>
      </trkpt>
      <trkpt lat="36.760531" lon="-4.080712">
        <ele>38.623</ele>
        <time>2021-06-16T14:00:47Z</time>
      </trkpt>
      <trkpt lat="36.760428" lon="-4.080928">
        <ele>38.751</ele>
        <time>2021-06-16T14:00:48Z</time>
      </trkpt>
      <trkpt lat="36.760326" lon="-4.081141">
        <ele>38.495</ele>
        <time>2021-06-16T14:00:49Z</time>
      </trkpt>
      <trkpt lat="36.760214" lon="-4.081382">
        <ele>38.214</ele>
        <time>2021-06-16T14:00:50Z</time>
      </trkpt>
      <trkpt lat="36.760041" lon="-4.081776">
        <ele>37.757</ele>
        <time>2021-06-16T14:00:52Z</time>
      </trkpt>
      <trkpt lat="36.759946" lon="-4.081994">
        <ele>37.544</ele>
        <time>2021-06-16T14:00:53Z</time>
      </trkpt>
      <trkpt lat="36.759842" lon="-4.082234">
        <ele>37.261</ele>
        <time>2021-06-16T14:00:54Z</time>
      </trkpt>
      <trkpt lat="36.759669" lon="-4.082634">
        <ele>36.741</ele>
        <time>2021-06-16T14:00:56Z</time>
      </trkpt>
      <trkpt lat="36.759576" lon="-4.082855">
        <ele>36.541</ele>
        <time>2021-06-16T14:00:57Z</time>
      </trkpt>
      <trkpt lat="36.759477" lon="-4.083098">
        <ele>36.381</ele>
        <time>2021-06-16T14:00:58Z</time>
      </trkpt>
      <trkpt lat="36.759313" lon="-4.083497">
        <ele>36.209</ele>
        <time>2021-06-16T14:01:00Z</time>
      </trkpt>
      <trkpt lat="36.759227" lon="-4.083712">
        <ele>35.608</ele>
        <time>2021-06-16T14:01:01Z</time>
      </trkpt>
      <trkpt lat="36.759142" lon="-4.083929">
        <ele>35.361</ele>
        <time>2021-06-16T14:01:02Z</time>
      </trkpt>
      <trkpt lat="36.758974" lon="-4.084358">
        <ele>35.239</ele>
        <time>2021-06-16T14:01:04Z</time>
      </trkpt>
      <trkpt lat="36.758809" lon="-4.084793">
        <ele>35.263</ele>
        <time>2021-06-16T14:01:06Z</time>
      </trkpt>
      <trkpt lat="36.758719" lon="-4.08503">
        <ele>35.322</ele>
        <time>2021-06-16T14:01:07Z</time>
      </trkpt>
      <trkpt lat="36.758564" lon="-4.085444">
        <ele>35.225</ele>
        <time>2021-06-16T14:01:09Z</time>
      </trkpt>
      <trkpt lat="36.758399" lon="-4.085907">
        <ele>34.992</ele>
        <time>2021-06-16T14:01:11Z</time>
      </trkpt>
      <trkpt lat="36.758257" lon="-4.086336">
        <ele>34.839</ele>
        <time>2021-06-16T14:01:13Z</time>
      </trkpt>
      <trkpt lat="36.758114" lon="-4.086791">
        <ele>34.779</ele>
        <time>2021-06-16T14:01:15Z</time>
      </trkpt>
      <trkpt lat="36.757986" lon="-4.087249">
        <ele>34.588</ele>
        <time>2021-06-16T14:01:17Z</time>
      </trkpt>
      <trkpt lat="36.757923" lon="-4.087474">
        <ele>34.224</ele>
        <time>2021-06-16T14:01:18Z</time>
      </trkpt>
      <trkpt lat="36.757797" lon="-4.087922">
        <ele>34.226</ele>
        <time>2021-06-16T14:01:20Z</time>
      </trkpt>
      <trkpt lat="36.757733" lon="-4.08815">
        <ele>34.408</ele>
        <time>2021-06-16T14:01:21Z</time>
      </trkpt>
      <trkpt lat="36.757615" lon="-4.088607">
        <ele>34.445</ele>
        <time>2021-06-16T14:01:23Z</time>
      </trkpt>
      <trkpt lat="36.757561" lon="-4.088836">
        <ele>34.293</ele>
        <time>2021-06-16T14:01:24Z</time>
      </trkpt>
      <trkpt lat="36.757456" lon="-4.089306">
        <ele>33.917</ele>
        <time>2021-06-16T14:01:26Z</time>
      </trkpt>
      <trkpt lat="36.757358" lon="-4.089777">
        <ele>33.146</ele>
        <time>2021-06-16T14:01:28Z</time>
      </trkpt>
      <trkpt lat="36.757312" lon="-4.090019">
        <ele>33.089</ele>
        <time>2021-06-16T14:01:29Z</time>
      </trkpt>
      <trkpt lat="36.757271" lon="-4.09026">
        <ele>32.836</ele>
        <time>2021-06-16T14:01:30Z</time>
      </trkpt>
      <trkpt lat="36.757193" lon="-4.090769">
        <ele>32.483</ele>
        <time>2021-06-16T14:01:32Z</time>
      </trkpt>
      <trkpt lat="36.757131" lon="-4.091207">
        <ele>32.893</ele>
        <time>2021-06-16T14:01:34Z</time>
      </trkpt>
      <trkpt lat="36.757099" lon="-4.09145">
        <ele>33.271</ele>
        <time>2021-06-16T14:01:35Z</time>
      </trkpt>
      <trkpt lat="36.757069" lon="-4.091702">
        <ele>33.341</ele>
        <time>2021-06-16T14:01:36Z</time>
      </trkpt>
      <trkpt lat="36.757025" lon="-4.092159">
        <ele>32.915</ele>
        <time>2021-06-16T14:01:38Z</time>
      </trkpt>
      <trkpt lat="36.757007" lon="-4.092401">
        <ele>32.708</ele>
        <time>2021-06-16T14:01:39Z</time>
      </trkpt>
      <trkpt lat="36.756992" lon="-4.092643">
        <ele>32.244</ele>
        <time>2021-06-16T14:01:40Z</time>
      </trkpt>
      <trkpt lat="36.756971" lon="-4.093127">
        <ele>31.842</ele>
        <time>2021-06-16T14:01:42Z</time>
      </trkpt>
      <trkpt lat="36.75696" lon="-4.093368">
        <ele>31.466</ele>
        <time>2021-06-16T14:01:43Z</time>
      </trkpt>
      <trkpt lat="36.756935" lon="-4.093856">
        <ele>31.055</ele>
        <time>2021-06-16T14:01:45Z</time>
      </trkpt>
      <trkpt lat="36.756907" lon="-4.094346">
        <ele>30.938</ele>
        <time>2021-06-16T14:01:47Z</time>
      </trkpt>
      <trkpt lat="36.756895" lon="-4.094591">
        <ele>31.395</ele>
        <time>2021-06-16T14:01:48Z</time>
      </trkpt>
      <trkpt lat="36.756885" lon="-4.094833">
        <ele>31.552</ele>
        <time>2021-06-16T14:01:49Z</time>
      </trkpt>
      <trkpt lat="36.756872" lon="-4.09531">
        <ele>31.512</ele>
        <time>2021-06-16T14:01:51Z</time>
      </trkpt>
      <trkpt lat="36.756858" lon="-4.095791">
        <ele>31.437</ele>
        <time>2021-06-16T14:01:53Z</time>
      </trkpt>
      <trkpt lat="36.756854" lon="-4.096031">
        <ele>31.449</ele>
        <time>2021-06-16T14:01:54Z</time>
      </trkpt>
      <trkpt lat="36.756836" lon="-4.096511">
        <ele>30.913</ele>
        <time>2021-06-16T14:01:56Z</time>
      </trkpt>
      <trkpt lat="36.756824" lon="-4.096755">
        <ele>31.208</ele>
        <time>2021-06-16T14:01:57Z</time>
      </trkpt>
      <trkpt lat="36.756808" lon="-4.097247">
        <ele>31.260</ele>
        <time>2021-06-16T14:01:59Z</time>
      </trkpt>
      <trkpt lat="36.756796" lon="-4.097495">
        <ele>30.948</ele>
        <time>2021-06-16T14:02:00Z</time>
      </trkpt>
      <trkpt lat="36.756783" lon="-4.097745">
        <ele>30.732</ele>
        <time>2021-06-16T14:02:01Z</time>
      </trkpt>
      <trkpt lat="36.756775" lon="-4.097997">
        <ele>30.451</ele>
        <time>2021-06-16T14:02:02Z</time>
      </trkpt>
      <trkpt lat="36.756767" lon="-4.09828">
        <ele>30.544</ele>
        <time>2021-06-16T14:02:03Z</time>
      </trkpt>
      <trkpt lat="36.756757" lon="-4.09874">
        <ele>30.331</ele>
        <time>2021-06-16T14:02:05Z</time>
      </trkpt>
      <trkpt lat="36.756751" lon="-4.098997">
        <ele>30.058</ele>
        <time>2021-06-16T14:02:06Z</time>
      </trkpt>
      <trkpt lat="36.75674" lon="-4.099267">
        <ele>29.928</ele>
        <time>2021-06-16T14:02:07Z</time>
      </trkpt>
      <trkpt lat="36.756727" lon="-4.099758">
        <ele>30.056</ele>
        <time>2021-06-16T14:02:09Z</time>
      </trkpt>
      <trkpt lat="36.756716" lon="-4.100011">
        <ele>30.159</ele>
        <time>2021-06-16T14:02:10Z</time>
      </trkpt>
      <trkpt lat="36.756697" lon="-4.100529">
        <ele>30.314</ele>
        <time>2021-06-16T14:02:12Z</time>
      </trkpt>
      <trkpt lat="36.756683" lon="-4.101009">
        <ele>29.808</ele>
        <time>2021-06-16T14:02:14Z</time>
      </trkpt>
      <trkpt lat="36.756667" lon="-4.101501">
        <ele>28.782</ele>
        <time>2021-06-16T14:02:16Z</time>
      </trkpt>
      <trkpt lat="36.756661" lon="-4.101749">
        <ele>28.090</ele>
        <time>2021-06-16T14:02:17Z</time>
      </trkpt>
      <trkpt lat="36.756646" lon="-4.10225">
        <ele>28.444</ele>
        <time>2021-06-16T14:02:19Z</time>
      </trkpt>
      <trkpt lat="36.756639" lon="-4.102506">
        <ele>28.453</ele>
        <time>2021-06-16T14:02:20Z</time>
      </trkpt>
      <trkpt lat="36.75663" lon="-4.102988">
        <ele>28.776</ele>
        <time>2021-06-16T14:02:22Z</time>
      </trkpt>
      <trkpt lat="36.756625" lon="-4.103241">
        <ele>28.523</ele>
        <time>2021-06-16T14:02:23Z</time>
      </trkpt>
      <trkpt lat="36.756619" lon="-4.103525">
        <ele>29.080</ele>
        <time>2021-06-16T14:02:24Z</time>
      </trkpt>
      <trkpt lat="36.75661" lon="-4.103988">
        <ele>28.930</ele>
        <time>2021-06-16T14:02:26Z</time>
      </trkpt>
      <trkpt lat="36.756604" lon="-4.104243">
        <ele>28.639</ele>
        <time>2021-06-16T14:02:27Z</time>
      </trkpt>
      <trkpt lat="36.756585" lon="-4.104784">
        <ele>27.901</ele>
        <time>2021-06-16T14:02:29Z</time>
      </trkpt>
      <trkpt lat="36.75657" lon="-4.105248">
        <ele>27.321</ele>
        <time>2021-06-16T14:02:31Z</time>
      </trkpt>
      <trkpt lat="36.756559" lon="-4.105507">
        <ele>26.508</ele>
        <time>2021-06-16T14:02:32Z</time>
      </trkpt>
      <trkpt lat="36.756542" lon="-4.105795">
        <ele>25.820</ele>
        <time>2021-06-16T14:02:33Z</time>
      </trkpt>
      <trkpt lat="36.756511" lon="-4.10626">
        <ele>25.628</ele>
        <time>2021-06-16T14:02:35Z</time>
      </trkpt>
      <trkpt lat="36.756466" lon="-4.106766">
        <ele>25.252</ele>
        <time>2021-06-16T14:02:37Z</time>
      </trkpt>
      <trkpt lat="36.756446" lon="-4.107015">
        <ele>25.031</ele>
        <time>2021-06-16T14:02:38Z</time>
      </trkpt>
      <trkpt lat="36.756427" lon="-4.107261">
        <ele>25.024</ele>
        <time>2021-06-16T14:02:39Z</time>
      </trkpt>
      <trkpt lat="36.756375" lon="-4.107787">
        <ele>25.091</ele>
        <time>2021-06-16T14:02:41Z</time>
      </trkpt>
      <trkpt lat="36.756337" lon="-4.108246">
        <ele>24.628</ele>
        <time>2021-06-16T14:02:43Z</time>
      </trkpt>
      <trkpt lat="36.756279" lon="-4.10875">
        <ele>24.378</ele>
        <time>2021-06-16T14:02:45Z</time>
      </trkpt>
      <trkpt lat="36.756247" lon="-4.109">
        <ele>24.431</ele>
        <time>2021-06-16T14:02:46Z</time>
      </trkpt>
      <trkpt lat="36.756217" lon="-4.109251">
        <ele>24.161</ele>
        <time>2021-06-16T14:02:47Z</time>
      </trkpt>
      <trkpt lat="36.756189" lon="-4.1095">
        <ele>24.207</ele>
        <time>2021-06-16T14:02:48Z</time>
      </trkpt>
      <trkpt lat="36.756111" lon="-4.110028">
        <ele>25.108</ele>
        <time>2021-06-16T14:02:50Z</time>
      </trkpt>
      <trkpt lat="36.756016" lon="-4.110484">
        <ele>25.830</ele>
        <time>2021-06-16T14:02:52Z</time>
      </trkpt>
      <trkpt lat="36.755895" lon="-4.111003">
        <ele>25.938</ele>
        <time>2021-06-16T14:02:54Z</time>
      </trkpt>
      <trkpt lat="36.75579" lon="-4.111445">
        <ele>25.892</ele>
        <time>2021-06-16T14:02:56Z</time>
      </trkpt>
      <trkpt lat="36.755727" lon="-4.111692">
        <ele>26.041</ele>
        <time>2021-06-16T14:02:57Z</time>
      </trkpt>
      <trkpt lat="36.755654" lon="-4.111967">
        <ele>26.614</ele>
        <time>2021-06-16T14:02:58Z</time>
      </trkpt>
      <trkpt lat="36.755526" lon="-4.112404">
        <ele>26.711</ele>
        <time>2021-06-16T14:03:00Z</time>
      </trkpt>
      <trkpt lat="36.755369" lon="-4.112893">
        <ele>27.848</ele>
        <time>2021-06-16T14:03:02Z</time>
      </trkpt>
      <trkpt lat="36.755283" lon="-4.113161">
        <ele>28.758</ele>
        <time>2021-06-16T14:03:03Z</time>
      </trkpt>
      <trkpt lat="36.755145" lon="-4.113594">
        <ele>29.765</ele>
        <time>2021-06-16T14:03:05Z</time>
      </trkpt>
      <trkpt lat="36.755066" lon="-4.113828">
        <ele>30.468</ele>
        <time>2021-06-16T14:03:06Z</time>
      </trkpt>
      <trkpt lat="36.754971" lon="-4.114088">
        <ele>31.014</ele>
        <time>2021-06-16T14:03:07Z</time>
      </trkpt>
      <trkpt lat="36.75481" lon="-4.114514">
        <ele>32.208</ele>
        <time>2021-06-16T14:03:09Z</time>
      </trkpt>
      <trkpt lat="36.754632" lon="-4.114975">
        <ele>33.373</ele>
        <time>2021-06-16T14:03:11Z</time>
      </trkpt>
      <trkpt lat="36.754528" lon="-4.115228">
        <ele>33.921</ele>
        <time>2021-06-16T14:03:12Z</time>
      </trkpt>
      <trkpt lat="36.754351" lon="-4.115628">
        <ele>35.245</ele>
        <time>2021-06-16T14:03:14Z</time>
      </trkpt>
      <trkpt lat="36.754252" lon="-4.115847">
        <ele>36.214</ele>
        <time>2021-06-16T14:03:15Z</time>
      </trkpt>
      <trkpt lat="36.754143" lon="-4.116087">
        <ele>36.537</ele>
        <time>2021-06-16T14:03:16Z</time>
      </trkpt>
      <trkpt lat="36.753956" lon="-4.11649">
        <ele>37.434</ele>
        <time>2021-06-16T14:03:18Z</time>
      </trkpt>
      <trkpt lat="36.753854" lon="-4.116705">
        <ele>37.861</ele>
        <time>2021-06-16T14:03:19Z</time>
      </trkpt>
      <trkpt lat="36.753749" lon="-4.116917">
        <ele>38.651</ele>
        <time>2021-06-16T14:03:20Z</time>
      </trkpt>
      <trkpt lat="36.753631" lon="-4.117151">
        <ele>39.412</ele>
        <time>2021-06-16T14:03:21Z</time>
      </trkpt>
      <trkpt lat="36.753432" lon="-4.117529">
        <ele>40.732</ele>
        <time>2021-06-16T14:03:23Z</time>
      </trkpt>
      <trkpt lat="36.75332" lon="-4.117739">
        <ele>41.705</ele>
        <time>2021-06-16T14:03:24Z</time>
      </trkpt>
      <trkpt lat="36.753194" lon="-4.117975">
        <ele>42.608</ele>
        <time>2021-06-16T14:03:25Z</time>
      </trkpt>
      <trkpt lat="36.752991" lon="-4.118354">
        <ele>43.868</ele>
        <time>2021-06-16T14:03:27Z</time>
      </trkpt>
      <trkpt lat="36.752767" lon="-4.118768">
        <ele>44.926</ele>
        <time>2021-06-16T14:03:29Z</time>
      </trkpt>
      <trkpt lat="36.752641" lon="-4.119">
        <ele>45.730</ele>
        <time>2021-06-16T14:03:30Z</time>
      </trkpt>
      <trkpt lat="36.752437" lon="-4.119378">
        <ele>46.939</ele>
        <time>2021-06-16T14:03:32Z</time>
      </trkpt>
      <trkpt lat="36.75221" lon="-4.119811">
        <ele>47.892</ele>
        <time>2021-06-16T14:03:34Z</time>
      </trkpt>
      <trkpt lat="36.752015" lon="-4.12017">
        <ele>49.369</ele>
        <time>2021-06-16T14:03:36Z</time>
      </trkpt>
      <trkpt lat="36.751802" lon="-4.120563">
        <ele>50.976</ele>
        <time>2021-06-16T14:03:38Z</time>
      </trkpt>
      <trkpt lat="36.751683" lon="-4.120787">
        <ele>52.826</ele>
        <time>2021-06-16T14:03:39Z</time>
      </trkpt>
      <trkpt lat="36.751492" lon="-4.121152">
        <ele>54.958</ele>
        <time>2021-06-16T14:03:41Z</time>
      </trkpt>
      <trkpt lat="36.751384" lon="-4.121355">
        <ele>57.352</ele>
        <time>2021-06-16T14:03:42Z</time>
      </trkpt>
      <trkpt lat="36.751265" lon="-4.12158">
        <ele>58.517</ele>
        <time>2021-06-16T14:03:43Z</time>
      </trkpt>
      <trkpt lat="36.751069" lon="-4.121945">
        <ele>59.908</ele>
        <time>2021-06-16T14:03:45Z</time>
      </trkpt>
      <trkpt lat="36.750959" lon="-4.122149">
        <ele>61.162</ele>
        <time>2021-06-16T14:03:46Z</time>
      </trkpt>
      <trkpt lat="36.750726" lon="-4.122592">
        <ele>63.120</ele>
        <time>2021-06-16T14:03:48Z</time>
      </trkpt>
      <trkpt lat="36.750527" lon="-4.12297">
        <ele>64.524</ele>
        <time>2021-06-16T14:03:50Z</time>
      </trkpt>
      <trkpt lat="36.750416" lon="-4.12318">
        <ele>65.963</ele>
        <time>2021-06-16T14:03:51Z</time>
      </trkpt>
      <trkpt lat="36.750289" lon="-4.123413">
        <ele>66.546</ele>
        <time>2021-06-16T14:03:52Z</time>
      </trkpt>
      <trkpt lat="36.750082" lon="-4.123792">
        <ele>67.213</ele>
        <time>2021-06-16T14:03:54Z</time>
      </trkpt>
      <trkpt lat="36.749969" lon="-4.124003">
        <ele>67.970</ele>
        <time>2021-06-16T14:03:55Z</time>
      </trkpt>
      <trkpt lat="36.749848" lon="-4.124233">
        <ele>68.650</ele>
        <time>2021-06-16T14:03:56Z</time>
      </trkpt>
      <trkpt lat="36.749648" lon="-4.124615">
        <ele>70.138</ele>
        <time>2021-06-16T14:03:58Z</time>
      </trkpt>
      <trkpt lat="36.749533" lon="-4.124824">
        <ele>71.470</ele>
        <time>2021-06-16T14:03:59Z</time>
      </trkpt>
      <trkpt lat="36.749422" lon="-4.12503">
        <ele>72.317</ele>
        <time>2021-06-16T14:04:00Z</time>
      </trkpt>
      <trkpt lat="36.749296" lon="-4.125263">
        <ele>73.008</ele>
        <time>2021-06-16T14:04:01Z</time>
      </trkpt>
      <trkpt lat="36.749091" lon="-4.125649">
        <ele>74.460</ele>
        <time>2021-06-16T14:04:03Z</time>
      </trkpt>
      <trkpt lat="36.748978" lon="-4.125865">
        <ele>75.268</ele>
        <time>2021-06-16T14:04:04Z</time>
      </trkpt>
      <trkpt lat="36.748853" lon="-4.126105">
        <ele>75.922</ele>
        <time>2021-06-16T14:04:05Z</time>
      </trkpt>
      <trkpt lat="36.748644" lon="-4.126494">
        <ele>76.911</ele>
        <time>2021-06-16T14:04:07Z</time>
      </trkpt>
      <trkpt lat="36.748532" lon="-4.126705">
        <ele>78.064</ele>
        <time>2021-06-16T14:04:08Z</time>
      </trkpt>
      <trkpt lat="36.748422" lon="-4.126914">
        <ele>78.951</ele>
        <time>2021-06-16T14:04:09Z</time>
      </trkpt>
      <trkpt lat="36.748303" lon="-4.12715">
        <ele>79.678</ele>
        <time>2021-06-16T14:04:10Z</time>
      </trkpt>
      <trkpt lat="36.748105" lon="-4.127527">
        <ele>80.918</ele>
        <time>2021-06-16T14:04:12Z</time>
      </trkpt>
      <trkpt lat="36.747991" lon="-4.127737">
        <ele>81.673</ele>
        <time>2021-06-16T14:04:13Z</time>
      </trkpt>
      <trkpt lat="36.747862" lon="-4.127969">
        <ele>82.385</ele>
        <time>2021-06-16T14:04:14Z</time>
      </trkpt>
      <trkpt lat="36.747667" lon="-4.128351">
        <ele>82.913</ele>
        <time>2021-06-16T14:04:16Z</time>
      </trkpt>
      <trkpt lat="36.747459" lon="-4.12877">
        <ele>84.008</ele>
        <time>2021-06-16T14:04:18Z</time>
      </trkpt>
      <trkpt lat="36.747342" lon="-4.129002">
        <ele>84.954</ele>
        <time>2021-06-16T14:04:19Z</time>
      </trkpt>
      <trkpt lat="36.747162" lon="-4.129375">
        <ele>85.742</ele>
        <time>2021-06-16T14:04:21Z</time>
      </trkpt>
      <trkpt lat="36.747066" lon="-4.129578">
        <ele>86.586</ele>
        <time>2021-06-16T14:04:22Z</time>
      </trkpt>
      <trkpt lat="36.74696" lon="-4.129809">
        <ele>87.185</ele>
        <time>2021-06-16T14:04:23Z</time>
      </trkpt>
      <trkpt lat="36.746791" lon="-4.130195">
        <ele>87.788</ele>
        <time>2021-06-16T14:04:25Z</time>
      </trkpt>
      <trkpt lat="36.746611" lon="-4.130631">
        <ele>88.755</ele>
        <time>2021-06-16T14:04:27Z</time>
      </trkpt>
      <trkpt lat="36.746526" lon="-4.130852">
        <ele>89.972</ele>
        <time>2021-06-16T14:04:28Z</time>
      </trkpt>
      <trkpt lat="36.746367" lon="-4.131303">
        <ele>91.282</ele>
        <time>2021-06-16T14:04:30Z</time>
      </trkpt>
      <trkpt lat="36.74621" lon="-4.131751">
        <ele>92.593</ele>
        <time>2021-06-16T14:04:32Z</time>
      </trkpt>
      <trkpt lat="36.746066" lon="-4.132204">
        <ele>93.965</ele>
        <time>2021-06-16T14:04:34Z</time>
      </trkpt>
      <trkpt lat="36.74594" lon="-4.132656">
        <ele>95.621</ele>
        <time>2021-06-16T14:04:36Z</time>
      </trkpt>
      <trkpt lat="36.745885" lon="-4.132882">
        <ele>96.708</ele>
        <time>2021-06-16T14:04:37Z</time>
      </trkpt>
      <trkpt lat="36.74583" lon="-4.133109">
        <ele>97.746</ele>
        <time>2021-06-16T14:04:38Z</time>
      </trkpt>
      <trkpt lat="36.745727" lon="-4.133568">
        <ele>99.194</ele>
        <time>2021-06-16T14:04:40Z</time>
      </trkpt>
      <trkpt lat="36.745679" lon="-4.133804">
        <ele>100.398</ele>
        <time>2021-06-16T14:04:41Z</time>
      </trkpt>
      <trkpt lat="36.745593" lon="-4.134275">
        <ele>101.397</ele>
        <time>2021-06-16T14:04:43Z</time>
      </trkpt>
      <trkpt lat="36.745552" lon="-4.134518">
        <ele>102.480</ele>
        <time>2021-06-16T14:04:44Z</time>
      </trkpt>
      <trkpt lat="36.745474" lon="-4.134992">
        <ele>103.677</ele>
        <time>2021-06-16T14:04:46Z</time>
      </trkpt>
      <trkpt lat="36.745415" lon="-4.135474">
        <ele>105.264</ele>
        <time>2021-06-16T14:04:48Z</time>
      </trkpt>
      <trkpt lat="36.745367" lon="-4.135956">
        <ele>107.014</ele>
        <time>2021-06-16T14:04:50Z</time>
      </trkpt>
      <trkpt lat="36.74535" lon="-4.1362">
        <ele>108.667</ele>
        <time>2021-06-16T14:04:51Z</time>
      </trkpt>
      <trkpt lat="36.745333" lon="-4.136445">
        <ele>109.881</ele>
        <time>2021-06-16T14:04:52Z</time>
      </trkpt>
      <trkpt lat="36.745314" lon="-4.136722">
        <ele>110.919</ele>
        <time>2021-06-16T14:04:53Z</time>
      </trkpt>
      <trkpt lat="36.745291" lon="-4.137186">
        <ele>112.208</ele>
        <time>2021-06-16T14:04:55Z</time>
      </trkpt>
      <trkpt lat="36.745283" lon="-4.13744">
        <ele>113.113</ele>
        <time>2021-06-16T14:04:56Z</time>
      </trkpt>
      <trkpt lat="36.745278" lon="-4.137724">
        <ele>114.461</ele>
        <time>2021-06-16T14:04:57Z</time>
      </trkpt>
      <trkpt lat="36.745283" lon="-4.138193">
        <ele>115.625</ele>
        <time>2021-06-16T14:04:59Z</time>
      </trkpt>
      <trkpt lat="36.745297" lon="-4.138716">
        <ele>117.334</ele>
        <time>2021-06-16T14:05:01Z</time>
      </trkpt>
      <trkpt lat="36.745323" lon="-4.13921">
        <ele>118.267</ele>
        <time>2021-06-16T14:05:03Z</time>
      </trkpt>
      <trkpt lat="36.745341" lon="-4.139456">
        <ele>119.344</ele>
        <time>2021-06-16T14:05:04Z</time>
      </trkpt>
      <trkpt lat="36.745361" lon="-4.139731">
        <ele>120.291</ele>
        <time>2021-06-16T14:05:05Z</time>
      </trkpt>
      <trkpt lat="36.745404" lon="-4.140171">
        <ele>121.581</ele>
        <time>2021-06-16T14:05:07Z</time>
      </trkpt>
      <trkpt lat="36.745432" lon="-4.14041">
        <ele>122.632</ele>
        <time>2021-06-16T14:05:08Z</time>
      </trkpt>
      <trkpt lat="36.745464" lon="-4.140658">
        <ele>123.392</ele>
        <time>2021-06-16T14:05:09Z</time>
      </trkpt>
      <trkpt lat="36.745528" lon="-4.14112">
        <ele>125.011</ele>
        <time>2021-06-16T14:05:11Z</time>
      </trkpt>
      <trkpt lat="36.745567" lon="-4.141358">
        <ele>126.408</ele>
        <time>2021-06-16T14:05:12Z</time>
      </trkpt>
      <trkpt lat="36.745655" lon="-4.141828">
        <ele>127.990</ele>
        <time>2021-06-16T14:05:14Z</time>
      </trkpt>
      <trkpt lat="36.745754" lon="-4.142293">
        <ele>129.588</ele>
        <time>2021-06-16T14:05:16Z</time>
      </trkpt>
      <trkpt lat="36.745866" lon="-4.142788">
        <ele>131.322</ele>
        <time>2021-06-16T14:05:18Z</time>
      </trkpt>
      <trkpt lat="36.745958" lon="-4.14323">
        <ele>133.781</ele>
        <time>2021-06-16T14:05:20Z</time>
      </trkpt>
      <trkpt lat="36.746081" lon="-4.14374">
        <ele>135.964</ele>
        <time>2021-06-16T14:05:22Z</time>
      </trkpt>
      <trkpt lat="36.74619" lon="-4.144176">
        <ele>137.781</ele>
        <time>2021-06-16T14:05:24Z</time>
      </trkpt>
      <trkpt lat="36.746247" lon="-4.144413">
        <ele>139.058</ele>
        <time>2021-06-16T14:05:25Z</time>
      </trkpt>
      <trkpt lat="36.74636" lon="-4.14488">
        <ele>140.458</ele>
        <time>2021-06-16T14:05:27Z</time>
      </trkpt>
      <trkpt lat="36.746414" lon="-4.145117">
        <ele>141.229</ele>
        <time>2021-06-16T14:05:28Z</time>
      </trkpt>
      <trkpt lat="36.746468" lon="-4.145353">
        <ele>142.400</ele>
        <time>2021-06-16T14:05:29Z</time>
      </trkpt>
      <trkpt lat="36.746524" lon="-4.14562">
        <ele>143.320</ele>
        <time>2021-06-16T14:05:30Z</time>
      </trkpt>
      <trkpt lat="36.746611" lon="-4.146051">
        <ele>144.508</ele>
        <time>2021-06-16T14:05:32Z</time>
      </trkpt>
      <trkpt lat="36.746657" lon="-4.146286">
        <ele>145.359</ele>
        <time>2021-06-16T14:05:33Z</time>
      </trkpt>
      <trkpt lat="36.746745" lon="-4.146783">
        <ele>145.847</ele>
        <time>2021-06-16T14:05:35Z</time>
      </trkpt>
      <trkpt lat="36.746801" lon="-4.147229">
        <ele>146.691</ele>
        <time>2021-06-16T14:05:37Z</time>
      </trkpt>
      <trkpt lat="36.74686" lon="-4.147754">
        <ele>147.660</ele>
        <time>2021-06-16T14:05:39Z</time>
      </trkpt>
      <trkpt lat="36.746915" lon="-4.148207">
        <ele>148.583</ele>
        <time>2021-06-16T14:05:41Z</time>
      </trkpt>
      <trkpt lat="36.746939" lon="-4.148459">
        <ele>149.160</ele>
        <time>2021-06-16T14:05:42Z</time>
      </trkpt>
      <trkpt lat="36.746979" lon="-4.148985">
        <ele>149.637</ele>
        <time>2021-06-16T14:05:44Z</time>
      </trkpt>
      <trkpt lat="36.746994" lon="-4.149445">
        <ele>150.037</ele>
        <time>2021-06-16T14:05:46Z</time>
      </trkpt>
      <trkpt lat="36.746999" lon="-4.1497">
        <ele>150.389</ele>
        <time>2021-06-16T14:05:47Z</time>
      </trkpt>
      <trkpt lat="36.747007" lon="-4.149985">
        <ele>150.606</ele>
        <time>2021-06-16T14:05:48Z</time>
      </trkpt>
      <trkpt lat="36.747018" lon="-4.150453">
        <ele>151.126</ele>
        <time>2021-06-16T14:05:50Z</time>
      </trkpt>
      <trkpt lat="36.747024" lon="-4.150711">
        <ele>151.808</ele>
        <time>2021-06-16T14:05:51Z</time>
      </trkpt>
      <trkpt lat="36.747028" lon="-4.150995">
        <ele>152.045</ele>
        <time>2021-06-16T14:05:52Z</time>
      </trkpt>
      <trkpt lat="36.747024" lon="-4.15147">
        <ele>152.973</ele>
        <time>2021-06-16T14:05:54Z</time>
      </trkpt>
      <trkpt lat="36.747038" lon="-4.152013">
        <ele>153.887</ele>
        <time>2021-06-16T14:05:56Z</time>
      </trkpt>
      <trkpt lat="36.747064" lon="-4.152484">
        <ele>154.266</ele>
        <time>2021-06-16T14:05:58Z</time>
      </trkpt>
      <trkpt lat="36.747085" lon="-4.152742">
        <ele>154.529</ele>
        <time>2021-06-16T14:05:59Z</time>
      </trkpt>
      <trkpt lat="36.747142" lon="-4.153274">
        <ele>154.796</ele>
        <time>2021-06-16T14:06:01Z</time>
      </trkpt>
      <trkpt lat="36.747211" lon="-4.15371">
        <ele>154.963</ele>
        <time>2021-06-16T14:06:03Z</time>
      </trkpt>
      <trkpt lat="36.747249" lon="-4.153956">
        <ele>155.133</ele>
        <time>2021-06-16T14:06:04Z</time>
      </trkpt>
      <trkpt lat="36.747294" lon="-4.154228">
        <ele>155.547</ele>
        <time>2021-06-16T14:06:05Z</time>
      </trkpt>
      <trkpt lat="36.747381" lon="-4.154671">
        <ele>155.529</ele>
        <time>2021-06-16T14:06:07Z</time>
      </trkpt>
      <trkpt lat="36.747496" lon="-4.155145">
        <ele>154.921</ele>
        <time>2021-06-16T14:06:09Z</time>
      </trkpt>
      <trkpt lat="36.747564" lon="-4.155404">
        <ele>154.608</ele>
        <time>2021-06-16T14:06:10Z</time>
      </trkpt>
      <trkpt lat="36.747681" lon="-4.155811">
        <ele>154.751</ele>
        <time>2021-06-16T14:06:12Z</time>
      </trkpt>
      <trkpt lat="36.747837" lon="-4.156281">
        <ele>155.149</ele>
        <time>2021-06-16T14:06:14Z</time>
      </trkpt>
      <trkpt lat="36.747989" lon="-4.156684">
        <ele>154.653</ele>
        <time>2021-06-16T14:06:16Z</time>
      </trkpt>
      <trkpt lat="36.748162" lon="-4.157146">
        <ele>155.052</ele>
        <time>2021-06-16T14:06:18Z</time>
      </trkpt>
      <trkpt lat="36.748256" lon="-4.157414">
        <ele>155.375</ele>
        <time>2021-06-16T14:06:19Z</time>
      </trkpt>
      <trkpt lat="36.748434" lon="-4.157823">
        <ele>155.512</ele>
        <time>2021-06-16T14:06:21Z</time>
      </trkpt>
      <trkpt lat="36.748533" lon="-4.15805">
        <ele>155.899</ele>
        <time>2021-06-16T14:06:22Z</time>
      </trkpt>
      <trkpt lat="36.748644" lon="-4.158307">
        <ele>156.379</ele>
        <time>2021-06-16T14:06:23Z</time>
      </trkpt>
      <trkpt lat="36.748821" lon="-4.158734">
        <ele>157.023</ele>
        <time>2021-06-16T14:06:25Z</time>
      </trkpt>
      <trkpt lat="36.749015" lon="-4.159205">
        <ele>158.183</ele>
        <time>2021-06-16T14:06:27Z</time>
      </trkpt>
      <trkpt lat="36.749173" lon="-4.15965">
        <ele>159.111</ele>
        <time>2021-06-16T14:06:29Z</time>
      </trkpt>
      <trkpt lat="36.749248" lon="-4.159886">
        <ele>159.808</ele>
        <time>2021-06-16T14:06:30Z</time>
      </trkpt>
      <trkpt lat="36.749329" lon="-4.160154">
        <ele>159.979</ele>
        <time>2021-06-16T14:06:31Z</time>
      </trkpt>
      <trkpt lat="36.749445" lon="-4.160599">
        <ele>160.367</ele>
        <time>2021-06-16T14:06:33Z</time>
      </trkpt>
      <trkpt lat="36.749568" lon="-4.161099">
        <ele>160.771</ele>
        <time>2021-06-16T14:06:35Z</time>
      </trkpt>
      <trkpt lat="36.749627" lon="-4.16138">
        <ele>160.910</ele>
        <time>2021-06-16T14:06:36Z</time>
      </trkpt>
      <trkpt lat="36.749708" lon="-4.161841">
        <ele>161.053</ele>
        <time>2021-06-16T14:06:38Z</time>
      </trkpt>
      <trkpt lat="36.749745" lon="-4.162094">
        <ele>161.410</ele>
        <time>2021-06-16T14:06:39Z</time>
      </trkpt>
      <trkpt lat="36.749775" lon="-4.162345">
        <ele>161.657</ele>
        <time>2021-06-16T14:06:40Z</time>
      </trkpt>
      <trkpt lat="36.749827" lon="-4.162845">
        <ele>162.027</ele>
        <time>2021-06-16T14:06:42Z</time>
      </trkpt>
      <trkpt lat="36.749847" lon="-4.163094">
        <ele>162.366</ele>
        <time>2021-06-16T14:06:43Z</time>
      </trkpt>
      <trkpt lat="36.749864" lon="-4.16335">
        <ele>162.229</ele>
        <time>2021-06-16T14:06:44Z</time>
      </trkpt>
      <trkpt lat="36.749878" lon="-4.163833">
        <ele>161.921</ele>
        <time>2021-06-16T14:06:46Z</time>
      </trkpt>
      <trkpt lat="36.74988" lon="-4.164085">
        <ele>161.608</ele>
        <time>2021-06-16T14:06:47Z</time>
      </trkpt>
      <trkpt lat="36.749876" lon="-4.164369">
        <ele>161.023</ele>
        <time>2021-06-16T14:06:48Z</time>
      </trkpt>
      <trkpt lat="36.74985" lon="-4.164836">
        <ele>160.791</ele>
        <time>2021-06-16T14:06:50Z</time>
      </trkpt>
      <trkpt lat="36.749833" lon="-4.16509">
        <ele>160.595</ele>
        <time>2021-06-16T14:06:51Z</time>
      </trkpt>
      <trkpt lat="36.74978" lon="-4.165603">
        <ele>160.224</ele>
        <time>2021-06-16T14:06:53Z</time>
      </trkpt>
      <trkpt lat="36.749717" lon="-4.166109">
        <ele>159.537</ele>
        <time>2021-06-16T14:06:55Z</time>
      </trkpt>
      <trkpt lat="36.749635" lon="-4.166607">
        <ele>159.154</ele>
        <time>2021-06-16T14:06:57Z</time>
      </trkpt>
      <trkpt lat="36.749587" lon="-4.166857">
        <ele>159.021</ele>
        <time>2021-06-16T14:06:58Z</time>
      </trkpt>
      <trkpt lat="36.749473" lon="-4.167345">
        <ele>158.521</ele>
        <time>2021-06-16T14:07:00Z</time>
      </trkpt>
      <trkpt lat="36.749412" lon="-4.167588">
        <ele>158.566</ele>
        <time>2021-06-16T14:07:01Z</time>
      </trkpt>
      <trkpt lat="36.749348" lon="-4.167825">
        <ele>158.129</ele>
        <time>2021-06-16T14:07:02Z</time>
      </trkpt>
      <trkpt lat="36.749201" lon="-4.16829">
        <ele>157.621</ele>
        <time>2021-06-16T14:07:04Z</time>
      </trkpt>
      <trkpt lat="36.749117" lon="-4.168552">
        <ele>157.208</ele>
        <time>2021-06-16T14:07:05Z</time>
      </trkpt>
      <trkpt lat="36.748966" lon="-4.168981">
        <ele>156.463</ele>
        <time>2021-06-16T14:07:07Z</time>
      </trkpt>
      <trkpt lat="36.748874" lon="-4.169211">
        <ele>155.931</ele>
        <time>2021-06-16T14:07:08Z</time>
      </trkpt>
      <trkpt lat="36.748772" lon="-4.169442">
        <ele>155.585</ele>
        <time>2021-06-16T14:07:09Z</time>
      </trkpt>
      <trkpt lat="36.74857" lon="-4.169887">
        <ele>154.314</ele>
        <time>2021-06-16T14:07:11Z</time>
      </trkpt>
      <trkpt lat="36.748457" lon="-4.170108">
        <ele>153.597</ele>
        <time>2021-06-16T14:07:12Z</time>
      </trkpt>
      <trkpt lat="36.748329" lon="-4.170356">
        <ele>152.654</ele>
        <time>2021-06-16T14:07:13Z</time>
      </trkpt>
      <trkpt lat="36.748112" lon="-4.170765">
        <ele>150.731</ele>
        <time>2021-06-16T14:07:15Z</time>
      </trkpt>
      <trkpt lat="36.747991" lon="-4.170993">
        <ele>149.671</ele>
        <time>2021-06-16T14:07:16Z</time>
      </trkpt>
      <trkpt lat="36.747863" lon="-4.17123">
        <ele>148.318</ele>
        <time>2021-06-16T14:07:17Z</time>
      </trkpt>
      <trkpt lat="36.747634" lon="-4.171667">
        <ele>146.698</ele>
        <time>2021-06-16T14:07:19Z</time>
      </trkpt>
      <trkpt lat="36.747517" lon="-4.171896">
        <ele>145.217</ele>
        <time>2021-06-16T14:07:20Z</time>
      </trkpt>
      <trkpt lat="36.74739" lon="-4.172153">
        <ele>144.008</ele>
        <time>2021-06-16T14:07:21Z</time>
      </trkpt>
      <trkpt lat="36.747194" lon="-4.172587">
        <ele>142.188</ele>
        <time>2021-06-16T14:07:23Z</time>
      </trkpt>
      <trkpt lat="36.747093" lon="-4.172831">
        <ele>140.796</ele>
        <time>2021-06-16T14:07:24Z</time>
      </trkpt>
      <trkpt lat="36.746997" lon="-4.173075">
        <ele>139.330</ele>
        <time>2021-06-16T14:07:25Z</time>
      </trkpt>
      <trkpt lat="36.746894" lon="-4.17335">
        <ele>137.999</ele>
        <time>2021-06-16T14:07:26Z</time>
      </trkpt>
      <trkpt lat="36.746746" lon="-4.173795">
        <ele>136.622</ele>
        <time>2021-06-16T14:07:28Z</time>
      </trkpt>
      <trkpt lat="36.746668" lon="-4.174042">
        <ele>135.259</ele>
        <time>2021-06-16T14:07:29Z</time>
      </trkpt>
      <trkpt lat="36.746588" lon="-4.174311">
        <ele>134.216</ele>
        <time>2021-06-16T14:07:30Z</time>
      </trkpt>
      <trkpt lat="36.746472" lon="-4.174772">
        <ele>132.496</ele>
        <time>2021-06-16T14:07:32Z</time>
      </trkpt>
      <trkpt lat="36.746366" lon="-4.175279">
        <ele>130.089</ele>
        <time>2021-06-16T14:07:34Z</time>
      </trkpt>
      <trkpt lat="36.746312" lon="-4.175568">
        <ele>128.606</ele>
        <time>2021-06-16T14:07:35Z</time>
      </trkpt>
      <trkpt lat="36.746242" lon="-4.176036">
        <ele>127.126</ele>
        <time>2021-06-16T14:07:37Z</time>
      </trkpt>
      <trkpt lat="36.746205" lon="-4.176298">
        <ele>126.008</ele>
        <time>2021-06-16T14:07:38Z</time>
      </trkpt>
      <trkpt lat="36.74617" lon="-4.176578">
        <ele>124.355</ele>
        <time>2021-06-16T14:07:39Z</time>
      </trkpt>
      <trkpt lat="36.746103" lon="-4.177078">
        <ele>122.853</ele>
        <time>2021-06-16T14:07:41Z</time>
      </trkpt>
      <trkpt lat="36.746016" lon="-4.177606">
        <ele>121.527</ele>
        <time>2021-06-16T14:07:43Z</time>
      </trkpt>
      <trkpt lat="36.745969" lon="-4.177868">
        <ele>120.336</ele>
        <time>2021-06-16T14:07:44Z</time>
      </trkpt>
      <trkpt lat="36.745853" lon="-4.178382">
        <ele>119.459</ele>
        <time>2021-06-16T14:07:46Z</time>
      </trkpt>
      <trkpt lat="36.74578" lon="-4.178666">
        <ele>118.466</ele>
        <time>2021-06-16T14:07:47Z</time>
      </trkpt>
      <trkpt lat="36.745653" lon="-4.179128">
        <ele>117.243</ele>
        <time>2021-06-16T14:07:49Z</time>
      </trkpt>
      <trkpt lat="36.745493" lon="-4.179631">
        <ele>115.823</ele>
        <time>2021-06-16T14:07:51Z</time>
      </trkpt>
      <trkpt lat="36.7454" lon="-4.179915">
        <ele>114.254</ele>
        <time>2021-06-16T14:07:52Z</time>
      </trkpt>
      <trkpt lat="36.745223" lon="-4.18037">
        <ele>112.656</ele>
        <time>2021-06-16T14:07:54Z</time>
      </trkpt>
      <trkpt lat="36.745119" lon="-4.180617">
        <ele>111.011</ele>
        <time>2021-06-16T14:07:55Z</time>
      </trkpt>
      <trkpt lat="36.744999" lon="-4.180892">
        <ele>109.708</ele>
        <time>2021-06-16T14:07:56Z</time>
      </trkpt>
      <trkpt lat="36.744784" lon="-4.181335">
        <ele>108.412</ele>
        <time>2021-06-16T14:07:58Z</time>
      </trkpt>
      <trkpt lat="36.744661" lon="-4.181572">
        <ele>107.540</ele>
        <time>2021-06-16T14:07:59Z</time>
      </trkpt>
      <trkpt lat="36.744412" lon="-4.182022">
        <ele>106.764</ele>
        <time>2021-06-16T14:08:01Z</time>
      </trkpt>
      <trkpt lat="36.744288" lon="-4.182238">
        <ele>105.923</ele>
        <time>2021-06-16T14:08:02Z</time>
      </trkpt>
      <trkpt lat="36.744034" lon="-4.182659">
        <ele>105.166</ele>
        <time>2021-06-16T14:08:04Z</time>
      </trkpt>
      <trkpt lat="36.743886" lon="-4.182896">
        <ele>104.513</ele>
        <time>2021-06-16T14:08:05Z</time>
      </trkpt>
      <trkpt lat="36.743634" lon="-4.183255">
        <ele>104.230</ele>
        <time>2021-06-16T14:08:07Z</time>
      </trkpt>
      <trkpt lat="36.743328" lon="-4.183652">
        <ele>104.330</ele>
        <time>2021-06-16T14:08:09Z</time>
      </trkpt>
      <trkpt lat="36.743054" lon="-4.183975">
        <ele>103.949</ele>
        <time>2021-06-16T14:08:11Z</time>
      </trkpt>
      <trkpt lat="36.7429" lon="-4.184146">
        <ele>104.002</ele>
        <time>2021-06-16T14:08:12Z</time>
      </trkpt>
      <trkpt lat="36.742743" lon="-4.184315">
        <ele>104.422</ele>
        <time>2021-06-16T14:08:13Z</time>
      </trkpt>
      <trkpt lat="36.742568" lon="-4.184504">
        <ele>105.108</ele>
        <time>2021-06-16T14:08:14Z</time>
      </trkpt>
      <trkpt lat="36.742269" lon="-4.18481">
        <ele>106.371</ele>
        <time>2021-06-16T14:08:16Z</time>
      </trkpt>
      <trkpt lat="36.742102" lon="-4.184977">
        <ele>107.449</ele>
        <time>2021-06-16T14:08:17Z</time>
      </trkpt>
      <trkpt lat="36.741915" lon="-4.185158">
        <ele>108.723</ele>
        <time>2021-06-16T14:08:18Z</time>
      </trkpt>
      <trkpt lat="36.741611" lon="-4.185439">
        <ele>110.172</ele>
        <time>2021-06-16T14:08:20Z</time>
      </trkpt>
      <trkpt lat="36.741254" lon="-4.185762">
        <ele>111.885</ele>
        <time>2021-06-16T14:08:22Z</time>
      </trkpt>
      <trkpt lat="36.740951" lon="-4.186043">
        <ele>112.822</ele>
        <time>2021-06-16T14:08:24Z</time>
      </trkpt>
      <trkpt lat="36.740785" lon="-4.186199">
        <ele>113.919</ele>
        <time>2021-06-16T14:08:25Z</time>
      </trkpt>
      <trkpt lat="36.740448" lon="-4.18652">
        <ele>114.969</ele>
        <time>2021-06-16T14:08:27Z</time>
      </trkpt>
      <trkpt lat="36.740161" lon="-4.186798">
        <ele>116.232</ele>
        <time>2021-06-16T14:08:29Z</time>
      </trkpt>
      <trkpt lat="36.740003" lon="-4.186955">
        <ele>117.192</ele>
        <time>2021-06-16T14:08:30Z</time>
      </trkpt>
      <trkpt lat="36.739825" lon="-4.187139">
        <ele>117.911</ele>
        <time>2021-06-16T14:08:31Z</time>
      </trkpt>
      <trkpt lat="36.739542" lon="-4.187438">
        <ele>119.008</ele>
        <time>2021-06-16T14:08:33Z</time>
      </trkpt>
      <trkpt lat="36.739388" lon="-4.187605">
        <ele>120.470</ele>
        <time>2021-06-16T14:08:34Z</time>
      </trkpt>
      <trkpt lat="36.739234" lon="-4.187775">
        <ele>121.578</ele>
        <time>2021-06-16T14:08:35Z</time>
      </trkpt>
      <trkpt lat="36.739066" lon="-4.187964">
        <ele>122.742</ele>
        <time>2021-06-16T14:08:36Z</time>
      </trkpt>
      <trkpt lat="36.738793" lon="-4.188289">
        <ele>124.271</ele>
        <time>2021-06-16T14:08:38Z</time>
      </trkpt>
      <trkpt lat="36.738649" lon="-4.188475">
        <ele>125.434</ele>
        <time>2021-06-16T14:08:39Z</time>
      </trkpt>
      <trkpt lat="36.738502" lon="-4.188669">
        <ele>126.681</ele>
        <time>2021-06-16T14:08:40Z</time>
      </trkpt>
      <trkpt lat="36.738238" lon="-4.189034">
        <ele>128.328</ele>
        <time>2021-06-16T14:08:42Z</time>
      </trkpt>
      <trkpt lat="36.738102" lon="-4.189226">
        <ele>129.018</ele>
        <time>2021-06-16T14:08:43Z</time>
      </trkpt>
      <trkpt lat="36.737966" lon="-4.189423">
        <ele>130.024</ele>
        <time>2021-06-16T14:08:44Z</time>
      </trkpt>
      <trkpt lat="36.737725" lon="-4.189813">
        <ele>131.204</ele>
        <time>2021-06-16T14:08:46Z</time>
      </trkpt>
      <trkpt lat="36.737487" lon="-4.190226">
        <ele>132.314</ele>
        <time>2021-06-16T14:08:48Z</time>
      </trkpt>
      <trkpt lat="36.737261" lon="-4.19065">
        <ele>133.208</ele>
        <time>2021-06-16T14:08:50Z</time>
      </trkpt>
      <trkpt lat="36.737151" lon="-4.190867">
        <ele>134.269</ele>
        <time>2021-06-16T14:08:51Z</time>
      </trkpt>
      <trkpt lat="36.737033" lon="-4.191106">
        <ele>135.087</ele>
        <time>2021-06-16T14:08:52Z</time>
      </trkpt>
      <trkpt lat="36.736846" lon="-4.191515">
        <ele>135.511</ele>
        <time>2021-06-16T14:08:54Z</time>
      </trkpt>
      <trkpt lat="36.736752" lon="-4.19174">
        <ele>136.190</ele>
        <time>2021-06-16T14:08:55Z</time>
      </trkpt>
      <trkpt lat="36.736652" lon="-4.191995">
        <ele>136.563</ele>
        <time>2021-06-16T14:08:56Z</time>
      </trkpt>
      <trkpt lat="36.736503" lon="-4.192409">
        <ele>136.980</ele>
        <time>2021-06-16T14:08:58Z</time>
      </trkpt>
      <trkpt lat="36.736424" lon="-4.192641">
        <ele>137.367</ele>
        <time>2021-06-16T14:08:59Z</time>
      </trkpt>
      <trkpt lat="36.736338" lon="-4.192903">
        <ele>137.767</ele>
        <time>2021-06-16T14:09:00Z</time>
      </trkpt>
      <trkpt lat="36.736203" lon="-4.193332">
        <ele>138.085</ele>
        <time>2021-06-16T14:09:02Z</time>
      </trkpt>
      <trkpt lat="36.736133" lon="-4.193568">
        <ele>138.089</ele>
        <time>2021-06-16T14:09:03Z</time>
      </trkpt>
      <trkpt lat="36.735994" lon="-4.194078">
        <ele>137.917</ele>
        <time>2021-06-16T14:09:05Z</time>
      </trkpt>
      <trkpt lat="36.73589" lon="-4.194532">
        <ele>138.108</ele>
        <time>2021-06-16T14:09:07Z</time>
      </trkpt>
      <trkpt lat="36.735837" lon="-4.194784">
        <ele>138.315</ele>
        <time>2021-06-16T14:09:08Z</time>
      </trkpt>
      <trkpt lat="36.735781" lon="-4.195069">
        <ele>138.623</ele>
        <time>2021-06-16T14:09:09Z</time>
      </trkpt>
      <trkpt lat="36.735693" lon="-4.195542">
        <ele>138.757</ele>
        <time>2021-06-16T14:09:11Z</time>
      </trkpt>
      <trkpt lat="36.735644" lon="-4.195804">
        <ele>138.726</ele>
        <time>2021-06-16T14:09:12Z</time>
      </trkpt>
      <trkpt lat="36.735597" lon="-4.196064">
        <ele>138.449</ele>
        <time>2021-06-16T14:09:13Z</time>
      </trkpt>
      <trkpt lat="36.735544" lon="-4.196357">
        <ele>138.376</ele>
        <time>2021-06-16T14:09:14Z</time>
      </trkpt>
      <trkpt lat="36.735455" lon="-4.196831">
        <ele>137.953</ele>
        <time>2021-06-16T14:09:16Z</time>
      </trkpt>
      <trkpt lat="36.735406" lon="-4.197093">
        <ele>137.983</ele>
        <time>2021-06-16T14:09:17Z</time>
      </trkpt>
      <trkpt lat="36.735348" lon="-4.197386">
        <ele>137.322</ele>
        <time>2021-06-16T14:09:18Z</time>
      </trkpt>
      <trkpt lat="36.735245" lon="-4.197868">
        <ele>137.262</ele>
        <time>2021-06-16T14:09:20Z</time>
      </trkpt>
      <trkpt lat="36.735189" lon="-4.198124">
        <ele>136.708</ele>
        <time>2021-06-16T14:09:21Z</time>
      </trkpt>
      <trkpt lat="36.735059" lon="-4.198617">
        <ele>136.008</ele>
        <time>2021-06-16T14:09:23Z</time>
      </trkpt>
      <trkpt lat="36.73499" lon="-4.198858">
        <ele>135.419</ele>
        <time>2021-06-16T14:09:24Z</time>
      </trkpt>
      <trkpt lat="36.73492" lon="-4.199093">
        <ele>135.157</ele>
        <time>2021-06-16T14:09:25Z</time>
      </trkpt>
      <trkpt lat="36.734839" lon="-4.199354">
        <ele>134.731</ele>
        <time>2021-06-16T14:09:26Z</time>
      </trkpt>
      <trkpt lat="36.734697" lon="-4.199783">
        <ele>134.060</ele>
        <time>2021-06-16T14:09:28Z</time>
      </trkpt>
      <trkpt lat="36.734615" lon="-4.200015">
        <ele>133.563</ele>
        <time>2021-06-16T14:09:29Z</time>
      </trkpt>
      <trkpt lat="36.734529" lon="-4.200249">
        <ele>133.230</ele>
        <time>2021-06-16T14:09:30Z</time>
      </trkpt>
      <trkpt lat="36.73436" lon="-4.20069">
        <ele>132.877</ele>
        <time>2021-06-16T14:09:32Z</time>
      </trkpt>
      <trkpt lat="36.73416" lon="-4.201157">
        <ele>132.157</ele>
        <time>2021-06-16T14:09:34Z</time>
      </trkpt>
      <trkpt lat="36.733981" lon="-4.201549">
        <ele>131.227</ele>
        <time>2021-06-16T14:09:36Z</time>
      </trkpt>
      <trkpt lat="36.733771" lon="-4.201981">
        <ele>130.168</ele>
        <time>2021-06-16T14:09:38Z</time>
      </trkpt>
      <trkpt lat="36.733557" lon="-4.202384">
        <ele>129.214</ele>
        <time>2021-06-16T14:09:40Z</time>
      </trkpt>
      <trkpt lat="36.73332" lon="-4.202819">
        <ele>128.308</ele>
        <time>2021-06-16T14:09:42Z</time>
      </trkpt>
      <trkpt lat="36.733103" lon="-4.203182">
        <ele>127.599</ele>
        <time>2021-06-16T14:09:44Z</time>
      </trkpt>
      <trkpt lat="36.73298" lon="-4.203383">
        <ele>126.877</ele>
        <time>2021-06-16T14:09:45Z</time>
      </trkpt>
      <trkpt lat="36.732849" lon="-4.203582">
        <ele>126.681</ele>
        <time>2021-06-16T14:09:46Z</time>
      </trkpt>
      <trkpt lat="36.732705" lon="-4.203798">
        <ele>126.490</ele>
        <time>2021-06-16T14:09:47Z</time>
      </trkpt>
      <trkpt lat="36.732464" lon="-4.204145">
        <ele>125.793</ele>
        <time>2021-06-16T14:09:49Z</time>
      </trkpt>
      <trkpt lat="36.732186" lon="-4.20454">
        <ele>125.290</ele>
        <time>2021-06-16T14:09:51Z</time>
      </trkpt>
      <trkpt lat="36.731936" lon="-4.204879">
        <ele>124.597</ele>
        <time>2021-06-16T14:09:53Z</time>
      </trkpt>
      <trkpt lat="36.731794" lon="-4.205064">
        <ele>124.217</ele>
        <time>2021-06-16T14:09:54Z</time>
      </trkpt>
      <trkpt lat="36.731646" lon="-4.205254">
        <ele>123.854</ele>
        <time>2021-06-16T14:09:55Z</time>
      </trkpt>
      <trkpt lat="36.731372" lon="-4.205598">
        <ele>123.656</ele>
        <time>2021-06-16T14:09:57Z</time>
      </trkpt>
      <trkpt lat="36.731068" lon="-4.205967">
        <ele>123.111</ele>
        <time>2021-06-16T14:09:59Z</time>
      </trkpt>
      <trkpt lat="36.730809" lon="-4.206286">
        <ele>122.208</ele>
        <time>2021-06-16T14:10:01Z</time>
      </trkpt>
      <trkpt lat="36.730667" lon="-4.206465">
        <ele>121.482</ele>
        <time>2021-06-16T14:10:02Z</time>
      </trkpt>
      <trkpt lat="36.730387" lon="-4.20682">
        <ele>120.870</ele>
        <time>2021-06-16T14:10:04Z</time>
      </trkpt>
      <trkpt lat="36.730247" lon="-4.206991">
        <ele>120.144</ele>
        <time>2021-06-16T14:10:05Z</time>
      </trkpt>
      <trkpt lat="36.729972" lon="-4.207336">
        <ele>119.523</ele>
        <time>2021-06-16T14:10:07Z</time>
      </trkpt>
      <trkpt lat="36.729817" lon="-4.207534">
        <ele>119.016</ele>
        <time>2021-06-16T14:10:08Z</time>
      </trkpt>
      <trkpt lat="36.729564" lon="-4.207857">
        <ele>118.983</ele>
        <time>2021-06-16T14:10:10Z</time>
      </trkpt>
      <trkpt lat="36.729424" lon="-4.208039">
        <ele>118.810</ele>
        <time>2021-06-16T14:10:11Z</time>
      </trkpt>
      <trkpt lat="36.729134" lon="-4.208423">
        <ele>118.020</ele>
        <time>2021-06-16T14:10:13Z</time>
      </trkpt>
      <trkpt lat="36.728885" lon="-4.208756">
        <ele>117.475</ele>
        <time>2021-06-16T14:10:15Z</time>
      </trkpt>
      <trkpt lat="36.72875" lon="-4.208941">
        <ele>116.928</ele>
        <time>2021-06-16T14:10:16Z</time>
      </trkpt>
      <trkpt lat="36.728599" lon="-4.209149">
        <ele>116.420</ele>
        <time>2021-06-16T14:10:17Z</time>
      </trkpt>
      <trkpt lat="36.728359" lon="-4.209497">
        <ele>115.908</ele>
        <time>2021-06-16T14:10:19Z</time>
      </trkpt>
      <trkpt lat="36.728234" lon="-4.20969">
        <ele>115.464</ele>
        <time>2021-06-16T14:10:20Z</time>
      </trkpt>
      <trkpt lat="36.728106" lon="-4.209888">
        <ele>114.972</ele>
        <time>2021-06-16T14:10:21Z</time>
      </trkpt>
      <trkpt lat="36.727877" lon="-4.210267">
        <ele>114.426</ele>
        <time>2021-06-16T14:10:23Z</time>
      </trkpt>
      <trkpt lat="36.72776" lon="-4.210463">
        <ele>113.955</ele>
        <time>2021-06-16T14:10:24Z</time>
      </trkpt>
      <trkpt lat="36.727642" lon="-4.210662">
        <ele>113.628</ele>
        <time>2021-06-16T14:10:25Z</time>
      </trkpt>
      <trkpt lat="36.727419" lon="-4.211069">
        <ele>113.645</ele>
        <time>2021-06-16T14:10:27Z</time>
      </trkpt>
      <trkpt lat="36.727311" lon="-4.211273">
        <ele>113.452</ele>
        <time>2021-06-16T14:10:28Z</time>
      </trkpt>
      <trkpt lat="36.727205" lon="-4.211477">
        <ele>113.392</ele>
        <time>2021-06-16T14:10:29Z</time>
      </trkpt>
      <trkpt lat="36.727085" lon="-4.21171">
        <ele>113.266</ele>
        <time>2021-06-16T14:10:30Z</time>
      </trkpt>
      <trkpt lat="36.726894" lon="-4.2121">
        <ele>112.929</ele>
        <time>2021-06-16T14:10:32Z</time>
      </trkpt>
      <trkpt lat="36.726684" lon="-4.212566">
        <ele>112.321</ele>
        <time>2021-06-16T14:10:34Z</time>
      </trkpt>
      <trkpt lat="36.726514" lon="-4.212974">
        <ele>111.508</ele>
        <time>2021-06-16T14:10:36Z</time>
      </trkpt>
      <trkpt lat="36.72642" lon="-4.213202">
        <ele>111.013</ele>
        <time>2021-06-16T14:10:37Z</time>
      </trkpt>
      <trkpt lat="36.726236" lon="-4.213669">
        <ele>110.461</ele>
        <time>2021-06-16T14:10:39Z</time>
      </trkpt>
      <trkpt lat="36.726071" lon="-4.214122">
        <ele>109.655</ele>
        <time>2021-06-16T14:10:41Z</time>
      </trkpt>
      <trkpt lat="36.725988" lon="-4.214357">
        <ele>109.044</ele>
        <time>2021-06-16T14:10:42Z</time>
      </trkpt>
      <trkpt lat="36.725901" lon="-4.21462">
        <ele>108.287</ele>
        <time>2021-06-16T14:10:43Z</time>
      </trkpt>
      <trkpt lat="36.725774" lon="-4.21504">
        <ele>107.874</ele>
        <time>2021-06-16T14:10:45Z</time>
      </trkpt>
      <trkpt lat="36.725647" lon="-4.215497">
        <ele>107.061</ele>
        <time>2021-06-16T14:10:47Z</time>
      </trkpt>
      <trkpt lat="36.725586" lon="-4.215729">
        <ele>106.721</ele>
        <time>2021-06-16T14:10:48Z</time>
      </trkpt>
      <trkpt lat="36.725524" lon="-4.215961">
        <ele>106.297</ele>
        <time>2021-06-16T14:10:49Z</time>
      </trkpt>
      <trkpt lat="36.725408" lon="-4.216424">
        <ele>105.423</ele>
        <time>2021-06-16T14:10:51Z</time>
      </trkpt>
      <trkpt lat="36.725356" lon="-4.216658">
        <ele>104.825</ele>
        <time>2021-06-16T14:10:52Z</time>
      </trkpt>
      <trkpt lat="36.725254" lon="-4.217126">
        <ele>104.608</ele>
        <time>2021-06-16T14:10:54Z</time>
      </trkpt>
      <trkpt lat="36.725207" lon="-4.217361">
        <ele>104.466</ele>
        <time>2021-06-16T14:10:55Z</time>
      </trkpt>
      <trkpt lat="36.725161" lon="-4.217602">
        <ele>104.364</ele>
        <time>2021-06-16T14:10:56Z</time>
      </trkpt>
      <trkpt lat="36.725077" lon="-4.218072">
        <ele>103.718</ele>
        <time>2021-06-16T14:10:58Z</time>
      </trkpt>
      <trkpt lat="36.72504" lon="-4.218306">
        <ele>103.577</ele>
        <time>2021-06-16T14:10:59Z</time>
      </trkpt>
      <trkpt lat="36.724971" lon="-4.21878">
        <ele>103.220</ele>
        <time>2021-06-16T14:11:01Z</time>
      </trkpt>
      <trkpt lat="36.724912" lon="-4.219265">
        <ele>102.737</ele>
        <time>2021-06-16T14:11:03Z</time>
      </trkpt>
      <trkpt lat="36.724887" lon="-4.219508">
        <ele>102.454</ele>
        <time>2021-06-16T14:11:04Z</time>
      </trkpt>
      <trkpt lat="36.724859" lon="-4.219765">
        <ele>102.264</ele>
        <time>2021-06-16T14:11:05Z</time>
      </trkpt>
      <trkpt lat="36.724806" lon="-4.220247">
        <ele>101.297</ele>
        <time>2021-06-16T14:11:07Z</time>
      </trkpt>
      <trkpt lat="36.72478" lon="-4.220498">
        <ele>100.423</ele>
        <time>2021-06-16T14:11:08Z</time>
      </trkpt>
      <trkpt lat="36.724748" lon="-4.220752">
        <ele>100.125</ele>
        <time>2021-06-16T14:11:09Z</time>
      </trkpt>
      <trkpt lat="36.724688" lon="-4.221248">
        <ele>99.008</ele>
        <time>2021-06-16T14:11:11Z</time>
      </trkpt>
      <trkpt lat="36.724626" lon="-4.221742">
        <ele>98.156</ele>
        <time>2021-06-16T14:11:13Z</time>
      </trkpt>
      <trkpt lat="36.72458" lon="-4.221985">
        <ele>96.964</ele>
        <time>2021-06-16T14:11:14Z</time>
      </trkpt>
      <trkpt lat="36.724474" lon="-4.222468">
        <ele>95.338</ele>
        <time>2021-06-16T14:11:16Z</time>
      </trkpt>
      <trkpt lat="36.724353" lon="-4.222946">
        <ele>94.747</ele>
        <time>2021-06-16T14:11:18Z</time>
      </trkpt>
      <trkpt lat="36.724285" lon="-4.223181">
        <ele>93.770</ele>
        <time>2021-06-16T14:11:19Z</time>
      </trkpt>
      <trkpt lat="36.724214" lon="-4.223417">
        <ele>93.067</ele>
        <time>2021-06-16T14:11:20Z</time>
      </trkpt>
      <trkpt lat="36.724049" lon="-4.223907">
        <ele>92.144</ele>
        <time>2021-06-16T14:11:22Z</time>
      </trkpt>
      <trkpt lat="36.723887" lon="-4.224328">
        <ele>90.674</ele>
        <time>2021-06-16T14:11:24Z</time>
      </trkpt>
      <trkpt lat="36.723702" lon="-4.224789">
        <ele>89.114</ele>
        <time>2021-06-16T14:11:26Z</time>
      </trkpt>
      <trkpt lat="36.723602" lon="-4.225017">
        <ele>87.754</ele>
        <time>2021-06-16T14:11:27Z</time>
      </trkpt>
      <trkpt lat="36.7234" lon="-4.225462">
        <ele>85.909</ele>
        <time>2021-06-16T14:11:29Z</time>
      </trkpt>
      <trkpt lat="36.723189" lon="-4.225901">
        <ele>84.108</ele>
        <time>2021-06-16T14:11:31Z</time>
      </trkpt>
      <trkpt lat="36.72298" lon="-4.226338">
        <ele>82.278</ele>
        <time>2021-06-16T14:11:33Z</time>
      </trkpt>
      <trkpt lat="36.722863" lon="-4.226584">
        <ele>80.476</ele>
        <time>2021-06-16T14:11:34Z</time>
      </trkpt>
      <trkpt lat="36.722672" lon="-4.226986">
        <ele>78.690</ele>
        <time>2021-06-16T14:11:36Z</time>
      </trkpt>
      <trkpt lat="36.722472" lon="-4.227424">
        <ele>76.429</ele>
        <time>2021-06-16T14:11:38Z</time>
      </trkpt>
      <trkpt lat="36.722281" lon="-4.227856">
        <ele>74.492</ele>
        <time>2021-06-16T14:11:40Z</time>
      </trkpt>
      <trkpt lat="36.722091" lon="-4.228317">
        <ele>72.499</ele>
        <time>2021-06-16T14:11:42Z</time>
      </trkpt>
      <trkpt lat="36.721932" lon="-4.228717">
        <ele>70.856</ele>
        <time>2021-06-16T14:11:44Z</time>
      </trkpt>
      <trkpt lat="36.721848" lon="-4.228939">
        <ele>69.496</ele>
        <time>2021-06-16T14:11:45Z</time>
      </trkpt>
      <trkpt lat="36.721699" lon="-4.229388">
        <ele>67.842</ele>
        <time>2021-06-16T14:11:47Z</time>
      </trkpt>
      <trkpt lat="36.72163" lon="-4.229615">
        <ele>66.322</ele>
        <time>2021-06-16T14:11:48Z</time>
      </trkpt>
      <trkpt lat="36.721509" lon="-4.230082">
        <ele>64.414</ele>
        <time>2021-06-16T14:11:50Z</time>
      </trkpt>
      <trkpt lat="36.721413" lon="-4.230548">
        <ele>62.908</ele>
        <time>2021-06-16T14:11:52Z</time>
      </trkpt>
      <trkpt lat="36.721333" lon="-4.231029">
        <ele>61.261</ele>
        <time>2021-06-16T14:11:54Z</time>
      </trkpt>
      <trkpt lat="36.72127" lon="-4.23151">
        <ele>59.889</ele>
        <time>2021-06-16T14:11:56Z</time>
      </trkpt>
      <trkpt lat="36.721246" lon="-4.231758">
        <ele>59.253</ele>
        <time>2021-06-16T14:11:57Z</time>
      </trkpt>
      <trkpt lat="36.721209" lon="-4.232259">
        <ele>58.082</ele>
        <time>2021-06-16T14:11:59Z</time>
      </trkpt>
      <trkpt lat="36.7212" lon="-4.232512">
        <ele>57.665</ele>
        <time>2021-06-16T14:12:00Z</time>
      </trkpt>
      <trkpt lat="36.721192" lon="-4.233021">
        <ele>57.242</ele>
        <time>2021-06-16T14:12:02Z</time>
      </trkpt>
      <trkpt lat="36.721185" lon="-4.233311">
        <ele>56.789</ele>
        <time>2021-06-16T14:12:03Z</time>
      </trkpt>
      <trkpt lat="36.72119" lon="-4.233768">
        <ele>56.239</ele>
        <time>2021-06-16T14:12:05Z</time>
      </trkpt>
      <trkpt lat="36.721192" lon="-4.23402">
        <ele>55.763</ele>
        <time>2021-06-16T14:12:06Z</time>
      </trkpt>
      <trkpt lat="36.721192" lon="-4.234514">
        <ele>55.444</ele>
        <time>2021-06-16T14:12:08Z</time>
      </trkpt>
      <trkpt lat="36.721189" lon="-4.234754">
        <ele>54.918</ele>
        <time>2021-06-16T14:12:09Z</time>
      </trkpt>
      <trkpt lat="36.721178" lon="-4.234994">
        <ele>54.908</ele>
        <time>2021-06-16T14:12:10Z</time>
      </trkpt>
      <trkpt lat="36.72116" lon="-4.235263">
        <ele>55.023</ele>
        <time>2021-06-16T14:12:11Z</time>
      </trkpt>
      <trkpt lat="36.721113" lon="-4.235698">
        <ele>54.651</ele>
        <time>2021-06-16T14:12:13Z</time>
      </trkpt>
      <trkpt lat="36.721076" lon="-4.235936">
        <ele>54.365</ele>
        <time>2021-06-16T14:12:14Z</time>
      </trkpt>
      <trkpt lat="36.721033" lon="-4.236181">
        <ele>54.354</ele>
        <time>2021-06-16T14:12:15Z</time>
      </trkpt>
      <trkpt lat="36.720941" lon="-4.236638">
        <ele>54.917</ele>
        <time>2021-06-16T14:12:17Z</time>
      </trkpt>
      <trkpt lat="36.720888" lon="-4.236877">
        <ele>55.574</ele>
        <time>2021-06-16T14:12:18Z</time>
      </trkpt>
      <trkpt lat="36.720775" lon="-4.237369">
        <ele>55.551</ele>
        <time>2021-06-16T14:12:20Z</time>
      </trkpt>
      <trkpt lat="36.72064" lon="-4.237801">
        <ele>55.941</ele>
        <time>2021-06-16T14:12:22Z</time>
      </trkpt>
      <trkpt lat="36.720564" lon="-4.23804">
        <ele>56.425</ele>
        <time>2021-06-16T14:12:23Z</time>
      </trkpt>
      <trkpt lat="36.720491" lon="-4.238272">
        <ele>56.726</ele>
        <time>2021-06-16T14:12:24Z</time>
      </trkpt>
      <trkpt lat="36.72035" lon="-4.238726">
        <ele>56.308</ele>
        <time>2021-06-16T14:12:26Z</time>
      </trkpt>
      <trkpt lat="36.720285" lon="-4.238949">
        <ele>56.408</ele>
        <time>2021-06-16T14:12:27Z</time>
      </trkpt>
      <trkpt lat="36.720167" lon="-4.239424">
        <ele>56.569</ele>
        <time>2021-06-16T14:12:29Z</time>
      </trkpt>
      <trkpt lat="36.720091" lon="-4.239847">
        <ele>56.597</ele>
        <time>2021-06-16T14:12:31Z</time>
      </trkpt>
      <trkpt lat="36.720061" lon="-4.240084">
        <ele>56.831</ele>
        <time>2021-06-16T14:12:32Z</time>
      </trkpt>
      <trkpt lat="36.720037" lon="-4.240561">
        <ele>57.220</ele>
        <time>2021-06-16T14:12:34Z</time>
      </trkpt>
      <trkpt lat="36.72006" lon="-4.241043">
        <ele>57.853</ele>
        <time>2021-06-16T14:12:36Z</time>
      </trkpt>
      <trkpt lat="36.720087" lon="-4.241282">
        <ele>58.450</ele>
        <time>2021-06-16T14:12:37Z</time>
      </trkpt>
      <trkpt lat="36.720127" lon="-4.241551">
        <ele>58.657</ele>
        <time>2021-06-16T14:12:38Z</time>
      </trkpt>
      <trkpt lat="36.720225" lon="-4.241986">
        <ele>59.197</ele>
        <time>2021-06-16T14:12:40Z</time>
      </trkpt>
      <trkpt lat="36.720297" lon="-4.242223">
        <ele>59.192</ele>
        <time>2021-06-16T14:12:41Z</time>
      </trkpt>
      <trkpt lat="36.720389" lon="-4.242481">
        <ele>59.573</ele>
        <time>2021-06-16T14:12:42Z</time>
      </trkpt>
      <trkpt lat="36.720575" lon="-4.24288">
        <ele>59.720</ele>
        <time>2021-06-16T14:12:44Z</time>
      </trkpt>
      <trkpt lat="36.720821" lon="-4.243308">
        <ele>59.908</ele>
        <time>2021-06-16T14:12:46Z</time>
      </trkpt>
      <trkpt lat="36.721084" lon="-4.243669">
        <ele>60.276</ele>
        <time>2021-06-16T14:12:48Z</time>
      </trkpt>
      <trkpt lat="36.721233" lon="-4.243843">
        <ele>60.584</ele>
        <time>2021-06-16T14:12:49Z</time>
      </trkpt>
      <trkpt lat="36.721404" lon="-4.244021">
        <ele>61.048</ele>
        <time>2021-06-16T14:12:50Z</time>
      </trkpt>
      <trkpt lat="36.721721" lon="-4.244295">
        <ele>61.567</ele>
        <time>2021-06-16T14:12:52Z</time>
      </trkpt>
      <trkpt lat="36.721902" lon="-4.244427">
        <ele>62.280</ele>
        <time>2021-06-16T14:12:53Z</time>
      </trkpt>
      <trkpt lat="36.722302" lon="-4.244668">
        <ele>63.017</ele>
        <time>2021-06-16T14:12:55Z</time>
      </trkpt>
      <trkpt lat="36.722659" lon="-4.244839">
        <ele>63.754</ele>
        <time>2021-06-16T14:12:57Z</time>
      </trkpt>
      <trkpt lat="36.722856" lon="-4.244928">
        <ele>64.034</ele>
        <time>2021-06-16T14:12:58Z</time>
      </trkpt>
      <trkpt lat="36.723075" lon="-4.245024">
        <ele>64.486</ele>
        <time>2021-06-16T14:12:59Z</time>
      </trkpt>
      <trkpt lat="36.723418" lon="-4.245181">
        <ele>64.960</ele>
        <time>2021-06-16T14:13:01Z</time>
      </trkpt>
      <trkpt lat="36.723604" lon="-4.245276">
        <ele>65.326</ele>
        <time>2021-06-16T14:13:02Z</time>
      </trkpt>
      <trkpt lat="36.72396" lon="-4.245504">
        <ele>65.808</ele>
        <time>2021-06-16T14:13:04Z</time>
      </trkpt>
      <trkpt lat="36.72413" lon="-4.245643">
        <ele>66.155</ele>
        <time>2021-06-16T14:13:05Z</time>
      </trkpt>
      <trkpt lat="36.72429" lon="-4.245799">
        <ele>66.543</ele>
        <time>2021-06-16T14:13:06Z</time>
      </trkpt>
      <trkpt lat="36.72444" lon="-4.245968">
        <ele>66.847</ele>
        <time>2021-06-16T14:13:07Z</time>
      </trkpt>
      <trkpt lat="36.724602" lon="-4.246174">
        <ele>67.066</ele>
        <time>2021-06-16T14:13:08Z</time>
      </trkpt>
      <trkpt lat="36.724827" lon="-4.24655">
        <ele>67.059</ele>
        <time>2021-06-16T14:13:10Z</time>
      </trkpt>
      <trkpt lat="36.724934" lon="-4.246769">
        <ele>66.916</ele>
        <time>2021-06-16T14:13:11Z</time>
      </trkpt>
      <trkpt lat="36.725041" lon="-4.247021">
        <ele>67.293</ele>
        <time>2021-06-16T14:13:12Z</time>
      </trkpt>
      <trkpt lat="36.72517" lon="-4.247465">
        <ele>67.753</ele>
        <time>2021-06-16T14:13:14Z</time>
      </trkpt>
      <trkpt lat="36.725219" lon="-4.247717">
        <ele>68.196</ele>
        <time>2021-06-16T14:13:15Z</time>
      </trkpt>
      <trkpt lat="36.725256" lon="-4.247982">
        <ele>68.331</ele>
        <time>2021-06-16T14:13:16Z</time>
      </trkpt>
      <trkpt lat="36.725279" lon="-4.248472">
        <ele>68.924</ele>
        <time>2021-06-16T14:13:18Z</time>
      </trkpt>
      <trkpt lat="36.725235" lon="-4.248975">
        <ele>69.508</ele>
        <time>2021-06-16T14:13:20Z</time>
      </trkpt>
      <trkpt lat="36.725189" lon="-4.249255">
        <ele>70.286</ele>
        <time>2021-06-16T14:13:21Z</time>
      </trkpt>
      <trkpt lat="36.725094" lon="-4.249701">
        <ele>70.974</ele>
        <time>2021-06-16T14:13:23Z</time>
      </trkpt>
      <trkpt lat="36.725039" lon="-4.249942">
        <ele>71.698</ele>
        <time>2021-06-16T14:13:24Z</time>
      </trkpt>
      <trkpt lat="36.72498" lon="-4.250209">
        <ele>72.087</ele>
        <time>2021-06-16T14:13:25Z</time>
      </trkpt>
      <trkpt lat="36.724907" lon="-4.250653">
        <ele>71.850</ele>
        <time>2021-06-16T14:13:27Z</time>
      </trkpt>
      <trkpt lat="36.724873" lon="-4.251185">
        <ele>72.027</ele>
        <time>2021-06-16T14:13:29Z</time>
      </trkpt>
      <trkpt lat="36.724906" lon="-4.251644">
        <ele>72.584</ele>
        <time>2021-06-16T14:13:31Z</time>
      </trkpt>
      <trkpt lat="36.724985" lon="-4.252139">
        <ele>72.494</ele>
        <time>2021-06-16T14:13:33Z</time>
      </trkpt>
      <trkpt lat="36.725038" lon="-4.252415">
        <ele>72.557</ele>
        <time>2021-06-16T14:13:34Z</time>
      </trkpt>
      <trkpt lat="36.725122" lon="-4.252873">
        <ele>72.200</ele>
        <time>2021-06-16T14:13:36Z</time>
      </trkpt>
      <trkpt lat="36.725182" lon="-4.253413">
        <ele>72.020</ele>
        <time>2021-06-16T14:13:38Z</time>
      </trkpt>
      <trkpt lat="36.725185" lon="-4.253867">
        <ele>71.908</ele>
        <time>2021-06-16T14:13:40Z</time>
      </trkpt>
      <trkpt lat="36.725125" lon="-4.254359">
        <ele>71.232</ele>
        <time>2021-06-16T14:13:42Z</time>
      </trkpt>
      <trkpt lat="36.72507" lon="-4.254626">
        <ele>70.920</ele>
        <time>2021-06-16T14:13:43Z</time>
      </trkpt>
      <trkpt lat="36.72495" lon="-4.255045">
        <ele>70.744</ele>
        <time>2021-06-16T14:13:45Z</time>
      </trkpt>
      <trkpt lat="36.72488" lon="-4.255266">
        <ele>70.633</ele>
        <time>2021-06-16T14:13:46Z</time>
      </trkpt>
      <trkpt lat="36.724804" lon="-4.255505">
        <ele>70.936</ele>
        <time>2021-06-16T14:13:47Z</time>
      </trkpt>
      <trkpt lat="36.72468" lon="-4.255884">
        <ele>71.083</ele>
        <time>2021-06-16T14:13:49Z</time>
      </trkpt>
      <trkpt lat="36.724546" lon="-4.256333">
        <ele>71.130</ele>
        <time>2021-06-16T14:13:51Z</time>
      </trkpt>
      <trkpt lat="36.724465" lon="-4.256756">
        <ele>71.250</ele>
        <time>2021-06-16T14:13:53Z</time>
      </trkpt>
      <trkpt lat="36.724436" lon="-4.256991">
        <ele>71.524</ele>
        <time>2021-06-16T14:13:54Z</time>
      </trkpt>
      <trkpt lat="36.724416" lon="-4.257255">
        <ele>71.904</ele>
        <time>2021-06-16T14:13:55Z</time>
      </trkpt>
      <trkpt lat="36.724439" lon="-4.257686">
        <ele>72.614</ele>
        <time>2021-06-16T14:13:57Z</time>
      </trkpt>
      <trkpt lat="36.724518" lon="-4.258157">
        <ele>73.208</ele>
        <time>2021-06-16T14:13:59Z</time>
      </trkpt>
      <trkpt lat="36.724611" lon="-4.258628">
        <ele>74.149</ele>
        <time>2021-06-16T14:14:01Z</time>
      </trkpt>
      <trkpt lat="36.724651" lon="-4.25886">
        <ele>74.967</ele>
        <time>2021-06-16T14:14:02Z</time>
      </trkpt>
      <trkpt lat="36.7247" lon="-4.259362">
        <ele>76.191</ele>
        <time>2021-06-16T14:14:04Z</time>
      </trkpt>
      <trkpt lat="36.72469" lon="-4.259795">
        <ele>77.810</ele>
        <time>2021-06-16T14:14:06Z</time>
      </trkpt>
      <trkpt lat="36.724657" lon="-4.260029">
        <ele>79.363</ele>
        <time>2021-06-16T14:14:07Z</time>
      </trkpt>
      <trkpt lat="36.724546" lon="-4.260466">
        <ele>80.820</ele>
        <time>2021-06-16T14:14:09Z</time>
      </trkpt>
      <trkpt lat="36.724481" lon="-4.260679">
        <ele>81.967</ele>
        <time>2021-06-16T14:14:10Z</time>
      </trkpt>
      <trkpt lat="36.72441" lon="-4.26089">
        <ele>82.887</ele>
        <time>2021-06-16T14:14:11Z</time>
      </trkpt>
      <trkpt lat="36.724322" lon="-4.261126">
        <ele>83.859</ele>
        <time>2021-06-16T14:14:12Z</time>
      </trkpt>
      <trkpt lat="36.724176" lon="-4.261516">
        <ele>84.403</ele>
        <time>2021-06-16T14:14:14Z</time>
      </trkpt>
      <trkpt lat="36.724104" lon="-4.261741">
        <ele>85.523</ele>
        <time>2021-06-16T14:14:15Z</time>
      </trkpt>
      <trkpt lat="36.724042" lon="-4.261981">
        <ele>85.808</ele>
        <time>2021-06-16T14:14:16Z</time>
      </trkpt>
      <trkpt lat="36.723967" lon="-4.262471">
        <ele>86.642</ele>
        <time>2021-06-16T14:14:18Z</time>
      </trkpt>
      <trkpt lat="36.723963" lon="-4.262981">
        <ele>86.720</ele>
        <time>2021-06-16T14:14:20Z</time>
      </trkpt>
      <trkpt lat="36.723994" lon="-4.263468">
        <ele>86.464</ele>
        <time>2021-06-16T14:14:22Z</time>
      </trkpt>
      <trkpt lat="36.724054" lon="-4.263998">
        <ele>86.023</ele>
        <time>2021-06-16T14:14:24Z</time>
      </trkpt>
      <trkpt lat="36.724081" lon="-4.264459">
        <ele>85.426</ele>
        <time>2021-06-16T14:14:26Z</time>
      </trkpt>
      <trkpt lat="36.724072" lon="-4.26471">
        <ele>84.493</ele>
        <time>2021-06-16T14:14:27Z</time>
      </trkpt>
      <trkpt lat="36.724012" lon="-4.2652">
        <ele>83.510</ele>
        <time>2021-06-16T14:14:29Z</time>
      </trkpt>
      <trkpt lat="36.723892" lon="-4.265672">
        <ele>81.740</ele>
        <time>2021-06-16T14:14:31Z</time>
      </trkpt>
      <trkpt lat="36.723814" lon="-4.265902">
        <ele>80.362</ele>
        <time>2021-06-16T14:14:32Z</time>
      </trkpt>
      <trkpt lat="36.723632" lon="-4.266349">
        <ele>78.683</ele>
        <time>2021-06-16T14:14:34Z</time>
      </trkpt>
      <trkpt lat="36.723436" lon="-4.266822">
        <ele>76.711</ele>
        <time>2021-06-16T14:14:36Z</time>
      </trkpt>
      <trkpt lat="36.723289" lon="-4.267275">
        <ele>74.408</ele>
        <time>2021-06-16T14:14:38Z</time>
      </trkpt>
      <trkpt lat="36.723171" lon="-4.267803">
        <ele>72.533</ele>
        <time>2021-06-16T14:14:40Z</time>
      </trkpt>
      <trkpt lat="36.72311" lon="-4.268272">
        <ele>69.811</ele>
        <time>2021-06-16T14:14:42Z</time>
      </trkpt>
      <trkpt lat="36.723097" lon="-4.26853">
        <ele>67.855</ele>
        <time>2021-06-16T14:14:43Z</time>
      </trkpt>
      <trkpt lat="36.7231" lon="-4.268786">
        <ele>66.424</ele>
        <time>2021-06-16T14:14:44Z</time>
      </trkpt>
      <trkpt lat="36.723138" lon="-4.269288">
        <ele>64.527</ele>
        <time>2021-06-16T14:14:46Z</time>
      </trkpt>
      <trkpt lat="36.723175" lon="-4.269539">
        <ele>62.934</ele>
        <time>2021-06-16T14:14:47Z</time>
      </trkpt>
      <trkpt lat="36.723224" lon="-4.269789">
        <ele>61.471</ele>
        <time>2021-06-16T14:14:48Z</time>
      </trkpt>
      <trkpt lat="36.723288" lon="-4.270069">
        <ele>60.031</ele>
        <time>2021-06-16T14:14:49Z</time>
      </trkpt>
      <trkpt lat="36.723422" lon="-4.270522">
        <ele>58.669</ele>
        <time>2021-06-16T14:14:51Z</time>
      </trkpt>
      <trkpt lat="36.723505" lon="-4.270772">
        <ele>57.204</ele>
        <time>2021-06-16T14:14:52Z</time>
      </trkpt>
      <trkpt lat="36.723601" lon="-4.271048">
        <ele>56.124</ele>
        <time>2021-06-16T14:14:53Z</time>
      </trkpt>
      <trkpt lat="36.723758" lon="-4.271492">
        <ele>54.908</ele>
        <time>2021-06-16T14:14:55Z</time>
      </trkpt>
      <trkpt lat="36.72384" lon="-4.271732">
        <ele>53.743</ele>
        <time>2021-06-16T14:14:56Z</time>
      </trkpt>
      <trkpt lat="36.724008" lon="-4.272213">
        <ele>53.331</ele>
        <time>2021-06-16T14:14:58Z</time>
      </trkpt>
      <trkpt lat="36.724156" lon="-4.272633">
        <ele>53.185</ele>
        <time>2021-06-16T14:15:00Z</time>
      </trkpt>
      <trkpt lat="36.724327" lon="-4.273094">
        <ele>52.774</ele>
        <time>2021-06-16T14:15:02Z</time>
      </trkpt>
      <trkpt lat="36.724462" lon="-4.27351">
        <ele>52.797</ele>
        <time>2021-06-16T14:15:04Z</time>
      </trkpt>
      <trkpt lat="36.724612" lon="-4.273978">
        <ele>53.064</ele>
        <time>2021-06-16T14:15:06Z</time>
      </trkpt>
      <trkpt lat="36.724739" lon="-4.274426">
        <ele>53.761</ele>
        <time>2021-06-16T14:15:08Z</time>
      </trkpt>
      <trkpt lat="36.724793" lon="-4.274658">
        <ele>54.441</ele>
        <time>2021-06-16T14:15:09Z</time>
      </trkpt>
      <trkpt lat="36.724842" lon="-4.27492">
        <ele>54.644</ele>
        <time>2021-06-16T14:15:10Z</time>
      </trkpt>
      <trkpt lat="36.724887" lon="-4.275368">
        <ele>55.105</ele>
        <time>2021-06-16T14:15:12Z</time>
      </trkpt>
      <trkpt lat="36.7249" lon="-4.275614">
        <ele>55.515</ele>
        <time>2021-06-16T14:15:13Z</time>
      </trkpt>
      <trkpt lat="36.724897" lon="-4.27587">
        <ele>55.608</ele>
        <time>2021-06-16T14:15:14Z</time>
      </trkpt>
      <trkpt lat="36.724863" lon="-4.276353">
        <ele>56.431</ele>
        <time>2021-06-16T14:15:16Z</time>
      </trkpt>
      <trkpt lat="36.72483" lon="-4.276595">
        <ele>57.299</ele>
        <time>2021-06-16T14:15:17Z</time>
      </trkpt>
      <trkpt lat="36.724785" lon="-4.276864">
        <ele>57.653</ele>
        <time>2021-06-16T14:15:18Z</time>
      </trkpt>
      <trkpt lat="36.724681" lon="-4.277294">
        <ele>57.722</ele>
        <time>2021-06-16T14:15:20Z</time>
      </trkpt>
      <trkpt lat="36.724611" lon="-4.277529">
        <ele>57.955</ele>
        <time>2021-06-16T14:15:21Z</time>
      </trkpt>
      <trkpt lat="36.72452" lon="-4.277788">
        <ele>58.612</ele>
        <time>2021-06-16T14:15:22Z</time>
      </trkpt>
      <trkpt lat="36.724364" lon="-4.278198">
        <ele>58.789</ele>
        <time>2021-06-16T14:15:24Z</time>
      </trkpt>
      <trkpt lat="36.724282" lon="-4.27842">
        <ele>59.369</ele>
        <time>2021-06-16T14:15:25Z</time>
      </trkpt>
      <trkpt lat="36.724202" lon="-4.278643">
        <ele>59.893</ele>
        <time>2021-06-16T14:15:26Z</time>
      </trkpt>
      <trkpt lat="36.724121" lon="-4.2789">
        <ele>59.865</ele>
        <time>2021-06-16T14:15:27Z</time>
      </trkpt>
      <trkpt lat="36.724017" lon="-4.27933">
        <ele>60.821</ele>
        <time>2021-06-16T14:15:29Z</time>
      </trkpt>
      <trkpt lat="36.723942" lon="-4.279853">
        <ele>61.808</ele>
        <time>2021-06-16T14:15:31Z</time>
      </trkpt>
      <trkpt lat="36.723933" lon="-4.280304">
        <ele>62.446</ele>
        <time>2021-06-16T14:15:33Z</time>
      </trkpt>
      <trkpt lat="36.723989" lon="-4.280793">
        <ele>63.164</ele>
        <time>2021-06-16T14:15:35Z</time>
      </trkpt>
      <trkpt lat="36.724041" lon="-4.28103">
        <ele>63.618</ele>
        <time>2021-06-16T14:15:36Z</time>
      </trkpt>
      <trkpt lat="36.724188" lon="-4.281481">
        <ele>64.157</ele>
        <time>2021-06-16T14:15:38Z</time>
      </trkpt>
      <trkpt lat="36.724283" lon="-4.281734">
        <ele>64.760</ele>
        <time>2021-06-16T14:15:39Z</time>
      </trkpt>
      <trkpt lat="36.724455" lon="-4.282133">
        <ele>65.727</ele>
        <time>2021-06-16T14:15:41Z</time>
      </trkpt>
      <trkpt lat="36.724641" lon="-4.282578">
        <ele>66.964</ele>
        <time>2021-06-16T14:15:43Z</time>
      </trkpt>
      <trkpt lat="36.724723" lon="-4.282808">
        <ele>67.654</ele>
        <time>2021-06-16T14:15:44Z</time>
      </trkpt>
      <trkpt lat="36.724855" lon="-4.283281">
        <ele>68.648</ele>
        <time>2021-06-16T14:15:46Z</time>
      </trkpt>
      <trkpt lat="36.72491" lon="-4.283549">
        <ele>69.161</ele>
        <time>2021-06-16T14:15:47Z</time>
      </trkpt>
      <trkpt lat="36.72496" lon="-4.284009">
        <ele>70.417</ele>
        <time>2021-06-16T14:15:49Z</time>
      </trkpt>
      <trkpt lat="36.724977" lon="-4.284261">
        <ele>71.108</ele>
        <time>2021-06-16T14:15:50Z</time>
      </trkpt>
      <trkpt lat="36.724979" lon="-4.284514">
        <ele>72.171</ele>
        <time>2021-06-16T14:15:51Z</time>
      </trkpt>
      <trkpt lat="36.724942" lon="-4.285016">
        <ele>73.029</ele>
        <time>2021-06-16T14:15:53Z</time>
      </trkpt>
      <trkpt lat="36.724913" lon="-4.285258">
        <ele>73.873</ele>
        <time>2021-06-16T14:15:54Z</time>
      </trkpt>
      <trkpt lat="36.724872" lon="-4.285526">
        <ele>74.632</ele>
        <time>2021-06-16T14:15:55Z</time>
      </trkpt>
      <trkpt lat="36.724764" lon="-4.285957">
        <ele>75.375</ele>
        <time>2021-06-16T14:15:57Z</time>
      </trkpt>
      <trkpt lat="36.724615" lon="-4.286417">
        <ele>76.352</ele>
        <time>2021-06-16T14:15:59Z</time>
      </trkpt>
      <trkpt lat="36.724533" lon="-4.286639">
        <ele>76.979</ele>
        <time>2021-06-16T14:16:00Z</time>
      </trkpt>
      <trkpt lat="36.724349" lon="-4.28707">
        <ele>77.689</ele>
        <time>2021-06-16T14:16:02Z</time>
      </trkpt>
      <trkpt lat="36.724231" lon="-4.287301">
        <ele>77.952</ele>
        <time>2021-06-16T14:16:03Z</time>
      </trkpt>
      <trkpt lat="36.724039" lon="-4.287678">
        <ele>78.053</ele>
        <time>2021-06-16T14:16:05Z</time>
      </trkpt>
      <trkpt lat="36.723939" lon="-4.287896">
        <ele>78.608</ele>
        <time>2021-06-16T14:16:06Z</time>
      </trkpt>
      <trkpt lat="36.723843" lon="-4.288125">
        <ele>79.208</ele>
        <time>2021-06-16T14:16:07Z</time>
      </trkpt>
      <trkpt lat="36.723692" lon="-4.288582">
        <ele>79.652</ele>
        <time>2021-06-16T14:16:09Z</time>
      </trkpt>
      <trkpt lat="36.723634" lon="-4.288827">
        <ele>80.250</ele>
        <time>2021-06-16T14:16:10Z</time>
      </trkpt>
      <trkpt lat="36.723582" lon="-4.289094">
        <ele>80.824</ele>
        <time>2021-06-16T14:16:11Z</time>
      </trkpt>
      <trkpt lat="36.72353" lon="-4.289585">
        <ele>81.453</ele>
        <time>2021-06-16T14:16:13Z</time>
      </trkpt>
      <trkpt lat="36.723518" lon="-4.289845">
        <ele>82.216</ele>
        <time>2021-06-16T14:16:14Z</time>
      </trkpt>
      <trkpt lat="36.723535" lon="-4.290359">
        <ele>82.973</ele>
        <time>2021-06-16T14:16:16Z</time>
      </trkpt>
      <trkpt lat="36.723567" lon="-4.290613">
        <ele>83.540</ele>
        <time>2021-06-16T14:16:17Z</time>
      </trkpt>
      <trkpt lat="36.723617" lon="-4.290859">
        <ele>84.210</ele>
        <time>2021-06-16T14:16:18Z</time>
      </trkpt>
      <trkpt lat="36.723688" lon="-4.291129">
        <ele>85.136</ele>
        <time>2021-06-16T14:16:19Z</time>
      </trkpt>
      <trkpt lat="36.723829" lon="-4.291563">
        <ele>85.817</ele>
        <time>2021-06-16T14:16:21Z</time>
      </trkpt>
      <trkpt lat="36.723909" lon="-4.291804">
        <ele>86.618</ele>
        <time>2021-06-16T14:16:22Z</time>
      </trkpt>
      <trkpt lat="36.724094" lon="-4.292289">
        <ele>87.808</ele>
        <time>2021-06-16T14:16:24Z</time>
      </trkpt>
      <trkpt lat="36.72425" lon="-4.292739">
        <ele>88.840</ele>
        <time>2021-06-16T14:16:26Z</time>
      </trkpt>
      <trkpt lat="36.724327" lon="-4.292978">
        <ele>89.598</ele>
        <time>2021-06-16T14:16:27Z</time>
      </trkpt>
      <trkpt lat="36.724409" lon="-4.293246">
        <ele>90.772</ele>
        <time>2021-06-16T14:16:28Z</time>
      </trkpt>
      <trkpt lat="36.724517" lon="-4.293687">
        <ele>92.111</ele>
        <time>2021-06-16T14:16:30Z</time>
      </trkpt>
      <trkpt lat="36.724609" lon="-4.294203">
        <ele>93.494</ele>
        <time>2021-06-16T14:16:32Z</time>
      </trkpt>
      <trkpt lat="36.724643" lon="-4.294652">
        <ele>94.351</ele>
        <time>2021-06-16T14:16:34Z</time>
      </trkpt>
      <trkpt lat="36.724647" lon="-4.294906">
        <ele>94.978</ele>
        <time>2021-06-16T14:16:35Z</time>
      </trkpt>
      <trkpt lat="36.724618" lon="-4.29544">
        <ele>95.488</ele>
        <time>2021-06-16T14:16:37Z</time>
      </trkpt>
      <trkpt lat="36.724557" lon="-4.2959">
        <ele>96.112</ele>
        <time>2021-06-16T14:16:39Z</time>
      </trkpt>
      <trkpt lat="36.724448" lon="-4.296421">
        <ele>97.132</ele>
        <time>2021-06-16T14:16:41Z</time>
      </trkpt>
      <trkpt lat="36.724325" lon="-4.296857">
        <ele>97.605</ele>
        <time>2021-06-16T14:16:43Z</time>
      </trkpt>
      <trkpt lat="36.724181" lon="-4.297367">
        <ele>97.608</ele>
        <time>2021-06-16T14:16:45Z</time>
      </trkpt>
      <trkpt lat="36.724059" lon="-4.297806">
        <ele>97.888</ele>
        <time>2021-06-16T14:16:47Z</time>
      </trkpt>
      <trkpt lat="36.723928" lon="-4.298293">
        <ele>98.086</ele>
        <time>2021-06-16T14:16:49Z</time>
      </trkpt>
      <trkpt lat="36.72386" lon="-4.298567">
        <ele>97.880</ele>
        <time>2021-06-16T14:16:50Z</time>
      </trkpt>
      <trkpt lat="36.723751" lon="-4.299022">
        <ele>97.869</ele>
        <time>2021-06-16T14:16:52Z</time>
      </trkpt>
      <trkpt lat="36.72364" lon="-4.299573">
        <ele>97.792</ele>
        <time>2021-06-16T14:16:54Z</time>
      </trkpt>
      <trkpt lat="36.723583" lon="-4.300065">
        <ele>97.589</ele>
        <time>2021-06-16T14:16:56Z</time>
      </trkpt>
      <trkpt lat="36.723549" lon="-4.300619">
        <ele>97.236</ele>
        <time>2021-06-16T14:16:58Z</time>
      </trkpt>
      <trkpt lat="36.723542" lon="-4.300893">
        <ele>96.676</ele>
        <time>2021-06-16T14:16:59Z</time>
      </trkpt>
      <trkpt lat="36.723542" lon="-4.301164">
        <ele>96.116</ele>
        <time>2021-06-16T14:17:00Z</time>
      </trkpt>
      <trkpt lat="36.723552" lon="-4.301431">
        <ele>95.476</ele>
        <time>2021-06-16T14:17:01Z</time>
      </trkpt>
      <trkpt lat="36.723566" lon="-4.301722">
        <ele>94.713</ele>
        <time>2021-06-16T14:17:02Z</time>
      </trkpt>
      <trkpt lat="36.723627" lon="-4.302244">
        <ele>93.508</ele>
        <time>2021-06-16T14:17:04Z</time>
      </trkpt>
      <trkpt lat="36.723693" lon="-4.302835">
        <ele>92.318</ele>
        <time>2021-06-16T14:17:06Z</time>
      </trkpt>
      <trkpt lat="36.723755" lon="-4.303352">
        <ele>90.866</ele>
        <time>2021-06-16T14:17:08Z</time>
      </trkpt>
      <trkpt lat="36.723789" lon="-4.303637">
        <ele>89.650</ele>
        <time>2021-06-16T14:17:09Z</time>
      </trkpt>
      <trkpt lat="36.723852" lon="-4.304223">
        <ele>88.589</ele>
        <time>2021-06-16T14:17:11Z</time>
      </trkpt>
      <trkpt lat="36.723912" lon="-4.304752">
        <ele>87.572</ele>
        <time>2021-06-16T14:17:13Z</time>
      </trkpt>
      <trkpt lat="36.723943" lon="-4.305034">
        <ele>87.029</ele>
        <time>2021-06-16T14:17:14Z</time>
      </trkpt>
      <trkpt lat="36.723997" lon="-4.305596">
        <ele>86.416</ele>
        <time>2021-06-16T14:17:16Z</time>
      </trkpt>
      <trkpt lat="36.724054" lon="-4.306148">
        <ele>86.366</ele>
        <time>2021-06-16T14:17:18Z</time>
      </trkpt>
      <trkpt lat="36.724111" lon="-4.306716">
        <ele>86.072</ele>
        <time>2021-06-16T14:17:20Z</time>
      </trkpt>
      <trkpt lat="36.724161" lon="-4.307224">
        <ele>86.113</ele>
        <time>2021-06-16T14:17:22Z</time>
      </trkpt>
      <trkpt lat="36.724234" lon="-4.307785">
        <ele>86.114</ele>
        <time>2021-06-16T14:17:24Z</time>
      </trkpt>
      <trkpt lat="36.724317" lon="-4.308257">
        <ele>86.308</ele>
        <time>2021-06-16T14:17:26Z</time>
      </trkpt>
      <trkpt lat="36.724437" lon="-4.3088">
        <ele>86.474</ele>
        <time>2021-06-16T14:17:28Z</time>
      </trkpt>
      <trkpt lat="36.724571" lon="-4.309252">
        <ele>86.872</ele>
        <time>2021-06-16T14:17:30Z</time>
      </trkpt>
      <trkpt lat="36.724657" lon="-4.309494">
        <ele>87.036</ele>
        <time>2021-06-16T14:17:31Z</time>
      </trkpt>
      <trkpt lat="36.724863" lon="-4.309993">
        <ele>87.435</ele>
        <time>2021-06-16T14:17:33Z</time>
      </trkpt>
      <trkpt lat="36.725079" lon="-4.310405">
        <ele>87.848</ele>
        <time>2021-06-16T14:17:35Z</time>
      </trkpt>
      <trkpt lat="36.72535" lon="-4.310876">
        <ele>88.695</ele>
        <time>2021-06-16T14:17:37Z</time>
      </trkpt>
      <trkpt lat="36.725605" lon="-4.311255">
        <ele>89.212</ele>
        <time>2021-06-16T14:17:39Z</time>
      </trkpt>
      <trkpt lat="36.725759" lon="-4.311459">
        <ele>89.842</ele>
        <time>2021-06-16T14:17:40Z</time>
      </trkpt>
      <trkpt lat="36.726114" lon="-4.311861">
        <ele>90.795</ele>
        <time>2021-06-16T14:17:42Z</time>
      </trkpt>
      <trkpt lat="36.726442" lon="-4.312189">
        <ele>91.549</ele>
        <time>2021-06-16T14:17:44Z</time>
      </trkpt>
      <trkpt lat="36.726863" lon="-4.312528">
        <ele>92.623</ele>
        <time>2021-06-16T14:17:46Z</time>
      </trkpt>
      <trkpt lat="36.72726" lon="-4.312784">
        <ele>94.108</ele>
        <time>2021-06-16T14:17:48Z</time>
      </trkpt>
      <trkpt lat="36.72748" lon="-4.312906">
        <ele>95.186</ele>
        <time>2021-06-16T14:17:49Z</time>
      </trkpt>
      <trkpt lat="36.727699" lon="-4.31302">
        <ele>96.234</ele>
        <time>2021-06-16T14:17:50Z</time>
      </trkpt>
      <trkpt lat="36.727943" lon="-4.313144">
        <ele>96.928</ele>
        <time>2021-06-16T14:17:51Z</time>
      </trkpt>
      <trkpt lat="36.728339" lon="-4.313326">
        <ele>97.547</ele>
        <time>2021-06-16T14:17:53Z</time>
      </trkpt>
      <trkpt lat="36.728773" lon="-4.313537">
        <ele>98.520</ele>
        <time>2021-06-16T14:17:55Z</time>
      </trkpt>
      <trkpt lat="36.729199" lon="-4.313776">
        <ele>99.697</ele>
        <time>2021-06-16T14:17:57Z</time>
      </trkpt>
      <trkpt lat="36.729411" lon="-4.313905">
        <ele>100.274</ele>
        <time>2021-06-16T14:17:58Z</time>
      </trkpt>
      <trkpt lat="36.729816" lon="-4.314191">
        <ele>100.634</ele>
        <time>2021-06-16T14:18:00Z</time>
      </trkpt>
      <trkpt lat="36.73001" lon="-4.314352">
        <ele>101.153</ele>
        <time>2021-06-16T14:18:01Z</time>
      </trkpt>
      <trkpt lat="36.730202" lon="-4.314519">
        <ele>101.404</ele>
        <time>2021-06-16T14:18:02Z</time>
      </trkpt>
      <trkpt lat="36.730409" lon="-4.314719">
        <ele>102.214</ele>
        <time>2021-06-16T14:18:03Z</time>
      </trkpt>
      <trkpt lat="36.730736" lon="-4.315077">
        <ele>103.008</ele>
        <time>2021-06-16T14:18:05Z</time>
      </trkpt>
      <trkpt lat="36.730915" lon="-4.315279">
        <ele>103.452</ele>
        <time>2021-06-16T14:18:06Z</time>
      </trkpt>
      <trkpt lat="36.731095" lon="-4.315493">
        <ele>104.090</ele>
        <time>2021-06-16T14:18:07Z</time>
      </trkpt>
      <trkpt lat="36.731404" lon="-4.315926">
        <ele>104.874</ele>
        <time>2021-06-16T14:18:09Z</time>
      </trkpt>
      <trkpt lat="36.731691" lon="-4.316401">
        <ele>105.653</ele>
        <time>2021-06-16T14:18:11Z</time>
      </trkpt>
      <trkpt lat="36.731826" lon="-4.316646">
        <ele>105.976</ele>
        <time>2021-06-16T14:18:12Z</time>
      </trkpt>
      <trkpt lat="36.732073" lon="-4.317147">
        <ele>106.133</ele>
        <time>2021-06-16T14:18:14Z</time>
      </trkpt>
      <trkpt lat="36.732281" lon="-4.31766">
        <ele>106.830</ele>
        <time>2021-06-16T14:18:16Z</time>
      </trkpt>
      <trkpt lat="36.732374" lon="-4.317922">
        <ele>107.660</ele>
        <time>2021-06-16T14:18:17Z</time>
      </trkpt>
      <trkpt lat="36.732537" lon="-4.318452">
        <ele>108.582</ele>
        <time>2021-06-16T14:18:19Z</time>
      </trkpt>
      <trkpt lat="36.732616" lon="-4.318748">
        <ele>109.643</ele>
        <time>2021-06-16T14:18:20Z</time>
      </trkpt>
      <trkpt lat="36.732718" lon="-4.31927">
        <ele>111.417</ele>
        <time>2021-06-16T14:18:22Z</time>
      </trkpt>
      <trkpt lat="36.732811" lon="-4.319847">
        <ele>113.108</ele>
        <time>2021-06-16T14:18:24Z</time>
      </trkpt>
      <trkpt lat="36.73285" lon="-4.320173">
        <ele>114.375</ele>
        <time>2021-06-16T14:18:25Z</time>
      </trkpt>
      <trkpt lat="36.73289" lon="-4.320701">
        <ele>115.563</ele>
        <time>2021-06-16T14:18:27Z</time>
      </trkpt>
      <trkpt lat="36.732898" lon="-4.321292">
        <ele>116.797</ele>
        <time>2021-06-16T14:18:29Z</time>
      </trkpt>
      <trkpt lat="36.732883" lon="-4.321801">
        <ele>117.256</ele>
        <time>2021-06-16T14:18:31Z</time>
      </trkpt>
      <trkpt lat="36.732838" lon="-4.322341">
        <ele>118.119</ele>
        <time>2021-06-16T14:18:33Z</time>
      </trkpt>
      <trkpt lat="36.732804" lon="-4.322637">
        <ele>118.536</ele>
        <time>2021-06-16T14:18:34Z</time>
      </trkpt>
      <trkpt lat="36.73273" lon="-4.323108">
        <ele>118.953</ele>
        <time>2021-06-16T14:18:36Z</time>
      </trkpt>
      <trkpt lat="36.732679" lon="-4.323367">
        <ele>119.053</ele>
        <time>2021-06-16T14:18:37Z</time>
      </trkpt>
      <trkpt lat="36.73262" lon="-4.323651">
        <ele>119.428</ele>
        <time>2021-06-16T14:18:38Z</time>
      </trkpt>
      <trkpt lat="36.732523" lon="-4.324125">
        <ele>120.089</ele>
        <time>2021-06-16T14:18:40Z</time>
      </trkpt>
      <trkpt lat="36.732477" lon="-4.324386">
        <ele>120.417</ele>
        <time>2021-06-16T14:18:41Z</time>
      </trkpt>
      <trkpt lat="36.732436" lon="-4.324644">
        <ele>120.808</ele>
        <time>2021-06-16T14:18:42Z</time>
      </trkpt>
      <trkpt lat="36.732372" lon="-4.325162">
        <ele>121.129</ele>
        <time>2021-06-16T14:18:44Z</time>
      </trkpt>
      <trkpt lat="36.732345" lon="-4.325426">
        <ele>121.657</ele>
        <time>2021-06-16T14:18:45Z</time>
      </trkpt>
      <trkpt lat="36.732304" lon="-4.325977">
        <ele>122.631</ele>
        <time>2021-06-16T14:18:47Z</time>
      </trkpt>
      <trkpt lat="36.732296" lon="-4.326462">
        <ele>123.380</ele>
        <time>2021-06-16T14:18:49Z</time>
      </trkpt>
      <trkpt lat="36.7323" lon="-4.326725">
        <ele>123.923</ele>
        <time>2021-06-16T14:18:50Z</time>
      </trkpt>
      <trkpt lat="36.73232" lon="-4.327283">
        <ele>124.540</ele>
        <time>2021-06-16T14:18:52Z</time>
      </trkpt>
      <trkpt lat="36.732368" lon="-4.32776">
        <ele>124.947</ele>
        <time>2021-06-16T14:18:54Z</time>
      </trkpt>
      <trkpt lat="36.732401" lon="-4.328023">
        <ele>125.397</ele>
        <time>2021-06-16T14:18:55Z</time>
      </trkpt>
      <trkpt lat="36.732439" lon="-4.328313">
        <ele>126.183</ele>
        <time>2021-06-16T14:18:56Z</time>
      </trkpt>
      <trkpt lat="36.732515" lon="-4.328799">
        <ele>127.125</ele>
        <time>2021-06-16T14:18:58Z</time>
      </trkpt>
      <trkpt lat="36.732599" lon="-4.329323">
        <ele>128.317</ele>
        <time>2021-06-16T14:19:00Z</time>
      </trkpt>
      <trkpt lat="36.732641" lon="-4.329618">
        <ele>129.108</ele>
        <time>2021-06-16T14:19:01Z</time>
      </trkpt>
      <trkpt lat="36.732702" lon="-4.330098">
        <ele>130.015</ele>
        <time>2021-06-16T14:19:03Z</time>
      </trkpt>
      <trkpt lat="36.732764" lon="-4.330655">
        <ele>130.853</ele>
        <time>2021-06-16T14:19:05Z</time>
      </trkpt>
      <trkpt lat="36.732803" lon="-4.331146">
        <ele>131.357</ele>
        <time>2021-06-16T14:19:07Z</time>
      </trkpt>
      <trkpt lat="36.732833" lon="-4.331693">
        <ele>131.746</ele>
        <time>2021-06-16T14:19:09Z</time>
      </trkpt>
      <trkpt lat="36.732841" lon="-4.332217">
        <ele>132.259</ele>
        <time>2021-06-16T14:19:11Z</time>
      </trkpt>
      <trkpt lat="36.732838" lon="-4.332491">
        <ele>132.456</ele>
        <time>2021-06-16T14:19:12Z</time>
      </trkpt>
      <trkpt lat="36.73283" lon="-4.332798">
        <ele>132.553</ele>
        <time>2021-06-16T14:19:13Z</time>
      </trkpt>
      <trkpt lat="36.732802" lon="-4.333292">
        <ele>132.313</ele>
        <time>2021-06-16T14:19:15Z</time>
      </trkpt>
      <trkpt lat="36.732751" lon="-4.333831">
        <ele>132.326</ele>
        <time>2021-06-16T14:19:17Z</time>
      </trkpt>
      <trkpt lat="36.732716" lon="-4.334131">
        <ele>132.047</ele>
        <time>2021-06-16T14:19:18Z</time>
      </trkpt>
      <trkpt lat="36.732658" lon="-4.334619">
        <ele>131.411</ele>
        <time>2021-06-16T14:19:20Z</time>
      </trkpt>
      <trkpt lat="36.732598" lon="-4.335151">
        <ele>131.008</ele>
        <time>2021-06-16T14:19:22Z</time>
      </trkpt>
      <trkpt lat="36.73257" lon="-4.33542">
        <ele>130.569</ele>
        <time>2021-06-16T14:19:23Z</time>
      </trkpt>
      <trkpt lat="36.732546" lon="-4.33569">
        <ele>129.997</ele>
        <time>2021-06-16T14:19:24Z</time>
      </trkpt>
      <trkpt lat="36.732509" lon="-4.33624">
        <ele>128.951</ele>
        <time>2021-06-16T14:19:26Z</time>
      </trkpt>
      <trkpt lat="36.732486" lon="-4.336779">
        <ele>128.420</ele>
        <time>2021-06-16T14:19:28Z</time>
      </trkpt>
      <trkpt lat="36.73249" lon="-4.337362">
        <ele>128.243</ele>
        <time>2021-06-16T14:19:30Z</time>
      </trkpt>
      <trkpt lat="36.732517" lon="-4.337858">
        <ele>128.180</ele>
        <time>2021-06-16T14:19:32Z</time>
      </trkpt>
      <trkpt lat="36.732559" lon="-4.338394">
        <ele>127.997</ele>
        <time>2021-06-16T14:19:34Z</time>
      </trkpt>
      <trkpt lat="36.732587" lon="-4.338659">
        <ele>127.577</ele>
        <time>2021-06-16T14:19:35Z</time>
      </trkpt>
      <trkpt lat="36.73262" lon="-4.338924">
        <ele>127.057</ele>
        <time>2021-06-16T14:19:36Z</time>
      </trkpt>
      <trkpt lat="36.732701" lon="-4.33948">
        <ele>126.200</ele>
        <time>2021-06-16T14:19:38Z</time>
      </trkpt>
      <trkpt lat="36.732798" lon="-4.339958">
        <ele>125.420</ele>
        <time>2021-06-16T14:19:40Z</time>
      </trkpt>
      <trkpt lat="36.73292" lon="-4.340473">
        <ele>125.108</ele>
        <time>2021-06-16T14:19:42Z</time>
      </trkpt>
      <trkpt lat="36.733055" lon="-4.340972">
        <ele>124.782</ele>
        <time>2021-06-16T14:19:44Z</time>
      </trkpt>
      <trkpt lat="36.733197" lon="-4.341487">
        <ele>124.190</ele>
        <time>2021-06-16T14:19:46Z</time>
      </trkpt>
      <trkpt lat="36.733306" lon="-4.341953">
        <ele>123.984</ele>
        <time>2021-06-16T14:19:48Z</time>
      </trkpt>
      <trkpt lat="36.733359" lon="-4.342216">
        <ele>123.913</ele>
        <time>2021-06-16T14:19:49Z</time>
      </trkpt>
      <trkpt lat="36.733406" lon="-4.342486">
        <ele>123.836</ele>
        <time>2021-06-16T14:19:50Z</time>
      </trkpt>
      <trkpt lat="36.733481" lon="-4.343007">
        <ele>124.023</ele>
        <time>2021-06-16T14:19:52Z</time>
      </trkpt>
      <trkpt lat="36.733542" lon="-4.343572">
        <ele>124.520</ele>
        <time>2021-06-16T14:19:54Z</time>
      </trkpt>
      <trkpt lat="36.733577" lon="-4.344061">
        <ele>124.790</ele>
        <time>2021-06-16T14:19:56Z</time>
      </trkpt>
      <trkpt lat="36.733584" lon="-4.344607">
        <ele>124.472</ele>
        <time>2021-06-16T14:19:58Z</time>
      </trkpt>
      <trkpt lat="36.733566" lon="-4.345125">
        <ele>123.613</ele>
        <time>2021-06-16T14:20:00Z</time>
      </trkpt>
      <trkpt lat="36.733527" lon="-4.345685">
        <ele>123.214</ele>
        <time>2021-06-16T14:20:02Z</time>
      </trkpt>
      <trkpt lat="36.733468" lon="-4.346161">
        <ele>122.608</ele>
        <time>2021-06-16T14:20:04Z</time>
      </trkpt>
      <trkpt lat="36.733428" lon="-4.346423">
        <ele>121.774</ele>
        <time>2021-06-16T14:20:05Z</time>
      </trkpt>
      <trkpt lat="36.733317" lon="-4.346964">
        <ele>120.992</ele>
        <time>2021-06-16T14:20:07Z</time>
      </trkpt>
      <trkpt lat="36.733198" lon="-4.347432">
        <ele>120.116</ele>
        <time>2021-06-16T14:20:09Z</time>
      </trkpt>
      <trkpt lat="36.733047" lon="-4.347937">
        <ele>119.455</ele>
        <time>2021-06-16T14:20:11Z</time>
      </trkpt>
      <trkpt lat="36.732965" lon="-4.348202">
        <ele>118.988</ele>
        <time>2021-06-16T14:20:12Z</time>
      </trkpt>
      <trkpt lat="36.732813" lon="-4.348674">
        <ele>118.215</ele>
        <time>2021-06-16T14:20:14Z</time>
      </trkpt>
      <trkpt lat="36.73274" lon="-4.348927">
        <ele>117.252</ele>
        <time>2021-06-16T14:20:15Z</time>
      </trkpt>
      <trkpt lat="36.732663" lon="-4.349208">
        <ele>116.672</ele>
        <time>2021-06-16T14:20:16Z</time>
      </trkpt>
      <trkpt lat="36.73255" lon="-4.349691">
        <ele>116.435</ele>
        <time>2021-06-16T14:20:18Z</time>
      </trkpt>
      <trkpt lat="36.7325" lon="-4.349959">
        <ele>116.086</ele>
        <time>2021-06-16T14:20:19Z</time>
      </trkpt>
      <trkpt lat="36.732422" lon="-4.350527">
        <ele>115.614</ele>
        <time>2021-06-16T14:20:21Z</time>
      </trkpt>
      <trkpt lat="36.732384" lon="-4.35101">
        <ele>115.208</ele>
        <time>2021-06-16T14:20:23Z</time>
      </trkpt>
      <trkpt lat="36.73237" lon="-4.351283">
        <ele>114.770</ele>
        <time>2021-06-16T14:20:24Z</time>
      </trkpt>
      <trkpt lat="36.732364" lon="-4.351586">
        <ele>114.748</ele>
        <time>2021-06-16T14:20:25Z</time>
      </trkpt>
      <trkpt lat="36.732381" lon="-4.352077">
        <ele>114.332</ele>
        <time>2021-06-16T14:20:27Z</time>
      </trkpt>
      <trkpt lat="36.732409" lon="-4.352615">
        <ele>114.091</ele>
        <time>2021-06-16T14:20:29Z</time>
      </trkpt>
      <trkpt lat="36.732424" lon="-4.352882">
        <ele>113.624</ele>
        <time>2021-06-16T14:20:30Z</time>
      </trkpt>
      <trkpt lat="36.732433" lon="-4.353412">
        <ele>113.251</ele>
        <time>2021-06-16T14:20:32Z</time>
      </trkpt>
      <trkpt lat="36.732429" lon="-4.353709">
        <ele>112.528</ele>
        <time>2021-06-16T14:20:33Z</time>
      </trkpt>
      <trkpt lat="36.73241" lon="-4.354183">
        <ele>112.368</ele>
        <time>2021-06-16T14:20:35Z</time>
      </trkpt>
      <trkpt lat="36.732391" lon="-4.354445">
        <ele>112.096</ele>
        <time>2021-06-16T14:20:36Z</time>
      </trkpt>
      <trkpt lat="36.732362" lon="-4.354714">
        <ele>111.731</ele>
        <time>2021-06-16T14:20:37Z</time>
      </trkpt>
      <trkpt lat="36.732278" lon="-4.35522">
        <ele>111.124</ele>
        <time>2021-06-16T14:20:39Z</time>
      </trkpt>
      <trkpt lat="36.732161" lon="-4.355738">
        <ele>110.108</ele>
        <time>2021-06-16T14:20:41Z</time>
      </trkpt>
      <trkpt lat="36.732089" lon="-4.355997">
        <ele>109.026</ele>
        <time>2021-06-16T14:20:42Z</time>
      </trkpt>
      <trkpt lat="36.732009" lon="-4.356251">
        <ele>107.814</ele>
        <time>2021-06-16T14:20:43Z</time>
      </trkpt>
      <trkpt lat="36.731919" lon="-4.356501">
        <ele>106.658</ele>
        <time>2021-06-16T14:20:44Z</time>
      </trkpt>
      <trkpt lat="36.731704" lon="-4.356997">
        <ele>105.097</ele>
        <time>2021-06-16T14:20:46Z</time>
      </trkpt>
      <trkpt lat="36.73146" lon="-4.357479">
        <ele>102.910</ele>
        <time>2021-06-16T14:20:48Z</time>
      </trkpt>
      <trkpt lat="36.731163" lon="-4.357937">
        <ele>100.117</ele>
        <time>2021-06-16T14:20:50Z</time>
      </trkpt>
      <trkpt lat="36.730879" lon="-4.358279">
        <ele>97.444</ele>
        <time>2021-06-16T14:20:52Z</time>
      </trkpt>
      <trkpt lat="36.730541" lon="-4.358654">
        <ele>94.974</ele>
        <time>2021-06-16T14:20:54Z</time>
      </trkpt>
      <trkpt lat="36.730257" lon="-4.35897">
        <ele>92.233</ele>
        <time>2021-06-16T14:20:56Z</time>
      </trkpt>
      <trkpt lat="36.730103" lon="-4.359148">
        <ele>90.923</ele>
        <time>2021-06-16T14:20:57Z</time>
      </trkpt>
      <trkpt lat="36.729952" lon="-4.35933">
        <ele>89.815</ele>
        <time>2021-06-16T14:20:58Z</time>
      </trkpt>
      <trkpt lat="36.729787" lon="-4.359535">
        <ele>88.808</ele>
        <time>2021-06-16T14:20:59Z</time>
      </trkpt>
      <trkpt lat="36.729546" lon="-4.359897">
        <ele>87.030</ele>
        <time>2021-06-16T14:21:01Z</time>
      </trkpt>
      <trkpt lat="36.729419" lon="-4.360109">
        <ele>85.498</ele>
        <time>2021-06-16T14:21:02Z</time>
      </trkpt>
      <trkpt lat="36.729292" lon="-4.360356">
        <ele>84.172</ele>
        <time>2021-06-16T14:21:03Z</time>
      </trkpt>
      <trkpt lat="36.729118" lon="-4.360787">
        <ele>82.511</ele>
        <time>2021-06-16T14:21:05Z</time>
      </trkpt>
      <trkpt lat="36.729035" lon="-4.361027">
        <ele>81.234</ele>
        <time>2021-06-16T14:21:06Z</time>
      </trkpt>
      <trkpt lat="36.728893" lon="-4.361541">
        <ele>79.411</ele>
        <time>2021-06-16T14:21:08Z</time>
      </trkpt>
      <trkpt lat="36.728817" lon="-4.362">
        <ele>77.528</ele>
        <time>2021-06-16T14:21:10Z</time>
      </trkpt>
      <trkpt lat="36.728786" lon="-4.36226">
        <ele>75.678</ele>
        <time>2021-06-16T14:21:11Z</time>
      </trkpt>
      <trkpt lat="36.728762" lon="-4.362553">
        <ele>74.194</ele>
        <time>2021-06-16T14:21:12Z</time>
      </trkpt>
      <trkpt lat="36.728754" lon="-4.363036">
        <ele>72.957</ele>
        <time>2021-06-16T14:21:14Z</time>
      </trkpt>
      <trkpt lat="36.728766" lon="-4.363304">
        <ele>71.522</ele>
        <time>2021-06-16T14:21:15Z</time>
      </trkpt>
      <trkpt lat="36.728792" lon="-4.363576">
        <ele>70.008</ele>
        <time>2021-06-16T14:21:16Z</time>
      </trkpt>
      <trkpt lat="36.728875" lon="-4.364079">
        <ele>68.866</ele>
        <time>2021-06-16T14:21:18Z</time>
      </trkpt>
      <trkpt lat="36.729007" lon="-4.364614">
        <ele>67.734</ele>
        <time>2021-06-16T14:21:20Z</time>
      </trkpt>
      <trkpt lat="36.729165" lon="-4.365049">
        <ele>67.278</ele>
        <time>2021-06-16T14:21:22Z</time>
      </trkpt>
      <trkpt lat="36.729264" lon="-4.365279">
        <ele>66.867</ele>
        <time>2021-06-16T14:21:23Z</time>
      </trkpt>
      <trkpt lat="36.729383" lon="-4.365531">
        <ele>66.950</ele>
        <time>2021-06-16T14:21:24Z</time>
      </trkpt>
      <trkpt lat="36.729609" lon="-4.365917">
        <ele>67.817</ele>
        <time>2021-06-16T14:21:26Z</time>
      </trkpt>
      <trkpt lat="36.729733" lon="-4.366128">
        <ele>69.094</ele>
        <time>2021-06-16T14:21:27Z</time>
      </trkpt>
      <trkpt lat="36.729992" lon="-4.366558">
        <ele>70.834</ele>
        <time>2021-06-16T14:21:29Z</time>
      </trkpt>
      <trkpt lat="36.73021" lon="-4.366922">
        <ele>72.324</ele>
        <time>2021-06-16T14:21:31Z</time>
      </trkpt>
      <trkpt lat="36.730464" lon="-4.367337">
        <ele>73.904</ele>
        <time>2021-06-16T14:21:33Z</time>
      </trkpt>
      <trkpt lat="36.730682" lon="-4.367704">
        <ele>76.414</ele>
        <time>2021-06-16T14:21:35Z</time>
      </trkpt>
      <trkpt lat="36.730919" lon="-4.368121">
        <ele>78.908</ele>
        <time>2021-06-16T14:21:37Z</time>
      </trkpt>
      <trkpt lat="36.731051" lon="-4.368355">
        <ele>81.429</ele>
        <time>2021-06-16T14:21:38Z</time>
      </trkpt>
      <trkpt lat="36.731256" lon="-4.368748">
        <ele>84.457</ele>
        <time>2021-06-16T14:21:40Z</time>
      </trkpt>
      <trkpt lat="36.731353" lon="-4.368976">
        <ele>86.331</ele>
        <time>2021-06-16T14:21:41Z</time>
      </trkpt>
      <trkpt lat="36.731448" lon="-4.36924">
        <ele>88.040</ele>
        <time>2021-06-16T14:21:42Z</time>
      </trkpt>
      <trkpt lat="36.731566" lon="-4.369686">
        <ele>90.493</ele>
        <time>2021-06-16T14:21:44Z</time>
      </trkpt>
      <trkpt lat="36.731655" lon="-4.370174">
        <ele>92.430</ele>
        <time>2021-06-16T14:21:46Z</time>
      </trkpt>
      <trkpt lat="36.731701" lon="-4.370654">
        <ele>94.697</ele>
        <time>2021-06-16T14:21:48Z</time>
      </trkpt>
      <trkpt lat="36.731712" lon="-4.370897">
        <ele>96.657</ele>
        <time>2021-06-16T14:21:49Z</time>
      </trkpt>
      <trkpt lat="36.731714" lon="-4.371162">
        <ele>98.378</ele>
        <time>2021-06-16T14:21:50Z</time>
      </trkpt>
      <trkpt lat="36.731701" lon="-4.371593">
        <ele>100.633</ele>
        <time>2021-06-16T14:21:52Z</time>
      </trkpt>
      <trkpt lat="36.731693" lon="-4.37183">
        <ele>102.426</ele>
        <time>2021-06-16T14:21:53Z</time>
      </trkpt>
      <trkpt lat="36.731686" lon="-4.372063">
        <ele>103.608</ele>
        <time>2021-06-16T14:21:54Z</time>
      </trkpt>
      <trkpt lat="36.73168" lon="-4.372299">
        <ele>104.964</ele>
        <time>2021-06-16T14:21:55Z</time>
      </trkpt>
      <trkpt lat="36.731691" lon="-4.372778">
        <ele>107.132</ele>
        <time>2021-06-16T14:21:57Z</time>
      </trkpt>
      <trkpt lat="36.731713" lon="-4.373046">
        <ele>108.876</ele>
        <time>2021-06-16T14:21:58Z</time>
      </trkpt>
      <trkpt lat="36.73178" lon="-4.373471">
        <ele>110.825</ele>
        <time>2021-06-16T14:22:00Z</time>
      </trkpt>
      <trkpt lat="36.731831" lon="-4.373692">
        <ele>112.328</ele>
        <time>2021-06-16T14:22:01Z</time>
      </trkpt>
      <trkpt lat="36.73189" lon="-4.373902">
        <ele>113.715</ele>
        <time>2021-06-16T14:22:02Z</time>
      </trkpt>
      <trkpt lat="36.731957" lon="-4.37414">
        <ele>114.862</ele>
        <time>2021-06-16T14:22:03Z</time>
      </trkpt>
      <trkpt lat="36.73209" lon="-4.374525">
        <ele>116.052</ele>
        <time>2021-06-16T14:22:05Z</time>
      </trkpt>
      <trkpt lat="36.732182" lon="-4.374724">
        <ele>117.258</ele>
        <time>2021-06-16T14:22:06Z</time>
      </trkpt>
      <trkpt lat="36.732293" lon="-4.374944">
        <ele>118.052</ele>
        <time>2021-06-16T14:22:07Z</time>
      </trkpt>
      <trkpt lat="36.732495" lon="-4.375283">
        <ele>119.117</ele>
        <time>2021-06-16T14:22:09Z</time>
      </trkpt>
      <trkpt lat="36.732615" lon="-4.375464">
        <ele>120.308</ele>
        <time>2021-06-16T14:22:10Z</time>
      </trkpt>
      <trkpt lat="36.732745" lon="-4.375636">
        <ele>121.072</ele>
        <time>2021-06-16T14:22:11Z</time>
      </trkpt>
      <trkpt lat="36.7329" lon="-4.375825">
        <ele>121.510</ele>
        <time>2021-06-16T14:22:12Z</time>
      </trkpt>
      <trkpt lat="36.733187" lon="-4.376106">
        <ele>122.734</ele>
        <time>2021-06-16T14:22:14Z</time>
      </trkpt>
      <trkpt lat="36.733355" lon="-4.376247">
        <ele>123.683</ele>
        <time>2021-06-16T14:22:15Z</time>
      </trkpt>
      <trkpt lat="36.733703" lon="-4.376492">
        <ele>124.856</ele>
        <time>2021-06-16T14:22:17Z</time>
      </trkpt>
      <trkpt lat="36.733883" lon="-4.376599">
        <ele>126.233</ele>
        <time>2021-06-16T14:22:18Z</time>
      </trkpt>
      <trkpt lat="36.734282" lon="-4.376789">
        <ele>127.490</ele>
        <time>2021-06-16T14:22:20Z</time>
      </trkpt>
      <trkpt lat="36.734637" lon="-4.376918">
        <ele>128.420</ele>
        <time>2021-06-16T14:22:22Z</time>
      </trkpt>
      <trkpt lat="36.734834" lon="-4.37698">
        <ele>129.523</ele>
        <time>2021-06-16T14:22:23Z</time>
      </trkpt>
      <trkpt lat="36.735033" lon="-4.377042">
        <ele>130.583</ele>
        <time>2021-06-16T14:22:24Z</time>
      </trkpt>
      <trkpt lat="36.735416" lon="-4.37717">
        <ele>131.411</ele>
        <time>2021-06-16T14:22:26Z</time>
      </trkpt>
      <trkpt lat="36.735834" lon="-4.377311">
        <ele>132.508</ele>
        <time>2021-06-16T14:22:28Z</time>
      </trkpt>
      <trkpt lat="36.736202" lon="-4.377439">
        <ele>133.249</ele>
        <time>2021-06-16T14:22:30Z</time>
      </trkpt>
      <trkpt lat="36.736604" lon="-4.377592">
        <ele>134.587</ele>
        <time>2021-06-16T14:22:32Z</time>
      </trkpt>
      <trkpt lat="36.736978" lon="-4.37774">
        <ele>135.691</ele>
        <time>2021-06-16T14:22:34Z</time>
      </trkpt>
      <trkpt lat="36.73735" lon="-4.377922">
        <ele>136.470</ele>
        <time>2021-06-16T14:22:36Z</time>
      </trkpt>
      <trkpt lat="36.737649" lon="-4.378092">
        <ele>137.293</ele>
        <time>2021-06-16T14:22:38Z</time>
      </trkpt>
      <trkpt lat="36.739927" lon="-4.387552">
        <ele>139.120</ele>
        <time>2021-06-16T14:23:22Z</time>
      </trkpt>
      <trkpt lat="36.739815" lon="-4.387781">
        <ele>140.417</ele>
        <time>2021-06-16T14:23:23Z</time>
      </trkpt>
      <trkpt lat="36.739596" lon="-4.388233">
        <ele>141.427</ele>
        <time>2021-06-16T14:23:25Z</time>
      </trkpt>
      <trkpt lat="36.739385" lon="-4.388681">
        <ele>141.699</ele>
        <time>2021-06-16T14:23:27Z</time>
      </trkpt>
      <trkpt lat="36.739179" lon="-4.38913">
        <ele>141.007</ele>
        <time>2021-06-16T14:23:29Z</time>
      </trkpt>
      <trkpt lat="36.739076" lon="-4.389354">
        <ele>140.427</ele>
        <time>2021-06-16T14:23:30Z</time>
      </trkpt>
      <trkpt lat="36.738881" lon="-4.389801">
        <ele>139.608</ele>
        <time>2021-06-16T14:23:32Z</time>
      </trkpt>
      <trkpt lat="36.738788" lon="-4.390031">
        <ele>139.356</ele>
        <time>2021-06-16T14:23:33Z</time>
      </trkpt>
      <trkpt lat="36.738706" lon="-4.390265">
        <ele>138.734</ele>
        <time>2021-06-16T14:23:34Z</time>
      </trkpt>
      <trkpt lat="36.738632" lon="-4.390502">
        <ele>138.358</ele>
        <time>2021-06-16T14:23:35Z</time>
      </trkpt>
      <trkpt lat="36.738514" lon="-4.390996">
        <ele>137.637</ele>
        <time>2021-06-16T14:23:37Z</time>
      </trkpt>
      <trkpt lat="36.73847" lon="-4.391247">
        <ele>136.240</ele>
        <time>2021-06-16T14:23:38Z</time>
      </trkpt>
      <trkpt lat="36.73841" lon="-4.391751">
        <ele>134.667</ele>
        <time>2021-06-16T14:23:40Z</time>
      </trkpt>
      <trkpt lat="36.738392" lon="-4.392006">
        <ele>133.514</ele>
        <time>2021-06-16T14:23:41Z</time>
      </trkpt>
      <trkpt lat="36.738384" lon="-4.392259">
        <ele>132.524</ele>
        <time>2021-06-16T14:23:42Z</time>
      </trkpt>
      <trkpt lat="36.738381" lon="-4.392512">
        <ele>131.919</ele>
        <time>2021-06-16T14:23:43Z</time>
      </trkpt>
      <trkpt lat="36.738402" lon="-4.393012">
        <ele>130.809</ele>
        <time>2021-06-16T14:23:45Z</time>
      </trkpt>
      <trkpt lat="36.738464" lon="-4.393508">
        <ele>130.519</ele>
        <time>2021-06-16T14:23:47Z</time>
      </trkpt>
      <trkpt lat="36.738556" lon="-4.393984">
        <ele>129.708</ele>
        <time>2021-06-16T14:23:49Z</time>
      </trkpt>
      <trkpt lat="36.738685" lon="-4.394461">
        <ele>128.968</ele>
        <time>2021-06-16T14:23:51Z</time>
      </trkpt>
      <trkpt lat="36.738857" lon="-4.394932">
        <ele>127.776</ele>
        <time>2021-06-16T14:23:53Z</time>
      </trkpt>
      <trkpt lat="36.739055" lon="-4.395405">
        <ele>127.250</ele>
        <time>2021-06-16T14:23:55Z</time>
      </trkpt>
      <trkpt lat="36.739158" lon="-4.395649">
        <ele>126.689</ele>
        <time>2021-06-16T14:23:56Z</time>
      </trkpt>
      <trkpt lat="36.739274" lon="-4.395922">
        <ele>125.642</ele>
        <time>2021-06-16T14:23:57Z</time>
      </trkpt>
      <trkpt lat="36.739454" lon="-4.396386">
        <ele>124.489</ele>
        <time>2021-06-16T14:23:59Z</time>
      </trkpt>
      <trkpt lat="36.739541" lon="-4.39665">
        <ele>123.376</ele>
        <time>2021-06-16T14:24:00Z</time>
      </trkpt>
      <trkpt lat="36.73962" lon="-4.396921">
        <ele>122.536</ele>
        <time>2021-06-16T14:24:01Z</time>
      </trkpt>
      <trkpt lat="36.739716" lon="-4.397442">
        <ele>121.499</ele>
        <time>2021-06-16T14:24:03Z</time>
      </trkpt>
      <trkpt lat="36.739778" lon="-4.397967">
        <ele>119.907</ele>
        <time>2021-06-16T14:24:05Z</time>
      </trkpt>
      <trkpt lat="36.739798" lon="-4.398229">
        <ele>119.127</ele>
        <time>2021-06-16T14:24:06Z</time>
      </trkpt>
      <trkpt lat="36.739819" lon="-4.398492">
        <ele>118.108</ele>
        <time>2021-06-16T14:24:07Z</time>
      </trkpt>
      <trkpt lat="36.739843" lon="-4.398759">
        <ele>117.516</ele>
        <time>2021-06-16T14:24:08Z</time>
      </trkpt>
      <trkpt lat="36.73987" lon="-4.399027">
        <ele>116.954</ele>
        <time>2021-06-16T14:24:09Z</time>
      </trkpt>
      <trkpt lat="36.739907" lon="-4.399331">
        <ele>116.528</ele>
        <time>2021-06-16T14:24:10Z</time>
      </trkpt>
      <trkpt lat="36.740033" lon="-4.399825">
        <ele>117.367</ele>
        <time>2021-06-16T14:24:12Z</time>
      </trkpt>
      <trkpt lat="36.740124" lon="-4.400091">
        <ele>118.090</ele>
        <time>2021-06-16T14:24:13Z</time>
      </trkpt>
      <trkpt lat="36.740235" lon="-4.400379">
        <ele>118.867</ele>
        <time>2021-06-16T14:24:14Z</time>
      </trkpt>
      <trkpt lat="36.740453" lon="-4.400823">
        <ele>120.294</ele>
        <time>2021-06-16T14:24:16Z</time>
      </trkpt>
      <trkpt lat="36.740719" lon="-4.401282">
        <ele>122.584</ele>
        <time>2021-06-16T14:24:18Z</time>
      </trkpt>
      <trkpt lat="36.740867" lon="-4.401538">
        <ele>124.153</ele>
        <time>2021-06-16T14:24:19Z</time>
      </trkpt>
      <trkpt lat="36.741104" lon="-4.401943">
        <ele>126.104</ele>
        <time>2021-06-16T14:24:21Z</time>
      </trkpt>
      <trkpt lat="36.741234" lon="-4.402165">
        <ele>128.014</ele>
        <time>2021-06-16T14:24:22Z</time>
      </trkpt>
      <trkpt lat="36.74138" lon="-4.402411">
        <ele>129.608</ele>
        <time>2021-06-16T14:24:23Z</time>
      </trkpt>
      <trkpt lat="36.741629" lon="-4.402797">
        <ele>131.112</ele>
        <time>2021-06-16T14:24:25Z</time>
      </trkpt>
      <trkpt lat="36.741769" lon="-4.403009">
        <ele>132.130</ele>
        <time>2021-06-16T14:24:26Z</time>
      </trkpt>
      <trkpt lat="36.742063" lon="-4.403449">
        <ele>134.114</ele>
        <time>2021-06-16T14:24:28Z</time>
      </trkpt>
      <trkpt lat="36.742317" lon="-4.403835">
        <ele>136.073</ele>
        <time>2021-06-16T14:24:30Z</time>
      </trkpt>
      <trkpt lat="36.742602" lon="-4.404285">
        <ele>137.656</ele>
        <time>2021-06-16T14:24:32Z</time>
      </trkpt>
      <trkpt lat="36.742833" lon="-4.404675">
        <ele>139.993</ele>
        <time>2021-06-16T14:24:34Z</time>
      </trkpt>
      <trkpt lat="36.742961" lon="-4.404883">
        <ele>141.850</ele>
        <time>2021-06-16T14:24:35Z</time>
      </trkpt>
      <trkpt lat="36.743088" lon="-4.405092">
        <ele>143.190</ele>
        <time>2021-06-16T14:24:36Z</time>
      </trkpt>
      <trkpt lat="36.743234" lon="-4.405324">
        <ele>144.371</ele>
        <time>2021-06-16T14:24:37Z</time>
      </trkpt>
      <trkpt lat="36.743483" lon="-4.405683">
        <ele>145.141</ele>
        <time>2021-06-16T14:24:39Z</time>
      </trkpt>
      <trkpt lat="36.743623" lon="-4.405875">
        <ele>146.415</ele>
        <time>2021-06-16T14:24:40Z</time>
      </trkpt>
      <trkpt lat="36.743783" lon="-4.406082">
        <ele>147.208</ele>
        <time>2021-06-16T14:24:41Z</time>
      </trkpt>
      <trkpt lat="36.744055" lon="-4.406412">
        <ele>148.734</ele>
        <time>2021-06-16T14:24:43Z</time>
      </trkpt>
      <trkpt lat="36.744363" lon="-4.406766">
        <ele>150.112</ele>
        <time>2021-06-16T14:24:45Z</time>
      </trkpt>
      <trkpt lat="36.744541" lon="-4.406956">
        <ele>151.226</ele>
        <time>2021-06-16T14:24:46Z</time>
      </trkpt>
      <trkpt lat="36.744845" lon="-4.407234">
        <ele>152.985</ele>
        <time>2021-06-16T14:24:48Z</time>
      </trkpt>
      <trkpt lat="36.745016" lon="-4.407382">
        <ele>154.268</ele>
        <time>2021-06-16T14:24:49Z</time>
      </trkpt>
      <trkpt lat="36.74521" lon="-4.407544">
        <ele>155.715</ele>
        <time>2021-06-16T14:24:50Z</time>
      </trkpt>
      <trkpt lat="36.745536" lon="-4.407797">
        <ele>157.812</ele>
        <time>2021-06-16T14:24:52Z</time>
      </trkpt>
      <trkpt lat="36.745718" lon="-4.40793">
        <ele>159.392</ele>
        <time>2021-06-16T14:24:53Z</time>
      </trkpt>
      <trkpt lat="36.746108" lon="-4.408197">
        <ele>160.633</ele>
        <time>2021-06-16T14:24:55Z</time>
      </trkpt>
      <trkpt lat="36.746451" lon="-4.408426">
        <ele>162.123</ele>
        <time>2021-06-16T14:24:57Z</time>
      </trkpt>
      <trkpt lat="36.746646" lon="-4.408555">
        <ele>162.715</ele>
        <time>2021-06-16T14:24:58Z</time>
      </trkpt>
      <trkpt lat="36.746862" lon="-4.408701">
        <ele>163.408</ele>
        <time>2021-06-16T14:24:59Z</time>
      </trkpt>
      <trkpt lat="36.747213" lon="-4.408946">
        <ele>163.950</ele>
        <time>2021-06-16T14:25:01Z</time>
      </trkpt>
      <trkpt lat="36.747399" lon="-4.409086">
        <ele>163.988</ele>
        <time>2021-06-16T14:25:02Z</time>
      </trkpt>
      <trkpt lat="36.747764" lon="-4.409393">
        <ele>162.922</ele>
        <time>2021-06-16T14:25:04Z</time>
      </trkpt>
      <trkpt lat="36.747951" lon="-4.409559">
        <ele>162.391</ele>
        <time>2021-06-16T14:25:05Z</time>
      </trkpt>
      <trkpt lat="36.748334" lon="-4.409946">
        <ele>161.474</ele>
        <time>2021-06-16T14:25:07Z</time>
      </trkpt>
      <trkpt lat="36.748673" lon="-4.410284">
        <ele>159.021</ele>
        <time>2021-06-16T14:25:09Z</time>
      </trkpt>
      <trkpt lat="36.748841" lon="-4.410481">
        <ele>157.578</ele>
        <time>2021-06-16T14:25:10Z</time>
      </trkpt>
      <trkpt lat="36.749005" lon="-4.410681">
        <ele>155.458</ele>
        <time>2021-06-16T14:25:11Z</time>
      </trkpt>
      <trkpt lat="36.749319" lon="-4.411083">
        <ele>153.051</ele>
        <time>2021-06-16T14:25:13Z</time>
      </trkpt>
      <trkpt lat="36.749472" lon="-4.411294">
        <ele>151.401</ele>
        <time>2021-06-16T14:25:14Z</time>
      </trkpt>
      <trkpt lat="36.749753" lon="-4.411731">
        <ele>149.111</ele>
        <time>2021-06-16T14:25:16Z</time>
      </trkpt>
      <trkpt lat="36.749887" lon="-4.41195">
        <ele>147.108</ele>
        <time>2021-06-16T14:25:17Z</time>
      </trkpt>
      <trkpt lat="36.75002" lon="-4.412175">
        <ele>145.432</ele>
        <time>2021-06-16T14:25:18Z</time>
      </trkpt>
      <trkpt lat="36.75015" lon="-4.412401">
        <ele>143.520</ele>
        <time>2021-06-16T14:25:19Z</time>
      </trkpt>
      <trkpt lat="36.750278" lon="-4.41263">
        <ele>141.614</ele>
        <time>2021-06-16T14:25:20Z</time>
      </trkpt>
      <trkpt lat="36.750537" lon="-4.41308">
        <ele>138.583</ele>
        <time>2021-06-16T14:25:22Z</time>
      </trkpt>
      <trkpt lat="36.75068" lon="-4.41332">
        <ele>136.556</ele>
        <time>2021-06-16T14:25:23Z</time>
      </trkpt>
      <trkpt lat="36.750955" lon="-4.41372">
        <ele>134.113</ele>
        <time>2021-06-16T14:25:25Z</time>
      </trkpt>
      <trkpt lat="36.751257" lon="-4.4141">
        <ele>132.610</ele>
        <time>2021-06-16T14:25:27Z</time>
      </trkpt>
      <trkpt lat="36.751417" lon="-4.414279">
        <ele>131.420</ele>
        <time>2021-06-16T14:25:28Z</time>
      </trkpt>
      <trkpt lat="36.751765" lon="-4.414589">
        <ele>129.463</ele>
        <time>2021-06-16T14:25:30Z</time>
      </trkpt>
      <trkpt lat="36.751974" lon="-4.414749">
        <ele>127.844</ele>
        <time>2021-06-16T14:25:31Z</time>
      </trkpt>
      <trkpt lat="36.752325" lon="-4.414987">
        <ele>125.218</ele>
        <time>2021-06-16T14:25:33Z</time>
      </trkpt>
      <trkpt lat="36.752525" lon="-4.415112">
        <ele>123.008</ele>
        <time>2021-06-16T14:25:34Z</time>
      </trkpt>
      <trkpt lat="36.752927" lon="-4.415335">
        <ele>121.183</ele>
        <time>2021-06-16T14:25:36Z</time>
      </trkpt>
      <trkpt lat="36.753131" lon="-4.415436">
        <ele>119.471</ele>
        <time>2021-06-16T14:25:37Z</time>
      </trkpt>
      <trkpt lat="36.753572" lon="-4.415638">
        <ele>117.435</ele>
        <time>2021-06-16T14:25:39Z</time>
      </trkpt>
      <trkpt lat="36.75395" lon="-4.415805">
        <ele>115.224</ele>
        <time>2021-06-16T14:25:41Z</time>
      </trkpt>
      <trkpt lat="36.754365" lon="-4.416006">
        <ele>112.587</ele>
        <time>2021-06-16T14:25:43Z</time>
      </trkpt>
      <trkpt lat="36.754561" lon="-4.416122">
        <ele>110.234</ele>
        <time>2021-06-16T14:25:44Z</time>
      </trkpt>
      <trkpt lat="36.754751" lon="-4.416248">
        <ele>108.251</ele>
        <time>2021-06-16T14:25:45Z</time>
      </trkpt>
      <trkpt lat="36.755135" lon="-4.41655">
        <ele>105.911</ele>
        <time>2021-06-16T14:25:47Z</time>
      </trkpt>
      <trkpt lat="36.755442" lon="-4.416877">
        <ele>103.133</ele>
        <time>2021-06-16T14:25:49Z</time>
      </trkpt>
      <trkpt lat="36.7556" lon="-4.417074">
        <ele>100.523</ele>
        <time>2021-06-16T14:25:50Z</time>
      </trkpt>
      <trkpt lat="36.75575" lon="-4.417281">
        <ele>98.915</ele>
        <time>2021-06-16T14:25:51Z</time>
      </trkpt>
      <trkpt lat="36.756015" lon="-4.417725">
        <ele>96.808</ele>
        <time>2021-06-16T14:25:53Z</time>
      </trkpt>
      <trkpt lat="36.756129" lon="-4.417961">
        <ele>94.750</ele>
        <time>2021-06-16T14:25:54Z</time>
      </trkpt>
      <trkpt lat="36.756246" lon="-4.418232">
        <ele>93.068</ele>
        <time>2021-06-16T14:25:55Z</time>
      </trkpt>
      <trkpt lat="36.756404" lon="-4.418701">
        <ele>90.752</ele>
        <time>2021-06-16T14:25:57Z</time>
      </trkpt>
      <trkpt lat="36.756473" lon="-4.418971">
        <ele>88.851</ele>
        <time>2021-06-16T14:25:58Z</time>
      </trkpt>
      <trkpt lat="36.756575" lon="-4.419516">
        <ele>86.784</ele>
        <time>2021-06-16T14:26:00Z</time>
      </trkpt>
      <trkpt lat="36.756603" lon="-4.4198">
        <ele>85.281</ele>
        <time>2021-06-16T14:26:01Z</time>
      </trkpt>
      <trkpt lat="36.756641" lon="-4.420405">
        <ele>83.448</ele>
        <time>2021-06-16T14:26:03Z</time>
      </trkpt>
      <trkpt lat="36.756698" lon="-4.420909">
        <ele>81.278</ele>
        <time>2021-06-16T14:26:05Z</time>
      </trkpt>
      <trkpt lat="36.756748" lon="-4.42118">
        <ele>78.926</ele>
        <time>2021-06-16T14:26:06Z</time>
      </trkpt>
      <trkpt lat="36.75681" lon="-4.421445">
        <ele>77.247</ele>
        <time>2021-06-16T14:26:07Z</time>
      </trkpt>
      <trkpt lat="36.756925" lon="-4.421967">
        <ele>76.211</ele>
        <time>2021-06-16T14:26:09Z</time>
      </trkpt>
      <trkpt lat="36.756818" lon="-4.427475">
        <ele>72.208</ele>
        <time>2021-06-16T14:26:31Z</time>
      </trkpt>
      <trkpt lat="36.7567" lon="-4.427675">
        <ele>68.299</ele>
        <time>2021-06-16T14:26:32Z</time>
      </trkpt>
      <trkpt lat="36.756443" lon="-4.428031">
        <ele>64.247</ele>
        <time>2021-06-16T14:26:34Z</time>
      </trkpt>
      <trkpt lat="36.756309" lon="-4.428191">
        <ele>60.211</ele>
        <time>2021-06-16T14:26:35Z</time>
      </trkpt>
      <trkpt lat="36.756154" lon="-4.428366">
        <ele>57.890</ele>
        <time>2021-06-16T14:26:36Z</time>
      </trkpt>
      <trkpt lat="36.755886" lon="-4.42863">
        <ele>57.173</ele>
        <time>2021-06-16T14:26:38Z</time>
      </trkpt>
      <trkpt lat="36.755736" lon="-4.428772">
        <ele>56.490</ele>
        <time>2021-06-16T14:26:39Z</time>
      </trkpt>
      <trkpt lat="36.755411" lon="-4.429044">
        <ele>56.487</ele>
        <time>2021-06-16T14:26:41Z</time>
      </trkpt>
      <trkpt lat="36.755244" lon="-4.429175">
        <ele>56.427</ele>
        <time>2021-06-16T14:26:42Z</time>
      </trkpt>
      <trkpt lat="36.755071" lon="-4.429305">
        <ele>56.797</ele>
        <time>2021-06-16T14:26:43Z</time>
      </trkpt>
      <trkpt lat="36.754891" lon="-4.42943">
        <ele>57.023</ele>
        <time>2021-06-16T14:26:44Z</time>
      </trkpt>
      <trkpt lat="36.75452" lon="-4.429669">
        <ele>57.825</ele>
        <time>2021-06-16T14:26:46Z</time>
      </trkpt>
      <trkpt lat="36.75433" lon="-4.429779">
        <ele>58.108</ele>
        <time>2021-06-16T14:26:47Z</time>
      </trkpt>
      <trkpt lat="36.754114" lon="-4.4299">
        <ele>58.676</ele>
        <time>2021-06-16T14:26:48Z</time>
      </trkpt>
      <trkpt lat="36.753764" lon="-4.430103">
        <ele>59.044</ele>
        <time>2021-06-16T14:26:50Z</time>
      </trkpt>
      <trkpt lat="36.753573" lon="-4.430217">
        <ele>59.238</ele>
        <time>2021-06-16T14:26:51Z</time>
      </trkpt>
      <trkpt lat="36.753359" lon="-4.430346">
        <ele>59.687</ele>
        <time>2021-06-16T14:26:52Z</time>
      </trkpt>
      <trkpt lat="36.75301" lon="-4.430551">
        <ele>60.560</ele>
        <time>2021-06-16T14:26:54Z</time>
      </trkpt>
      <trkpt lat="36.752815" lon="-4.430662">
        <ele>61.217</ele>
        <time>2021-06-16T14:26:55Z</time>
      </trkpt>
      <trkpt lat="36.75262" lon="-4.43077">
        <ele>62.264</ele>
        <time>2021-06-16T14:26:56Z</time>
      </trkpt>
      <trkpt lat="36.752403" lon="-4.430892">
        <ele>62.964</ele>
        <time>2021-06-16T14:26:57Z</time>
      </trkpt>
      <trkpt lat="36.752052" lon="-4.431096">
        <ele>64.449</ele>
        <time>2021-06-16T14:26:59Z</time>
      </trkpt>
      <trkpt lat="36.751858" lon="-4.431205">
        <ele>65.502</ele>
        <time>2021-06-16T14:27:00Z</time>
      </trkpt>
      <trkpt lat="36.751641" lon="-4.431325">
        <ele>66.822</ele>
        <time>2021-06-16T14:27:01Z</time>
      </trkpt>
      <trkpt lat="36.751293" lon="-4.431519">
        <ele>68.108</ele>
        <time>2021-06-16T14:27:03Z</time>
      </trkpt>
      <trkpt lat="36.751105" lon="-4.431627">
        <ele>69.451</ele>
        <time>2021-06-16T14:27:04Z</time>
      </trkpt>
      <trkpt lat="36.750747" lon="-4.431844">
        <ele>71.399</ele>
        <time>2021-06-16T14:27:06Z</time>
      </trkpt>
      <trkpt lat="36.750575" lon="-4.431958">
        <ele>73.143</ele>
        <time>2021-06-16T14:27:07Z</time>
      </trkpt>
      <trkpt lat="36.750404" lon="-4.432071">
        <ele>74.542</ele>
        <time>2021-06-16T14:27:08Z</time>
      </trkpt>
      <trkpt lat="36.750216" lon="-4.432205">
        <ele>76.215</ele>
        <time>2021-06-16T14:27:09Z</time>
      </trkpt>
      <trkpt lat="36.749921" lon="-4.432455">
        <ele>78.042</ele>
        <time>2021-06-16T14:27:11Z</time>
      </trkpt>
      <trkpt lat="36.749602" lon="-4.432741">
        <ele>80.039</ele>
        <time>2021-06-16T14:27:13Z</time>
      </trkpt>
      <trkpt lat="36.749302" lon="-4.433021">
        <ele>82.679</ele>
        <time>2021-06-16T14:27:15Z</time>
      </trkpt>
      <trkpt lat="36.749153" lon="-4.433172">
        <ele>84.722</ele>
        <time>2021-06-16T14:27:16Z</time>
      </trkpt>
      <trkpt lat="36.748991" lon="-4.433354">
        <ele>86.562</ele>
        <time>2021-06-16T14:27:17Z</time>
      </trkpt>
      <trkpt lat="36.748743" lon="-4.43367">
        <ele>88.708</ele>
        <time>2021-06-16T14:27:19Z</time>
      </trkpt>
      <trkpt lat="36.748477" lon="-4.43404">
        <ele>90.908</ele>
        <time>2021-06-16T14:27:21Z</time>
      </trkpt>
      <trkpt lat="36.748232" lon="-4.434424">
        <ele>93.039</ele>
        <time>2021-06-16T14:27:23Z</time>
      </trkpt>
      <trkpt lat="36.748118" lon="-4.434629">
        <ele>95.157</ele>
        <time>2021-06-16T14:27:24Z</time>
      </trkpt>
      <trkpt lat="36.748009" lon="-4.434839">
        <ele>96.851</ele>
        <time>2021-06-16T14:27:25Z</time>
      </trkpt>
      <trkpt lat="36.74781" lon="-4.435274">
        <ele>98.710</ele>
        <time>2021-06-16T14:27:27Z</time>
      </trkpt>
      <trkpt lat="36.747636" lon="-4.435733">
        <ele>100.083</ele>
        <time>2021-06-16T14:27:29Z</time>
      </trkpt>
      <trkpt lat="36.747546" lon="-4.435996">
        <ele>101.560</ele>
        <time>2021-06-16T14:27:30Z</time>
      </trkpt>
      <trkpt lat="36.74742" lon="-4.436436">
        <ele>103.247</ele>
        <time>2021-06-16T14:27:32Z</time>
      </trkpt>
      <trkpt lat="36.747358" lon="-4.436684">
        <ele>104.417</ele>
        <time>2021-06-16T14:27:33Z</time>
      </trkpt>
      <trkpt lat="36.747296" lon="-4.436962">
        <ele>105.334</ele>
        <time>2021-06-16T14:27:34Z</time>
      </trkpt>
      <trkpt lat="36.747218" lon="-4.437424">
        <ele>107.055</ele>
        <time>2021-06-16T14:27:36Z</time>
      </trkpt>
      <trkpt lat="36.747166" lon="-4.437942">
        <ele>108.210</ele>
        <time>2021-06-16T14:27:38Z</time>
      </trkpt>
      <trkpt lat="36.74713" lon="-4.438422">
        <ele>109.608</ele>
        <time>2021-06-16T14:27:40Z</time>
      </trkpt>
      <trkpt lat="36.747108" lon="-4.438673">
        <ele>111.010</ele>
        <time>2021-06-16T14:27:41Z</time>
      </trkpt>
      <trkpt lat="36.747081" lon="-4.438955">
        <ele>112.278</ele>
        <time>2021-06-16T14:27:42Z</time>
      </trkpt>
      <trkpt lat="36.747028" lon="-4.439413">
        <ele>114.042</ele>
        <time>2021-06-16T14:27:44Z</time>
      </trkpt>
      <trkpt lat="36.746939" lon="-4.439912">
        <ele>115.521</ele>
        <time>2021-06-16T14:27:46Z</time>
      </trkpt>
      <trkpt lat="36.74688" lon="-4.440191">
        <ele>116.694</ele>
        <time>2021-06-16T14:27:47Z</time>
      </trkpt>
      <trkpt lat="36.746758" lon="-4.440635">
        <ele>117.471</ele>
        <time>2021-06-16T14:27:49Z</time>
      </trkpt>
      <trkpt lat="36.746674" lon="-4.440877">
        <ele>118.318</ele>
        <time>2021-06-16T14:27:50Z</time>
      </trkpt>
      <trkpt lat="36.746575" lon="-4.441142">
        <ele>118.938</ele>
        <time>2021-06-16T14:27:51Z</time>
      </trkpt>
      <trkpt lat="36.74639" lon="-4.441554">
        <ele>119.978</ele>
        <time>2021-06-16T14:27:53Z</time>
      </trkpt>
      <trkpt lat="36.746275" lon="-4.441767">
        <ele>120.533</ele>
        <time>2021-06-16T14:27:54Z</time>
      </trkpt>
      <trkpt lat="36.746144" lon="-4.441988">
        <ele>120.726</ele>
        <time>2021-06-16T14:27:55Z</time>
      </trkpt>
      <trkpt lat="36.745884" lon="-4.442354">
        <ele>121.808</ele>
        <time>2021-06-16T14:27:57Z</time>
      </trkpt>
      <trkpt lat="36.745738" lon="-4.442542">
        <ele>122.314</ele>
        <time>2021-06-16T14:27:58Z</time>
      </trkpt>
      <trkpt lat="36.745565" lon="-4.442744">
        <ele>122.632</ele>
        <time>2021-06-16T14:27:59Z</time>
      </trkpt>
      <trkpt lat="36.745261" lon="-4.443073">
        <ele>123.156</ele>
        <time>2021-06-16T14:28:01Z</time>
      </trkpt>
      <trkpt lat="36.745086" lon="-4.443246">
        <ele>123.135</ele>
        <time>2021-06-16T14:28:02Z</time>
      </trkpt>
      <trkpt lat="36.744697" lon="-4.443531">
        <ele>123.368</ele>
        <time>2021-06-16T14:28:04Z</time>
      </trkpt>
      <trkpt lat="36.744349" lon="-4.443746">
        <ele>122.985</ele>
        <time>2021-06-16T14:28:06Z</time>
      </trkpt>
      <trkpt lat="36.743938" lon="-4.444005">
        <ele>123.482</ele>
        <time>2021-06-16T14:28:08Z</time>
      </trkpt>
      <trkpt lat="36.743575" lon="-4.444215">
        <ele>123.822</ele>
        <time>2021-06-16T14:28:10Z</time>
      </trkpt>
      <trkpt lat="36.743375" lon="-4.44433">
        <ele>124.624</ele>
        <time>2021-06-16T14:28:11Z</time>
      </trkpt>
      <trkpt lat="36.743175" lon="-4.444451">
        <ele>124.604</ele>
        <time>2021-06-16T14:28:12Z</time>
      </trkpt>
      <trkpt lat="36.742812" lon="-4.444717">
        <ele>125.114</ele>
        <time>2021-06-16T14:28:14Z</time>
      </trkpt>
      <trkpt lat="36.742466" lon="-4.445032">
        <ele>125.508</ele>
        <time>2021-06-16T14:28:16Z</time>
      </trkpt>
      <trkpt lat="36.742148" lon="-4.445388">
        <ele>126.029</ele>
        <time>2021-06-16T14:28:18Z</time>
      </trkpt>
      <trkpt lat="36.741998" lon="-4.445582">
        <ele>126.317</ele>
        <time>2021-06-16T14:28:19Z</time>
      </trkpt>
      <trkpt lat="36.7417" lon="-4.446018">
        <ele>126.461</ele>
        <time>2021-06-16T14:28:21Z</time>
      </trkpt>
      <trkpt lat="36.741465" lon="-4.446423">
        <ele>126.430</ele>
        <time>2021-06-16T14:28:23Z</time>
      </trkpt>
      <trkpt lat="36.741344" lon="-4.446651">
        <ele>126.363</ele>
        <time>2021-06-16T14:28:24Z</time>
      </trkpt>
      <trkpt lat="36.741218" lon="-4.446911">
        <ele>126.630</ele>
        <time>2021-06-16T14:28:25Z</time>
      </trkpt>
      <trkpt lat="36.741038" lon="-4.447359">
        <ele>127.247</ele>
        <time>2021-06-16T14:28:27Z</time>
      </trkpt>
      <trkpt lat="36.740867" lon="-4.447858">
        <ele>127.877</ele>
        <time>2021-06-16T14:28:29Z</time>
      </trkpt>
      <trkpt lat="36.740719" lon="-4.448353">
        <ele>127.685</ele>
        <time>2021-06-16T14:28:31Z</time>
      </trkpt>
      <trkpt lat="36.740649" lon="-4.4486">
        <ele>127.489</ele>
        <time>2021-06-16T14:28:32Z</time>
      </trkpt>
      <trkpt lat="36.740569" lon="-4.448875">
        <ele>127.317</ele>
        <time>2021-06-16T14:28:33Z</time>
      </trkpt>
      <trkpt lat="36.740451" lon="-4.449326">
        <ele>127.308</ele>
        <time>2021-06-16T14:28:35Z</time>
      </trkpt>
      <trkpt lat="36.740389" lon="-4.449576">
        <ele>126.945</ele>
        <time>2021-06-16T14:28:36Z</time>
      </trkpt>
      <trkpt lat="36.740324" lon="-4.449837">
        <ele>127.093</ele>
        <time>2021-06-16T14:28:37Z</time>
      </trkpt>
      <trkpt lat="36.740204" lon="-4.450308">
        <ele>126.927</ele>
        <time>2021-06-16T14:28:39Z</time>
      </trkpt>
      <trkpt lat="36.740061" lon="-4.450822">
        <ele>126.976</ele>
        <time>2021-06-16T14:28:41Z</time>
      </trkpt>
      <trkpt lat="36.739928" lon="-4.451258">
        <ele>126.529</ele>
        <time>2021-06-16T14:28:43Z</time>
      </trkpt>
      <trkpt lat="36.739758" lon="-4.451728">
        <ele>125.926</ele>
        <time>2021-06-16T14:28:45Z</time>
      </trkpt>
      <trkpt lat="36.73965" lon="-4.451984">
        <ele>125.413</ele>
        <time>2021-06-16T14:28:46Z</time>
      </trkpt>
      <trkpt lat="36.739451" lon="-4.45239">
        <ele>124.833</ele>
        <time>2021-06-16T14:28:48Z</time>
      </trkpt>
      <trkpt lat="36.739321" lon="-4.452602">
        <ele>124.666</ele>
        <time>2021-06-16T14:28:49Z</time>
      </trkpt>
      <trkpt lat="36.739163" lon="-4.452828">
        <ele>124.329</ele>
        <time>2021-06-16T14:28:50Z</time>
      </trkpt>
      <trkpt lat="36.738872" lon="-4.453169">
        <ele>124.421</ele>
        <time>2021-06-16T14:28:52Z</time>
      </trkpt>
      <trkpt lat="36.738701" lon="-4.453341">
        <ele>124.608</ele>
        <time>2021-06-16T14:28:53Z</time>
      </trkpt>
      <trkpt lat="36.738331" lon="-4.453664">
        <ele>124.853</ele>
        <time>2021-06-16T14:28:55Z</time>
      </trkpt>
      <trkpt lat="36.738" lon="-4.453885">
        <ele>124.511</ele>
        <time>2021-06-16T14:28:57Z</time>
      </trkpt>
      <trkpt lat="36.737815" lon="-4.453992">
        <ele>124.675</ele>
        <time>2021-06-16T14:28:58Z</time>
      </trkpt>
      <trkpt lat="36.737606" lon="-4.454093">
        <ele>125.144</ele>
        <time>2021-06-16T14:28:59Z</time>
      </trkpt>
      <trkpt lat="36.737249" lon="-4.454209">
        <ele>124.737</ele>
        <time>2021-06-16T14:29:01Z</time>
      </trkpt>
      <trkpt lat="36.73705" lon="-4.454256">
        <ele>124.314</ele>
        <time>2021-06-16T14:29:02Z</time>
      </trkpt>
      <trkpt lat="36.736843" lon="-4.454293">
        <ele>124.311</ele>
        <time>2021-06-16T14:29:03Z</time>
      </trkpt>
      <trkpt lat="36.736451" lon="-4.454324">
        <ele>124.471</ele>
        <time>2021-06-16T14:29:05Z</time>
      </trkpt>
      <trkpt lat="36.736252" lon="-4.45432">
        <ele>124.181</ele>
        <time>2021-06-16T14:29:06Z</time>
      </trkpt>
      <trkpt lat="36.736034" lon="-4.454304">
        <ele>123.861</ele>
        <time>2021-06-16T14:29:07Z</time>
      </trkpt>
      <trkpt lat="36.73568" lon="-4.454235">
        <ele>123.717</ele>
        <time>2021-06-16T14:29:09Z</time>
      </trkpt>
      <trkpt lat="36.735488" lon="-4.454185">
        <ele>123.308</ele>
        <time>2021-06-16T14:29:10Z</time>
      </trkpt>
      <trkpt lat="36.735105" lon="-4.454082">
        <ele>123.055</ele>
        <time>2021-06-16T14:29:12Z</time>
      </trkpt>
      <trkpt lat="36.734912" lon="-4.45403">
        <ele>122.493</ele>
        <time>2021-06-16T14:29:13Z</time>
      </trkpt>
      <trkpt lat="36.734717" lon="-4.453982">
        <ele>121.647</ele>
        <time>2021-06-16T14:29:14Z</time>
      </trkpt>
      <trkpt lat="36.734331" lon="-4.453926">
        <ele>121.016</ele>
        <time>2021-06-16T14:29:16Z</time>
      </trkpt>
      <trkpt lat="36.733937" lon="-4.45391">
        <ele>119.869</ele>
        <time>2021-06-16T14:29:18Z</time>
      </trkpt>
      <trkpt lat="36.733739" lon="-4.453921">
        <ele>119.216</ele>
        <time>2021-06-16T14:29:19Z</time>
      </trkpt>
      <trkpt lat="36.733517" lon="-4.453942">
        <ele>118.723</ele>
        <time>2021-06-16T14:29:20Z</time>
      </trkpt>
      <trkpt lat="36.733155" lon="-4.454">
        <ele>118.093</ele>
        <time>2021-06-16T14:29:22Z</time>
      </trkpt>
      <trkpt lat="36.732737" lon="-4.454084">
        <ele>116.753</ele>
        <time>2021-06-16T14:29:24Z</time>
      </trkpt>
      <trkpt lat="36.73238" lon="-4.454153">
        <ele>115.504</ele>
        <time>2021-06-16T14:29:26Z</time>
      </trkpt>
      <trkpt lat="36.732183" lon="-4.454189">
        <ele>114.014</ele>
        <time>2021-06-16T14:29:27Z</time>
      </trkpt>
      <trkpt lat="36.731771" lon="-4.454262">
        <ele>112.708</ele>
        <time>2021-06-16T14:29:29Z</time>
      </trkpt>
      <trkpt lat="36.731421" lon="-4.454321">
        <ele>111.252</ele>
        <time>2021-06-16T14:29:31Z</time>
      </trkpt>
      <trkpt lat="36.731228" lon="-4.454355">
        <ele>109.540</ele>
        <time>2021-06-16T14:29:32Z</time>
      </trkpt>
      <trkpt lat="36.731012" lon="-4.454387">
        <ele>108.254</ele>
        <time>2021-06-16T14:29:33Z</time>
      </trkpt>
      <trkpt lat="36.730662" lon="-4.454416">
        <ele>106.873</ele>
        <time>2021-06-16T14:29:35Z</time>
      </trkpt>
      <trkpt lat="36.730467" lon="-4.454424">
        <ele>105.726</ele>
        <time>2021-06-16T14:29:36Z</time>
      </trkpt>
      <trkpt lat="36.73025" lon="-4.454423">
        <ele>104.643</ele>
        <time>2021-06-16T14:29:37Z</time>
      </trkpt>
      <trkpt lat="36.729898" lon="-4.454386">
        <ele>103.170</ele>
        <time>2021-06-16T14:29:39Z</time>
      </trkpt>
      <trkpt lat="36.729708" lon="-4.454362">
        <ele>101.520</ele>
        <time>2021-06-16T14:29:40Z</time>
      </trkpt>
      <trkpt lat="36.729522" lon="-4.454338">
        <ele>100.151</ele>
        <time>2021-06-16T14:29:41Z</time>
      </trkpt>
      <trkpt lat="36.729336" lon="-4.454316">
        <ele>98.701</ele>
        <time>2021-06-16T14:29:42Z</time>
      </trkpt>
      <trkpt lat="36.72897" lon="-4.454235">
        <ele>96.511</ele>
        <time>2021-06-16T14:29:44Z</time>
      </trkpt>
      <trkpt lat="36.728789" lon="-4.45418">
        <ele>94.508</ele>
        <time>2021-06-16T14:29:45Z</time>
      </trkpt>
      <trkpt lat="36.728592" lon="-4.45412">
        <ele>93.542</ele>
        <time>2021-06-16T14:29:46Z</time>
      </trkpt>
      <trkpt lat="36.728269" lon="-4.454018">
        <ele>92.350</ele>
        <time>2021-06-16T14:29:48Z</time>
      </trkpt>
      <trkpt lat="36.727892" lon="-4.453883">
        <ele>90.534</ele>
        <time>2021-06-16T14:29:50Z</time>
      </trkpt>
      <trkpt lat="36.72756" lon="-4.453775">
        <ele>87.963</ele>
        <time>2021-06-16T14:29:52Z</time>
      </trkpt>
      <trkpt lat="36.727186" lon="-4.453702">
        <ele>85.786</ele>
        <time>2021-06-16T14:29:54Z</time>
      </trkpt>
      <trkpt lat="36.726971" lon="-4.453675">
        <ele>83.993</ele>
        <time>2021-06-16T14:29:55Z</time>
      </trkpt>
      <trkpt lat="36.72663" lon="-4.453701">
        <ele>81.620</ele>
        <time>2021-06-16T14:29:57Z</time>
      </trkpt>
      <trkpt lat="36.726448" lon="-4.45373">
        <ele>79.860</ele>
        <time>2021-06-16T14:29:58Z</time>
      </trkpt>
      <trkpt lat="36.726249" lon="-4.453772">
        <ele>78.559</ele>
        <time>2021-06-16T14:29:59Z</time>
      </trkpt>
      <trkpt lat="36.725945" lon="-4.453906">
        <ele>76.203</ele>
        <time>2021-06-16T14:30:01Z</time>
      </trkpt>
      <trkpt lat="36.725785" lon="-4.454009">
        <ele>74.123</ele>
        <time>2021-06-16T14:30:02Z</time>
      </trkpt>
      <trkpt lat="36.725507" lon="-4.454288">
        <ele>71.808</ele>
        <time>2021-06-16T14:30:04Z</time>
      </trkpt>
      <trkpt lat="36.725385" lon="-4.454449">
        <ele>70.142</ele>
        <time>2021-06-16T14:30:05Z</time>
      </trkpt>
      <trkpt lat="36.725199" lon="-4.454803">
        <ele>69.370</ele>
        <time>2021-06-16T14:30:07Z</time>
      </trkpt>
      <trkpt lat="36.72512" lon="-4.455005">
        <ele>68.864</ele>
        <time>2021-06-16T14:30:08Z</time>
      </trkpt>
      <trkpt lat="36.725013" lon="-4.455325">
        <ele>68.723</ele>
        <time>2021-06-16T14:30:10Z</time>
      </trkpt>
      <trkpt lat="36.724892" lon="-4.45567">
        <ele>68.326</ele>
        <time>2021-06-16T14:30:12Z</time>
      </trkpt>
      <trkpt lat="36.724785" lon="-4.455965">
        <ele>68.173</ele>
        <time>2021-06-16T14:30:14Z</time>
      </trkpt>
      <trkpt lat="36.72473" lon="-4.456097">
        <ele>68.140</ele>
        <time>2021-06-16T14:30:15Z</time>
      </trkpt>
      <trkpt lat="36.72463" lon="-4.456326">
        <ele>68.720</ele>
        <time>2021-06-16T14:30:17Z</time>
      </trkpt>
      <trkpt lat="36.724583" lon="-4.456399">
        <ele>68.433</ele>
        <time>2021-06-16T14:30:18Z</time>
      </trkpt>
      <trkpt lat="36.724533" lon="-4.456433">
        <ele>68.223</ele>
        <time>2021-06-16T14:30:19Z</time>
      </trkpt>
      <trkpt lat="36.724482" lon="-4.456436">
        <ele>68.315</ele>
        <time>2021-06-16T14:30:20Z</time>
      </trkpt>
      <trkpt lat="36.724439" lon="-4.45638">
        <ele>68.008</ele>
        <time>2021-06-16T14:30:22Z</time>
      </trkpt>
      <trkpt lat="36.72441" lon="-4.456315">
        <ele>68.250</ele>
        <time>2021-06-16T14:30:24Z</time>
      </trkpt>
      <trkpt lat="36.724388" lon="-4.456251">
        <ele>67.918</ele>
        <time>2021-06-16T14:30:26Z</time>
      </trkpt>
      <trkpt lat="36.72435" lon="-4.456156">
        <ele>64.882</ele>
        <time>2021-06-16T14:30:28Z</time>
      </trkpt>
      <trkpt lat="36.72432" lon="-4.456082">
        <ele>62.931</ele>
        <time>2021-06-16T14:30:30Z</time>
      </trkpt>
      <trkpt lat="36.72429" lon="-4.456001">
        <ele>61.884</ele>
        <time>2021-06-16T14:30:32Z</time>
      </trkpt>
      <trkpt lat="36.724272" lon="-4.455948">
        <ele>61.141</ele>
        <time>2021-06-16T14:30:35Z</time>
      </trkpt>
      <trkpt lat="36.724251" lon="-4.455876">
        <ele>60.688</ele>
        <time>2021-06-16T14:30:41Z</time>
      </trkpt>
      <trkpt lat="36.724225" lon="-4.455815">
        <ele>60.348</ele>
        <time>2021-06-16T14:30:44Z</time>
      </trkpt>
      <trkpt lat="36.724195" lon="-4.455742">
        <ele>60.156</ele>
        <time>2021-06-16T14:30:47Z</time>
      </trkpt>
      <trkpt lat="36.724174" lon="-4.455692">
        <ele>60.059</ele>
        <time>2021-06-16T14:30:49Z</time>
      </trkpt>
      <trkpt lat="36.724158" lon="-4.455635">
        <ele>60.014</ele>
        <time>2021-06-16T14:30:54Z</time>
      </trkpt>
      <trkpt lat="36.724125" lon="-4.455551">
        <ele>60.008</ele>
        <time>2021-06-16T14:30:56Z</time>
      </trkpt>
      <trkpt lat="36.724071" lon="-4.455435">
        <ele>60.032</ele>
        <time>2021-06-16T14:30:58Z</time>
      </trkpt>
      <trkpt lat="36.724035" lon="-4.455365">
        <ele>60.090</ele>
        <time>2021-06-16T14:30:59Z</time>
      </trkpt>
      <trkpt lat="36.723944" lon="-4.455219">
        <ele>60.054</ele>
        <time>2021-06-16T14:31:01Z</time>
      </trkpt>
      <trkpt lat="36.723893" lon="-4.45513">
        <ele>60.093</ele>
        <time>2021-06-16T14:31:02Z</time>
      </trkpt>
      <trkpt lat="36.723818" lon="-4.454963">
        <ele>60.086</ele>
        <time>2021-06-16T14:31:04Z</time>
      </trkpt>
      <trkpt lat="36.723749" lon="-4.454753">
        <ele>60.053</ele>
        <time>2021-06-16T14:31:06Z</time>
      </trkpt>
      <trkpt lat="36.72369" lon="-4.454561">
        <ele>60.010</ele>
        <time>2021-06-16T14:31:08Z</time>
      </trkpt>
      <trkpt lat="36.723652" lon="-4.454452">
        <ele>60.060</ele>
        <time>2021-06-16T14:31:09Z</time>
      </trkpt>
      <trkpt lat="36.723606" lon="-4.454327">
        <ele>60.067</ele>
        <time>2021-06-16T14:31:10Z</time>
      </trkpt>
      <trkpt lat="36.723529" lon="-4.454113">
        <ele>60.081</ele>
        <time>2021-06-16T14:31:12Z</time>
      </trkpt>
      <trkpt lat="36.723485" lon="-4.45399">
        <ele>60.019</ele>
        <time>2021-06-16T14:31:13Z</time>
      </trkpt>
      <trkpt lat="36.723439" lon="-4.453869">
        <ele>60.008</ele>
        <time>2021-06-16T14:31:14Z</time>
      </trkpt>
      <trkpt lat="36.723394" lon="-4.453751">
        <ele>60.043</ele>
        <time>2021-06-16T14:31:15Z</time>
      </trkpt>
      <trkpt lat="36.723305" lon="-4.453513">
        <ele>60.031</ele>
        <time>2021-06-16T14:31:17Z</time>
      </trkpt>
      <trkpt lat="36.723262" lon="-4.453395">
        <ele>60.045</ele>
        <time>2021-06-16T14:31:18Z</time>
      </trkpt>
      <trkpt lat="36.723216" lon="-4.45326">
        <ele>60.074</ele>
        <time>2021-06-16T14:31:19Z</time>
      </trkpt>
      <trkpt lat="36.723147" lon="-4.453035">
        <ele>60.037</ele>
        <time>2021-06-16T14:31:21Z</time>
      </trkpt>
      <trkpt lat="36.723112" lon="-4.452909">
        <ele>60.084</ele>
        <time>2021-06-16T14:31:22Z</time>
      </trkpt>
      <trkpt lat="36.723077" lon="-4.452779">
        <ele>60.021</ele>
        <time>2021-06-16T14:31:23Z</time>
      </trkpt>
      <trkpt lat="36.72302" lon="-4.45254">
        <ele>60.041</ele>
        <time>2021-06-16T14:31:25Z</time>
      </trkpt>
      <trkpt lat="36.722966" lon="-4.45228">
        <ele>60.048</ele>
        <time>2021-06-16T14:31:27Z</time>
      </trkpt>
      <trkpt lat="36.722931" lon="-4.452067">
        <ele>60.061</ele>
        <time>2021-06-16T14:31:29Z</time>
      </trkpt>
      <trkpt lat="36.722913" lon="-4.45195">
        <ele>60.017</ele>
        <time>2021-06-16T14:31:30Z</time>
      </trkpt>
      <trkpt lat="36.722896" lon="-4.451837">
        <ele>60.008</ele>
        <time>2021-06-16T14:31:31Z</time>
      </trkpt>
      <trkpt lat="36.722876" lon="-4.451714">
        <ele>60.051</ele>
        <time>2021-06-16T14:31:32Z</time>
      </trkpt>
      <trkpt lat="36.722835" lon="-4.451494">
        <ele>60.069</ele>
        <time>2021-06-16T14:31:34Z</time>
      </trkpt>
      <trkpt lat="36.722816" lon="-4.451367">
        <ele>60.023</ele>
        <time>2021-06-16T14:31:35Z</time>
      </trkpt>
      <trkpt lat="36.722794" lon="-4.451226">
        <ele>60.062</ele>
        <time>2021-06-16T14:31:36Z</time>
      </trkpt>
      <trkpt lat="36.722766" lon="-4.450997">
        <ele>56.525</ele>
        <time>2021-06-16T14:31:38Z</time>
      </trkpt>
      <trkpt lat="36.72275" lon="-4.450874">
        <ele>54.432</ele>
        <time>2021-06-16T14:31:39Z</time>
      </trkpt>
      <trkpt lat="36.722716" lon="-4.450635">
        <ele>52.849</ele>
        <time>2021-06-16T14:31:41Z</time>
      </trkpt>
      <trkpt lat="36.722677" lon="-4.450411">
        <ele>51.349</ele>
        <time>2021-06-16T14:31:43Z</time>
      </trkpt>
      <trkpt lat="36.722643" lon="-4.450212">
        <ele>50.727</ele>
        <time>2021-06-16T14:31:45Z</time>
      </trkpt>
      <trkpt lat="36.722627" lon="-4.45012">
        <ele>50.268</ele>
        <time>2021-06-16T14:31:46Z</time>
      </trkpt>
      <trkpt lat="36.722611" lon="-4.45003">
        <ele>49.814</ele>
        <time>2021-06-16T14:31:47Z</time>
      </trkpt>
      <trkpt lat="36.722597" lon="-4.449938">
        <ele>49.708</ele>
        <time>2021-06-16T14:31:48Z</time>
      </trkpt>
      <trkpt lat="36.722581" lon="-4.449811">
        <ele>49.319</ele>
        <time>2021-06-16T14:31:50Z</time>
      </trkpt>
      <trkpt lat="36.722565" lon="-4.449728">
        <ele>48.987</ele>
        <time>2021-06-16T14:31:52Z</time>
      </trkpt>
      <trkpt lat="36.722562" lon="-4.449667">
        <ele>50.481</ele>
        <time>2021-06-16T14:32:35Z</time>
      </trkpt>
      <trkpt lat="36.722546" lon="-4.449576">
        <ele>51.350</ele>
        <time>2021-06-16T14:32:38Z</time>
      </trkpt>
      <trkpt lat="36.722536" lon="-4.449482">
        <ele>51.913</ele>
        <time>2021-06-16T14:32:40Z</time>
      </trkpt>
      <trkpt lat="36.722525" lon="-4.449377">
        <ele>52.260</ele>
        <time>2021-06-16T14:32:42Z</time>
      </trkpt>
      <trkpt lat="36.722504" lon="-4.449246">
        <ele>52.497</ele>
        <time>2021-06-16T14:32:44Z</time>
      </trkpt>
      <trkpt lat="36.722494" lon="-4.449179">
        <ele>52.517</ele>
        <time>2021-06-16T14:32:45Z</time>
      </trkpt>
      <trkpt lat="36.722486" lon="-4.449116">
        <ele>52.562</ele>
        <time>2021-06-16T14:32:46Z</time>
      </trkpt>
      <trkpt lat="36.722457" lon="-4.44898">
        <ele>52.583</ele>
        <time>2021-06-16T14:32:48Z</time>
      </trkpt>
      <trkpt lat="36.722435" lon="-4.44889">
        <ele>52.511</ele>
        <time>2021-06-16T14:32:49Z</time>
      </trkpt>
      <trkpt lat="36.722391" lon="-4.448676">
        <ele>52.508</ele>
        <time>2021-06-16T14:32:51Z</time>
      </trkpt>
      <trkpt lat="36.722372" lon="-4.448563">
        <ele>52.523</ele>
        <time>2021-06-16T14:32:52Z</time>
      </trkpt>
      <trkpt lat="36.72235" lon="-4.448449">
        <ele>52.581</ele>
        <time>2021-06-16T14:32:53Z</time>
      </trkpt>
      <trkpt lat="36.72231" lon="-4.448233">
        <ele>52.555</ele>
        <time>2021-06-16T14:32:55Z</time>
      </trkpt>
      <trkpt lat="36.722267" lon="-4.448046">
        <ele>52.564</ele>
        <time>2021-06-16T14:32:57Z</time>
      </trkpt>
      <trkpt lat="36.722242" lon="-4.44789">
        <ele>52.557</ele>
        <time>2021-06-16T14:32:59Z</time>
      </trkpt>
      <trkpt lat="36.722211" lon="-4.447751">
        <ele>52.584</ele>
        <time>2021-06-16T14:33:01Z</time>
      </trkpt>
      <trkpt lat="36.722196" lon="-4.447693">
        <ele>52.511</ele>
        <time>2021-06-16T14:33:03Z</time>
      </trkpt>
      <trkpt lat="36.722199" lon="-4.447629">
        <ele>51.061</ele>
        <time>2021-06-16T14:33:24Z</time>
      </trkpt>
      <trkpt lat="36.722194" lon="-4.447564">
        <ele>50.143</ele>
        <time>2021-06-16T14:33:25Z</time>
      </trkpt>
      <trkpt lat="36.722185" lon="-4.447475">
        <ele>49.664</ele>
        <time>2021-06-16T14:33:26Z</time>
      </trkpt>
      <trkpt lat="36.722161" lon="-4.447265">
        <ele>49.310</ele>
        <time>2021-06-16T14:33:28Z</time>
      </trkpt>
      <trkpt lat="36.722125" lon="-4.447049">
        <ele>49.108</ele>
        <time>2021-06-16T14:33:30Z</time>
      </trkpt>
      <trkpt lat="36.722105" lon="-4.446937">
        <ele>49.021</ele>
        <time>2021-06-16T14:33:31Z</time>
      </trkpt>
      <trkpt lat="36.722069" lon="-4.446715">
        <ele>48.999</ele>
        <time>2021-06-16T14:33:33Z</time>
      </trkpt>
      <trkpt lat="36.722054" lon="-4.446609">
        <ele>48.993</ele>
        <time>2021-06-16T14:33:34Z</time>
      </trkpt>
      <trkpt lat="36.722019" lon="-4.446412">
        <ele>48.952</ele>
        <time>2021-06-16T14:33:36Z</time>
      </trkpt>
      <trkpt lat="36.722002" lon="-4.446326">
        <ele>48.915</ele>
        <time>2021-06-16T14:33:37Z</time>
      </trkpt>
      <trkpt lat="36.721967" lon="-4.446169">
        <ele>48.922</ele>
        <time>2021-06-16T14:33:39Z</time>
      </trkpt>
      <trkpt lat="36.721942" lon="-4.446045">
        <ele>48.929</ele>
        <time>2021-06-16T14:33:41Z</time>
      </trkpt>
      <trkpt lat="36.721932" lon="-4.445966">
        <ele>48.989</ele>
        <time>2021-06-16T14:33:43Z</time>
      </trkpt>
      <trkpt lat="36.721925" lon="-4.445899">
        <ele>48.927</ele>
        <time>2021-06-16T14:33:45Z</time>
      </trkpt>
      <trkpt lat="36.721884" lon="-4.445816">
        <ele>48.968</ele>
        <time>2021-06-16T14:34:02Z</time>
      </trkpt>
      <trkpt lat="36.72185" lon="-4.445628">
        <ele>48.914</ele>
        <time>2021-06-16T14:34:04Z</time>
      </trkpt>
      <trkpt lat="36.721834" lon="-4.445499">
        <ele>48.908</ele>
        <time>2021-06-16T14:34:05Z</time>
      </trkpt>
      <trkpt lat="36.721812" lon="-4.445366">
        <ele>48.929</ele>
        <time>2021-06-16T14:34:06Z</time>
      </trkpt>
      <trkpt lat="36.721789" lon="-4.445247">
        <ele>48.957</ele>
        <time>2021-06-16T14:34:07Z</time>
      </trkpt>
      <trkpt lat="36.72174" lon="-4.444994">
        <ele>48.991</ele>
        <time>2021-06-16T14:34:09Z</time>
      </trkpt>
      <trkpt lat="36.721696" lon="-4.444737">
        <ele>48.920</ele>
        <time>2021-06-16T14:34:11Z</time>
      </trkpt>
      <trkpt lat="36.721648" lon="-4.444491">
        <ele>48.963</ele>
        <time>2021-06-16T14:34:13Z</time>
      </trkpt>
      <trkpt lat="36.721605" lon="-4.444263">
        <ele>48.930</ele>
        <time>2021-06-16T14:34:15Z</time>
      </trkpt>
      <trkpt lat="36.721558" lon="-4.444001">
        <ele>48.977</ele>
        <time>2021-06-16T14:34:17Z</time>
      </trkpt>
      <trkpt lat="36.721519" lon="-4.443762">
        <ele>48.967</ele>
        <time>2021-06-16T14:34:19Z</time>
      </trkpt>
      <trkpt lat="36.721489" lon="-4.44354">
        <ele>48.992</ele>
        <time>2021-06-16T14:34:21Z</time>
      </trkpt>
      <trkpt lat="36.721475" lon="-4.443398">
        <ele>48.973</ele>
        <time>2021-06-16T14:34:22Z</time>
      </trkpt>
      <trkpt lat="36.721471" lon="-4.443148">
        <ele>48.920</ele>
        <time>2021-06-16T14:34:24Z</time>
      </trkpt>
      <trkpt lat="36.721476" lon="-4.442905">
        <ele>48.908</ele>
        <time>2021-06-16T14:34:26Z</time>
      </trkpt>
      <trkpt lat="36.721479" lon="-4.442745">
        <ele>48.916</ele>
        <time>2021-06-16T14:34:27Z</time>
      </trkpt>
      <trkpt lat="36.721479" lon="-4.442457">
        <ele>48.984</ele>
        <time>2021-06-16T14:34:29Z</time>
      </trkpt>
      <trkpt lat="36.721472" lon="-4.442165">
        <ele>48.978</ele>
        <time>2021-06-16T14:34:31Z</time>
      </trkpt>
      <trkpt lat="36.721467" lon="-4.441868">
        <ele>48.987</ele>
        <time>2021-06-16T14:34:33Z</time>
      </trkpt>
      <trkpt lat="36.721465" lon="-4.441627">
        <ele>48.980</ele>
        <time>2021-06-16T14:34:35Z</time>
      </trkpt>
      <trkpt lat="36.721468" lon="-4.441517">
        <ele>48.947</ele>
        <time>2021-06-16T14:34:36Z</time>
      </trkpt>
      <trkpt lat="36.721466" lon="-4.441366">
        <ele>48.964</ele>
        <time>2021-06-16T14:34:38Z</time>
      </trkpt>
      <trkpt lat="36.72145" lon="-4.441262">
        <ele>48.914</ele>
        <time>2021-06-16T14:34:40Z</time>
      </trkpt>
      <trkpt lat="36.72145" lon="-4.441141">
        <ele>48.932</ele>
        <time>2021-06-16T14:34:42Z</time>
      </trkpt>
      <trkpt lat="36.721449" lon="-4.44107">
        <ele>48.992</ele>
        <time>2021-06-16T14:34:44Z</time>
      </trkpt>
      <trkpt lat="36.72145" lon="-4.441005">
        <ele>48.911</ele>
        <time>2021-06-16T14:34:47Z</time>
      </trkpt>
      <trkpt lat="36.721456" lon="-4.440925">
        <ele>47.608</ele>
        <time>2021-06-16T14:34:50Z</time>
      </trkpt>
      <trkpt lat="36.721454" lon="-4.440864">
        <ele>46.870</ele>
        <time>2021-06-16T14:34:53Z</time>
      </trkpt>
      <trkpt lat="36.721455" lon="-4.440789">
        <ele>46.088</ele>
        <time>2021-06-16T14:34:57Z</time>
      </trkpt>
      <trkpt lat="36.721452" lon="-4.440717">
        <ele>45.472</ele>
        <time>2021-06-16T14:35:00Z</time>
      </trkpt>
      <trkpt lat="36.721459" lon="-4.440661">
        <ele>45.021</ele>
        <time>2021-06-16T14:35:05Z</time>
      </trkpt>
      <trkpt lat="36.721448" lon="-4.440595">
        <ele>44.934</ele>
        <time>2021-06-16T14:35:36Z</time>
      </trkpt>
      <trkpt lat="36.721445" lon="-4.440403">
        <ele>44.871</ele>
        <time>2021-06-16T14:35:38Z</time>
      </trkpt>
      <trkpt lat="36.721453" lon="-4.440139">
        <ele>44.878</ele>
        <time>2021-06-16T14:35:40Z</time>
      </trkpt>
      <trkpt lat="36.721457" lon="-4.439983">
        <ele>44.828</ele>
        <time>2021-06-16T14:35:41Z</time>
      </trkpt>
      <trkpt lat="36.721457" lon="-4.439848">
        <ele>44.894</ele>
        <time>2021-06-16T14:35:42Z</time>
      </trkpt>
      <trkpt lat="36.72145" lon="-4.439563">
        <ele>44.857</ele>
        <time>2021-06-16T14:35:44Z</time>
      </trkpt>
      <trkpt lat="36.721447" lon="-4.439416">
        <ele>44.822</ele>
        <time>2021-06-16T14:35:45Z</time>
      </trkpt>
      <trkpt lat="36.72144" lon="-4.439131">
        <ele>44.808</ele>
        <time>2021-06-16T14:35:47Z</time>
      </trkpt>
      <trkpt lat="36.721436" lon="-4.438861">
        <ele>44.856</ele>
        <time>2021-06-16T14:35:49Z</time>
      </trkpt>
      <trkpt lat="36.721439" lon="-4.438735">
        <ele>44.814</ele>
        <time>2021-06-16T14:35:50Z</time>
      </trkpt>
      <trkpt lat="36.721443" lon="-4.438497">
        <ele>44.888</ele>
        <time>2021-06-16T14:35:52Z</time>
      </trkpt>
      <trkpt lat="36.721444" lon="-4.43835">
        <ele>44.877</ele>
        <time>2021-06-16T14:35:53Z</time>
      </trkpt>
      <trkpt lat="36.721442" lon="-4.438131">
        <ele>44.880</ele>
        <time>2021-06-16T14:35:55Z</time>
      </trkpt>
      <trkpt lat="36.721444" lon="-4.437992">
        <ele>44.857</ele>
        <time>2021-06-16T14:35:56Z</time>
      </trkpt>
      <trkpt lat="36.721445" lon="-4.43788">
        <ele>44.874</ele>
        <time>2021-06-16T14:35:57Z</time>
      </trkpt>
      <trkpt lat="36.721441" lon="-4.437677">
        <ele>44.844</ele>
        <time>2021-06-16T14:35:59Z</time>
      </trkpt>
      <trkpt lat="36.721438" lon="-4.43759">
        <ele>44.867</ele>
        <time>2021-06-16T14:36:00Z</time>
      </trkpt>
      <trkpt lat="36.721435" lon="-4.437523">
        <ele>44.881</ele>
        <time>2021-06-16T14:36:01Z</time>
      </trkpt>
      <trkpt lat="36.721433" lon="-4.437416">
        <ele>44.819</ele>
        <time>2021-06-16T14:36:03Z</time>
      </trkpt>
      <trkpt lat="36.721432" lon="-4.437263">
        <ele>44.808</ele>
        <time>2021-06-16T14:36:05Z</time>
      </trkpt>
      <trkpt lat="36.72144" lon="-4.437119">
        <ele>44.853</ele>
        <time>2021-06-16T14:36:07Z</time>
      </trkpt>
      <trkpt lat="36.72144" lon="-4.437038">
        <ele>44.891</ele>
        <time>2021-06-16T14:36:08Z</time>
      </trkpt>
      <trkpt lat="36.721436" lon="-4.436907">
        <ele>44.835</ele>
        <time>2021-06-16T14:36:10Z</time>
      </trkpt>
      <trkpt lat="36.721431" lon="-4.43678">
        <ele>44.824</ele>
        <time>2021-06-16T14:36:12Z</time>
      </trkpt>
      <trkpt lat="36.721428" lon="-4.436721">
        <ele>44.877</ele>
        <time>2021-06-16T14:36:13Z</time>
      </trkpt>
      <trkpt lat="36.721438" lon="-4.436648">
        <ele>44.844</ele>
        <time>2021-06-16T14:36:15Z</time>
      </trkpt>
      <trkpt lat="36.721442" lon="-4.43659">
        <ele>44.861</ele>
        <time>2021-06-16T14:36:17Z</time>
      </trkpt>
      <trkpt lat="36.721436" lon="-4.436517">
        <ele>44.871</ele>
        <time>2021-06-16T14:36:21Z</time>
      </trkpt>
      <trkpt lat="36.72144" lon="-4.436426">
        <ele>44.835</ele>
        <time>2021-06-16T14:36:23Z</time>
      </trkpt>
      <trkpt lat="36.721442" lon="-4.436325">
        <ele>44.886</ele>
        <time>2021-06-16T14:36:25Z</time>
      </trkpt>
      <trkpt lat="36.721441" lon="-4.436235">
        <ele>44.814</ele>
        <time>2021-06-16T14:36:27Z</time>
      </trkpt>
      <trkpt lat="36.721442" lon="-4.43615">
        <ele>44.808</ele>
        <time>2021-06-16T14:36:29Z</time>
      </trkpt>
      <trkpt lat="36.721446" lon="-4.436063">
        <ele>44.850</ele>
        <time>2021-06-16T14:36:31Z</time>
      </trkpt>
      <trkpt lat="36.721447" lon="-4.435982">
        <ele>44.828</ele>
        <time>2021-06-16T14:36:33Z</time>
      </trkpt>
      <trkpt lat="36.721445" lon="-4.435895">
        <ele>44.842</ele>
        <time>2021-06-16T14:36:35Z</time>
      </trkpt>
      <trkpt lat="36.721451" lon="-4.435719">
        <ele>44.811</ele>
        <time>2021-06-16T14:36:37Z</time>
      </trkpt>
      <trkpt lat="36.721463" lon="-4.435485">
        <ele>44.894</ele>
        <time>2021-06-16T14:36:39Z</time>
      </trkpt>
      <trkpt lat="36.721462" lon="-4.435365">
        <ele>44.831</ele>
        <time>2021-06-16T14:36:40Z</time>
      </trkpt>
      <trkpt lat="36.72146" lon="-4.435096">
        <ele>44.888</ele>
        <time>2021-06-16T14:36:42Z</time>
      </trkpt>
      <trkpt lat="36.721467" lon="-4.434885">
        <ele>44.868</ele>
        <time>2021-06-16T14:36:44Z</time>
      </trkpt>
      <trkpt lat="36.721468" lon="-4.434759">
        <ele>44.828</ele>
        <time>2021-06-16T14:36:45Z</time>
      </trkpt>
      <trkpt lat="36.721465" lon="-4.434527">
        <ele>44.889</ele>
        <time>2021-06-16T14:36:47Z</time>
      </trkpt>
      <trkpt lat="36.721467" lon="-4.43429">
        <ele>44.817</ele>
        <time>2021-06-16T14:36:49Z</time>
      </trkpt>
      <trkpt lat="36.721473" lon="-4.434046">
        <ele>44.808</ele>
        <time>2021-06-16T14:36:51Z</time>
      </trkpt>
      <trkpt lat="36.721471" lon="-4.433907">
        <ele>44.829</ele>
        <time>2021-06-16T14:36:52Z</time>
      </trkpt>
      <trkpt lat="36.721468" lon="-4.433793">
        <ele>44.877</ele>
        <time>2021-06-16T14:36:53Z</time>
      </trkpt>
      <trkpt lat="36.721463" lon="-4.433684">
        <ele>44.891</ele>
        <time>2021-06-16T14:36:54Z</time>
      </trkpt>
      <trkpt lat="36.721454" lon="-4.433578">
        <ele>44.850</ele>
        <time>2021-06-16T14:36:55Z</time>
      </trkpt>
      <trkpt lat="36.721442" lon="-4.433366">
        <ele>44.863</ele>
        <time>2021-06-16T14:36:57Z</time>
      </trkpt>
      <trkpt lat="36.721457" lon="-4.433262">
        <ele>44.870</ele>
        <time>2021-06-16T14:36:58Z</time>
      </trkpt>
      <trkpt lat="36.72148" lon="-4.433083">
        <ele>44.847</ele>
        <time>2021-06-16T14:37:00Z</time>
      </trkpt>
      <trkpt lat="36.721483" lon="-4.433003">
        <ele>44.857</ele>
        <time>2021-06-16T14:37:01Z</time>
      </trkpt>
      <trkpt lat="36.721473" lon="-4.43289">
        <ele>44.844</ele>
        <time>2021-06-16T14:37:03Z</time>
      </trkpt>
      <trkpt lat="36.721478" lon="-4.432821">
        <ele>44.805</ele>
        <time>2021-06-16T14:37:05Z</time>
      </trkpt>
      <trkpt lat="36.721507" lon="-4.432753">
        <ele>44.815</ele>
        <time>2021-06-16T14:37:17Z</time>
      </trkpt>
      <trkpt lat="36.72152" lon="-4.432687">
        <ele>44.808</ele>
        <time>2021-06-16T14:37:19Z</time>
      </trkpt>
      <trkpt lat="36.721508" lon="-4.432797">
        <ele>40.861</ele>
        <time>2021-06-16T14:37:59Z</time>
      </trkpt>
      <trkpt lat="36.721495" lon="-4.432882">
        <ele>37.569</ele>
        <time>2021-06-16T14:38:00Z</time>
      </trkpt>
      <trkpt lat="36.721462" lon="-4.433133">
        <ele>35.593</ele>
        <time>2021-06-16T14:38:02Z</time>
      </trkpt>
      <trkpt lat="36.721461" lon="-4.433489">
        <ele>34.312</ele>
        <time>2021-06-16T14:38:04Z</time>
      </trkpt>
      <trkpt lat="36.721466" lon="-4.433652">
        <ele>33.665</ele>
        <time>2021-06-16T14:38:05Z</time>
      </trkpt>
      <trkpt lat="36.721468" lon="-4.433815">
        <ele>33.282</ele>
        <time>2021-06-16T14:38:06Z</time>
      </trkpt>
      <trkpt lat="36.721443" lon="-4.43404">
        <ele>33.029</ele>
        <time>2021-06-16T14:38:08Z</time>
      </trkpt>
      <trkpt lat="36.721343" lon="-4.434083">
        <ele>32.819</ele>
        <time>2021-06-16T14:38:10Z</time>
      </trkpt>
      <trkpt lat="36.721303" lon="-4.433974">
        <ele>32.719</ele>
        <time>2021-06-16T14:38:12Z</time>
      </trkpt>
      <trkpt lat="36.721296" lon="-4.433899">
        <ele>32.609</ele>
        <time>2021-06-16T14:38:14Z</time>
      </trkpt>
      <trkpt lat="36.721361" lon="-4.433883">
        <ele>32.619</ele>
        <time>2021-06-16T14:38:16Z</time>
      </trkpt>
      <trkpt lat="36.721399" lon="-4.433853">
        <ele>32.508</ele>
        <time>2021-06-16T14:38:20Z</time>
      </trkpt>
      <trkpt lat="36.721424" lon="-4.433804">
        <ele>32.488</ele>
        <time>2021-06-16T14:38:41Z</time>
      </trkpt>
      <trkpt lat="36.721385" lon="-4.433833">
        <ele>32.336</ele>
        <time>2021-06-16T14:39:00Z</time>
      </trkpt>
      <trkpt lat="36.721381" lon="-4.433892">
        <ele>32.230</ele>
        <time>2021-06-16T14:39:05Z</time>
      </trkpt>
      <trkpt lat="36.721388" lon="-4.433948">
        <ele>30.619</ele>
        <time>2021-06-16T14:39:07Z</time>
      </trkpt>
      <trkpt lat="36.721388" lon="-4.434016">
        <ele>29.752</ele>
        <time>2021-06-16T14:39:10Z</time>
      </trkpt>
      <trkpt lat="36.721396" lon="-4.434105">
        <ele>28.979</ele>
        <time>2021-06-16T14:39:13Z</time>
      </trkpt>
      <trkpt lat="36.721397" lon="-4.434175">
        <ele>28.416</ele>
        <time>2021-06-16T14:39:15Z</time>
      </trkpt>
      <trkpt lat="36.721442" lon="-4.434177">
        <ele>27.836</ele>
        <time>2021-06-16T14:39:30Z</time>
      </trkpt>
      <trkpt lat="36.721388" lon="-4.43421">
        <ele>24.749</ele>
        <time>2021-06-16T14:40:21Z</time>
      </trkpt>
      <trkpt lat="36.721446" lon="-4.434243">
        <ele>22.802</ele>
        <time>2021-06-16T14:40:41Z</time>
      </trkpt>
      <trkpt lat="36.72139" lon="-4.434225">
        <ele>21.722</ele>
        <time>2021-06-16T14:40:46Z</time>
      </trkpt>
      <trkpt lat="36.721338" lon="-4.434167">
        <ele>21.008</ele>
        <time>2021-06-16T14:41:06Z</time>
      </trkpt>
      <trkpt lat="36.721258" lon="-4.434295">
        <ele>20.631</ele>
        <time>2021-06-16T14:41:16Z</time>
      </trkpt>
      <trkpt lat="36.721337" lon="-4.434252">
        <ele>20.399</ele>
        <time>2021-06-16T14:41:27Z</time>
      </trkpt>
      <trkpt lat="36.721396" lon="-4.434226">
        <ele>20.213</ele>
        <time>2021-06-16T14:41:37Z</time>
      </trkpt>
      <trkpt lat="36.721349" lon="-4.434243">
        <ele>20.012</ele>
        <time>2021-06-16T14:41:58Z</time>
      </trkpt>
      <trkpt lat="36.721392" lon="-4.43427">
        <ele>20.035</ele>
        <time>2021-06-16T14:42:08Z</time>
      </trkpt>
      <trkpt lat="36.721338" lon="-4.434248">
        <ele>20.012</ele>
        <time>2021-06-16T14:42:13Z</time>
      </trkpt>
      <trkpt lat="36.721412" lon="-4.43422">
        <ele>20.029</ele>
        <time>2021-06-16T14:42:34Z</time>
      </trkpt>
      <trkpt lat="36.721357" lon="-4.434191">
        <ele>20.139</ele>
        <time>2021-06-16T14:42:59Z</time>
      </trkpt>
      <trkpt lat="36.721331" lon="-4.434242">
        <ele>20.096</ele>
        <time>2021-06-16T14:43:14Z</time>
      </trkpt>
      <trkpt lat="36.721206" lon="-4.434261">
        <ele>19.931</ele>
        <time>2021-06-16T14:43:58Z</time>
      </trkpt>
      <trkpt lat="36.721088" lon="-4.434277">
        <ele>19.824</ele>
        <time>2021-06-16T14:44:08Z</time>
      </trkpt>
      <trkpt lat="36.721263" lon="-4.434249">
        <ele>19.708</ele>
        <time>2021-06-16T14:44:29Z</time>
      </trkpt>
      <trkpt lat="36.721192" lon="-4.434263">
        <ele>19.626</ele>
        <time>2021-06-16T14:44:43Z</time>
      </trkpt>
      <trkpt lat="36.721044" lon="-4.434233">
        <ele>19.694</ele>
        <time>2021-06-16T14:44:53Z</time>
      </trkpt>
      <trkpt lat="36.721109" lon="-4.434261">
        <ele>19.638</ele>
        <time>2021-06-16T14:45:13Z</time>
      </trkpt>
      <trkpt lat="36.721248" lon="-4.434199">
        <ele>19.657</ele>
        <time>2021-06-16T14:45:23Z</time>
      </trkpt>
      <trkpt lat="36.721314" lon="-4.434171">
        <ele>19.640</ele>
        <time>2021-06-16T14:45:33Z</time>
      </trkpt>
      <trkpt lat="36.721255" lon="-4.434195">
        <ele>19.667</ele>
        <time>2021-06-16T14:45:43Z</time>
      </trkpt>
      <trkpt lat="36.721289" lon="-4.43425">
        <ele>19.724</ele>
        <time>2021-06-16T14:45:53Z</time>
      </trkpt>
      <trkpt lat="36.721244" lon="-4.434309">
        <ele>19.774</ele>
        <time>2021-06-16T14:46:03Z</time>
      </trkpt>
      <trkpt lat="36.721351" lon="-4.434178">
        <ele>19.545</ele>
        <time>2021-06-16T14:46:13Z</time>
      </trkpt>
      <trkpt lat="36.721393" lon="-4.434216">
        <ele>19.247</ele>
        <time>2021-06-16T14:46:31Z</time>
      </trkpt>
      <trkpt lat="36.721409" lon="-4.434152">
        <ele>19.011</ele>
        <time>2021-06-16T14:46:48Z</time>
      </trkpt>
      <trkpt lat="36.721416" lon="-4.434094">
        <ele>18.908</ele>
        <time>2021-06-16T14:46:52Z</time>
      </trkpt>
      <trkpt lat="36.721404" lon="-4.434035">
        <ele>18.821</ele>
        <time>2021-06-16T14:46:56Z</time>
      </trkpt>
      <trkpt lat="36.721402" lon="-4.433977">
        <ele>18.839</ele>
        <time>2021-06-16T14:47:01Z</time>
      </trkpt>
      <trkpt lat="36.721389" lon="-4.433915">
        <ele>18.733</ele>
        <time>2021-06-16T14:47:08Z</time>
      </trkpt>
      <trkpt lat="36.721436" lon="-4.433881">
        <ele>18.772</ele>
        <time>2021-06-16T14:47:15Z</time>
      </trkpt>
      <trkpt lat="36.721485" lon="-4.433869">
        <ele>18.775</ele>
        <time>2021-06-16T14:47:20Z</time>
      </trkpt>
      <trkpt lat="36.721474" lon="-4.433803">
        <ele>18.792</ele>
        <time>2021-06-16T14:47:23Z</time>
      </trkpt>
      <trkpt lat="36.72145" lon="-4.433742">
        <ele>18.799</ele>
        <time>2021-06-16T14:47:26Z</time>
      </trkpt>
      <trkpt lat="36.7214" lon="-4.43372">
        <ele>18.779</ele>
        <time>2021-06-16T14:47:32Z</time>
      </trkpt>
      <trkpt lat="36.721378" lon="-4.433653">
        <ele>22.774</ele>
        <time>2021-06-16T14:47:39Z</time>
      </trkpt>
      <trkpt lat="36.721394" lon="-4.433591">
        <ele>26.756</ele>
        <time>2021-06-16T14:47:42Z</time>
      </trkpt>
      <trkpt lat="36.721423" lon="-4.433528">
        <ele>30.621</ele>
        <time>2021-06-16T14:47:45Z</time>
      </trkpt>
      <trkpt lat="36.721446" lon="-4.43346">
        <ele>32.308</ele>
        <time>2021-06-16T14:47:48Z</time>
      </trkpt>
      <trkpt lat="36.721471" lon="-4.433396">
        <ele>31.994</ele>
        <time>2021-06-16T14:47:51Z</time>
      </trkpt>
      <trkpt lat="36.721491" lon="-4.433337">
        <ele>32.252</ele>
        <time>2021-06-16T14:47:54Z</time>
      </trkpt>
      <trkpt lat="36.721505" lon="-4.43328">
        <ele>29.796</ele>
        <time>2021-06-16T14:47:57Z</time>
      </trkpt>
      <trkpt lat="36.721521" lon="-4.43321">
        <ele>28.065</ele>
        <time>2021-06-16T14:48:00Z</time>
      </trkpt>
      <trkpt lat="36.721536" lon="-4.433146">
        <ele>26.888</ele>
        <time>2021-06-16T14:48:03Z</time>
      </trkpt>
      <trkpt lat="36.72153" lon="-4.433087">
        <ele>25.145</ele>
        <time>2021-06-16T14:48:06Z</time>
      </trkpt>
      <trkpt lat="36.721508" lon="-4.433037">
        <ele>22.822</ele>
        <time>2021-06-16T14:48:09Z</time>
      </trkpt>
      <trkpt lat="36.721516" lon="-4.432982">
        <ele>19.712</ele>
        <time>2021-06-16T14:48:17Z</time>
      </trkpt>
      <trkpt lat="36.721501" lon="-4.432916">
        <ele>18.019</ele>
        <time>2021-06-16T14:48:23Z</time>
      </trkpt>
      <trkpt lat="36.721506" lon="-4.432845">
        <ele>18.009</ele>
        <time>2021-06-16T14:48:28Z</time>
      </trkpt>
      <trkpt lat="36.721514" lon="-4.432789">
        <ele>17.719</ele>
        <time>2021-06-16T14:48:31Z</time>
      </trkpt>
      <trkpt lat="36.721503" lon="-4.432729">
        <ele>18.808</ele>
        <time>2021-06-16T14:48:34Z</time>
      </trkpt>
      <trkpt lat="36.721492" lon="-4.432672">
        <ele>21.878</ele>
        <time>2021-06-16T14:48:37Z</time>
      </trkpt>
      <trkpt lat="36.721522" lon="-4.432619">
        <ele>24.036</ele>
        <time>2021-06-16T14:48:41Z</time>
      </trkpt>
      <trkpt lat="36.721562" lon="-4.43259">
        <ele>25.990</ele>
        <time>2021-06-16T14:48:46Z</time>
      </trkpt>
      <trkpt lat="36.72156" lon="-4.432533">
        <ele>26.619</ele>
        <time>2021-06-16T14:48:51Z</time>
      </trkpt>
      <trkpt lat="36.721574" lon="-4.432464">
        <ele>27.172</ele>
        <time>2021-06-16T14:48:58Z</time>
      </trkpt>
      <trkpt lat="36.721572" lon="-4.432405">
        <ele>28.049</ele>
        <time>2021-06-16T14:49:01Z</time>
      </trkpt>
      <trkpt lat="36.721603" lon="-4.432362">
        <ele>27.386</ele>
        <time>2021-06-16T14:49:05Z</time>
      </trkpt>
      <trkpt lat="36.721646" lon="-4.432389">
        <ele>27.816</ele>
        <time>2021-06-16T14:49:09Z</time>
      </trkpt>
      <trkpt lat="36.721696" lon="-4.432369">
        <ele>28.151</ele>
        <time>2021-06-16T14:49:15Z</time>
      </trkpt>
      <trkpt lat="36.721721" lon="-4.432314">
        <ele>30.001</ele>
        <time>2021-06-16T14:49:19Z</time>
      </trkpt>
      <trkpt lat="36.72172" lon="-4.432256">
        <ele>31.411</ele>
        <time>2021-06-16T14:49:22Z</time>
      </trkpt>
      <trkpt lat="36.721681" lon="-4.432187">
        <ele>31.508</ele>
        <time>2021-06-16T14:49:25Z</time>
      </trkpt>
      <trkpt lat="36.721653" lon="-4.432137">
        <ele>30.032</ele>
        <time>2021-06-16T14:49:27Z</time>
      </trkpt>
      <trkpt lat="36.721604" lon="-4.432095">
        <ele>29.280</ele>
        <time>2021-06-16T14:49:30Z</time>
      </trkpt>
      <trkpt lat="36.721557" lon="-4.432065">
        <ele>29.754</ele>
        <time>2021-06-16T14:49:33Z</time>
      </trkpt>
      <trkpt lat="36.72151" lon="-4.432041">
        <ele>31.223</ele>
        <time>2021-06-16T14:49:36Z</time>
      </trkpt>
      <trkpt lat="36.721454" lon="-4.432015">
        <ele>32.036</ele>
        <time>2021-06-16T14:49:39Z</time>
      </trkpt>
      <trkpt lat="36.721401" lon="-4.432002">
        <ele>33.933</ele>
        <time>2021-06-16T14:49:42Z</time>
      </trkpt>
      <trkpt lat="36.721351" lon="-4.432">
        <ele>35.840</ele>
        <time>2021-06-16T14:49:45Z</time>
      </trkpt>
      <trkpt lat="36.721301" lon="-4.432002">
        <ele>37.740</ele>
        <time>2021-06-16T14:49:48Z</time>
      </trkpt>
      <trkpt lat="36.721248" lon="-4.432026">
        <ele>39.153</ele>
        <time>2021-06-16T14:49:52Z</time>
      </trkpt>
      <trkpt lat="36.721194" lon="-4.432034">
        <ele>42.104</ele>
        <time>2021-06-16T14:49:57Z</time>
      </trkpt>
      <trkpt lat="36.721218" lon="-4.432087">
        <ele>44.714</ele>
        <time>2021-06-16T14:50:21Z</time>
      </trkpt>
      <trkpt lat="36.721272" lon="-4.432069">
        <ele>46.508</ele>
        <time>2021-06-16T14:50:25Z</time>
      </trkpt>
      <trkpt lat="36.721324" lon="-4.43206">
        <ele>47.662</ele>
        <time>2021-06-16T14:50:29Z</time>
      </trkpt>
      <trkpt lat="36.721371" lon="-4.432064">
        <ele>46.640</ele>
        <time>2021-06-16T14:50:33Z</time>
      </trkpt>
      <trkpt lat="36.721279" lon="-4.432153">
        <ele>42.694</ele>
        <time>2021-06-16T14:51:01Z</time>
      </trkpt>
      <trkpt lat="36.721224" lon="-4.432168">
        <ele>38.683</ele>
        <time>2021-06-16T14:52:10Z</time>
      </trkpt>
      <trkpt lat="36.721267" lon="-4.432153">
        <ele>34.616</ele>
        <time>2021-06-16T14:56:28Z</time>
      </trkpt>
      <trkpt lat="36.721363" lon="-4.432166">
        <ele>32.043</ele>
        <time>2021-06-16T15:17:56Z</time>
      </trkpt>
      <trkpt lat="36.721416" lon="-4.432171">
        <ele>30.490</ele>
        <time>2021-06-16T15:17:57Z</time>
      </trkpt>
      <trkpt lat="36.721466" lon="-4.432175">
        <ele>29.460</ele>
        <time>2021-06-16T15:17:59Z</time>
      </trkpt>
      <trkpt lat="36.721425" lon="-4.432151">
        <ele>28.829</ele>
        <time>2021-06-16T15:28:13Z</time>
      </trkpt>
      <trkpt lat="36.721326" lon="-4.432138">
        <ele>28.500</ele>
        <time>2021-06-16T15:30:04Z</time>
      </trkpt>
      <trkpt lat="36.721268" lon="-4.432149">
        <ele>28.320</ele>
        <time>2021-06-16T15:30:05Z</time>
      </trkpt>
      <trkpt lat="36.721322" lon="-4.432135">
        <ele>28.108</ele>
        <time>2021-06-16T15:31:05Z</time>
      </trkpt>
      <trkpt lat="36.721399" lon="-4.432115">
        <ele>28.029</ele>
        <time>2021-06-16T15:31:07Z</time>
      </trkpt>
      <trkpt lat="36.721346" lon="-4.432093">
        <ele>27.947</ele>
        <time>2021-06-16T15:42:37Z</time>
      </trkpt>
      <trkpt lat="36.721318" lon="-4.432137">
        <ele>27.941</ele>
        <time>2021-06-16T15:43:51Z</time>
      </trkpt>
      <trkpt lat="36.721272" lon="-4.432133">
        <ele>27.930</ele>
        <time>2021-06-16T15:43:55Z</time>
      </trkpt>
      <trkpt lat="36.721315" lon="-4.432097">
        <ele>27.953</ele>
        <time>2021-06-16T15:44:17Z</time>
      </trkpt>
      <trkpt lat="36.721357" lon="-4.432077">
        <ele>27.980</ele>
        <time>2021-06-16T15:44:21Z</time>
      </trkpt>
      <trkpt lat="36.721403" lon="-4.432049">
        <ele>27.077</ele>
        <time>2021-06-16T15:44:25Z</time>
      </trkpt>
      <trkpt lat="36.7214" lon="-4.432109">
        <ele>25.677</ele>
        <time>2021-06-16T15:44:33Z</time>
      </trkpt>
      <trkpt lat="36.721434" lon="-4.432156">
        <ele>24.574</ele>
        <time>2021-06-16T15:44:37Z</time>
      </trkpt>
      <trkpt lat="36.721461" lon="-4.432203">
        <ele>23.656</ele>
        <time>2021-06-16T15:44:42Z</time>
      </trkpt>
      <trkpt lat="36.721439" lon="-4.432254">
        <ele>22.921</ele>
        <time>2021-06-16T15:44:47Z</time>
      </trkpt>
      <trkpt lat="36.721423" lon="-4.432313">
        <ele>22.508</ele>
        <time>2021-06-16T15:44:52Z</time>
      </trkpt>
      <trkpt lat="36.721443" lon="-4.432372">
        <ele>22.184</ele>
        <time>2021-06-16T15:44:56Z</time>
      </trkpt>
      <trkpt lat="36.72147" lon="-4.432421">
        <ele>21.852</ele>
        <time>2021-06-16T15:45:00Z</time>
      </trkpt>
      <trkpt lat="36.721458" lon="-4.432479">
        <ele>21.656</ele>
        <time>2021-06-16T15:45:06Z</time>
      </trkpt>
      <trkpt lat="36.721507" lon="-4.432527">
        <ele>21.595</ele>
        <time>2021-06-16T15:45:10Z</time>
      </trkpt>
      <trkpt lat="36.721541" lon="-4.432577">
        <ele>21.558</ele>
        <time>2021-06-16T15:45:14Z</time>
      </trkpt>
      <trkpt lat="36.721571" lon="-4.432632">
        <ele>22.225</ele>
        <time>2021-06-16T15:45:19Z</time>
      </trkpt>
      <trkpt lat="36.721547" lon="-4.432694">
        <ele>23.192</ele>
        <time>2021-06-16T15:45:25Z</time>
      </trkpt>
      <trkpt lat="36.721489" lon="-4.432718">
        <ele>23.952</ele>
        <time>2021-06-16T15:45:29Z</time>
      </trkpt>
      <trkpt lat="36.721435" lon="-4.432711">
        <ele>24.412</ele>
        <time>2021-06-16T15:45:31Z</time>
      </trkpt>
      <trkpt lat="36.721386" lon="-4.432686">
        <ele>24.932</ele>
        <time>2021-06-16T15:45:33Z</time>
      </trkpt>
      <trkpt lat="36.721334" lon="-4.432641">
        <ele>25.205</ele>
        <time>2021-06-16T15:45:36Z</time>
      </trkpt>
      <trkpt lat="36.721295" lon="-4.432611">
        <ele>25.508</ele>
        <time>2021-06-16T15:45:41Z</time>
      </trkpt>
      <trkpt lat="36.721326" lon="-4.432562">
        <ele>25.748</ele>
        <time>2021-06-16T15:46:07Z</time>
      </trkpt>
      <trkpt lat="36.7213" lon="-4.432635">
        <ele>25.856</ele>
        <time>2021-06-16T15:46:08Z</time>
      </trkpt>
      <trkpt lat="36.721357" lon="-4.432621">
        <ele>26.370</ele>
        <time>2021-06-16T15:47:25Z</time>
      </trkpt>
      <trkpt lat="36.721356" lon="-4.432681">
        <ele>26.699</ele>
        <time>2021-06-16T15:47:42Z</time>
      </trkpt>
      <trkpt lat="36.721317" lon="-4.43284">
        <ele>26.892</ele>
        <time>2021-06-16T15:47:57Z</time>
      </trkpt>
      <trkpt lat="36.721373" lon="-4.432845">
        <ele>26.969</ele>
        <time>2021-06-16T15:48:03Z</time>
      </trkpt>
      <trkpt lat="36.721319" lon="-4.432873">
        <ele>25.236</ele>
        <time>2021-06-16T15:50:03Z</time>
      </trkpt>
      <trkpt lat="36.721312" lon="-4.432794">
        <ele>21.246</ele>
        <time>2021-06-16T15:50:30Z</time>
      </trkpt>
      <trkpt lat="36.72132" lon="-4.43272">
        <ele>18.544</ele>
        <time>2021-06-16T15:50:31Z</time>
      </trkpt>
      <trkpt lat="36.721303" lon="-4.432813">
        <ele>16.005</ele>
        <time>2021-06-16T15:51:13Z</time>
      </trkpt>
      <trkpt lat="36.721275" lon="-4.43276">
        <ele>14.515</ele>
        <time>2021-06-16T15:51:24Z</time>
      </trkpt>
      <trkpt lat="36.721303" lon="-4.432837">
        <ele>13.708</ele>
        <time>2021-06-16T15:51:43Z</time>
      </trkpt>
      <trkpt lat="36.721301" lon="-4.432772">
        <ele>13.371</ele>
        <time>2021-06-16T15:52:29Z</time>
      </trkpt>
      <trkpt lat="36.72126" lon="-4.432741">
        <ele>13.129</ele>
        <time>2021-06-16T15:52:31Z</time>
      </trkpt>
      <trkpt lat="36.721206" lon="-4.432735">
        <ele>13.053</ele>
        <time>2021-06-16T15:52:33Z</time>
      </trkpt>
      <trkpt lat="36.721236" lon="-4.432685">
        <ele>12.932</ele>
        <time>2021-06-16T15:52:35Z</time>
      </trkpt>
      <trkpt lat="36.721283" lon="-4.432632">
        <ele>12.825</ele>
        <time>2021-06-16T15:52:36Z</time>
      </trkpt>
      <trkpt lat="36.721269" lon="-4.432686">
        <ele>12.652</ele>
        <time>2021-06-16T15:52:52Z</time>
      </trkpt>
      <trkpt lat="36.721231" lon="-4.432721">
        <ele>12.559</ele>
        <time>2021-06-16T15:53:30Z</time>
      </trkpt>
      <trkpt lat="36.721271" lon="-4.432693">
        <ele>12.529</ele>
        <time>2021-06-16T15:53:44Z</time>
      </trkpt>
      <trkpt lat="36.721288" lon="-4.432637">
        <ele>12.514</ele>
        <time>2021-06-16T15:53:58Z</time>
      </trkpt>
      <trkpt lat="36.721249" lon="-4.432675">
        <ele>12.554</ele>
        <time>2021-06-16T15:54:13Z</time>
      </trkpt>
      <trkpt lat="36.721209" lon="-4.432708">
        <ele>12.509</ele>
        <time>2021-06-16T15:54:18Z</time>
      </trkpt>
      <trkpt lat="36.72126" lon="-4.432657">
        <ele>12.408</ele>
        <time>2021-06-16T15:54:21Z</time>
      </trkpt>
      <trkpt lat="36.721302" lon="-4.432634">
        <ele>12.238</ele>
        <time>2021-06-16T15:54:27Z</time>
      </trkpt>
      <trkpt lat="36.72125" lon="-4.432684">
        <ele>12.076</ele>
        <time>2021-06-16T15:54:49Z</time>
      </trkpt>
      <trkpt lat="36.721296" lon="-4.432633">
        <ele>11.840</ele>
        <time>2021-06-16T15:56:36Z</time>
      </trkpt>
      <trkpt lat="36.721241" lon="-4.4327">
        <ele>11.729</ele>
        <time>2021-06-16T15:56:41Z</time>
      </trkpt>
      <trkpt lat="36.721271" lon="-4.432647">
        <ele>11.762</ele>
        <time>2021-06-16T15:58:21Z</time>
      </trkpt>
      <trkpt lat="36.721312" lon="-4.432618">
        <ele>11.779</ele>
        <time>2021-06-16T15:58:27Z</time>
      </trkpt>
      <trkpt lat="36.721273" lon="-4.432646">
        <ele>11.856</ele>
        <time>2021-06-16T15:58:39Z</time>
      </trkpt>
      <trkpt lat="36.721257" lon="-4.432702">
        <ele>11.986</ele>
        <time>2021-06-16T15:58:49Z</time>
      </trkpt>
      <trkpt lat="36.721221" lon="-4.432739">
        <ele>12.017</ele>
        <time>2021-06-16T15:59:21Z</time>
      </trkpt>
      <trkpt lat="36.721238" lon="-4.432684">
        <ele>12.087</ele>
        <time>2021-06-16T16:02:09Z</time>
      </trkpt>
      <trkpt lat="36.721265" lon="-4.432621">
        <ele>12.015</ele>
        <time>2021-06-16T16:02:14Z</time>
      </trkpt>
      <trkpt lat="36.721226" lon="-4.43265">
        <ele>12.308</ele>
        <time>2021-06-16T16:05:35Z</time>
      </trkpt>
      <trkpt lat="36.721272" lon="-4.43263">
        <ele>12.538</ele>
        <time>2021-06-16T16:05:40Z</time>
      </trkpt>
      <trkpt lat="36.721247" lon="-4.432685">
        <ele>12.686</ele>
        <time>2021-06-16T16:05:49Z</time>
      </trkpt>
      <trkpt lat="36.721201" lon="-4.432705">
        <ele>12.650</ele>
        <time>2021-06-16T16:05:53Z</time>
      </trkpt>
      <trkpt lat="36.721159" lon="-4.432675">
        <ele>12.329</ele>
        <time>2021-06-16T16:06:04Z</time>
      </trkpt>
      <trkpt lat="36.721119" lon="-4.43272">
        <ele>12.112</ele>
        <time>2021-06-16T16:06:18Z</time>
      </trkpt>
      <trkpt lat="36.72112" lon="-4.432782">
        <ele>12.069</ele>
        <time>2021-06-16T16:06:24Z</time>
      </trkpt>
      <trkpt lat="36.721129" lon="-4.432842">
        <ele>12.056</ele>
        <time>2021-06-16T16:06:32Z</time>
      </trkpt>
      <trkpt lat="36.721169" lon="-4.432806">
        <ele>12.476</ele>
        <time>2021-06-16T16:06:58Z</time>
      </trkpt>
      <trkpt lat="36.721166" lon="-4.432874">
        <ele>12.997</ele>
        <time>2021-06-16T16:09:26Z</time>
      </trkpt>
      <trkpt lat="36.721157" lon="-4.432817">
        <ele>13.123</ele>
        <time>2021-06-16T16:09:31Z</time>
      </trkpt>
      <trkpt lat="36.721172" lon="-4.432873">
        <ele>13.325</ele>
        <time>2021-06-16T16:10:15Z</time>
      </trkpt>
      <trkpt lat="36.721177" lon="-4.432806">
        <ele>13.408</ele>
        <time>2021-06-16T16:10:19Z</time>
      </trkpt>
      <trkpt lat="36.721162" lon="-4.43286">
        <ele>13.496</ele>
        <time>2021-06-16T16:11:30Z</time>
      </trkpt>
      <trkpt lat="36.721177" lon="-4.432801">
        <ele>13.414</ele>
        <time>2021-06-16T16:11:34Z</time>
      </trkpt>
      <trkpt lat="36.721165" lon="-4.432859">
        <ele>13.478</ele>
        <time>2021-06-16T16:11:38Z</time>
      </trkpt>
      <trkpt lat="36.721142" lon="-4.43281">
        <ele>13.467</ele>
        <time>2021-06-16T16:11:52Z</time>
      </trkpt>
      <trkpt lat="36.721187" lon="-4.432813">
        <ele>13.430</ele>
        <time>2021-06-16T16:12:38Z</time>
      </trkpt>
      <trkpt lat="36.721169" lon="-4.432889">
        <ele>13.437</ele>
        <time>2021-06-16T16:12:40Z</time>
      </trkpt>
      <trkpt lat="36.721154" lon="-4.432828">
        <ele>13.474</ele>
        <time>2021-06-16T16:12:54Z</time>
      </trkpt>
      <trkpt lat="36.721169" lon="-4.432887">
        <ele>13.444</ele>
        <time>2021-06-16T16:13:15Z</time>
      </trkpt>
      <trkpt lat="36.721149" lon="-4.432824">
        <ele>13.479</ele>
        <time>2021-06-16T16:13:26Z</time>
      </trkpt>
      <trkpt lat="36.721192" lon="-4.432806">
        <ele>13.405</ele>
        <time>2021-06-16T16:14:07Z</time>
      </trkpt>
      <trkpt lat="36.721166" lon="-4.432853">
        <ele>13.425</ele>
        <time>2021-06-16T16:14:18Z</time>
      </trkpt>
      <trkpt lat="36.721203" lon="-4.432819">
        <ele>13.508</ele>
        <time>2021-06-16T16:14:26Z</time>
      </trkpt>
      <trkpt lat="36.72148" lon="-4.434215">
        <ele>22.111</ele>
        <time>2021-06-16T17:24:51Z</time>
      </trkpt>
      <trkpt lat="36.721531" lon="-4.434221">
        <ele>22.121</ele>
        <time>2021-06-16T17:24:59Z</time>
      </trkpt>
      <trkpt lat="36.721484" lon="-4.434231">
        <ele>22.103</ele>
        <time>2021-06-16T17:25:57Z</time>
      </trkpt>
      <trkpt lat="36.721442" lon="-4.434252">
        <ele>22.008</ele>
        <time>2021-06-16T17:26:05Z</time>
      </trkpt>
      <trkpt lat="36.721504" lon="-4.434271">
        <ele>22.048</ele>
        <time>2021-06-16T17:26:08Z</time>
      </trkpt>
      <trkpt lat="36.721535" lon="-4.43436">
        <ele>22.067</ele>
        <time>2021-06-16T17:26:10Z</time>
      </trkpt>
      <trkpt lat="36.721533" lon="-4.434458">
        <ele>22.081</ele>
        <time>2021-06-16T17:26:11Z</time>
      </trkpt>
      <trkpt lat="36.721529" lon="-4.434678">
        <ele>22.041</ele>
        <time>2021-06-16T17:26:13Z</time>
      </trkpt>
      <trkpt lat="36.721532" lon="-4.434774">
        <ele>22.067</ele>
        <time>2021-06-16T17:26:14Z</time>
      </trkpt>
      <trkpt lat="36.721531" lon="-4.434863">
        <ele>22.029</ele>
        <time>2021-06-16T17:26:15Z</time>
      </trkpt>
      <trkpt lat="36.721526" lon="-4.435027">
        <ele>22.018</ele>
        <time>2021-06-16T17:26:17Z</time>
      </trkpt>
      <trkpt lat="36.721524" lon="-4.435099">
        <ele>22.082</ele>
        <time>2021-06-16T17:26:18Z</time>
      </trkpt>
      <trkpt lat="36.721529" lon="-4.435239">
        <ele>22.015</ele>
        <time>2021-06-16T17:26:20Z</time>
      </trkpt>
      <trkpt lat="36.721523" lon="-4.435347">
        <ele>22.065</ele>
        <time>2021-06-16T17:26:22Z</time>
      </trkpt>
      <trkpt lat="36.72151" lon="-4.435413">
        <ele>22.011</ele>
        <time>2021-06-16T17:26:24Z</time>
      </trkpt>
      <trkpt lat="36.721485" lon="-4.435479">
        <ele>22.008</ele>
        <time>2021-06-16T17:26:27Z</time>
      </trkpt>
      <trkpt lat="36.721437" lon="-4.435455">
        <ele>22.258</ele>
        <time>2021-06-16T17:26:34Z</time>
      </trkpt>
      <trkpt lat="36.72138" lon="-4.435447">
        <ele>22.447</ele>
        <time>2021-06-16T17:26:41Z</time>
      </trkpt>
      <trkpt lat="36.721398" lon="-4.435531">
        <ele>23.521</ele>
        <time>2021-06-16T17:27:12Z</time>
      </trkpt>
      <trkpt lat="36.721425" lon="-4.435583">
        <ele>24.231</ele>
        <time>2021-06-16T17:27:13Z</time>
      </trkpt>
      <trkpt lat="36.721458" lon="-4.435671">
        <ele>24.657</ele>
        <time>2021-06-16T17:27:15Z</time>
      </trkpt>
      <trkpt lat="36.721434" lon="-4.43576">
        <ele>24.849</ele>
        <time>2021-06-16T17:27:17Z</time>
      </trkpt>
      <trkpt lat="36.721372" lon="-4.435807">
        <ele>24.998</ele>
        <time>2021-06-16T17:27:19Z</time>
      </trkpt>
      <trkpt lat="36.721313" lon="-4.435818">
        <ele>25.042</ele>
        <time>2021-06-16T17:27:21Z</time>
      </trkpt>
      <trkpt lat="36.721221" lon="-4.435814">
        <ele>25.064</ele>
        <time>2021-06-16T17:27:23Z</time>
      </trkpt>
      <trkpt lat="36.721087" lon="-4.435807">
        <ele>25.006</ele>
        <time>2021-06-16T17:27:25Z</time>
      </trkpt>
      <trkpt lat="36.720931" lon="-4.435798">
        <ele>25.016</ele>
        <time>2021-06-16T17:27:27Z</time>
      </trkpt>
      <trkpt lat="36.720849" lon="-4.435795">
        <ele>25.008</ele>
        <time>2021-06-16T17:27:28Z</time>
      </trkpt>
      <trkpt lat="36.72077" lon="-4.435799">
        <ele>25.093</ele>
        <time>2021-06-16T17:27:29Z</time>
      </trkpt>
      <trkpt lat="36.72063" lon="-4.435849">
        <ele>25.042</ele>
        <time>2021-06-16T17:27:31Z</time>
      </trkpt>
      <trkpt lat="36.720575" lon="-4.4359">
        <ele>25.076</ele>
        <time>2021-06-16T17:27:32Z</time>
      </trkpt>
      <trkpt lat="36.72048" lon="-4.436041">
        <ele>25.016</ele>
        <time>2021-06-16T17:27:34Z</time>
      </trkpt>
      <trkpt lat="36.72042" lon="-4.436189">
        <ele>25.072</ele>
        <time>2021-06-16T17:27:36Z</time>
      </trkpt>
      <trkpt lat="36.720354" lon="-4.43631">
        <ele>25.054</ele>
        <time>2021-06-16T17:27:38Z</time>
      </trkpt>
      <trkpt lat="36.720311" lon="-4.436374">
        <ele>25.063</ele>
        <time>2021-06-16T17:27:40Z</time>
      </trkpt>
      <trkpt lat="36.720264" lon="-4.436397">
        <ele>25.087</ele>
        <time>2021-06-16T17:27:42Z</time>
      </trkpt>
      <trkpt lat="36.7202" lon="-4.4364">
        <ele>25.084</ele>
        <time>2021-06-16T17:27:44Z</time>
      </trkpt>
      <trkpt lat="36.720156" lon="-4.436371">
        <ele>25.207</ele>
        <time>2021-06-16T17:27:46Z</time>
      </trkpt>
      <trkpt lat="36.720086" lon="-4.436342">
        <ele>25.317</ele>
        <time>2021-06-16T17:28:08Z</time>
      </trkpt>
      <trkpt lat="36.720045" lon="-4.43631">
        <ele>25.408</ele>
        <time>2021-06-16T17:28:09Z</time>
      </trkpt>
      <trkpt lat="36.719929" lon="-4.436198">
        <ele>25.445</ele>
        <time>2021-06-16T17:28:11Z</time>
      </trkpt>
      <trkpt lat="36.719804" lon="-4.436064">
        <ele>25.464</ele>
        <time>2021-06-16T17:28:13Z</time>
      </trkpt>
      <trkpt lat="36.719669" lon="-4.435941">
        <ele>25.458</ele>
        <time>2021-06-16T17:28:15Z</time>
      </trkpt>
      <trkpt lat="36.7196" lon="-4.435874">
        <ele>25.428</ele>
        <time>2021-06-16T17:28:16Z</time>
      </trkpt>
      <trkpt lat="36.719529" lon="-4.435805">
        <ele>25.474</ele>
        <time>2021-06-16T17:28:17Z</time>
      </trkpt>
      <trkpt lat="36.719395" lon="-4.435666">
        <ele>25.426</ele>
        <time>2021-06-16T17:28:19Z</time>
      </trkpt>
      <trkpt lat="36.71933" lon="-4.435596">
        <ele>25.475</ele>
        <time>2021-06-16T17:28:20Z</time>
      </trkpt>
      <trkpt lat="36.719211" lon="-4.435467">
        <ele>25.419</ele>
        <time>2021-06-16T17:28:22Z</time>
      </trkpt>
      <trkpt lat="36.719082" lon="-4.435416">
        <ele>25.432</ele>
        <time>2021-06-16T17:28:24Z</time>
      </trkpt>
      <trkpt lat="36.719013" lon="-4.43545">
        <ele>25.492</ele>
        <time>2021-06-16T17:28:25Z</time>
      </trkpt>
      <trkpt lat="36.718889" lon="-4.435572">
        <ele>25.411</ele>
        <time>2021-06-16T17:28:27Z</time>
      </trkpt>
      <trkpt lat="36.718838" lon="-4.435676">
        <ele>25.408</ele>
        <time>2021-06-16T17:28:28Z</time>
      </trkpt>
      <trkpt lat="36.718783" lon="-4.435785">
        <ele>25.430</ele>
        <time>2021-06-16T17:28:29Z</time>
      </trkpt>
      <trkpt lat="36.718724" lon="-4.435878">
        <ele>25.419</ele>
        <time>2021-06-16T17:28:30Z</time>
      </trkpt>
      <trkpt lat="36.718558" lon="-4.435973">
        <ele>25.473</ele>
        <time>2021-06-16T17:28:32Z</time>
      </trkpt>
      <trkpt lat="36.718468" lon="-4.435971">
        <ele>25.453</ele>
        <time>2021-06-16T17:28:33Z</time>
      </trkpt>
      <trkpt lat="36.718385" lon="-4.43595">
        <ele>25.469</ele>
        <time>2021-06-16T17:28:34Z</time>
      </trkpt>
      <trkpt lat="36.718226" lon="-4.435876">
        <ele>25.421</ele>
        <time>2021-06-16T17:28:36Z</time>
      </trkpt>
      <trkpt lat="36.718152" lon="-4.435845">
        <ele>25.450</ele>
        <time>2021-06-16T17:28:37Z</time>
      </trkpt>
      <trkpt lat="36.718023" lon="-4.435797">
        <ele>25.454</ele>
        <time>2021-06-16T17:28:39Z</time>
      </trkpt>
      <trkpt lat="36.717887" lon="-4.435742">
        <ele>25.428</ele>
        <time>2021-06-16T17:28:41Z</time>
      </trkpt>
      <trkpt lat="36.717813" lon="-4.435718">
        <ele>25.489</ele>
        <time>2021-06-16T17:28:42Z</time>
      </trkpt>
      <trkpt lat="36.717736" lon="-4.435703">
        <ele>25.417</ele>
        <time>2021-06-16T17:28:43Z</time>
      </trkpt>
      <trkpt lat="36.717583" lon="-4.435728">
        <ele>25.408</ele>
        <time>2021-06-16T17:28:45Z</time>
      </trkpt>
      <trkpt lat="36.717417" lon="-4.43582">
        <ele>25.489</ele>
        <time>2021-06-16T17:28:47Z</time>
      </trkpt>
      <trkpt lat="36.717291" lon="-4.436001">
        <ele>25.478</ele>
        <time>2021-06-16T17:28:49Z</time>
      </trkpt>
      <trkpt lat="36.717252" lon="-4.43612">
        <ele>25.462</ele>
        <time>2021-06-16T17:28:50Z</time>
      </trkpt>
      <trkpt lat="36.717226" lon="-4.436408">
        <ele>25.422</ele>
        <time>2021-06-16T17:28:52Z</time>
      </trkpt>
      <trkpt lat="36.71722" lon="-4.436567">
        <ele>25.478</ele>
        <time>2021-06-16T17:28:53Z</time>
      </trkpt>
      <trkpt lat="36.717204" lon="-4.43689">
        <ele>25.480</ele>
        <time>2021-06-16T17:28:55Z</time>
      </trkpt>
      <trkpt lat="36.717192" lon="-4.437036">
        <ele>25.469</ele>
        <time>2021-06-16T17:28:56Z</time>
      </trkpt>
      <trkpt lat="36.71716" lon="-4.437292">
        <ele>25.463</ele>
        <time>2021-06-16T17:28:58Z</time>
      </trkpt>
      <trkpt lat="36.717128" lon="-4.437507">
        <ele>25.445</ele>
        <time>2021-06-16T17:29:00Z</time>
      </trkpt>
      <trkpt lat="36.717096" lon="-4.437681">
        <ele>25.447</ele>
        <time>2021-06-16T17:29:02Z</time>
      </trkpt>
      <trkpt lat="36.717079" lon="-4.437756">
        <ele>25.411</ele>
        <time>2021-06-16T17:29:03Z</time>
      </trkpt>
      <trkpt lat="36.717047" lon="-4.437905">
        <ele>25.408</ele>
        <time>2021-06-16T17:29:05Z</time>
      </trkpt>
      <trkpt lat="36.717029" lon="-4.438039">
        <ele>24.341</ele>
        <time>2021-06-16T17:29:07Z</time>
      </trkpt>
      <trkpt lat="36.716998" lon="-4.438176">
        <ele>24.390</ele>
        <time>2021-06-16T17:29:09Z</time>
      </trkpt>
      <trkpt lat="36.716961" lon="-4.438355">
        <ele>24.564</ele>
        <time>2021-06-16T17:29:11Z</time>
      </trkpt>
      <trkpt lat="36.71694" lon="-4.438436">
        <ele>25.174</ele>
        <time>2021-06-16T17:29:12Z</time>
      </trkpt>
      <trkpt lat="36.716909" lon="-4.438582">
        <ele>26.370</ele>
        <time>2021-06-16T17:29:14Z</time>
      </trkpt>
      <trkpt lat="36.716895" lon="-4.438676">
        <ele>26.462</ele>
        <time>2021-06-16T17:29:15Z</time>
      </trkpt>
      <trkpt lat="36.716863" lon="-4.438917">
        <ele>25.111</ele>
        <time>2021-06-16T17:29:17Z</time>
      </trkpt>
      <trkpt lat="36.716822" lon="-4.439177">
        <ele>25.535</ele>
        <time>2021-06-16T17:29:19Z</time>
      </trkpt>
      <trkpt lat="36.716801" lon="-4.439311">
        <ele>25.699</ele>
        <time>2021-06-16T17:29:20Z</time>
      </trkpt>
      <trkpt lat="36.716754" lon="-4.439592">
        <ele>26.107</ele>
        <time>2021-06-16T17:29:22Z</time>
      </trkpt>
      <trkpt lat="36.71673" lon="-4.439731">
        <ele>26.327</ele>
        <time>2021-06-16T17:29:23Z</time>
      </trkpt>
      <trkpt lat="36.716678" lon="-4.440001">
        <ele>27.208</ele>
        <time>2021-06-16T17:29:25Z</time>
      </trkpt>
      <trkpt lat="36.716652" lon="-4.440135">
        <ele>27.756</ele>
        <time>2021-06-16T17:29:26Z</time>
      </trkpt>
      <trkpt lat="36.716604" lon="-4.440392">
        <ele>28.225</ele>
        <time>2021-06-16T17:29:28Z</time>
      </trkpt>
      <trkpt lat="36.716581" lon="-4.440522">
        <ele>29.099</ele>
        <time>2021-06-16T17:29:29Z</time>
      </trkpt>
      <trkpt lat="36.716558" lon="-4.44065">
        <ele>29.789</ele>
        <time>2021-06-16T17:29:30Z</time>
      </trkpt>
      <trkpt lat="36.716532" lon="-4.440782">
        <ele>30.275</ele>
        <time>2021-06-16T17:29:31Z</time>
      </trkpt>
      <trkpt lat="36.716474" lon="-4.441055">
        <ele>32.177</ele>
        <time>2021-06-16T17:29:33Z</time>
      </trkpt>
      <trkpt lat="36.71644" lon="-4.441207">
        <ele>32.576</ele>
        <time>2021-06-16T17:29:34Z</time>
      </trkpt>
      <trkpt lat="36.716406" lon="-4.441374">
        <ele>32.470</ele>
        <time>2021-06-16T17:29:35Z</time>
      </trkpt>
      <trkpt lat="36.716337" lon="-4.4418">
        <ele>32.528</ele>
        <time>2021-06-16T17:29:37Z</time>
      </trkpt>
      <trkpt lat="36.716284" lon="-4.442177">
        <ele>32.189</ele>
        <time>2021-06-16T17:29:39Z</time>
      </trkpt>
      <trkpt lat="36.716254" lon="-4.442351">
        <ele>31.817</ele>
        <time>2021-06-16T17:29:40Z</time>
      </trkpt>
      <trkpt lat="36.716207" lon="-4.442673">
        <ele>31.408</ele>
        <time>2021-06-16T17:29:42Z</time>
      </trkpt>
      <trkpt lat="36.71616" lon="-4.442984">
        <ele>32.279</ele>
        <time>2021-06-16T17:29:44Z</time>
      </trkpt>
      <trkpt lat="36.716102" lon="-4.443301">
        <ele>32.788</ele>
        <time>2021-06-16T17:29:46Z</time>
      </trkpt>
      <trkpt lat="36.716078" lon="-4.443459">
        <ele>33.462</ele>
        <time>2021-06-16T17:29:47Z</time>
      </trkpt>
      <trkpt lat="36.716052" lon="-4.443613">
        <ele>33.932</ele>
        <time>2021-06-16T17:29:48Z</time>
      </trkpt>
      <trkpt lat="36.716026" lon="-4.443769">
        <ele>34.458</ele>
        <time>2021-06-16T17:29:49Z</time>
      </trkpt>
      <trkpt lat="36.715994" lon="-4.443928">
        <ele>34.570</ele>
        <time>2021-06-16T17:29:50Z</time>
      </trkpt>
      <trkpt lat="36.715941" lon="-4.444257">
        <ele>33.259</ele>
        <time>2021-06-16T17:29:52Z</time>
      </trkpt>
      <trkpt lat="36.715913" lon="-4.444422">
        <ele>32.933</ele>
        <time>2021-06-16T17:29:53Z</time>
      </trkpt>
      <trkpt lat="36.715884" lon="-4.444586">
        <ele>32.766</ele>
        <time>2021-06-16T17:29:54Z</time>
      </trkpt>
      <trkpt lat="36.71581" lon="-4.444904">
        <ele>31.229</ele>
        <time>2021-06-16T17:29:56Z</time>
      </trkpt>
      <trkpt lat="36.715758" lon="-4.445215">
        <ele>30.521</ele>
        <time>2021-06-16T17:29:58Z</time>
      </trkpt>
      <trkpt lat="36.715725" lon="-4.445362">
        <ele>31.108</ele>
        <time>2021-06-16T17:29:59Z</time>
      </trkpt>
      <trkpt lat="36.715673" lon="-4.445627">
        <ele>30.993</ele>
        <time>2021-06-16T17:30:01Z</time>
      </trkpt>
      <trkpt lat="36.715622" lon="-4.445851">
        <ele>30.682</ele>
        <time>2021-06-16T17:30:03Z</time>
      </trkpt>
      <trkpt lat="36.71558" lon="-4.446045">
        <ele>29.696</ele>
        <time>2021-06-16T17:30:05Z</time>
      </trkpt>
      <trkpt lat="36.715563" lon="-4.446142">
        <ele>29.416</ele>
        <time>2021-06-16T17:30:06Z</time>
      </trkpt>
      <trkpt lat="36.715545" lon="-4.446235">
        <ele>29.362</ele>
        <time>2021-06-16T17:30:07Z</time>
      </trkpt>
      <trkpt lat="36.715508" lon="-4.446385">
        <ele>30.324</ele>
        <time>2021-06-16T17:30:09Z</time>
      </trkpt>
      <trkpt lat="36.715491" lon="-4.44645">
        <ele>31.243</ele>
        <time>2021-06-16T17:30:10Z</time>
      </trkpt>
      <trkpt lat="36.715475" lon="-4.446522">
        <ele>31.587</ele>
        <time>2021-06-16T17:30:11Z</time>
      </trkpt>
      <trkpt lat="36.715463" lon="-4.446606">
        <ele>31.525</ele>
        <time>2021-06-16T17:30:12Z</time>
      </trkpt>
      <trkpt lat="36.715445" lon="-4.446776">
        <ele>32.126</ele>
        <time>2021-06-16T17:30:14Z</time>
      </trkpt>
      <trkpt lat="36.715434" lon="-4.44685">
        <ele>32.708</ele>
        <time>2021-06-16T17:30:15Z</time>
      </trkpt>
      <trkpt lat="36.715418" lon="-4.446962">
        <ele>32.808</ele>
        <time>2021-06-16T17:30:17Z</time>
      </trkpt>
      <trkpt lat="36.71541" lon="-4.447024">
        <ele>33.489</ele>
        <time>2021-06-16T17:30:19Z</time>
      </trkpt>
      <trkpt lat="36.715404" lon="-4.447115">
        <ele>33.428</ele>
        <time>2021-06-16T17:30:21Z</time>
      </trkpt>
      <trkpt lat="36.715405" lon="-4.447232">
        <ele>33.452</ele>
        <time>2021-06-16T17:30:23Z</time>
      </trkpt>
      <trkpt lat="36.715377" lon="-4.447343">
        <ele>32.832</ele>
        <time>2021-06-16T17:30:25Z</time>
      </trkpt>
      <trkpt lat="36.715346" lon="-4.447438">
        <ele>32.558</ele>
        <time>2021-06-16T17:30:27Z</time>
      </trkpt>
      <trkpt lat="36.715343" lon="-4.447507">
        <ele>32.550</ele>
        <time>2021-06-16T17:30:29Z</time>
      </trkpt>
      <trkpt lat="36.715315" lon="-4.447565">
        <ele>32.549</ele>
        <time>2021-06-16T17:30:32Z</time>
      </trkpt>
      <trkpt lat="36.715273" lon="-4.447614">
        <ele>33.413</ele>
        <time>2021-06-16T17:30:49Z</time>
      </trkpt>
      <trkpt lat="36.715279" lon="-4.447709">
        <ele>33.957</ele>
        <time>2021-06-16T17:30:51Z</time>
      </trkpt>
      <trkpt lat="36.715287" lon="-4.447788">
        <ele>34.300</ele>
        <time>2021-06-16T17:30:53Z</time>
      </trkpt>
      <trkpt lat="36.715296" lon="-4.447878">
        <ele>34.520</ele>
        <time>2021-06-16T17:30:55Z</time>
      </trkpt>
      <trkpt lat="36.715329" lon="-4.447999">
        <ele>34.608</ele>
        <time>2021-06-16T17:30:57Z</time>
      </trkpt>
      <trkpt lat="36.715351" lon="-4.448063">
        <ele>34.762</ele>
        <time>2021-06-16T17:30:58Z</time>
      </trkpt>
      <trkpt lat="36.715374" lon="-4.448195">
        <ele>34.711</ele>
        <time>2021-06-16T17:31:00Z</time>
      </trkpt>
      <trkpt lat="36.715378" lon="-4.448256">
        <ele>34.735</ele>
        <time>2021-06-16T17:31:01Z</time>
      </trkpt>
      <trkpt lat="36.715357" lon="-4.448368">
        <ele>34.725</ele>
        <time>2021-06-16T17:31:03Z</time>
      </trkpt>
      <trkpt lat="36.715336" lon="-4.448418">
        <ele>34.741</ele>
        <time>2021-06-16T17:31:04Z</time>
      </trkpt>
      <trkpt lat="36.715287" lon="-4.448484">
        <ele>34.713</ele>
        <time>2021-06-16T17:31:06Z</time>
      </trkpt>
      <trkpt lat="36.715242" lon="-4.44853">
        <ele>34.742</ele>
        <time>2021-06-16T17:31:08Z</time>
      </trkpt>
      <trkpt lat="36.715191" lon="-4.448521">
        <ele>34.566</ele>
        <time>2021-06-16T17:32:00Z</time>
      </trkpt>
      <trkpt lat="36.715139" lon="-4.448517">
        <ele>34.484</ele>
        <time>2021-06-16T17:32:01Z</time>
      </trkpt>
      <trkpt lat="36.715008" lon="-4.448481">
        <ele>34.307</ele>
        <time>2021-06-16T17:32:03Z</time>
      </trkpt>
      <trkpt lat="36.714952" lon="-4.448441">
        <ele>34.317</ele>
        <time>2021-06-16T17:32:04Z</time>
      </trkpt>
      <trkpt lat="36.714863" lon="-4.448328">
        <ele>34.308</ele>
        <time>2021-06-16T17:32:06Z</time>
      </trkpt>
      <trkpt lat="36.714781" lon="-4.448192">
        <ele>34.335</ele>
        <time>2021-06-16T17:32:08Z</time>
      </trkpt>
      <trkpt lat="36.714719" lon="-4.448132">
        <ele>34.354</ele>
        <time>2021-06-16T17:32:09Z</time>
      </trkpt>
      <trkpt lat="36.714649" lon="-4.448077">
        <ele>34.328</ele>
        <time>2021-06-16T17:32:10Z</time>
      </trkpt>
      <trkpt lat="36.714481" lon="-4.447997">
        <ele>34.338</ele>
        <time>2021-06-16T17:32:12Z</time>
      </trkpt>
      <trkpt lat="36.714296" lon="-4.447939">
        <ele>34.394</ele>
        <time>2021-06-16T17:32:14Z</time>
      </trkpt>
      <trkpt lat="36.714202" lon="-4.447909">
        <ele>34.386</ele>
        <time>2021-06-16T17:32:15Z</time>
      </trkpt>
      <trkpt lat="36.714108" lon="-4.447874">
        <ele>34.345</ele>
        <time>2021-06-16T17:32:16Z</time>
      </trkpt>
      <trkpt lat="36.713926" lon="-4.447794">
        <ele>34.349</ele>
        <time>2021-06-16T17:32:18Z</time>
      </trkpt>
      <trkpt lat="36.713752" lon="-4.447711">
        <ele>34.347</ele>
        <time>2021-06-16T17:32:20Z</time>
      </trkpt>
      <trkpt lat="36.713585" lon="-4.447622">
        <ele>34.329</ele>
        <time>2021-06-16T17:32:22Z</time>
      </trkpt>
      <trkpt lat="36.713504" lon="-4.447573">
        <ele>34.321</ele>
        <time>2021-06-16T17:32:23Z</time>
      </trkpt>
      <trkpt lat="36.713341" lon="-4.447467">
        <ele>34.308</ele>
        <time>2021-06-16T17:32:25Z</time>
      </trkpt>
      <trkpt lat="36.713263" lon="-4.44741">
        <ele>34.371</ele>
        <time>2021-06-16T17:32:26Z</time>
      </trkpt>
      <trkpt lat="36.713193" lon="-4.447356">
        <ele>34.310</ele>
        <time>2021-06-16T17:32:27Z</time>
      </trkpt>
      <trkpt lat="36.71307" lon="-4.447267">
        <ele>34.334</ele>
        <time>2021-06-16T17:32:29Z</time>
      </trkpt>
      <trkpt lat="36.712971" lon="-4.447194">
        <ele>34.384</ele>
        <time>2021-06-16T17:32:31Z</time>
      </trkpt>
      <trkpt lat="36.71293" lon="-4.447164">
        <ele>34.380</ele>
        <time>2021-06-16T17:32:32Z</time>
      </trkpt>
      <trkpt lat="36.712877" lon="-4.447122">
        <ele>34.322</ele>
        <time>2021-06-16T17:32:34Z</time>
      </trkpt>
      <trkpt lat="36.712823" lon="-4.447091">
        <ele>34.341</ele>
        <time>2021-06-16T17:32:36Z</time>
      </trkpt>
      <trkpt lat="36.71278" lon="-4.447064">
        <ele>34.135</ele>
        <time>2021-06-16T17:32:41Z</time>
      </trkpt>
      <trkpt lat="36.71272" lon="-4.446996">
        <ele>32.631</ele>
        <time>2021-06-16T17:33:09Z</time>
      </trkpt>
      <trkpt lat="36.712631" lon="-4.446917">
        <ele>31.761</ele>
        <time>2021-06-16T17:33:11Z</time>
      </trkpt>
      <trkpt lat="36.71258" lon="-4.446868">
        <ele>31.107</ele>
        <time>2021-06-16T17:33:12Z</time>
      </trkpt>
      <trkpt lat="36.712529" lon="-4.446814">
        <ele>30.808</ele>
        <time>2021-06-16T17:33:13Z</time>
      </trkpt>
      <trkpt lat="36.712412" lon="-4.446705">
        <ele>30.650</ele>
        <time>2021-06-16T17:33:15Z</time>
      </trkpt>
      <trkpt lat="36.712344" lon="-4.446651">
        <ele>30.549</ele>
        <time>2021-06-16T17:33:16Z</time>
      </trkpt>
      <trkpt lat="36.712196" lon="-4.446539">
        <ele>30.533</ele>
        <time>2021-06-16T17:33:18Z</time>
      </trkpt>
      <trkpt lat="36.712122" lon="-4.446483">
        <ele>30.583</ele>
        <time>2021-06-16T17:33:19Z</time>
      </trkpt>
      <trkpt lat="36.712049" lon="-4.44643">
        <ele>30.529</ele>
        <time>2021-06-16T17:33:20Z</time>
      </trkpt>
      <trkpt lat="36.711898" lon="-4.446314">
        <ele>30.531</ele>
        <time>2021-06-16T17:33:22Z</time>
      </trkpt>
      <trkpt lat="36.711812" lon="-4.446257">
        <ele>30.580</ele>
        <time>2021-06-16T17:33:23Z</time>
      </trkpt>
      <trkpt lat="36.71165" lon="-4.446148">
        <ele>30.534</ele>
        <time>2021-06-16T17:33:25Z</time>
      </trkpt>
      <trkpt lat="36.711523" lon="-4.446072">
        <ele>30.557</ele>
        <time>2021-06-16T17:33:27Z</time>
      </trkpt>
      <trkpt lat="36.711422" lon="-4.44606">
        <ele>30.500</ele>
        <time>2021-06-16T17:33:29Z</time>
      </trkpt>
      <trkpt lat="36.711342" lon="-4.446133">
        <ele>30.420</ele>
        <time>2021-06-16T17:33:31Z</time>
      </trkpt>
      <trkpt lat="36.711298" lon="-4.44627">
        <ele>30.408</ele>
        <time>2021-06-16T17:33:33Z</time>
      </trkpt>
      <trkpt lat="36.711278" lon="-4.446346">
        <ele>30.492</ele>
        <time>2021-06-16T17:33:34Z</time>
      </trkpt>
      <trkpt lat="36.711247" lon="-4.446517">
        <ele>30.471</ele>
        <time>2021-06-16T17:33:36Z</time>
      </trkpt>
      <trkpt lat="36.711212" lon="-4.44669">
        <ele>30.475</ele>
        <time>2021-06-16T17:33:38Z</time>
      </trkpt>
      <trkpt lat="36.711198" lon="-4.446782">
        <ele>30.425</ele>
        <time>2021-06-16T17:33:39Z</time>
      </trkpt>
      <trkpt lat="36.711158" lon="-4.446971">
        <ele>30.421</ele>
        <time>2021-06-16T17:33:41Z</time>
      </trkpt>
      <trkpt lat="36.711111" lon="-4.447171">
        <ele>30.413</ele>
        <time>2021-06-16T17:33:43Z</time>
      </trkpt>
      <trkpt lat="36.711089" lon="-4.44728">
        <ele>30.442</ele>
        <time>2021-06-16T17:33:44Z</time>
      </trkpt>
      <trkpt lat="36.711068" lon="-4.447394">
        <ele>30.426</ele>
        <time>2021-06-16T17:33:45Z</time>
      </trkpt>
      <trkpt lat="36.71105" lon="-4.447511">
        <ele>30.494</ele>
        <time>2021-06-16T17:33:46Z</time>
      </trkpt>
      <trkpt lat="36.711009" lon="-4.447763">
        <ele>30.457</ele>
        <time>2021-06-16T17:33:48Z</time>
      </trkpt>
      <trkpt lat="36.710988" lon="-4.447897">
        <ele>30.422</ele>
        <time>2021-06-16T17:33:49Z</time>
      </trkpt>
      <trkpt lat="36.710947" lon="-4.448174">
        <ele>30.408</ele>
        <time>2021-06-16T17:33:51Z</time>
      </trkpt>
      <trkpt lat="36.710925" lon="-4.448319">
        <ele>30.476</ele>
        <time>2021-06-16T17:33:52Z</time>
      </trkpt>
      <trkpt lat="36.710878" lon="-4.44861">
        <ele>30.445</ele>
        <time>2021-06-16T17:33:54Z</time>
      </trkpt>
      <trkpt lat="36.710837" lon="-4.448887">
        <ele>30.499</ele>
        <time>2021-06-16T17:33:56Z</time>
      </trkpt>
      <trkpt lat="36.710814" lon="-4.449027">
        <ele>30.449</ele>
        <time>2021-06-16T17:33:57Z</time>
      </trkpt>
      <trkpt lat="36.710793" lon="-4.449168">
        <ele>30.425</ele>
        <time>2021-06-16T17:33:58Z</time>
      </trkpt>
      <trkpt lat="36.710747" lon="-4.44945">
        <ele>30.457</ele>
        <time>2021-06-16T17:34:00Z</time>
      </trkpt>
      <trkpt lat="36.710726" lon="-4.44959">
        <ele>30.456</ele>
        <time>2021-06-16T17:34:01Z</time>
      </trkpt>
      <trkpt lat="36.710675" lon="-4.449863">
        <ele>30.420</ele>
        <time>2021-06-16T17:34:03Z</time>
      </trkpt>
      <trkpt lat="36.710629" lon="-4.450124">
        <ele>30.474</ele>
        <time>2021-06-16T17:34:05Z</time>
      </trkpt>
      <trkpt lat="36.710585" lon="-4.45037">
        <ele>28.756</ele>
        <time>2021-06-16T17:34:07Z</time>
      </trkpt>
      <trkpt lat="36.710567" lon="-4.450491">
        <ele>28.321</ele>
        <time>2021-06-16T17:34:08Z</time>
      </trkpt>
      <trkpt lat="36.710536" lon="-4.450693">
        <ele>28.208</ele>
        <time>2021-06-16T17:34:10Z</time>
      </trkpt>
      <trkpt lat="36.710519" lon="-4.450787">
        <ele>27.944</ele>
        <time>2021-06-16T17:34:11Z</time>
      </trkpt>
      <trkpt lat="36.710487" lon="-4.450925">
        <ele>27.833</ele>
        <time>2021-06-16T17:34:13Z</time>
      </trkpt>
      <trkpt lat="36.710473" lon="-4.451">
        <ele>27.277</ele>
        <time>2021-06-16T17:34:15Z</time>
      </trkpt>
      <trkpt lat="36.71043" lon="-4.451024">
        <ele>27.967</ele>
        <time>2021-06-16T17:34:50Z</time>
      </trkpt>
      <trkpt lat="36.710419" lon="-4.451079">
        <ele>28.323</ele>
        <time>2021-06-16T17:34:55Z</time>
      </trkpt>
      <trkpt lat="36.710404" lon="-4.451174">
        <ele>28.615</ele>
        <time>2021-06-16T17:34:58Z</time>
      </trkpt>
      <trkpt lat="36.710389" lon="-4.45127">
        <ele>28.714</ele>
        <time>2021-06-16T17:35:00Z</time>
      </trkpt>
      <trkpt lat="36.710376" lon="-4.451337">
        <ele>28.868</ele>
        <time>2021-06-16T17:35:01Z</time>
      </trkpt>
      <trkpt lat="36.710363" lon="-4.451409">
        <ele>28.937</ele>
        <time>2021-06-16T17:35:02Z</time>
      </trkpt>
      <trkpt lat="36.710351" lon="-4.451478">
        <ele>28.949</ele>
        <time>2021-06-16T17:35:03Z</time>
      </trkpt>
      <trkpt lat="36.710339" lon="-4.451544">
        <ele>28.913</ele>
        <time>2021-06-16T17:35:04Z</time>
      </trkpt>
      <trkpt lat="36.71031" lon="-4.451681">
        <ele>28.908</ele>
        <time>2021-06-16T17:35:06Z</time>
      </trkpt>
      <trkpt lat="36.710294" lon="-4.451755">
        <ele>28.960</ele>
        <time>2021-06-16T17:35:07Z</time>
      </trkpt>
      <trkpt lat="36.710259" lon="-4.451915">
        <ele>28.939</ele>
        <time>2021-06-16T17:35:09Z</time>
      </trkpt>
      <trkpt lat="36.710223" lon="-4.452083">
        <ele>28.973</ele>
        <time>2021-06-16T17:35:11Z</time>
      </trkpt>
      <trkpt lat="36.710204" lon="-4.452163">
        <ele>28.953</ele>
        <time>2021-06-16T17:35:12Z</time>
      </trkpt>
      <trkpt lat="36.710183" lon="-4.452235">
        <ele>28.979</ele>
        <time>2021-06-16T17:35:13Z</time>
      </trkpt>
      <trkpt lat="36.710143" lon="-4.452369">
        <ele>28.951</ele>
        <time>2021-06-16T17:35:15Z</time>
      </trkpt>
      <trkpt lat="36.710126" lon="-4.452446">
        <ele>28.930</ele>
        <time>2021-06-16T17:35:16Z</time>
      </trkpt>
      <trkpt lat="36.710082" lon="-4.452638">
        <ele>28.944</ele>
        <time>2021-06-16T17:35:18Z</time>
      </trkpt>
      <trkpt lat="36.710038" lon="-4.452868">
        <ele>28.973</ele>
        <time>2021-06-16T17:35:20Z</time>
      </trkpt>
      <trkpt lat="36.710013" lon="-4.452998">
        <ele>28.985</ele>
        <time>2021-06-16T17:35:21Z</time>
      </trkpt>
      <trkpt lat="36.709954" lon="-4.453264">
        <ele>28.913</ele>
        <time>2021-06-16T17:35:23Z</time>
      </trkpt>
      <trkpt lat="36.709925" lon="-4.453403">
        <ele>28.908</ele>
        <time>2021-06-16T17:35:24Z</time>
      </trkpt>
      <trkpt lat="36.709898" lon="-4.453539">
        <ele>28.974</ele>
        <time>2021-06-16T17:35:25Z</time>
      </trkpt>
      <trkpt lat="36.709836" lon="-4.453813">
        <ele>28.993</ele>
        <time>2021-06-16T17:35:27Z</time>
      </trkpt>
      <trkpt lat="36.709775" lon="-4.454088">
        <ele>29.077</ele>
        <time>2021-06-16T17:35:29Z</time>
      </trkpt>
      <trkpt lat="36.709718" lon="-4.454355">
        <ele>29.097</ele>
        <time>2021-06-16T17:35:31Z</time>
      </trkpt>
      <trkpt lat="36.709691" lon="-4.454486">
        <ele>29.093</ele>
        <time>2021-06-16T17:35:32Z</time>
      </trkpt>
      <trkpt lat="36.709665" lon="-4.454617">
        <ele>29.045</ele>
        <time>2021-06-16T17:35:33Z</time>
      </trkpt>
      <trkpt lat="36.709617" lon="-4.454844">
        <ele>29.054</ele>
        <time>2021-06-16T17:35:35Z</time>
      </trkpt>
      <trkpt lat="36.709596" lon="-4.454938">
        <ele>29.018</ele>
        <time>2021-06-16T17:35:36Z</time>
      </trkpt>
      <trkpt lat="36.709576" lon="-4.455069">
        <ele>29.017</ele>
        <time>2021-06-16T17:35:38Z</time>
      </trkpt>
      <trkpt lat="36.709583" lon="-4.455127">
        <ele>29.087</ele>
        <time>2021-06-16T17:35:39Z</time>
      </trkpt>
      <trkpt lat="36.709623" lon="-4.455235">
        <ele>29.015</ele>
        <time>2021-06-16T17:35:41Z</time>
      </trkpt>
      <trkpt lat="36.709648" lon="-4.455287">
        <ele>29.008</ele>
        <time>2021-06-16T17:35:42Z</time>
      </trkpt>
      <trkpt lat="36.709674" lon="-4.455376">
        <ele>29.098</ele>
        <time>2021-06-16T17:35:44Z</time>
      </trkpt>
      <trkpt lat="36.709646" lon="-4.455493">
        <ele>29.017</ele>
        <time>2021-06-16T17:35:46Z</time>
      </trkpt>
      <trkpt lat="36.709601" lon="-4.455556">
        <ele>29.031</ele>
        <time>2021-06-16T17:35:47Z</time>
      </trkpt>
      <trkpt lat="36.709507" lon="-4.455673">
        <ele>29.021</ele>
        <time>2021-06-16T17:35:49Z</time>
      </trkpt>
      <trkpt lat="36.709468" lon="-4.455751">
        <ele>29.027</ele>
        <time>2021-06-16T17:35:50Z</time>
      </trkpt>
      <trkpt lat="36.709433" lon="-4.455849">
        <ele>29.069</ele>
        <time>2021-06-16T17:35:51Z</time>
      </trkpt>
      <trkpt lat="36.709369" lon="-4.456086">
        <ele>29.088</ele>
        <time>2021-06-16T17:35:53Z</time>
      </trkpt>
      <trkpt lat="36.70929" lon="-4.45634">
        <ele>29.082</ele>
        <time>2021-06-16T17:35:55Z</time>
      </trkpt>
      <trkpt lat="36.709194" lon="-4.456594">
        <ele>31.155</ele>
        <time>2021-06-16T17:35:57Z</time>
      </trkpt>
      <trkpt lat="36.709083" lon="-4.456837">
        <ele>32.807</ele>
        <time>2021-06-16T17:35:59Z</time>
      </trkpt>
      <trkpt lat="36.708968" lon="-4.457064">
        <ele>34.517</ele>
        <time>2021-06-16T17:36:01Z</time>
      </trkpt>
      <trkpt lat="36.708857" lon="-4.457282">
        <ele>35.708</ele>
        <time>2021-06-16T17:36:03Z</time>
      </trkpt>
      <trkpt lat="36.70875" lon="-4.457487">
        <ele>36.772</ele>
        <time>2021-06-16T17:36:05Z</time>
      </trkpt>
      <trkpt lat="36.708642" lon="-4.45771">
        <ele>36.951</ele>
        <time>2021-06-16T17:36:07Z</time>
      </trkpt>
      <trkpt lat="36.708524" lon="-4.457936">
        <ele>36.645</ele>
        <time>2021-06-16T17:36:09Z</time>
      </trkpt>
      <trkpt lat="36.708462" lon="-4.458051">
        <ele>36.635</ele>
        <time>2021-06-16T17:36:10Z</time>
      </trkpt>
      <trkpt lat="36.708404" lon="-4.458166">
        <ele>36.951</ele>
        <time>2021-06-16T17:36:11Z</time>
      </trkpt>
      <trkpt lat="36.708284" lon="-4.458404">
        <ele>37.023</ele>
        <time>2021-06-16T17:36:13Z</time>
      </trkpt>
      <trkpt lat="36.708224" lon="-4.458521">
        <ele>37.112</ele>
        <time>2021-06-16T17:36:14Z</time>
      </trkpt>
      <trkpt lat="36.708165" lon="-4.458636">
        <ele>36.986</ele>
        <time>2021-06-16T17:36:15Z</time>
      </trkpt>
      <trkpt lat="36.708062" lon="-4.458843">
        <ele>37.043</ele>
        <time>2021-06-16T17:36:17Z</time>
      </trkpt>
      <trkpt lat="36.708014" lon="-4.458934">
        <ele>37.164</ele>
        <time>2021-06-16T17:36:18Z</time>
      </trkpt>
      <trkpt lat="36.707931" lon="-4.459106">
        <ele>36.810</ele>
        <time>2021-06-16T17:36:20Z</time>
      </trkpt>
      <trkpt lat="36.707861" lon="-4.459263">
        <ele>36.908</ele>
        <time>2021-06-16T17:36:22Z</time>
      </trkpt>
      <trkpt lat="36.707835" lon="-4.45933">
        <ele>37.031</ele>
        <time>2021-06-16T17:36:23Z</time>
      </trkpt>
      <trkpt lat="36.707818" lon="-4.459389">
        <ele>36.730</ele>
        <time>2021-06-16T17:36:24Z</time>
      </trkpt>
      <trkpt lat="36.707807" lon="-4.459443">
        <ele>36.474</ele>
        <time>2021-06-16T17:36:25Z</time>
      </trkpt>
      <trkpt lat="36.707792" lon="-4.459556">
        <ele>36.364</ele>
        <time>2021-06-16T17:36:27Z</time>
      </trkpt>
      <trkpt lat="36.707765" lon="-4.459682">
        <ele>36.230</ele>
        <time>2021-06-16T17:36:29Z</time>
      </trkpt>
      <trkpt lat="36.707731" lon="-4.459811">
        <ele>35.782</ele>
        <time>2021-06-16T17:36:31Z</time>
      </trkpt>
      <trkpt lat="36.707714" lon="-4.459876">
        <ele>35.541</ele>
        <time>2021-06-16T17:36:32Z</time>
      </trkpt>
      <trkpt lat="36.707689" lon="-4.460021">
        <ele>35.515</ele>
        <time>2021-06-16T17:36:34Z</time>
      </trkpt>
      <trkpt lat="36.70768" lon="-4.460102">
        <ele>35.162</ele>
        <time>2021-06-16T17:36:35Z</time>
      </trkpt>
      <trkpt lat="36.70766" lon="-4.460258">
        <ele>34.883</ele>
        <time>2021-06-16T17:36:37Z</time>
      </trkpt>
      <trkpt lat="36.707657" lon="-4.460326">
        <ele>34.311</ele>
        <time>2021-06-16T17:36:38Z</time>
      </trkpt>
      <trkpt lat="36.707677" lon="-4.460455">
        <ele>33.608</ele>
        <time>2021-06-16T17:36:40Z</time>
      </trkpt>
      <trkpt lat="36.707704" lon="-4.460514">
        <ele>33.253</ele>
        <time>2021-06-16T17:36:41Z</time>
      </trkpt>
      <trkpt lat="36.707796" lon="-4.460614">
        <ele>32.752</ele>
        <time>2021-06-16T17:36:43Z</time>
      </trkpt>
      <trkpt lat="36.70793" lon="-4.460654">
        <ele>32.546</ele>
        <time>2021-06-16T17:36:45Z</time>
      </trkpt>
      <trkpt lat="36.707997" lon="-4.460656">
        <ele>32.286</ele>
        <time>2021-06-16T17:36:46Z</time>
      </trkpt>
      <trkpt lat="36.708088" lon="-4.460724">
        <ele>32.062</ele>
        <time>2021-06-16T17:36:48Z</time>
      </trkpt>
      <trkpt lat="36.708099" lon="-4.460786">
        <ele>31.914</ele>
        <time>2021-06-16T17:36:49Z</time>
      </trkpt>
      <trkpt lat="36.708069" lon="-4.460921">
        <ele>31.733</ele>
        <time>2021-06-16T17:36:51Z</time>
      </trkpt>
      <trkpt lat="36.708061" lon="-4.461074">
        <ele>31.457</ele>
        <time>2021-06-16T17:36:53Z</time>
      </trkpt>
      <trkpt lat="36.708109" lon="-4.46123">
        <ele>31.467</ele>
        <time>2021-06-16T17:36:55Z</time>
      </trkpt>
      <trkpt lat="36.708117" lon="-4.461307">
        <ele>31.581</ele>
        <time>2021-06-16T17:36:56Z</time>
      </trkpt>
      <trkpt lat="36.708068" lon="-4.461418">
        <ele>31.719</ele>
        <time>2021-06-16T17:36:58Z</time>
      </trkpt>
      <trkpt lat="36.708019" lon="-4.461446">
        <ele>31.908</ele>
        <time>2021-06-16T17:36:59Z</time>
      </trkpt>
      <trkpt lat="36.707899" lon="-4.461431">
        <ele>32.033</ele>
        <time>2021-06-16T17:37:01Z</time>
      </trkpt>
      <trkpt lat="36.707781" lon="-4.461367">
        <ele>31.812</ele>
        <time>2021-06-16T17:37:03Z</time>
      </trkpt>
      <trkpt lat="36.707726" lon="-4.461347">
        <ele>32.056</ele>
        <time>2021-06-16T17:37:04Z</time>
      </trkpt>
      <trkpt lat="36.707622" lon="-4.461338">
        <ele>31.916</ele>
        <time>2021-06-16T17:37:06Z</time>
      </trkpt>
      <trkpt lat="36.707574" lon="-4.461346">
        <ele>31.682</ele>
        <time>2021-06-16T17:37:07Z</time>
      </trkpt>
      <trkpt lat="36.707508" lon="-4.461369">
        <ele>32.034</ele>
        <time>2021-06-16T17:37:09Z</time>
      </trkpt>
      <trkpt lat="36.707459" lon="-4.461395">
        <ele>32.133</ele>
        <time>2021-06-16T17:37:11Z</time>
      </trkpt>
      <trkpt lat="36.707414" lon="-4.461452">
        <ele>33.437</ele>
        <time>2021-06-16T17:37:48Z</time>
      </trkpt>
      <trkpt lat="36.707385" lon="-4.461529">
        <ele>34.216</ele>
        <time>2021-06-16T17:37:50Z</time>
      </trkpt>
      <trkpt lat="36.707372" lon="-4.461585">
        <ele>34.676</ele>
        <time>2021-06-16T17:37:52Z</time>
      </trkpt>
      <trkpt lat="36.707359" lon="-4.461685">
        <ele>34.913</ele>
        <time>2021-06-16T17:38:00Z</time>
      </trkpt>
      <trkpt lat="36.707346" lon="-4.461751">
        <ele>35.108</ele>
        <time>2021-06-16T17:38:01Z</time>
      </trkpt>
      <trkpt lat="36.707321" lon="-4.461893">
        <ele>35.298</ele>
        <time>2021-06-16T17:38:03Z</time>
      </trkpt>
      <trkpt lat="36.707293" lon="-4.462043">
        <ele>35.387</ele>
        <time>2021-06-16T17:38:05Z</time>
      </trkpt>
      <trkpt lat="36.707277" lon="-4.462119">
        <ele>35.351</ele>
        <time>2021-06-16T17:38:06Z</time>
      </trkpt>
      <trkpt lat="36.707259" lon="-4.4622">
        <ele>35.391</ele>
        <time>2021-06-16T17:38:07Z</time>
      </trkpt>
      <trkpt lat="36.707219" lon="-4.462386">
        <ele>35.347</ele>
        <time>2021-06-16T17:38:09Z</time>
      </trkpt>
      <trkpt lat="36.707177" lon="-4.462606">
        <ele>35.349</ele>
        <time>2021-06-16T17:38:11Z</time>
      </trkpt>
      <trkpt lat="36.70714" lon="-4.462843">
        <ele>35.288</ele>
        <time>2021-06-16T17:38:13Z</time>
      </trkpt>
      <trkpt lat="36.707118" lon="-4.462965">
        <ele>35.242</ele>
        <time>2021-06-16T17:38:14Z</time>
      </trkpt>
      <trkpt lat="36.707076" lon="-4.463207">
        <ele>35.223</ele>
        <time>2021-06-16T17:38:16Z</time>
      </trkpt>
      <trkpt lat="36.707027" lon="-4.463456">
        <ele>35.283</ele>
        <time>2021-06-16T17:38:18Z</time>
      </trkpt>
      <trkpt lat="36.706983" lon="-4.463688">
        <ele>35.211</ele>
        <time>2021-06-16T17:38:20Z</time>
      </trkpt>
      <trkpt lat="36.706948" lon="-4.463889">
        <ele>35.208</ele>
        <time>2021-06-16T17:38:22Z</time>
      </trkpt>
      <trkpt lat="36.706931" lon="-4.463984">
        <ele>35.299</ele>
        <time>2021-06-16T17:38:23Z</time>
      </trkpt>
      <trkpt lat="36.706901" lon="-4.464149">
        <ele>35.278</ele>
        <time>2021-06-16T17:38:25Z</time>
      </trkpt>
      <trkpt lat="36.706891" lon="-4.464211">
        <ele>35.282</ele>
        <time>2021-06-16T17:38:26Z</time>
      </trkpt>
      <trkpt lat="36.70688" lon="-4.464284">
        <ele>35.232</ele>
        <time>2021-06-16T17:38:28Z</time>
      </trkpt>
      <trkpt lat="36.706863" lon="-4.464349">
        <ele>35.248</ele>
        <time>2021-06-16T17:38:31Z</time>
      </trkpt>
      <trkpt lat="36.706839" lon="-4.464436">
        <ele>35.210</ele>
        <time>2021-06-16T17:38:33Z</time>
      </trkpt>
      <trkpt lat="36.706824" lon="-4.464514">
        <ele>35.299</ele>
        <time>2021-06-16T17:38:34Z</time>
      </trkpt>
      <trkpt lat="36.706793" lon="-4.4647">
        <ele>35.293</ele>
        <time>2021-06-16T17:38:36Z</time>
      </trkpt>
      <trkpt lat="36.706765" lon="-4.464908">
        <ele>35.255</ele>
        <time>2021-06-16T17:38:38Z</time>
      </trkpt>
      <trkpt lat="36.706732" lon="-4.465152">
        <ele>35.207</ele>
        <time>2021-06-16T17:38:40Z</time>
      </trkpt>
      <trkpt lat="36.706709" lon="-4.465283">
        <ele>35.217</ele>
        <time>2021-06-16T17:38:41Z</time>
      </trkpt>
      <trkpt lat="36.706653" lon="-4.465562">
        <ele>35.208</ele>
        <time>2021-06-16T17:38:43Z</time>
      </trkpt>
      <trkpt lat="36.706599" lon="-4.46586">
        <ele>35.272</ele>
        <time>2021-06-16T17:38:45Z</time>
      </trkpt>
      <trkpt lat="36.70655" lon="-4.466162">
        <ele>35.221</ele>
        <time>2021-06-16T17:38:47Z</time>
      </trkpt>
      <trkpt lat="36.70653" lon="-4.466313">
        <ele>35.225</ele>
        <time>2021-06-16T17:38:48Z</time>
      </trkpt>
      <trkpt lat="36.706499" lon="-4.466603">
        <ele>35.285</ele>
        <time>2021-06-16T17:38:50Z</time>
      </trkpt>
      <trkpt lat="36.706483" lon="-4.4669">
        <ele>35.291</ele>
        <time>2021-06-16T17:38:52Z</time>
      </trkpt>
      <trkpt lat="36.706484" lon="-4.467202">
        <ele>35.273</ele>
        <time>2021-06-16T17:38:54Z</time>
      </trkpt>
      <trkpt lat="36.706485" lon="-4.467359">
        <ele>35.232</ele>
        <time>2021-06-16T17:38:55Z</time>
      </trkpt>
      <trkpt lat="36.706489" lon="-4.467516">
        <ele>34.176</ele>
        <time>2021-06-16T17:38:56Z</time>
      </trkpt>
      <trkpt lat="36.706499" lon="-4.467672">
        <ele>33.724</ele>
        <time>2021-06-16T17:38:57Z</time>
      </trkpt>
      <trkpt lat="36.706509" lon="-4.467832">
        <ele>33.604</ele>
        <time>2021-06-16T17:38:58Z</time>
      </trkpt>
      <trkpt lat="36.706517" lon="-4.467994">
        <ele>33.314</ele>
        <time>2021-06-16T17:38:59Z</time>
      </trkpt>
      <trkpt lat="36.706529" lon="-4.468321">
        <ele>33.708</ele>
        <time>2021-06-16T17:39:01Z</time>
      </trkpt>
      <trkpt lat="36.706549" lon="-4.46864">
        <ele>33.679</ele>
        <time>2021-06-16T17:39:03Z</time>
      </trkpt>
      <trkpt lat="36.706568" lon="-4.468954">
        <ele>33.058</ele>
        <time>2021-06-16T17:39:05Z</time>
      </trkpt>
      <trkpt lat="36.706578" lon="-4.469112">
        <ele>32.582</ele>
        <time>2021-06-16T17:39:06Z</time>
      </trkpt>
      <trkpt lat="36.706593" lon="-4.469424">
        <ele>32.312</ele>
        <time>2021-06-16T17:39:08Z</time>
      </trkpt>
      <trkpt lat="36.706605" lon="-4.469719">
        <ele>32.278</ele>
        <time>2021-06-16T17:39:10Z</time>
      </trkpt>
      <trkpt lat="36.706616" lon="-4.469857">
        <ele>32.180</ele>
        <time>2021-06-16T17:39:11Z</time>
      </trkpt>
      <trkpt lat="36.706639" lon="-4.470109">
        <ele>32.099</ele>
        <time>2021-06-16T17:39:13Z</time>
      </trkpt>
      <trkpt lat="36.706649" lon="-4.470221">
        <ele>32.023</ele>
        <time>2021-06-16T17:39:14Z</time>
      </trkpt>
      <trkpt lat="36.706657" lon="-4.470328">
        <ele>32.079</ele>
        <time>2021-06-16T17:39:15Z</time>
      </trkpt>
      <trkpt lat="36.706674" lon="-4.470521">
        <ele>32.305</ele>
        <time>2021-06-16T17:39:17Z</time>
      </trkpt>
      <trkpt lat="36.706683" lon="-4.470601">
        <ele>32.425</ele>
        <time>2021-06-16T17:39:18Z</time>
      </trkpt>
      <trkpt lat="36.706699" lon="-4.47072">
        <ele>32.808</ele>
        <time>2021-06-16T17:39:20Z</time>
      </trkpt>
      <trkpt lat="36.706705" lon="-4.470796">
        <ele>32.784</ele>
        <time>2021-06-16T17:39:22Z</time>
      </trkpt>
      <trkpt lat="36.706722" lon="-4.47089">
        <ele>34.263</ele>
        <time>2021-06-16T17:40:10Z</time>
      </trkpt>
      <trkpt lat="36.706738" lon="-4.471018">
        <ele>35.197</ele>
        <time>2021-06-16T17:40:12Z</time>
      </trkpt>
      <trkpt lat="36.706763" lon="-4.471182">
        <ele>35.637</ele>
        <time>2021-06-16T17:40:14Z</time>
      </trkpt>
      <trkpt lat="36.706776" lon="-4.471267">
        <ele>35.923</ele>
        <time>2021-06-16T17:40:15Z</time>
      </trkpt>
      <trkpt lat="36.706803" lon="-4.471444">
        <ele>36.175</ele>
        <time>2021-06-16T17:40:17Z</time>
      </trkpt>
      <trkpt lat="36.706828" lon="-4.471649">
        <ele>36.244</ele>
        <time>2021-06-16T17:40:19Z</time>
      </trkpt>
      <trkpt lat="36.70686" lon="-4.471873">
        <ele>36.368</ele>
        <time>2021-06-16T17:40:21Z</time>
      </trkpt>
      <trkpt lat="36.706882" lon="-4.471983">
        <ele>36.329</ele>
        <time>2021-06-16T17:40:22Z</time>
      </trkpt>
      <trkpt lat="36.706904" lon="-4.4721">
        <ele>36.300</ele>
        <time>2021-06-16T17:40:23Z</time>
      </trkpt>
      <trkpt lat="36.706928" lon="-4.47222">
        <ele>36.320</ele>
        <time>2021-06-16T17:40:24Z</time>
      </trkpt>
      <trkpt lat="36.706955" lon="-4.472344">
        <ele>36.308</ele>
        <time>2021-06-16T17:40:25Z</time>
      </trkpt>
      <trkpt lat="36.707013" lon="-4.472602">
        <ele>36.379</ele>
        <time>2021-06-16T17:40:27Z</time>
      </trkpt>
      <trkpt lat="36.707043" lon="-4.472737">
        <ele>36.368</ele>
        <time>2021-06-16T17:40:28Z</time>
      </trkpt>
      <trkpt lat="36.707104" lon="-4.473008">
        <ele>36.382</ele>
        <time>2021-06-16T17:40:30Z</time>
      </trkpt>
      <trkpt lat="36.707132" lon="-4.473142">
        <ele>36.312</ele>
        <time>2021-06-16T17:40:31Z</time>
      </trkpt>
      <trkpt lat="36.707181" lon="-4.473406">
        <ele>36.328</ele>
        <time>2021-06-16T17:40:33Z</time>
      </trkpt>
      <trkpt lat="36.707205" lon="-4.473543">
        <ele>36.340</ele>
        <time>2021-06-16T17:40:34Z</time>
      </trkpt>
      <trkpt lat="36.707257" lon="-4.473823">
        <ele>36.339</ele>
        <time>2021-06-16T17:40:36Z</time>
      </trkpt>
      <trkpt lat="36.707286" lon="-4.473965">
        <ele>36.383</ele>
        <time>2021-06-16T17:40:37Z</time>
      </trkpt>
      <trkpt lat="36.707341" lon="-4.474257">
        <ele>36.354</ele>
        <time>2021-06-16T17:40:39Z</time>
      </trkpt>
      <trkpt lat="36.707397" lon="-4.474554">
        <ele>36.356</ele>
        <time>2021-06-16T17:40:41Z</time>
      </trkpt>
      <trkpt lat="36.707452" lon="-4.474844">
        <ele>36.311</ele>
        <time>2021-06-16T17:40:43Z</time>
      </trkpt>
      <trkpt lat="36.70748" lon="-4.474992">
        <ele>36.308</ele>
        <time>2021-06-16T17:40:44Z</time>
      </trkpt>
      <trkpt lat="36.707511" lon="-4.475142">
        <ele>36.392</ele>
        <time>2021-06-16T17:40:45Z</time>
      </trkpt>
      <trkpt lat="36.707572" lon="-4.47543">
        <ele>36.391</ele>
        <time>2021-06-16T17:40:47Z</time>
      </trkpt>
      <trkpt lat="36.707601" lon="-4.475563">
        <ele>36.325</ele>
        <time>2021-06-16T17:40:48Z</time>
      </trkpt>
      <trkpt lat="36.707628" lon="-4.475688">
        <ele>36.335</ele>
        <time>2021-06-16T17:40:49Z</time>
      </trkpt>
      <trkpt lat="36.707681" lon="-4.475921">
        <ele>36.391</ele>
        <time>2021-06-16T17:40:51Z</time>
      </trkpt>
      <trkpt lat="36.707705" lon="-4.476031">
        <ele>36.343</ele>
        <time>2021-06-16T17:40:52Z</time>
      </trkpt>
      <trkpt lat="36.707748" lon="-4.476236">
        <ele>36.392</ele>
        <time>2021-06-16T17:40:54Z</time>
      </trkpt>
      <trkpt lat="36.70778" lon="-4.476427">
        <ele>36.366</ele>
        <time>2021-06-16T17:40:56Z</time>
      </trkpt>
      <trkpt lat="36.707802" lon="-4.476601">
        <ele>36.389</ele>
        <time>2021-06-16T17:40:58Z</time>
      </trkpt>
      <trkpt lat="36.707811" lon="-4.476679">
        <ele>36.306</ele>
        <time>2021-06-16T17:40:59Z</time>
      </trkpt>
      <trkpt lat="36.707822" lon="-4.476811">
        <ele>36.326</ele>
        <time>2021-06-16T17:41:01Z</time>
      </trkpt>
      <trkpt lat="36.707825" lon="-4.476892">
        <ele>36.308</ele>
        <time>2021-06-16T17:41:03Z</time>
      </trkpt>
      <trkpt lat="36.707811" lon="-4.476967">
        <ele>39.515</ele>
        <time>2021-06-16T17:41:46Z</time>
      </trkpt>
      <trkpt lat="36.707814" lon="-4.477037">
        <ele>41.424</ele>
        <time>2021-06-16T17:41:48Z</time>
      </trkpt>
      <trkpt lat="36.707817" lon="-4.477119">
        <ele>42.748</ele>
        <time>2021-06-16T17:41:50Z</time>
      </trkpt>
      <trkpt lat="36.70782" lon="-4.477238">
        <ele>43.558</ele>
        <time>2021-06-16T17:41:52Z</time>
      </trkpt>
      <trkpt lat="36.707821" lon="-4.477319">
        <ele>43.954</ele>
        <time>2021-06-16T17:41:53Z</time>
      </trkpt>
      <trkpt lat="36.707823" lon="-4.477516">
        <ele>44.226</ele>
        <time>2021-06-16T17:41:55Z</time>
      </trkpt>
      <trkpt lat="36.707826" lon="-4.477632">
        <ele>44.415</ele>
        <time>2021-06-16T17:41:56Z</time>
      </trkpt>
      <trkpt lat="36.707829" lon="-4.477757">
        <ele>44.519</ele>
        <time>2021-06-16T17:41:57Z</time>
      </trkpt>
      <trkpt lat="36.707837" lon="-4.47802">
        <ele>44.616</ele>
        <time>2021-06-16T17:41:59Z</time>
      </trkpt>
      <trkpt lat="36.707844" lon="-4.478148">
        <ele>44.776</ele>
        <time>2021-06-16T17:42:00Z</time>
      </trkpt>
      <trkpt lat="36.707862" lon="-4.478396">
        <ele>44.713</ele>
        <time>2021-06-16T17:42:02Z</time>
      </trkpt>
      <trkpt lat="36.707875" lon="-4.478521">
        <ele>44.708</ele>
        <time>2021-06-16T17:42:03Z</time>
      </trkpt>
      <trkpt lat="36.707917" lon="-4.47878">
        <ele>44.758</ele>
        <time>2021-06-16T17:42:05Z</time>
      </trkpt>
      <trkpt lat="36.707973" lon="-4.479051">
        <ele>44.767</ele>
        <time>2021-06-16T17:42:07Z</time>
      </trkpt>
      <trkpt lat="36.708007" lon="-4.47919">
        <ele>44.781</ele>
        <time>2021-06-16T17:42:08Z</time>
      </trkpt>
      <trkpt lat="36.708067" lon="-4.479472">
        <ele>44.751</ele>
        <time>2021-06-16T17:42:10Z</time>
      </trkpt>
      <trkpt lat="36.708095" lon="-4.479615">
        <ele>44.797</ele>
        <time>2021-06-16T17:42:11Z</time>
      </trkpt>
      <trkpt lat="36.708149" lon="-4.479895">
        <ele>44.739</ele>
        <time>2021-06-16T17:42:13Z</time>
      </trkpt>
      <trkpt lat="36.708174" lon="-4.480029">
        <ele>44.768</ele>
        <time>2021-06-16T17:42:14Z</time>
      </trkpt>
      <trkpt lat="36.708197" lon="-4.480166">
        <ele>44.772</ele>
        <time>2021-06-16T17:42:15Z</time>
      </trkpt>
      <trkpt lat="36.708248" lon="-4.480433">
        <ele>44.774</ele>
        <time>2021-06-16T17:42:17Z</time>
      </trkpt>
      <trkpt lat="36.7083" lon="-4.480699">
        <ele>44.756</ele>
        <time>2021-06-16T17:42:19Z</time>
      </trkpt>
      <trkpt lat="36.708327" lon="-4.480827">
        <ele>44.721</ele>
        <time>2021-06-16T17:42:20Z</time>
      </trkpt>
      <trkpt lat="36.708375" lon="-4.481081">
        <ele>44.708</ele>
        <time>2021-06-16T17:42:22Z</time>
      </trkpt>
      <trkpt lat="36.708395" lon="-4.481202">
        <ele>44.744</ele>
        <time>2021-06-16T17:42:23Z</time>
      </trkpt>
      <trkpt lat="36.708424" lon="-4.481409">
        <ele>44.793</ele>
        <time>2021-06-16T17:42:25Z</time>
      </trkpt>
      <trkpt lat="36.708438" lon="-4.48154">
        <ele>44.737</ele>
        <time>2021-06-16T17:42:27Z</time>
      </trkpt>
      <trkpt lat="36.708436" lon="-4.481609">
        <ele>44.717</ele>
        <time>2021-06-16T17:42:30Z</time>
      </trkpt>
      <trkpt lat="36.708428" lon="-4.481684">
        <ele>45.263</ele>
        <time>2021-06-16T17:42:38Z</time>
      </trkpt>
      <trkpt lat="36.708436" lon="-4.481749">
        <ele>45.745</ele>
        <time>2021-06-16T17:42:40Z</time>
      </trkpt>
      <trkpt lat="36.708463" lon="-4.48185">
        <ele>46.064</ele>
        <time>2021-06-16T17:42:42Z</time>
      </trkpt>
      <trkpt lat="36.708553" lon="-4.481995">
        <ele>46.268</ele>
        <time>2021-06-16T17:42:44Z</time>
      </trkpt>
      <trkpt lat="36.708587" lon="-4.48208">
        <ele>46.329</ele>
        <time>2021-06-16T17:42:45Z</time>
      </trkpt>
      <trkpt lat="36.708598" lon="-4.482175">
        <ele>46.300</ele>
        <time>2021-06-16T17:42:46Z</time>
      </trkpt>
      <trkpt lat="36.708534" lon="-4.482357">
        <ele>46.320</ele>
        <time>2021-06-16T17:42:48Z</time>
      </trkpt>
      <trkpt lat="36.708425" lon="-4.482545">
        <ele>46.308</ele>
        <time>2021-06-16T17:42:50Z</time>
      </trkpt>
      <trkpt lat="36.708381" lon="-4.482663">
        <ele>46.319</ele>
        <time>2021-06-16T17:42:51Z</time>
      </trkpt>
      <trkpt lat="36.708343" lon="-4.48294">
        <ele>46.318</ele>
        <time>2021-06-16T17:42:53Z</time>
      </trkpt>
      <trkpt lat="36.708333" lon="-4.483225">
        <ele>46.372</ele>
        <time>2021-06-16T17:42:55Z</time>
      </trkpt>
      <trkpt lat="36.708331" lon="-4.483367">
        <ele>46.352</ele>
        <time>2021-06-16T17:42:56Z</time>
      </trkpt>
      <trkpt lat="36.70832" lon="-4.483637">
        <ele>46.348</ele>
        <time>2021-06-16T17:42:58Z</time>
      </trkpt>
      <trkpt lat="36.708308" lon="-4.483869">
        <ele>46.320</ele>
        <time>2021-06-16T17:43:00Z</time>
      </trkpt>
      <trkpt lat="36.708305" lon="-4.483975">
        <ele>46.389</ele>
        <time>2021-06-16T17:43:01Z</time>
      </trkpt>
      <trkpt lat="36.708296" lon="-4.484172">
        <ele>46.373</ele>
        <time>2021-06-16T17:43:03Z</time>
      </trkpt>
      <trkpt lat="36.708282" lon="-4.484348">
        <ele>46.316</ele>
        <time>2021-06-16T17:43:05Z</time>
      </trkpt>
      <trkpt lat="36.708279" lon="-4.484419">
        <ele>46.376</ele>
        <time>2021-06-16T17:43:06Z</time>
      </trkpt>
      <trkpt lat="36.708276" lon="-4.484525">
        <ele>46.313</ele>
        <time>2021-06-16T17:43:08Z</time>
      </trkpt>
      <trkpt lat="36.708276" lon="-4.484588">
        <ele>49.408</ele>
        <time>2021-06-16T17:43:30Z</time>
      </trkpt>
      <trkpt lat="36.708271" lon="-4.484684">
        <ele>51.298</ele>
        <time>2021-06-16T17:43:32Z</time>
      </trkpt>
      <trkpt lat="36.708259" lon="-4.484838">
        <ele>52.337</ele>
        <time>2021-06-16T17:43:34Z</time>
      </trkpt>
      <trkpt lat="36.708241" lon="-4.485042">
        <ele>52.921</ele>
        <time>2021-06-16T17:43:36Z</time>
      </trkpt>
      <trkpt lat="36.708233" lon="-4.48516">
        <ele>53.341</ele>
        <time>2021-06-16T17:43:37Z</time>
      </trkpt>
      <trkpt lat="36.70822" lon="-4.48541">
        <ele>53.577</ele>
        <time>2021-06-16T17:43:39Z</time>
      </trkpt>
      <trkpt lat="36.708207" lon="-4.485669">
        <ele>53.639</ele>
        <time>2021-06-16T17:43:41Z</time>
      </trkpt>
      <trkpt lat="36.7082" lon="-4.485803">
        <ele>53.738</ele>
        <time>2021-06-16T17:43:42Z</time>
      </trkpt>
      <trkpt lat="36.708183" lon="-4.486076">
        <ele>53.832</ele>
        <time>2021-06-16T17:43:44Z</time>
      </trkpt>
      <trkpt lat="36.708173" lon="-4.486218">
        <ele>53.843</ele>
        <time>2021-06-16T17:43:45Z</time>
      </trkpt>
      <trkpt lat="36.708155" lon="-4.48651">
        <ele>53.864</ele>
        <time>2021-06-16T17:43:47Z</time>
      </trkpt>
      <trkpt lat="36.708151" lon="-4.486656">
        <ele>53.810</ele>
        <time>2021-06-16T17:43:48Z</time>
      </trkpt>
      <trkpt lat="36.708149" lon="-4.486806">
        <ele>53.808</ele>
        <time>2021-06-16T17:43:49Z</time>
      </trkpt>
      <trkpt lat="36.708148" lon="-4.486962">
        <ele>53.851</ele>
        <time>2021-06-16T17:43:50Z</time>
      </trkpt>
      <trkpt lat="36.708165" lon="-4.487282">
        <ele>53.890</ele>
        <time>2021-06-16T17:43:52Z</time>
      </trkpt>
      <trkpt lat="36.708206" lon="-4.487605">
        <ele>53.874</ele>
        <time>2021-06-16T17:43:54Z</time>
      </trkpt>
      <trkpt lat="36.708233" lon="-4.487766">
        <ele>53.834</ele>
        <time>2021-06-16T17:43:55Z</time>
      </trkpt>
      <trkpt lat="36.708264" lon="-4.487928">
        <ele>53.860</ele>
        <time>2021-06-16T17:43:56Z</time>
      </trkpt>
      <trkpt lat="36.708326" lon="-4.48826">
        <ele>53.892</ele>
        <time>2021-06-16T17:43:58Z</time>
      </trkpt>
      <trkpt lat="36.708376" lon="-4.488601">
        <ele>53.811</ele>
        <time>2021-06-16T17:44:00Z</time>
      </trkpt>
      <trkpt lat="36.708391" lon="-4.488777">
        <ele>53.875</ele>
        <time>2021-06-16T17:44:01Z</time>
      </trkpt>
      <trkpt lat="36.708406" lon="-4.489132">
        <ele>53.812</ele>
        <time>2021-06-16T17:44:03Z</time>
      </trkpt>
      <trkpt lat="36.708406" lon="-4.48931">
        <ele>53.832</ele>
        <time>2021-06-16T17:44:04Z</time>
      </trkpt>
      <trkpt lat="36.708385" lon="-4.489667">
        <ele>53.805</ele>
        <time>2021-06-16T17:44:06Z</time>
      </trkpt>
      <trkpt lat="36.708351" lon="-4.489999">
        <ele>53.808</ele>
        <time>2021-06-16T17:44:08Z</time>
      </trkpt>
      <trkpt lat="36.708333" lon="-4.490166">
        <ele>53.888</ele>
        <time>2021-06-16T17:44:09Z</time>
      </trkpt>
      <trkpt lat="36.708292" lon="-4.490507">
        <ele>53.837</ele>
        <time>2021-06-16T17:44:11Z</time>
      </trkpt>
      <trkpt lat="36.70825" lon="-4.490838">
        <ele>53.861</ele>
        <time>2021-06-16T17:44:13Z</time>
      </trkpt>
      <trkpt lat="36.708229" lon="-4.491002">
        <ele>53.851</ele>
        <time>2021-06-16T17:44:14Z</time>
      </trkpt>
      <trkpt lat="36.70819" lon="-4.491326">
        <ele>53.837</ele>
        <time>2021-06-16T17:44:16Z</time>
      </trkpt>
      <trkpt lat="36.708175" lon="-4.491474">
        <ele>53.839</ele>
        <time>2021-06-16T17:44:17Z</time>
      </trkpt>
      <trkpt lat="36.708144" lon="-4.491758">
        <ele>53.838</ele>
        <time>2021-06-16T17:44:19Z</time>
      </trkpt>
      <trkpt lat="36.708115" lon="-4.492007">
        <ele>53.862</ele>
        <time>2021-06-16T17:44:21Z</time>
      </trkpt>
      <trkpt lat="36.708104" lon="-4.492123">
        <ele>53.882</ele>
        <time>2021-06-16T17:44:22Z</time>
      </trkpt>
      <trkpt lat="36.708089" lon="-4.492312">
        <ele>53.843</ele>
        <time>2021-06-16T17:44:24Z</time>
      </trkpt>
      <trkpt lat="36.708084" lon="-4.492382">
        <ele>53.817</ele>
        <time>2021-06-16T17:44:25Z</time>
      </trkpt>
      <trkpt lat="36.708088" lon="-4.492446">
        <ele>53.808</ele>
        <time>2021-06-16T17:44:26Z</time>
      </trkpt>
      <trkpt lat="36.708099" lon="-4.492509">
        <ele>53.885</ele>
        <time>2021-06-16T17:44:27Z</time>
      </trkpt>
      <trkpt lat="36.70814" lon="-4.492642">
        <ele>53.874</ele>
        <time>2021-06-16T17:44:29Z</time>
      </trkpt>
      <trkpt lat="36.708188" lon="-4.492773">
        <ele>53.898</ele>
        <time>2021-06-16T17:44:31Z</time>
      </trkpt>
      <trkpt lat="36.708215" lon="-4.492834">
        <ele>49.828</ele>
        <time>2021-06-16T17:44:32Z</time>
      </trkpt>
      <trkpt lat="36.708247" lon="-4.492997">
        <ele>45.814</ele>
        <time>2021-06-16T17:44:34Z</time>
      </trkpt>
      <trkpt lat="36.708235" lon="-4.493222">
        <ele>41.826</ele>
        <time>2021-06-16T17:44:36Z</time>
      </trkpt>
      <trkpt lat="36.708223" lon="-4.493341">
        <ele>37.815</ele>
        <time>2021-06-16T17:44:37Z</time>
      </trkpt>
      <trkpt lat="36.708185" lon="-4.49357">
        <ele>35.159</ele>
        <time>2021-06-16T17:44:39Z</time>
      </trkpt>
      <trkpt lat="36.70815" lon="-4.493677">
        <ele>33.233</ele>
        <time>2021-06-16T17:44:40Z</time>
      </trkpt>
      <trkpt lat="36.708035" lon="-4.493853">
        <ele>32.223</ele>
        <time>2021-06-16T17:44:42Z</time>
      </trkpt>
      <trkpt lat="36.707969" lon="-4.493937">
        <ele>31.215</ele>
        <time>2021-06-16T17:44:43Z</time>
      </trkpt>
      <trkpt lat="36.707858" lon="-4.494155">
        <ele>30.508</ele>
        <time>2021-06-16T17:44:45Z</time>
      </trkpt>
      <trkpt lat="36.707814" lon="-4.494286">
        <ele>30.120</ele>
        <time>2021-06-16T17:44:46Z</time>
      </trkpt>
      <trkpt lat="36.707753" lon="-4.494573">
        <ele>29.789</ele>
        <time>2021-06-16T17:44:48Z</time>
      </trkpt>
      <trkpt lat="36.707716" lon="-4.494865">
        <ele>29.283</ele>
        <time>2021-06-16T17:44:50Z</time>
      </trkpt>
      <trkpt lat="36.707699" lon="-4.495011">
        <ele>29.073</ele>
        <time>2021-06-16T17:44:51Z</time>
      </trkpt>
      <trkpt lat="36.707679" lon="-4.495161">
        <ele>29.049</ele>
        <time>2021-06-16T17:44:52Z</time>
      </trkpt>
      <trkpt lat="36.707642" lon="-4.495473">
        <ele>28.661</ele>
        <time>2021-06-16T17:44:54Z</time>
      </trkpt>
      <trkpt lat="36.70761" lon="-4.495786">
        <ele>28.260</ele>
        <time>2021-06-16T17:44:56Z</time>
      </trkpt>
      <trkpt lat="36.707594" lon="-4.495943">
        <ele>28.084</ele>
        <time>2021-06-16T17:44:57Z</time>
      </trkpt>
      <trkpt lat="36.707566" lon="-4.496238">
        <ele>27.929</ele>
        <time>2021-06-16T17:44:59Z</time>
      </trkpt>
      <trkpt lat="36.707539" lon="-4.496523">
        <ele>27.800</ele>
        <time>2021-06-16T17:45:01Z</time>
      </trkpt>
      <trkpt lat="36.707526" lon="-4.496664">
        <ele>27.720</ele>
        <time>2021-06-16T17:45:02Z</time>
      </trkpt>
      <trkpt lat="36.707499" lon="-4.49695">
        <ele>27.608</ele>
        <time>2021-06-16T17:45:04Z</time>
      </trkpt>
      <trkpt lat="36.707469" lon="-4.497244">
        <ele>27.749</ele>
        <time>2021-06-16T17:45:06Z</time>
      </trkpt>
      <trkpt lat="36.707439" lon="-4.497549">
        <ele>27.718</ele>
        <time>2021-06-16T17:45:08Z</time>
      </trkpt>
      <trkpt lat="36.707408" lon="-4.497857">
        <ele>27.792</ele>
        <time>2021-06-16T17:45:10Z</time>
      </trkpt>
      <trkpt lat="36.707377" lon="-4.498169">
        <ele>27.992</ele>
        <time>2021-06-16T17:45:12Z</time>
      </trkpt>
      <trkpt lat="36.707361" lon="-4.498324">
        <ele>28.328</ele>
        <time>2021-06-16T17:45:13Z</time>
      </trkpt>
      <trkpt lat="36.707347" lon="-4.498475">
        <ele>28.760</ele>
        <time>2021-06-16T17:45:14Z</time>
      </trkpt>
      <trkpt lat="36.707322" lon="-4.498771">
        <ele>28.779</ele>
        <time>2021-06-16T17:45:16Z</time>
      </trkpt>
      <trkpt lat="36.707309" lon="-4.498918">
        <ele>28.753</ele>
        <time>2021-06-16T17:45:17Z</time>
      </trkpt>
      <trkpt lat="36.707294" lon="-4.499065">
        <ele>28.671</ele>
        <time>2021-06-16T17:45:18Z</time>
      </trkpt>
      <trkpt lat="36.707264" lon="-4.499356">
        <ele>28.341</ele>
        <time>2021-06-16T17:45:20Z</time>
      </trkpt>
      <trkpt lat="36.707252" lon="-4.499504">
        <ele>28.415</ele>
        <time>2021-06-16T17:45:21Z</time>
      </trkpt>
      <trkpt lat="36.707221" lon="-4.499803">
        <ele>28.408</ele>
        <time>2021-06-16T17:45:23Z</time>
      </trkpt>
      <trkpt lat="36.707204" lon="-4.499955">
        <ele>28.144</ele>
        <time>2021-06-16T17:45:24Z</time>
      </trkpt>
      <trkpt lat="36.70718" lon="-4.500261">
        <ele>28.193</ele>
        <time>2021-06-16T17:45:26Z</time>
      </trkpt>
      <trkpt lat="36.707165" lon="-4.500415">
        <ele>28.157</ele>
        <time>2021-06-16T17:45:27Z</time>
      </trkpt>
      <trkpt lat="36.707137" lon="-4.500722">
        <ele>28.387</ele>
        <time>2021-06-16T17:45:29Z</time>
      </trkpt>
      <trkpt lat="36.707106" lon="-4.501032">
        <ele>28.143</ele>
        <time>2021-06-16T17:45:31Z</time>
      </trkpt>
      <trkpt lat="36.707076" lon="-4.501343">
        <ele>27.995</ele>
        <time>2021-06-16T17:45:33Z</time>
      </trkpt>
      <trkpt lat="36.707062" lon="-4.5015">
        <ele>27.794</ele>
        <time>2021-06-16T17:45:34Z</time>
      </trkpt>
      <trkpt lat="36.707033" lon="-4.501806">
        <ele>28.078</ele>
        <time>2021-06-16T17:45:36Z</time>
      </trkpt>
      <trkpt lat="36.707017" lon="-4.501958">
        <ele>28.036</ele>
        <time>2021-06-16T17:45:37Z</time>
      </trkpt>
      <trkpt lat="36.707003" lon="-4.502111">
        <ele>28.317</ele>
        <time>2021-06-16T17:45:38Z</time>
      </trkpt>
      <trkpt lat="36.706976" lon="-4.502408">
        <ele>28.018</ele>
        <time>2021-06-16T17:45:40Z</time>
      </trkpt>
      <trkpt lat="36.706944" lon="-4.502699">
        <ele>27.808</ele>
        <time>2021-06-16T17:45:42Z</time>
      </trkpt>
      <trkpt lat="36.70691" lon="-4.502989">
        <ele>27.810</ele>
        <time>2021-06-16T17:45:44Z</time>
      </trkpt>
      <trkpt lat="36.706887" lon="-4.50313">
        <ele>28.139</ele>
        <time>2021-06-16T17:45:45Z</time>
      </trkpt>
      <trkpt lat="36.706826" lon="-4.503404">
        <ele>28.073</ele>
        <time>2021-06-16T17:45:47Z</time>
      </trkpt>
      <trkpt lat="36.706743" lon="-4.503675">
        <ele>28.023</ele>
        <time>2021-06-16T17:45:49Z</time>
      </trkpt>
      <trkpt lat="36.706653" lon="-4.50394">
        <ele>27.689</ele>
        <time>2021-06-16T17:45:51Z</time>
      </trkpt>
      <trkpt lat="36.706609" lon="-4.504075">
        <ele>27.721</ele>
        <time>2021-06-16T17:45:52Z</time>
      </trkpt>
      <trkpt lat="36.706565" lon="-4.504211">
        <ele>27.740</ele>
        <time>2021-06-16T17:45:53Z</time>
      </trkpt>
      <trkpt lat="36.706476" lon="-4.504484">
        <ele>27.674</ele>
        <time>2021-06-16T17:45:55Z</time>
      </trkpt>
      <trkpt lat="36.70643" lon="-4.504623">
        <ele>28.088</ele>
        <time>2021-06-16T17:45:56Z</time>
      </trkpt>
      <trkpt lat="36.706342" lon="-4.504897">
        <ele>27.924</ele>
        <time>2021-06-16T17:45:58Z</time>
      </trkpt>
      <trkpt lat="36.706258" lon="-4.505175">
        <ele>28.126</ele>
        <time>2021-06-16T17:46:00Z</time>
      </trkpt>
      <trkpt lat="36.706225" lon="-4.505315">
        <ele>28.108</ele>
        <time>2021-06-16T17:46:01Z</time>
      </trkpt>
      <trkpt lat="36.706173" lon="-4.505605">
        <ele>27.985</ele>
        <time>2021-06-16T17:46:03Z</time>
      </trkpt>
      <trkpt lat="36.706159" lon="-4.505751">
        <ele>28.084</ele>
        <time>2021-06-16T17:46:04Z</time>
      </trkpt>
      <trkpt lat="36.706142" lon="-4.506043">
        <ele>28.248</ele>
        <time>2021-06-16T17:46:06Z</time>
      </trkpt>
      <trkpt lat="36.70614" lon="-4.506344">
        <ele>28.228</ele>
        <time>2021-06-16T17:46:08Z</time>
      </trkpt>
      <trkpt lat="36.706149" lon="-4.506495">
        <ele>28.294</ele>
        <time>2021-06-16T17:46:09Z</time>
      </trkpt>
      <trkpt lat="36.706161" lon="-4.506647">
        <ele>29.066</ele>
        <time>2021-06-16T17:46:10Z</time>
      </trkpt>
      <trkpt lat="36.706189" lon="-4.506951">
        <ele>28.775</ele>
        <time>2021-06-16T17:46:12Z</time>
      </trkpt>
      <trkpt lat="36.706212" lon="-4.507268">
        <ele>28.639</ele>
        <time>2021-06-16T17:46:14Z</time>
      </trkpt>
      <trkpt lat="36.706247" lon="-4.507584">
        <ele>28.078</ele>
        <time>2021-06-16T17:46:16Z</time>
      </trkpt>
      <trkpt lat="36.706286" lon="-4.507899">
        <ele>27.933</ele>
        <time>2021-06-16T17:46:18Z</time>
      </trkpt>
      <trkpt lat="36.706321" lon="-4.508217">
        <ele>27.426</ele>
        <time>2021-06-16T17:46:20Z</time>
      </trkpt>
      <trkpt lat="36.70634" lon="-4.50838">
        <ele>27.008</ele>
        <time>2021-06-16T17:46:21Z</time>
      </trkpt>
      <trkpt lat="36.706378" lon="-4.508708">
        <ele>26.464</ele>
        <time>2021-06-16T17:46:23Z</time>
      </trkpt>
      <trkpt lat="36.706396" lon="-4.508869">
        <ele>26.033</ele>
        <time>2021-06-16T17:46:24Z</time>
      </trkpt>
      <trkpt lat="36.70643" lon="-4.509189">
        <ele>25.847</ele>
        <time>2021-06-16T17:46:26Z</time>
      </trkpt>
      <trkpt lat="36.706459" lon="-4.509501">
        <ele>25.597</ele>
        <time>2021-06-16T17:46:28Z</time>
      </trkpt>
      <trkpt lat="36.706483" lon="-4.509802">
        <ele>25.143</ele>
        <time>2021-06-16T17:46:30Z</time>
      </trkpt>
      <trkpt lat="36.706496" lon="-4.510104">
        <ele>25.335</ele>
        <time>2021-06-16T17:46:32Z</time>
      </trkpt>
      <trkpt lat="36.7065" lon="-4.510256">
        <ele>25.584</ele>
        <time>2021-06-16T17:46:33Z</time>
      </trkpt>
      <trkpt lat="36.706493" lon="-4.510557">
        <ele>25.478</ele>
        <time>2021-06-16T17:46:35Z</time>
      </trkpt>
      <trkpt lat="36.706486" lon="-4.510705">
        <ele>25.356</ele>
        <time>2021-06-16T17:46:36Z</time>
      </trkpt>
      <trkpt lat="36.706467" lon="-4.510989">
        <ele>25.159</ele>
        <time>2021-06-16T17:46:38Z</time>
      </trkpt>
      <trkpt lat="36.706454" lon="-4.511258">
        <ele>25.214</ele>
        <time>2021-06-16T17:46:40Z</time>
      </trkpt>
      <trkpt lat="36.706453" lon="-4.511378">
        <ele>25.308</ele>
        <time>2021-06-16T17:46:41Z</time>
      </trkpt>
      <trkpt lat="36.706496" lon="-4.511556">
        <ele>25.792</ele>
        <time>2021-06-16T17:46:43Z</time>
      </trkpt>
      <trkpt lat="36.706547" lon="-4.511623">
        <ele>26.081</ele>
        <time>2021-06-16T17:46:44Z</time>
      </trkpt>
      <trkpt lat="36.706606" lon="-4.511688">
        <ele>26.225</ele>
        <time>2021-06-16T17:46:45Z</time>
      </trkpt>
      <trkpt lat="36.706718" lon="-4.511854">
        <ele>26.415</ele>
        <time>2021-06-16T17:46:47Z</time>
      </trkpt>
      <trkpt lat="36.706756" lon="-4.51196">
        <ele>26.631</ele>
        <time>2021-06-16T17:46:48Z</time>
      </trkpt>
      <trkpt lat="36.706772" lon="-4.512072">
        <ele>26.593</ele>
        <time>2021-06-16T17:46:49Z</time>
      </trkpt>
      <trkpt lat="36.70674" lon="-4.512296">
        <ele>26.362</ele>
        <time>2021-06-16T17:46:51Z</time>
      </trkpt>
      <trkpt lat="36.70669" lon="-4.512394">
        <ele>26.086</ele>
        <time>2021-06-16T17:46:52Z</time>
      </trkpt>
      <trkpt lat="36.706548" lon="-4.51254">
        <ele>26.161</ele>
        <time>2021-06-16T17:46:54Z</time>
      </trkpt>
      <trkpt lat="36.70641" lon="-4.512699">
        <ele>26.021</ele>
        <time>2021-06-16T17:46:56Z</time>
      </trkpt>
      <trkpt lat="36.706348" lon="-4.512928">
        <ele>25.613</ele>
        <time>2021-06-16T17:46:58Z</time>
      </trkpt>
      <trkpt lat="36.706342" lon="-4.513055">
        <ele>25.408</ele>
        <time>2021-06-16T17:46:59Z</time>
      </trkpt>
      <trkpt lat="36.706339" lon="-4.513184">
        <ele>25.363</ele>
        <time>2021-06-16T17:47:00Z</time>
      </trkpt>
      <trkpt lat="36.70633" lon="-4.513442">
        <ele>25.772</ele>
        <time>2021-06-16T17:47:02Z</time>
      </trkpt>
      <trkpt lat="36.706318" lon="-4.513711">
        <ele>25.916</ele>
        <time>2021-06-16T17:47:04Z</time>
      </trkpt>
      <trkpt lat="36.706294" lon="-4.513989">
        <ele>25.926</ele>
        <time>2021-06-16T17:47:06Z</time>
      </trkpt>
      <trkpt lat="36.706259" lon="-4.514287">
        <ele>26.012</ele>
        <time>2021-06-16T17:47:08Z</time>
      </trkpt>
      <trkpt lat="36.706236" lon="-4.514445">
        <ele>26.324</ele>
        <time>2021-06-16T17:47:09Z</time>
      </trkpt>
      <trkpt lat="36.706193" lon="-4.514765">
        <ele>26.523</ele>
        <time>2021-06-16T17:47:11Z</time>
      </trkpt>
      <trkpt lat="36.706168" lon="-4.514926">
        <ele>26.837</ele>
        <time>2021-06-16T17:47:12Z</time>
      </trkpt>
      <trkpt lat="36.706136" lon="-4.51509">
        <ele>26.694</ele>
        <time>2021-06-16T17:47:13Z</time>
      </trkpt>
      <trkpt lat="36.706074" lon="-4.515403">
        <ele>26.457</ele>
        <time>2021-06-16T17:47:15Z</time>
      </trkpt>
      <trkpt lat="36.706042" lon="-4.515557">
        <ele>26.122</ele>
        <time>2021-06-16T17:47:16Z</time>
      </trkpt>
      <trkpt lat="36.705984" lon="-4.515862">
        <ele>26.608</ele>
        <time>2021-06-16T17:47:18Z</time>
      </trkpt>
      <trkpt lat="36.70593" lon="-4.516167">
        <ele>26.266</ele>
        <time>2021-06-16T17:47:20Z</time>
      </trkpt>
      <trkpt lat="36.705904" lon="-4.51632">
        <ele>26.025</ele>
        <time>2021-06-16T17:47:21Z</time>
      </trkpt>
      <trkpt lat="36.705882" lon="-4.516471">
        <ele>25.899</ele>
        <time>2021-06-16T17:47:22Z</time>
      </trkpt>
      <trkpt lat="36.705853" lon="-4.516781">
        <ele>26.089</ele>
        <time>2021-06-16T17:47:24Z</time>
      </trkpt>
      <trkpt lat="36.70584" lon="-4.517099">
        <ele>26.165</ele>
        <time>2021-06-16T17:47:26Z</time>
      </trkpt>
      <trkpt lat="36.705843" lon="-4.517423">
        <ele>26.397</ele>
        <time>2021-06-16T17:47:28Z</time>
      </trkpt>
      <trkpt lat="36.705852" lon="-4.517583">
        <ele>26.996</ele>
        <time>2021-06-16T17:47:29Z</time>
      </trkpt>
      <trkpt lat="36.705891" lon="-4.517875">
        <ele>27.890</ele>
        <time>2021-06-16T17:47:31Z</time>
      </trkpt>
      <trkpt lat="36.705917" lon="-4.518012">
        <ele>28.446</ele>
        <time>2021-06-16T17:47:32Z</time>
      </trkpt>
      <trkpt lat="36.706004" lon="-4.518239">
        <ele>29.188</ele>
        <time>2021-06-16T17:47:34Z</time>
      </trkpt>
      <trkpt lat="36.706136" lon="-4.518374">
        <ele>29.116</ele>
        <time>2021-06-16T17:47:36Z</time>
      </trkpt>
      <trkpt lat="36.706211" lon="-4.518426">
        <ele>28.808</ele>
        <time>2021-06-16T17:47:37Z</time>
      </trkpt>
      <trkpt lat="36.70629" lon="-4.518476">
        <ele>28.521</ele>
        <time>2021-06-16T17:47:38Z</time>
      </trkpt>
      <trkpt lat="36.70636" lon="-4.518545">
        <ele>28.470</ele>
        <time>2021-06-16T17:47:39Z</time>
      </trkpt>
      <trkpt lat="36.706446" lon="-4.518741">
        <ele>28.424</ele>
        <time>2021-06-16T17:47:41Z</time>
      </trkpt>
      <trkpt lat="36.706446" lon="-4.518956">
        <ele>28.134</ele>
        <time>2021-06-16T17:47:43Z</time>
      </trkpt>
      <trkpt lat="36.706417" lon="-4.51906">
        <ele>27.830</ele>
        <time>2021-06-16T17:47:44Z</time>
      </trkpt>
      <trkpt lat="36.70638" lon="-4.519267">
        <ele>27.452</ele>
        <time>2021-06-16T17:47:46Z</time>
      </trkpt>
      <trkpt lat="36.706397" lon="-4.519374">
        <ele>26.671</ele>
        <time>2021-06-16T17:47:47Z</time>
      </trkpt>
      <trkpt lat="36.706504" lon="-4.519571">
        <ele>25.725</ele>
        <time>2021-06-16T17:47:49Z</time>
      </trkpt>
      <trkpt lat="36.706657" lon="-4.519759">
        <ele>25.263</ele>
        <time>2021-06-16T17:47:51Z</time>
      </trkpt>
      <trkpt lat="36.706742" lon="-4.519863">
        <ele>24.544</ele>
        <time>2021-06-16T17:47:52Z</time>
      </trkpt>
      <trkpt lat="36.706907" lon="-4.520087">
        <ele>24.118</ele>
        <time>2021-06-16T17:47:54Z</time>
      </trkpt>
      <trkpt lat="36.707077" lon="-4.520314">
        <ele>24.208</ele>
        <time>2021-06-16T17:47:56Z</time>
      </trkpt>
      <trkpt lat="36.707241" lon="-4.520526">
        <ele>24.283</ele>
        <time>2021-06-16T17:47:58Z</time>
      </trkpt>
      <trkpt lat="36.70732" lon="-4.520633">
        <ele>24.572</ele>
        <time>2021-06-16T17:47:59Z</time>
      </trkpt>
      <trkpt lat="36.707475" lon="-4.520846">
        <ele>24.776</ele>
        <time>2021-06-16T17:48:01Z</time>
      </trkpt>
      <trkpt lat="36.707554" lon="-4.520951">
        <ele>24.846</ele>
        <time>2021-06-16T17:48:02Z</time>
      </trkpt>
      <trkpt lat="36.707633" lon="-4.521055">
        <ele>25.082</ele>
        <time>2021-06-16T17:48:03Z</time>
      </trkpt>
      <trkpt lat="36.707793" lon="-4.52127">
        <ele>25.164</ele>
        <time>2021-06-16T17:48:05Z</time>
      </trkpt>
      <trkpt lat="36.707872" lon="-4.52138">
        <ele>25.293</ele>
        <time>2021-06-16T17:48:06Z</time>
      </trkpt>
      <trkpt lat="36.707952" lon="-4.52149">
        <ele>25.217</ele>
        <time>2021-06-16T17:48:07Z</time>
      </trkpt>
      <trkpt lat="36.708117" lon="-4.521707">
        <ele>25.692</ele>
        <time>2021-06-16T17:48:09Z</time>
      </trkpt>
      <trkpt lat="36.708201" lon="-4.521816">
        <ele>25.973</ele>
        <time>2021-06-16T17:48:10Z</time>
      </trkpt>
      <trkpt lat="36.708285" lon="-4.521926">
        <ele>26.020</ele>
        <time>2021-06-16T17:48:11Z</time>
      </trkpt>
      <trkpt lat="36.70845" lon="-4.52215">
        <ele>26.408</ele>
        <time>2021-06-16T17:48:13Z</time>
      </trkpt>
      <trkpt lat="36.708616" lon="-4.522378">
        <ele>27.016</ele>
        <time>2021-06-16T17:48:15Z</time>
      </trkpt>
      <trkpt lat="36.708782" lon="-4.522611">
        <ele>27.225</ele>
        <time>2021-06-16T17:48:17Z</time>
      </trkpt>
      <trkpt lat="36.708946" lon="-4.522843">
        <ele>27.759</ele>
        <time>2021-06-16T17:48:19Z</time>
      </trkpt>
      <trkpt lat="36.709102" lon="-4.523082">
        <ele>28.319</ele>
        <time>2021-06-16T17:48:21Z</time>
      </trkpt>
      <trkpt lat="36.709177" lon="-4.523203">
        <ele>29.035</ele>
        <time>2021-06-16T17:48:22Z</time>
      </trkpt>
      <trkpt lat="36.70932" lon="-4.523448">
        <ele>29.227</ele>
        <time>2021-06-16T17:48:24Z</time>
      </trkpt>
      <trkpt lat="36.70939" lon="-4.52357">
        <ele>29.496</ele>
        <time>2021-06-16T17:48:25Z</time>
      </trkpt>
      <trkpt lat="36.709535" lon="-4.52382">
        <ele>29.220</ele>
        <time>2021-06-16T17:48:27Z</time>
      </trkpt>
      <trkpt lat="36.709696" lon="-4.524068">
        <ele>29.675</ele>
        <time>2021-06-16T17:48:29Z</time>
      </trkpt>
      <trkpt lat="36.709865" lon="-4.524309">
        <ele>29.628</ele>
        <time>2021-06-16T17:48:31Z</time>
      </trkpt>
      <trkpt lat="36.70995" lon="-4.524426">
        <ele>29.420</ele>
        <time>2021-06-16T17:48:32Z</time>
      </trkpt>
      <trkpt lat="36.710035" lon="-4.524541">
        <ele>29.608</ele>
        <time>2021-06-16T17:48:33Z</time>
      </trkpt>
      <trkpt lat="36.710207" lon="-4.524768">
        <ele>29.224</ele>
        <time>2021-06-16T17:48:35Z</time>
      </trkpt>
      <trkpt lat="36.710377" lon="-4.524997">
        <ele>29.383</ele>
        <time>2021-06-16T17:48:37Z</time>
      </trkpt>
      <trkpt lat="36.710462" lon="-4.525115">
        <ele>29.377</ele>
        <time>2021-06-16T17:48:38Z</time>
      </trkpt>
      <trkpt lat="36.710637" lon="-4.52534">
        <ele>29.347</ele>
        <time>2021-06-16T17:48:40Z</time>
      </trkpt>
      <trkpt lat="36.710816" lon="-4.525564">
        <ele>29.793</ele>
        <time>2021-06-16T17:48:42Z</time>
      </trkpt>
      <trkpt lat="36.710992" lon="-4.525797">
        <ele>30.035</ele>
        <time>2021-06-16T17:48:44Z</time>
      </trkpt>
      <trkpt lat="36.711078" lon="-4.525915">
        <ele>30.044</ele>
        <time>2021-06-16T17:48:45Z</time>
      </trkpt>
      <trkpt lat="36.711163" lon="-4.526033">
        <ele>30.368</ele>
        <time>2021-06-16T17:48:46Z</time>
      </trkpt>
      <trkpt lat="36.711332" lon="-4.526261">
        <ele>30.122</ele>
        <time>2021-06-16T17:48:48Z</time>
      </trkpt>
      <trkpt lat="36.711415" lon="-4.52637">
        <ele>29.962</ele>
        <time>2021-06-16T17:48:49Z</time>
      </trkpt>
      <trkpt lat="36.71159" lon="-4.526603">
        <ele>29.408</ele>
        <time>2021-06-16T17:48:51Z</time>
      </trkpt>
      <trkpt lat="36.711761" lon="-4.526839">
        <ele>29.508</ele>
        <time>2021-06-16T17:48:53Z</time>
      </trkpt>
      <trkpt lat="36.711848" lon="-4.526952">
        <ele>30.089</ele>
        <time>2021-06-16T17:48:54Z</time>
      </trkpt>
      <trkpt lat="36.712011" lon="-4.527173">
        <ele>29.948</ele>
        <time>2021-06-16T17:48:56Z</time>
      </trkpt>
      <trkpt lat="36.712092" lon="-4.527285">
        <ele>30.272</ele>
        <time>2021-06-16T17:48:57Z</time>
      </trkpt>
      <trkpt lat="36.712255" lon="-4.527509">
        <ele>30.362</ele>
        <time>2021-06-16T17:48:59Z</time>
      </trkpt>
      <trkpt lat="36.712428" lon="-4.527733">
        <ele>30.718</ele>
        <time>2021-06-16T17:49:01Z</time>
      </trkpt>
      <trkpt lat="36.712513" lon="-4.527841">
        <ele>31.160</ele>
        <time>2021-06-16T17:49:02Z</time>
      </trkpt>
      <trkpt lat="36.712598" lon="-4.527951">
        <ele>31.239</ele>
        <time>2021-06-16T17:49:03Z</time>
      </trkpt>
      <trkpt lat="36.712764" lon="-4.528177">
        <ele>31.693</ele>
        <time>2021-06-16T17:49:05Z</time>
      </trkpt>
      <trkpt lat="36.712929" lon="-4.528395">
        <ele>32.161</ele>
        <time>2021-06-16T17:49:07Z</time>
      </trkpt>
      <trkpt lat="36.713013" lon="-4.528501">
        <ele>32.421</ele>
        <time>2021-06-16T17:49:08Z</time>
      </trkpt>
      <trkpt lat="36.713189" lon="-4.528708">
        <ele>32.613</ele>
        <time>2021-06-16T17:49:10Z</time>
      </trkpt>
      <trkpt lat="36.713282" lon="-4.528804">
        <ele>32.508</ele>
        <time>2021-06-16T17:49:11Z</time>
      </trkpt>
      <trkpt lat="36.713376" lon="-4.5289">
        <ele>32.733</ele>
        <time>2021-06-16T17:49:12Z</time>
      </trkpt>
      <trkpt lat="36.71357" lon="-4.529079">
        <ele>32.962</ele>
        <time>2021-06-16T17:49:14Z</time>
      </trkpt>
      <trkpt lat="36.713781" lon="-4.529225">
        <ele>33.016</ele>
        <time>2021-06-16T17:49:16Z</time>
      </trkpt>
      <trkpt lat="36.714004" lon="-4.529358">
        <ele>33.496</ele>
        <time>2021-06-16T17:49:18Z</time>
      </trkpt>
      <trkpt lat="36.714231" lon="-4.52946">
        <ele>34.112</ele>
        <time>2021-06-16T17:49:20Z</time>
      </trkpt>
      <trkpt lat="36.714346" lon="-4.529502">
        <ele>34.494</ele>
        <time>2021-06-16T17:49:21Z</time>
      </trkpt>
      <trkpt lat="36.714578" lon="-4.529575">
        <ele>35.063</ele>
        <time>2021-06-16T17:49:23Z</time>
      </trkpt>
      <trkpt lat="36.714694" lon="-4.529607">
        <ele>35.557</ele>
        <time>2021-06-16T17:49:24Z</time>
      </trkpt>
      <trkpt lat="36.714926" lon="-4.529675">
        <ele>35.754</ele>
        <time>2021-06-16T17:49:26Z</time>
      </trkpt>
      <trkpt lat="36.715159" lon="-4.52974">
        <ele>36.456</ele>
        <time>2021-06-16T17:49:28Z</time>
      </trkpt>
      <trkpt lat="36.715277" lon="-4.529773">
        <ele>36.611</ele>
        <time>2021-06-16T17:49:29Z</time>
      </trkpt>
      <trkpt lat="36.715512" lon="-4.529845">
        <ele>36.708</ele>
        <time>2021-06-16T17:49:31Z</time>
      </trkpt>
      <trkpt lat="36.715627" lon="-4.529891">
        <ele>37.072</ele>
        <time>2021-06-16T17:49:32Z</time>
      </trkpt>
      <trkpt lat="36.715848" lon="-4.530006">
        <ele>37.451</ele>
        <time>2021-06-16T17:49:34Z</time>
      </trkpt>
      <trkpt lat="36.715955" lon="-4.530076">
        <ele>37.655</ele>
        <time>2021-06-16T17:49:35Z</time>
      </trkpt>
      <trkpt lat="36.716157" lon="-4.530227">
        <ele>37.545</ele>
        <time>2021-06-16T17:49:37Z</time>
      </trkpt>
      <trkpt lat="36.716253" lon="-4.530306">
        <ele>37.481</ele>
        <time>2021-06-16T17:49:38Z</time>
      </trkpt>
      <trkpt lat="36.716446" lon="-4.530463">
        <ele>37.313</ele>
        <time>2021-06-16T17:49:40Z</time>
      </trkpt>
      <trkpt lat="36.716633" lon="-4.530614">
        <ele>37.592</ele>
        <time>2021-06-16T17:49:42Z</time>
      </trkpt>
      <trkpt lat="36.716722" lon="-4.530686">
        <ele>37.556</ele>
        <time>2021-06-16T17:49:43Z</time>
      </trkpt>
      <trkpt lat="36.716811" lon="-4.530756">
        <ele>37.775</ele>
        <time>2021-06-16T17:49:44Z</time>
      </trkpt>
      <trkpt lat="36.716897" lon="-4.530825">
        <ele>37.528</ele>
        <time>2021-06-16T17:49:45Z</time>
      </trkpt>
      <trkpt lat="36.717062" lon="-4.530957">
        <ele>37.320</ele>
        <time>2021-06-16T17:49:47Z</time>
      </trkpt>
      <trkpt lat="36.717142" lon="-4.531023">
        <ele>37.208</ele>
        <time>2021-06-16T17:49:48Z</time>
      </trkpt>
      <trkpt lat="36.717223" lon="-4.531091">
        <ele>37.134</ele>
        <time>2021-06-16T17:49:49Z</time>
      </trkpt>
      <trkpt lat="36.717393" lon="-4.531232">
        <ele>36.953</ele>
        <time>2021-06-16T17:49:51Z</time>
      </trkpt>
      <trkpt lat="36.717482" lon="-4.531304">
        <ele>36.957</ele>
        <time>2021-06-16T17:49:52Z</time>
      </trkpt>
      <trkpt lat="36.717667" lon="-4.531454">
        <ele>36.457</ele>
        <time>2021-06-16T17:49:54Z</time>
      </trkpt>
      <trkpt lat="36.717763" lon="-4.531534">
        <ele>35.933</ele>
        <time>2021-06-16T17:49:55Z</time>
      </trkpt>
      <trkpt lat="36.717949" lon="-4.531705">
        <ele>35.625</ele>
        <time>2021-06-16T17:49:57Z</time>
      </trkpt>
      <trkpt lat="36.718036" lon="-4.53179">
        <ele>35.744</ele>
        <time>2021-06-16T17:49:58Z</time>
      </trkpt>
      <trkpt lat="36.718186" lon="-4.531949">
        <ele>35.428</ele>
        <time>2021-06-16T17:50:00Z</time>
      </trkpt>
      <trkpt lat="36.718257" lon="-4.532032">
        <ele>35.396</ele>
        <time>2021-06-16T17:50:01Z</time>
      </trkpt>
      <trkpt lat="36.71842" lon="-4.532213">
        <ele>34.931</ele>
        <time>2021-06-16T17:50:03Z</time>
      </trkpt>
      <trkpt lat="36.718506" lon="-4.532308">
        <ele>34.824</ele>
        <time>2021-06-16T17:50:04Z</time>
      </trkpt>
      <trkpt lat="36.718594" lon="-4.532406">
        <ele>34.908</ele>
        <time>2021-06-16T17:50:05Z</time>
      </trkpt>
      <trkpt lat="36.718683" lon="-4.532509">
        <ele>35.086</ele>
        <time>2021-06-16T17:50:06Z</time>
      </trkpt>
      <trkpt lat="36.718856" lon="-4.532725">
        <ele>34.565</ele>
        <time>2021-06-16T17:50:08Z</time>
      </trkpt>
      <trkpt lat="36.718944" lon="-4.532832">
        <ele>34.259</ele>
        <time>2021-06-16T17:50:09Z</time>
      </trkpt>
      <trkpt lat="36.719116" lon="-4.533049">
        <ele>34.089</ele>
        <time>2021-06-16T17:50:11Z</time>
      </trkpt>
      <trkpt lat="36.719201" lon="-4.533154">
        <ele>34.135</ele>
        <time>2021-06-16T17:50:12Z</time>
      </trkpt>
      <trkpt lat="36.719365" lon="-4.533367">
        <ele>34.097</ele>
        <time>2021-06-16T17:50:14Z</time>
      </trkpt>
      <trkpt lat="36.719533" lon="-4.533579">
        <ele>34.236</ele>
        <time>2021-06-16T17:50:16Z</time>
      </trkpt>
      <trkpt lat="36.719619" lon="-4.533686">
        <ele>34.270</ele>
        <time>2021-06-16T17:50:17Z</time>
      </trkpt>
      <trkpt lat="36.719705" lon="-4.533792">
        <ele>34.141</ele>
        <time>2021-06-16T17:50:18Z</time>
      </trkpt>
      <trkpt lat="36.719874" lon="-4.534011">
        <ele>34.081</ele>
        <time>2021-06-16T17:50:20Z</time>
      </trkpt>
      <trkpt lat="36.719959" lon="-4.534122">
        <ele>34.109</ele>
        <time>2021-06-16T17:50:21Z</time>
      </trkpt>
      <trkpt lat="36.720144" lon="-4.534335">
        <ele>34.108</ele>
        <time>2021-06-16T17:50:23Z</time>
      </trkpt>
      <trkpt lat="36.720324" lon="-4.534526">
        <ele>34.681</ele>
        <time>2021-06-16T17:50:25Z</time>
      </trkpt>
      <trkpt lat="36.720512" lon="-4.534712">
        <ele>35.240</ele>
        <time>2021-06-16T17:50:27Z</time>
      </trkpt>
      <trkpt lat="36.720685" lon="-4.534901">
        <ele>35.934</ele>
        <time>2021-06-16T17:50:29Z</time>
      </trkpt>
      <trkpt lat="36.720859" lon="-4.53508">
        <ele>36.644</ele>
        <time>2021-06-16T17:50:31Z</time>
      </trkpt>
      <trkpt lat="36.720945" lon="-4.535169">
        <ele>37.190</ele>
        <time>2021-06-16T17:50:32Z</time>
      </trkpt>
      <trkpt lat="36.721112" lon="-4.535345">
        <ele>37.632</ele>
        <time>2021-06-16T17:50:34Z</time>
      </trkpt>
      <trkpt lat="36.721192" lon="-4.535429">
        <ele>38.051</ele>
        <time>2021-06-16T17:50:35Z</time>
      </trkpt>
      <trkpt lat="36.72127" lon="-4.535513">
        <ele>38.285</ele>
        <time>2021-06-16T17:50:36Z</time>
      </trkpt>
      <trkpt lat="36.721429" lon="-4.53567">
        <ele>38.392</ele>
        <time>2021-06-16T17:50:38Z</time>
      </trkpt>
      <trkpt lat="36.721504" lon="-4.535752">
        <ele>38.273</ele>
        <time>2021-06-16T17:50:39Z</time>
      </trkpt>
      <trkpt lat="36.721578" lon="-4.535832">
        <ele>38.120</ele>
        <time>2021-06-16T17:50:40Z</time>
      </trkpt>
      <trkpt lat="36.721652" lon="-4.53591">
        <ele>38.208</ele>
        <time>2021-06-16T17:50:41Z</time>
      </trkpt>
      <trkpt lat="36.721789" lon="-4.536055">
        <ele>38.536</ele>
        <time>2021-06-16T17:50:43Z</time>
      </trkpt>
      <trkpt lat="36.721908" lon="-4.536176">
        <ele>38.065</ele>
        <time>2021-06-16T17:50:45Z</time>
      </trkpt>
      <trkpt lat="36.721964" lon="-4.536241">
        <ele>37.759</ele>
        <time>2021-06-16T17:50:46Z</time>
      </trkpt>
      <trkpt lat="36.722068" lon="-4.536363">
        <ele>37.159</ele>
        <time>2021-06-16T17:50:48Z</time>
      </trkpt>
      <trkpt lat="36.722151" lon="-4.536481">
        <ele>36.715</ele>
        <time>2021-06-16T17:50:50Z</time>
      </trkpt>
      <trkpt lat="36.72219" lon="-4.536527">
        <ele>36.467</ele>
        <time>2021-06-16T17:50:51Z</time>
      </trkpt>
      <trkpt lat="36.722238" lon="-4.536583">
        <ele>35.866</ele>
        <time>2021-06-16T17:50:53Z</time>
      </trkpt>
      <trkpt lat="36.722288" lon="-4.536604">
        <ele>35.580</ele>
        <time>2021-06-16T17:51:16Z</time>
      </trkpt>
      <trkpt lat="36.722332" lon="-4.536651">
        <ele>35.327</ele>
        <time>2021-06-16T17:51:18Z</time>
      </trkpt>
      <trkpt lat="36.722396" lon="-4.536735">
        <ele>35.268</ele>
        <time>2021-06-16T17:51:20Z</time>
      </trkpt>
      <trkpt lat="36.722459" lon="-4.536819">
        <ele>35.114</ele>
        <time>2021-06-16T17:51:22Z</time>
      </trkpt>
      <trkpt lat="36.722514" lon="-4.53689">
        <ele>35.008</ele>
        <time>2021-06-16T17:51:24Z</time>
      </trkpt>
      <trkpt lat="36.722586" lon="-4.536991">
        <ele>34.919</ele>
        <time>2021-06-16T17:51:26Z</time>
      </trkpt>
      <trkpt lat="36.722628" lon="-4.537054">
        <ele>34.968</ele>
        <time>2021-06-16T17:51:27Z</time>
      </trkpt>
      <trkpt lat="36.72271" lon="-4.537178">
        <ele>34.942</ele>
        <time>2021-06-16T17:51:29Z</time>
      </trkpt>
      <trkpt lat="36.722751" lon="-4.537241">
        <ele>34.982</ele>
        <time>2021-06-16T17:51:30Z</time>
      </trkpt>
      <trkpt lat="36.722838" lon="-4.537353">
        <ele>34.958</ele>
        <time>2021-06-16T17:51:32Z</time>
      </trkpt>
      <trkpt lat="36.722925" lon="-4.53746">
        <ele>34.960</ele>
        <time>2021-06-16T17:51:34Z</time>
      </trkpt>
      <trkpt lat="36.722967" lon="-4.53752">
        <ele>34.999</ele>
        <time>2021-06-16T17:51:35Z</time>
      </trkpt>
      <trkpt lat="36.723014" lon="-4.537578">
        <ele>34.983</ele>
        <time>2021-06-16T17:51:36Z</time>
      </trkpt>
      <trkpt lat="36.723061" lon="-4.537636">
        <ele>34.934</ele>
        <time>2021-06-16T17:51:37Z</time>
      </trkpt>
      <trkpt lat="36.723105" lon="-4.537694">
        <ele>34.955</ele>
        <time>2021-06-16T17:51:38Z</time>
      </trkpt>
      <trkpt lat="36.723189" lon="-4.53781">
        <ele>34.910</ele>
        <time>2021-06-16T17:51:40Z</time>
      </trkpt>
      <trkpt lat="36.723231" lon="-4.537865">
        <ele>34.908</ele>
        <time>2021-06-16T17:51:41Z</time>
      </trkpt>
      <trkpt lat="36.723323" lon="-4.537976">
        <ele>34.950</ele>
        <time>2021-06-16T17:51:43Z</time>
      </trkpt>
      <trkpt lat="36.723428" lon="-4.538095">
        <ele>34.999</ele>
        <time>2021-06-16T17:51:45Z</time>
      </trkpt>
      <trkpt lat="36.723525" lon="-4.538226">
        <ele>34.943</ele>
        <time>2021-06-16T17:51:47Z</time>
      </trkpt>
      <trkpt lat="36.723572" lon="-4.538289">
        <ele>34.953</ele>
        <time>2021-06-16T17:51:48Z</time>
      </trkpt>
      <trkpt lat="36.72366" lon="-4.538408">
        <ele>34.969</ele>
        <time>2021-06-16T17:51:50Z</time>
      </trkpt>
      <trkpt lat="36.723705" lon="-4.538466">
        <ele>34.951</ele>
        <time>2021-06-16T17:51:51Z</time>
      </trkpt>
      <trkpt lat="36.723788" lon="-4.538575">
        <ele>34.980</ele>
        <time>2021-06-16T17:51:53Z</time>
      </trkpt>
      <trkpt lat="36.723859" lon="-4.53867">
        <ele>34.974</ele>
        <time>2021-06-16T17:51:55Z</time>
      </trkpt>
      <trkpt lat="36.723906" lon="-4.538734">
        <ele>34.981</ele>
        <time>2021-06-16T17:51:57Z</time>
      </trkpt>
      <trkpt lat="36.723897" lon="-4.538789">
        <ele>34.761</ele>
        <time>2021-06-16T17:52:28Z</time>
      </trkpt>
      <trkpt lat="36.723918" lon="-4.538844">
        <ele>34.717</ele>
        <time>2021-06-16T17:52:53Z</time>
      </trkpt>
      <trkpt lat="36.723951" lon="-4.538885">
        <ele>34.708</ele>
        <time>2021-06-16T17:52:55Z</time>
      </trkpt>
      <trkpt lat="36.72401" lon="-4.538955">
        <ele>34.755</ele>
        <time>2021-06-16T17:52:57Z</time>
      </trkpt>
      <trkpt lat="36.724054" lon="-4.539002">
        <ele>34.794</ele>
        <time>2021-06-16T17:52:58Z</time>
      </trkpt>
      <trkpt lat="36.724099" lon="-4.539051">
        <ele>34.748</ele>
        <time>2021-06-16T17:52:59Z</time>
      </trkpt>
      <trkpt lat="36.724187" lon="-4.539173">
        <ele>34.788</ele>
        <time>2021-06-16T17:53:01Z</time>
      </trkpt>
      <trkpt lat="36.724276" lon="-4.539297">
        <ele>34.714</ele>
        <time>2021-06-16T17:53:03Z</time>
      </trkpt>
      <trkpt lat="36.724324" lon="-4.539356">
        <ele>34.766</ele>
        <time>2021-06-16T17:53:04Z</time>
      </trkpt>
      <trkpt lat="36.72437" lon="-4.539414">
        <ele>34.765</ele>
        <time>2021-06-16T17:53:05Z</time>
      </trkpt>
      <trkpt lat="36.724456" lon="-4.539528">
        <ele>34.799</ele>
        <time>2021-06-16T17:53:07Z</time>
      </trkpt>
      <trkpt lat="36.724499" lon="-4.539585">
        <ele>34.745</ele>
        <time>2021-06-16T17:53:08Z</time>
      </trkpt>
      <trkpt lat="36.72458" lon="-4.539706">
        <ele>34.747</ele>
        <time>2021-06-16T17:53:10Z</time>
      </trkpt>
      <trkpt lat="36.72462" lon="-4.539763">
        <ele>34.711</ele>
        <time>2021-06-16T17:53:11Z</time>
      </trkpt>
      <trkpt lat="36.724694" lon="-4.539887">
        <ele>34.708</ele>
        <time>2021-06-16T17:53:13Z</time>
      </trkpt>
      <trkpt lat="36.724782" lon="-4.540018">
        <ele>34.781</ele>
        <time>2021-06-16T17:53:15Z</time>
      </trkpt>
      <trkpt lat="36.724832" lon="-4.540079">
        <ele>34.720</ele>
        <time>2021-06-16T17:53:16Z</time>
      </trkpt>
      <trkpt lat="36.72488" lon="-4.540145">
        <ele>34.754</ele>
        <time>2021-06-16T17:53:17Z</time>
      </trkpt>
      <trkpt lat="36.724927" lon="-4.540213">
        <ele>34.724</ele>
        <time>2021-06-16T17:53:18Z</time>
      </trkpt>
      <trkpt lat="36.725032" lon="-4.540346">
        <ele>34.790</ele>
        <time>2021-06-16T17:53:20Z</time>
      </trkpt>
      <trkpt lat="36.725127" lon="-4.54049">
        <ele>34.732</ele>
        <time>2021-06-16T17:53:22Z</time>
      </trkpt>
      <trkpt lat="36.725173" lon="-4.540566">
        <ele>34.781</ele>
        <time>2021-06-16T17:53:23Z</time>
      </trkpt>
      <trkpt lat="36.725275" lon="-4.540711">
        <ele>34.775</ele>
        <time>2021-06-16T17:53:25Z</time>
      </trkpt>
      <trkpt lat="36.725326" lon="-4.540783">
        <ele>34.785</ele>
        <time>2021-06-16T17:53:26Z</time>
      </trkpt>
      <trkpt lat="36.725427" lon="-4.540928">
        <ele>34.789</ele>
        <time>2021-06-16T17:53:28Z</time>
      </trkpt>
      <trkpt lat="36.725479" lon="-4.540999">
        <ele>34.717</ele>
        <time>2021-06-16T17:53:29Z</time>
      </trkpt>
      <trkpt lat="36.72553" lon="-4.54107">
        <ele>34.708</ele>
        <time>2021-06-16T17:53:30Z</time>
      </trkpt>
      <trkpt lat="36.725623" lon="-4.541212">
        <ele>34.775</ele>
        <time>2021-06-16T17:53:32Z</time>
      </trkpt>
      <trkpt lat="36.725674" lon="-4.54127">
        <ele>34.754</ele>
        <time>2021-06-16T17:53:33Z</time>
      </trkpt>
      <trkpt lat="36.725778" lon="-4.5414">
        <ele>34.778</ele>
        <time>2021-06-16T17:53:35Z</time>
      </trkpt>
      <trkpt lat="36.725884" lon="-4.541539">
        <ele>34.768</ele>
        <time>2021-06-16T17:53:37Z</time>
      </trkpt>
      <trkpt lat="36.725936" lon="-4.541611">
        <ele>34.764</ele>
        <time>2021-06-16T17:53:38Z</time>
      </trkpt>
      <trkpt lat="36.726031" lon="-4.541748">
        <ele>34.696</ele>
        <time>2021-06-16T17:53:40Z</time>
      </trkpt>
      <trkpt lat="36.726094" lon="-4.541841">
        <ele>34.665</ele>
        <time>2021-06-16T17:53:41Z</time>
      </trkpt>
      <trkpt lat="36.726164" lon="-4.541938">
        <ele>34.689</ele>
        <time>2021-06-16T17:53:43Z</time>
      </trkpt>
      <trkpt lat="36.726255" lon="-4.542063">
        <ele>34.622</ele>
        <time>2021-06-16T17:53:45Z</time>
      </trkpt>
      <trkpt lat="36.726304" lon="-4.542131">
        <ele>34.662</ele>
        <time>2021-06-16T17:53:46Z</time>
      </trkpt>
      <trkpt lat="36.726357" lon="-4.5422">
        <ele>34.608</ele>
        <time>2021-06-16T17:53:47Z</time>
      </trkpt>
      <trkpt lat="36.726473" lon="-4.542356">
        <ele>34.608</ele>
        <time>2021-06-16T17:53:49Z</time>
      </trkpt>
      <trkpt lat="36.726591" lon="-4.542521">
        <ele>34.679</ele>
        <time>2021-06-16T17:53:51Z</time>
      </trkpt>
      <trkpt lat="36.726704" lon="-4.542691">
        <ele>34.668</ele>
        <time>2021-06-16T17:53:53Z</time>
      </trkpt>
      <trkpt lat="36.726817" lon="-4.542841">
        <ele>34.662</ele>
        <time>2021-06-16T17:53:55Z</time>
      </trkpt>
      <trkpt lat="36.726923" lon="-4.542989">
        <ele>34.642</ele>
        <time>2021-06-16T17:53:57Z</time>
      </trkpt>
      <trkpt lat="36.72697" lon="-4.543066">
        <ele>34.688</ele>
        <time>2021-06-16T17:53:58Z</time>
      </trkpt>
      <trkpt lat="36.727016" lon="-4.543141">
        <ele>34.670</ele>
        <time>2021-06-16T17:53:59Z</time>
      </trkpt>
      <trkpt lat="36.727115" lon="-4.543288">
        <ele>34.699</ele>
        <time>2021-06-16T17:54:01Z</time>
      </trkpt>
      <trkpt lat="36.727206" lon="-4.543437">
        <ele>34.653</ele>
        <time>2021-06-16T17:54:03Z</time>
      </trkpt>
      <trkpt lat="36.727247" lon="-4.543516">
        <ele>34.658</ele>
        <time>2021-06-16T17:54:04Z</time>
      </trkpt>
      <trkpt lat="36.727294" lon="-4.543588">
        <ele>34.652</ele>
        <time>2021-06-16T17:54:05Z</time>
      </trkpt>
      <trkpt lat="36.727342" lon="-4.543657">
        <ele>34.617</ele>
        <time>2021-06-16T17:54:06Z</time>
      </trkpt>
      <trkpt lat="36.727434" lon="-4.543816">
        <ele>34.608</ele>
        <time>2021-06-16T17:54:08Z</time>
      </trkpt>
      <trkpt lat="36.727482" lon="-4.543912">
        <ele>34.672</ele>
        <time>2021-06-16T17:54:09Z</time>
      </trkpt>
      <trkpt lat="36.72759" lon="-4.544101">
        <ele>34.651</ele>
        <time>2021-06-16T17:54:11Z</time>
      </trkpt>
      <trkpt lat="36.727675" lon="-4.544245">
        <ele>34.665</ele>
        <time>2021-06-16T17:54:13Z</time>
      </trkpt>
      <trkpt lat="36.727718" lon="-4.544303">
        <ele>34.685</ele>
        <time>2021-06-16T17:54:15Z</time>
      </trkpt>
      <trkpt lat="36.727749" lon="-4.544361">
        <ele>34.631</ele>
        <time>2021-06-16T17:54:18Z</time>
      </trkpt>
      <trkpt lat="36.727803" lon="-4.544432">
        <ele>37.543</ele>
        <time>2021-06-16T17:54:48Z</time>
      </trkpt>
      <trkpt lat="36.72788" lon="-4.544563">
        <ele>39.322</ele>
        <time>2021-06-16T17:54:50Z</time>
      </trkpt>
      <trkpt lat="36.727977" lon="-4.544725">
        <ele>40.496</ele>
        <time>2021-06-16T17:54:52Z</time>
      </trkpt>
      <trkpt lat="36.72803" lon="-4.544808">
        <ele>41.044</ele>
        <time>2021-06-16T17:54:53Z</time>
      </trkpt>
      <trkpt lat="36.728132" lon="-4.54498">
        <ele>41.305</ele>
        <time>2021-06-16T17:54:55Z</time>
      </trkpt>
      <trkpt lat="36.728184" lon="-4.545072">
        <ele>41.515</ele>
        <time>2021-06-16T17:54:56Z</time>
      </trkpt>
      <trkpt lat="36.728287" lon="-4.545249">
        <ele>41.608</ele>
        <time>2021-06-16T17:54:58Z</time>
      </trkpt>
      <trkpt lat="36.728343" lon="-4.545335">
        <ele>41.621</ele>
        <time>2021-06-16T17:54:59Z</time>
      </trkpt>
      <trkpt lat="36.728447" lon="-4.545511">
        <ele>41.720</ele>
        <time>2021-06-16T17:55:01Z</time>
      </trkpt>
      <trkpt lat="36.728499" lon="-4.545602">
        <ele>41.844</ele>
        <time>2021-06-16T17:55:02Z</time>
      </trkpt>
      <trkpt lat="36.728551" lon="-4.545692">
        <ele>41.854</ele>
        <time>2021-06-16T17:55:03Z</time>
      </trkpt>
      <trkpt lat="36.728601" lon="-4.545786">
        <ele>41.870</ele>
        <time>2021-06-16T17:55:04Z</time>
      </trkpt>
      <trkpt lat="36.728701" lon="-4.545969">
        <ele>41.892</ele>
        <time>2021-06-16T17:55:06Z</time>
      </trkpt>
      <trkpt lat="36.728791" lon="-4.546156">
        <ele>41.851</ele>
        <time>2021-06-16T17:55:08Z</time>
      </trkpt>
      <trkpt lat="36.728838" lon="-4.54625">
        <ele>41.815</ele>
        <time>2021-06-16T17:55:09Z</time>
      </trkpt>
      <trkpt lat="36.728887" lon="-4.546341">
        <ele>41.872</ele>
        <time>2021-06-16T17:55:10Z</time>
      </trkpt>
      <trkpt lat="36.728935" lon="-4.54643">
        <ele>41.813</ele>
        <time>2021-06-16T17:55:11Z</time>
      </trkpt>
      <trkpt lat="36.729023" lon="-4.546621">
        <ele>41.814</ele>
        <time>2021-06-16T17:55:13Z</time>
      </trkpt>
      <trkpt lat="36.729069" lon="-4.54672">
        <ele>41.808</ele>
        <time>2021-06-16T17:55:14Z</time>
      </trkpt>
      <trkpt lat="36.729118" lon="-4.546823">
        <ele>41.844</ele>
        <time>2021-06-16T17:55:15Z</time>
      </trkpt>
      <trkpt lat="36.72917" lon="-4.546926">
        <ele>41.873</ele>
        <time>2021-06-16T17:55:16Z</time>
      </trkpt>
      <trkpt lat="36.72922" lon="-4.547033">
        <ele>41.867</ele>
        <time>2021-06-16T17:55:17Z</time>
      </trkpt>
      <trkpt lat="36.729317" lon="-4.547246">
        <ele>41.867</ele>
        <time>2021-06-16T17:55:19Z</time>
      </trkpt>
      <trkpt lat="36.729364" lon="-4.547353">
        <ele>41.823</ele>
        <time>2021-06-16T17:55:20Z</time>
      </trkpt>
      <trkpt lat="36.729463" lon="-4.547548">
        <ele>41.855</ele>
        <time>2021-06-16T17:55:22Z</time>
      </trkpt>
      <trkpt lat="36.729561" lon="-4.547739">
        <ele>41.894</ele>
        <time>2021-06-16T17:55:24Z</time>
      </trkpt>
      <trkpt lat="36.729651" lon="-4.547928">
        <ele>41.868</ele>
        <time>2021-06-16T17:55:26Z</time>
      </trkpt>
      <trkpt lat="36.729747" lon="-4.548126">
        <ele>41.894</ele>
        <time>2021-06-16T17:55:28Z</time>
      </trkpt>
      <trkpt lat="36.729844" lon="-4.548327">
        <ele>41.857</ele>
        <time>2021-06-16T17:55:30Z</time>
      </trkpt>
      <trkpt lat="36.729945" lon="-4.548525">
        <ele>41.822</ele>
        <time>2021-06-16T17:55:32Z</time>
      </trkpt>
      <trkpt lat="36.730059" lon="-4.548726">
        <ele>41.808</ele>
        <time>2021-06-16T17:55:34Z</time>
      </trkpt>
      <trkpt lat="36.730185" lon="-4.548925">
        <ele>41.856</ele>
        <time>2021-06-16T17:55:36Z</time>
      </trkpt>
      <trkpt lat="36.730313" lon="-4.549123">
        <ele>41.875</ele>
        <time>2021-06-16T17:55:38Z</time>
      </trkpt>
      <trkpt lat="36.730377" lon="-4.549222">
        <ele>41.899</ele>
        <time>2021-06-16T17:55:39Z</time>
      </trkpt>
      <trkpt lat="36.730496" lon="-4.54941">
        <ele>41.869</ele>
        <time>2021-06-16T17:55:41Z</time>
      </trkpt>
      <trkpt lat="36.73061" lon="-4.54958">
        <ele>41.875</ele>
        <time>2021-06-16T17:55:43Z</time>
      </trkpt>
      <trkpt lat="36.730662" lon="-4.54966">
        <ele>41.887</ele>
        <time>2021-06-16T17:55:44Z</time>
      </trkpt>
      <trkpt lat="36.730767" lon="-4.549815">
        <ele>45.896</ele>
        <time>2021-06-16T17:55:46Z</time>
      </trkpt>
      <trkpt lat="36.730873" lon="-4.549964">
        <ele>49.240</ele>
        <time>2021-06-16T17:55:48Z</time>
      </trkpt>
      <trkpt lat="36.730974" lon="-4.550096">
        <ele>51.483</ele>
        <time>2021-06-16T17:55:50Z</time>
      </trkpt>
      <trkpt lat="36.731048" lon="-4.550182">
        <ele>52.525</ele>
        <time>2021-06-16T17:55:52Z</time>
      </trkpt>
      <trkpt lat="36.731097" lon="-4.550207">
        <ele>53.417</ele>
        <time>2021-06-16T17:55:55Z</time>
      </trkpt>
      <trkpt lat="36.731167" lon="-4.550229">
        <ele>54.008</ele>
        <time>2021-06-16T17:56:05Z</time>
      </trkpt>
      <trkpt lat="36.731219" lon="-4.550248">
        <ele>54.475</ele>
        <time>2021-06-16T17:56:06Z</time>
      </trkpt>
      <trkpt lat="36.731281" lon="-4.550267">
        <ele>54.644</ele>
        <time>2021-06-16T17:56:07Z</time>
      </trkpt>
      <trkpt lat="36.731414" lon="-4.550345">
        <ele>54.748</ele>
        <time>2021-06-16T17:56:09Z</time>
      </trkpt>
      <trkpt lat="36.731467" lon="-4.550415">
        <ele>54.878</ele>
        <time>2021-06-16T17:56:10Z</time>
      </trkpt>
      <trkpt lat="36.73151" lon="-4.550606">
        <ele>54.974</ele>
        <time>2021-06-16T17:56:12Z</time>
      </trkpt>
      <trkpt lat="36.731498" lon="-4.550711">
        <ele>54.966</ele>
        <time>2021-06-16T17:56:13Z</time>
      </trkpt>
      <trkpt lat="36.73147" lon="-4.550813">
        <ele>54.975</ele>
        <time>2021-06-16T17:56:14Z</time>
      </trkpt>
      <trkpt lat="36.731439" lon="-4.551007">
        <ele>54.959</ele>
        <time>2021-06-16T17:56:16Z</time>
      </trkpt>
      <trkpt lat="36.731461" lon="-4.551098">
        <ele>54.942</ele>
        <time>2021-06-16T17:56:17Z</time>
      </trkpt>
      <trkpt lat="36.731504" lon="-4.551189">
        <ele>54.922</ele>
        <time>2021-06-16T17:56:18Z</time>
      </trkpt>
      <trkpt lat="36.731615" lon="-4.551378">
        <ele>54.914</ele>
        <time>2021-06-16T17:56:20Z</time>
      </trkpt>
      <trkpt lat="36.731721" lon="-4.551578">
        <ele>54.908</ele>
        <time>2021-06-16T17:56:22Z</time>
      </trkpt>
      <trkpt lat="36.731774" lon="-4.551681">
        <ele>54.941</ele>
        <time>2021-06-16T17:56:23Z</time>
      </trkpt>
      <trkpt lat="36.731878" lon="-4.551901">
        <ele>54.920</ele>
        <time>2021-06-16T17:56:25Z</time>
      </trkpt>
      <trkpt lat="36.731985" lon="-4.552145">
        <ele>54.954</ele>
        <time>2021-06-16T17:56:27Z</time>
      </trkpt>
      <trkpt lat="36.732041" lon="-4.552272">
        <ele>54.974</ele>
        <time>2021-06-16T17:56:28Z</time>
      </trkpt>
      <trkpt lat="36.732097" lon="-4.552405">
        <ele>54.930</ele>
        <time>2021-06-16T17:56:29Z</time>
      </trkpt>
      <trkpt lat="36.732203" lon="-4.552692">
        <ele>54.912</ele>
        <time>2021-06-16T17:56:31Z</time>
      </trkpt>
      <trkpt lat="36.732301" lon="-4.552994">
        <ele>54.921</ele>
        <time>2021-06-16T17:56:33Z</time>
      </trkpt>
      <trkpt lat="36.732391" lon="-4.553304">
        <ele>54.915</ele>
        <time>2021-06-16T17:56:35Z</time>
      </trkpt>
      <trkpt lat="36.732473" lon="-4.553623">
        <ele>54.977</ele>
        <time>2021-06-16T17:56:37Z</time>
      </trkpt>
      <trkpt lat="36.732543" lon="-4.553956">
        <ele>54.961</ele>
        <time>2021-06-16T17:56:39Z</time>
      </trkpt>
      <trkpt lat="36.732571" lon="-4.554125">
        <ele>54.927</ele>
        <time>2021-06-16T17:56:40Z</time>
      </trkpt>
      <trkpt lat="36.732618" lon="-4.554468">
        <ele>54.908</ele>
        <time>2021-06-16T17:56:42Z</time>
      </trkpt>
      <trkpt lat="36.732656" lon="-4.554815">
        <ele>54.954</ele>
        <time>2021-06-16T17:56:44Z</time>
      </trkpt>
      <trkpt lat="36.732669" lon="-4.554995">
        <ele>54.933</ele>
        <time>2021-06-16T17:56:45Z</time>
      </trkpt>
      <trkpt lat="36.732676" lon="-4.555177">
        <ele>54.927</ele>
        <time>2021-06-16T17:56:46Z</time>
      </trkpt>
      <trkpt lat="36.732683" lon="-4.555521">
        <ele>54.917</ele>
        <time>2021-06-16T17:56:48Z</time>
      </trkpt>
      <trkpt lat="36.732686" lon="-4.55569">
        <ele>54.953</ele>
        <time>2021-06-16T17:56:49Z</time>
      </trkpt>
      <trkpt lat="36.732692" lon="-4.556016">
        <ele>54.935</ele>
        <time>2021-06-16T17:56:51Z</time>
      </trkpt>
      <trkpt lat="36.73269" lon="-4.556181">
        <ele>54.964</ele>
        <time>2021-06-16T17:56:52Z</time>
      </trkpt>
      <trkpt lat="36.732687" lon="-4.556345">
        <ele>54.978</ele>
        <time>2021-06-16T17:56:53Z</time>
      </trkpt>
      <trkpt lat="36.732681" lon="-4.556678">
        <ele>54.988</ele>
        <time>2021-06-16T17:56:55Z</time>
      </trkpt>
      <trkpt lat="36.73268" lon="-4.556846">
        <ele>54.924</ele>
        <time>2021-06-16T17:56:56Z</time>
      </trkpt>
      <trkpt lat="36.732675" lon="-4.55718">
        <ele>54.926</ele>
        <time>2021-06-16T17:56:58Z</time>
      </trkpt>
      <trkpt lat="36.732674" lon="-4.557349">
        <ele>54.908</ele>
        <time>2021-06-16T17:56:59Z</time>
      </trkpt>
      <trkpt lat="36.732674" lon="-4.557517">
        <ele>55.555</ele>
        <time>2021-06-16T17:57:00Z</time>
      </trkpt>
      <trkpt lat="36.732675" lon="-4.557688">
        <ele>56.294</ele>
        <time>2021-06-16T17:57:01Z</time>
      </trkpt>
      <trkpt lat="36.732676" lon="-4.558027">
        <ele>56.618</ele>
        <time>2021-06-16T17:57:03Z</time>
      </trkpt>
      <trkpt lat="36.732675" lon="-4.558359">
        <ele>57.668</ele>
        <time>2021-06-16T17:57:05Z</time>
      </trkpt>
      <trkpt lat="36.732673" lon="-4.558526">
        <ele>58.174</ele>
        <time>2021-06-16T17:57:06Z</time>
      </trkpt>
      <trkpt lat="36.732668" lon="-4.55885">
        <ele>58.816</ele>
        <time>2021-06-16T17:57:08Z</time>
      </trkpt>
      <trkpt lat="36.732669" lon="-4.55901">
        <ele>59.575</ele>
        <time>2021-06-16T17:57:09Z</time>
      </trkpt>
      <trkpt lat="36.732673" lon="-4.559169">
        <ele>59.869</ele>
        <time>2021-06-16T17:57:10Z</time>
      </trkpt>
      <trkpt lat="36.732685" lon="-4.559472">
        <ele>59.956</ele>
        <time>2021-06-16T17:57:12Z</time>
      </trkpt>
      <trkpt lat="36.732699" lon="-4.559609">
        <ele>60.159</ele>
        <time>2021-06-16T17:57:13Z</time>
      </trkpt>
      <trkpt lat="36.73273" lon="-4.559849">
        <ele>60.114</ele>
        <time>2021-06-16T17:57:15Z</time>
      </trkpt>
      <trkpt lat="36.732748" lon="-4.559969">
        <ele>60.308</ele>
        <time>2021-06-16T17:57:16Z</time>
      </trkpt>
      <trkpt lat="36.732801" lon="-4.560199">
        <ele>60.522</ele>
        <time>2021-06-16T17:57:18Z</time>
      </trkpt>
      <trkpt lat="36.732869" lon="-4.560406">
        <ele>60.981</ele>
        <time>2021-06-16T17:57:20Z</time>
      </trkpt>
      <trkpt lat="36.732942" lon="-4.560604">
        <ele>61.035</ele>
        <time>2021-06-16T17:57:22Z</time>
      </trkpt>
      <trkpt lat="36.733027" lon="-4.560796">
        <ele>60.565</ele>
        <time>2021-06-16T17:57:24Z</time>
      </trkpt>
      <trkpt lat="36.733056" lon="-4.5609">
        <ele>60.581</ele>
        <time>2021-06-16T17:57:25Z</time>
      </trkpt>
      <trkpt lat="36.733075" lon="-4.561014">
        <ele>60.483</ele>
        <time>2021-06-16T17:57:26Z</time>
      </trkpt>
      <trkpt lat="36.733126" lon="-4.561262">
        <ele>59.982</ele>
        <time>2021-06-16T17:57:28Z</time>
      </trkpt>
      <trkpt lat="36.733158" lon="-4.561398">
        <ele>59.296</ele>
        <time>2021-06-16T17:57:29Z</time>
      </trkpt>
      <trkpt lat="36.73319" lon="-4.561537">
        <ele>58.673</ele>
        <time>2021-06-16T17:57:30Z</time>
      </trkpt>
      <trkpt lat="36.733243" lon="-4.561839">
        <ele>57.985</ele>
        <time>2021-06-16T17:57:32Z</time>
      </trkpt>
      <trkpt lat="36.733275" lon="-4.562154">
        <ele>56.813</ele>
        <time>2021-06-16T17:57:34Z</time>
      </trkpt>
      <trkpt lat="36.733286" lon="-4.562321">
        <ele>56.208</ele>
        <time>2021-06-16T17:57:35Z</time>
      </trkpt>
      <trkpt lat="36.733304" lon="-4.562658">
        <ele>54.644</ele>
        <time>2021-06-16T17:57:37Z</time>
      </trkpt>
      <trkpt lat="36.733323" lon="-4.562996">
        <ele>53.743</ele>
        <time>2021-06-16T17:57:39Z</time>
      </trkpt>
      <trkpt lat="36.733331" lon="-4.563168">
        <ele>53.087</ele>
        <time>2021-06-16T17:57:40Z</time>
      </trkpt>
      <trkpt lat="36.733332" lon="-4.563339">
        <ele>52.127</ele>
        <time>2021-06-16T17:57:41Z</time>
      </trkpt>
      <trkpt lat="36.733324" lon="-4.563674">
        <ele>51.153</ele>
        <time>2021-06-16T17:57:43Z</time>
      </trkpt>
      <trkpt lat="36.733312" lon="-4.564008">
        <ele>50.565</ele>
        <time>2021-06-16T17:57:45Z</time>
      </trkpt>
      <trkpt lat="36.733309" lon="-4.56417">
        <ele>50.124</ele>
        <time>2021-06-16T17:57:46Z</time>
      </trkpt>
      <trkpt lat="36.7333" lon="-4.564477">
        <ele>49.648</ele>
        <time>2021-06-16T17:57:48Z</time>
      </trkpt>
      <trkpt lat="36.733287" lon="-4.564761">
        <ele>49.382</ele>
        <time>2021-06-16T17:57:50Z</time>
      </trkpt>
      <trkpt lat="36.73327" lon="-4.564984">
        <ele>49.143</ele>
        <time>2021-06-16T17:57:52Z</time>
      </trkpt>
      <trkpt lat="36.733264" lon="-4.56507">
        <ele>48.817</ele>
        <time>2021-06-16T17:57:53Z</time>
      </trkpt>
      <trkpt lat="36.733261" lon="-4.565211">
        <ele>48.308</ele>
        <time>2021-06-16T17:57:55Z</time>
      </trkpt>
      <trkpt lat="36.733264" lon="-4.56537">
        <ele>47.985</ele>
        <time>2021-06-16T17:57:57Z</time>
      </trkpt>
      <trkpt lat="36.733232" lon="-4.565559">
        <ele>47.934</ele>
        <time>2021-06-16T17:57:59Z</time>
      </trkpt>
      <trkpt lat="36.733169" lon="-4.565761">
        <ele>47.778</ele>
        <time>2021-06-16T17:58:01Z</time>
      </trkpt>
      <trkpt lat="36.733138" lon="-4.565867">
        <ele>47.528</ele>
        <time>2021-06-16T17:58:02Z</time>
      </trkpt>
      <trkpt lat="36.733108" lon="-4.565978">
        <ele>47.534</ele>
        <time>2021-06-16T17:58:03Z</time>
      </trkpt>
      <trkpt lat="36.733054" lon="-4.566197">
        <ele>47.656</ele>
        <time>2021-06-16T17:58:05Z</time>
      </trkpt>
      <trkpt lat="36.733015" lon="-4.566401">
        <ele>47.495</ele>
        <time>2021-06-16T17:58:07Z</time>
      </trkpt>
      <trkpt lat="36.73298" lon="-4.566565">
        <ele>47.399</ele>
        <time>2021-06-16T17:58:09Z</time>
      </trkpt>
      <trkpt lat="36.732967" lon="-4.566633">
        <ele>47.647</ele>
        <time>2021-06-16T17:58:10Z</time>
      </trkpt>
      <trkpt lat="36.732953" lon="-4.566713">
        <ele>47.829</ele>
        <time>2021-06-16T17:58:12Z</time>
      </trkpt>
      <trkpt lat="36.732919" lon="-4.566669">
        <ele>47.221</ele>
        <time>2021-06-16T17:58:24Z</time>
      </trkpt>
      <trkpt lat="36.732899" lon="-4.566766">
        <ele>46.908</ele>
        <time>2021-06-16T17:58:38Z</time>
      </trkpt>
      <trkpt lat="36.73288" lon="-4.56686">
        <ele>46.741</ele>
        <time>2021-06-16T17:58:39Z</time>
      </trkpt>
      <trkpt lat="36.732856" lon="-4.566964">
        <ele>46.680</ele>
        <time>2021-06-16T17:58:40Z</time>
      </trkpt>
      <trkpt lat="36.732809" lon="-4.567195">
        <ele>46.574</ele>
        <time>2021-06-16T17:58:42Z</time>
      </trkpt>
      <trkpt lat="36.732789" lon="-4.567315">
        <ele>46.574</ele>
        <time>2021-06-16T17:58:43Z</time>
      </trkpt>
      <trkpt lat="36.732773" lon="-4.567438">
        <ele>46.520</ele>
        <time>2021-06-16T17:58:44Z</time>
      </trkpt>
      <trkpt lat="36.73276" lon="-4.567689">
        <ele>46.572</ele>
        <time>2021-06-16T17:58:46Z</time>
      </trkpt>
      <trkpt lat="36.732765" lon="-4.56795">
        <ele>46.591</ele>
        <time>2021-06-16T17:58:48Z</time>
      </trkpt>
      <trkpt lat="36.732776" lon="-4.568219">
        <ele>46.585</ele>
        <time>2021-06-16T17:58:50Z</time>
      </trkpt>
      <trkpt lat="36.732784" lon="-4.56848">
        <ele>46.526</ele>
        <time>2021-06-16T17:58:52Z</time>
      </trkpt>
      <trkpt lat="36.732802" lon="-4.568744">
        <ele>46.547</ele>
        <time>2021-06-16T17:58:54Z</time>
      </trkpt>
      <trkpt lat="36.732823" lon="-4.569025">
        <ele>46.511</ele>
        <time>2021-06-16T17:58:56Z</time>
      </trkpt>
      <trkpt lat="36.732842" lon="-4.569322">
        <ele>46.508</ele>
        <time>2021-06-16T17:58:58Z</time>
      </trkpt>
      <trkpt lat="36.732857" lon="-4.569626">
        <ele>46.589</ele>
        <time>2021-06-16T17:59:00Z</time>
      </trkpt>
      <trkpt lat="36.732868" lon="-4.569939">
        <ele>46.588</ele>
        <time>2021-06-16T17:59:02Z</time>
      </trkpt>
      <trkpt lat="36.732882" lon="-4.570256">
        <ele>46.582</ele>
        <time>2021-06-16T17:59:04Z</time>
      </trkpt>
      <trkpt lat="36.732895" lon="-4.570574">
        <ele>46.512</ele>
        <time>2021-06-16T17:59:06Z</time>
      </trkpt>
      <trkpt lat="36.732903" lon="-4.57073">
        <ele>46.518</ele>
        <time>2021-06-16T17:59:07Z</time>
      </trkpt>
      <trkpt lat="36.73294" lon="-4.57103">
        <ele>46.560</ele>
        <time>2021-06-16T17:59:09Z</time>
      </trkpt>
      <trkpt lat="36.732967" lon="-4.571177">
        <ele>46.599</ele>
        <time>2021-06-16T17:59:10Z</time>
      </trkpt>
      <trkpt lat="36.733003" lon="-4.57132">
        <ele>46.533</ele>
        <time>2021-06-16T17:59:11Z</time>
      </trkpt>
      <trkpt lat="36.733046" lon="-4.571461">
        <ele>46.528</ele>
        <time>2021-06-16T17:59:12Z</time>
      </trkpt>
      <trkpt lat="36.733092" lon="-4.571599">
        <ele>46.589</ele>
        <time>2021-06-16T17:59:13Z</time>
      </trkpt>
      <trkpt lat="36.73314" lon="-4.571732">
        <ele>46.517</ele>
        <time>2021-06-16T17:59:14Z</time>
      </trkpt>
      <trkpt lat="36.733244" lon="-4.571984">
        <ele>46.508</ele>
        <time>2021-06-16T17:59:16Z</time>
      </trkpt>
      <trkpt lat="36.733295" lon="-4.572107">
        <ele>46.539</ele>
        <time>2021-06-16T17:59:17Z</time>
      </trkpt>
      <trkpt lat="36.733396" lon="-4.572341">
        <ele>46.558</ele>
        <time>2021-06-16T17:59:19Z</time>
      </trkpt>
      <trkpt lat="36.733491" lon="-4.572564">
        <ele>46.592</ele>
        <time>2021-06-16T17:59:21Z</time>
      </trkpt>
      <trkpt lat="36.733578" lon="-4.572778">
        <ele>46.562</ele>
        <time>2021-06-16T17:59:23Z</time>
      </trkpt>
      <trkpt lat="36.733654" lon="-4.572961">
        <ele>46.558</ele>
        <time>2021-06-16T17:59:25Z</time>
      </trkpt>
      <trkpt lat="36.733709" lon="-4.573097">
        <ele>46.590</ele>
        <time>2021-06-16T17:59:27Z</time>
      </trkpt>
      <trkpt lat="36.733727" lon="-4.57315">
        <ele>46.529</ele>
        <time>2021-06-16T17:59:28Z</time>
      </trkpt>
      <trkpt lat="36.733747" lon="-4.573214">
        <ele>46.583</ele>
        <time>2021-06-16T17:59:30Z</time>
      </trkpt>
      <trkpt lat="36.733757" lon="-4.573283">
        <ele>46.649</ele>
        <time>2021-06-16T18:00:00Z</time>
      </trkpt>
      <trkpt lat="36.733795" lon="-4.573388">
        <ele>46.702</ele>
        <time>2021-06-16T18:00:02Z</time>
      </trkpt>
      <trkpt lat="36.733821" lon="-4.573467">
        <ele>46.822</ele>
        <time>2021-06-16T18:00:03Z</time>
      </trkpt>
      <trkpt lat="36.73388" lon="-4.57366">
        <ele>46.808</ele>
        <time>2021-06-16T18:00:05Z</time>
      </trkpt>
      <trkpt lat="36.733945" lon="-4.573874">
        <ele>46.881</ele>
        <time>2021-06-16T18:00:07Z</time>
      </trkpt>
      <trkpt lat="36.73401" lon="-4.574111">
        <ele>46.850</ele>
        <time>2021-06-16T18:00:09Z</time>
      </trkpt>
      <trkpt lat="36.734071" lon="-4.574354">
        <ele>46.874</ele>
        <time>2021-06-16T18:00:11Z</time>
      </trkpt>
      <trkpt lat="36.734118" lon="-4.574592">
        <ele>46.884</ele>
        <time>2021-06-16T18:00:13Z</time>
      </trkpt>
      <trkpt lat="36.734144" lon="-4.574829">
        <ele>46.820</ele>
        <time>2021-06-16T18:00:15Z</time>
      </trkpt>
      <trkpt lat="36.73415" lon="-4.57506">
        <ele>46.852</ele>
        <time>2021-06-16T18:00:17Z</time>
      </trkpt>
      <trkpt lat="36.734145" lon="-4.575177">
        <ele>46.831</ele>
        <time>2021-06-16T18:00:18Z</time>
      </trkpt>
      <trkpt lat="36.734123" lon="-4.575409">
        <ele>46.855</ele>
        <time>2021-06-16T18:00:20Z</time>
      </trkpt>
      <trkpt lat="36.734109" lon="-4.575525">
        <ele>46.833</ele>
        <time>2021-06-16T18:00:21Z</time>
      </trkpt>
      <trkpt lat="36.734091" lon="-4.575638">
        <ele>46.823</ele>
        <time>2021-06-16T18:00:22Z</time>
      </trkpt>
      <trkpt lat="36.73407" lon="-4.575751">
        <ele>46.815</ele>
        <time>2021-06-16T18:00:23Z</time>
      </trkpt>
      <trkpt lat="36.73403" lon="-4.575972">
        <ele>46.808</ele>
        <time>2021-06-16T18:00:25Z</time>
      </trkpt>
      <trkpt lat="36.734" lon="-4.576171">
        <ele>46.860</ele>
        <time>2021-06-16T18:00:27Z</time>
      </trkpt>
      <trkpt lat="36.733975" lon="-4.576321">
        <ele>46.859</ele>
        <time>2021-06-16T18:00:29Z</time>
      </trkpt>
      <trkpt lat="36.733952" lon="-4.576477">
        <ele>46.863</ele>
        <time>2021-06-16T18:00:31Z</time>
      </trkpt>
      <trkpt lat="36.733923" lon="-4.576661">
        <ele>46.813</ele>
        <time>2021-06-16T18:00:33Z</time>
      </trkpt>
      <trkpt lat="36.733891" lon="-4.576853">
        <ele>46.839</ele>
        <time>2021-06-16T18:00:35Z</time>
      </trkpt>
      <trkpt lat="36.733856" lon="-4.577058">
        <ele>46.831</ele>
        <time>2021-06-16T18:00:37Z</time>
      </trkpt>
      <trkpt lat="36.73382" lon="-4.57727">
        <ele>46.890</ele>
        <time>2021-06-16T18:00:39Z</time>
      </trkpt>
      <trkpt lat="36.733784" lon="-4.577484">
        <ele>46.824</ele>
        <time>2021-06-16T18:00:41Z</time>
      </trkpt>
      <trkpt lat="36.733766" lon="-4.577595">
        <ele>46.818</ele>
        <time>2021-06-16T18:00:42Z</time>
      </trkpt>
      <trkpt lat="36.73373" lon="-4.577816">
        <ele>46.898</ele>
        <time>2021-06-16T18:00:44Z</time>
      </trkpt>
      <trkpt lat="36.733693" lon="-4.578041">
        <ele>46.817</ele>
        <time>2021-06-16T18:00:46Z</time>
      </trkpt>
      <trkpt lat="36.733656" lon="-4.578266">
        <ele>46.808</ele>
        <time>2021-06-16T18:00:48Z</time>
      </trkpt>
      <trkpt lat="36.733621" lon="-4.57849">
        <ele>46.848</ele>
        <time>2021-06-16T18:00:50Z</time>
      </trkpt>
      <trkpt lat="36.733588" lon="-4.578722">
        <ele>46.837</ele>
        <time>2021-06-16T18:00:52Z</time>
      </trkpt>
      <trkpt lat="36.733546" lon="-4.578976">
        <ele>46.871</ele>
        <time>2021-06-16T18:00:54Z</time>
      </trkpt>
      <trkpt lat="36.733523" lon="-4.57911">
        <ele>46.851</ele>
        <time>2021-06-16T18:00:55Z</time>
      </trkpt>
      <trkpt lat="36.733475" lon="-4.579386">
        <ele>47.597</ele>
        <time>2021-06-16T18:00:57Z</time>
      </trkpt>
      <trkpt lat="36.733427" lon="-4.579665">
        <ele>47.799</ele>
        <time>2021-06-16T18:00:59Z</time>
      </trkpt>
      <trkpt lat="36.733378" lon="-4.579963">
        <ele>47.858</ele>
        <time>2021-06-16T18:01:01Z</time>
      </trkpt>
      <trkpt lat="36.733331" lon="-4.580261">
        <ele>47.572</ele>
        <time>2021-06-16T18:01:03Z</time>
      </trkpt>
      <trkpt lat="36.733308" lon="-4.580412">
        <ele>47.187</ele>
        <time>2021-06-16T18:01:04Z</time>
      </trkpt>
      <trkpt lat="36.733284" lon="-4.580566">
        <ele>46.642</ele>
        <time>2021-06-16T18:01:05Z</time>
      </trkpt>
      <trkpt lat="36.73326" lon="-4.580725">
        <ele>46.226</ele>
        <time>2021-06-16T18:01:06Z</time>
      </trkpt>
      <trkpt lat="36.733215" lon="-4.58105">
        <ele>45.608</ele>
        <time>2021-06-16T18:01:08Z</time>
      </trkpt>
      <trkpt lat="36.733193" lon="-4.581215">
        <ele>45.045</ele>
        <time>2021-06-16T18:01:09Z</time>
      </trkpt>
      <trkpt lat="36.733172" lon="-4.581378">
        <ele>44.484</ele>
        <time>2021-06-16T18:01:10Z</time>
      </trkpt>
      <trkpt lat="36.733131" lon="-4.581702">
        <ele>43.868</ele>
        <time>2021-06-16T18:01:12Z</time>
      </trkpt>
      <trkpt lat="36.73309" lon="-4.582029">
        <ele>43.288</ele>
        <time>2021-06-16T18:01:14Z</time>
      </trkpt>
      <trkpt lat="36.73307" lon="-4.582193">
        <ele>42.924</ele>
        <time>2021-06-16T18:01:15Z</time>
      </trkpt>
      <trkpt lat="36.73305" lon="-4.582361">
        <ele>42.896</ele>
        <time>2021-06-16T18:01:16Z</time>
      </trkpt>
      <trkpt lat="36.733031" lon="-4.582525">
        <ele>43.115</ele>
        <time>2021-06-16T18:01:17Z</time>
      </trkpt>
      <trkpt lat="36.733015" lon="-4.58268">
        <ele>43.229</ele>
        <time>2021-06-16T18:01:18Z</time>
      </trkpt>
      <trkpt lat="36.732995" lon="-4.582843">
        <ele>43.468</ele>
        <time>2021-06-16T18:01:19Z</time>
      </trkpt>
      <trkpt lat="36.732954" lon="-4.58314">
        <ele>43.242</ele>
        <time>2021-06-16T18:01:21Z</time>
      </trkpt>
      <trkpt lat="36.732897" lon="-4.583453">
        <ele>43.126</ele>
        <time>2021-06-16T18:01:23Z</time>
      </trkpt>
      <trkpt lat="36.732836" lon="-4.583758">
        <ele>43.608</ele>
        <time>2021-06-16T18:01:25Z</time>
      </trkpt>
      <trkpt lat="36.732777" lon="-4.584059">
        <ele>44.353</ele>
        <time>2021-06-16T18:01:27Z</time>
      </trkpt>
      <trkpt lat="36.73275" lon="-4.58421">
        <ele>45.082</ele>
        <time>2021-06-16T18:01:28Z</time>
      </trkpt>
      <trkpt lat="36.732714" lon="-4.58451">
        <ele>45.946</ele>
        <time>2021-06-16T18:01:30Z</time>
      </trkpt>
      <trkpt lat="36.732708" lon="-4.584659">
        <ele>47.046</ele>
        <time>2021-06-16T18:01:31Z</time>
      </trkpt>
      <trkpt lat="36.732715" lon="-4.584807">
        <ele>47.732</ele>
        <time>2021-06-16T18:01:32Z</time>
      </trkpt>
      <trkpt lat="36.732763" lon="-4.585094">
        <ele>48.724</ele>
        <time>2021-06-16T18:01:34Z</time>
      </trkpt>
      <trkpt lat="36.732798" lon="-4.585235">
        <ele>49.663</ele>
        <time>2021-06-16T18:01:35Z</time>
      </trkpt>
      <trkpt lat="36.73284" lon="-4.585373">
        <ele>50.337</ele>
        <time>2021-06-16T18:01:36Z</time>
      </trkpt>
      <trkpt lat="36.732939" lon="-4.585647">
        <ele>51.628</ele>
        <time>2021-06-16T18:01:38Z</time>
      </trkpt>
      <trkpt lat="36.733035" lon="-4.585925">
        <ele>53.189</ele>
        <time>2021-06-16T18:01:40Z</time>
      </trkpt>
      <trkpt lat="36.733075" lon="-4.586067">
        <ele>54.117</ele>
        <time>2021-06-16T18:01:41Z</time>
      </trkpt>
      <trkpt lat="36.733128" lon="-4.586359">
        <ele>55.008</ele>
        <time>2021-06-16T18:01:43Z</time>
      </trkpt>
      <trkpt lat="36.733141" lon="-4.586662">
        <ele>55.499</ele>
        <time>2021-06-16T18:01:45Z</time>
      </trkpt>
      <trkpt lat="36.733117" lon="-4.586986">
        <ele>55.718</ele>
        <time>2021-06-16T18:01:47Z</time>
      </trkpt>
      <trkpt lat="36.733057" lon="-4.587316">
        <ele>55.442</ele>
        <time>2021-06-16T18:01:49Z</time>
      </trkpt>
      <trkpt lat="36.732988" lon="-4.587645">
        <ele>54.562</ele>
        <time>2021-06-16T18:01:51Z</time>
      </trkpt>
      <trkpt lat="36.732916" lon="-4.587979">
        <ele>52.958</ele>
        <time>2021-06-16T18:01:53Z</time>
      </trkpt>
      <trkpt lat="36.732882" lon="-4.588146">
        <ele>51.950</ele>
        <time>2021-06-16T18:01:54Z</time>
      </trkpt>
      <trkpt lat="36.732812" lon="-4.58848">
        <ele>50.659</ele>
        <time>2021-06-16T18:01:56Z</time>
      </trkpt>
      <trkpt lat="36.732743" lon="-4.58882">
        <ele>49.333</ele>
        <time>2021-06-16T18:01:58Z</time>
      </trkpt>
      <trkpt lat="36.73271" lon="-4.58899">
        <ele>48.129</ele>
        <time>2021-06-16T18:01:59Z</time>
      </trkpt>
      <trkpt lat="36.732673" lon="-4.589159">
        <ele>47.300</ele>
        <time>2021-06-16T18:02:00Z</time>
      </trkpt>
      <trkpt lat="36.732637" lon="-4.589327">
        <ele>46.720</ele>
        <time>2021-06-16T18:02:01Z</time>
      </trkpt>
      <trkpt lat="36.73257" lon="-4.58966">
        <ele>45.908</ele>
        <time>2021-06-16T18:02:03Z</time>
      </trkpt>
      <trkpt lat="36.732537" lon="-4.589827">
        <ele>45.099</ele>
        <time>2021-06-16T18:02:04Z</time>
      </trkpt>
      <trkpt lat="36.732481" lon="-4.59016">
        <ele>44.148</ele>
        <time>2021-06-16T18:02:06Z</time>
      </trkpt>
      <trkpt lat="36.73246" lon="-4.590332">
        <ele>43.242</ele>
        <time>2021-06-16T18:02:07Z</time>
      </trkpt>
      <trkpt lat="36.732437" lon="-4.590676">
        <ele>42.762</ele>
        <time>2021-06-16T18:02:09Z</time>
      </trkpt>
      <trkpt lat="36.732423" lon="-4.591015">
        <ele>42.098</ele>
        <time>2021-06-16T18:02:11Z</time>
      </trkpt>
      <trkpt lat="36.732397" lon="-4.591351">
        <ele>42.130</ele>
        <time>2021-06-16T18:02:13Z</time>
      </trkpt>
      <trkpt lat="36.732371" lon="-4.591519">
        <ele>41.659</ele>
        <time>2021-06-16T18:02:14Z</time>
      </trkpt>
      <trkpt lat="36.732335" lon="-4.59168">
        <ele>41.673</ele>
        <time>2021-06-16T18:02:15Z</time>
      </trkpt>
      <trkpt lat="36.73229" lon="-4.591832">
        <ele>41.342</ele>
        <time>2021-06-16T18:02:16Z</time>
      </trkpt>
      <trkpt lat="36.732171" lon="-4.592119">
        <ele>40.822</ele>
        <time>2021-06-16T18:02:18Z</time>
      </trkpt>
      <trkpt lat="36.732095" lon="-4.592253">
        <ele>40.314</ele>
        <time>2021-06-16T18:02:19Z</time>
      </trkpt>
      <trkpt lat="36.732012" lon="-4.592376">
        <ele>40.008</ele>
        <time>2021-06-16T18:02:20Z</time>
      </trkpt>
      <trkpt lat="36.731831" lon="-4.592595">
        <ele>40.221</ele>
        <time>2021-06-16T18:02:22Z</time>
      </trkpt>
      <trkpt lat="36.731731" lon="-4.592697">
        <ele>40.120</ele>
        <time>2021-06-16T18:02:23Z</time>
      </trkpt>
      <trkpt lat="36.731637" lon="-4.5928">
        <ele>40.364</ele>
        <time>2021-06-16T18:02:24Z</time>
      </trkpt>
      <trkpt lat="36.731456" lon="-4.593015">
        <ele>40.224</ele>
        <time>2021-06-16T18:02:26Z</time>
      </trkpt>
      <trkpt lat="36.731378" lon="-4.593141">
        <ele>40.150</ele>
        <time>2021-06-16T18:02:27Z</time>
      </trkpt>
      <trkpt lat="36.73126" lon="-4.593415">
        <ele>40.492</ele>
        <time>2021-06-16T18:02:29Z</time>
      </trkpt>
      <trkpt lat="36.731189" lon="-4.593718">
        <ele>40.491</ele>
        <time>2021-06-16T18:02:31Z</time>
      </trkpt>
      <trkpt lat="36.73117" lon="-4.593881">
        <ele>40.495</ele>
        <time>2021-06-16T18:02:32Z</time>
      </trkpt>
      <trkpt lat="36.73117" lon="-4.594214">
        <ele>40.424</ele>
        <time>2021-06-16T18:02:34Z</time>
      </trkpt>
      <trkpt lat="36.731196" lon="-4.59455">
        <ele>40.104</ele>
        <time>2021-06-16T18:02:36Z</time>
      </trkpt>
      <trkpt lat="36.731208" lon="-4.594718">
        <ele>40.114</ele>
        <time>2021-06-16T18:02:37Z</time>
      </trkpt>
      <trkpt lat="36.731217" lon="-4.594883">
        <ele>40.008</ele>
        <time>2021-06-16T18:02:38Z</time>
      </trkpt>
      <trkpt lat="36.731225" lon="-4.595046">
        <ele>40.169</ele>
        <time>2021-06-16T18:02:39Z</time>
      </trkpt>
      <trkpt lat="36.731233" lon="-4.595207">
        <ele>40.248</ele>
        <time>2021-06-16T18:02:40Z</time>
      </trkpt>
      <trkpt lat="36.731253" lon="-4.595521">
        <ele>40.442</ele>
        <time>2021-06-16T18:02:42Z</time>
      </trkpt>
      <trkpt lat="36.731264" lon="-4.595678">
        <ele>40.422</ele>
        <time>2021-06-16T18:02:43Z</time>
      </trkpt>
      <trkpt lat="36.731289" lon="-4.595989">
        <ele>40.648</ele>
        <time>2021-06-16T18:02:45Z</time>
      </trkpt>
      <trkpt lat="36.731357" lon="-4.596276">
        <ele>41.230</ele>
        <time>2021-06-16T18:02:47Z</time>
      </trkpt>
      <trkpt lat="36.731476" lon="-4.596544">
        <ele>41.319</ele>
        <time>2021-06-16T18:02:49Z</time>
      </trkpt>
      <trkpt lat="36.731557" lon="-4.596661">
        <ele>41.673</ele>
        <time>2021-06-16T18:02:50Z</time>
      </trkpt>
      <trkpt lat="36.731752" lon="-4.596843">
        <ele>41.466</ele>
        <time>2021-06-16T18:02:52Z</time>
      </trkpt>
      <trkpt lat="36.731862" lon="-4.596917">
        <ele>41.229</ele>
        <time>2021-06-16T18:02:53Z</time>
      </trkpt>
      <trkpt lat="36.732097" lon="-4.597042">
        <ele>41.121</ele>
        <time>2021-06-16T18:02:55Z</time>
      </trkpt>
      <trkpt lat="36.732337" lon="-4.597154">
        <ele>41.208</ele>
        <time>2021-06-16T18:02:57Z</time>
      </trkpt>
      <trkpt lat="36.732455" lon="-4.597209">
        <ele>41.283</ele>
        <time>2021-06-16T18:02:58Z</time>
      </trkpt>
      <trkpt lat="36.732687" lon="-4.59732">
        <ele>41.292</ele>
        <time>2021-06-16T18:03:00Z</time>
      </trkpt>
      <trkpt lat="36.732803" lon="-4.597374">
        <ele>41.676</ele>
        <time>2021-06-16T18:03:01Z</time>
      </trkpt>
      <trkpt lat="36.733032" lon="-4.597482">
        <ele>41.966</ele>
        <time>2021-06-16T18:03:03Z</time>
      </trkpt>
      <trkpt lat="36.733146" lon="-4.597538">
        <ele>42.322</ele>
        <time>2021-06-16T18:03:04Z</time>
      </trkpt>
      <trkpt lat="36.733372" lon="-4.597649">
        <ele>42.724</ele>
        <time>2021-06-16T18:03:06Z</time>
      </trkpt>
      <trkpt lat="36.733592" lon="-4.597755">
        <ele>43.033</ele>
        <time>2021-06-16T18:03:08Z</time>
      </trkpt>
      <trkpt lat="36.7338" lon="-4.597857">
        <ele>43.257</ele>
        <time>2021-06-16T18:03:10Z</time>
      </trkpt>
      <trkpt lat="36.733899" lon="-4.597906">
        <ele>43.488</ele>
        <time>2021-06-16T18:03:11Z</time>
      </trkpt>
      <trkpt lat="36.734092" lon="-4.597993">
        <ele>43.424</ele>
        <time>2021-06-16T18:03:13Z</time>
      </trkpt>
      <trkpt lat="36.734187" lon="-4.598029">
        <ele>43.526</ele>
        <time>2021-06-16T18:03:14Z</time>
      </trkpt>
      <trkpt lat="36.734376" lon="-4.598069">
        <ele>43.608</ele>
        <time>2021-06-16T18:03:16Z</time>
      </trkpt>
      <trkpt lat="36.734468" lon="-4.598074">
        <ele>43.715</ele>
        <time>2021-06-16T18:03:17Z</time>
      </trkpt>
      <trkpt lat="36.734553" lon="-4.598097">
        <ele>43.924</ele>
        <time>2021-06-16T18:03:18Z</time>
      </trkpt>
      <trkpt lat="36.734674" lon="-4.598221">
        <ele>43.898</ele>
        <time>2021-06-16T18:03:20Z</time>
      </trkpt>
      <trkpt lat="36.73471" lon="-4.598428">
        <ele>44.218</ele>
        <time>2021-06-16T18:03:22Z</time>
      </trkpt>
      <trkpt lat="36.734731" lon="-4.598664">
        <ele>44.174</ele>
        <time>2021-06-16T18:03:24Z</time>
      </trkpt>
      <trkpt lat="36.734763" lon="-4.598785">
        <ele>43.966</ele>
        <time>2021-06-16T18:03:25Z</time>
      </trkpt>
      <trkpt lat="36.734804" lon="-4.598909">
        <ele>43.495</ele>
        <time>2021-06-16T18:03:26Z</time>
      </trkpt>
      <trkpt lat="36.734902" lon="-4.599161">
        <ele>43.159</ele>
        <time>2021-06-16T18:03:28Z</time>
      </trkpt>
      <trkpt lat="36.734952" lon="-4.599291">
        <ele>43.162</ele>
        <time>2021-06-16T18:03:29Z</time>
      </trkpt>
      <trkpt lat="36.735003" lon="-4.599422">
        <ele>42.983</ele>
        <time>2021-06-16T18:03:30Z</time>
      </trkpt>
      <trkpt lat="36.735111" lon="-4.599686">
        <ele>43.111</ele>
        <time>2021-06-16T18:03:32Z</time>
      </trkpt>
      <trkpt lat="36.735163" lon="-4.599822">
        <ele>43.108</ele>
        <time>2021-06-16T18:03:33Z</time>
      </trkpt>
      <trkpt lat="36.735215" lon="-4.59996">
        <ele>43.013</ele>
        <time>2021-06-16T18:03:34Z</time>
      </trkpt>
      <trkpt lat="36.735266" lon="-4.600096">
        <ele>43.022</ele>
        <time>2021-06-16T18:03:35Z</time>
      </trkpt>
      <trkpt lat="36.735319" lon="-4.600233">
        <ele>43.096</ele>
        <time>2021-06-16T18:03:36Z</time>
      </trkpt>
      <trkpt lat="36.735428" lon="-4.600502">
        <ele>42.836</ele>
        <time>2021-06-16T18:03:38Z</time>
      </trkpt>
      <trkpt lat="36.735483" lon="-4.600637">
        <ele>42.732</ele>
        <time>2021-06-16T18:03:39Z</time>
      </trkpt>
      <trkpt lat="36.735586" lon="-4.600909">
        <ele>43.084</ele>
        <time>2021-06-16T18:03:41Z</time>
      </trkpt>
      <trkpt lat="36.735637" lon="-4.601043">
        <ele>43.323</ele>
        <time>2021-06-16T18:03:42Z</time>
      </trkpt>
      <trkpt lat="36.735741" lon="-4.601312">
        <ele>43.597</ele>
        <time>2021-06-16T18:03:44Z</time>
      </trkpt>
      <trkpt lat="36.735847" lon="-4.601583">
        <ele>43.473</ele>
        <time>2021-06-16T18:03:46Z</time>
      </trkpt>
      <trkpt lat="36.735953" lon="-4.601853">
        <ele>43.185</ele>
        <time>2021-06-16T18:03:48Z</time>
      </trkpt>
      <trkpt lat="36.736007" lon="-4.601988">
        <ele>42.713</ele>
        <time>2021-06-16T18:03:49Z</time>
      </trkpt>
      <trkpt lat="36.736114" lon="-4.602258">
        <ele>42.508</ele>
        <time>2021-06-16T18:03:51Z</time>
      </trkpt>
      <trkpt lat="36.736209" lon="-4.602523">
        <ele>42.514</ele>
        <time>2021-06-16T18:03:53Z</time>
      </trkpt>
      <trkpt lat="36.736251" lon="-4.602655">
        <ele>42.663</ele>
        <time>2021-06-16T18:03:54Z</time>
      </trkpt>
      <trkpt lat="36.73632" lon="-4.602922">
        <ele>43.137</ele>
        <time>2021-06-16T18:03:56Z</time>
      </trkpt>
      <trkpt lat="36.736368" lon="-4.60319">
        <ele>43.187</ele>
        <time>2021-06-16T18:03:58Z</time>
      </trkpt>
      <trkpt lat="36.736385" lon="-4.603319">
        <ele>43.463</ele>
        <time>2021-06-16T18:03:59Z</time>
      </trkpt>
      <trkpt lat="36.736412" lon="-4.603535">
        <ele>43.575</ele>
        <time>2021-06-16T18:04:01Z</time>
      </trkpt>
      <trkpt lat="36.736432" lon="-4.6037">
        <ele>43.544</ele>
        <time>2021-06-16T18:04:03Z</time>
      </trkpt>
      <trkpt lat="36.736447" lon="-4.603828">
        <ele>44.118</ele>
        <time>2021-06-16T18:04:05Z</time>
      </trkpt>
      <trkpt lat="36.73646" lon="-4.603977">
        <ele>44.474</ele>
        <time>2021-06-16T18:04:07Z</time>
      </trkpt>
      <trkpt lat="36.736472" lon="-4.604069">
        <ele>45.256</ele>
        <time>2021-06-16T18:04:08Z</time>
      </trkpt>
      <trkpt lat="36.736498" lon="-4.604276">
        <ele>45.621</ele>
        <time>2021-06-16T18:04:10Z</time>
      </trkpt>
      <trkpt lat="36.736519" lon="-4.604497">
        <ele>46.008</ele>
        <time>2021-06-16T18:04:12Z</time>
      </trkpt>
      <trkpt lat="36.736527" lon="-4.604604">
        <ele>46.674</ele>
        <time>2021-06-16T18:04:13Z</time>
      </trkpt>
      <trkpt lat="36.736539" lon="-4.604707">
        <ele>46.643</ele>
        <time>2021-06-16T18:04:14Z</time>
      </trkpt>
      <trkpt lat="36.736572" lon="-4.604903">
        <ele>46.557</ele>
        <time>2021-06-16T18:04:16Z</time>
      </trkpt>
      <trkpt lat="36.736585" lon="-4.605">
        <ele>46.517</ele>
        <time>2021-06-16T18:04:17Z</time>
      </trkpt>
      <trkpt lat="36.736593" lon="-4.605093">
        <ele>46.223</ele>
        <time>2021-06-16T18:04:18Z</time>
      </trkpt>
      <trkpt lat="36.736612" lon="-4.60526">
        <ele>46.055</ele>
        <time>2021-06-16T18:04:20Z</time>
      </trkpt>
      <trkpt lat="36.736633" lon="-4.605425">
        <ele>45.854</ele>
        <time>2021-06-16T18:04:22Z</time>
      </trkpt>
      <trkpt lat="36.736645" lon="-4.605517">
        <ele>45.458</ele>
        <time>2021-06-16T18:04:23Z</time>
      </trkpt>
      <trkpt lat="36.736669" lon="-4.605713">
        <ele>45.219</ele>
        <time>2021-06-16T18:04:25Z</time>
      </trkpt>
      <trkpt lat="36.736682" lon="-4.605817">
        <ele>45.409</ele>
        <time>2021-06-16T18:04:26Z</time>
      </trkpt>
      <trkpt lat="36.736694" lon="-4.605926">
        <ele>45.419</ele>
        <time>2021-06-16T18:04:27Z</time>
      </trkpt>
      <trkpt lat="36.736717" lon="-4.606146">
        <ele>45.208</ele>
        <time>2021-06-16T18:04:29Z</time>
      </trkpt>
      <trkpt lat="36.736743" lon="-4.606329">
        <ele>45.278</ele>
        <time>2021-06-16T18:04:31Z</time>
      </trkpt>
      <trkpt lat="36.736759" lon="-4.606422">
        <ele>45.157</ele>
        <time>2021-06-16T18:04:32Z</time>
      </trkpt>
      <trkpt lat="36.736786" lon="-4.606625">
        <ele>44.841</ele>
        <time>2021-06-16T18:04:34Z</time>
      </trkpt>
      <trkpt lat="36.736799" lon="-4.606725">
        <ele>44.891</ele>
        <time>2021-06-16T18:04:35Z</time>
      </trkpt>
      <trkpt lat="36.736825" lon="-4.606901">
        <ele>44.977</ele>
        <time>2021-06-16T18:04:37Z</time>
      </trkpt>
      <trkpt lat="36.736833" lon="-4.606979">
        <ele>44.859</ele>
        <time>2021-06-16T18:04:38Z</time>
      </trkpt>
      <trkpt lat="36.736852" lon="-4.607142">
        <ele>44.598</ele>
        <time>2021-06-16T18:04:40Z</time>
      </trkpt>
      <trkpt lat="36.736865" lon="-4.607231">
        <ele>44.432</ele>
        <time>2021-06-16T18:04:41Z</time>
      </trkpt>
      <trkpt lat="36.736877" lon="-4.607328">
        <ele>44.077</ele>
        <time>2021-06-16T18:04:42Z</time>
      </trkpt>
      <trkpt lat="36.736887" lon="-4.607429">
        <ele>44.261</ele>
        <time>2021-06-16T18:04:43Z</time>
      </trkpt>
      <trkpt lat="36.736897" lon="-4.607523">
        <ele>44.027</ele>
        <time>2021-06-16T18:04:44Z</time>
      </trkpt>
      <trkpt lat="36.736917" lon="-4.607674">
        <ele>44.108</ele>
        <time>2021-06-16T18:04:46Z</time>
      </trkpt>
      <trkpt lat="36.73693" lon="-4.607809">
        <ele>44.064</ele>
        <time>2021-06-16T18:04:48Z</time>
      </trkpt>
      <trkpt lat="36.736945" lon="-4.607976">
        <ele>43.813</ele>
        <time>2021-06-16T18:04:50Z</time>
      </trkpt>
      <trkpt lat="36.736955" lon="-4.608168">
        <ele>43.837</ele>
        <time>2021-06-16T18:04:52Z</time>
      </trkpt>
      <trkpt lat="36.736954" lon="-4.608269">
        <ele>43.767</ele>
        <time>2021-06-16T18:04:53Z</time>
      </trkpt>
      <trkpt lat="36.736947" lon="-4.608371">
        <ele>43.753</ele>
        <time>2021-06-16T18:04:54Z</time>
      </trkpt>
      <trkpt lat="36.736938" lon="-4.608471">
        <ele>43.675</ele>
        <time>2021-06-16T18:04:55Z</time>
      </trkpt>
      <trkpt lat="36.73691" lon="-4.608653">
        <ele>43.924</ele>
        <time>2021-06-16T18:04:57Z</time>
      </trkpt>
      <trkpt lat="36.736882" lon="-4.608796">
        <ele>44.078</ele>
        <time>2021-06-16T18:04:59Z</time>
      </trkpt>
      <trkpt lat="36.73686" lon="-4.608873">
        <ele>43.944</ele>
        <time>2021-06-16T18:05:01Z</time>
      </trkpt>
      <trkpt lat="36.736816" lon="-4.608986">
        <ele>43.605</ele>
        <time>2021-06-16T18:05:03Z</time>
      </trkpt>
      <trkpt lat="36.736754" lon="-4.609141">
        <ele>43.215</ele>
        <time>2021-06-16T18:05:05Z</time>
      </trkpt>
      <trkpt lat="36.736675" lon="-4.609326">
        <ele>42.808</ele>
        <time>2021-06-16T18:05:07Z</time>
      </trkpt>
      <trkpt lat="36.736592" lon="-4.609526">
        <ele>42.981</ele>
        <time>2021-06-16T18:05:09Z</time>
      </trkpt>
      <trkpt lat="36.736499" lon="-4.609715">
        <ele>42.740</ele>
        <time>2021-06-16T18:05:11Z</time>
      </trkpt>
      <trkpt lat="36.736408" lon="-4.609904">
        <ele>43.014</ele>
        <time>2021-06-16T18:05:13Z</time>
      </trkpt>
      <trkpt lat="36.736366" lon="-4.609999">
        <ele>43.184</ele>
        <time>2021-06-16T18:05:14Z</time>
      </trkpt>
      <trkpt lat="36.736323" lon="-4.610096">
        <ele>42.810</ele>
        <time>2021-06-16T18:05:15Z</time>
      </trkpt>
      <trkpt lat="36.736224" lon="-4.6103">
        <ele>43.192</ele>
        <time>2021-06-16T18:05:17Z</time>
      </trkpt>
      <trkpt lat="36.73612" lon="-4.610518">
        <ele>43.381</ele>
        <time>2021-06-16T18:05:19Z</time>
      </trkpt>
      <trkpt lat="36.736017" lon="-4.61074">
        <ele>43.715</ele>
        <time>2021-06-16T18:05:21Z</time>
      </trkpt>
      <trkpt lat="36.735963" lon="-4.610853">
        <ele>44.042</ele>
        <time>2021-06-16T18:05:22Z</time>
      </trkpt>
      <trkpt lat="36.735907" lon="-4.610963">
        <ele>44.222</ele>
        <time>2021-06-16T18:05:23Z</time>
      </trkpt>
      <trkpt lat="36.735783" lon="-4.611181">
        <ele>44.614</ele>
        <time>2021-06-16T18:05:25Z</time>
      </trkpt>
      <trkpt lat="36.735637" lon="-4.611384">
        <ele>44.908</ele>
        <time>2021-06-16T18:05:27Z</time>
      </trkpt>
      <trkpt lat="36.735487" lon="-4.611566">
        <ele>45.351</ele>
        <time>2021-06-16T18:05:29Z</time>
      </trkpt>
      <trkpt lat="36.735324" lon="-4.611748">
        <ele>45.840</ele>
        <time>2021-06-16T18:05:31Z</time>
      </trkpt>
      <trkpt lat="36.73516" lon="-4.611928">
        <ele>45.364</ele>
        <time>2021-06-16T18:05:33Z</time>
      </trkpt>
      <trkpt lat="36.735" lon="-4.6121">
        <ele>45.594</ele>
        <time>2021-06-16T18:05:35Z</time>
      </trkpt>
      <trkpt lat="36.734842" lon="-4.612242">
        <ele>46.080</ele>
        <time>2021-06-16T18:05:37Z</time>
      </trkpt>
      <trkpt lat="36.734763" lon="-4.612302">
        <ele>45.892</ele>
        <time>2021-06-16T18:05:38Z</time>
      </trkpt>
      <trkpt lat="36.734691" lon="-4.612356">
        <ele>45.921</ele>
        <time>2021-06-16T18:05:39Z</time>
      </trkpt>
      <trkpt lat="36.73456" lon="-4.612441">
        <ele>45.775</ele>
        <time>2021-06-16T18:05:41Z</time>
      </trkpt>
      <trkpt lat="36.734453" lon="-4.612489">
        <ele>45.324</ele>
        <time>2021-06-16T18:05:43Z</time>
      </trkpt>
      <trkpt lat="36.734402" lon="-4.612507">
        <ele>45.004</ele>
        <time>2021-06-16T18:05:45Z</time>
      </trkpt>
      <trkpt lat="36.734336" lon="-4.612541">
        <ele>43.914</ele>
        <time>2021-06-16T18:06:17Z</time>
      </trkpt>
      <trkpt lat="36.734222" lon="-4.612574">
        <ele>43.208</ele>
        <time>2021-06-16T18:06:19Z</time>
      </trkpt>
      <trkpt lat="36.734152" lon="-4.6126">
        <ele>42.899</ele>
        <time>2021-06-16T18:06:20Z</time>
      </trkpt>
      <trkpt lat="36.734007" lon="-4.612642">
        <ele>42.638</ele>
        <time>2021-06-16T18:06:22Z</time>
      </trkpt>
      <trkpt lat="36.733933" lon="-4.612659">
        <ele>42.522</ele>
        <time>2021-06-16T18:06:23Z</time>
      </trkpt>
      <trkpt lat="36.733863" lon="-4.612678">
        <ele>42.492</ele>
        <time>2021-06-16T18:06:24Z</time>
      </trkpt>
      <trkpt lat="36.73372" lon="-4.612716">
        <ele>42.328</ele>
        <time>2021-06-16T18:06:26Z</time>
      </trkpt>
      <trkpt lat="36.733574" lon="-4.612767">
        <ele>42.230</ele>
        <time>2021-06-16T18:06:28Z</time>
      </trkpt>
      <trkpt lat="36.7335" lon="-4.612795">
        <ele>42.159</ele>
        <time>2021-06-16T18:06:29Z</time>
      </trkpt>
      <trkpt lat="36.733359" lon="-4.612858">
        <ele>42.163</ele>
        <time>2021-06-16T18:06:31Z</time>
      </trkpt>
      <trkpt lat="36.733229" lon="-4.612917">
        <ele>42.137</ele>
        <time>2021-06-16T18:06:33Z</time>
      </trkpt>
      <trkpt lat="36.733169" lon="-4.61295">
        <ele>42.149</ele>
        <time>2021-06-16T18:06:34Z</time>
      </trkpt>
      <trkpt lat="36.733064" lon="-4.613029">
        <ele>42.113</ele>
        <time>2021-06-16T18:06:36Z</time>
      </trkpt>
      <trkpt lat="36.733008" lon="-4.613089">
        <ele>42.108</ele>
        <time>2021-06-16T18:06:38Z</time>
      </trkpt>
      <trkpt lat="36.732947" lon="-4.613162">
        <ele>42.130</ele>
        <time>2021-06-16T18:06:40Z</time>
      </trkpt>
      <trkpt lat="36.732899" lon="-4.613213">
        <ele>42.149</ele>
        <time>2021-06-16T18:06:41Z</time>
      </trkpt>
      <trkpt lat="36.732787" lon="-4.613243">
        <ele>42.173</ele>
        <time>2021-06-16T18:06:43Z</time>
      </trkpt>
      <trkpt lat="36.732699" lon="-4.613144">
        <ele>42.163</ele>
        <time>2021-06-16T18:06:45Z</time>
      </trkpt>
      <trkpt lat="36.732667" lon="-4.613073">
        <ele>42.199</ele>
        <time>2021-06-16T18:06:46Z</time>
      </trkpt>
      <trkpt lat="36.732633" lon="-4.613">
        <ele>42.151</ele>
        <time>2021-06-16T18:06:47Z</time>
      </trkpt>
      <trkpt lat="36.73254" lon="-4.612883">
        <ele>42.130</ele>
        <time>2021-06-16T18:06:49Z</time>
      </trkpt>
      <trkpt lat="36.732483" lon="-4.612843">
        <ele>42.144</ele>
        <time>2021-06-16T18:06:50Z</time>
      </trkpt>
      <trkpt lat="36.732427" lon="-4.612813">
        <ele>42.152</ele>
        <time>2021-06-16T18:06:51Z</time>
      </trkpt>
      <trkpt lat="36.732374" lon="-4.612789">
        <ele>42.153</ele>
        <time>2021-06-16T18:06:52Z</time>
      </trkpt>
      <trkpt lat="36.732268" lon="-4.612748">
        <ele>42.108</ele>
        <time>2021-06-16T18:06:54Z</time>
      </trkpt>
      <trkpt lat="36.732209" lon="-4.612727">
        <ele>42.108</ele>
        <time>2021-06-16T18:06:55Z</time>
      </trkpt>
      <trkpt lat="36.732079" lon="-4.612682">
        <ele>42.182</ele>
        <time>2021-06-16T18:06:57Z</time>
      </trkpt>
      <trkpt lat="36.732011" lon="-4.612659">
        <ele>42.121</ele>
        <time>2021-06-16T18:06:58Z</time>
      </trkpt>
      <trkpt lat="36.731856" lon="-4.6126">
        <ele>42.145</ele>
        <time>2021-06-16T18:07:00Z</time>
      </trkpt>
      <trkpt lat="36.731776" lon="-4.612571">
        <ele>42.145</ele>
        <time>2021-06-16T18:07:01Z</time>
      </trkpt>
      <trkpt lat="36.731692" lon="-4.612544">
        <ele>42.131</ele>
        <time>2021-06-16T18:07:02Z</time>
      </trkpt>
      <trkpt lat="36.731608" lon="-4.612518">
        <ele>42.193</ele>
        <time>2021-06-16T18:07:03Z</time>
      </trkpt>
      <trkpt lat="36.731435" lon="-4.612467">
        <ele>42.192</ele>
        <time>2021-06-16T18:07:05Z</time>
      </trkpt>
      <trkpt lat="36.73135" lon="-4.61245">
        <ele>42.146</ele>
        <time>2021-06-16T18:07:06Z</time>
      </trkpt>
      <trkpt lat="36.731176" lon="-4.612439">
        <ele>42.151</ele>
        <time>2021-06-16T18:07:08Z</time>
      </trkpt>
      <trkpt lat="36.73109" lon="-4.612443">
        <ele>42.101</ele>
        <time>2021-06-16T18:07:09Z</time>
      </trkpt>
      <trkpt lat="36.731007" lon="-4.612451">
        <ele>42.111</ele>
        <time>2021-06-16T18:07:10Z</time>
      </trkpt>
      <trkpt lat="36.730848" lon="-4.612478">
        <ele>42.108</ele>
        <time>2021-06-16T18:07:12Z</time>
      </trkpt>
      <trkpt lat="36.730778" lon="-4.612496">
        <ele>42.132</ele>
        <time>2021-06-16T18:07:13Z</time>
      </trkpt>
      <trkpt lat="36.730671" lon="-4.612554">
        <ele>42.171</ele>
        <time>2021-06-16T18:07:15Z</time>
      </trkpt>
      <trkpt lat="36.730575" lon="-4.61264">
        <ele>41.625</ele>
        <time>2021-06-16T18:07:17Z</time>
      </trkpt>
      <trkpt lat="36.730532" lon="-4.612697">
        <ele>41.085</ele>
        <time>2021-06-16T18:07:18Z</time>
      </trkpt>
      <trkpt lat="36.730445" lon="-4.612797">
        <ele>40.751</ele>
        <time>2021-06-16T18:07:20Z</time>
      </trkpt>
      <trkpt lat="36.730323" lon="-4.61281">
        <ele>40.543</ele>
        <time>2021-06-16T18:07:22Z</time>
      </trkpt>
      <trkpt lat="36.73019" lon="-4.612823">
        <ele>40.522</ele>
        <time>2021-06-16T18:07:24Z</time>
      </trkpt>
      <trkpt lat="36.730053" lon="-4.612907">
        <ele>40.566</ele>
        <time>2021-06-16T18:07:26Z</time>
      </trkpt>
      <trkpt lat="36.729982" lon="-4.612968">
        <ele>40.669</ele>
        <time>2021-06-16T18:07:27Z</time>
      </trkpt>
      <trkpt lat="36.729823" lon="-4.613107">
        <ele>40.704</ele>
        <time>2021-06-16T18:07:29Z</time>
      </trkpt>
      <trkpt lat="36.729654" lon="-4.613251">
        <ele>40.924</ele>
        <time>2021-06-16T18:07:31Z</time>
      </trkpt>
      <trkpt lat="36.729565" lon="-4.613325">
        <ele>41.008</ele>
        <time>2021-06-16T18:07:32Z</time>
      </trkpt>
      <trkpt lat="36.729474" lon="-4.613397">
        <ele>40.613</ele>
        <time>2021-06-16T18:07:33Z</time>
      </trkpt>
      <trkpt lat="36.729287" lon="-4.613531">
        <ele>40.382</ele>
        <time>2021-06-16T18:07:35Z</time>
      </trkpt>
      <trkpt lat="36.729099" lon="-4.613674">
        <ele>40.296</ele>
        <time>2021-06-16T18:07:37Z</time>
      </trkpt>
      <trkpt lat="36.729008" lon="-4.613752">
        <ele>40.216</ele>
        <time>2021-06-16T18:07:38Z</time>
      </trkpt>
      <trkpt lat="36.728833" lon="-4.613897">
        <ele>40.042</ele>
        <time>2021-06-16T18:07:40Z</time>
      </trkpt>
      <trkpt lat="36.728651" lon="-4.614035">
        <ele>40.014</ele>
        <time>2021-06-16T18:07:42Z</time>
      </trkpt>
      <trkpt lat="36.728554" lon="-4.614105">
        <ele>39.633</ele>
        <time>2021-06-16T18:07:43Z</time>
      </trkpt>
      <trkpt lat="36.728456" lon="-4.614178">
        <ele>39.127</ele>
        <time>2021-06-16T18:07:44Z</time>
      </trkpt>
      <trkpt lat="36.728251" lon="-4.614338">
        <ele>38.389</ele>
        <time>2021-06-16T18:07:46Z</time>
      </trkpt>
      <trkpt lat="36.728035" lon="-4.614507">
        <ele>37.806</ele>
        <time>2021-06-16T18:07:48Z</time>
      </trkpt>
      <trkpt lat="36.727924" lon="-4.614591">
        <ele>37.626</ele>
        <time>2021-06-16T18:07:49Z</time>
      </trkpt>
      <trkpt lat="36.727711" lon="-4.614756">
        <ele>37.608</ele>
        <time>2021-06-16T18:07:51Z</time>
      </trkpt>
      <trkpt lat="36.727505" lon="-4.614917">
        <ele>37.745</ele>
        <time>2021-06-16T18:07:53Z</time>
      </trkpt>
      <trkpt lat="36.727399" lon="-4.614989">
        <ele>37.694</ele>
        <time>2021-06-16T18:07:54Z</time>
      </trkpt>
      <trkpt lat="36.72718" lon="-4.61511">
        <ele>37.528</ele>
        <time>2021-06-16T18:07:56Z</time>
      </trkpt>
      <trkpt lat="36.727067" lon="-4.615159">
        <ele>37.118</ele>
        <time>2021-06-16T18:07:57Z</time>
      </trkpt>
      <trkpt lat="36.726831" lon="-4.615226">
        <ele>37.244</ele>
        <time>2021-06-16T18:07:59Z</time>
      </trkpt>
      <trkpt lat="36.726709" lon="-4.615242">
        <ele>37.576</ele>
        <time>2021-06-16T18:08:00Z</time>
      </trkpt>
      <trkpt lat="36.726465" lon="-4.615244">
        <ele>37.725</ele>
        <time>2021-06-16T18:08:02Z</time>
      </trkpt>
      <trkpt lat="36.726344" lon="-4.61524">
        <ele>38.159</ele>
        <time>2021-06-16T18:08:03Z</time>
      </trkpt>
      <trkpt lat="36.726224" lon="-4.615234">
        <ele>37.974</ele>
        <time>2021-06-16T18:08:04Z</time>
      </trkpt>
      <trkpt lat="36.725996" lon="-4.615223">
        <ele>37.756</ele>
        <time>2021-06-16T18:08:06Z</time>
      </trkpt>
      <trkpt lat="36.725776" lon="-4.615213">
        <ele>37.921</ele>
        <time>2021-06-16T18:08:08Z</time>
      </trkpt>
      <trkpt lat="36.725664" lon="-4.615211">
        <ele>37.908</ele>
        <time>2021-06-16T18:08:09Z</time>
      </trkpt>
      <trkpt lat="36.72555" lon="-4.615211">
        <ele>38.234</ele>
        <time>2021-06-16T18:08:10Z</time>
      </trkpt>
      <trkpt lat="36.725323" lon="-4.615207">
        <ele>38.553</ele>
        <time>2021-06-16T18:08:12Z</time>
      </trkpt>
      <trkpt lat="36.725098" lon="-4.615208">
        <ele>38.687</ele>
        <time>2021-06-16T18:08:14Z</time>
      </trkpt>
      <trkpt lat="36.724986" lon="-4.615207">
        <ele>38.667</ele>
        <time>2021-06-16T18:08:15Z</time>
      </trkpt>
      <trkpt lat="36.724878" lon="-4.615205">
        <ele>38.713</ele>
        <time>2021-06-16T18:08:16Z</time>
      </trkpt>
      <trkpt lat="36.724773" lon="-4.615206">
        <ele>38.785</ele>
        <time>2021-06-16T18:08:17Z</time>
      </trkpt>
      <trkpt lat="36.724571" lon="-4.615211">
        <ele>38.814</ele>
        <time>2021-06-16T18:08:19Z</time>
      </trkpt>
      <trkpt lat="36.72438" lon="-4.615213">
        <ele>39.038</ele>
        <time>2021-06-16T18:08:21Z</time>
      </trkpt>
      <trkpt lat="36.724288" lon="-4.61521">
        <ele>39.082</ele>
        <time>2021-06-16T18:08:22Z</time>
      </trkpt>
      <trkpt lat="36.72411" lon="-4.6152">
        <ele>38.843</ele>
        <time>2021-06-16T18:08:24Z</time>
      </trkpt>
      <trkpt lat="36.723939" lon="-4.615195">
        <ele>38.517</ele>
        <time>2021-06-16T18:08:26Z</time>
      </trkpt>
      <trkpt lat="36.72377" lon="-4.615199">
        <ele>38.808</ele>
        <time>2021-06-16T18:08:28Z</time>
      </trkpt>
      <trkpt lat="36.723603" lon="-4.615197">
        <ele>38.715</ele>
        <time>2021-06-16T18:08:30Z</time>
      </trkpt>
      <trkpt lat="36.723438" lon="-4.615194">
        <ele>38.814</ele>
        <time>2021-06-16T18:08:32Z</time>
      </trkpt>
      <trkpt lat="36.723358" lon="-4.615194">
        <ele>39.238</ele>
        <time>2021-06-16T18:08:33Z</time>
      </trkpt>
      <trkpt lat="36.723282" lon="-4.615192">
        <ele>39.448</ele>
        <time>2021-06-16T18:08:34Z</time>
      </trkpt>
      <trkpt lat="36.723211" lon="-4.615192">
        <ele>39.784</ele>
        <time>2021-06-16T18:08:35Z</time>
      </trkpt>
      <trkpt lat="36.723147" lon="-4.615194">
        <ele>39.616</ele>
        <time>2021-06-16T18:08:36Z</time>
      </trkpt>
      <trkpt lat="36.723089" lon="-4.615208">
        <ele>40.265</ele>
        <time>2021-06-16T18:08:37Z</time>
      </trkpt>
      <trkpt lat="36.722987" lon="-4.615296">
        <ele>40.979</ele>
        <time>2021-06-16T18:08:39Z</time>
      </trkpt>
      <trkpt lat="36.722865" lon="-4.615381">
        <ele>41.235</ele>
        <time>2021-06-16T18:08:41Z</time>
      </trkpt>
      <trkpt lat="36.722794" lon="-4.61538">
        <ele>41.586</ele>
        <time>2021-06-16T18:08:42Z</time>
      </trkpt>
      <trkpt lat="36.722733" lon="-4.615348">
        <ele>41.614</ele>
        <time>2021-06-16T18:08:43Z</time>
      </trkpt>
      <trkpt lat="36.722657" lon="-4.61522">
        <ele>41.808</ele>
        <time>2021-06-16T18:08:45Z</time>
      </trkpt>
      <trkpt lat="36.722658" lon="-4.615059">
        <ele>41.770</ele>
        <time>2021-06-16T18:08:47Z</time>
      </trkpt>
      <trkpt lat="36.722683" lon="-4.614981">
        <ele>41.719</ele>
        <time>2021-06-16T18:08:48Z</time>
      </trkpt>
      <trkpt lat="36.72278" lon="-4.614856">
        <ele>41.713</ele>
        <time>2021-06-16T18:08:50Z</time>
      </trkpt>
      <trkpt lat="36.722874" lon="-4.614725">
        <ele>41.633</ele>
        <time>2021-06-16T18:08:52Z</time>
      </trkpt>
      <trkpt lat="36.722889" lon="-4.614636">
        <ele>41.449</ele>
        <time>2021-06-16T18:08:53Z</time>
      </trkpt>
      <trkpt lat="36.722898" lon="-4.614442">
        <ele>41.621</ele>
        <time>2021-06-16T18:08:55Z</time>
      </trkpt>
      <trkpt lat="36.722904" lon="-4.614347">
        <ele>41.390</ele>
        <time>2021-06-16T18:08:56Z</time>
      </trkpt>
      <trkpt lat="36.722914" lon="-4.61425">
        <ele>41.034</ele>
        <time>2021-06-16T18:08:57Z</time>
      </trkpt>
      <trkpt lat="36.722933" lon="-4.614052">
        <ele>41.424</ele>
        <time>2021-06-16T18:08:59Z</time>
      </trkpt>
      <trkpt lat="36.722944" lon="-4.613952">
        <ele>41.804</ele>
        <time>2021-06-16T18:09:00Z</time>
      </trkpt>
      <trkpt lat="36.722971" lon="-4.613741">
        <ele>42.114</ele>
        <time>2021-06-16T18:09:02Z</time>
      </trkpt>
      <trkpt lat="36.722985" lon="-4.613631">
        <ele>42.308</ele>
        <time>2021-06-16T18:09:03Z</time>
      </trkpt>
      <trkpt lat="36.723016" lon="-4.613401">
        <ele>42.959</ele>
        <time>2021-06-16T18:09:05Z</time>
      </trkpt>
      <trkpt lat="36.723052" lon="-4.613165">
        <ele>44.028</ele>
        <time>2021-06-16T18:09:07Z</time>
      </trkpt>
      <trkpt lat="36.723074" lon="-4.613046">
        <ele>45.012</ele>
        <time>2021-06-16T18:09:08Z</time>
      </trkpt>
      <trkpt lat="36.723125" lon="-4.612803">
        <ele>45.992</ele>
        <time>2021-06-16T18:09:10Z</time>
      </trkpt>
      <trkpt lat="36.72315" lon="-4.612679">
        <ele>46.548</ele>
        <time>2021-06-16T18:09:11Z</time>
      </trkpt>
      <trkpt lat="36.723177" lon="-4.612556">
        <ele>47.350</ele>
        <time>2021-06-16T18:09:12Z</time>
      </trkpt>
      <trkpt lat="36.723204" lon="-4.612434">
        <ele>48.059</ele>
        <time>2021-06-16T18:09:13Z</time>
      </trkpt>
      <trkpt lat="36.723251" lon="-4.612184">
        <ele>48.873</ele>
        <time>2021-06-16T18:09:15Z</time>
      </trkpt>
      <trkpt lat="36.723277" lon="-4.612059">
        <ele>49.323</ele>
        <time>2021-06-16T18:09:16Z</time>
      </trkpt>
      <trkpt lat="36.723304" lon="-4.611932">
        <ele>49.983</ele>
        <time>2021-06-16T18:09:17Z</time>
      </trkpt>
      <trkpt lat="36.723329" lon="-4.611803">
        <ele>50.611</ele>
        <time>2021-06-16T18:09:18Z</time>
      </trkpt>
      <trkpt lat="36.723383" lon="-4.61155">
        <ele>51.308</ele>
        <time>2021-06-16T18:09:20Z</time>
      </trkpt>
      <trkpt lat="36.723434" lon="-4.611299">
        <ele>52.029</ele>
        <time>2021-06-16T18:09:22Z</time>
      </trkpt>
      <trkpt lat="36.723455" lon="-4.611046">
        <ele>52.958</ele>
        <time>2021-06-16T18:09:24Z</time>
      </trkpt>
      <trkpt lat="36.723446" lon="-4.61092">
        <ele>54.112</ele>
        <time>2021-06-16T18:09:25Z</time>
      </trkpt>
      <trkpt lat="36.723396" lon="-4.610664">
        <ele>55.382</ele>
        <time>2021-06-16T18:09:27Z</time>
      </trkpt>
      <trkpt lat="36.72335" lon="-4.610541">
        <ele>56.418</ele>
        <time>2021-06-16T18:09:28Z</time>
      </trkpt>
      <trkpt lat="36.723226" lon="-4.610322">
        <ele>57.790</ele>
        <time>2021-06-16T18:09:30Z</time>
      </trkpt>
      <trkpt lat="36.72315" lon="-4.61023">
        <ele>58.729</ele>
        <time>2021-06-16T18:09:31Z</time>
      </trkpt>
      <trkpt lat="36.722971" lon="-4.610092">
        <ele>59.813</ele>
        <time>2021-06-16T18:09:33Z</time>
      </trkpt>
      <trkpt lat="36.722777" lon="-4.61001">
        <ele>61.165</ele>
        <time>2021-06-16T18:09:35Z</time>
      </trkpt>
      <trkpt lat="36.722576" lon="-4.609973">
        <ele>62.268</ele>
        <time>2021-06-16T18:09:37Z</time>
      </trkpt>
      <trkpt lat="36.722363" lon="-4.609954">
        <ele>63.014</ele>
        <time>2021-06-16T18:09:39Z</time>
      </trkpt>
      <trkpt lat="36.722143" lon="-4.609944">
        <ele>63.608</ele>
        <time>2021-06-16T18:09:41Z</time>
      </trkpt>
      <trkpt lat="36.722038" lon="-4.609936">
        <ele>64.023</ele>
        <time>2021-06-16T18:09:42Z</time>
      </trkpt>
      <trkpt lat="36.721825" lon="-4.609912">
        <ele>64.452</ele>
        <time>2021-06-16T18:09:44Z</time>
      </trkpt>
      <trkpt lat="36.721607" lon="-4.609885">
        <ele>64.736</ele>
        <time>2021-06-16T18:09:46Z</time>
      </trkpt>
      <trkpt lat="36.721404" lon="-4.609839">
        <ele>65.066</ele>
        <time>2021-06-16T18:09:48Z</time>
      </trkpt>
      <trkpt lat="36.721307" lon="-4.609802">
        <ele>65.062</ele>
        <time>2021-06-16T18:09:49Z</time>
      </trkpt>
      <trkpt lat="36.72112" lon="-4.609692">
        <ele>65.614</ele>
        <time>2021-06-16T18:09:51Z</time>
      </trkpt>
      <trkpt lat="36.720945" lon="-4.609543">
        <ele>66.083</ele>
        <time>2021-06-16T18:09:53Z</time>
      </trkpt>
      <trkpt lat="36.720865" lon="-4.609456">
        <ele>66.487</ele>
        <time>2021-06-16T18:09:54Z</time>
      </trkpt>
      <trkpt lat="36.720736" lon="-4.609268">
        <ele>67.233</ele>
        <time>2021-06-16T18:09:56Z</time>
      </trkpt>
      <trkpt lat="36.720676" lon="-4.609041">
        <ele>68.123</ele>
        <time>2021-06-16T18:09:58Z</time>
      </trkpt>
      <trkpt lat="36.720686" lon="-4.608919">
        <ele>68.415</ele>
        <time>2021-06-16T18:09:59Z</time>
      </trkpt>
      <trkpt lat="36.720708" lon="-4.608786">
        <ele>68.808</ele>
        <time>2021-06-16T18:10:00Z</time>
      </trkpt>
      <trkpt lat="36.720743" lon="-4.608498">
        <ele>68.950</ele>
        <time>2021-06-16T18:10:02Z</time>
      </trkpt>
      <trkpt lat="36.720755" lon="-4.608196">
        <ele>69.249</ele>
        <time>2021-06-16T18:10:04Z</time>
      </trkpt>
      <trkpt lat="36.72076" lon="-4.608041">
        <ele>69.533</ele>
        <time>2021-06-16T18:10:05Z</time>
      </trkpt>
      <trkpt lat="36.720769" lon="-4.607723">
        <ele>69.933</ele>
        <time>2021-06-16T18:10:07Z</time>
      </trkpt>
      <trkpt lat="36.720774" lon="-4.607559">
        <ele>70.359</ele>
        <time>2021-06-16T18:10:08Z</time>
      </trkpt>
      <trkpt lat="36.720784" lon="-4.60724">
        <ele>70.631</ele>
        <time>2021-06-16T18:10:10Z</time>
      </trkpt>
      <trkpt lat="36.720787" lon="-4.60708">
        <ele>70.420</ele>
        <time>2021-06-16T18:10:11Z</time>
      </trkpt>
      <trkpt lat="36.720789" lon="-4.606919">
        <ele>70.234</ele>
        <time>2021-06-16T18:10:12Z</time>
      </trkpt>
      <trkpt lat="36.720785" lon="-4.606598">
        <ele>69.657</ele>
        <time>2021-06-16T18:10:14Z</time>
      </trkpt>
      <trkpt lat="36.720765" lon="-4.606276">
        <ele>68.900</ele>
        <time>2021-06-16T18:10:16Z</time>
      </trkpt>
      <trkpt lat="36.720748" lon="-4.606117">
        <ele>68.320</ele>
        <time>2021-06-16T18:10:17Z</time>
      </trkpt>
      <trkpt lat="36.720727" lon="-4.605958">
        <ele>68.008</ele>
        <time>2021-06-16T18:10:18Z</time>
      </trkpt>
      <trkpt lat="36.720675" lon="-4.605642">
        <ele>67.492</ele>
        <time>2021-06-16T18:10:20Z</time>
      </trkpt>
      <trkpt lat="36.720622" lon="-4.605336">
        <ele>66.941</ele>
        <time>2021-06-16T18:10:22Z</time>
      </trkpt>
      <trkpt lat="36.720562" lon="-4.60503">
        <ele>66.525</ele>
        <time>2021-06-16T18:10:24Z</time>
      </trkpt>
      <trkpt lat="36.720503" lon="-4.60473">
        <ele>65.555</ele>
        <time>2021-06-16T18:10:26Z</time>
      </trkpt>
      <trkpt lat="36.720475" lon="-4.604585">
        <ele>65.061</ele>
        <time>2021-06-16T18:10:27Z</time>
      </trkpt>
      <trkpt lat="36.720434" lon="-4.604355">
        <ele>64.153</ele>
        <time>2021-06-16T18:10:29Z</time>
      </trkpt>
      <trkpt lat="36.720415" lon="-4.604259">
        <ele>63.212</ele>
        <time>2021-06-16T18:10:30Z</time>
      </trkpt>
      <trkpt lat="36.720373" lon="-4.604058">
        <ele>62.726</ele>
        <time>2021-06-16T18:10:32Z</time>
      </trkpt>
      <trkpt lat="36.72032" lon="-4.603801">
        <ele>62.024</ele>
        <time>2021-06-16T18:10:34Z</time>
      </trkpt>
      <trkpt lat="36.720293" lon="-4.603655">
        <ele>61.404</ele>
        <time>2021-06-16T18:10:35Z</time>
      </trkpt>
      <trkpt lat="36.720264" lon="-4.603501">
        <ele>60.814</ele>
        <time>2021-06-16T18:10:36Z</time>
      </trkpt>
      <trkpt lat="36.720202" lon="-4.603187">
        <ele>59.608</ele>
        <time>2021-06-16T18:10:38Z</time>
      </trkpt>
      <trkpt lat="36.720139" lon="-4.602881">
        <ele>58.879</ele>
        <time>2021-06-16T18:10:40Z</time>
      </trkpt>
      <trkpt lat="36.720072" lon="-4.602586">
        <ele>58.028</ele>
        <time>2021-06-16T18:10:42Z</time>
      </trkpt>
      <trkpt lat="36.720038" lon="-4.602441">
        <ele>57.412</ele>
        <time>2021-06-16T18:10:43Z</time>
      </trkpt>
      <trkpt lat="36.719976" lon="-4.602159">
        <ele>56.712</ele>
        <time>2021-06-16T18:10:45Z</time>
      </trkpt>
      <trkpt lat="36.719948" lon="-4.602018">
        <ele>56.358</ele>
        <time>2021-06-16T18:10:46Z</time>
      </trkpt>
      <trkpt lat="36.719894" lon="-4.601731">
        <ele>55.640</ele>
        <time>2021-06-16T18:10:48Z</time>
      </trkpt>
      <trkpt lat="36.719867" lon="-4.601583">
        <ele>55.129</ele>
        <time>2021-06-16T18:10:49Z</time>
      </trkpt>
      <trkpt lat="36.719838" lon="-4.60143">
        <ele>54.823</ele>
        <time>2021-06-16T18:10:50Z</time>
      </trkpt>
      <trkpt lat="36.719778" lon="-4.601118">
        <ele>54.193</ele>
        <time>2021-06-16T18:10:52Z</time>
      </trkpt>
      <trkpt lat="36.719748" lon="-4.600961">
        <ele>53.665</ele>
        <time>2021-06-16T18:10:53Z</time>
      </trkpt>
      <trkpt lat="36.719718" lon="-4.600804">
        <ele>53.221</ele>
        <time>2021-06-16T18:10:54Z</time>
      </trkpt>
      <trkpt lat="36.71969" lon="-4.600647">
        <ele>52.608</ele>
        <time>2021-06-16T18:10:55Z</time>
      </trkpt>
      <trkpt lat="36.719645" lon="-4.600341">
        <ele>51.916</ele>
        <time>2021-06-16T18:10:57Z</time>
      </trkpt>
      <trkpt lat="36.719626" lon="-4.600186">
        <ele>51.565</ele>
        <time>2021-06-16T18:10:58Z</time>
      </trkpt>
      <trkpt lat="36.719603" lon="-4.599882">
        <ele>50.849</ele>
        <time>2021-06-16T18:11:00Z</time>
      </trkpt>
      <trkpt lat="36.719601" lon="-4.599584">
        <ele>50.199</ele>
        <time>2021-06-16T18:11:02Z</time>
      </trkpt>
      <trkpt lat="36.719608" lon="-4.599435">
        <ele>49.685</ele>
        <time>2021-06-16T18:11:03Z</time>
      </trkpt>
      <trkpt lat="36.719621" lon="-4.59913">
        <ele>48.557</ele>
        <time>2021-06-16T18:11:05Z</time>
      </trkpt>
      <trkpt lat="36.719636" lon="-4.598814">
        <ele>47.666</ele>
        <time>2021-06-16T18:11:07Z</time>
      </trkpt>
      <trkpt lat="36.719654" lon="-4.598485">
        <ele>46.650</ele>
        <time>2021-06-16T18:11:09Z</time>
      </trkpt>
      <trkpt lat="36.719661" lon="-4.598319">
        <ele>46.079</ele>
        <time>2021-06-16T18:11:10Z</time>
      </trkpt>
      <trkpt lat="36.71967" lon="-4.597985">
        <ele>45.905</ele>
        <time>2021-06-16T18:11:12Z</time>
      </trkpt>
      <trkpt lat="36.719672" lon="-4.597821">
        <ele>46.025</ele>
        <time>2021-06-16T18:11:13Z</time>
      </trkpt>
      <trkpt lat="36.719672" lon="-4.597661">
        <ele>46.008</ele>
        <time>2021-06-16T18:11:14Z</time>
      </trkpt>
      <trkpt lat="36.71968" lon="-4.597341">
        <ele>46.244</ele>
        <time>2021-06-16T18:11:16Z</time>
      </trkpt>
      <trkpt lat="36.719684" lon="-4.597181">
        <ele>46.543</ele>
        <time>2021-06-16T18:11:17Z</time>
      </trkpt>
      <trkpt lat="36.71969" lon="-4.597018">
        <ele>46.427</ele>
        <time>2021-06-16T18:11:18Z</time>
      </trkpt>
      <trkpt lat="36.719705" lon="-4.596699">
        <ele>47.017</ele>
        <time>2021-06-16T18:11:20Z</time>
      </trkpt>
      <trkpt lat="36.719725" lon="-4.59639">
        <ele>47.193</ele>
        <time>2021-06-16T18:11:22Z</time>
      </trkpt>
      <trkpt lat="36.719753" lon="-4.596085">
        <ele>47.575</ele>
        <time>2021-06-16T18:11:24Z</time>
      </trkpt>
      <trkpt lat="36.719785" lon="-4.595769">
        <ele>47.534</ele>
        <time>2021-06-16T18:11:26Z</time>
      </trkpt>
      <trkpt lat="36.719804" lon="-4.595612">
        <ele>47.558</ele>
        <time>2021-06-16T18:11:27Z</time>
      </trkpt>
      <trkpt lat="36.719844" lon="-4.595304">
        <ele>47.212</ele>
        <time>2021-06-16T18:11:29Z</time>
      </trkpt>
      <trkpt lat="36.719862" lon="-4.59515">
        <ele>46.932</ele>
        <time>2021-06-16T18:11:30Z</time>
      </trkpt>
      <trkpt lat="36.719896" lon="-4.594846">
        <ele>46.805</ele>
        <time>2021-06-16T18:11:32Z</time>
      </trkpt>
      <trkpt lat="36.719921" lon="-4.594534">
        <ele>46.108</ele>
        <time>2021-06-16T18:11:34Z</time>
      </trkpt>
      <trkpt lat="36.719918" lon="-4.594373">
        <ele>45.328</ele>
        <time>2021-06-16T18:11:35Z</time>
      </trkpt>
      <trkpt lat="36.719892" lon="-4.594056">
        <ele>44.767</ele>
        <time>2021-06-16T18:11:37Z</time>
      </trkpt>
      <trkpt lat="36.719866" lon="-4.593899">
        <ele>44.771</ele>
        <time>2021-06-16T18:11:38Z</time>
      </trkpt>
      <trkpt lat="36.719834" lon="-4.593744">
        <ele>44.081</ele>
        <time>2021-06-16T18:11:39Z</time>
      </trkpt>
      <trkpt lat="36.719771" lon="-4.593444">
        <ele>43.327</ele>
        <time>2021-06-16T18:11:41Z</time>
      </trkpt>
      <trkpt lat="36.719742" lon="-4.5933">
        <ele>42.839</ele>
        <time>2021-06-16T18:11:42Z</time>
      </trkpt>
      <trkpt lat="36.719681" lon="-4.593019">
        <ele>42.258</ele>
        <time>2021-06-16T18:11:44Z</time>
      </trkpt>
      <trkpt lat="36.71964" lon="-4.592889">
        <ele>41.762</ele>
        <time>2021-06-16T18:11:45Z</time>
      </trkpt>
      <trkpt lat="36.719589" lon="-4.59277">
        <ele>41.273</ele>
        <time>2021-06-16T18:11:46Z</time>
      </trkpt>
      <trkpt lat="36.719471" lon="-4.592568">
        <ele>40.785</ele>
        <time>2021-06-16T18:11:48Z</time>
      </trkpt>
      <trkpt lat="36.719378" lon="-4.592384">
        <ele>40.713</ele>
        <time>2021-06-16T18:11:50Z</time>
      </trkpt>
      <trkpt lat="36.719382" lon="-4.592154">
        <ele>40.508</ele>
        <time>2021-06-16T18:11:52Z</time>
      </trkpt>
      <trkpt lat="36.719417" lon="-4.591895">
        <ele>40.014</ele>
        <time>2021-06-16T18:11:54Z</time>
      </trkpt>
      <trkpt lat="36.7194" lon="-4.591603">
        <ele>39.373</ele>
        <time>2021-06-16T18:11:56Z</time>
      </trkpt>
      <trkpt lat="36.719375" lon="-4.591447">
        <ele>38.457</ele>
        <time>2021-06-16T18:11:57Z</time>
      </trkpt>
      <trkpt lat="36.719312" lon="-4.591135">
        <ele>37.417</ele>
        <time>2021-06-16T18:11:59Z</time>
      </trkpt>
      <trkpt lat="36.719281" lon="-4.590985">
        <ele>36.843</ele>
        <time>2021-06-16T18:12:00Z</time>
      </trkpt>
      <trkpt lat="36.719196" lon="-4.590711">
        <ele>36.425</ele>
        <time>2021-06-16T18:12:02Z</time>
      </trkpt>
      <trkpt lat="36.719066" lon="-4.590469">
        <ele>36.334</ele>
        <time>2021-06-16T18:12:04Z</time>
      </trkpt>
      <trkpt lat="36.718901" lon="-4.590246">
        <ele>36.538</ele>
        <time>2021-06-16T18:12:06Z</time>
      </trkpt>
      <trkpt lat="36.718712" lon="-4.590051">
        <ele>36.367</ele>
        <time>2021-06-16T18:12:08Z</time>
      </trkpt>
      <trkpt lat="36.718607" lon="-4.589992">
        <ele>36.381</ele>
        <time>2021-06-16T18:12:09Z</time>
      </trkpt>
      <trkpt lat="36.718502" lon="-4.589943">
        <ele>36.119</ele>
        <time>2021-06-16T18:12:10Z</time>
      </trkpt>
      <trkpt lat="36.718406" lon="-4.589896">
        <ele>36.108</ele>
        <time>2021-06-16T18:12:11Z</time>
      </trkpt>
      <trkpt lat="36.718242" lon="-4.589829">
        <ele>36.363</ele>
        <time>2021-06-16T18:12:13Z</time>
      </trkpt>
      <trkpt lat="36.718075" lon="-4.589811">
        <ele>35.922</ele>
        <time>2021-06-16T18:12:15Z</time>
      </trkpt>
      <trkpt lat="36.717896" lon="-4.589786">
        <ele>35.726</ele>
        <time>2021-06-16T18:12:17Z</time>
      </trkpt>
      <trkpt lat="36.717735" lon="-4.589644">
        <ele>35.756</ele>
        <time>2021-06-16T18:12:19Z</time>
      </trkpt>
      <trkpt lat="36.717573" lon="-4.589446">
        <ele>35.382</ele>
        <time>2021-06-16T18:12:21Z</time>
      </trkpt>
      <trkpt lat="36.717482" lon="-4.589352">
        <ele>35.244</ele>
        <time>2021-06-16T18:12:22Z</time>
      </trkpt>
      <trkpt lat="36.717384" lon="-4.589262">
        <ele>35.253</ele>
        <time>2021-06-16T18:12:23Z</time>
      </trkpt>
      <trkpt lat="36.717287" lon="-4.589171">
        <ele>34.587</ele>
        <time>2021-06-16T18:12:24Z</time>
      </trkpt>
      <trkpt lat="36.717104" lon="-4.588964">
        <ele>33.743</ele>
        <time>2021-06-16T18:12:26Z</time>
      </trkpt>
      <trkpt lat="36.717019" lon="-4.588847">
        <ele>33.164</ele>
        <time>2021-06-16T18:12:27Z</time>
      </trkpt>
      <trkpt lat="36.716852" lon="-4.588595">
        <ele>33.110</ele>
        <time>2021-06-16T18:12:29Z</time>
      </trkpt>
      <trkpt lat="36.716771" lon="-4.588463">
        <ele>33.408</ele>
        <time>2021-06-16T18:12:30Z</time>
      </trkpt>
      <trkpt lat="36.716618" lon="-4.588205">
        <ele>33.631</ele>
        <time>2021-06-16T18:12:32Z</time>
      </trkpt>
      <trkpt lat="36.71647" lon="-4.587963">
        <ele>34.120</ele>
        <time>2021-06-16T18:12:34Z</time>
      </trkpt>
      <trkpt lat="36.716399" lon="-4.587844">
        <ele>34.544</ele>
        <time>2021-06-16T18:12:35Z</time>
      </trkpt>
      <trkpt lat="36.716256" lon="-4.587611">
        <ele>34.594</ele>
        <time>2021-06-16T18:12:37Z</time>
      </trkpt>
      <trkpt lat="36.716115" lon="-4.58738">
        <ele>34.120</ele>
        <time>2021-06-16T18:12:39Z</time>
      </trkpt>
      <trkpt lat="36.716043" lon="-4.587263">
        <ele>33.812</ele>
        <time>2021-06-16T18:12:40Z</time>
      </trkpt>
      <trkpt lat="36.715898" lon="-4.587027">
        <ele>34.121</ele>
        <time>2021-06-16T18:12:42Z</time>
      </trkpt>
      <trkpt lat="36.715825" lon="-4.586906">
        <ele>34.155</ele>
        <time>2021-06-16T18:12:43Z</time>
      </trkpt>
      <trkpt lat="36.715677" lon="-4.586653">
        <ele>34.994</ele>
        <time>2021-06-16T18:12:45Z</time>
      </trkpt>
      <trkpt lat="36.715604" lon="-4.586526">
        <ele>35.257</ele>
        <time>2021-06-16T18:12:46Z</time>
      </trkpt>
      <trkpt lat="36.715454" lon="-4.586272">
        <ele>35.322</ele>
        <time>2021-06-16T18:12:48Z</time>
      </trkpt>
      <trkpt lat="36.715377" lon="-4.586145">
        <ele>35.608</ele>
        <time>2021-06-16T18:12:49Z</time>
      </trkpt>
      <trkpt lat="36.715222" lon="-4.585892">
        <ele>35.616</ele>
        <time>2021-06-16T18:12:51Z</time>
      </trkpt>
      <trkpt lat="36.715146" lon="-4.585768">
        <ele>35.785</ele>
        <time>2021-06-16T18:12:52Z</time>
      </trkpt>
      <trkpt lat="36.715005" lon="-4.585522">
        <ele>35.899</ele>
        <time>2021-06-16T18:12:54Z</time>
      </trkpt>
      <trkpt lat="36.714873" lon="-4.585279">
        <ele>36.339</ele>
        <time>2021-06-16T18:12:56Z</time>
      </trkpt>
      <trkpt lat="36.714809" lon="-4.585156">
        <ele>36.875</ele>
        <time>2021-06-16T18:12:57Z</time>
      </trkpt>
      <trkpt lat="36.714696" lon="-4.584905">
        <ele>37.457</ele>
        <time>2021-06-16T18:12:59Z</time>
      </trkpt>
      <trkpt lat="36.714643" lon="-4.584778">
        <ele>37.896</ele>
        <time>2021-06-16T18:13:00Z</time>
      </trkpt>
      <trkpt lat="36.714591" lon="-4.584652">
        <ele>38.410</ele>
        <time>2021-06-16T18:13:01Z</time>
      </trkpt>
      <trkpt lat="36.714492" lon="-4.5844">
        <ele>38.861</ele>
        <time>2021-06-16T18:13:03Z</time>
      </trkpt>
      <trkpt lat="36.714396" lon="-4.584144">
        <ele>39.421</ele>
        <time>2021-06-16T18:13:05Z</time>
      </trkpt>
      <trkpt lat="36.714357" lon="-4.58402">
        <ele>39.513</ele>
        <time>2021-06-16T18:13:06Z</time>
      </trkpt>
      <trkpt lat="36.714284" lon="-4.583789">
        <ele>39.608</ele>
        <time>2021-06-16T18:13:08Z</time>
      </trkpt>
      <trkpt lat="36.714243" lon="-4.583682">
        <ele>39.823</ele>
        <time>2021-06-16T18:13:09Z</time>
      </trkpt>
      <trkpt lat="36.714164" lon="-4.583475">
        <ele>39.762</ele>
        <time>2021-06-16T18:13:11Z</time>
      </trkpt>
      <trkpt lat="36.71412" lon="-4.583365">
        <ele>39.986</ele>
        <time>2021-06-16T18:13:12Z</time>
      </trkpt>
      <trkpt lat="36.714023" lon="-4.583128">
        <ele>39.686</ele>
        <time>2021-06-16T18:13:14Z</time>
      </trkpt>
      <trkpt lat="36.713973" lon="-4.583">
        <ele>39.622</ele>
        <time>2021-06-16T18:13:15Z</time>
      </trkpt>
      <trkpt lat="36.713873" lon="-4.58273">
        <ele>39.924</ele>
        <time>2021-06-16T18:13:17Z</time>
      </trkpt>
      <trkpt lat="36.713769" lon="-4.582459">
        <ele>39.973</ele>
        <time>2021-06-16T18:13:19Z</time>
      </trkpt>
      <trkpt lat="36.713716" lon="-4.582318">
        <ele>39.677</ele>
        <time>2021-06-16T18:13:20Z</time>
      </trkpt>
      <trkpt lat="36.713615" lon="-4.582042">
        <ele>39.847</ele>
        <time>2021-06-16T18:13:22Z</time>
      </trkpt>
      <trkpt lat="36.713564" lon="-4.581906">
        <ele>39.929</ele>
        <time>2021-06-16T18:13:23Z</time>
      </trkpt>
      <trkpt lat="36.713459" lon="-4.581633">
        <ele>40.021</ele>
        <time>2021-06-16T18:13:25Z</time>
      </trkpt>
      <trkpt lat="36.713359" lon="-4.581359">
        <ele>40.408</ele>
        <time>2021-06-16T18:13:27Z</time>
      </trkpt>
      <trkpt lat="36.713305" lon="-4.581225">
        <ele>40.421</ele>
        <time>2021-06-16T18:13:28Z</time>
      </trkpt>
      <trkpt lat="36.713197" lon="-4.580974">
        <ele>40.910</ele>
        <time>2021-06-16T18:13:30Z</time>
      </trkpt>
      <trkpt lat="36.713145" lon="-4.580845">
        <ele>41.664</ele>
        <time>2021-06-16T18:13:31Z</time>
      </trkpt>
      <trkpt lat="36.713042" lon="-4.580578">
        <ele>42.584</ele>
        <time>2021-06-16T18:13:33Z</time>
      </trkpt>
      <trkpt lat="36.71299" lon="-4.580442">
        <ele>43.410</ele>
        <time>2021-06-16T18:13:34Z</time>
      </trkpt>
      <trkpt lat="36.712879" lon="-4.58018">
        <ele>44.912</ele>
        <time>2021-06-16T18:13:36Z</time>
      </trkpt>
      <trkpt lat="36.712757" lon="-4.579925">
        <ele>45.981</ele>
        <time>2021-06-16T18:13:38Z</time>
      </trkpt>
      <trkpt lat="36.712611" lon="-4.579691">
        <ele>46.525</ele>
        <time>2021-06-16T18:13:40Z</time>
      </trkpt>
      <trkpt lat="36.712523" lon="-4.579584">
        <ele>47.037</ele>
        <time>2021-06-16T18:13:41Z</time>
      </trkpt>
      <trkpt lat="36.712426" lon="-4.579491">
        <ele>47.649</ele>
        <time>2021-06-16T18:13:42Z</time>
      </trkpt>
      <trkpt lat="36.71222" lon="-4.579329">
        <ele>48.913</ele>
        <time>2021-06-16T18:13:44Z</time>
      </trkpt>
      <trkpt lat="36.712115" lon="-4.579248">
        <ele>49.908</ele>
        <time>2021-06-16T18:13:45Z</time>
      </trkpt>
      <trkpt lat="36.711887" lon="-4.579116">
        <ele>51.060</ele>
        <time>2021-06-16T18:13:47Z</time>
      </trkpt>
      <trkpt lat="36.711765" lon="-4.579057">
        <ele>51.839</ele>
        <time>2021-06-16T18:13:48Z</time>
      </trkpt>
      <trkpt lat="36.711526" lon="-4.578931">
        <ele>52.113</ele>
        <time>2021-06-16T18:13:50Z</time>
      </trkpt>
      <trkpt lat="36.711282" lon="-4.578803">
        <ele>51.673</ele>
        <time>2021-06-16T18:13:52Z</time>
      </trkpt>
      <trkpt lat="36.711037" lon="-4.578667">
        <ele>50.649</ele>
        <time>2021-06-16T18:13:54Z</time>
      </trkpt>
      <trkpt lat="36.710915" lon="-4.578596">
        <ele>49.741</ele>
        <time>2021-06-16T18:13:55Z</time>
      </trkpt>
      <trkpt lat="36.710666" lon="-4.578457">
        <ele>49.180</ele>
        <time>2021-06-16T18:13:57Z</time>
      </trkpt>
      <trkpt lat="36.710422" lon="-4.578297">
        <ele>48.664</ele>
        <time>2021-06-16T18:13:59Z</time>
      </trkpt>
      <trkpt lat="36.710204" lon="-4.578099">
        <ele>47.644</ele>
        <time>2021-06-16T18:14:01Z</time>
      </trkpt>
      <trkpt lat="36.710103" lon="-4.577994">
        <ele>47.005</ele>
        <time>2021-06-16T18:14:02Z</time>
      </trkpt>
      <trkpt lat="36.709919" lon="-4.577767">
        <ele>46.015</ele>
        <time>2021-06-16T18:14:04Z</time>
      </trkpt>
      <trkpt lat="36.709831" lon="-4.577654">
        <ele>45.408</ele>
        <time>2021-06-16T18:14:05Z</time>
      </trkpt>
      <trkpt lat="36.709747" lon="-4.577528">
        <ele>44.691</ele>
        <time>2021-06-16T18:14:06Z</time>
      </trkpt>
      <trkpt lat="36.709669" lon="-4.577392">
        <ele>43.710</ele>
        <time>2021-06-16T18:14:07Z</time>
      </trkpt>
      <trkpt lat="36.709526" lon="-4.577118">
        <ele>43.274</ele>
        <time>2021-06-16T18:14:09Z</time>
      </trkpt>
      <trkpt lat="36.709456" lon="-4.576981">
        <ele>42.844</ele>
        <time>2021-06-16T18:14:10Z</time>
      </trkpt>
      <trkpt lat="36.709316" lon="-4.576703">
        <ele>43.290</ele>
        <time>2021-06-16T18:14:12Z</time>
      </trkpt>
      <trkpt lat="36.709165" lon="-4.576441">
        <ele>43.812</ele>
        <time>2021-06-16T18:14:14Z</time>
      </trkpt>
      <trkpt lat="36.708979" lon="-4.576216">
        <ele>44.361</ele>
        <time>2021-06-16T18:14:16Z</time>
      </trkpt>
      <trkpt lat="36.70876" lon="-4.576023">
        <ele>44.555</ele>
        <time>2021-06-16T18:14:18Z</time>
      </trkpt>
      <trkpt lat="36.708642" lon="-4.575937">
        <ele>44.328</ele>
        <time>2021-06-16T18:14:19Z</time>
      </trkpt>
      <trkpt lat="36.70852" lon="-4.575858">
        <ele>44.089</ele>
        <time>2021-06-16T18:14:20Z</time>
      </trkpt>
      <trkpt lat="36.70827" lon="-4.575716">
        <ele>43.317</ele>
        <time>2021-06-16T18:14:22Z</time>
      </trkpt>
      <trkpt lat="36.708028" lon="-4.575586">
        <ele>42.408</ele>
        <time>2021-06-16T18:14:24Z</time>
      </trkpt>
      <trkpt lat="36.707908" lon="-4.575523">
        <ele>41.999</ele>
        <time>2021-06-16T18:14:25Z</time>
      </trkpt>
      <trkpt lat="36.707674" lon="-4.575391">
        <ele>41.138</ele>
        <time>2021-06-16T18:14:27Z</time>
      </trkpt>
      <trkpt lat="36.707436" lon="-4.575261">
        <ele>40.772</ele>
        <time>2021-06-16T18:14:29Z</time>
      </trkpt>
      <trkpt lat="36.707315" lon="-4.575192">
        <ele>40.032</ele>
        <time>2021-06-16T18:14:30Z</time>
      </trkpt>
      <trkpt lat="36.707071" lon="-4.575058">
        <ele>39.748</ele>
        <time>2021-06-16T18:14:32Z</time>
      </trkpt>
      <trkpt lat="36.706824" lon="-4.574922">
        <ele>39.510</ele>
        <time>2021-06-16T18:14:34Z</time>
      </trkpt>
      <trkpt lat="36.706579" lon="-4.574784">
        <ele>39.189</ele>
        <time>2021-06-16T18:14:36Z</time>
      </trkpt>
      <trkpt lat="36.706339" lon="-4.574641">
        <ele>38.923</ele>
        <time>2021-06-16T18:14:38Z</time>
      </trkpt>
      <trkpt lat="36.706105" lon="-4.574474">
        <ele>38.588</ele>
        <time>2021-06-16T18:14:40Z</time>
      </trkpt>
      <trkpt lat="36.705991" lon="-4.574384">
        <ele>38.324</ele>
        <time>2021-06-16T18:14:41Z</time>
      </trkpt>
      <trkpt lat="36.705775" lon="-4.574196">
        <ele>37.626</ele>
        <time>2021-06-16T18:14:43Z</time>
      </trkpt>
      <trkpt lat="36.705668" lon="-4.574094">
        <ele>37.308</ele>
        <time>2021-06-16T18:14:44Z</time>
      </trkpt>
      <trkpt lat="36.705465" lon="-4.573885">
        <ele>37.095</ele>
        <time>2021-06-16T18:14:46Z</time>
      </trkpt>
      <trkpt lat="36.70527" lon="-4.573678">
        <ele>37.364</ele>
        <time>2021-06-16T18:14:48Z</time>
      </trkpt>
      <trkpt lat="36.705171" lon="-4.573576">
        <ele>38.268</ele>
        <time>2021-06-16T18:14:49Z</time>
      </trkpt>
      <trkpt lat="36.704973" lon="-4.573377">
        <ele>38.918</ele>
        <time>2021-06-16T18:14:51Z</time>
      </trkpt>
      <trkpt lat="36.704869" lon="-4.573279">
        <ele>39.214</ele>
        <time>2021-06-16T18:14:52Z</time>
      </trkpt>
      <trkpt lat="36.704767" lon="-4.573177">
        <ele>39.356</ele>
        <time>2021-06-16T18:14:53Z</time>
      </trkpt>
      <trkpt lat="36.70457" lon="-4.572969">
        <ele>39.295</ele>
        <time>2021-06-16T18:14:55Z</time>
      </trkpt>
      <trkpt lat="36.704473" lon="-4.572867">
        <ele>39.279</ele>
        <time>2021-06-16T18:14:56Z</time>
      </trkpt>
      <trkpt lat="36.704373" lon="-4.572765">
        <ele>39.351</ele>
        <time>2021-06-16T18:14:57Z</time>
      </trkpt>
      <trkpt lat="36.704274" lon="-4.572661">
        <ele>39.601</ele>
        <time>2021-06-16T18:14:58Z</time>
      </trkpt>
      <trkpt lat="36.704073" lon="-4.572457">
        <ele>40.211</ele>
        <time>2021-06-16T18:15:00Z</time>
      </trkpt>
      <trkpt lat="36.703877" lon="-4.572255">
        <ele>40.608</ele>
        <time>2021-06-16T18:15:02Z</time>
      </trkpt>
      <trkpt lat="36.70368" lon="-4.572056">
        <ele>41.572</ele>
        <time>2021-06-16T18:15:04Z</time>
      </trkpt>
      <trkpt lat="36.703484" lon="-4.571865">
        <ele>42.051</ele>
        <time>2021-06-16T18:15:06Z</time>
      </trkpt>
      <trkpt lat="36.703295" lon="-4.571684">
        <ele>42.265</ele>
        <time>2021-06-16T18:15:08Z</time>
      </trkpt>
      <trkpt lat="36.703197" lon="-4.571593">
        <ele>42.725</ele>
        <time>2021-06-16T18:15:09Z</time>
      </trkpt>
      <trkpt lat="36.703003" lon="-4.571392">
        <ele>42.141</ele>
        <time>2021-06-16T18:15:11Z</time>
      </trkpt>
      <trkpt lat="36.702804" lon="-4.571189">
        <ele>42.223</ele>
        <time>2021-06-16T18:15:13Z</time>
      </trkpt>
      <trkpt lat="36.7027" lon="-4.571088">
        <ele>42.452</ele>
        <time>2021-06-16T18:15:14Z</time>
      </trkpt>
      <trkpt lat="36.702595" lon="-4.570989">
        <ele>42.956</ele>
        <time>2021-06-16T18:15:15Z</time>
      </trkpt>
      <trkpt lat="36.702372" lon="-4.570794">
        <ele>43.672</ele>
        <time>2021-06-16T18:15:17Z</time>
      </trkpt>
      <trkpt lat="36.702266" lon="-4.570695">
        <ele>43.913</ele>
        <time>2021-06-16T18:15:18Z</time>
      </trkpt>
      <trkpt lat="36.702072" lon="-4.570512">
        <ele>42.614</ele>
        <time>2021-06-16T18:15:20Z</time>
      </trkpt>
      <trkpt lat="36.701872" lon="-4.57033">
        <ele>41.808</ele>
        <time>2021-06-16T18:15:22Z</time>
      </trkpt>
      <trkpt lat="36.701661" lon="-4.570147">
        <ele>41.234</ele>
        <time>2021-06-16T18:15:24Z</time>
      </trkpt>
      <trkpt lat="36.701554" lon="-4.570053">
        <ele>40.963</ele>
        <time>2021-06-16T18:15:25Z</time>
      </trkpt>
      <trkpt lat="36.701446" lon="-4.569962">
        <ele>40.567</ele>
        <time>2021-06-16T18:15:26Z</time>
      </trkpt>
      <trkpt lat="36.701238" lon="-4.569778">
        <ele>40.357</ele>
        <time>2021-06-16T18:15:28Z</time>
      </trkpt>
      <trkpt lat="36.701134" lon="-4.569683">
        <ele>40.223</ele>
        <time>2021-06-16T18:15:29Z</time>
      </trkpt>
      <trkpt lat="36.700923" lon="-4.569504">
        <ele>39.795</ele>
        <time>2021-06-16T18:15:31Z</time>
      </trkpt>
      <trkpt lat="36.700816" lon="-4.569414">
        <ele>39.144</ele>
        <time>2021-06-16T18:15:32Z</time>
      </trkpt>
      <trkpt lat="36.700599" lon="-4.569229">
        <ele>38.888</ele>
        <time>2021-06-16T18:15:34Z</time>
      </trkpt>
      <trkpt lat="36.70049" lon="-4.569135">
        <ele>38.755</ele>
        <time>2021-06-16T18:15:35Z</time>
      </trkpt>
      <trkpt lat="36.700274" lon="-4.568953">
        <ele>38.807</ele>
        <time>2021-06-16T18:15:37Z</time>
      </trkpt>
      <trkpt lat="36.700069" lon="-4.568761">
        <ele>38.717</ele>
        <time>2021-06-16T18:15:39Z</time>
      </trkpt>
      <trkpt lat="36.699865" lon="-4.568574">
        <ele>38.508</ele>
        <time>2021-06-16T18:15:41Z</time>
      </trkpt>
      <trkpt lat="36.699662" lon="-4.568407">
        <ele>38.852</ele>
        <time>2021-06-16T18:15:43Z</time>
      </trkpt>
      <trkpt lat="36.69956" lon="-4.568319">
        <ele>39.281</ele>
        <time>2021-06-16T18:15:44Z</time>
      </trkpt>
      <trkpt lat="36.699355" lon="-4.56814">
        <ele>39.465</ele>
        <time>2021-06-16T18:15:46Z</time>
      </trkpt>
      <trkpt lat="36.699164" lon="-4.567954">
        <ele>39.565</ele>
        <time>2021-06-16T18:15:48Z</time>
      </trkpt>
      <trkpt lat="36.698993" lon="-4.567778">
        <ele>39.421</ele>
        <time>2021-06-16T18:15:50Z</time>
      </trkpt>
      <trkpt lat="36.698847" lon="-4.56761">
        <ele>40.053</ele>
        <time>2021-06-16T18:15:52Z</time>
      </trkpt>
      <trkpt lat="36.698783" lon="-4.567529">
        <ele>40.252</ele>
        <time>2021-06-16T18:15:53Z</time>
      </trkpt>
      <trkpt lat="36.698667" lon="-4.56737">
        <ele>40.686</ele>
        <time>2021-06-16T18:15:55Z</time>
      </trkpt>
      <trkpt lat="36.698614" lon="-4.567296">
        <ele>40.633</ele>
        <time>2021-06-16T18:15:56Z</time>
      </trkpt>
      <trkpt lat="36.698566" lon="-4.567223">
        <ele>40.923</ele>
        <time>2021-06-16T18:15:57Z</time>
      </trkpt>
      <trkpt lat="36.698489" lon="-4.567104">
        <ele>41.615</ele>
        <time>2021-06-16T18:15:59Z</time>
      </trkpt>
      <trkpt lat="36.698438" lon="-4.567009">
        <ele>41.608</ele>
        <time>2021-06-16T18:16:01Z</time>
      </trkpt>
      <trkpt lat="36.698406" lon="-4.566957">
        <ele>41.120</ele>
        <time>2021-06-16T18:16:03Z</time>
      </trkpt>
      <trkpt lat="36.698366" lon="-4.566909">
        <ele>41.069</ele>
        <time>2021-06-16T18:16:05Z</time>
      </trkpt>
      <trkpt lat="36.698322" lon="-4.56682">
        <ele>40.863</ele>
        <time>2021-06-16T18:16:07Z</time>
      </trkpt>
      <trkpt lat="36.698256" lon="-4.56671">
        <ele>40.923</ele>
        <time>2021-06-16T18:16:09Z</time>
      </trkpt>
      <trkpt lat="36.698174" lon="-4.566576">
        <ele>41.749</ele>
        <time>2021-06-16T18:16:11Z</time>
      </trkpt>
      <trkpt lat="36.698088" lon="-4.566431">
        <ele>42.471</ele>
        <time>2021-06-16T18:16:13Z</time>
      </trkpt>
      <trkpt lat="36.697999" lon="-4.566294">
        <ele>42.870</ele>
        <time>2021-06-16T18:16:15Z</time>
      </trkpt>
      <trkpt lat="36.697951" lon="-4.566223">
        <ele>43.274</ele>
        <time>2021-06-16T18:16:16Z</time>
      </trkpt>
      <trkpt lat="36.697854" lon="-4.566064">
        <ele>43.756</ele>
        <time>2021-06-16T18:16:18Z</time>
      </trkpt>
      <trkpt lat="36.697804" lon="-4.565981">
        <ele>44.359</ele>
        <time>2021-06-16T18:16:19Z</time>
      </trkpt>
      <trkpt lat="36.697751" lon="-4.565895">
        <ele>44.514</ele>
        <time>2021-06-16T18:16:20Z</time>
      </trkpt>
      <trkpt lat="36.697696" lon="-4.565808">
        <ele>44.708</ele>
        <time>2021-06-16T18:16:21Z</time>
      </trkpt>
      <trkpt lat="36.697586" lon="-4.565623">
        <ele>44.722</ele>
        <time>2021-06-16T18:16:23Z</time>
      </trkpt>
      <trkpt lat="36.697533" lon="-4.565532">
        <ele>44.931</ele>
        <time>2021-06-16T18:16:24Z</time>
      </trkpt>
      <trkpt lat="36.697441" lon="-4.565382">
        <ele>45.115</ele>
        <time>2021-06-16T18:16:26Z</time>
      </trkpt>
      <trkpt lat="36.697399" lon="-4.565312">
        <ele>45.495</ele>
        <time>2021-06-16T18:16:27Z</time>
      </trkpt>
      <trkpt lat="36.697356" lon="-4.565244">
        <ele>45.461</ele>
        <time>2021-06-16T18:16:28Z</time>
      </trkpt>
      <trkpt lat="36.697263" lon="-4.565094">
        <ele>45.573</ele>
        <time>2021-06-16T18:16:30Z</time>
      </trkpt>
      <trkpt lat="36.697213" lon="-4.565013">
        <ele>45.712</ele>
        <time>2021-06-16T18:16:31Z</time>
      </trkpt>
      <trkpt lat="36.697162" lon="-4.564926">
        <ele>45.656</ele>
        <time>2021-06-16T18:16:32Z</time>
      </trkpt>
      <trkpt lat="36.697042" lon="-4.564736">
        <ele>45.494</ele>
        <time>2021-06-16T18:16:34Z</time>
      </trkpt>
      <trkpt lat="36.69698" lon="-4.564631">
        <ele>44.957</ele>
        <time>2021-06-16T18:16:35Z</time>
      </trkpt>
      <trkpt lat="36.696849" lon="-4.564414">
        <ele>44.822</ele>
        <time>2021-06-16T18:16:37Z</time>
      </trkpt>
      <trkpt lat="36.696722" lon="-4.564204">
        <ele>44.908</ele>
        <time>2021-06-16T18:16:39Z</time>
      </trkpt>
      <trkpt lat="36.696653" lon="-4.564097">
        <ele>44.926</ele>
        <time>2021-06-16T18:16:40Z</time>
      </trkpt>
      <trkpt lat="36.696586" lon="-4.563983">
        <ele>44.965</ele>
        <time>2021-06-16T18:16:41Z</time>
      </trkpt>
      <trkpt lat="36.696514" lon="-4.563868">
        <ele>44.829</ele>
        <time>2021-06-16T18:16:42Z</time>
      </trkpt>
      <trkpt lat="36.69644" lon="-4.563751">
        <ele>44.789</ele>
        <time>2021-06-16T18:16:43Z</time>
      </trkpt>
      <trkpt lat="36.696292" lon="-4.563519">
        <ele>44.855</ele>
        <time>2021-06-16T18:16:45Z</time>
      </trkpt>
      <trkpt lat="36.696215" lon="-4.563407">
        <ele>44.887</ele>
        <time>2021-06-16T18:16:46Z</time>
      </trkpt>
      <trkpt lat="36.696064" lon="-4.563182">
        <ele>44.586</ele>
        <time>2021-06-16T18:16:48Z</time>
      </trkpt>
      <trkpt lat="36.695916" lon="-4.562954">
        <ele>44.110</ele>
        <time>2021-06-16T18:16:50Z</time>
      </trkpt>
      <trkpt lat="36.69584" lon="-4.562836">
        <ele>43.728</ele>
        <time>2021-06-16T18:16:51Z</time>
      </trkpt>
      <trkpt lat="36.695682" lon="-4.562604">
        <ele>43.289</ele>
        <time>2021-06-16T18:16:53Z</time>
      </trkpt>
      <trkpt lat="36.695603" lon="-4.562487">
        <ele>43.117</ele>
        <time>2021-06-16T18:16:54Z</time>
      </trkpt>
      <trkpt lat="36.695524" lon="-4.562366">
        <ele>42.608</ele>
        <time>2021-06-16T18:16:55Z</time>
      </trkpt>
      <trkpt lat="36.695365" lon="-4.562121">
        <ele>42.329</ele>
        <time>2021-06-16T18:16:57Z</time>
      </trkpt>
      <trkpt lat="36.695283" lon="-4.561999">
        <ele>42.138</ele>
        <time>2021-06-16T18:16:58Z</time>
      </trkpt>
      <trkpt lat="36.695121" lon="-4.561759">
        <ele>41.982</ele>
        <time>2021-06-16T18:17:00Z</time>
      </trkpt>
      <trkpt lat="36.695041" lon="-4.561642">
        <ele>41.822</ele>
        <time>2021-06-16T18:17:01Z</time>
      </trkpt>
      <trkpt lat="36.694887" lon="-4.561408">
        <ele>41.518</ele>
        <time>2021-06-16T18:17:03Z</time>
      </trkpt>
      <trkpt lat="36.694734" lon="-4.561169">
        <ele>41.460</ele>
        <time>2021-06-16T18:17:05Z</time>
      </trkpt>
      <trkpt lat="36.694577" lon="-4.560928">
        <ele>41.499</ele>
        <time>2021-06-16T18:17:07Z</time>
      </trkpt>
      <trkpt lat="36.694421" lon="-4.56069">
        <ele>41.463</ele>
        <time>2021-06-16T18:17:09Z</time>
      </trkpt>
      <trkpt lat="36.69434" lon="-4.560569">
        <ele>41.339</ele>
        <time>2021-06-16T18:17:10Z</time>
      </trkpt>
      <trkpt lat="36.694261" lon="-4.560448">
        <ele>41.201</ele>
        <time>2021-06-16T18:17:11Z</time>
      </trkpt>
      <trkpt lat="36.694104" lon="-4.560205">
        <ele>41.021</ele>
        <time>2021-06-16T18:17:13Z</time>
      </trkpt>
      <trkpt lat="36.693946" lon="-4.559959">
        <ele>40.808</ele>
        <time>2021-06-16T18:17:15Z</time>
      </trkpt>
      <trkpt lat="36.693785" lon="-4.559715">
        <ele>40.690</ele>
        <time>2021-06-16T18:17:17Z</time>
      </trkpt>
      <trkpt lat="36.693625" lon="-4.559472">
        <ele>40.669</ele>
        <time>2021-06-16T18:17:19Z</time>
      </trkpt>
      <trkpt lat="36.693545" lon="-4.559353">
        <ele>40.483</ele>
        <time>2021-06-16T18:17:20Z</time>
      </trkpt>
      <trkpt lat="36.693388" lon="-4.559114">
        <ele>40.383</ele>
        <time>2021-06-16T18:17:22Z</time>
      </trkpt>
      <trkpt lat="36.693308" lon="-4.558995">
        <ele>41.049</ele>
        <time>2021-06-16T18:17:23Z</time>
      </trkpt>
      <trkpt lat="36.693233" lon="-4.558879">
        <ele>41.011</ele>
        <time>2021-06-16T18:17:24Z</time>
      </trkpt>
      <trkpt lat="36.693102" lon="-4.558678">
        <ele>41.130</ele>
        <time>2021-06-16T18:17:26Z</time>
      </trkpt>
      <trkpt lat="36.693053" lon="-4.558604">
        <ele>41.234</ele>
        <time>2021-06-16T18:17:27Z</time>
      </trkpt>
      <trkpt lat="36.693011" lon="-4.55854">
        <ele>41.597</ele>
        <time>2021-06-16T18:17:28Z</time>
      </trkpt>
      <trkpt lat="36.692932" lon="-4.558419">
        <ele>41.623</ele>
        <time>2021-06-16T18:17:30Z</time>
      </trkpt>
      <trkpt lat="36.692849" lon="-4.558296">
        <ele>41.725</ele>
        <time>2021-06-16T18:17:32Z</time>
      </trkpt>
      <trkpt lat="36.692802" lon="-4.558226">
        <ele>41.508</ele>
        <time>2021-06-16T18:17:33Z</time>
      </trkpt>
      <trkpt lat="36.692754" lon="-4.55815">
        <ele>41.776</ele>
        <time>2021-06-16T18:17:34Z</time>
      </trkpt>
      <trkpt lat="36.692652" lon="-4.557993">
        <ele>41.345</ele>
        <time>2021-06-16T18:17:36Z</time>
      </trkpt>
      <trkpt lat="36.692533" lon="-4.557817">
        <ele>41.639</ele>
        <time>2021-06-16T18:17:38Z</time>
      </trkpt>
      <trkpt lat="36.692473" lon="-4.557717">
        <ele>41.569</ele>
        <time>2021-06-16T18:17:39Z</time>
      </trkpt>
      <trkpt lat="36.692352" lon="-4.557516">
        <ele>41.475</ele>
        <time>2021-06-16T18:17:41Z</time>
      </trkpt>
      <trkpt lat="36.692289" lon="-4.557416">
        <ele>41.437</ele>
        <time>2021-06-16T18:17:42Z</time>
      </trkpt>
      <trkpt lat="36.692225" lon="-4.557315">
        <ele>41.556</ele>
        <time>2021-06-16T18:17:43Z</time>
      </trkpt>
      <trkpt lat="36.692162" lon="-4.55721">
        <ele>41.560</ele>
        <time>2021-06-16T18:17:44Z</time>
      </trkpt>
      <trkpt lat="36.692033" lon="-4.556991">
        <ele>41.486</ele>
        <time>2021-06-16T18:17:46Z</time>
      </trkpt>
      <trkpt lat="36.691966" lon="-4.556878">
        <ele>41.360</ele>
        <time>2021-06-16T18:17:47Z</time>
      </trkpt>
      <trkpt lat="36.6919" lon="-4.556761">
        <ele>41.226</ele>
        <time>2021-06-16T18:17:48Z</time>
      </trkpt>
      <trkpt lat="36.691764" lon="-4.556522">
        <ele>41.208</ele>
        <time>2021-06-16T18:17:50Z</time>
      </trkpt>
      <trkpt lat="36.691692" lon="-4.5564">
        <ele>40.945</ele>
        <time>2021-06-16T18:17:51Z</time>
      </trkpt>
      <trkpt lat="36.69162" lon="-4.556274">
        <ele>40.384</ele>
        <time>2021-06-16T18:17:52Z</time>
      </trkpt>
      <trkpt lat="36.691549" lon="-4.556147">
        <ele>39.888</ele>
        <time>2021-06-16T18:17:53Z</time>
      </trkpt>
      <trkpt lat="36.69141" lon="-4.555892">
        <ele>39.518</ele>
        <time>2021-06-16T18:17:55Z</time>
      </trkpt>
      <trkpt lat="36.691273" lon="-4.555638">
        <ele>38.714</ele>
        <time>2021-06-16T18:17:57Z</time>
      </trkpt>
      <trkpt lat="36.691202" lon="-4.555506">
        <ele>38.026</ele>
        <time>2021-06-16T18:17:58Z</time>
      </trkpt>
      <trkpt lat="36.691059" lon="-4.555248">
        <ele>37.355</ele>
        <time>2021-06-16T18:18:00Z</time>
      </trkpt>
      <trkpt lat="36.690987" lon="-4.555121">
        <ele>36.789</ele>
        <time>2021-06-16T18:18:01Z</time>
      </trkpt>
      <trkpt lat="36.690914" lon="-4.554993">
        <ele>36.042</ele>
        <time>2021-06-16T18:18:02Z</time>
      </trkpt>
      <trkpt lat="36.69077" lon="-4.554733">
        <ele>35.322</ele>
        <time>2021-06-16T18:18:04Z</time>
      </trkpt>
      <trkpt lat="36.690622" lon="-4.554467">
        <ele>34.814</ele>
        <time>2021-06-16T18:18:06Z</time>
      </trkpt>
      <trkpt lat="36.690546" lon="-4.554331">
        <ele>34.508</ele>
        <time>2021-06-16T18:18:07Z</time>
      </trkpt>
      <trkpt lat="36.690397" lon="-4.554061">
        <ele>33.931</ele>
        <time>2021-06-16T18:18:09Z</time>
      </trkpt>
      <trkpt lat="36.690244" lon="-4.55379">
        <ele>33.650</ele>
        <time>2021-06-16T18:18:11Z</time>
      </trkpt>
      <trkpt lat="36.690162" lon="-4.553655">
        <ele>33.264</ele>
        <time>2021-06-16T18:18:12Z</time>
      </trkpt>
      <trkpt lat="36.689988" lon="-4.553395">
        <ele>32.634</ele>
        <time>2021-06-16T18:18:14Z</time>
      </trkpt>
      <trkpt lat="36.689892" lon="-4.553274">
        <ele>32.870</ele>
        <time>2021-06-16T18:18:15Z</time>
      </trkpt>
      <trkpt lat="36.689687" lon="-4.553051">
        <ele>33.152</ele>
        <time>2021-06-16T18:18:17Z</time>
      </trkpt>
      <trkpt lat="36.689471" lon="-4.552856">
        <ele>33.291</ele>
        <time>2021-06-16T18:18:19Z</time>
      </trkpt>
      <trkpt lat="36.68936" lon="-4.552768">
        <ele>33.625</ele>
        <time>2021-06-16T18:18:20Z</time>
      </trkpt>
      <trkpt lat="36.689247" lon="-4.552686">
        <ele>33.581</ele>
        <time>2021-06-16T18:18:21Z</time>
      </trkpt>
      <trkpt lat="36.689017" lon="-4.552536">
        <ele>33.461</ele>
        <time>2021-06-16T18:18:23Z</time>
      </trkpt>
      <trkpt lat="36.688903" lon="-4.552463">
        <ele>33.517</ele>
        <time>2021-06-16T18:18:24Z</time>
      </trkpt>
      <trkpt lat="36.688675" lon="-4.552314">
        <ele>33.908</ele>
        <time>2021-06-16T18:18:26Z</time>
      </trkpt>
      <trkpt lat="36.688562" lon="-4.552237">
        <ele>34.315</ele>
        <time>2021-06-16T18:18:27Z</time>
      </trkpt>
      <trkpt lat="36.688449" lon="-4.552165">
        <ele>35.044</ele>
        <time>2021-06-16T18:18:28Z</time>
      </trkpt>
      <trkpt lat="36.688224" lon="-4.552032">
        <ele>35.938</ele>
        <time>2021-06-16T18:18:30Z</time>
      </trkpt>
      <trkpt lat="36.68811" lon="-4.551967">
        <ele>36.768</ele>
        <time>2021-06-16T18:18:31Z</time>
      </trkpt>
      <trkpt lat="36.687998" lon="-4.5519">
        <ele>37.394</ele>
        <time>2021-06-16T18:18:32Z</time>
      </trkpt>
      <trkpt lat="36.68777" lon="-4.551759">
        <ele>38.166</ele>
        <time>2021-06-16T18:18:34Z</time>
      </trkpt>
      <trkpt lat="36.687551" lon="-4.551622">
        <ele>38.445</ele>
        <time>2021-06-16T18:18:36Z</time>
      </trkpt>
      <trkpt lat="36.687339" lon="-4.551488">
        <ele>38.549</ele>
        <time>2021-06-16T18:18:38Z</time>
      </trkpt>
      <trkpt lat="36.68712" lon="-4.551348">
        <ele>38.515</ele>
        <time>2021-06-16T18:18:40Z</time>
      </trkpt>
      <trkpt lat="36.68701" lon="-4.551279">
        <ele>38.765</ele>
        <time>2021-06-16T18:18:41Z</time>
      </trkpt>
      <trkpt lat="36.686904" lon="-4.551205">
        <ele>38.311</ele>
        <time>2021-06-16T18:18:42Z</time>
      </trkpt>
      <trkpt lat="36.686801" lon="-4.551127">
        <ele>37.808</ele>
        <time>2021-06-16T18:18:43Z</time>
      </trkpt>
      <trkpt lat="36.686598" lon="-4.550956">
        <ele>37.428</ele>
        <time>2021-06-16T18:18:45Z</time>
      </trkpt>
      <trkpt lat="36.686497" lon="-4.550859">
        <ele>36.967</ele>
        <time>2021-06-16T18:18:46Z</time>
      </trkpt>
      <trkpt lat="36.686312" lon="-4.550635">
        <ele>36.391</ele>
        <time>2021-06-16T18:18:48Z</time>
      </trkpt>
      <trkpt lat="36.686153" lon="-4.550374">
        <ele>35.431</ele>
        <time>2021-06-16T18:18:50Z</time>
      </trkpt>
      <trkpt lat="36.686027" lon="-4.550095">
        <ele>34.217</ele>
        <time>2021-06-16T18:18:52Z</time>
      </trkpt>
      <trkpt lat="36.685941" lon="-4.54981">
        <ele>33.389</ele>
        <time>2021-06-16T18:18:54Z</time>
      </trkpt>
      <trkpt lat="36.685905" lon="-4.54966">
        <ele>32.978</ele>
        <time>2021-06-16T18:18:55Z</time>
      </trkpt>
      <trkpt lat="36.685834" lon="-4.54936">
        <ele>32.292</ele>
        <time>2021-06-16T18:18:57Z</time>
      </trkpt>
      <trkpt lat="36.685798" lon="-4.54921">
        <ele>32.233</ele>
        <time>2021-06-16T18:18:58Z</time>
      </trkpt>
      <trkpt lat="36.685759" lon="-4.549059">
        <ele>32.123</ele>
        <time>2021-06-16T18:18:59Z</time>
      </trkpt>
      <trkpt lat="36.685687" lon="-4.548754">
        <ele>31.915</ele>
        <time>2021-06-16T18:19:01Z</time>
      </trkpt>
      <trkpt lat="36.685651" lon="-4.548603">
        <ele>31.708</ele>
        <time>2021-06-16T18:19:02Z</time>
      </trkpt>
      <trkpt lat="36.685616" lon="-4.548453">
        <ele>31.360</ele>
        <time>2021-06-16T18:19:03Z</time>
      </trkpt>
      <trkpt lat="36.68558" lon="-4.548303">
        <ele>31.179</ele>
        <time>2021-06-16T18:19:04Z</time>
      </trkpt>
      <trkpt lat="36.685508" lon="-4.548004">
        <ele>31.363</ele>
        <time>2021-06-16T18:19:06Z</time>
      </trkpt>
      <trkpt lat="36.685471" lon="-4.547851">
        <ele>31.563</ele>
        <time>2021-06-16T18:19:07Z</time>
      </trkpt>
      <trkpt lat="36.685394" lon="-4.547543">
        <ele>31.719</ele>
        <time>2021-06-16T18:19:09Z</time>
      </trkpt>
      <trkpt lat="36.685355" lon="-4.547389">
        <ele>32.091</ele>
        <time>2021-06-16T18:19:10Z</time>
      </trkpt>
      <trkpt lat="36.685276" lon="-4.547075">
        <ele>32.670</ele>
        <time>2021-06-16T18:19:12Z</time>
      </trkpt>
      <trkpt lat="36.685236" lon="-4.546918">
        <ele>33.184</ele>
        <time>2021-06-16T18:19:13Z</time>
      </trkpt>
      <trkpt lat="36.685197" lon="-4.546762">
        <ele>33.018</ele>
        <time>2021-06-16T18:19:14Z</time>
      </trkpt>
      <trkpt lat="36.685158" lon="-4.546606">
        <ele>33.198</ele>
        <time>2021-06-16T18:19:15Z</time>
      </trkpt>
      <trkpt lat="36.685086" lon="-4.546294">
        <ele>33.617</ele>
        <time>2021-06-16T18:19:17Z</time>
      </trkpt>
      <trkpt lat="36.685012" lon="-4.545973">
        <ele>34.308</ele>
        <time>2021-06-16T18:19:19Z</time>
      </trkpt>
      <trkpt lat="36.684972" lon="-4.545817">
        <ele>35.018</ele>
        <time>2021-06-16T18:19:20Z</time>
      </trkpt>
      <trkpt lat="36.684931" lon="-4.545661">
        <ele>35.377</ele>
        <time>2021-06-16T18:19:21Z</time>
      </trkpt>
      <trkpt lat="36.684852" lon="-4.545351">
        <ele>35.441</ele>
        <time>2021-06-16T18:19:23Z</time>
      </trkpt>
      <trkpt lat="36.684814" lon="-4.545195">
        <ele>35.761</ele>
        <time>2021-06-16T18:19:24Z</time>
      </trkpt>
      <trkpt lat="36.684777" lon="-4.54504">
        <ele>36.287</ele>
        <time>2021-06-16T18:19:25Z</time>
      </trkpt>
      <trkpt lat="36.684739" lon="-4.544885">
        <ele>36.769</ele>
        <time>2021-06-16T18:19:26Z</time>
      </trkpt>
      <trkpt lat="36.684663" lon="-4.54459">
        <ele>36.938</ele>
        <time>2021-06-16T18:19:28Z</time>
      </trkpt>
      <trkpt lat="36.684627" lon="-4.544442">
        <ele>37.172</ele>
        <time>2021-06-16T18:19:29Z</time>
      </trkpt>
      <trkpt lat="36.684593" lon="-4.544292">
        <ele>37.164</ele>
        <time>2021-06-16T18:19:30Z</time>
      </trkpt>
      <trkpt lat="36.684559" lon="-4.54414">
        <ele>37.306</ele>
        <time>2021-06-16T18:19:31Z</time>
      </trkpt>
      <trkpt lat="36.684488" lon="-4.543841">
        <ele>37.016</ele>
        <time>2021-06-16T18:19:33Z</time>
      </trkpt>
      <trkpt lat="36.684413" lon="-4.543537">
        <ele>37.008</ele>
        <time>2021-06-16T18:19:35Z</time>
      </trkpt>
      <trkpt lat="36.684375" lon="-4.543382">
        <ele>36.823</ele>
        <time>2021-06-16T18:19:36Z</time>
      </trkpt>
      <trkpt lat="36.684295" lon="-4.543072">
        <ele>36.562</ele>
        <time>2021-06-16T18:19:38Z</time>
      </trkpt>
      <trkpt lat="36.684257" lon="-4.542916">
        <ele>36.586</ele>
        <time>2021-06-16T18:19:39Z</time>
      </trkpt>
      <trkpt lat="36.68422" lon="-4.542762">
        <ele>36.016</ele>
        <time>2021-06-16T18:19:40Z</time>
      </trkpt>
      <trkpt lat="36.684143" lon="-4.542452">
        <ele>35.472</ele>
        <time>2021-06-16T18:19:42Z</time>
      </trkpt>
      <trkpt lat="36.684105" lon="-4.542298">
        <ele>34.934</ele>
        <time>2021-06-16T18:19:43Z</time>
      </trkpt>
      <trkpt lat="36.684028" lon="-4.54199">
        <ele>34.753</ele>
        <time>2021-06-16T18:19:45Z</time>
      </trkpt>
      <trkpt lat="36.683954" lon="-4.54168">
        <ele>34.447</ele>
        <time>2021-06-16T18:19:47Z</time>
      </trkpt>
      <trkpt lat="36.683876" lon="-4.541368">
        <ele>33.824</ele>
        <time>2021-06-16T18:19:49Z</time>
      </trkpt>
      <trkpt lat="36.683801" lon="-4.541049">
        <ele>33.504</ele>
        <time>2021-06-16T18:19:51Z</time>
      </trkpt>
      <trkpt lat="36.683725" lon="-4.540726">
        <ele>32.614</ele>
        <time>2021-06-16T18:19:53Z</time>
      </trkpt>
      <trkpt lat="36.683646" lon="-4.540408">
        <ele>32.208</ele>
        <time>2021-06-16T18:19:55Z</time>
      </trkpt>
      <trkpt lat="36.683607" lon="-4.540251">
        <ele>31.939</ele>
        <time>2021-06-16T18:19:56Z</time>
      </trkpt>
      <trkpt lat="36.683567" lon="-4.540095">
        <ele>31.658</ele>
        <time>2021-06-16T18:19:57Z</time>
      </trkpt>
      <trkpt lat="36.683493" lon="-4.539788">
        <ele>31.892</ele>
        <time>2021-06-16T18:19:59Z</time>
      </trkpt>
      <trkpt lat="36.683454" lon="-4.539637">
        <ele>31.882</ele>
        <time>2021-06-16T18:20:00Z</time>
      </trkpt>
      <trkpt lat="36.683416" lon="-4.539487">
        <ele>32.278</ele>
        <time>2021-06-16T18:20:01Z</time>
      </trkpt>
      <trkpt lat="36.683347" lon="-4.53919">
        <ele>32.940</ele>
        <time>2021-06-16T18:20:03Z</time>
      </trkpt>
      <trkpt lat="36.683278" lon="-4.538897">
        <ele>33.459</ele>
        <time>2021-06-16T18:20:05Z</time>
      </trkpt>
      <trkpt lat="36.683215" lon="-4.538631">
        <ele>33.823</ele>
        <time>2021-06-16T18:20:07Z</time>
      </trkpt>
      <trkpt lat="36.683149" lon="-4.538392">
        <ele>34.371</ele>
        <time>2021-06-16T18:20:09Z</time>
      </trkpt>
      <trkpt lat="36.683074" lon="-4.538173">
        <ele>34.641</ele>
        <time>2021-06-16T18:20:11Z</time>
      </trkpt>
      <trkpt lat="36.683034" lon="-4.538072">
        <ele>35.115</ele>
        <time>2021-06-16T18:20:12Z</time>
      </trkpt>
      <trkpt lat="36.68299" lon="-4.537978">
        <ele>35.508</ele>
        <time>2021-06-16T18:20:13Z</time>
      </trkpt>
      <trkpt lat="36.682899" lon="-4.537809">
        <ele>35.914</ele>
        <time>2021-06-16T18:20:15Z</time>
      </trkpt>
      <trkpt lat="36.682796" lon="-4.537677">
        <ele>36.373</ele>
        <time>2021-06-16T18:20:17Z</time>
      </trkpt>
      <trkpt lat="36.682675" lon="-4.537601">
        <ele>36.697</ele>
        <time>2021-06-16T18:20:19Z</time>
      </trkpt>
      <trkpt lat="36.682608" lon="-4.537574">
        <ele>37.027</ele>
        <time>2021-06-16T18:20:20Z</time>
      </trkpt>
      <trkpt lat="36.682501" lon="-4.537482">
        <ele>37.563</ele>
        <time>2021-06-16T18:20:22Z</time>
      </trkpt>
      <trkpt lat="36.682475" lon="-4.537414">
        <ele>37.565</ele>
        <time>2021-06-16T18:20:23Z</time>
      </trkpt>
      <trkpt lat="36.682437" lon="-4.537262">
        <ele>38.174</ele>
        <time>2021-06-16T18:20:25Z</time>
      </trkpt>
      <trkpt lat="36.682352" lon="-4.537111">
        <ele>38.998</ele>
        <time>2021-06-16T18:20:27Z</time>
      </trkpt>
      <trkpt lat="36.68222" lon="-4.536978">
        <ele>40.161</ele>
        <time>2021-06-16T18:20:29Z</time>
      </trkpt>
      <trkpt lat="36.682139" lon="-4.53692">
        <ele>40.821</ele>
        <time>2021-06-16T18:20:30Z</time>
      </trkpt>
      <trkpt lat="36.681969" lon="-4.536824">
        <ele>41.313</ele>
        <time>2021-06-16T18:20:32Z</time>
      </trkpt>
      <trkpt lat="36.68188" lon="-4.536776">
        <ele>41.408</ele>
        <time>2021-06-16T18:20:33Z</time>
      </trkpt>
      <trkpt lat="36.681787" lon="-4.536731">
        <ele>41.273</ele>
        <time>2021-06-16T18:20:34Z</time>
      </trkpt>
      <trkpt lat="36.681594" lon="-4.536651">
        <ele>41.692</ele>
        <time>2021-06-16T18:20:36Z</time>
      </trkpt>
      <trkpt lat="36.681388" lon="-4.536567">
        <ele>41.726</ele>
        <time>2021-06-16T18:20:38Z</time>
      </trkpt>
      <trkpt lat="36.681173" lon="-4.536484">
        <ele>41.926</ele>
        <time>2021-06-16T18:20:40Z</time>
      </trkpt>
      <trkpt lat="36.681062" lon="-4.536442">
        <ele>41.852</ele>
        <time>2021-06-16T18:20:41Z</time>
      </trkpt>
      <trkpt lat="36.680833" lon="-4.536355">
        <ele>42.084</ele>
        <time>2021-06-16T18:20:43Z</time>
      </trkpt>
      <trkpt lat="36.680602" lon="-4.536271">
        <ele>41.723</ele>
        <time>2021-06-16T18:20:45Z</time>
      </trkpt>
      <trkpt lat="36.680367" lon="-4.536188">
        <ele>41.177</ele>
        <time>2021-06-16T18:20:47Z</time>
      </trkpt>
      <trkpt lat="36.680252" lon="-4.536145">
        <ele>40.794</ele>
        <time>2021-06-16T18:20:48Z</time>
      </trkpt>
      <trkpt lat="36.680026" lon="-4.536057">
        <ele>40.857</ele>
        <time>2021-06-16T18:20:50Z</time>
      </trkpt>
      <trkpt lat="36.67991" lon="-4.536014">
        <ele>41.022</ele>
        <time>2021-06-16T18:20:51Z</time>
      </trkpt>
      <trkpt lat="36.679679" lon="-4.535924">
        <ele>41.008</ele>
        <time>2021-06-16T18:20:53Z</time>
      </trkpt>
      <trkpt lat="36.679557" lon="-4.535875">
        <ele>41.086</ele>
        <time>2021-06-16T18:20:54Z</time>
      </trkpt>
      <trkpt lat="36.679329" lon="-4.535782">
        <ele>41.025</ele>
        <time>2021-06-16T18:20:56Z</time>
      </trkpt>
      <trkpt lat="36.679209" lon="-4.535735">
        <ele>41.329</ele>
        <time>2021-06-16T18:20:57Z</time>
      </trkpt>
      <trkpt lat="36.678975" lon="-4.535649">
        <ele>41.269</ele>
        <time>2021-06-16T18:20:59Z</time>
      </trkpt>
      <trkpt lat="36.678741" lon="-4.535556">
        <ele>41.225</ele>
        <time>2021-06-16T18:21:01Z</time>
      </trkpt>
      <trkpt lat="36.678507" lon="-4.535469">
        <ele>41.127</ele>
        <time>2021-06-16T18:21:03Z</time>
      </trkpt>
      <trkpt lat="36.678389" lon="-4.535424">
        <ele>41.056</ele>
        <time>2021-06-16T18:21:04Z</time>
      </trkpt>
      <trkpt lat="36.678273" lon="-4.535382">
        <ele>41.020</ele>
        <time>2021-06-16T18:21:05Z</time>
      </trkpt>
      <trkpt lat="36.678047" lon="-4.535301">
        <ele>40.496</ele>
        <time>2021-06-16T18:21:07Z</time>
      </trkpt>
      <trkpt lat="36.677825" lon="-4.535216">
        <ele>40.231</ele>
        <time>2021-06-16T18:21:09Z</time>
      </trkpt>
      <trkpt lat="36.677604" lon="-4.535131">
        <ele>40.424</ele>
        <time>2021-06-16T18:21:11Z</time>
      </trkpt>
      <trkpt lat="36.677387" lon="-4.535036">
        <ele>40.608</ele>
        <time>2021-06-16T18:21:13Z</time>
      </trkpt>
      <trkpt lat="36.677182" lon="-4.534948">
        <ele>40.536</ele>
        <time>2021-06-16T18:21:15Z</time>
      </trkpt>
      <trkpt lat="36.677083" lon="-4.5349">
        <ele>40.325</ele>
        <time>2021-06-16T18:21:16Z</time>
      </trkpt>
      <trkpt lat="36.676883" lon="-4.534796">
        <ele>40.299</ele>
        <time>2021-06-16T18:21:18Z</time>
      </trkpt>
      <trkpt lat="36.676688" lon="-4.534694">
        <ele>40.699</ele>
        <time>2021-06-16T18:21:20Z</time>
      </trkpt>
      <trkpt lat="36.676599" lon="-4.534638">
        <ele>40.865</ele>
        <time>2021-06-16T18:21:21Z</time>
      </trkpt>
      <trkpt lat="36.676433" lon="-4.534519">
        <ele>41.287</ele>
        <time>2021-06-16T18:21:23Z</time>
      </trkpt>
      <trkpt lat="36.676287" lon="-4.534412">
        <ele>41.896</ele>
        <time>2021-06-16T18:21:25Z</time>
      </trkpt>
      <trkpt lat="36.67616" lon="-4.534305">
        <ele>42.450</ele>
        <time>2021-06-16T18:21:27Z</time>
      </trkpt>
      <trkpt lat="36.676104" lon="-4.534255">
        <ele>42.856</ele>
        <time>2021-06-16T18:21:28Z</time>
      </trkpt>
      <trkpt lat="36.676052" lon="-4.534208">
        <ele>43.159</ele>
        <time>2021-06-16T18:21:29Z</time>
      </trkpt>
      <trkpt lat="36.67595" lon="-4.534125">
        <ele>43.214</ele>
        <time>2021-06-16T18:21:31Z</time>
      </trkpt>
      <trkpt lat="36.675905" lon="-4.534095">
        <ele>43.008</ele>
        <time>2021-06-16T18:21:32Z</time>
      </trkpt>
      <trkpt lat="36.675852" lon="-4.53407">
        <ele>42.912</ele>
        <time>2021-06-16T18:21:34Z</time>
      </trkpt>
      <trkpt lat="36.675805" lon="-4.53406">
        <ele>42.891</ele>
        <time>2021-06-16T18:21:45Z</time>
      </trkpt>
      <trkpt lat="36.675754" lon="-4.534045">
        <ele>42.815</ele>
        <time>2021-06-16T18:21:48Z</time>
      </trkpt>
      <trkpt lat="36.675701" lon="-4.534041">
        <ele>42.815</ele>
        <time>2021-06-16T18:21:51Z</time>
      </trkpt>
      <trkpt lat="36.675636" lon="-4.534047">
        <ele>46.821</ele>
        <time>2021-06-16T18:21:55Z</time>
      </trkpt>
      <trkpt lat="36.675573" lon="-4.534046">
        <ele>50.883</ele>
        <time>2021-06-16T18:21:56Z</time>
      </trkpt>
      <trkpt lat="36.675441" lon="-4.534023">
        <ele>54.812</ele>
        <time>2021-06-16T18:21:58Z</time>
      </trkpt>
      <trkpt lat="36.675377" lon="-4.533989">
        <ele>58.886</ele>
        <time>2021-06-16T18:21:59Z</time>
      </trkpt>
      <trkpt lat="36.675322" lon="-4.533931">
        <ele>62.827</ele>
        <time>2021-06-16T18:22:00Z</time>
      </trkpt>
      <trkpt lat="36.675248" lon="-4.533757">
        <ele>66.868</ele>
        <time>2021-06-16T18:22:02Z</time>
      </trkpt>
      <trkpt lat="36.67523" lon="-4.533651">
        <ele>69.514</ele>
        <time>2021-06-16T18:22:03Z</time>
      </trkpt>
      <trkpt lat="36.675223" lon="-4.533418">
        <ele>71.108</ele>
        <time>2021-06-16T18:22:05Z</time>
      </trkpt>
      <trkpt lat="36.67521" lon="-4.533293">
        <ele>72.129</ele>
        <time>2021-06-16T18:22:06Z</time>
      </trkpt>
      <trkpt lat="36.675182" lon="-4.533168">
        <ele>72.748</ele>
        <time>2021-06-16T18:22:07Z</time>
      </trkpt>
      <trkpt lat="36.675141" lon="-4.533045">
        <ele>73.082</ele>
        <time>2021-06-16T18:22:08Z</time>
      </trkpt>
      <trkpt lat="36.675035" lon="-4.532805">
        <ele>73.262</ele>
        <time>2021-06-16T18:22:10Z</time>
      </trkpt>
      <trkpt lat="36.674915" lon="-4.532554">
        <ele>73.338</ele>
        <time>2021-06-16T18:22:12Z</time>
      </trkpt>
      <trkpt lat="36.674796" lon="-4.532288">
        <ele>73.480</ele>
        <time>2021-06-16T18:22:14Z</time>
      </trkpt>
      <trkpt lat="36.674735" lon="-4.53215">
        <ele>73.489</ele>
        <time>2021-06-16T18:22:15Z</time>
      </trkpt>
      <trkpt lat="36.674611" lon="-4.531869">
        <ele>73.513</ele>
        <time>2021-06-16T18:22:17Z</time>
      </trkpt>
      <trkpt lat="36.674489" lon="-4.531586">
        <ele>73.575</ele>
        <time>2021-06-16T18:22:19Z</time>
      </trkpt>
      <trkpt lat="36.674369" lon="-4.531301">
        <ele>73.528</ele>
        <time>2021-06-16T18:22:21Z</time>
      </trkpt>
      <trkpt lat="36.674311" lon="-4.531155">
        <ele>73.520</ele>
        <time>2021-06-16T18:22:22Z</time>
      </trkpt>
      <trkpt lat="36.674252" lon="-4.531011">
        <ele>73.508</ele>
        <time>2021-06-16T18:22:23Z</time>
      </trkpt>
      <trkpt lat="36.674133" lon="-4.530723">
        <ele>73.574</ele>
        <time>2021-06-16T18:22:25Z</time>
      </trkpt>
      <trkpt lat="36.674008" lon="-4.530431">
        <ele>73.593</ele>
        <time>2021-06-16T18:22:27Z</time>
      </trkpt>
      <trkpt lat="36.673877" lon="-4.530133">
        <ele>73.517</ele>
        <time>2021-06-16T18:22:29Z</time>
      </trkpt>
      <trkpt lat="36.67381" lon="-4.529983">
        <ele>73.597</ele>
        <time>2021-06-16T18:22:30Z</time>
      </trkpt>
      <trkpt lat="36.673675" lon="-4.529696">
        <ele>73.533</ele>
        <time>2021-06-16T18:22:32Z</time>
      </trkpt>
      <trkpt lat="36.673532" lon="-4.529427">
        <ele>73.565</ele>
        <time>2021-06-16T18:22:34Z</time>
      </trkpt>
      <trkpt lat="36.673461" lon="-4.529292">
        <ele>73.544</ele>
        <time>2021-06-16T18:22:35Z</time>
      </trkpt>
      <trkpt lat="36.673311" lon="-4.529026">
        <ele>73.528</ele>
        <time>2021-06-16T18:22:37Z</time>
      </trkpt>
      <trkpt lat="36.673233" lon="-4.528895">
        <ele>73.539</ele>
        <time>2021-06-16T18:22:38Z</time>
      </trkpt>
      <trkpt lat="36.673079" lon="-4.528638">
        <ele>73.501</ele>
        <time>2021-06-16T18:22:40Z</time>
      </trkpt>
      <trkpt lat="36.673001" lon="-4.528511">
        <ele>73.521</ele>
        <time>2021-06-16T18:22:41Z</time>
      </trkpt>
      <trkpt lat="36.672856" lon="-4.528256">
        <ele>73.508</ele>
        <time>2021-06-16T18:22:43Z</time>
      </trkpt>
      <trkpt lat="36.672721" lon="-4.528003">
        <ele>73.510</ele>
        <time>2021-06-16T18:22:45Z</time>
      </trkpt>
      <trkpt lat="36.672584" lon="-4.527748">
        <ele>73.539</ele>
        <time>2021-06-16T18:22:47Z</time>
      </trkpt>
      <trkpt lat="36.672448" lon="-4.527503">
        <ele>69.593</ele>
        <time>2021-06-16T18:22:49Z</time>
      </trkpt>
      <trkpt lat="36.672385" lon="-4.527383">
        <ele>65.593</ele>
        <time>2021-06-16T18:22:50Z</time>
      </trkpt>
      <trkpt lat="36.672319" lon="-4.527265">
        <ele>61.539</ele>
        <time>2021-06-16T18:22:51Z</time>
      </trkpt>
      <trkpt lat="36.672183" lon="-4.527024">
        <ele>57.511</ele>
        <time>2021-06-16T18:22:53Z</time>
      </trkpt>
      <trkpt lat="36.672041" lon="-4.52678">
        <ele>53.550</ele>
        <time>2021-06-16T18:22:55Z</time>
      </trkpt>
      <trkpt lat="36.671898" lon="-4.526543">
        <ele>49.554</ele>
        <time>2021-06-16T18:22:57Z</time>
      </trkpt>
      <trkpt lat="36.671828" lon="-4.526428">
        <ele>46.936</ele>
        <time>2021-06-16T18:22:58Z</time>
      </trkpt>
      <trkpt lat="36.671754" lon="-4.526311">
        <ele>45.617</ele>
        <time>2021-06-16T18:22:59Z</time>
      </trkpt>
      <trkpt lat="36.671604" lon="-4.526084">
        <ele>45.718</ele>
        <time>2021-06-16T18:23:01Z</time>
      </trkpt>
      <trkpt lat="36.671527" lon="-4.525969">
        <ele>45.808</ele>
        <time>2021-06-16T18:23:02Z</time>
      </trkpt>
      <trkpt lat="36.671453" lon="-4.525847">
        <ele>45.860</ele>
        <time>2021-06-16T18:23:03Z</time>
      </trkpt>
      <trkpt lat="36.671382" lon="-4.525724">
        <ele>46.229</ele>
        <time>2021-06-16T18:23:04Z</time>
      </trkpt>
      <trkpt lat="36.671311" lon="-4.525595">
        <ele>46.323</ele>
        <time>2021-06-16T18:23:05Z</time>
      </trkpt>
      <trkpt lat="36.671173" lon="-4.525339">
        <ele>46.783</ele>
        <time>2021-06-16T18:23:07Z</time>
      </trkpt>
      <trkpt lat="36.671045" lon="-4.525075">
        <ele>47.689</ele>
        <time>2021-06-16T18:23:09Z</time>
      </trkpt>
      <trkpt lat="36.67093" lon="-4.524808">
        <ele>48.461</ele>
        <time>2021-06-16T18:23:11Z</time>
      </trkpt>
      <trkpt lat="36.670879" lon="-4.524673">
        <ele>48.910</ele>
        <time>2021-06-16T18:23:12Z</time>
      </trkpt>
      <trkpt lat="36.67078" lon="-4.524405">
        <ele>49.584</ele>
        <time>2021-06-16T18:23:14Z</time>
      </trkpt>
      <trkpt lat="36.670689" lon="-4.524136">
        <ele>50.065</ele>
        <time>2021-06-16T18:23:16Z</time>
      </trkpt>
      <trkpt lat="36.670602" lon="-4.523861">
        <ele>50.668</ele>
        <time>2021-06-16T18:23:18Z</time>
      </trkpt>
      <trkpt lat="36.670557" lon="-4.523723">
        <ele>51.514</ele>
        <time>2021-06-16T18:23:19Z</time>
      </trkpt>
      <trkpt lat="36.670471" lon="-4.523447">
        <ele>52.308</ele>
        <time>2021-06-16T18:23:21Z</time>
      </trkpt>
      <trkpt lat="36.670375" lon="-4.523161">
        <ele>53.433</ele>
        <time>2021-06-16T18:23:23Z</time>
      </trkpt>
      <trkpt lat="36.670328" lon="-4.523014">
        <ele>54.032</ele>
        <time>2021-06-16T18:23:24Z</time>
      </trkpt>
      <trkpt lat="36.670281" lon="-4.522866">
        <ele>54.336</ele>
        <time>2021-06-16T18:23:25Z</time>
      </trkpt>
      <trkpt lat="36.670185" lon="-4.522571">
        <ele>53.996</ele>
        <time>2021-06-16T18:23:27Z</time>
      </trkpt>
      <trkpt lat="36.670135" lon="-4.522423">
        <ele>53.972</ele>
        <time>2021-06-16T18:23:28Z</time>
      </trkpt>
      <trkpt lat="36.670041" lon="-4.522126">
        <ele>53.854</ele>
        <time>2021-06-16T18:23:30Z</time>
      </trkpt>
      <trkpt lat="36.66995" lon="-4.521834">
        <ele>53.263</ele>
        <time>2021-06-16T18:23:32Z</time>
      </trkpt>
      <trkpt lat="36.66986" lon="-4.521546">
        <ele>52.677</ele>
        <time>2021-06-16T18:23:34Z</time>
      </trkpt>
      <trkpt lat="36.669815" lon="-4.521403">
        <ele>52.416</ele>
        <time>2021-06-16T18:23:35Z</time>
      </trkpt>
      <trkpt lat="36.669724" lon="-4.521116">
        <ele>52.576</ele>
        <time>2021-06-16T18:23:37Z</time>
      </trkpt>
      <trkpt lat="36.669678" lon="-4.520973">
        <ele>52.713</ele>
        <time>2021-06-16T18:23:38Z</time>
      </trkpt>
      <trkpt lat="36.669583" lon="-4.520693">
        <ele>52.408</ele>
        <time>2021-06-16T18:23:40Z</time>
      </trkpt>
      <trkpt lat="36.669538" lon="-4.520555">
        <ele>52.228</ele>
        <time>2021-06-16T18:23:41Z</time>
      </trkpt>
      <trkpt lat="36.669496" lon="-4.520417">
        <ele>52.167</ele>
        <time>2021-06-16T18:23:42Z</time>
      </trkpt>
      <trkpt lat="36.669414" lon="-4.520155">
        <ele>52.431</ele>
        <time>2021-06-16T18:23:44Z</time>
      </trkpt>
      <trkpt lat="36.669338" lon="-4.519921">
        <ele>52.531</ele>
        <time>2021-06-16T18:23:46Z</time>
      </trkpt>
      <trkpt lat="36.669268" lon="-4.519739">
        <ele>52.557</ele>
        <time>2021-06-16T18:23:48Z</time>
      </trkpt>
      <trkpt lat="36.669225" lon="-4.519663">
        <ele>52.669</ele>
        <time>2021-06-16T18:23:49Z</time>
      </trkpt>
      <trkpt lat="36.669149" lon="-4.519489">
        <ele>53.288</ele>
        <time>2021-06-16T18:23:51Z</time>
      </trkpt>
      <trkpt lat="36.669114" lon="-4.519264">
        <ele>53.422</ele>
        <time>2021-06-16T18:23:53Z</time>
      </trkpt>
      <trkpt lat="36.669087" lon="-4.519144">
        <ele>53.424</ele>
        <time>2021-06-16T18:23:54Z</time>
      </trkpt>
      <trkpt lat="36.66905" lon="-4.51902">
        <ele>53.404</ele>
        <time>2021-06-16T18:23:55Z</time>
      </trkpt>
      <trkpt lat="36.669009" lon="-4.518894">
        <ele>53.114</ele>
        <time>2021-06-16T18:23:56Z</time>
      </trkpt>
      <trkpt lat="36.668966" lon="-4.51876">
        <ele>53.008</ele>
        <time>2021-06-16T18:23:57Z</time>
      </trkpt>
      <trkpt lat="36.668879" lon="-4.518481">
        <ele>52.819</ele>
        <time>2021-06-16T18:23:59Z</time>
      </trkpt>
      <trkpt lat="36.668786" lon="-4.518199">
        <ele>52.828</ele>
        <time>2021-06-16T18:24:01Z</time>
      </trkpt>
      <trkpt lat="36.668739" lon="-4.518061">
        <ele>52.742</ele>
        <time>2021-06-16T18:24:02Z</time>
      </trkpt>
      <trkpt lat="36.668691" lon="-4.517924">
        <ele>52.742</ele>
        <time>2021-06-16T18:24:03Z</time>
      </trkpt>
      <trkpt lat="36.668595" lon="-4.517645">
        <ele>52.828</ele>
        <time>2021-06-16T18:24:05Z</time>
      </trkpt>
      <trkpt lat="36.668548" lon="-4.517502">
        <ele>52.930</ele>
        <time>2021-06-16T18:24:06Z</time>
      </trkpt>
      <trkpt lat="36.668451" lon="-4.517218">
        <ele>52.759</ele>
        <time>2021-06-16T18:24:08Z</time>
      </trkpt>
      <trkpt lat="36.668358" lon="-4.516936">
        <ele>52.673</ele>
        <time>2021-06-16T18:24:10Z</time>
      </trkpt>
      <trkpt lat="36.668311" lon="-4.516792">
        <ele>52.653</ele>
        <time>2021-06-16T18:24:11Z</time>
      </trkpt>
      <trkpt lat="36.668265" lon="-4.516648">
        <ele>52.504</ele>
        <time>2021-06-16T18:24:12Z</time>
      </trkpt>
      <trkpt lat="36.668219" lon="-4.516503">
        <ele>52.614</ele>
        <time>2021-06-16T18:24:13Z</time>
      </trkpt>
      <trkpt lat="36.668137" lon="-4.516208">
        <ele>52.608</ele>
        <time>2021-06-16T18:24:15Z</time>
      </trkpt>
      <trkpt lat="36.668073" lon="-4.515914">
        <ele>52.882</ele>
        <time>2021-06-16T18:24:17Z</time>
      </trkpt>
      <trkpt lat="36.668049" lon="-4.515767">
        <ele>53.191</ele>
        <time>2021-06-16T18:24:18Z</time>
      </trkpt>
      <trkpt lat="36.668027" lon="-4.51562">
        <ele>53.175</ele>
        <time>2021-06-16T18:24:19Z</time>
      </trkpt>
      <trkpt lat="36.667995" lon="-4.515323">
        <ele>53.455</ele>
        <time>2021-06-16T18:24:21Z</time>
      </trkpt>
      <trkpt lat="36.667984" lon="-4.515178">
        <ele>53.821</ele>
        <time>2021-06-16T18:24:22Z</time>
      </trkpt>
      <trkpt lat="36.667978" lon="-4.515037">
        <ele>54.453</ele>
        <time>2021-06-16T18:24:23Z</time>
      </trkpt>
      <trkpt lat="36.667977" lon="-4.514903">
        <ele>54.722</ele>
        <time>2021-06-16T18:24:24Z</time>
      </trkpt>
      <trkpt lat="36.667994" lon="-4.51465">
        <ele>55.366</ele>
        <time>2021-06-16T18:24:26Z</time>
      </trkpt>
      <trkpt lat="36.668007" lon="-4.514529">
        <ele>55.746</ele>
        <time>2021-06-16T18:24:27Z</time>
      </trkpt>
      <trkpt lat="36.668021" lon="-4.514406">
        <ele>56.288</ele>
        <time>2021-06-16T18:24:28Z</time>
      </trkpt>
      <trkpt lat="36.668036" lon="-4.514281">
        <ele>56.716</ele>
        <time>2021-06-16T18:24:29Z</time>
      </trkpt>
      <trkpt lat="36.668056" lon="-4.514155">
        <ele>57.008</ele>
        <time>2021-06-16T18:24:30Z</time>
      </trkpt>
      <trkpt lat="36.668077" lon="-4.514022">
        <ele>57.241</ele>
        <time>2021-06-16T18:24:31Z</time>
      </trkpt>
      <trkpt lat="36.668095" lon="-4.513889">
        <ele>57.460</ele>
        <time>2021-06-16T18:24:32Z</time>
      </trkpt>
      <trkpt lat="36.66813" lon="-4.513621">
        <ele>57.294</ele>
        <time>2021-06-16T18:24:34Z</time>
      </trkpt>
      <trkpt lat="36.668143" lon="-4.513482">
        <ele>56.774</ele>
        <time>2021-06-16T18:24:35Z</time>
      </trkpt>
      <trkpt lat="36.668151" lon="-4.51334">
        <ele>56.630</ele>
        <time>2021-06-16T18:24:36Z</time>
      </trkpt>
      <trkpt lat="36.668147" lon="-4.513054">
        <ele>56.662</ele>
        <time>2021-06-16T18:24:38Z</time>
      </trkpt>
      <trkpt lat="36.668111" lon="-4.512767">
        <ele>56.851</ele>
        <time>2021-06-16T18:24:40Z</time>
      </trkpt>
      <trkpt lat="36.668045" lon="-4.512484">
        <ele>57.175</ele>
        <time>2021-06-16T18:24:42Z</time>
      </trkpt>
      <trkpt lat="36.668" lon="-4.51235">
        <ele>57.348</ele>
        <time>2021-06-16T18:24:43Z</time>
      </trkpt>
      <trkpt lat="36.667949" lon="-4.51222">
        <ele>57.661</ele>
        <time>2021-06-16T18:24:44Z</time>
      </trkpt>
      <trkpt lat="36.667832" lon="-4.511972">
        <ele>58.217</ele>
        <time>2021-06-16T18:24:46Z</time>
      </trkpt>
      <trkpt lat="36.667766" lon="-4.511856">
        <ele>58.508</ele>
        <time>2021-06-16T18:24:47Z</time>
      </trkpt>
      <trkpt lat="36.667627" lon="-4.51164">
        <ele>59.171</ele>
        <time>2021-06-16T18:24:49Z</time>
      </trkpt>
      <trkpt lat="36.66749" lon="-4.511423">
        <ele>59.680</ele>
        <time>2021-06-16T18:24:51Z</time>
      </trkpt>
      <trkpt lat="36.667422" lon="-4.511313">
        <ele>60.224</ele>
        <time>2021-06-16T18:24:52Z</time>
      </trkpt>
      <trkpt lat="36.667353" lon="-4.511201">
        <ele>61.094</ele>
        <time>2021-06-16T18:24:53Z</time>
      </trkpt>
      <trkpt lat="36.667216" lon="-4.510985">
        <ele>61.860</ele>
        <time>2021-06-16T18:24:55Z</time>
      </trkpt>
      <trkpt lat="36.667146" lon="-4.510877">
        <ele>62.432</ele>
        <time>2021-06-16T18:24:56Z</time>
      </trkpt>
      <trkpt lat="36.667007" lon="-4.510657">
        <ele>62.811</ele>
        <time>2021-06-16T18:24:58Z</time>
      </trkpt>
      <trkpt lat="36.666939" lon="-4.510543">
        <ele>63.315</ele>
        <time>2021-06-16T18:24:59Z</time>
      </trkpt>
      <trkpt lat="36.666871" lon="-4.51043">
        <ele>63.658</ele>
        <time>2021-06-16T18:25:00Z</time>
      </trkpt>
      <trkpt lat="36.666737" lon="-4.510211">
        <ele>64.252</ele>
        <time>2021-06-16T18:25:02Z</time>
      </trkpt>
      <trkpt lat="36.666613" lon="-4.510012">
        <ele>64.417</ele>
        <time>2021-06-16T18:25:04Z</time>
      </trkpt>
      <trkpt lat="36.666553" lon="-4.509918">
        <ele>64.008</ele>
        <time>2021-06-16T18:25:05Z</time>
      </trkpt>
      <trkpt lat="36.66644" lon="-4.509732">
        <ele>64.382</ele>
        <time>2021-06-16T18:25:07Z</time>
      </trkpt>
      <trkpt lat="36.666384" lon="-4.509637">
        <ele>64.031</ele>
        <time>2021-06-16T18:25:08Z</time>
      </trkpt>
      <trkpt lat="36.666327" lon="-4.509542">
        <ele>64.245</ele>
        <time>2021-06-16T18:25:09Z</time>
      </trkpt>
      <trkpt lat="36.666203" lon="-4.509356">
        <ele>64.015</ele>
        <time>2021-06-16T18:25:11Z</time>
      </trkpt>
      <trkpt lat="36.666083" lon="-4.509162">
        <ele>64.291</ele>
        <time>2021-06-16T18:25:13Z</time>
      </trkpt>
      <trkpt lat="36.666023" lon="-4.509061">
        <ele>64.383</ele>
        <time>2021-06-16T18:25:14Z</time>
      </trkpt>
      <trkpt lat="36.665895" lon="-4.508859">
        <ele>64.112</ele>
        <time>2021-06-16T18:25:16Z</time>
      </trkpt>
      <trkpt lat="36.665828" lon="-4.508763">
        <ele>64.056</ele>
        <time>2021-06-16T18:25:17Z</time>
      </trkpt>
      <trkpt lat="36.665763" lon="-4.508663">
        <ele>63.767</ele>
        <time>2021-06-16T18:25:18Z</time>
      </trkpt>
      <trkpt lat="36.665698" lon="-4.508556">
        <ele>63.581</ele>
        <time>2021-06-16T18:25:19Z</time>
      </trkpt>
      <trkpt lat="36.665631" lon="-4.508446">
        <ele>63.719</ele>
        <time>2021-06-16T18:25:20Z</time>
      </trkpt>
      <trkpt lat="36.665493" lon="-4.508217">
        <ele>63.908</ele>
        <time>2021-06-16T18:25:22Z</time>
      </trkpt>
      <trkpt lat="36.665345" lon="-4.507982">
        <ele>64.243</ele>
        <time>2021-06-16T18:25:24Z</time>
      </trkpt>
      <trkpt lat="36.665196" lon="-4.507747">
        <ele>64.492</ele>
        <time>2021-06-16T18:25:26Z</time>
      </trkpt>
      <trkpt lat="36.665121" lon="-4.50763">
        <ele>64.776</ele>
        <time>2021-06-16T18:25:27Z</time>
      </trkpt>
      <trkpt lat="36.665046" lon="-4.507512">
        <ele>64.796</ele>
        <time>2021-06-16T18:25:28Z</time>
      </trkpt>
      <trkpt lat="36.664898" lon="-4.507273">
        <ele>64.562</ele>
        <time>2021-06-16T18:25:30Z</time>
      </trkpt>
      <trkpt lat="36.664822" lon="-4.507152">
        <ele>64.584</ele>
        <time>2021-06-16T18:25:31Z</time>
      </trkpt>
      <trkpt lat="36.664672" lon="-4.506911">
        <ele>64.253</ele>
        <time>2021-06-16T18:25:33Z</time>
      </trkpt>
      <trkpt lat="36.664524" lon="-4.50667">
        <ele>64.297</ele>
        <time>2021-06-16T18:25:35Z</time>
      </trkpt>
      <trkpt lat="36.664381" lon="-4.506439">
        <ele>63.954</ele>
        <time>2021-06-16T18:25:37Z</time>
      </trkpt>
      <trkpt lat="36.66424" lon="-4.506214">
        <ele>63.656</ele>
        <time>2021-06-16T18:25:39Z</time>
      </trkpt>
      <trkpt lat="36.6641" lon="-4.506006">
        <ele>63.511</ele>
        <time>2021-06-16T18:25:41Z</time>
      </trkpt>
      <trkpt lat="36.663946" lon="-4.505836">
        <ele>63.208</ele>
        <time>2021-06-16T18:25:43Z</time>
      </trkpt>
      <trkpt lat="36.66386" lon="-4.505763">
        <ele>63.232</ele>
        <time>2021-06-16T18:25:44Z</time>
      </trkpt>
      <trkpt lat="36.663671" lon="-4.505652">
        <ele>62.841</ele>
        <time>2021-06-16T18:25:46Z</time>
      </trkpt>
      <trkpt lat="36.663572" lon="-4.505614">
        <ele>62.635</ele>
        <time>2021-06-16T18:25:47Z</time>
      </trkpt>
      <trkpt lat="36.663364" lon="-4.505577">
        <ele>62.215</ele>
        <time>2021-06-16T18:25:49Z</time>
      </trkpt>
      <trkpt lat="36.663153" lon="-4.505585">
        <ele>62.251</ele>
        <time>2021-06-16T18:25:51Z</time>
      </trkpt>
      <trkpt lat="36.663051" lon="-4.505611">
        <ele>62.163</ele>
        <time>2021-06-16T18:25:52Z</time>
      </trkpt>
      <trkpt lat="36.662949" lon="-4.505647">
        <ele>62.052</ele>
        <time>2021-06-16T18:25:53Z</time>
      </trkpt>
      <trkpt lat="36.662762" lon="-4.505728">
        <ele>61.996</ele>
        <time>2021-06-16T18:25:55Z</time>
      </trkpt>
      <trkpt lat="36.662601" lon="-4.505815">
        <ele>61.917</ele>
        <time>2021-06-16T18:25:57Z</time>
      </trkpt>
      <trkpt lat="36.662451" lon="-4.50591">
        <ele>62.187</ele>
        <time>2021-06-16T18:25:59Z</time>
      </trkpt>
      <trkpt lat="36.66239" lon="-4.505963">
        <ele>62.615</ele>
        <time>2021-06-16T18:26:00Z</time>
      </trkpt>
      <trkpt lat="36.662311" lon="-4.506046">
        <ele>64.008</ele>
        <time>2021-06-16T18:26:02Z</time>
      </trkpt>
      <trkpt lat="36.662275" lon="-4.506083">
        <ele>65.098</ele>
        <time>2021-06-16T18:26:05Z</time>
      </trkpt>
      <trkpt lat="36.662226" lon="-4.506123">
        <ele>64.617</ele>
        <time>2021-06-16T18:26:10Z</time>
      </trkpt>
      <trkpt lat="36.662191" lon="-4.50618">
        <ele>64.421</ele>
        <time>2021-06-16T18:26:12Z</time>
      </trkpt>
      <trkpt lat="36.662123" lon="-4.506275">
        <ele>64.361</ele>
        <time>2021-06-16T18:26:14Z</time>
      </trkpt>
      <trkpt lat="36.662073" lon="-4.506337">
        <ele>64.227</ele>
        <time>2021-06-16T18:26:15Z</time>
      </trkpt>
      <trkpt lat="36.662016" lon="-4.506389">
        <ele>64.119</ele>
        <time>2021-06-16T18:26:16Z</time>
      </trkpt>
      <trkpt lat="36.661891" lon="-4.506429">
        <ele>64.078</ele>
        <time>2021-06-16T18:26:18Z</time>
      </trkpt>
      <trkpt lat="36.661763" lon="-4.506384">
        <ele>64.022</ele>
        <time>2021-06-16T18:26:20Z</time>
      </trkpt>
      <trkpt lat="36.661687" lon="-4.506221">
        <ele>64.077</ele>
        <time>2021-06-16T18:26:22Z</time>
      </trkpt>
      <trkpt lat="36.661702" lon="-4.506003">
        <ele>63.961</ele>
        <time>2021-06-16T18:26:24Z</time>
      </trkpt>
      <trkpt lat="36.661732" lon="-4.505893">
        <ele>63.927</ele>
        <time>2021-06-16T18:26:25Z</time>
      </trkpt>
      <trkpt lat="36.661777" lon="-4.505658">
        <ele>63.808</ele>
        <time>2021-06-16T18:26:27Z</time>
      </trkpt>
      <trkpt lat="36.661778" lon="-4.505531">
        <ele>63.814</ele>
        <time>2021-06-16T18:26:28Z</time>
      </trkpt>
      <trkpt lat="36.66174" lon="-4.505274">
        <ele>63.873</ele>
        <time>2021-06-16T18:26:30Z</time>
      </trkpt>
      <trkpt lat="36.661711" lon="-4.505141">
        <ele>63.867</ele>
        <time>2021-06-16T18:26:31Z</time>
      </trkpt>
      <trkpt lat="36.661646" lon="-4.50487">
        <ele>63.877</ele>
        <time>2021-06-16T18:26:33Z</time>
      </trkpt>
      <trkpt lat="36.661586" lon="-4.504594">
        <ele>63.863</ele>
        <time>2021-06-16T18:26:35Z</time>
      </trkpt>
      <trkpt lat="36.661527" lon="-4.504324">
        <ele>63.845</ele>
        <time>2021-06-16T18:26:37Z</time>
      </trkpt>
      <trkpt lat="36.661471" lon="-4.504047">
        <ele>63.854</ele>
        <time>2021-06-16T18:26:39Z</time>
      </trkpt>
      <trkpt lat="36.661441" lon="-4.503906">
        <ele>63.878</ele>
        <time>2021-06-16T18:26:40Z</time>
      </trkpt>
      <trkpt lat="36.661384" lon="-4.503625">
        <ele>63.888</ele>
        <time>2021-06-16T18:26:42Z</time>
      </trkpt>
      <trkpt lat="36.661325" lon="-4.503344">
        <ele>63.824</ele>
        <time>2021-06-16T18:26:44Z</time>
      </trkpt>
      <trkpt lat="36.661294" lon="-4.503198">
        <ele>63.826</ele>
        <time>2021-06-16T18:26:45Z</time>
      </trkpt>
      <trkpt lat="36.66126" lon="-4.50305">
        <ele>63.808</ele>
        <time>2021-06-16T18:26:46Z</time>
      </trkpt>
      <trkpt lat="36.661226" lon="-4.502898">
        <ele>63.835</ele>
        <time>2021-06-16T18:26:47Z</time>
      </trkpt>
      <trkpt lat="36.661162" lon="-4.502599">
        <ele>63.814</ele>
        <time>2021-06-16T18:26:49Z</time>
      </trkpt>
      <trkpt lat="36.66113" lon="-4.502448">
        <ele>63.848</ele>
        <time>2021-06-16T18:26:50Z</time>
      </trkpt>
      <trkpt lat="36.661073" lon="-4.50214">
        <ele>63.858</ele>
        <time>2021-06-16T18:26:52Z</time>
      </trkpt>
      <trkpt lat="36.661046" lon="-4.501988">
        <ele>63.864</ele>
        <time>2021-06-16T18:26:53Z</time>
      </trkpt>
      <trkpt lat="36.660994" lon="-4.501702">
        <ele>63.856</ele>
        <time>2021-06-16T18:26:55Z</time>
      </trkpt>
      <trkpt lat="36.66097" lon="-4.50157">
        <ele>63.895</ele>
        <time>2021-06-16T18:26:56Z</time>
      </trkpt>
      <trkpt lat="36.66093" lon="-4.501325">
        <ele>63.889</ele>
        <time>2021-06-16T18:26:58Z</time>
      </trkpt>
      <trkpt lat="36.660884" lon="-4.501082">
        <ele>63.845</ele>
        <time>2021-06-16T18:27:00Z</time>
      </trkpt>
      <trkpt lat="36.660833" lon="-4.50083">
        <ele>63.847</ele>
        <time>2021-06-16T18:27:02Z</time>
      </trkpt>
      <trkpt lat="36.660809" lon="-4.500701">
        <ele>63.811</ele>
        <time>2021-06-16T18:27:03Z</time>
      </trkpt>
      <trkpt lat="36.660784" lon="-4.50057">
        <ele>63.808</ele>
        <time>2021-06-16T18:27:04Z</time>
      </trkpt>
      <trkpt lat="36.660759" lon="-4.500443">
        <ele>63.881</ele>
        <time>2021-06-16T18:27:05Z</time>
      </trkpt>
      <trkpt lat="36.660711" lon="-4.500185">
        <ele>63.840</ele>
        <time>2021-06-16T18:27:07Z</time>
      </trkpt>
      <trkpt lat="36.660685" lon="-4.500054">
        <ele>63.814</ele>
        <time>2021-06-16T18:27:08Z</time>
      </trkpt>
      <trkpt lat="36.660634" lon="-4.4998">
        <ele>59.834</ele>
        <time>2021-06-16T18:27:10Z</time>
      </trkpt>
      <trkpt lat="36.660609" lon="-4.499668">
        <ele>55.870</ele>
        <time>2021-06-16T18:27:11Z</time>
      </trkpt>
      <trkpt lat="36.660569" lon="-4.499416">
        <ele>51.872</ele>
        <time>2021-06-16T18:27:13Z</time>
      </trkpt>
      <trkpt lat="36.660533" lon="-4.499165">
        <ele>49.091</ele>
        <time>2021-06-16T18:27:15Z</time>
      </trkpt>
      <trkpt lat="36.660513" lon="-4.499035">
        <ele>47.435</ele>
        <time>2021-06-16T18:27:16Z</time>
      </trkpt>
      <trkpt lat="36.660489" lon="-4.498899">
        <ele>46.269</ele>
        <time>2021-06-16T18:27:17Z</time>
      </trkpt>
      <trkpt lat="36.660432" lon="-4.49861">
        <ele>45.304</ele>
        <time>2021-06-16T18:27:19Z</time>
      </trkpt>
      <trkpt lat="36.6604" lon="-4.498454">
        <ele>44.524</ele>
        <time>2021-06-16T18:27:20Z</time>
      </trkpt>
      <trkpt lat="36.660336" lon="-4.49814">
        <ele>43.608</ele>
        <time>2021-06-16T18:27:22Z</time>
      </trkpt>
      <trkpt lat="36.660306" lon="-4.497985">
        <ele>42.713</ele>
        <time>2021-06-16T18:27:23Z</time>
      </trkpt>
      <trkpt lat="36.660248" lon="-4.497682">
        <ele>42.242</ele>
        <time>2021-06-16T18:27:25Z</time>
      </trkpt>
      <trkpt lat="36.660218" lon="-4.497533">
        <ele>41.896</ele>
        <time>2021-06-16T18:27:26Z</time>
      </trkpt>
      <trkpt lat="36.660158" lon="-4.497244">
        <ele>41.516</ele>
        <time>2021-06-16T18:27:28Z</time>
      </trkpt>
      <trkpt lat="36.660127" lon="-4.497105">
        <ele>41.392</ele>
        <time>2021-06-16T18:27:29Z</time>
      </trkpt>
      <trkpt lat="36.660072" lon="-4.496826">
        <ele>41.144</ele>
        <time>2021-06-16T18:27:31Z</time>
      </trkpt>
      <trkpt lat="36.660043" lon="-4.496681">
        <ele>40.633</ele>
        <time>2021-06-16T18:27:32Z</time>
      </trkpt>
      <trkpt lat="36.659987" lon="-4.496384">
        <ele>40.677</ele>
        <time>2021-06-16T18:27:34Z</time>
      </trkpt>
      <trkpt lat="36.659931" lon="-4.496084">
        <ele>40.443</ele>
        <time>2021-06-16T18:27:36Z</time>
      </trkpt>
      <trkpt lat="36.659905" lon="-4.495937">
        <ele>40.264</ele>
        <time>2021-06-16T18:27:37Z</time>
      </trkpt>
      <trkpt lat="36.659846" lon="-4.495644">
        <ele>40.210</ele>
        <time>2021-06-16T18:27:39Z</time>
      </trkpt>
      <trkpt lat="36.659815" lon="-4.495493">
        <ele>40.208</ele>
        <time>2021-06-16T18:27:40Z</time>
      </trkpt>
      <trkpt lat="36.659785" lon="-4.495341">
        <ele>40.141</ele>
        <time>2021-06-16T18:27:41Z</time>
      </trkpt>
      <trkpt lat="36.659725" lon="-4.495041">
        <ele>40.070</ele>
        <time>2021-06-16T18:27:43Z</time>
      </trkpt>
      <trkpt lat="36.659666" lon="-4.494744">
        <ele>39.634</ele>
        <time>2021-06-16T18:27:45Z</time>
      </trkpt>
      <trkpt lat="36.659639" lon="-4.494594">
        <ele>39.494</ele>
        <time>2021-06-16T18:27:46Z</time>
      </trkpt>
      <trkpt lat="36.659586" lon="-4.494294">
        <ele>38.530</ele>
        <time>2021-06-16T18:27:48Z</time>
      </trkpt>
      <trkpt lat="36.659534" lon="-4.493997">
        <ele>37.652</ele>
        <time>2021-06-16T18:27:50Z</time>
      </trkpt>
      <trkpt lat="36.659476" lon="-4.493709">
        <ele>36.711</ele>
        <time>2021-06-16T18:27:52Z</time>
      </trkpt>
      <trkpt lat="36.659448" lon="-4.493564">
        <ele>36.165</ele>
        <time>2021-06-16T18:27:53Z</time>
      </trkpt>
      <trkpt lat="36.659422" lon="-4.493424">
        <ele>35.933</ele>
        <time>2021-06-16T18:27:54Z</time>
      </trkpt>
      <trkpt lat="36.659372" lon="-4.493142">
        <ele>35.423</ele>
        <time>2021-06-16T18:27:56Z</time>
      </trkpt>
      <trkpt lat="36.659315" lon="-4.492849">
        <ele>35.415</ele>
        <time>2021-06-16T18:27:58Z</time>
      </trkpt>
      <trkpt lat="36.659245" lon="-4.492543">
        <ele>35.308</ele>
        <time>2021-06-16T18:28:00Z</time>
      </trkpt>
      <trkpt lat="36.659204" lon="-4.492389">
        <ele>35.010</ele>
        <time>2021-06-16T18:28:01Z</time>
      </trkpt>
      <trkpt lat="36.659163" lon="-4.492235">
        <ele>34.579</ele>
        <time>2021-06-16T18:28:02Z</time>
      </trkpt>
      <trkpt lat="36.659062" lon="-4.491931">
        <ele>34.163</ele>
        <time>2021-06-16T18:28:04Z</time>
      </trkpt>
      <trkpt lat="36.659009" lon="-4.491781">
        <ele>33.733</ele>
        <time>2021-06-16T18:28:05Z</time>
      </trkpt>
      <trkpt lat="36.658906" lon="-4.49148">
        <ele>33.199</ele>
        <time>2021-06-16T18:28:07Z</time>
      </trkpt>
      <trkpt lat="36.658802" lon="-4.49118">
        <ele>32.581</ele>
        <time>2021-06-16T18:28:09Z</time>
      </trkpt>
      <trkpt lat="36.65875" lon="-4.491032">
        <ele>31.890</ele>
        <time>2021-06-16T18:28:10Z</time>
      </trkpt>
      <trkpt lat="36.658699" lon="-4.490885">
        <ele>31.144</ele>
        <time>2021-06-16T18:28:11Z</time>
      </trkpt>
      <trkpt lat="36.658598" lon="-4.490589">
        <ele>30.348</ele>
        <time>2021-06-16T18:28:13Z</time>
      </trkpt>
      <trkpt lat="36.658501" lon="-4.490301">
        <ele>29.661</ele>
        <time>2021-06-16T18:28:15Z</time>
      </trkpt>
      <trkpt lat="36.658405" lon="-4.490027">
        <ele>28.817</ele>
        <time>2021-06-16T18:28:17Z</time>
      </trkpt>
      <trkpt lat="36.65831" lon="-4.489759">
        <ele>28.008</ele>
        <time>2021-06-16T18:28:19Z</time>
      </trkpt>
      <trkpt lat="36.658219" lon="-4.489485">
        <ele>26.841</ele>
        <time>2021-06-16T18:28:21Z</time>
      </trkpt>
      <trkpt lat="36.65813" lon="-4.489222">
        <ele>25.720</ele>
        <time>2021-06-16T18:28:23Z</time>
      </trkpt>
      <trkpt lat="36.658086" lon="-4.489091">
        <ele>24.834</ele>
        <time>2021-06-16T18:28:24Z</time>
      </trkpt>
      <trkpt lat="36.658004" lon="-4.48885">
        <ele>23.884</ele>
        <time>2021-06-16T18:28:26Z</time>
      </trkpt>
      <trkpt lat="36.657965" lon="-4.488736">
        <ele>23.390</ele>
        <time>2021-06-16T18:28:27Z</time>
      </trkpt>
      <trkpt lat="36.657931" lon="-4.488631">
        <ele>22.412</ele>
        <time>2021-06-16T18:28:28Z</time>
      </trkpt>
      <trkpt lat="36.657873" lon="-4.488455">
        <ele>21.871</ele>
        <time>2021-06-16T18:28:30Z</time>
      </trkpt>
      <trkpt lat="36.657826" lon="-4.488328">
        <ele>21.215</ele>
        <time>2021-06-16T18:28:32Z</time>
      </trkpt>
      <trkpt lat="36.657806" lon="-4.488275">
        <ele>20.978</ele>
        <time>2021-06-16T18:28:33Z</time>
      </trkpt>
      <trkpt lat="36.657778" lon="-4.488195">
        <ele>20.333</ele>
        <time>2021-06-16T18:28:35Z</time>
      </trkpt>
      <trkpt lat="36.657756" lon="-4.488143">
        <ele>19.926</ele>
        <time>2021-06-16T18:28:38Z</time>
      </trkpt>
      <trkpt lat="36.657728" lon="-4.48807">
        <ele>20.608</ele>
        <time>2021-06-16T18:28:41Z</time>
      </trkpt>
      <trkpt lat="36.657695" lon="-4.48801">
        <ele>21.014</ele>
        <time>2021-06-16T18:28:43Z</time>
      </trkpt>
      <trkpt lat="36.657659" lon="-4.487959">
        <ele>21.283</ele>
        <time>2021-06-16T18:28:46Z</time>
      </trkpt>
      <trkpt lat="36.657609" lon="-4.487922">
        <ele>21.437</ele>
        <time>2021-06-16T18:28:50Z</time>
      </trkpt>
      <trkpt lat="36.657564" lon="-4.487899">
        <ele>21.577</ele>
        <time>2021-06-16T18:28:52Z</time>
      </trkpt>
      <trkpt lat="36.657489" lon="-4.487862">
        <ele>21.613</ele>
        <time>2021-06-16T18:28:54Z</time>
      </trkpt>
      <trkpt lat="36.657389" lon="-4.487792">
        <ele>21.665</ele>
        <time>2021-06-16T18:28:56Z</time>
      </trkpt>
      <trkpt lat="36.65735" lon="-4.487743">
        <ele>21.664</ele>
        <time>2021-06-16T18:28:57Z</time>
      </trkpt>
      <trkpt lat="36.657327" lon="-4.487685">
        <ele>21.648</ele>
        <time>2021-06-16T18:28:58Z</time>
      </trkpt>
      <trkpt lat="36.65733" lon="-4.487535">
        <ele>21.659</ele>
        <time>2021-06-16T18:29:00Z</time>
      </trkpt>
      <trkpt lat="36.657357" lon="-4.487455">
        <ele>21.603</ele>
        <time>2021-06-16T18:29:01Z</time>
      </trkpt>
      <trkpt lat="36.657403" lon="-4.48738">
        <ele>21.623</ele>
        <time>2021-06-16T18:29:02Z</time>
      </trkpt>
      <trkpt lat="36.657533" lon="-4.487271">
        <ele>21.608</ele>
        <time>2021-06-16T18:29:04Z</time>
      </trkpt>
      <trkpt lat="36.657602" lon="-4.487227">
        <ele>21.692</ele>
        <time>2021-06-16T18:29:05Z</time>
      </trkpt>
      <trkpt lat="36.657661" lon="-4.487169">
        <ele>21.621</ele>
        <time>2021-06-16T18:29:06Z</time>
      </trkpt>
      <trkpt lat="36.657732" lon="-4.487006">
        <ele>21.615</ele>
        <time>2021-06-16T18:29:08Z</time>
      </trkpt>
      <trkpt lat="36.657744" lon="-4.486912">
        <ele>21.645</ele>
        <time>2021-06-16T18:29:09Z</time>
      </trkpt>
      <trkpt lat="36.657746" lon="-4.486818">
        <ele>21.651</ele>
        <time>2021-06-16T18:29:10Z</time>
      </trkpt>
      <trkpt lat="36.657725" lon="-4.486727">
        <ele>21.693</ele>
        <time>2021-06-16T18:29:11Z</time>
      </trkpt>
      <trkpt lat="36.657655" lon="-4.486551">
        <ele>21.672</ele>
        <time>2021-06-16T18:29:13Z</time>
      </trkpt>
      <trkpt lat="36.657589" lon="-4.486374">
        <ele>21.676</ele>
        <time>2021-06-16T18:29:15Z</time>
      </trkpt>
      <trkpt lat="36.657552" lon="-4.486291">
        <ele>21.678</ele>
        <time>2021-06-16T18:29:16Z</time>
      </trkpt>
      <trkpt lat="36.657467" lon="-4.486156">
        <ele>21.633</ele>
        <time>2021-06-16T18:29:18Z</time>
      </trkpt>
      <trkpt lat="36.65742" lon="-4.486111">
        <ele>21.626</ele>
        <time>2021-06-16T18:29:19Z</time>
      </trkpt>
      <trkpt lat="36.657371" lon="-4.486082">
        <ele>21.608</ele>
        <time>2021-06-16T18:29:20Z</time>
      </trkpt>
      <trkpt lat="36.657293" lon="-4.48607">
        <ele>21.624</ele>
        <time>2021-06-16T18:29:22Z</time>
      </trkpt>
      <trkpt lat="36.657223" lon="-4.486077">
        <ele>21.663</ele>
        <time>2021-06-16T18:29:24Z</time>
      </trkpt>
      <trkpt lat="36.657133" lon="-4.486092">
        <ele>21.627</ele>
        <time>2021-06-16T18:29:26Z</time>
      </trkpt>
      <trkpt lat="36.65707" lon="-4.48611">
        <ele>21.667</ele>
        <time>2021-06-16T18:29:27Z</time>
      </trkpt>
      <trkpt lat="36.656924" lon="-4.486159">
        <ele>21.643</ele>
        <time>2021-06-16T18:29:29Z</time>
      </trkpt>
      <trkpt lat="36.656838" lon="-4.486186">
        <ele>21.665</ele>
        <time>2021-06-16T18:29:30Z</time>
      </trkpt>
      <trkpt lat="36.656743" lon="-4.486216">
        <ele>21.664</ele>
        <time>2021-06-16T18:29:31Z</time>
      </trkpt>
      <trkpt lat="36.656644" lon="-4.486247">
        <ele>21.648</ele>
        <time>2021-06-16T18:29:32Z</time>
      </trkpt>
      <trkpt lat="36.65644" lon="-4.486323">
        <ele>21.681</ele>
        <time>2021-06-16T18:29:34Z</time>
      </trkpt>
      <trkpt lat="36.656333" lon="-4.486367">
        <ele>21.661</ele>
        <time>2021-06-16T18:29:35Z</time>
      </trkpt>
      <trkpt lat="36.656223" lon="-4.48641">
        <ele>21.617</ele>
        <time>2021-06-16T18:29:36Z</time>
      </trkpt>
      <trkpt lat="36.655993" lon="-4.486488">
        <ele>21.608</ele>
        <time>2021-06-16T18:29:38Z</time>
      </trkpt>
      <trkpt lat="36.655752" lon="-4.486556">
        <ele>21.675</ele>
        <time>2021-06-16T18:29:40Z</time>
      </trkpt>
      <trkpt lat="36.655629" lon="-4.486591">
        <ele>21.124</ele>
        <time>2021-06-16T18:29:41Z</time>
      </trkpt>
      <trkpt lat="36.655383" lon="-4.486654">
        <ele>20.728</ele>
        <time>2021-06-16T18:29:43Z</time>
      </trkpt>
      <trkpt lat="36.655137" lon="-4.486703">
        <ele>20.788</ele>
        <time>2021-06-16T18:29:45Z</time>
      </trkpt>
      <trkpt lat="36.654886" lon="-4.486746">
        <ele>20.264</ele>
        <time>2021-06-16T18:29:47Z</time>
      </trkpt>
      <trkpt lat="36.65476" lon="-4.486768">
        <ele>20.446</ele>
        <time>2021-06-16T18:29:48Z</time>
      </trkpt>
      <trkpt lat="36.654506" lon="-4.486811">
        <ele>20.625</ele>
        <time>2021-06-16T18:29:50Z</time>
      </trkpt>
      <trkpt lat="36.654377" lon="-4.486835">
        <ele>20.729</ele>
        <time>2021-06-16T18:29:51Z</time>
      </trkpt>
      <trkpt lat="36.654248" lon="-4.486858">
        <ele>20.838</ele>
        <time>2021-06-16T18:29:52Z</time>
      </trkpt>
      <trkpt lat="36.654119" lon="-4.486879">
        <ele>21.070</ele>
        <time>2021-06-16T18:29:53Z</time>
      </trkpt>
      <trkpt lat="36.653872" lon="-4.486922">
        <ele>21.417</ele>
        <time>2021-06-16T18:29:55Z</time>
      </trkpt>
      <trkpt lat="36.653756" lon="-4.486943">
        <ele>21.808</ele>
        <time>2021-06-16T18:29:56Z</time>
      </trkpt>
      <trkpt lat="36.653642" lon="-4.486962">
        <ele>22.270</ele>
        <time>2021-06-16T18:29:57Z</time>
      </trkpt>
      <trkpt lat="36.653412" lon="-4.487">
        <ele>22.939</ele>
        <time>2021-06-16T18:29:59Z</time>
      </trkpt>
      <trkpt lat="36.653292" lon="-4.487019">
        <ele>23.223</ele>
        <time>2021-06-16T18:30:00Z</time>
      </trkpt>
      <trkpt lat="36.65317" lon="-4.487041">
        <ele>23.843</ele>
        <time>2021-06-16T18:30:01Z</time>
      </trkpt>
      <trkpt lat="36.652925" lon="-4.487086">
        <ele>24.319</ele>
        <time>2021-06-16T18:30:03Z</time>
      </trkpt>
      <trkpt lat="36.652677" lon="-4.48713">
        <ele>24.341</ele>
        <time>2021-06-16T18:30:05Z</time>
      </trkpt>
      <trkpt lat="36.65255" lon="-4.487153">
        <ele>24.240</ele>
        <time>2021-06-16T18:30:06Z</time>
      </trkpt>
      <trkpt lat="36.652422" lon="-4.487175">
        <ele>24.494</ele>
        <time>2021-06-16T18:30:07Z</time>
      </trkpt>
      <trkpt lat="36.652294" lon="-4.487196">
        <ele>24.775</ele>
        <time>2021-06-16T18:30:08Z</time>
      </trkpt>
      <trkpt lat="36.652165" lon="-4.487216">
        <ele>24.728</ele>
        <time>2021-06-16T18:30:09Z</time>
      </trkpt>
      <trkpt lat="36.651905" lon="-4.487263">
        <ele>24.620</ele>
        <time>2021-06-16T18:30:11Z</time>
      </trkpt>
      <trkpt lat="36.651775" lon="-4.487289">
        <ele>24.708</ele>
        <time>2021-06-16T18:30:12Z</time>
      </trkpt>
      <trkpt lat="36.651514" lon="-4.487352">
        <ele>24.964</ele>
        <time>2021-06-16T18:30:14Z</time>
      </trkpt>
      <trkpt lat="36.651385" lon="-4.487391">
        <ele>25.143</ele>
        <time>2021-06-16T18:30:15Z</time>
      </trkpt>
      <trkpt lat="36.651133" lon="-4.487476">
        <ele>25.187</ele>
        <time>2021-06-16T18:30:17Z</time>
      </trkpt>
      <trkpt lat="36.650888" lon="-4.487579">
        <ele>25.247</ele>
        <time>2021-06-16T18:30:19Z</time>
      </trkpt>
      <trkpt lat="36.65077" lon="-4.487633">
        <ele>25.683</ele>
        <time>2021-06-16T18:30:20Z</time>
      </trkpt>
      <trkpt lat="36.650649" lon="-4.487688">
        <ele>25.745</ele>
        <time>2021-06-16T18:30:21Z</time>
      </trkpt>
      <trkpt lat="36.6504" lon="-4.487806">
        <ele>25.744</ele>
        <time>2021-06-16T18:30:23Z</time>
      </trkpt>
      <trkpt lat="36.650274" lon="-4.487874">
        <ele>25.978</ele>
        <time>2021-06-16T18:30:24Z</time>
      </trkpt>
      <trkpt lat="36.650146" lon="-4.487941">
        <ele>26.059</ele>
        <time>2021-06-16T18:30:25Z</time>
      </trkpt>
      <trkpt lat="36.649892" lon="-4.488073">
        <ele>25.703</ele>
        <time>2021-06-16T18:30:27Z</time>
      </trkpt>
      <trkpt lat="36.649638" lon="-4.488202">
        <ele>25.223</ele>
        <time>2021-06-16T18:30:29Z</time>
      </trkpt>
      <trkpt lat="36.649512" lon="-4.488265">
        <ele>25.008</ele>
        <time>2021-06-16T18:30:30Z</time>
      </trkpt>
      <trkpt lat="36.649257" lon="-4.488394">
        <ele>25.282</ele>
        <time>2021-06-16T18:30:32Z</time>
      </trkpt>
      <trkpt lat="36.649128" lon="-4.488459">
        <ele>25.191</ele>
        <time>2021-06-16T18:30:33Z</time>
      </trkpt>
      <trkpt lat="36.649" lon="-4.488524">
        <ele>25.145</ele>
        <time>2021-06-16T18:30:34Z</time>
      </trkpt>
      <trkpt lat="36.64875" lon="-4.488659">
        <ele>25.025</ele>
        <time>2021-06-16T18:30:36Z</time>
      </trkpt>
      <trkpt lat="36.648623" lon="-4.488727">
        <ele>25.191</ele>
        <time>2021-06-16T18:30:37Z</time>
      </trkpt>
      <trkpt lat="36.648368" lon="-4.488856">
        <ele>25.423</ele>
        <time>2021-06-16T18:30:39Z</time>
      </trkpt>
      <trkpt lat="36.648113" lon="-4.488983">
        <ele>25.832</ele>
        <time>2021-06-16T18:30:41Z</time>
      </trkpt>
      <trkpt lat="36.647875" lon="-4.489105">
        <ele>25.636</ele>
        <time>2021-06-16T18:30:43Z</time>
      </trkpt>
      <trkpt lat="36.647654" lon="-4.489219">
        <ele>25.646</ele>
        <time>2021-06-16T18:30:45Z</time>
      </trkpt>
      <trkpt lat="36.647434" lon="-4.489334">
        <ele>25.688</ele>
        <time>2021-06-16T18:30:47Z</time>
      </trkpt>
      <trkpt lat="36.647325" lon="-4.489386">
        <ele>25.916</ele>
        <time>2021-06-16T18:30:48Z</time>
      </trkpt>
      <trkpt lat="36.647108" lon="-4.489478">
        <ele>26.208</ele>
        <time>2021-06-16T18:30:50Z</time>
      </trkpt>
      <trkpt lat="36.64689" lon="-4.489558">
        <ele>26.241</ele>
        <time>2021-06-16T18:30:52Z</time>
      </trkpt>
      <trkpt lat="36.646673" lon="-4.489623">
        <ele>26.870</ele>
        <time>2021-06-16T18:30:54Z</time>
      </trkpt>
      <trkpt lat="36.646456" lon="-4.489683">
        <ele>26.894</ele>
        <time>2021-06-16T18:30:56Z</time>
      </trkpt>
      <trkpt lat="36.646246" lon="-4.489732">
        <ele>27.344</ele>
        <time>2021-06-16T18:30:58Z</time>
      </trkpt>
      <trkpt lat="36.646043" lon="-4.489771">
        <ele>28.270</ele>
        <time>2021-06-16T18:31:00Z</time>
      </trkpt>
      <trkpt lat="36.645845" lon="-4.489816">
        <ele>28.542</ele>
        <time>2021-06-16T18:31:02Z</time>
      </trkpt>
      <trkpt lat="36.645637" lon="-4.489866">
        <ele>28.651</ele>
        <time>2021-06-16T18:31:04Z</time>
      </trkpt>
      <trkpt lat="36.645532" lon="-4.489897">
        <ele>28.835</ele>
        <time>2021-06-16T18:31:05Z</time>
      </trkpt>
      <trkpt lat="36.645423" lon="-4.489938">
        <ele>28.789</ele>
        <time>2021-06-16T18:31:06Z</time>
      </trkpt>
      <trkpt lat="36.6452" lon="-4.490037">
        <ele>28.206</ele>
        <time>2021-06-16T18:31:08Z</time>
      </trkpt>
      <trkpt lat="36.645089" lon="-4.490098">
        <ele>27.926</ele>
        <time>2021-06-16T18:31:09Z</time>
      </trkpt>
      <trkpt lat="36.64498" lon="-4.490166">
        <ele>27.708</ele>
        <time>2021-06-16T18:31:10Z</time>
      </trkpt>
      <trkpt lat="36.644767" lon="-4.490311">
        <ele>27.345</ele>
        <time>2021-06-16T18:31:12Z</time>
      </trkpt>
      <trkpt lat="36.644666" lon="-4.490391">
        <ele>26.844</ele>
        <time>2021-06-16T18:31:13Z</time>
      </trkpt>
      <trkpt lat="36.644461" lon="-4.490571">
        <ele>26.458</ele>
        <time>2021-06-16T18:31:15Z</time>
      </trkpt>
      <trkpt lat="36.644359" lon="-4.490666">
        <ele>26.388</ele>
        <time>2021-06-16T18:31:16Z</time>
      </trkpt>
      <trkpt lat="36.644168" lon="-4.490865">
        <ele>26.024</ele>
        <time>2021-06-16T18:31:18Z</time>
      </trkpt>
      <trkpt lat="36.643986" lon="-4.491091">
        <ele>25.626</ele>
        <time>2021-06-16T18:31:20Z</time>
      </trkpt>
      <trkpt lat="36.643896" lon="-4.49121">
        <ele>25.235</ele>
        <time>2021-06-16T18:31:21Z</time>
      </trkpt>
      <trkpt lat="36.643806" lon="-4.491328">
        <ele>25.099</ele>
        <time>2021-06-16T18:31:22Z</time>
      </trkpt>
      <trkpt lat="36.643629" lon="-4.491564">
        <ele>25.169</ele>
        <time>2021-06-16T18:31:24Z</time>
      </trkpt>
      <trkpt lat="36.643542" lon="-4.491679">
        <ele>25.004</ele>
        <time>2021-06-16T18:31:25Z</time>
      </trkpt>
      <trkpt lat="36.643374" lon="-4.491905">
        <ele>24.924</ele>
        <time>2021-06-16T18:31:27Z</time>
      </trkpt>
      <trkpt lat="36.643293" lon="-4.492013">
        <ele>25.108</ele>
        <time>2021-06-16T18:31:28Z</time>
      </trkpt>
      <trkpt lat="36.643211" lon="-4.49212">
        <ele>25.153</ele>
        <time>2021-06-16T18:31:29Z</time>
      </trkpt>
      <trkpt lat="36.64313" lon="-4.492226">
        <ele>25.212</ele>
        <time>2021-06-16T18:31:30Z</time>
      </trkpt>
      <trkpt lat="36.643051" lon="-4.492336">
        <ele>25.386</ele>
        <time>2021-06-16T18:31:31Z</time>
      </trkpt>
      <trkpt lat="36.642893" lon="-4.492551">
        <ele>25.956</ele>
        <time>2021-06-16T18:31:33Z</time>
      </trkpt>
      <trkpt lat="36.642814" lon="-4.49266">
        <ele>26.282</ele>
        <time>2021-06-16T18:31:34Z</time>
      </trkpt>
      <trkpt lat="36.642734" lon="-4.49277">
        <ele>26.314</ele>
        <time>2021-06-16T18:31:35Z</time>
      </trkpt>
      <trkpt lat="36.642575" lon="-4.492994">
        <ele>26.583</ele>
        <time>2021-06-16T18:31:37Z</time>
      </trkpt>
      <trkpt lat="36.64242" lon="-4.493206">
        <ele>26.557</ele>
        <time>2021-06-16T18:31:39Z</time>
      </trkpt>
      <trkpt lat="36.642282" lon="-4.493403">
        <ele>27.074</ele>
        <time>2021-06-16T18:31:41Z</time>
      </trkpt>
      <trkpt lat="36.642159" lon="-4.493585">
        <ele>27.456</ele>
        <time>2021-06-16T18:31:43Z</time>
      </trkpt>
      <trkpt lat="36.642115" lon="-4.493653">
        <ele>27.221</ele>
        <time>2021-06-16T18:31:44Z</time>
      </trkpt>
      <trkpt lat="36.642046" lon="-4.493756">
        <ele>27.408</ele>
        <time>2021-06-16T18:31:46Z</time>
      </trkpt>
      <trkpt lat="36.641978" lon="-4.493854">
        <ele>27.514</ele>
        <time>2021-06-16T18:31:48Z</time>
      </trkpt>
      <trkpt lat="36.641879" lon="-4.493991">
        <ele>27.663</ele>
        <time>2021-06-16T18:31:50Z</time>
      </trkpt>
      <trkpt lat="36.641754" lon="-4.494166">
        <ele>28.047</ele>
        <time>2021-06-16T18:31:52Z</time>
      </trkpt>
      <trkpt lat="36.641688" lon="-4.494253">
        <ele>28.247</ele>
        <time>2021-06-16T18:31:53Z</time>
      </trkpt>
      <trkpt lat="36.641556" lon="-4.494435">
        <ele>28.263</ele>
        <time>2021-06-16T18:31:55Z</time>
      </trkpt>
      <trkpt lat="36.641489" lon="-4.494526">
        <ele>28.425</ele>
        <time>2021-06-16T18:31:56Z</time>
      </trkpt>
      <trkpt lat="36.641345" lon="-4.494709">
        <ele>29.354</ele>
        <time>2021-06-16T18:31:58Z</time>
      </trkpt>
      <trkpt lat="36.641208" lon="-4.494885">
        <ele>29.848</ele>
        <time>2021-06-16T18:32:00Z</time>
      </trkpt>
      <trkpt lat="36.641143" lon="-4.494971">
        <ele>30.593</ele>
        <time>2021-06-16T18:32:01Z</time>
      </trkpt>
      <trkpt lat="36.641024" lon="-4.495134">
        <ele>30.765</ele>
        <time>2021-06-16T18:32:03Z</time>
      </trkpt>
      <trkpt lat="36.640966" lon="-4.495212">
        <ele>31.121</ele>
        <time>2021-06-16T18:32:04Z</time>
      </trkpt>
      <trkpt lat="36.640905" lon="-4.495289">
        <ele>31.808</ele>
        <time>2021-06-16T18:32:05Z</time>
      </trkpt>
      <trkpt lat="36.640849" lon="-4.49536">
        <ele>31.996</ele>
        <time>2021-06-16T18:32:06Z</time>
      </trkpt>
      <trkpt lat="36.640733" lon="-4.495497">
        <ele>32.655</ele>
        <time>2021-06-16T18:32:08Z</time>
      </trkpt>
      <trkpt lat="36.64068" lon="-4.495547">
        <ele>33.269</ele>
        <time>2021-06-16T18:32:09Z</time>
      </trkpt>
      <trkpt lat="36.640589" lon="-4.495639">
        <ele>34.039</ele>
        <time>2021-06-16T18:32:11Z</time>
      </trkpt>
      <trkpt lat="36.640543" lon="-4.495686">
        <ele>34.465</ele>
        <time>2021-06-16T18:32:12Z</time>
      </trkpt>
      <trkpt lat="36.640496" lon="-4.495727">
        <ele>34.587</ele>
        <time>2021-06-16T18:32:13Z</time>
      </trkpt>
      <trkpt lat="36.640393" lon="-4.495818">
        <ele>34.416</ele>
        <time>2021-06-16T18:32:15Z</time>
      </trkpt>
      <trkpt lat="36.640332" lon="-4.495875">
        <ele>33.960</ele>
        <time>2021-06-16T18:32:16Z</time>
      </trkpt>
      <trkpt lat="36.640262" lon="-4.495939">
        <ele>34.061</ele>
        <time>2021-06-16T18:32:17Z</time>
      </trkpt>
      <trkpt lat="36.640114" lon="-4.49608">
        <ele>34.321</ele>
        <time>2021-06-16T18:32:19Z</time>
      </trkpt>
      <trkpt lat="36.639948" lon="-4.496213">
        <ele>35.113</ele>
        <time>2021-06-16T18:32:21Z</time>
      </trkpt>
      <trkpt lat="36.639775" lon="-4.49634">
        <ele>35.708</ele>
        <time>2021-06-16T18:32:23Z</time>
      </trkpt>
      <trkpt lat="36.639596" lon="-4.496462">
        <ele>36.323</ele>
        <time>2021-06-16T18:32:25Z</time>
      </trkpt>
      <trkpt lat="36.639411" lon="-4.496561">
        <ele>36.462</ele>
        <time>2021-06-16T18:32:27Z</time>
      </trkpt>
      <trkpt lat="36.639227" lon="-4.496664">
        <ele>36.836</ele>
        <time>2021-06-16T18:32:29Z</time>
      </trkpt>
      <trkpt lat="36.639133" lon="-4.496717">
        <ele>37.126</ele>
        <time>2021-06-16T18:32:30Z</time>
      </trkpt>
      <trkpt lat="36.638943" lon="-4.496813">
        <ele>37.022</ele>
        <time>2021-06-16T18:32:32Z</time>
      </trkpt>
      <trkpt lat="36.63875" lon="-4.496906">
        <ele>37.064</ele>
        <time>2021-06-16T18:32:34Z</time>
      </trkpt>
      <trkpt lat="36.638562" lon="-4.496997">
        <ele>37.573</ele>
        <time>2021-06-16T18:32:36Z</time>
      </trkpt>
      <trkpt lat="36.638379" lon="-4.497087">
        <ele>37.997</ele>
        <time>2021-06-16T18:32:38Z</time>
      </trkpt>
      <trkpt lat="36.638193" lon="-4.497181">
        <ele>38.298</ele>
        <time>2021-06-16T18:32:40Z</time>
      </trkpt>
      <trkpt lat="36.638099" lon="-4.497232">
        <ele>38.315</ele>
        <time>2021-06-16T18:32:41Z</time>
      </trkpt>
      <trkpt lat="36.637915" lon="-4.49734">
        <ele>38.126</ele>
        <time>2021-06-16T18:32:43Z</time>
      </trkpt>
      <trkpt lat="36.637826" lon="-4.497397">
        <ele>37.808</ele>
        <time>2021-06-16T18:32:44Z</time>
      </trkpt>
      <trkpt lat="36.637739" lon="-4.497453">
        <ele>37.856</ele>
        <time>2021-06-16T18:32:45Z</time>
      </trkpt>
      <trkpt lat="36.637653" lon="-4.497508">
        <ele>37.955</ele>
        <time>2021-06-16T18:32:46Z</time>
      </trkpt>
      <trkpt lat="36.637479" lon="-4.497622">
        <ele>37.889</ele>
        <time>2021-06-16T18:32:48Z</time>
      </trkpt>
      <trkpt lat="36.637388" lon="-4.49768">
        <ele>37.649</ele>
        <time>2021-06-16T18:32:49Z</time>
      </trkpt>
      <trkpt lat="36.637209" lon="-4.497803">
        <ele>37.445</ele>
        <time>2021-06-16T18:32:51Z</time>
      </trkpt>
      <trkpt lat="36.637036" lon="-4.49793">
        <ele>37.587</ele>
        <time>2021-06-16T18:32:53Z</time>
      </trkpt>
      <trkpt lat="36.636949" lon="-4.497992">
        <ele>37.846</ele>
        <time>2021-06-16T18:32:54Z</time>
      </trkpt>
      <trkpt lat="36.636862" lon="-4.498058">
        <ele>38.240</ele>
        <time>2021-06-16T18:32:55Z</time>
      </trkpt>
      <trkpt lat="36.636775" lon="-4.498122">
        <ele>38.295</ele>
        <time>2021-06-16T18:32:56Z</time>
      </trkpt>
      <trkpt lat="36.636689" lon="-4.498184">
        <ele>38.249</ele>
        <time>2021-06-16T18:32:57Z</time>
      </trkpt>
      <trkpt lat="36.636518" lon="-4.49831">
        <ele>38.723</ele>
        <time>2021-06-16T18:32:59Z</time>
      </trkpt>
      <trkpt lat="36.636345" lon="-4.498429">
        <ele>38.708</ele>
        <time>2021-06-16T18:33:01Z</time>
      </trkpt>
      <trkpt lat="36.63617" lon="-4.498551">
        <ele>39.076</ele>
        <time>2021-06-16T18:33:03Z</time>
      </trkpt>
      <trkpt lat="36.635996" lon="-4.49867">
        <ele>39.445</ele>
        <time>2021-06-16T18:33:05Z</time>
      </trkpt>
      <trkpt lat="36.635913" lon="-4.498725">
        <ele>39.539</ele>
        <time>2021-06-16T18:33:06Z</time>
      </trkpt>
      <trkpt lat="36.635744" lon="-4.498823">
        <ele>39.989</ele>
        <time>2021-06-16T18:33:08Z</time>
      </trkpt>
      <trkpt lat="36.63566" lon="-4.498867">
        <ele>40.335</ele>
        <time>2021-06-16T18:33:09Z</time>
      </trkpt>
      <trkpt lat="36.635496" lon="-4.498946">
        <ele>40.667</ele>
        <time>2021-06-16T18:33:11Z</time>
      </trkpt>
      <trkpt lat="36.635351" lon="-4.499009">
        <ele>40.826</ele>
        <time>2021-06-16T18:33:13Z</time>
      </trkpt>
      <trkpt lat="36.635289" lon="-4.499034">
        <ele>40.850</ele>
        <time>2021-06-16T18:33:14Z</time>
      </trkpt>
      <trkpt lat="36.635181" lon="-4.499083">
        <ele>40.979</ele>
        <time>2021-06-16T18:33:16Z</time>
      </trkpt>
      <trkpt lat="36.635131" lon="-4.499102">
        <ele>41.105</ele>
        <time>2021-06-16T18:33:17Z</time>
      </trkpt>
      <trkpt lat="36.635014" lon="-4.499151">
        <ele>41.325</ele>
        <time>2021-06-16T18:33:19Z</time>
      </trkpt>
      <trkpt lat="36.634873" lon="-4.499205">
        <ele>41.808</ele>
        <time>2021-06-16T18:33:21Z</time>
      </trkpt>
      <trkpt lat="36.6348" lon="-4.499233">
        <ele>42.264</ele>
        <time>2021-06-16T18:33:22Z</time>
      </trkpt>
      <trkpt lat="36.634728" lon="-4.499264">
        <ele>42.453</ele>
        <time>2021-06-16T18:33:23Z</time>
      </trkpt>
      <trkpt lat="36.634575" lon="-4.499324">
        <ele>42.977</ele>
        <time>2021-06-16T18:33:25Z</time>
      </trkpt>
      <trkpt lat="36.634493" lon="-4.499356">
        <ele>43.157</ele>
        <time>2021-06-16T18:33:26Z</time>
      </trkpt>
      <trkpt lat="36.634412" lon="-4.499389">
        <ele>43.223</ele>
        <time>2021-06-16T18:33:27Z</time>
      </trkpt>
      <trkpt lat="36.63433" lon="-4.499423">
        <ele>43.315</ele>
        <time>2021-06-16T18:33:28Z</time>
      </trkpt>
      <trkpt lat="36.634176" lon="-4.499492">
        <ele>43.864</ele>
        <time>2021-06-16T18:33:30Z</time>
      </trkpt>
      <trkpt lat="36.634102" lon="-4.499523">
        <ele>44.038</ele>
        <time>2021-06-16T18:33:31Z</time>
      </trkpt>
      <trkpt lat="36.633953" lon="-4.499597">
        <ele>44.353</ele>
        <time>2021-06-16T18:33:33Z</time>
      </trkpt>
      <trkpt lat="36.63381" lon="-4.499684">
        <ele>44.404</ele>
        <time>2021-06-16T18:33:35Z</time>
      </trkpt>
      <trkpt lat="36.633741" lon="-4.499722">
        <ele>44.714</ele>
        <time>2021-06-16T18:33:36Z</time>
      </trkpt>
      <trkpt lat="36.633674" lon="-4.499758">
        <ele>44.808</ele>
        <time>2021-06-16T18:33:37Z</time>
      </trkpt>
      <trkpt lat="36.633612" lon="-4.499791">
        <ele>44.932</ele>
        <time>2021-06-16T18:33:38Z</time>
      </trkpt>
      <trkpt lat="36.633502" lon="-4.499844">
        <ele>45.261</ele>
        <time>2021-06-16T18:33:40Z</time>
      </trkpt>
      <trkpt lat="36.633452" lon="-4.499872">
        <ele>45.635</ele>
        <time>2021-06-16T18:33:41Z</time>
      </trkpt>
      <trkpt lat="36.633404" lon="-4.499903">
        <ele>45.875</ele>
        <time>2021-06-16T18:33:42Z</time>
      </trkpt>
      <trkpt lat="36.633356" lon="-4.499939">
        <ele>45.851</ele>
        <time>2021-06-16T18:33:43Z</time>
      </trkpt>
      <trkpt lat="36.633309" lon="-4.499976">
        <ele>45.973</ele>
        <time>2021-06-16T18:33:44Z</time>
      </trkpt>
      <trkpt lat="36.63323" lon="-4.500048">
        <ele>46.342</ele>
        <time>2021-06-16T18:33:46Z</time>
      </trkpt>
      <trkpt lat="36.633166" lon="-4.500134">
        <ele>46.646</ele>
        <time>2021-06-16T18:33:48Z</time>
      </trkpt>
      <trkpt lat="36.63313" lon="-4.500183">
        <ele>46.996</ele>
        <time>2021-06-16T18:33:49Z</time>
      </trkpt>
      <trkpt lat="36.633059" lon="-4.500227">
        <ele>47.031</ele>
        <time>2021-06-16T18:33:51Z</time>
      </trkpt>
      <trkpt lat="36.633003" lon="-4.500188">
        <ele>47.224</ele>
        <time>2021-06-16T18:33:53Z</time>
      </trkpt>
      <trkpt lat="36.632974" lon="-4.50007">
        <ele>47.408</ele>
        <time>2021-06-16T18:33:55Z</time>
      </trkpt>
      <trkpt lat="36.632936" lon="-4.499923">
        <ele>47.216</ele>
        <time>2021-06-16T18:33:57Z</time>
      </trkpt>
      <trkpt lat="36.632909" lon="-4.499842">
        <ele>47.145</ele>
        <time>2021-06-16T18:33:58Z</time>
      </trkpt>
      <trkpt lat="36.632855" lon="-4.499667">
        <ele>46.869</ele>
        <time>2021-06-16T18:34:00Z</time>
      </trkpt>
      <trkpt lat="36.632823" lon="-4.499504">
        <ele>46.559</ele>
        <time>2021-06-16T18:34:02Z</time>
      </trkpt>
      <trkpt lat="36.632808" lon="-4.499429">
        <ele>46.685</ele>
        <time>2021-06-16T18:34:03Z</time>
      </trkpt>
      <trkpt lat="36.632759" lon="-4.499377">
        <ele>46.577</ele>
        <time>2021-06-16T18:34:05Z</time>
      </trkpt>
      <trkpt lat="36.632707" lon="-4.499382">
        <ele>45.956</ele>
        <time>2021-06-16T18:34:07Z</time>
      </trkpt>
      <trkpt lat="36.63263" lon="-4.499435">
        <ele>45.270</ele>
        <time>2021-06-16T18:34:09Z</time>
      </trkpt>
      <trkpt lat="36.632588" lon="-4.499483">
        <ele>44.923</ele>
        <time>2021-06-16T18:34:10Z</time>
      </trkpt>
      <trkpt lat="36.632546" lon="-4.499529">
        <ele>44.683</ele>
        <time>2021-06-16T18:34:11Z</time>
      </trkpt>
      <trkpt lat="36.632445" lon="-4.499594">
        <ele>44.911</ele>
        <time>2021-06-16T18:34:13Z</time>
      </trkpt>
      <trkpt lat="36.632311" lon="-4.49963">
        <ele>44.808</ele>
        <time>2021-06-16T18:34:15Z</time>
      </trkpt>
      <trkpt lat="36.632238" lon="-4.499649">
        <ele>44.769</ele>
        <time>2021-06-16T18:34:16Z</time>
      </trkpt>
      <trkpt lat="36.632092" lon="-4.499659">
        <ele>44.528</ele>
        <time>2021-06-16T18:34:18Z</time>
      </trkpt>
      <trkpt lat="36.632021" lon="-4.499652">
        <ele>44.362</ele>
        <time>2021-06-16T18:34:19Z</time>
      </trkpt>
      <trkpt lat="36.631884" lon="-4.499628">
        <ele>44.142</ele>
        <time>2021-06-16T18:34:21Z</time>
      </trkpt>
      <trkpt lat="36.63177" lon="-4.499603">
        <ele>44.038</ele>
        <time>2021-06-16T18:34:23Z</time>
      </trkpt>
      <trkpt lat="36.631723" lon="-4.499601">
        <ele>44.130</ele>
        <time>2021-06-16T18:34:24Z</time>
      </trkpt>
      <trkpt lat="36.631672" lon="-4.499645">
        <ele>44.159</ele>
        <time>2021-06-16T18:34:26Z</time>
      </trkpt>
      <trkpt lat="36.631663" lon="-4.499711">
        <ele>44.383</ele>
        <time>2021-06-16T18:34:28Z</time>
      </trkpt>
      <trkpt lat="36.631704" lon="-4.499763">
        <ele>44.723</ele>
        <time>2021-06-16T18:34:30Z</time>
      </trkpt>
      <trkpt lat="36.631649" lon="-4.49979">
        <ele>46.983</ele>
        <time>2021-06-16T18:43:08Z</time>
      </trkpt>
      <trkpt lat="36.631596" lon="-4.499819">
        <ele>47.911</ele>
        <time>2021-06-16T18:43:11Z</time>
      </trkpt>
      <trkpt lat="36.631549" lon="-4.499856">
        <ele>49.308</ele>
        <time>2021-06-16T18:43:14Z</time>
      </trkpt>
      <trkpt lat="36.631504" lon="-4.499883">
        <ele>49.659</ele>
        <time>2021-06-16T18:43:17Z</time>
      </trkpt>
      <trkpt lat="36.631458" lon="-4.499907">
        <ele>50.648</ele>
        <time>2021-06-16T18:43:20Z</time>
      </trkpt>
      <trkpt lat="36.631425" lon="-4.499957">
        <ele>51.372</ele>
        <time>2021-06-16T18:43:24Z</time>
      </trkpt>
      <trkpt lat="36.631467" lon="-4.499997">
        <ele>51.542</ele>
        <time>2021-06-16T18:43:28Z</time>
      </trkpt>
      <trkpt lat="36.631221" lon="-4.500254">
        <ele>48.498</ele>
        <time>2021-06-16T18:44:13Z</time>
      </trkpt>
      <trkpt lat="36.631175" lon="-4.500342">
        <ele>46.560</ele>
        <time>2021-06-16T18:44:23Z</time>
      </trkpt>
      <trkpt lat="36.631279" lon="-4.500261">
        <ele>45.419</ele>
        <time>2021-06-16T18:44:53Z</time>
      </trkpt>
      <trkpt lat="36.631298" lon="-4.500147">
        <ele>44.733</ele>
        <time>2021-06-16T18:45:23Z</time>
      </trkpt>
      <trkpt lat="36.631376" lon="-4.499951">
        <ele>44.334</ele>
        <time>2021-06-16T18:45:33Z</time>
      </trkpt>
      <trkpt lat="36.631337" lon="-4.500007">
        <ele>44.155</ele>
        <time>2021-06-16T18:46:13Z</time>
      </trkpt>
      <trkpt lat="36.631304" lon="-4.500071">
        <ele>44.010</ele>
        <time>2021-06-16T18:46:43Z</time>
      </trkpt>
      <trkpt lat="36.631311" lon="-4.499994">
        <ele>43.908</ele>
        <time>2021-06-16T18:47:03Z</time>
      </trkpt>
      <trkpt lat="36.63138" lon="-4.499929">
        <ele>43.930</ele>
        <time>2021-06-16T18:47:33Z</time>
      </trkpt>
      <trkpt lat="36.631444" lon="-4.499942">
        <ele>43.829</ele>
        <time>2021-06-16T18:47:58Z</time>
      </trkpt>
      <trkpt lat="36.631392" lon="-4.499953">
        <ele>43.813</ele>
        <time>2021-06-16T18:49:08Z</time>
      </trkpt>
      <trkpt lat="36.631411" lon="-4.49989">
        <ele>43.893</ele>
        <time>2021-06-16T18:51:14Z</time>
      </trkpt>
      <trkpt lat="36.631382" lon="-4.499939">
        <ele>43.779</ele>
        <time>2021-06-16T18:51:34Z</time>
      </trkpt>
      <trkpt lat="36.631406" lon="-4.499878">
        <ele>43.731</ele>
        <time>2021-06-16T18:52:14Z</time>
      </trkpt>
      <trkpt lat="36.63144" lon="-4.499813">
        <ele>43.790</ele>
        <time>2021-06-16T18:52:20Z</time>
      </trkpt>
      <trkpt lat="36.631474" lon="-4.499761">
        <ele>43.794</ele>
        <time>2021-06-16T18:52:22Z</time>
      </trkpt>
      <trkpt lat="36.631508" lon="-4.499724">
        <ele>43.717</ele>
        <time>2021-06-16T18:52:28Z</time>
      </trkpt>
      <trkpt lat="36.631557" lon="-4.499736">
        <ele>43.787</ele>
        <time>2021-06-16T18:52:31Z</time>
      </trkpt>
      <trkpt lat="36.631603" lon="-4.49975">
        <ele>43.815</ele>
        <time>2021-06-16T18:52:36Z</time>
      </trkpt>
      <trkpt lat="36.6316" lon="-4.499807">
        <ele>43.908</ele>
        <time>2021-06-16T18:53:16Z</time>
      </trkpt>
      <trkpt lat="36.631615" lon="-4.499865">
        <ele>44.068</ele>
        <time>2021-06-16T18:53:34Z</time>
      </trkpt>
      <trkpt lat="36.63166" lon="-4.499877">
        <ele>44.277</ele>
        <time>2021-06-16T18:55:01Z</time>
      </trkpt>
      <trkpt lat="36.631622" lon="-4.499907">
        <ele>44.251</ele>
        <time>2021-06-16T18:57:44Z</time>
      </trkpt>
      <trkpt lat="36.631651" lon="-4.499859">
        <ele>44.211</ele>
        <time>2021-06-16T18:57:49Z</time>
      </trkpt>
      <trkpt lat="36.631691" lon="-4.499828">
        <ele>44.367</ele>
        <time>2021-06-16T18:58:38Z</time>
      </trkpt>
      <trkpt lat="36.631666" lon="-4.499781">
        <ele>44.349</ele>
        <time>2021-06-16T18:59:21Z</time>
      </trkpt>
      <trkpt lat="36.631656" lon="-4.499871">
        <ele>68.718</ele>
        <time>2021-06-16T19:42:59Z</time>
      </trkpt>
      <trkpt lat="36.631624" lon="-4.499818">
        <ele>51.032</ele>
        <time>2021-06-16T19:45:08Z</time>
      </trkpt>
      <trkpt lat="36.6316" lon="-4.499763">
        <ele>47.966</ele>
        <time>2021-06-16T19:45:10Z</time>
      </trkpt>
      <trkpt lat="36.631604" lon="-4.499691">
        <ele>49.929</ele>
        <time>2021-06-16T19:45:13Z</time>
      </trkpt>
      <trkpt lat="36.631611" lon="-4.499602">
        <ele>51.221</ele>
        <time>2021-06-16T19:45:18Z</time>
      </trkpt>
      <trkpt lat="36.631572" lon="-4.499521">
        <ele>51.608</ele>
        <time>2021-06-16T19:45:20Z</time>
      </trkpt>
      <trkpt lat="36.631523" lon="-4.499491">
        <ele>51.653</ele>
        <time>2021-06-16T19:45:21Z</time>
      </trkpt>
      <trkpt lat="36.631373" lon="-4.499492">
        <ele>50.882</ele>
        <time>2021-06-16T19:45:23Z</time>
      </trkpt>
      <trkpt lat="36.631211" lon="-4.499466">
        <ele>50.926</ele>
        <time>2021-06-16T19:45:25Z</time>
      </trkpt>
      <trkpt lat="36.631125" lon="-4.499449">
        <ele>51.256</ele>
        <time>2021-06-16T19:45:26Z</time>
      </trkpt>
      <trkpt lat="36.631035" lon="-4.499431">
        <ele>51.742</ele>
        <time>2021-06-16T19:45:27Z</time>
      </trkpt>
      <trkpt lat="36.630853" lon="-4.499396">
        <ele>52.474</ele>
        <time>2021-06-16T19:45:29Z</time>
      </trkpt>
      <trkpt lat="36.630763" lon="-4.499374">
        <ele>52.973</ele>
        <time>2021-06-16T19:45:30Z</time>
      </trkpt>
      <trkpt lat="36.630675" lon="-4.499349">
        <ele>53.187</ele>
        <time>2021-06-16T19:45:31Z</time>
      </trkpt>
      <trkpt lat="36.630522" lon="-4.499311">
        <ele>53.795</ele>
        <time>2021-06-16T19:45:33Z</time>
      </trkpt>
      <trkpt lat="36.630464" lon="-4.499297">
        <ele>54.449</ele>
        <time>2021-06-16T19:45:34Z</time>
      </trkpt>
      <trkpt lat="36.630371" lon="-4.499271">
        <ele>55.023</ele>
        <time>2021-06-16T19:45:36Z</time>
      </trkpt>
      <trkpt lat="36.630324" lon="-4.499269">
        <ele>55.308</ele>
        <time>2021-06-16T19:45:37Z</time>
      </trkpt>
      <trkpt lat="36.630267" lon="-4.499257">
        <ele>55.656</ele>
        <time>2021-06-16T19:45:38Z</time>
      </trkpt>
      <trkpt lat="36.630131" lon="-4.499205">
        <ele>55.875</ele>
        <time>2021-06-16T19:45:40Z</time>
      </trkpt>
      <trkpt lat="36.630052" lon="-4.499177">
        <ele>56.439</ele>
        <time>2021-06-16T19:45:41Z</time>
      </trkpt>
      <trkpt lat="36.629969" lon="-4.499147">
        <ele>56.779</ele>
        <time>2021-06-16T19:45:42Z</time>
      </trkpt>
      <trkpt lat="36.629809" lon="-4.499107">
        <ele>57.385</ele>
        <time>2021-06-16T19:45:44Z</time>
      </trkpt>
      <trkpt lat="36.629729" lon="-4.499105">
        <ele>57.457</ele>
        <time>2021-06-16T19:45:45Z</time>
      </trkpt>
      <trkpt lat="36.629574" lon="-4.499151">
        <ele>58.296</ele>
        <time>2021-06-16T19:45:47Z</time>
      </trkpt>
      <trkpt lat="36.629513" lon="-4.499201">
        <ele>59.140</ele>
        <time>2021-06-16T19:45:48Z</time>
      </trkpt>
      <trkpt lat="36.629468" lon="-4.499271">
        <ele>59.861</ele>
        <time>2021-06-16T19:45:49Z</time>
      </trkpt>
      <trkpt lat="36.629438" lon="-4.499354">
        <ele>60.421</ele>
        <time>2021-06-16T19:45:50Z</time>
      </trkpt>
      <trkpt lat="36.62941" lon="-4.499489">
        <ele>60.713</ele>
        <time>2021-06-16T19:45:52Z</time>
      </trkpt>
      <trkpt lat="36.629389" lon="-4.499541">
        <ele>60.608</ele>
        <time>2021-06-16T19:45:53Z</time>
      </trkpt>
      <trkpt lat="36.629325" lon="-4.499655">
        <ele>60.953</ele>
        <time>2021-06-16T19:45:55Z</time>
      </trkpt>
      <trkpt lat="36.629293" lon="-4.499732">
        <ele>61.132</ele>
        <time>2021-06-16T19:45:56Z</time>
      </trkpt>
      <trkpt lat="36.629257" lon="-4.499819">
        <ele>61.616</ele>
        <time>2021-06-16T19:45:57Z</time>
      </trkpt>
      <trkpt lat="36.629185" lon="-4.499993">
        <ele>62.166</ele>
        <time>2021-06-16T19:45:59Z</time>
      </trkpt>
      <trkpt lat="36.629129" lon="-4.50015">
        <ele>62.732</ele>
        <time>2021-06-16T19:46:01Z</time>
      </trkpt>
      <trkpt lat="36.629087" lon="-4.500275">
        <ele>63.674</ele>
        <time>2021-06-16T19:46:03Z</time>
      </trkpt>
      <trkpt lat="36.629062" lon="-4.500329">
        <ele>64.033</ele>
        <time>2021-06-16T19:46:04Z</time>
      </trkpt>
      <trkpt lat="36.629" lon="-4.500464">
        <ele>63.967</ele>
        <time>2021-06-16T19:46:06Z</time>
      </trkpt>
      <trkpt lat="36.628961" lon="-4.500545">
        <ele>64.268</ele>
        <time>2021-06-16T19:46:07Z</time>
      </trkpt>
      <trkpt lat="36.628889" lon="-4.500683">
        <ele>64.842</ele>
        <time>2021-06-16T19:46:09Z</time>
      </trkpt>
      <trkpt lat="36.628826" lon="-4.500818">
        <ele>64.926</ele>
        <time>2021-06-16T19:46:11Z</time>
      </trkpt>
      <trkpt lat="36.628792" lon="-4.500897">
        <ele>64.808</ele>
        <time>2021-06-16T19:46:12Z</time>
      </trkpt>
      <trkpt lat="36.628709" lon="-4.501078">
        <ele>65.653</ele>
        <time>2021-06-16T19:46:14Z</time>
      </trkpt>
      <trkpt lat="36.628615" lon="-4.501279">
        <ele>65.652</ele>
        <time>2021-06-16T19:46:16Z</time>
      </trkpt>
      <trkpt lat="36.628541" lon="-4.501479">
        <ele>66.156</ele>
        <time>2021-06-16T19:46:18Z</time>
      </trkpt>
      <trkpt lat="36.628482" lon="-4.501623">
        <ele>66.866</ele>
        <time>2021-06-16T19:46:20Z</time>
      </trkpt>
      <trkpt lat="36.62844" lon="-4.501717">
        <ele>67.732</ele>
        <time>2021-06-16T19:46:22Z</time>
      </trkpt>
      <trkpt lat="36.62839" lon="-4.501839">
        <ele>68.424</ele>
        <time>2021-06-16T19:46:24Z</time>
      </trkpt>
      <trkpt lat="36.628362" lon="-4.501947">
        <ele>69.293</ele>
        <time>2021-06-16T19:46:26Z</time>
      </trkpt>
      <trkpt lat="36.628334" lon="-4.502018">
        <ele>69.487</ele>
        <time>2021-06-16T19:46:30Z</time>
      </trkpt>
      <trkpt lat="36.628269" lon="-4.502129">
        <ele>69.662</ele>
        <time>2021-06-16T19:46:32Z</time>
      </trkpt>
      <trkpt lat="36.628196" lon="-4.502283">
        <ele>69.183</ele>
        <time>2021-06-16T19:46:34Z</time>
      </trkpt>
      <trkpt lat="36.628161" lon="-4.502358">
        <ele>69.111</ele>
        <time>2021-06-16T19:46:35Z</time>
      </trkpt>
      <trkpt lat="36.628134" lon="-4.502425">
        <ele>68.908</ele>
        <time>2021-06-16T19:46:36Z</time>
      </trkpt>
      <trkpt lat="36.62811" lon="-4.502489">
        <ele>68.433</ele>
        <time>2021-06-16T19:46:37Z</time>
      </trkpt>
      <trkpt lat="36.628061" lon="-4.502601">
        <ele>68.142</ele>
        <time>2021-06-16T19:46:39Z</time>
      </trkpt>
      <trkpt lat="36.628027" lon="-4.502668">
        <ele>68.786</ele>
        <time>2021-06-16T19:46:41Z</time>
      </trkpt>
      <trkpt lat="36.627996" lon="-4.502735">
        <ele>68.936</ele>
        <time>2021-06-16T19:46:43Z</time>
      </trkpt>
      <trkpt lat="36.627972" lon="-4.502785">
        <ele>69.452</ele>
        <time>2021-06-16T19:46:45Z</time>
      </trkpt>
      <trkpt lat="36.627953" lon="-4.502843">
        <ele>69.054</ele>
        <time>2021-06-16T19:46:49Z</time>
      </trkpt>
      <trkpt lat="36.627928" lon="-4.502908">
        <ele>68.923</ele>
        <time>2021-06-16T19:46:53Z</time>
      </trkpt>
      <trkpt lat="36.627926" lon="-4.502978">
        <ele>68.697</ele>
        <time>2021-06-16T19:46:56Z</time>
      </trkpt>
      <trkpt lat="36.627941" lon="-4.503065">
        <ele>68.577</ele>
        <time>2021-06-16T19:46:58Z</time>
      </trkpt>
      <trkpt lat="36.627971" lon="-4.503122">
        <ele>68.261</ele>
        <time>2021-06-16T19:47:00Z</time>
      </trkpt>
      <trkpt lat="36.628044" lon="-4.503203">
        <ele>68.727</ele>
        <time>2021-06-16T19:47:02Z</time>
      </trkpt>
      <trkpt lat="36.62808" lon="-4.503274">
        <ele>69.308</ele>
        <time>2021-06-16T19:47:03Z</time>
      </trkpt>
      <trkpt lat="36.628116" lon="-4.503351">
        <ele>69.584</ele>
        <time>2021-06-16T19:47:04Z</time>
      </trkpt>
      <trkpt lat="36.628166" lon="-4.503425">
        <ele>69.833</ele>
        <time>2021-06-16T19:47:05Z</time>
      </trkpt>
      <trkpt lat="36.62831" lon="-4.503548">
        <ele>70.027</ele>
        <time>2021-06-16T19:47:07Z</time>
      </trkpt>
      <trkpt lat="36.628392" lon="-4.503595">
        <ele>70.157</ele>
        <time>2021-06-16T19:47:08Z</time>
      </trkpt>
      <trkpt lat="36.628478" lon="-4.503641">
        <ele>70.293</ele>
        <time>2021-06-16T19:47:09Z</time>
      </trkpt>
      <trkpt lat="36.628565" lon="-4.503691">
        <ele>70.615</ele>
        <time>2021-06-16T19:47:10Z</time>
      </trkpt>
      <trkpt lat="36.628653" lon="-4.503744">
        <ele>71.534</ele>
        <time>2021-06-16T19:47:11Z</time>
      </trkpt>
      <trkpt lat="36.628823" lon="-4.503845">
        <ele>72.168</ele>
        <time>2021-06-16T19:47:13Z</time>
      </trkpt>
      <trkpt lat="36.628904" lon="-4.503884">
        <ele>72.731</ele>
        <time>2021-06-16T19:47:14Z</time>
      </trkpt>
      <trkpt lat="36.62906" lon="-4.503939">
        <ele>72.661</ele>
        <time>2021-06-16T19:47:16Z</time>
      </trkpt>
      <trkpt lat="36.629136" lon="-4.503941">
        <ele>73.107</ele>
        <time>2021-06-16T19:47:17Z</time>
      </trkpt>
      <trkpt lat="36.629306" lon="-4.503896">
        <ele>72.908</ele>
        <time>2021-06-16T19:47:19Z</time>
      </trkpt>
      <trkpt lat="36.629381" lon="-4.503857">
        <ele>72.680</ele>
        <time>2021-06-16T19:47:20Z</time>
      </trkpt>
      <trkpt lat="36.629445" lon="-4.503805">
        <ele>72.329</ele>
        <time>2021-06-16T19:47:21Z</time>
      </trkpt>
      <trkpt lat="36.629562" lon="-4.503704">
        <ele>71.723</ele>
        <time>2021-06-16T19:47:23Z</time>
      </trkpt>
      <trkpt lat="36.62966" lon="-4.503558">
        <ele>70.993</ele>
        <time>2021-06-16T19:47:25Z</time>
      </trkpt>
      <trkpt lat="36.629721" lon="-4.503465">
        <ele>70.419</ele>
        <time>2021-06-16T19:47:26Z</time>
      </trkpt>
      <trkpt lat="36.629788" lon="-4.503362">
        <ele>69.851</ele>
        <time>2021-06-16T19:47:27Z</time>
      </trkpt>
      <trkpt lat="36.629939" lon="-4.50314">
        <ele>69.190</ele>
        <time>2021-06-16T19:47:29Z</time>
      </trkpt>
      <trkpt lat="36.630118" lon="-4.502898">
        <ele>68.434</ele>
        <time>2021-06-16T19:47:31Z</time>
      </trkpt>
      <trkpt lat="36.630213" lon="-4.502774">
        <ele>67.954</ele>
        <time>2021-06-16T19:47:32Z</time>
      </trkpt>
      <trkpt lat="36.630394" lon="-4.502544">
        <ele>67.456</ele>
        <time>2021-06-16T19:47:34Z</time>
      </trkpt>
      <trkpt lat="36.63058" lon="-4.502331">
        <ele>66.711</ele>
        <time>2021-06-16T19:47:36Z</time>
      </trkpt>
      <trkpt lat="36.630674" lon="-4.502226">
        <ele>66.108</ele>
        <time>2021-06-16T19:47:37Z</time>
      </trkpt>
      <trkpt lat="36.630869" lon="-4.502022">
        <ele>65.142</ele>
        <time>2021-06-16T19:47:39Z</time>
      </trkpt>
      <trkpt lat="36.631066" lon="-4.501826">
        <ele>64.281</ele>
        <time>2021-06-16T19:47:41Z</time>
      </trkpt>
      <trkpt lat="36.631262" lon="-4.50164">
        <ele>62.995</ele>
        <time>2021-06-16T19:47:43Z</time>
      </trkpt>
      <trkpt lat="36.631361" lon="-4.501549">
        <ele>62.125</ele>
        <time>2021-06-16T19:47:44Z</time>
      </trkpt>
      <trkpt lat="36.631568" lon="-4.501371">
        <ele>60.781</ele>
        <time>2021-06-16T19:47:46Z</time>
      </trkpt>
      <trkpt lat="36.631667" lon="-4.501284">
        <ele>59.633</ele>
        <time>2021-06-16T19:47:47Z</time>
      </trkpt>
      <trkpt lat="36.631853" lon="-4.501123">
        <ele>58.922</ele>
        <time>2021-06-16T19:47:49Z</time>
      </trkpt>
      <trkpt lat="36.632047" lon="-4.500955">
        <ele>58.326</ele>
        <time>2021-06-16T19:47:51Z</time>
      </trkpt>
      <trkpt lat="36.632235" lon="-4.500795">
        <ele>58.085</ele>
        <time>2021-06-16T19:47:53Z</time>
      </trkpt>
      <trkpt lat="36.632327" lon="-4.500716">
        <ele>57.889</ele>
        <time>2021-06-16T19:47:54Z</time>
      </trkpt>
      <trkpt lat="36.632416" lon="-4.50064">
        <ele>57.317</ele>
        <time>2021-06-16T19:47:55Z</time>
      </trkpt>
      <trkpt lat="36.632497" lon="-4.500568">
        <ele>57.108</ele>
        <time>2021-06-16T19:47:56Z</time>
      </trkpt>
      <trkpt lat="36.63263" lon="-4.500445">
        <ele>56.825</ele>
        <time>2021-06-16T19:47:58Z</time>
      </trkpt>
      <trkpt lat="36.63268" lon="-4.500399">
        <ele>56.244</ele>
        <time>2021-06-16T19:47:59Z</time>
      </trkpt>
      <trkpt lat="36.63273" lon="-4.500353">
        <ele>55.978</ele>
        <time>2021-06-16T19:48:00Z</time>
      </trkpt>
      <trkpt lat="36.632839" lon="-4.500258">
        <ele>55.618</ele>
        <time>2021-06-16T19:48:02Z</time>
      </trkpt>
      <trkpt lat="36.632892" lon="-4.5002">
        <ele>55.154</ele>
        <time>2021-06-16T19:48:03Z</time>
      </trkpt>
      <trkpt lat="36.633027" lon="-4.500058">
        <ele>54.466</ele>
        <time>2021-06-16T19:48:05Z</time>
      </trkpt>
      <trkpt lat="36.633118" lon="-4.499993">
        <ele>53.885</ele>
        <time>2021-06-16T19:48:06Z</time>
      </trkpt>
      <trkpt lat="36.633225" lon="-4.499925">
        <ele>53.559</ele>
        <time>2021-06-16T19:48:07Z</time>
      </trkpt>
      <trkpt lat="36.633342" lon="-4.499849">
        <ele>53.184</ele>
        <time>2021-06-16T19:48:08Z</time>
      </trkpt>
      <trkpt lat="36.633571" lon="-4.499682">
        <ele>52.407</ele>
        <time>2021-06-16T19:48:10Z</time>
      </trkpt>
      <trkpt lat="36.633827" lon="-4.499514">
        <ele>51.717</ele>
        <time>2021-06-16T19:48:12Z</time>
      </trkpt>
      <trkpt lat="36.634083" lon="-4.499367">
        <ele>51.008</ele>
        <time>2021-06-16T19:48:14Z</time>
      </trkpt>
      <trkpt lat="36.634346" lon="-4.499241">
        <ele>49.965</ele>
        <time>2021-06-16T19:48:16Z</time>
      </trkpt>
      <trkpt lat="36.63461" lon="-4.499134">
        <ele>48.794</ele>
        <time>2021-06-16T19:48:18Z</time>
      </trkpt>
      <trkpt lat="36.634749" lon="-4.499085">
        <ele>47.878</ele>
        <time>2021-06-16T19:48:19Z</time>
      </trkpt>
      <trkpt lat="36.635018" lon="-4.498983">
        <ele>46.998</ele>
        <time>2021-06-16T19:48:21Z</time>
      </trkpt>
      <trkpt lat="36.63527" lon="-4.49888">
        <ele>46.354</ele>
        <time>2021-06-16T19:48:23Z</time>
      </trkpt>
      <trkpt lat="36.635395" lon="-4.498826">
        <ele>46.136</ele>
        <time>2021-06-16T19:48:24Z</time>
      </trkpt>
      <trkpt lat="36.635649" lon="-4.498702">
        <ele>45.825</ele>
        <time>2021-06-16T19:48:26Z</time>
      </trkpt>
      <trkpt lat="36.635778" lon="-4.498636">
        <ele>45.769</ele>
        <time>2021-06-16T19:48:27Z</time>
      </trkpt>
      <trkpt lat="36.635908" lon="-4.498562">
        <ele>45.883</ele>
        <time>2021-06-16T19:48:28Z</time>
      </trkpt>
      <trkpt lat="36.636161" lon="-4.498401">
        <ele>45.525</ele>
        <time>2021-06-16T19:48:30Z</time>
      </trkpt>
      <trkpt lat="36.636288" lon="-4.498316">
        <ele>45.117</ele>
        <time>2021-06-16T19:48:31Z</time>
      </trkpt>
      <trkpt lat="36.636413" lon="-4.498232">
        <ele>44.708</ele>
        <time>2021-06-16T19:48:32Z</time>
      </trkpt>
      <trkpt lat="36.636542" lon="-4.498147">
        <ele>44.245</ele>
        <time>2021-06-16T19:48:33Z</time>
      </trkpt>
      <trkpt lat="36.636799" lon="-4.497965">
        <ele>43.794</ele>
        <time>2021-06-16T19:48:35Z</time>
      </trkpt>
      <trkpt lat="36.636925" lon="-4.497872">
        <ele>43.398</ele>
        <time>2021-06-16T19:48:36Z</time>
      </trkpt>
      <trkpt lat="36.637049" lon="-4.497778">
        <ele>43.128</ele>
        <time>2021-06-16T19:48:37Z</time>
      </trkpt>
      <trkpt lat="36.637174" lon="-4.497688">
        <ele>42.814</ele>
        <time>2021-06-16T19:48:38Z</time>
      </trkpt>
      <trkpt lat="36.637424" lon="-4.49752">
        <ele>42.186</ele>
        <time>2021-06-16T19:48:40Z</time>
      </trkpt>
      <trkpt lat="36.637675" lon="-4.49736">
        <ele>41.985</ele>
        <time>2021-06-16T19:48:42Z</time>
      </trkpt>
      <trkpt lat="36.637801" lon="-4.497281">
        <ele>41.949</ele>
        <time>2021-06-16T19:48:43Z</time>
      </trkpt>
      <trkpt lat="36.637925" lon="-4.497203">
        <ele>41.488</ele>
        <time>2021-06-16T19:48:44Z</time>
      </trkpt>
      <trkpt lat="36.638174" lon="-4.497055">
        <ele>41.324</ele>
        <time>2021-06-16T19:48:46Z</time>
      </trkpt>
      <trkpt lat="36.63842" lon="-4.496924">
        <ele>41.326</ele>
        <time>2021-06-16T19:48:48Z</time>
      </trkpt>
      <trkpt lat="36.63854" lon="-4.496865">
        <ele>41.808</ele>
        <time>2021-06-16T19:48:49Z</time>
      </trkpt>
      <trkpt lat="36.638663" lon="-4.496808">
        <ele>42.365</ele>
        <time>2021-06-16T19:48:50Z</time>
      </trkpt>
      <trkpt lat="36.638899" lon="-4.496692">
        <ele>41.964</ele>
        <time>2021-06-16T19:48:52Z</time>
      </trkpt>
      <trkpt lat="36.639007" lon="-4.496636">
        <ele>42.038</ele>
        <time>2021-06-16T19:48:53Z</time>
      </trkpt>
      <trkpt lat="36.639198" lon="-4.496546">
        <ele>42.718</ele>
        <time>2021-06-16T19:48:55Z</time>
      </trkpt>
      <trkpt lat="36.639335" lon="-4.496458">
        <ele>43.264</ele>
        <time>2021-06-16T19:48:57Z</time>
      </trkpt>
      <trkpt lat="36.639395" lon="-4.496406">
        <ele>43.496</ele>
        <time>2021-06-16T19:48:58Z</time>
      </trkpt>
      <trkpt lat="36.639454" lon="-4.496346">
        <ele>43.895</ele>
        <time>2021-06-16T19:48:59Z</time>
      </trkpt>
      <trkpt lat="36.639547" lon="-4.496232">
        <ele>43.649</ele>
        <time>2021-06-16T19:49:01Z</time>
      </trkpt>
      <trkpt lat="36.639619" lon="-4.496125">
        <ele>43.347</ele>
        <time>2021-06-16T19:49:03Z</time>
      </trkpt>
      <trkpt lat="36.639654" lon="-4.496076">
        <ele>42.729</ele>
        <time>2021-06-16T19:49:04Z</time>
      </trkpt>
      <trkpt lat="36.639739" lon="-4.496015">
        <ele>42.021</ele>
        <time>2021-06-16T19:49:06Z</time>
      </trkpt>
      <trkpt lat="36.639792" lon="-4.496014">
        <ele>41.508</ele>
        <time>2021-06-16T19:49:08Z</time>
      </trkpt>
      <trkpt lat="36.63984" lon="-4.496016">
        <ele>40.241</ele>
        <time>2021-06-16T19:49:36Z</time>
      </trkpt>
      <trkpt lat="36.639889" lon="-4.496063">
        <ele>39.440</ele>
        <time>2021-06-16T19:49:38Z</time>
      </trkpt>
      <trkpt lat="36.639922" lon="-4.496165">
        <ele>38.984</ele>
        <time>2021-06-16T19:49:40Z</time>
      </trkpt>
      <trkpt lat="36.639881" lon="-4.496234">
        <ele>38.624</ele>
        <time>2021-06-16T19:49:41Z</time>
      </trkpt>
      <trkpt lat="36.63983" lon="-4.496291">
        <ele>38.460</ele>
        <time>2021-06-16T19:49:42Z</time>
      </trkpt>
      <trkpt lat="36.639781" lon="-4.496327">
        <ele>38.382</ele>
        <time>2021-06-16T19:49:43Z</time>
      </trkpt>
      <trkpt lat="36.639729" lon="-4.496355">
        <ele>38.361</ele>
        <time>2021-06-16T19:49:45Z</time>
      </trkpt>
      <trkpt lat="36.639772" lon="-4.496329">
        <ele>38.315</ele>
        <time>2021-06-16T19:49:59Z</time>
      </trkpt>
      <trkpt lat="36.639817" lon="-4.496319">
        <ele>38.275</ele>
        <time>2021-06-16T19:50:10Z</time>
      </trkpt>
      <trkpt lat="36.639855" lon="-4.496288">
        <ele>38.028</ele>
        <time>2021-06-16T19:50:18Z</time>
      </trkpt>
      <trkpt lat="36.639897" lon="-4.49626">
        <ele>37.920</ele>
        <time>2021-06-16T19:50:25Z</time>
      </trkpt>
      <trkpt lat="36.639932" lon="-4.496297">
        <ele>37.808</ele>
        <time>2021-06-16T19:50:37Z</time>
      </trkpt>
      <trkpt lat="36.63993" lon="-4.496356">
        <ele>37.714</ele>
        <time>2021-06-16T19:50:41Z</time>
      </trkpt>
      <trkpt lat="36.639915" lon="-4.496457">
        <ele>37.753</ele>
        <time>2021-06-16T19:50:43Z</time>
      </trkpt>
      <trkpt lat="36.639904" lon="-4.49653">
        <ele>37.757</ele>
        <time>2021-06-16T19:50:44Z</time>
      </trkpt>
      <trkpt lat="36.639891" lon="-4.496606">
        <ele>37.727</ele>
        <time>2021-06-16T19:50:45Z</time>
      </trkpt>
      <trkpt lat="36.639874" lon="-4.49675">
        <ele>37.753</ele>
        <time>2021-06-16T19:50:47Z</time>
      </trkpt>
      <trkpt lat="36.639872" lon="-4.496838">
        <ele>37.785</ele>
        <time>2021-06-16T19:50:49Z</time>
      </trkpt>
      <trkpt lat="36.639817" lon="-4.496867">
        <ele>37.734</ele>
        <time>2021-06-16T19:50:51Z</time>
      </trkpt>
      <trkpt lat="36.639759" lon="-4.496875">
        <ele>37.768</ele>
        <time>2021-06-16T19:50:52Z</time>
      </trkpt>
      <trkpt lat="36.639683" lon="-4.496886">
        <ele>37.799</ele>
        <time>2021-06-16T19:50:53Z</time>
      </trkpt>
      <trkpt lat="36.639607" lon="-4.496914">
        <ele>37.707</ele>
        <time>2021-06-16T19:50:54Z</time>
      </trkpt>
      <trkpt lat="36.639472" lon="-4.497014">
        <ele>37.727</ele>
        <time>2021-06-16T19:50:56Z</time>
      </trkpt>
      <trkpt lat="36.639417" lon="-4.497088">
        <ele>37.708</ele>
        <time>2021-06-16T19:50:57Z</time>
      </trkpt>
      <trkpt lat="36.639305" lon="-4.497249">
        <ele>37.766</ele>
        <time>2021-06-16T19:50:59Z</time>
      </trkpt>
      <trkpt lat="36.639246" lon="-4.497325">
        <ele>37.775</ele>
        <time>2021-06-16T19:51:00Z</time>
      </trkpt>
      <trkpt lat="36.639121" lon="-4.497458">
        <ele>37.799</ele>
        <time>2021-06-16T19:51:02Z</time>
      </trkpt>
      <trkpt lat="36.639033" lon="-4.497583">
        <ele>37.799</ele>
        <time>2021-06-16T19:51:04Z</time>
      </trkpt>
      <trkpt lat="36.639005" lon="-4.49765">
        <ele>37.755</ele>
        <time>2021-06-16T19:51:05Z</time>
      </trkpt>
      <trkpt lat="36.638994" lon="-4.497718">
        <ele>37.787</ele>
        <time>2021-06-16T19:51:06Z</time>
      </trkpt>
      <trkpt lat="36.639036" lon="-4.497822">
        <ele>37.716</ele>
        <time>2021-06-16T19:51:08Z</time>
      </trkpt>
      <trkpt lat="36.639087" lon="-4.497855">
        <ele>37.740</ele>
        <time>2021-06-16T19:51:09Z</time>
      </trkpt>
      <trkpt lat="36.639222" lon="-4.497926">
        <ele>37.717</ele>
        <time>2021-06-16T19:51:11Z</time>
      </trkpt>
      <trkpt lat="36.639374" lon="-4.497987">
        <ele>37.787</ele>
        <time>2021-06-16T19:51:13Z</time>
      </trkpt>
      <trkpt lat="36.639486" lon="-4.498026">
        <ele>37.715</ele>
        <time>2021-06-16T19:51:15Z</time>
      </trkpt>
      <trkpt lat="36.639537" lon="-4.498063">
        <ele>37.708</ele>
        <time>2021-06-16T19:51:17Z</time>
      </trkpt>
      <trkpt lat="36.639624" lon="-4.498152">
        <ele>37.768</ele>
        <time>2021-06-16T19:51:19Z</time>
      </trkpt>
      <trkpt lat="36.639681" lon="-4.498198">
        <ele>37.797</ele>
        <time>2021-06-16T19:51:20Z</time>
      </trkpt>
      <trkpt lat="36.639747" lon="-4.498245">
        <ele>37.731</ele>
        <time>2021-06-16T19:51:21Z</time>
      </trkpt>
      <trkpt lat="36.639898" lon="-4.498347">
        <ele>37.741</ele>
        <time>2021-06-16T19:51:23Z</time>
      </trkpt>
      <trkpt lat="36.639972" lon="-4.498399">
        <ele>37.737</ele>
        <time>2021-06-16T19:51:24Z</time>
      </trkpt>
      <trkpt lat="36.640088" lon="-4.4985">
        <ele>37.749</ele>
        <time>2021-06-16T19:51:26Z</time>
      </trkpt>
      <trkpt lat="36.640186" lon="-4.498594">
        <ele>37.798</ele>
        <time>2021-06-16T19:51:28Z</time>
      </trkpt>
      <trkpt lat="36.640279" lon="-4.498664">
        <ele>37.732</ele>
        <time>2021-06-16T19:51:30Z</time>
      </trkpt>
      <trkpt lat="36.640339" lon="-4.498716">
        <ele>37.755</ele>
        <time>2021-06-16T19:51:31Z</time>
      </trkpt>
      <trkpt lat="36.640404" lon="-4.498782">
        <ele>37.707</ele>
        <time>2021-06-16T19:51:32Z</time>
      </trkpt>
      <trkpt lat="36.640519" lon="-4.498897">
        <ele>37.717</ele>
        <time>2021-06-16T19:51:34Z</time>
      </trkpt>
      <trkpt lat="36.640563" lon="-4.498948">
        <ele>37.708</ele>
        <time>2021-06-16T19:51:35Z</time>
      </trkpt>
      <trkpt lat="36.640614" lon="-4.499003">
        <ele>37.752</ele>
        <time>2021-06-16T19:51:36Z</time>
      </trkpt>
      <trkpt lat="36.640677" lon="-4.499053">
        <ele>37.741</ele>
        <time>2021-06-16T19:51:37Z</time>
      </trkpt>
      <trkpt lat="36.640818" lon="-4.499158">
        <ele>37.715</ele>
        <time>2021-06-16T19:51:39Z</time>
      </trkpt>
      <trkpt lat="36.64089" lon="-4.499231">
        <ele>37.725</ele>
        <time>2021-06-16T19:51:40Z</time>
      </trkpt>
      <trkpt lat="36.640957" lon="-4.499295">
        <ele>37.731</ele>
        <time>2021-06-16T19:51:41Z</time>
      </trkpt>
      <trkpt lat="36.64106" lon="-4.499386">
        <ele>37.743</ele>
        <time>2021-06-16T19:51:43Z</time>
      </trkpt>
      <trkpt lat="36.641159" lon="-4.49949">
        <ele>37.742</ele>
        <time>2021-06-16T19:51:45Z</time>
      </trkpt>
      <trkpt lat="36.641296" lon="-4.499618">
        <ele>37.796</ele>
        <time>2021-06-16T19:51:47Z</time>
      </trkpt>
      <trkpt lat="36.641381" lon="-4.499678">
        <ele>37.745</ele>
        <time>2021-06-16T19:51:48Z</time>
      </trkpt>
      <trkpt lat="36.641554" lon="-4.499772">
        <ele>41.747</ele>
        <time>2021-06-16T19:51:50Z</time>
      </trkpt>
      <trkpt lat="36.641697" lon="-4.499835">
        <ele>45.411</ele>
        <time>2021-06-16T19:51:52Z</time>
      </trkpt>
      <trkpt lat="36.641759" lon="-4.499866">
        <ele>47.608</ele>
        <time>2021-06-16T19:51:53Z</time>
      </trkpt>
      <trkpt lat="36.641822" lon="-4.499901">
        <ele>49.031</ele>
        <time>2021-06-16T19:51:54Z</time>
      </trkpt>
      <trkpt lat="36.641891" lon="-4.499945">
        <ele>49.910</ele>
        <time>2021-06-16T19:51:55Z</time>
      </trkpt>
      <trkpt lat="36.642039" lon="-4.500054">
        <ele>51.254</ele>
        <time>2021-06-16T19:51:57Z</time>
      </trkpt>
      <trkpt lat="36.64212" lon="-4.500113">
        <ele>52.234</ele>
        <time>2021-06-16T19:51:58Z</time>
      </trkpt>
      <trkpt lat="36.642205" lon="-4.500169">
        <ele>52.830</ele>
        <time>2021-06-16T19:51:59Z</time>
      </trkpt>
      <trkpt lat="36.64237" lon="-4.500283">
        <ele>53.172</ele>
        <time>2021-06-16T19:52:01Z</time>
      </trkpt>
      <trkpt lat="36.642552" lon="-4.500415">
        <ele>53.411</ele>
        <time>2021-06-16T19:52:03Z</time>
      </trkpt>
      <trkpt lat="36.642665" lon="-4.50049">
        <ele>53.235</ele>
        <time>2021-06-16T19:52:04Z</time>
      </trkpt>
      <trkpt lat="36.642913" lon="-4.500665">
        <ele>52.271</ele>
        <time>2021-06-16T19:52:06Z</time>
      </trkpt>
      <trkpt lat="36.643171" lon="-4.500864">
        <ele>51.641</ele>
        <time>2021-06-16T19:52:08Z</time>
      </trkpt>
      <trkpt lat="36.643296" lon="-4.500955">
        <ele>51.415</ele>
        <time>2021-06-16T19:52:09Z</time>
      </trkpt>
      <trkpt lat="36.643557" lon="-4.501126">
        <ele>51.708</ele>
        <time>2021-06-16T19:52:11Z</time>
      </trkpt>
      <trkpt lat="36.643711" lon="-4.501207">
        <ele>51.254</ele>
        <time>2021-06-16T19:52:12Z</time>
      </trkpt>
      <trkpt lat="36.643853" lon="-4.501307">
        <ele>51.213</ele>
        <time>2021-06-16T19:52:13Z</time>
      </trkpt>
      <trkpt lat="36.644125" lon="-4.501499">
        <ele>51.677</ele>
        <time>2021-06-16T19:52:15Z</time>
      </trkpt>
      <trkpt lat="36.644258" lon="-4.501589">
        <ele>52.497</ele>
        <time>2021-06-16T19:52:16Z</time>
      </trkpt>
      <trkpt lat="36.644517" lon="-4.501764">
        <ele>53.113</ele>
        <time>2021-06-16T19:52:18Z</time>
      </trkpt>
      <trkpt lat="36.644782" lon="-4.501933">
        <ele>54.555</ele>
        <time>2021-06-16T19:52:20Z</time>
      </trkpt>
      <trkpt lat="36.644917" lon="-4.502024">
        <ele>56.084</ele>
        <time>2021-06-16T19:52:21Z</time>
      </trkpt>
      <trkpt lat="36.645177" lon="-4.502207">
        <ele>58.198</ele>
        <time>2021-06-16T19:52:23Z</time>
      </trkpt>
      <trkpt lat="36.645304" lon="-4.502301">
        <ele>59.773</ele>
        <time>2021-06-16T19:52:24Z</time>
      </trkpt>
      <trkpt lat="36.645429" lon="-4.50239">
        <ele>61.285</ele>
        <time>2021-06-16T19:52:25Z</time>
      </trkpt>
      <trkpt lat="36.645552" lon="-4.502476">
        <ele>62.213</ele>
        <time>2021-06-16T19:52:26Z</time>
      </trkpt>
      <trkpt lat="36.645673" lon="-4.502566">
        <ele>63.408</ele>
        <time>2021-06-16T19:52:27Z</time>
      </trkpt>
      <trkpt lat="36.645916" lon="-4.502757">
        <ele>64.884</ele>
        <time>2021-06-16T19:52:29Z</time>
      </trkpt>
      <trkpt lat="36.646155" lon="-4.502937">
        <ele>66.623</ele>
        <time>2021-06-16T19:52:31Z</time>
      </trkpt>
      <trkpt lat="36.646273" lon="-4.503028">
        <ele>68.017</ele>
        <time>2021-06-16T19:52:32Z</time>
      </trkpt>
      <trkpt lat="36.646493" lon="-4.503194">
        <ele>69.547</ele>
        <time>2021-06-16T19:52:34Z</time>
      </trkpt>
      <trkpt lat="36.646592" lon="-4.503263">
        <ele>71.093</ele>
        <time>2021-06-16T19:52:35Z</time>
      </trkpt>
      <trkpt lat="36.646788" lon="-4.503349">
        <ele>71.915</ele>
        <time>2021-06-16T19:52:37Z</time>
      </trkpt>
      <trkpt lat="36.646977" lon="-4.503395">
        <ele>72.964</ele>
        <time>2021-06-16T19:52:39Z</time>
      </trkpt>
      <trkpt lat="36.647062" lon="-4.50342">
        <ele>73.658</ele>
        <time>2021-06-16T19:52:40Z</time>
      </trkpt>
      <trkpt lat="36.647144" lon="-4.503451">
        <ele>74.479</ele>
        <time>2021-06-16T19:52:41Z</time>
      </trkpt>
      <trkpt lat="36.647323" lon="-4.50354">
        <ele>75.005</ele>
        <time>2021-06-16T19:52:43Z</time>
      </trkpt>
      <trkpt lat="36.647521" lon="-4.503661">
        <ele>75.725</ele>
        <time>2021-06-16T19:52:45Z</time>
      </trkpt>
      <trkpt lat="36.647715" lon="-4.503801">
        <ele>76.408</ele>
        <time>2021-06-16T19:52:47Z</time>
      </trkpt>
      <trkpt lat="36.647909" lon="-4.503943">
        <ele>76.994</ele>
        <time>2021-06-16T19:52:49Z</time>
      </trkpt>
      <trkpt lat="36.64812" lon="-4.504062">
        <ele>77.513</ele>
        <time>2021-06-16T19:52:51Z</time>
      </trkpt>
      <trkpt lat="36.64834" lon="-4.504141">
        <ele>78.347</ele>
        <time>2021-06-16T19:52:53Z</time>
      </trkpt>
      <trkpt lat="36.648537" lon="-4.504207">
        <ele>79.537</ele>
        <time>2021-06-16T19:52:55Z</time>
      </trkpt>
      <trkpt lat="36.64871" lon="-4.504276">
        <ele>80.463</ele>
        <time>2021-06-16T19:52:57Z</time>
      </trkpt>
      <trkpt lat="36.64889" lon="-4.504344">
        <ele>81.265</ele>
        <time>2021-06-16T19:52:59Z</time>
      </trkpt>
      <trkpt lat="36.649101" lon="-4.504423">
        <ele>81.894</ele>
        <time>2021-06-16T19:53:01Z</time>
      </trkpt>
      <trkpt lat="36.649331" lon="-4.504511">
        <ele>82.218</ele>
        <time>2021-06-16T19:53:03Z</time>
      </trkpt>
      <trkpt lat="36.649451" lon="-4.504558">
        <ele>82.663</ele>
        <time>2021-06-16T19:53:04Z</time>
      </trkpt>
      <trkpt lat="36.649692" lon="-4.504645">
        <ele>83.144</ele>
        <time>2021-06-16T19:53:06Z</time>
      </trkpt>
      <trkpt lat="36.649803" lon="-4.504688">
        <ele>83.718</ele>
        <time>2021-06-16T19:53:07Z</time>
      </trkpt>
      <trkpt lat="36.650011" lon="-4.50476">
        <ele>85.008</ele>
        <time>2021-06-16T19:53:09Z</time>
      </trkpt>
      <trkpt lat="36.650121" lon="-4.504783">
        <ele>86.033</ele>
        <time>2021-06-16T19:53:10Z</time>
      </trkpt>
      <trkpt lat="36.650364" lon="-4.504792">
        <ele>86.742</ele>
        <time>2021-06-16T19:53:12Z</time>
      </trkpt>
      <trkpt lat="36.65049" lon="-4.504793">
        <ele>86.996</ele>
        <time>2021-06-16T19:53:13Z</time>
      </trkpt>
      <trkpt lat="36.650751" lon="-4.504794">
        <ele>87.716</ele>
        <time>2021-06-16T19:53:15Z</time>
      </trkpt>
      <trkpt lat="36.65089" lon="-4.504792">
        <ele>88.532</ele>
        <time>2021-06-16T19:53:16Z</time>
      </trkpt>
      <trkpt lat="36.651172" lon="-4.50478">
        <ele>89.134</ele>
        <time>2021-06-16T19:53:18Z</time>
      </trkpt>
      <trkpt lat="36.651318" lon="-4.50477">
        <ele>89.623</ele>
        <time>2021-06-16T19:53:19Z</time>
      </trkpt>
      <trkpt lat="36.651466" lon="-4.504764">
        <ele>89.877</ele>
        <time>2021-06-16T19:53:20Z</time>
      </trkpt>
      <trkpt lat="36.65177" lon="-4.504777">
        <ele>89.859</ele>
        <time>2021-06-16T19:53:22Z</time>
      </trkpt>
      <trkpt lat="36.652072" lon="-4.504807">
        <ele>90.103</ele>
        <time>2021-06-16T19:53:24Z</time>
      </trkpt>
      <trkpt lat="36.652224" lon="-4.504828">
        <ele>89.823</ele>
        <time>2021-06-16T19:53:25Z</time>
      </trkpt>
      <trkpt lat="36.652527" lon="-4.504863">
        <ele>89.808</ele>
        <time>2021-06-16T19:53:27Z</time>
      </trkpt>
      <trkpt lat="36.652825" lon="-4.504873">
        <ele>89.792</ele>
        <time>2021-06-16T19:53:29Z</time>
      </trkpt>
      <trkpt lat="36.652967" lon="-4.504866">
        <ele>90.031</ele>
        <time>2021-06-16T19:53:30Z</time>
      </trkpt>
      <trkpt lat="36.653236" lon="-4.504858">
        <ele>90.345</ele>
        <time>2021-06-16T19:53:32Z</time>
      </trkpt>
      <trkpt lat="36.653477" lon="-4.50487">
        <ele>90.355</ele>
        <time>2021-06-16T19:53:34Z</time>
      </trkpt>
      <trkpt lat="36.653582" lon="-4.504894">
        <ele>90.051</ele>
        <time>2021-06-16T19:53:35Z</time>
      </trkpt>
      <trkpt lat="36.653773" lon="-4.504954">
        <ele>90.183</ele>
        <time>2021-06-16T19:53:37Z</time>
      </trkpt>
      <trkpt lat="36.653865" lon="-4.504983">
        <ele>90.182</ele>
        <time>2021-06-16T19:53:38Z</time>
      </trkpt>
      <trkpt lat="36.654049" lon="-4.505042">
        <ele>90.016</ele>
        <time>2021-06-16T19:53:40Z</time>
      </trkpt>
      <trkpt lat="36.654221" lon="-4.505093">
        <ele>90.032</ele>
        <time>2021-06-16T19:53:42Z</time>
      </trkpt>
      <trkpt lat="36.654304" lon="-4.505122">
        <ele>90.292</ele>
        <time>2021-06-16T19:53:43Z</time>
      </trkpt>
      <trkpt lat="36.654487" lon="-4.505182">
        <ele>90.311</ele>
        <time>2021-06-16T19:53:45Z</time>
      </trkpt>
      <trkpt lat="36.654588" lon="-4.505213">
        <ele>90.708</ele>
        <time>2021-06-16T19:53:46Z</time>
      </trkpt>
      <trkpt lat="36.654791" lon="-4.505275">
        <ele>91.110</ele>
        <time>2021-06-16T19:53:48Z</time>
      </trkpt>
      <trkpt lat="36.654888" lon="-4.505303">
        <ele>91.489</ele>
        <time>2021-06-16T19:53:49Z</time>
      </trkpt>
      <trkpt lat="36.654977" lon="-4.50533">
        <ele>91.943</ele>
        <time>2021-06-16T19:53:50Z</time>
      </trkpt>
      <trkpt lat="36.655139" lon="-4.505379">
        <ele>92.143</ele>
        <time>2021-06-16T19:53:52Z</time>
      </trkpt>
      <trkpt lat="36.655223" lon="-4.505404">
        <ele>92.419</ele>
        <time>2021-06-16T19:53:53Z</time>
      </trkpt>
      <trkpt lat="36.65542" lon="-4.505461">
        <ele>92.521</ele>
        <time>2021-06-16T19:53:55Z</time>
      </trkpt>
      <trkpt lat="36.655532" lon="-4.505492">
        <ele>92.480</ele>
        <time>2021-06-16T19:53:56Z</time>
      </trkpt>
      <trkpt lat="36.655647" lon="-4.505525">
        <ele>92.494</ele>
        <time>2021-06-16T19:53:57Z</time>
      </trkpt>
      <trkpt lat="36.655876" lon="-4.505586">
        <ele>92.262</ele>
        <time>2021-06-16T19:53:59Z</time>
      </trkpt>
      <trkpt lat="36.655986" lon="-4.505616">
        <ele>92.283</ele>
        <time>2021-06-16T19:54:00Z</time>
      </trkpt>
      <trkpt lat="36.656093" lon="-4.505642">
        <ele>92.111</ele>
        <time>2021-06-16T19:54:01Z</time>
      </trkpt>
      <trkpt lat="36.656306" lon="-4.505639">
        <ele>91.508</ele>
        <time>2021-06-16T19:54:03Z</time>
      </trkpt>
      <trkpt lat="36.656418" lon="-4.505645">
        <ele>91.233</ele>
        <time>2021-06-16T19:54:04Z</time>
      </trkpt>
      <trkpt lat="36.656531" lon="-4.505669">
        <ele>91.172</ele>
        <time>2021-06-16T19:54:05Z</time>
      </trkpt>
      <trkpt lat="36.656646" lon="-4.505697">
        <ele>90.796</ele>
        <time>2021-06-16T19:54:06Z</time>
      </trkpt>
      <trkpt lat="36.65688" lon="-4.505754">
        <ele>90.416</ele>
        <time>2021-06-16T19:54:08Z</time>
      </trkpt>
      <trkpt lat="36.656997" lon="-4.50579">
        <ele>90.182</ele>
        <time>2021-06-16T19:54:09Z</time>
      </trkpt>
      <trkpt lat="36.657225" lon="-4.505855">
        <ele>89.384</ele>
        <time>2021-06-16T19:54:11Z</time>
      </trkpt>
      <trkpt lat="36.657337" lon="-4.505884">
        <ele>89.043</ele>
        <time>2021-06-16T19:54:12Z</time>
      </trkpt>
      <trkpt lat="36.657565" lon="-4.505922">
        <ele>89.117</ele>
        <time>2021-06-16T19:54:14Z</time>
      </trkpt>
      <trkpt lat="36.657794" lon="-4.50598">
        <ele>89.076</ele>
        <time>2021-06-16T19:54:16Z</time>
      </trkpt>
      <trkpt lat="36.658005" lon="-4.506054">
        <ele>88.790</ele>
        <time>2021-06-16T19:54:18Z</time>
      </trkpt>
      <trkpt lat="36.658204" lon="-4.506129">
        <ele>88.519</ele>
        <time>2021-06-16T19:54:20Z</time>
      </trkpt>
      <trkpt lat="36.658417" lon="-4.506197">
        <ele>87.908</ele>
        <time>2021-06-16T19:54:22Z</time>
      </trkpt>
      <trkpt lat="36.658626" lon="-4.506262">
        <ele>87.344</ele>
        <time>2021-06-16T19:54:24Z</time>
      </trkpt>
      <trkpt lat="36.658809" lon="-4.50632">
        <ele>86.563</ele>
        <time>2021-06-16T19:54:26Z</time>
      </trkpt>
      <trkpt lat="36.658891" lon="-4.506351">
        <ele>86.017</ele>
        <time>2021-06-16T19:54:27Z</time>
      </trkpt>
      <trkpt lat="36.659028" lon="-4.506405">
        <ele>85.097</ele>
        <time>2021-06-16T19:54:29Z</time>
      </trkpt>
      <trkpt lat="36.659087" lon="-4.506427">
        <ele>84.173</ele>
        <time>2021-06-16T19:54:30Z</time>
      </trkpt>
      <trkpt lat="36.659216" lon="-4.506467">
        <ele>83.145</ele>
        <time>2021-06-16T19:54:32Z</time>
      </trkpt>
      <trkpt lat="36.659284" lon="-4.506495">
        <ele>82.684</ele>
        <time>2021-06-16T19:54:33Z</time>
      </trkpt>
      <trkpt lat="36.659442" lon="-4.506571">
        <ele>81.928</ele>
        <time>2021-06-16T19:54:35Z</time>
      </trkpt>
      <trkpt lat="36.659532" lon="-4.506622">
        <ele>81.837</ele>
        <time>2021-06-16T19:54:36Z</time>
      </trkpt>
      <trkpt lat="36.659631" lon="-4.506658">
        <ele>81.649</ele>
        <time>2021-06-16T19:54:37Z</time>
      </trkpt>
      <trkpt lat="36.659844" lon="-4.506694">
        <ele>80.513</ele>
        <time>2021-06-16T19:54:39Z</time>
      </trkpt>
      <trkpt lat="36.65995" lon="-4.506711">
        <ele>79.508</ele>
        <time>2021-06-16T19:54:40Z</time>
      </trkpt>
      <trkpt lat="36.660057" lon="-4.506724">
        <ele>78.930</ele>
        <time>2021-06-16T19:54:41Z</time>
      </trkpt>
      <trkpt lat="36.660271" lon="-4.50673">
        <ele>78.239</ele>
        <time>2021-06-16T19:54:43Z</time>
      </trkpt>
      <trkpt lat="36.660495" lon="-4.506688">
        <ele>76.833</ele>
        <time>2021-06-16T19:54:45Z</time>
      </trkpt>
      <trkpt lat="36.660717" lon="-4.506604">
        <ele>75.963</ele>
        <time>2021-06-16T19:54:47Z</time>
      </trkpt>
      <trkpt lat="36.660901" lon="-4.506511">
        <ele>75.069</ele>
        <time>2021-06-16T19:54:49Z</time>
      </trkpt>
      <trkpt lat="36.661065" lon="-4.506436">
        <ele>74.211</ele>
        <time>2021-06-16T19:54:51Z</time>
      </trkpt>
      <trkpt lat="36.661145" lon="-4.506401">
        <ele>73.540</ele>
        <time>2021-06-16T19:54:52Z</time>
      </trkpt>
      <trkpt lat="36.66122" lon="-4.506366">
        <ele>73.154</ele>
        <time>2021-06-16T19:54:53Z</time>
      </trkpt>
      <trkpt lat="36.661359" lon="-4.506296">
        <ele>72.531</ele>
        <time>2021-06-16T19:54:55Z</time>
      </trkpt>
      <trkpt lat="36.66142" lon="-4.506266">
        <ele>72.361</ele>
        <time>2021-06-16T19:54:56Z</time>
      </trkpt>
      <trkpt lat="36.661517" lon="-4.506222">
        <ele>72.107</ele>
        <time>2021-06-16T19:54:58Z</time>
      </trkpt>
      <trkpt lat="36.661575" lon="-4.506197">
        <ele>71.308</ele>
        <time>2021-06-16T19:55:00Z</time>
      </trkpt>
      <trkpt lat="36.661611" lon="-4.506162">
        <ele>70.190</ele>
        <time>2021-06-16T19:55:02Z</time>
      </trkpt>
      <trkpt lat="36.661662" lon="-4.506112">
        <ele>69.339</ele>
        <time>2021-06-16T19:55:04Z</time>
      </trkpt>
      <trkpt lat="36.661702" lon="-4.50606">
        <ele>68.893</ele>
        <time>2021-06-16T19:55:05Z</time>
      </trkpt>
      <trkpt lat="36.661748" lon="-4.505988">
        <ele>68.283</ele>
        <time>2021-06-16T19:55:06Z</time>
      </trkpt>
      <trkpt lat="36.661805" lon="-4.505919">
        <ele>67.359</ele>
        <time>2021-06-16T19:55:07Z</time>
      </trkpt>
      <trkpt lat="36.661939" lon="-4.505859">
        <ele>67.041</ele>
        <time>2021-06-16T19:55:09Z</time>
      </trkpt>
      <trkpt lat="36.662007" lon="-4.505871">
        <ele>66.920</ele>
        <time>2021-06-16T19:55:10Z</time>
      </trkpt>
      <trkpt lat="36.662119" lon="-4.505966">
        <ele>66.664</ele>
        <time>2021-06-16T19:55:12Z</time>
      </trkpt>
      <trkpt lat="36.66215" lon="-4.506119">
        <ele>66.187</ele>
        <time>2021-06-16T19:55:14Z</time>
      </trkpt>
      <trkpt lat="36.662141" lon="-4.506203">
        <ele>66.642</ele>
        <time>2021-06-16T19:55:15Z</time>
      </trkpt>
      <trkpt lat="36.662111" lon="-4.506284">
        <ele>67.126</ele>
        <time>2021-06-16T19:55:16Z</time>
      </trkpt>
      <trkpt lat="36.662002" lon="-4.50641">
        <ele>67.508</ele>
        <time>2021-06-16T19:55:18Z</time>
      </trkpt>
      <trkpt lat="36.661932" lon="-4.50644">
        <ele>67.815</ele>
        <time>2021-06-16T19:55:19Z</time>
      </trkpt>
      <trkpt lat="36.661856" lon="-4.506442">
        <ele>68.194</ele>
        <time>2021-06-16T19:55:20Z</time>
      </trkpt>
      <trkpt lat="36.661731" lon="-4.506354">
        <ele>68.218</ele>
        <time>2021-06-16T19:55:22Z</time>
      </trkpt>
      <trkpt lat="36.66169" lon="-4.506278">
        <ele>68.278</ele>
        <time>2021-06-16T19:55:23Z</time>
      </trkpt>
      <trkpt lat="36.66167" lon="-4.506191">
        <ele>68.294</ele>
        <time>2021-06-16T19:55:24Z</time>
      </trkpt>
      <trkpt lat="36.661673" lon="-4.506099">
        <ele>67.676</ele>
        <time>2021-06-16T19:55:25Z</time>
      </trkpt>
      <trkpt lat="36.661747" lon="-4.505935">
        <ele>67.215</ele>
        <time>2021-06-16T19:55:27Z</time>
      </trkpt>
      <trkpt lat="36.661872" lon="-4.505839">
        <ele>66.639</ele>
        <time>2021-06-16T19:55:29Z</time>
      </trkpt>
      <trkpt lat="36.662022" lon="-4.505853">
        <ele>66.346</ele>
        <time>2021-06-16T19:55:31Z</time>
      </trkpt>
      <trkpt lat="36.662098" lon="-4.505889">
        <ele>66.088</ele>
        <time>2021-06-16T19:55:32Z</time>
      </trkpt>
      <trkpt lat="36.662254" lon="-4.505919">
        <ele>65.816</ele>
        <time>2021-06-16T19:55:34Z</time>
      </trkpt>
      <trkpt lat="36.662423" lon="-4.505867">
        <ele>65.708</ele>
        <time>2021-06-16T19:55:36Z</time>
      </trkpt>
      <trkpt lat="36.66263" lon="-4.505767">
        <ele>65.351</ele>
        <time>2021-06-16T19:55:38Z</time>
      </trkpt>
      <trkpt lat="36.662743" lon="-4.50571">
        <ele>64.540</ele>
        <time>2021-06-16T19:55:39Z</time>
      </trkpt>
      <trkpt lat="36.662853" lon="-4.505646">
        <ele>63.964</ele>
        <time>2021-06-16T19:55:40Z</time>
      </trkpt>
      <trkpt lat="36.662967" lon="-4.505577">
        <ele>63.384</ele>
        <time>2021-06-16T19:55:41Z</time>
      </trkpt>
      <trkpt lat="36.663099" lon="-4.505535">
        <ele>62.290</ele>
        <time>2021-06-16T19:55:42Z</time>
      </trkpt>
      <trkpt lat="36.663237" lon="-4.505522">
        <ele>62.012</ele>
        <time>2021-06-16T19:55:43Z</time>
      </trkpt>
      <trkpt lat="36.663515" lon="-4.505568">
        <ele>61.211</ele>
        <time>2021-06-16T19:55:45Z</time>
      </trkpt>
      <trkpt lat="36.663651" lon="-4.505616">
        <ele>61.055</ele>
        <time>2021-06-16T19:55:46Z</time>
      </trkpt>
      <trkpt lat="36.663779" lon="-4.505681">
        <ele>60.826</ele>
        <time>2021-06-16T19:55:47Z</time>
      </trkpt>
      <trkpt lat="36.664019" lon="-4.505863">
        <ele>60.847</ele>
        <time>2021-06-16T19:55:49Z</time>
      </trkpt>
      <trkpt lat="36.664226" lon="-4.50611">
        <ele>61.011</ele>
        <time>2021-06-16T19:55:51Z</time>
      </trkpt>
      <trkpt lat="36.664322" lon="-4.506251">
        <ele>60.808</ele>
        <time>2021-06-16T19:55:52Z</time>
      </trkpt>
      <trkpt lat="36.664505" lon="-4.50654">
        <ele>61.189</ele>
        <time>2021-06-16T19:55:54Z</time>
      </trkpt>
      <trkpt lat="36.664673" lon="-4.506826">
        <ele>61.578</ele>
        <time>2021-06-16T19:55:56Z</time>
      </trkpt>
      <trkpt lat="36.664841" lon="-4.50709">
        <ele>61.672</ele>
        <time>2021-06-16T19:55:58Z</time>
      </trkpt>
      <trkpt lat="36.664927" lon="-4.507226">
        <ele>61.332</ele>
        <time>2021-06-16T19:55:59Z</time>
      </trkpt>
      <trkpt lat="36.665011" lon="-4.507366">
        <ele>61.398</ele>
        <time>2021-06-16T19:56:00Z</time>
      </trkpt>
      <trkpt lat="36.665185" lon="-4.507639">
        <ele>61.550</ele>
        <time>2021-06-16T19:56:02Z</time>
      </trkpt>
      <trkpt lat="36.665358" lon="-4.507919">
        <ele>61.659</ele>
        <time>2021-06-16T19:56:04Z</time>
      </trkpt>
      <trkpt lat="36.665445" lon="-4.508057">
        <ele>61.213</ele>
        <time>2021-06-16T19:56:05Z</time>
      </trkpt>
      <trkpt lat="36.665531" lon="-4.508192">
        <ele>61.339</ele>
        <time>2021-06-16T19:56:06Z</time>
      </trkpt>
      <trkpt lat="36.665616" lon="-4.508323">
        <ele>61.401</ele>
        <time>2021-06-16T19:56:07Z</time>
      </trkpt>
      <trkpt lat="36.665774" lon="-4.508572">
        <ele>61.821</ele>
        <time>2021-06-16T19:56:09Z</time>
      </trkpt>
      <trkpt lat="36.665912" lon="-4.508787">
        <ele>61.808</ele>
        <time>2021-06-16T19:56:11Z</time>
      </trkpt>
      <trkpt lat="36.666038" lon="-4.508982">
        <ele>61.850</ele>
        <time>2021-06-16T19:56:13Z</time>
      </trkpt>
      <trkpt lat="36.66613" lon="-4.50915">
        <ele>62.429</ele>
        <time>2021-06-16T19:56:15Z</time>
      </trkpt>
      <trkpt lat="36.666166" lon="-4.509209">
        <ele>62.893</ele>
        <time>2021-06-16T19:56:16Z</time>
      </trkpt>
      <trkpt lat="36.666217" lon="-4.509275">
        <ele>63.023</ele>
        <time>2021-06-16T19:56:18Z</time>
      </trkpt>
      <trkpt lat="36.666218" lon="-4.509332">
        <ele>62.879</ele>
        <time>2021-06-16T19:56:36Z</time>
      </trkpt>
      <trkpt lat="36.666257" lon="-4.509369">
        <ele>62.641</ele>
        <time>2021-06-16T19:56:57Z</time>
      </trkpt>
      <trkpt lat="36.666338" lon="-4.509516">
        <ele>62.540</ele>
        <time>2021-06-16T19:56:59Z</time>
      </trkpt>
      <trkpt lat="36.666402" lon="-4.50963">
        <ele>62.414</ele>
        <time>2021-06-16T19:57:00Z</time>
      </trkpt>
      <trkpt lat="36.666472" lon="-4.50975">
        <ele>62.368</ele>
        <time>2021-06-16T19:57:01Z</time>
      </trkpt>
      <trkpt lat="36.666625" lon="-4.509987">
        <ele>62.342</ele>
        <time>2021-06-16T19:57:03Z</time>
      </trkpt>
      <trkpt lat="36.666701" lon="-4.510106">
        <ele>62.326</ele>
        <time>2021-06-16T19:57:04Z</time>
      </trkpt>
      <trkpt lat="36.666855" lon="-4.510352">
        <ele>62.308</ele>
        <time>2021-06-16T19:57:06Z</time>
      </trkpt>
      <trkpt lat="36.667014" lon="-4.510606">
        <ele>62.323</ele>
        <time>2021-06-16T19:57:08Z</time>
      </trkpt>
      <trkpt lat="36.667172" lon="-4.51086">
        <ele>62.362</ele>
        <time>2021-06-16T19:57:10Z</time>
      </trkpt>
      <trkpt lat="36.667251" lon="-4.510986">
        <ele>62.326</ele>
        <time>2021-06-16T19:57:11Z</time>
      </trkpt>
      <trkpt lat="36.667407" lon="-4.511235">
        <ele>62.356</ele>
        <time>2021-06-16T19:57:13Z</time>
      </trkpt>
      <trkpt lat="36.667486" lon="-4.511356">
        <ele>62.372</ele>
        <time>2021-06-16T19:57:14Z</time>
      </trkpt>
      <trkpt lat="36.667649" lon="-4.511607">
        <ele>62.324</ele>
        <time>2021-06-16T19:57:16Z</time>
      </trkpt>
      <trkpt lat="36.667808" lon="-4.511866">
        <ele>62.323</ele>
        <time>2021-06-16T19:57:18Z</time>
      </trkpt>
      <trkpt lat="36.667882" lon="-4.511999">
        <ele>62.327</ele>
        <time>2021-06-16T19:57:19Z</time>
      </trkpt>
      <trkpt lat="36.668015" lon="-4.512277">
        <ele>62.326</ele>
        <time>2021-06-16T19:57:21Z</time>
      </trkpt>
      <trkpt lat="36.66807" lon="-4.512419">
        <ele>62.347</ele>
        <time>2021-06-16T19:57:22Z</time>
      </trkpt>
      <trkpt lat="36.668111" lon="-4.512569">
        <ele>62.311</ele>
        <time>2021-06-16T19:57:23Z</time>
      </trkpt>
      <trkpt lat="36.668157" lon="-4.512842">
        <ele>62.308</ele>
        <time>2021-06-16T19:57:25Z</time>
      </trkpt>
      <trkpt lat="36.668168" lon="-4.512962">
        <ele>62.339</ele>
        <time>2021-06-16T19:57:26Z</time>
      </trkpt>
      <trkpt lat="36.668178" lon="-4.513183">
        <ele>62.328</ele>
        <time>2021-06-16T19:57:28Z</time>
      </trkpt>
      <trkpt lat="36.668181" lon="-4.513296">
        <ele>62.322</ele>
        <time>2021-06-16T19:57:29Z</time>
      </trkpt>
      <trkpt lat="36.668168" lon="-4.51353">
        <ele>62.332</ele>
        <time>2021-06-16T19:57:31Z</time>
      </trkpt>
      <trkpt lat="36.668136" lon="-4.513758">
        <ele>62.328</ele>
        <time>2021-06-16T19:57:33Z</time>
      </trkpt>
      <trkpt lat="36.6681" lon="-4.513972">
        <ele>62.340</ele>
        <time>2021-06-16T19:57:35Z</time>
      </trkpt>
      <trkpt lat="36.668069" lon="-4.514192">
        <ele>62.319</ele>
        <time>2021-06-16T19:57:37Z</time>
      </trkpt>
      <trkpt lat="36.668044" lon="-4.514421">
        <ele>62.373</ele>
        <time>2021-06-16T19:57:39Z</time>
      </trkpt>
      <trkpt lat="36.668032" lon="-4.514671">
        <ele>62.397</ele>
        <time>2021-06-16T19:57:41Z</time>
      </trkpt>
      <trkpt lat="36.668022" lon="-4.514943">
        <ele>62.323</ele>
        <time>2021-06-16T19:57:43Z</time>
      </trkpt>
      <trkpt lat="36.668024" lon="-4.515246">
        <ele>62.325</ele>
        <time>2021-06-16T19:57:45Z</time>
      </trkpt>
      <trkpt lat="36.668044" lon="-4.515566">
        <ele>62.308</ele>
        <time>2021-06-16T19:57:47Z</time>
      </trkpt>
      <trkpt lat="36.668098" lon="-4.515897">
        <ele>62.316</ele>
        <time>2021-06-16T19:57:49Z</time>
      </trkpt>
      <trkpt lat="36.668179" lon="-4.516234">
        <ele>62.395</ele>
        <time>2021-06-16T19:57:51Z</time>
      </trkpt>
      <trkpt lat="36.668275" lon="-4.516576">
        <ele>62.359</ele>
        <time>2021-06-16T19:57:53Z</time>
      </trkpt>
      <trkpt lat="36.668328" lon="-4.516753">
        <ele>62.389</ele>
        <time>2021-06-16T19:57:54Z</time>
      </trkpt>
      <trkpt lat="36.66844" lon="-4.517109">
        <ele>58.965</ele>
        <time>2021-06-16T19:57:56Z</time>
      </trkpt>
      <trkpt lat="36.668499" lon="-4.517293">
        <ele>56.927</ele>
        <time>2021-06-16T19:57:57Z</time>
      </trkpt>
      <trkpt lat="36.668558" lon="-4.517478">
        <ele>55.786</ele>
        <time>2021-06-16T19:57:58Z</time>
      </trkpt>
      <trkpt lat="36.668673" lon="-4.517848">
        <ele>55.130</ele>
        <time>2021-06-16T19:58:00Z</time>
      </trkpt>
      <trkpt lat="36.668788" lon="-4.518207">
        <ele>55.545</ele>
        <time>2021-06-16T19:58:02Z</time>
      </trkpt>
      <trkpt lat="36.668879" lon="-4.518527">
        <ele>55.447</ele>
        <time>2021-06-16T19:58:04Z</time>
      </trkpt>
      <trkpt lat="36.66892" lon="-4.518669">
        <ele>55.611</ele>
        <time>2021-06-16T19:58:05Z</time>
      </trkpt>
      <trkpt lat="36.669004" lon="-4.518913">
        <ele>55.708</ele>
        <time>2021-06-16T19:58:07Z</time>
      </trkpt>
      <trkpt lat="36.66907" lon="-4.519105">
        <ele>55.771</ele>
        <time>2021-06-16T19:58:09Z</time>
      </trkpt>
      <trkpt lat="36.669101" lon="-4.519192">
        <ele>55.770</ele>
        <time>2021-06-16T19:58:10Z</time>
      </trkpt>
      <trkpt lat="36.669174" lon="-4.519346">
        <ele>56.114</ele>
        <time>2021-06-16T19:58:12Z</time>
      </trkpt>
      <trkpt lat="36.669216" lon="-4.51942">
        <ele>56.244</ele>
        <time>2021-06-16T19:58:13Z</time>
      </trkpt>
      <trkpt lat="36.669261" lon="-4.519502">
        <ele>56.780</ele>
        <time>2021-06-16T19:58:14Z</time>
      </trkpt>
      <trkpt lat="36.669298" lon="-4.519598">
        <ele>56.812</ele>
        <time>2021-06-16T19:58:15Z</time>
      </trkpt>
      <trkpt lat="36.669318" lon="-4.519706">
        <ele>56.791</ele>
        <time>2021-06-16T19:58:16Z</time>
      </trkpt>
      <trkpt lat="36.669362" lon="-4.519946">
        <ele>56.415</ele>
        <time>2021-06-16T19:58:18Z</time>
      </trkpt>
      <trkpt lat="36.669398" lon="-4.520079">
        <ele>56.046</ele>
        <time>2021-06-16T19:58:19Z</time>
      </trkpt>
      <trkpt lat="36.66949" lon="-4.520362">
        <ele>56.088</ele>
        <time>2021-06-16T19:58:21Z</time>
      </trkpt>
      <trkpt lat="36.669539" lon="-4.520513">
        <ele>55.716</ele>
        <time>2021-06-16T19:58:22Z</time>
      </trkpt>
      <trkpt lat="36.669588" lon="-4.520671">
        <ele>55.608</ele>
        <time>2021-06-16T19:58:23Z</time>
      </trkpt>
      <trkpt lat="36.669696" lon="-4.521004">
        <ele>55.241</ele>
        <time>2021-06-16T19:58:25Z</time>
      </trkpt>
      <trkpt lat="36.669815" lon="-4.521356">
        <ele>54.890</ele>
        <time>2021-06-16T19:58:27Z</time>
      </trkpt>
      <trkpt lat="36.669934" lon="-4.521722">
        <ele>54.734</ele>
        <time>2021-06-16T19:58:29Z</time>
      </trkpt>
      <trkpt lat="36.669993" lon="-4.521907">
        <ele>54.884</ele>
        <time>2021-06-16T19:58:30Z</time>
      </trkpt>
      <trkpt lat="36.670105" lon="-4.522268">
        <ele>54.590</ele>
        <time>2021-06-16T19:58:32Z</time>
      </trkpt>
      <trkpt lat="36.670163" lon="-4.522449">
        <ele>54.552</ele>
        <time>2021-06-16T19:58:33Z</time>
      </trkpt>
      <trkpt lat="36.67022" lon="-4.522628">
        <ele>54.651</ele>
        <time>2021-06-16T19:58:34Z</time>
      </trkpt>
      <trkpt lat="36.670333" lon="-4.522986">
        <ele>54.515</ele>
        <time>2021-06-16T19:58:36Z</time>
      </trkpt>
      <trkpt lat="36.670451" lon="-4.523358">
        <ele>54.523</ele>
        <time>2021-06-16T19:58:38Z</time>
      </trkpt>
      <trkpt lat="36.670511" lon="-4.523549">
        <ele>54.583</ele>
        <time>2021-06-16T19:58:39Z</time>
      </trkpt>
      <trkpt lat="36.670637" lon="-4.523939">
        <ele>53.511</ele>
        <time>2021-06-16T19:58:41Z</time>
      </trkpt>
      <trkpt lat="36.670703" lon="-4.524138">
        <ele>52.508</ele>
        <time>2021-06-16T19:58:42Z</time>
      </trkpt>
      <trkpt lat="36.670837" lon="-4.524524">
        <ele>51.239</ele>
        <time>2021-06-16T19:58:44Z</time>
      </trkpt>
      <trkpt lat="36.67099" lon="-4.524911">
        <ele>49.878</ele>
        <time>2021-06-16T19:58:46Z</time>
      </trkpt>
      <trkpt lat="36.671075" lon="-4.525103">
        <ele>48.552</ele>
        <time>2021-06-16T19:58:47Z</time>
      </trkpt>
      <trkpt lat="36.671264" lon="-4.525474">
        <ele>46.832</ele>
        <time>2021-06-16T19:58:49Z</time>
      </trkpt>
      <trkpt lat="36.671369" lon="-4.525657">
        <ele>45.548</ele>
        <time>2021-06-16T19:58:50Z</time>
      </trkpt>
      <trkpt lat="36.671592" lon="-4.526016">
        <ele>44.270</ele>
        <time>2021-06-16T19:58:52Z</time>
      </trkpt>
      <trkpt lat="36.671818" lon="-4.526374">
        <ele>42.949</ele>
        <time>2021-06-16T19:58:54Z</time>
      </trkpt>
      <trkpt lat="36.672051" lon="-4.526751">
        <ele>41.433</ele>
        <time>2021-06-16T19:58:56Z</time>
      </trkpt>
      <trkpt lat="36.672165" lon="-4.526949">
        <ele>40.225</ele>
        <time>2021-06-16T19:58:57Z</time>
      </trkpt>
      <trkpt lat="36.672394" lon="-4.527358">
        <ele>38.526</ele>
        <time>2021-06-16T19:58:59Z</time>
      </trkpt>
      <trkpt lat="36.672616" lon="-4.527776">
        <ele>36.508</ele>
        <time>2021-06-16T19:59:01Z</time>
      </trkpt>
      <trkpt lat="36.672839" lon="-4.52819">
        <ele>35.108</ele>
        <time>2021-06-16T19:59:03Z</time>
      </trkpt>
      <trkpt lat="36.673069" lon="-4.528596">
        <ele>33.919</ele>
        <time>2021-06-16T19:59:05Z</time>
      </trkpt>
      <trkpt lat="36.673182" lon="-4.52878">
        <ele>32.848</ele>
        <time>2021-06-16T19:59:06Z</time>
      </trkpt>
      <trkpt lat="36.673404" lon="-4.529154">
        <ele>32.462</ele>
        <time>2021-06-16T19:59:08Z</time>
      </trkpt>
      <trkpt lat="36.673511" lon="-4.529348">
        <ele>32.592</ele>
        <time>2021-06-16T19:59:09Z</time>
      </trkpt>
      <trkpt lat="36.673611" lon="-4.52954">
        <ele>32.568</ele>
        <time>2021-06-16T19:59:10Z</time>
      </trkpt>
      <trkpt lat="36.673794" lon="-4.529921">
        <ele>32.590</ele>
        <time>2021-06-16T19:59:12Z</time>
      </trkpt>
      <trkpt lat="36.673967" lon="-4.530298">
        <ele>32.489</ele>
        <time>2021-06-16T19:59:14Z</time>
      </trkpt>
      <trkpt lat="36.674125" lon="-4.530675">
        <ele>32.153</ele>
        <time>2021-06-16T19:59:16Z</time>
      </trkpt>
      <trkpt lat="36.674201" lon="-4.530862">
        <ele>32.581</ele>
        <time>2021-06-16T19:59:17Z</time>
      </trkpt>
      <trkpt lat="36.674346" lon="-4.531221">
        <ele>33.061</ele>
        <time>2021-06-16T19:59:19Z</time>
      </trkpt>
      <trkpt lat="36.67449" lon="-4.531561">
        <ele>33.617</ele>
        <time>2021-06-16T19:59:21Z</time>
      </trkpt>
      <trkpt lat="36.674564" lon="-4.531728">
        <ele>33.508</ele>
        <time>2021-06-16T19:59:22Z</time>
      </trkpt>
      <trkpt lat="36.674636" lon="-4.531891">
        <ele>33.835</ele>
        <time>2021-06-16T19:59:23Z</time>
      </trkpt>
      <trkpt lat="36.674778" lon="-4.532205">
        <ele>34.044</ele>
        <time>2021-06-16T19:59:25Z</time>
      </trkpt>
      <trkpt lat="36.674845" lon="-4.532351">
        <ele>34.498</ele>
        <time>2021-06-16T19:59:26Z</time>
      </trkpt>
      <trkpt lat="36.674968" lon="-4.532629">
        <ele>35.038</ele>
        <time>2021-06-16T19:59:28Z</time>
      </trkpt>
      <trkpt lat="36.675084" lon="-4.532874">
        <ele>36.274</ele>
        <time>2021-06-16T19:59:30Z</time>
      </trkpt>
      <trkpt lat="36.675133" lon="-4.532972">
        <ele>37.236</ele>
        <time>2021-06-16T19:59:31Z</time>
      </trkpt>
      <trkpt lat="36.675175" lon="-4.533051">
        <ele>37.965</ele>
        <time>2021-06-16T19:59:32Z</time>
      </trkpt>
      <trkpt lat="36.675213" lon="-4.533109">
        <ele>38.849</ele>
        <time>2021-06-16T19:59:33Z</time>
      </trkpt>
      <trkpt lat="36.675276" lon="-4.533177">
        <ele>39.263</ele>
        <time>2021-06-16T19:59:35Z</time>
      </trkpt>
      <trkpt lat="36.675362" lon="-4.533223">
        <ele>39.744</ele>
        <time>2021-06-16T19:59:37Z</time>
      </trkpt>
      <trkpt lat="36.67542" lon="-4.533243">
        <ele>39.918</ele>
        <time>2021-06-16T19:59:38Z</time>
      </trkpt>
      <trkpt lat="36.675562" lon="-4.533265">
        <ele>40.208</ele>
        <time>2021-06-16T19:59:40Z</time>
      </trkpt>
      <trkpt lat="36.675638" lon="-4.533283">
        <ele>40.723</ele>
        <time>2021-06-16T19:59:41Z</time>
      </trkpt>
      <trkpt lat="36.675782" lon="-4.533384">
        <ele>41.012</ele>
        <time>2021-06-16T19:59:43Z</time>
      </trkpt>
      <trkpt lat="36.675837" lon="-4.533472">
        <ele>41.316</ele>
        <time>2021-06-16T19:59:44Z</time>
      </trkpt>
      <trkpt lat="36.675872" lon="-4.533578">
        <ele>41.626</ele>
        <time>2021-06-16T19:59:45Z</time>
      </trkpt>
      <trkpt lat="36.6759" lon="-4.533817">
        <ele>41.972</ele>
        <time>2021-06-16T19:59:47Z</time>
      </trkpt>
      <trkpt lat="36.675925" lon="-4.533941">
        <ele>42.364</ele>
        <time>2021-06-16T19:59:48Z</time>
      </trkpt>
      <trkpt lat="36.676045" lon="-4.534172">
        <ele>42.413</ele>
        <time>2021-06-16T19:59:50Z</time>
      </trkpt>
      <trkpt lat="36.676243" lon="-4.534363">
        <ele>42.677</ele>
        <time>2021-06-16T19:59:52Z</time>
      </trkpt>
      <trkpt lat="36.67648" lon="-4.534533">
        <ele>42.614</ele>
        <time>2021-06-16T19:59:54Z</time>
      </trkpt>
      <trkpt lat="36.676609" lon="-4.534616">
        <ele>42.654</ele>
        <time>2021-06-16T19:59:55Z</time>
      </trkpt>
      <trkpt lat="36.676741" lon="-4.534692">
        <ele>42.609</ele>
        <time>2021-06-16T19:59:56Z</time>
      </trkpt>
      <trkpt lat="36.676877" lon="-4.534761">
        <ele>42.708</ele>
        <time>2021-06-16T19:59:57Z</time>
      </trkpt>
      <trkpt lat="36.677018" lon="-4.534833">
        <ele>43.058</ele>
        <time>2021-06-16T19:59:58Z</time>
      </trkpt>
      <trkpt lat="36.677311" lon="-4.534966">
        <ele>42.917</ele>
        <time>2021-06-16T20:00:00Z</time>
      </trkpt>
      <trkpt lat="36.677461" lon="-4.535032">
        <ele>42.411</ele>
        <time>2021-06-16T20:00:01Z</time>
      </trkpt>
      <trkpt lat="36.677616" lon="-4.535098">
        <ele>41.411</ele>
        <time>2021-06-16T20:00:02Z</time>
      </trkpt>
      <trkpt lat="36.67777" lon="-4.535159">
        <ele>40.847</ele>
        <time>2021-06-16T20:00:03Z</time>
      </trkpt>
      <trkpt lat="36.67808" lon="-4.535277">
        <ele>40.629</ele>
        <time>2021-06-16T20:00:05Z</time>
      </trkpt>
      <trkpt lat="36.678237" lon="-4.535338">
        <ele>40.418</ele>
        <time>2021-06-16T20:00:06Z</time>
      </trkpt>
      <trkpt lat="36.678396" lon="-4.535399">
        <ele>40.032</ele>
        <time>2021-06-16T20:00:07Z</time>
      </trkpt>
      <trkpt lat="36.678714" lon="-4.535523">
        <ele>39.855</ele>
        <time>2021-06-16T20:00:09Z</time>
      </trkpt>
      <trkpt lat="36.679036" lon="-4.535651">
        <ele>40.007</ele>
        <time>2021-06-16T20:00:11Z</time>
      </trkpt>
      <trkpt lat="36.679199" lon="-4.535716">
        <ele>40.517</ele>
        <time>2021-06-16T20:00:12Z</time>
      </trkpt>
      <trkpt lat="36.679361" lon="-4.535778">
        <ele>40.108</ele>
        <time>2021-06-16T20:00:13Z</time>
      </trkpt>
      <trkpt lat="36.67952" lon="-4.535836">
        <ele>40.522</ele>
        <time>2021-06-16T20:00:14Z</time>
      </trkpt>
      <trkpt lat="36.679675" lon="-4.535894">
        <ele>40.621</ele>
        <time>2021-06-16T20:00:15Z</time>
      </trkpt>
      <trkpt lat="36.67983" lon="-4.535951">
        <ele>40.875</ele>
        <time>2021-06-16T20:00:16Z</time>
      </trkpt>
      <trkpt lat="36.680133" lon="-4.536066">
        <ele>40.945</ele>
        <time>2021-06-16T20:00:18Z</time>
      </trkpt>
      <trkpt lat="36.680288" lon="-4.536125">
        <ele>41.421</ele>
        <time>2021-06-16T20:00:19Z</time>
      </trkpt>
      <trkpt lat="36.680594" lon="-4.536249">
        <ele>42.123</ele>
        <time>2021-06-16T20:00:21Z</time>
      </trkpt>
      <trkpt lat="36.680744" lon="-4.536309">
        <ele>42.722</ele>
        <time>2021-06-16T20:00:22Z</time>
      </trkpt>
      <trkpt lat="36.680888" lon="-4.536367">
        <ele>42.986</ele>
        <time>2021-06-16T20:00:23Z</time>
      </trkpt>
      <trkpt lat="36.681171" lon="-4.536478">
        <ele>43.068</ele>
        <time>2021-06-16T20:00:25Z</time>
      </trkpt>
      <trkpt lat="36.681452" lon="-4.536585">
        <ele>42.942</ele>
        <time>2021-06-16T20:00:27Z</time>
      </trkpt>
      <trkpt lat="36.68159" lon="-4.536637">
        <ele>43.026</ele>
        <time>2021-06-16T20:00:28Z</time>
      </trkpt>
      <trkpt lat="36.681846" lon="-4.536745">
        <ele>42.908</ele>
        <time>2021-06-16T20:00:30Z</time>
      </trkpt>
      <trkpt lat="36.682056" lon="-4.536862">
        <ele>42.853</ele>
        <time>2021-06-16T20:00:32Z</time>
      </trkpt>
      <trkpt lat="36.682152" lon="-4.536925">
        <ele>42.932</ele>
        <time>2021-06-16T20:00:33Z</time>
      </trkpt>
      <trkpt lat="36.682241" lon="-4.536989">
        <ele>43.096</ele>
        <time>2021-06-16T20:00:34Z</time>
      </trkpt>
      <trkpt lat="36.682399" lon="-4.537109">
        <ele>42.466</ele>
        <time>2021-06-16T20:00:36Z</time>
      </trkpt>
      <trkpt lat="36.682547" lon="-4.537182">
        <ele>41.542</ele>
        <time>2021-06-16T20:00:38Z</time>
      </trkpt>
      <trkpt lat="36.682698" lon="-4.537249">
        <ele>40.444</ele>
        <time>2021-06-16T20:00:40Z</time>
      </trkpt>
      <trkpt lat="36.682797" lon="-4.537387">
        <ele>39.983</ele>
        <time>2021-06-16T20:00:42Z</time>
      </trkpt>
      <trkpt lat="36.682856" lon="-4.537598">
        <ele>38.887</ele>
        <time>2021-06-16T20:00:44Z</time>
      </trkpt>
      <trkpt lat="36.682944" lon="-4.537848">
        <ele>38.389</ele>
        <time>2021-06-16T20:00:46Z</time>
      </trkpt>
      <trkpt lat="36.683063" lon="-4.538129">
        <ele>37.206</ele>
        <time>2021-06-16T20:00:48Z</time>
      </trkpt>
      <trkpt lat="36.683124" lon="-4.538288">
        <ele>36.326</ele>
        <time>2021-06-16T20:00:49Z</time>
      </trkpt>
      <trkpt lat="36.683176" lon="-4.538457">
        <ele>35.808</ele>
        <time>2021-06-16T20:00:50Z</time>
      </trkpt>
      <trkpt lat="36.683223" lon="-4.538632">
        <ele>35.285</ele>
        <time>2021-06-16T20:00:51Z</time>
      </trkpt>
      <trkpt lat="36.683317" lon="-4.538992">
        <ele>34.534</ele>
        <time>2021-06-16T20:00:53Z</time>
      </trkpt>
      <trkpt lat="36.683361" lon="-4.53918">
        <ele>33.948</ele>
        <time>2021-06-16T20:00:54Z</time>
      </trkpt>
      <trkpt lat="36.683403" lon="-4.539368">
        <ele>33.328</ele>
        <time>2021-06-16T20:00:55Z</time>
      </trkpt>
      <trkpt lat="36.683446" lon="-4.539558">
        <ele>32.774</ele>
        <time>2021-06-16T20:00:56Z</time>
      </trkpt>
      <trkpt lat="36.683539" lon="-4.539935">
        <ele>32.236</ele>
        <time>2021-06-16T20:00:58Z</time>
      </trkpt>
      <trkpt lat="36.683586" lon="-4.540124">
        <ele>32.025</ele>
        <time>2021-06-16T20:00:59Z</time>
      </trkpt>
      <trkpt lat="36.683675" lon="-4.540503">
        <ele>31.719</ele>
        <time>2021-06-16T20:01:01Z</time>
      </trkpt>
      <trkpt lat="36.683719" lon="-4.540692">
        <ele>31.633</ele>
        <time>2021-06-16T20:01:02Z</time>
      </trkpt>
      <trkpt lat="36.683764" lon="-4.54088">
        <ele>31.423</ele>
        <time>2021-06-16T20:01:03Z</time>
      </trkpt>
      <trkpt lat="36.68381" lon="-4.54107">
        <ele>31.215</ele>
        <time>2021-06-16T20:01:04Z</time>
      </trkpt>
      <trkpt lat="36.683854" lon="-4.541261">
        <ele>30.908</ele>
        <time>2021-06-16T20:01:05Z</time>
      </trkpt>
      <trkpt lat="36.683898" lon="-4.541451">
        <ele>31.250</ele>
        <time>2021-06-16T20:01:06Z</time>
      </trkpt>
      <trkpt lat="36.683942" lon="-4.541635">
        <ele>31.299</ele>
        <time>2021-06-16T20:01:07Z</time>
      </trkpt>
      <trkpt lat="36.684033" lon="-4.541994">
        <ele>31.643</ele>
        <time>2021-06-16T20:01:09Z</time>
      </trkpt>
      <trkpt lat="36.684119" lon="-4.542359">
        <ele>32.043</ele>
        <time>2021-06-16T20:01:11Z</time>
      </trkpt>
      <trkpt lat="36.68416" lon="-4.54254">
        <ele>32.059</ele>
        <time>2021-06-16T20:01:12Z</time>
      </trkpt>
      <trkpt lat="36.684245" lon="-4.542906">
        <ele>32.411</ele>
        <time>2021-06-16T20:01:14Z</time>
      </trkpt>
      <trkpt lat="36.684288" lon="-4.543093">
        <ele>32.850</ele>
        <time>2021-06-16T20:01:15Z</time>
      </trkpt>
      <trkpt lat="36.68438" lon="-4.543466">
        <ele>33.124</ele>
        <time>2021-06-16T20:01:17Z</time>
      </trkpt>
      <trkpt lat="36.684427" lon="-4.543653">
        <ele>33.855</ele>
        <time>2021-06-16T20:01:18Z</time>
      </trkpt>
      <trkpt lat="36.684522" lon="-4.54403">
        <ele>34.907</ele>
        <time>2021-06-16T20:01:20Z</time>
      </trkpt>
      <trkpt lat="36.684624" lon="-4.544411">
        <ele>35.517</ele>
        <time>2021-06-16T20:01:22Z</time>
      </trkpt>
      <trkpt lat="36.684675" lon="-4.544604">
        <ele>35.708</ele>
        <time>2021-06-16T20:01:23Z</time>
      </trkpt>
      <trkpt lat="36.684767" lon="-4.544986">
        <ele>36.072</ele>
        <time>2021-06-16T20:01:25Z</time>
      </trkpt>
      <trkpt lat="36.684813" lon="-4.545182">
        <ele>36.071</ele>
        <time>2021-06-16T20:01:26Z</time>
      </trkpt>
      <trkpt lat="36.684858" lon="-4.545379">
        <ele>35.915</ele>
        <time>2021-06-16T20:01:27Z</time>
      </trkpt>
      <trkpt lat="36.684949" lon="-4.545769">
        <ele>35.495</ele>
        <time>2021-06-16T20:01:29Z</time>
      </trkpt>
      <trkpt lat="36.685002" lon="-4.545953">
        <ele>35.251</ele>
        <time>2021-06-16T20:01:30Z</time>
      </trkpt>
      <trkpt lat="36.685096" lon="-4.546318">
        <ele>34.743</ele>
        <time>2021-06-16T20:01:32Z</time>
      </trkpt>
      <trkpt lat="36.685186" lon="-4.546679">
        <ele>34.562</ele>
        <time>2021-06-16T20:01:34Z</time>
      </trkpt>
      <trkpt lat="36.685234" lon="-4.546865">
        <ele>33.976</ele>
        <time>2021-06-16T20:01:35Z</time>
      </trkpt>
      <trkpt lat="36.68528" lon="-4.547049">
        <ele>33.688</ele>
        <time>2021-06-16T20:01:36Z</time>
      </trkpt>
      <trkpt lat="36.68537" lon="-4.54741">
        <ele>33.024</ele>
        <time>2021-06-16T20:01:38Z</time>
      </trkpt>
      <trkpt lat="36.685415" lon="-4.54759">
        <ele>32.926</ele>
        <time>2021-06-16T20:01:39Z</time>
      </trkpt>
      <trkpt lat="36.685459" lon="-4.547767">
        <ele>32.908</ele>
        <time>2021-06-16T20:01:40Z</time>
      </trkpt>
      <trkpt lat="36.685544" lon="-4.548106">
        <ele>33.065</ele>
        <time>2021-06-16T20:01:42Z</time>
      </trkpt>
      <trkpt lat="36.685628" lon="-4.54844">
        <ele>33.184</ele>
        <time>2021-06-16T20:01:44Z</time>
      </trkpt>
      <trkpt lat="36.685706" lon="-4.548762">
        <ele>33.198</ele>
        <time>2021-06-16T20:01:46Z</time>
      </trkpt>
      <trkpt lat="36.685782" lon="-4.549072">
        <ele>33.038</ele>
        <time>2021-06-16T20:01:48Z</time>
      </trkpt>
      <trkpt lat="36.68582" lon="-4.549225">
        <ele>33.044</ele>
        <time>2021-06-16T20:01:49Z</time>
      </trkpt>
      <trkpt lat="36.685891" lon="-4.549518">
        <ele>33.176</ele>
        <time>2021-06-16T20:01:51Z</time>
      </trkpt>
      <trkpt lat="36.685924" lon="-4.549661">
        <ele>33.315</ele>
        <time>2021-06-16T20:01:52Z</time>
      </trkpt>
      <trkpt lat="36.685988" lon="-4.549942">
        <ele>33.349</ele>
        <time>2021-06-16T20:01:54Z</time>
      </trkpt>
      <trkpt lat="36.686068" lon="-4.550205">
        <ele>33.446</ele>
        <time>2021-06-16T20:01:56Z</time>
      </trkpt>
      <trkpt lat="36.686125" lon="-4.55033">
        <ele>33.488</ele>
        <time>2021-06-16T20:01:57Z</time>
      </trkpt>
      <trkpt lat="36.686255" lon="-4.550569">
        <ele>33.716</ele>
        <time>2021-06-16T20:01:59Z</time>
      </trkpt>
      <trkpt lat="36.686334" lon="-4.550683">
        <ele>34.008</ele>
        <time>2021-06-16T20:02:00Z</time>
      </trkpt>
      <trkpt lat="36.686523" lon="-4.5509">
        <ele>34.261</ele>
        <time>2021-06-16T20:02:02Z</time>
      </trkpt>
      <trkpt lat="36.686735" lon="-4.551101">
        <ele>34.890</ele>
        <time>2021-06-16T20:02:04Z</time>
      </trkpt>
      <trkpt lat="36.686971" lon="-4.551274">
        <ele>35.484</ele>
        <time>2021-06-16T20:02:06Z</time>
      </trkpt>
      <trkpt lat="36.687094" lon="-4.551357">
        <ele>35.834</ele>
        <time>2021-06-16T20:02:07Z</time>
      </trkpt>
      <trkpt lat="36.687352" lon="-4.551525">
        <ele>35.670</ele>
        <time>2021-06-16T20:02:09Z</time>
      </trkpt>
      <trkpt lat="36.687619" lon="-4.551684">
        <ele>35.822</ele>
        <time>2021-06-16T20:02:11Z</time>
      </trkpt>
      <trkpt lat="36.687758" lon="-4.551762">
        <ele>36.081</ele>
        <time>2021-06-16T20:02:12Z</time>
      </trkpt>
      <trkpt lat="36.688043" lon="-4.55192">
        <ele>37.055</ele>
        <time>2021-06-16T20:02:14Z</time>
      </trkpt>
      <trkpt lat="36.688185" lon="-4.552">
        <ele>37.399</ele>
        <time>2021-06-16T20:02:15Z</time>
      </trkpt>
      <trkpt lat="36.68833" lon="-4.552086">
        <ele>37.207</ele>
        <time>2021-06-16T20:02:16Z</time>
      </trkpt>
      <trkpt lat="36.688477" lon="-4.552179">
        <ele>36.827</ele>
        <time>2021-06-16T20:02:17Z</time>
      </trkpt>
      <trkpt lat="36.688784" lon="-4.552367">
        <ele>36.208</ele>
        <time>2021-06-16T20:02:19Z</time>
      </trkpt>
      <trkpt lat="36.689099" lon="-4.552576">
        <ele>35.946</ele>
        <time>2021-06-16T20:02:21Z</time>
      </trkpt>
      <trkpt lat="36.68941" lon="-4.552783">
        <ele>35.185</ele>
        <time>2021-06-16T20:02:23Z</time>
      </trkpt>
      <trkpt lat="36.689689" lon="-4.553012">
        <ele>34.459</ele>
        <time>2021-06-16T20:02:25Z</time>
      </trkpt>
      <trkpt lat="36.689935" lon="-4.553272">
        <ele>34.079</ele>
        <time>2021-06-16T20:02:27Z</time>
      </trkpt>
      <trkpt lat="36.690047" lon="-4.553418">
        <ele>33.875</ele>
        <time>2021-06-16T20:02:28Z</time>
      </trkpt>
      <trkpt lat="36.690255" lon="-4.553734">
        <ele>33.637</ele>
        <time>2021-06-16T20:02:30Z</time>
      </trkpt>
      <trkpt lat="36.690445" lon="-4.55407">
        <ele>33.566</ele>
        <time>2021-06-16T20:02:32Z</time>
      </trkpt>
      <trkpt lat="36.690623" lon="-4.554418">
        <ele>33.950</ele>
        <time>2021-06-16T20:02:34Z</time>
      </trkpt>
      <trkpt lat="36.690798" lon="-4.554768">
        <ele>34.393</ele>
        <time>2021-06-16T20:02:36Z</time>
      </trkpt>
      <trkpt lat="36.690979" lon="-4.555113">
        <ele>35.265</ele>
        <time>2021-06-16T20:02:38Z</time>
      </trkpt>
      <trkpt lat="36.691072" lon="-4.555284">
        <ele>35.821</ele>
        <time>2021-06-16T20:02:39Z</time>
      </trkpt>
      <trkpt lat="36.691169" lon="-4.555453">
        <ele>36.508</ele>
        <time>2021-06-16T20:02:40Z</time>
      </trkpt>
      <trkpt lat="36.691357" lon="-4.555793">
        <ele>37.916</ele>
        <time>2021-06-16T20:02:42Z</time>
      </trkpt>
      <trkpt lat="36.69145" lon="-4.555962">
        <ele>38.875</ele>
        <time>2021-06-16T20:02:43Z</time>
      </trkpt>
      <trkpt lat="36.691637" lon="-4.556284">
        <ele>39.459</ele>
        <time>2021-06-16T20:02:45Z</time>
      </trkpt>
      <trkpt lat="36.691725" lon="-4.556441">
        <ele>40.459</ele>
        <time>2021-06-16T20:02:46Z</time>
      </trkpt>
      <trkpt lat="36.691815" lon="-4.556596">
        <ele>41.455</ele>
        <time>2021-06-16T20:02:47Z</time>
      </trkpt>
      <trkpt lat="36.691996" lon="-4.556906">
        <ele>41.687</ele>
        <time>2021-06-16T20:02:49Z</time>
      </trkpt>
      <trkpt lat="36.692185" lon="-4.557221">
        <ele>42.036</ele>
        <time>2021-06-16T20:02:51Z</time>
      </trkpt>
      <trkpt lat="36.692378" lon="-4.557539">
        <ele>42.590</ele>
        <time>2021-06-16T20:02:53Z</time>
      </trkpt>
      <trkpt lat="36.69248" lon="-4.557698">
        <ele>42.889</ele>
        <time>2021-06-16T20:02:54Z</time>
      </trkpt>
      <trkpt lat="36.692582" lon="-4.557854">
        <ele>42.806</ele>
        <time>2021-06-16T20:02:55Z</time>
      </trkpt>
      <trkpt lat="36.692684" lon="-4.558009">
        <ele>42.626</ele>
        <time>2021-06-16T20:02:56Z</time>
      </trkpt>
      <trkpt lat="36.692787" lon="-4.558164">
        <ele>42.208</ele>
        <time>2021-06-16T20:02:57Z</time>
      </trkpt>
      <trkpt lat="36.692996" lon="-4.558472">
        <ele>42.115</ele>
        <time>2021-06-16T20:02:59Z</time>
      </trkpt>
      <trkpt lat="36.693201" lon="-4.558782">
        <ele>42.084</ele>
        <time>2021-06-16T20:03:01Z</time>
      </trkpt>
      <trkpt lat="36.693302" lon="-4.558941">
        <ele>41.928</ele>
        <time>2021-06-16T20:03:02Z</time>
      </trkpt>
      <trkpt lat="36.693404" lon="-4.559099">
        <ele>41.258</ele>
        <time>2021-06-16T20:03:03Z</time>
      </trkpt>
      <trkpt lat="36.693611" lon="-4.559415">
        <ele>40.524</ele>
        <time>2021-06-16T20:03:05Z</time>
      </trkpt>
      <trkpt lat="36.693715" lon="-4.559575">
        <ele>40.286</ele>
        <time>2021-06-16T20:03:06Z</time>
      </trkpt>
      <trkpt lat="36.693819" lon="-4.559734">
        <ele>39.915</ele>
        <time>2021-06-16T20:03:07Z</time>
      </trkpt>
      <trkpt lat="36.693923" lon="-4.559894">
        <ele>39.989</ele>
        <time>2021-06-16T20:03:08Z</time>
      </trkpt>
      <trkpt lat="36.694129" lon="-4.560214">
        <ele>39.558</ele>
        <time>2021-06-16T20:03:10Z</time>
      </trkpt>
      <trkpt lat="36.694333" lon="-4.560523">
        <ele>39.252</ele>
        <time>2021-06-16T20:03:12Z</time>
      </trkpt>
      <trkpt lat="36.694433" lon="-4.560674">
        <ele>39.117</ele>
        <time>2021-06-16T20:03:13Z</time>
      </trkpt>
      <trkpt lat="36.694618" lon="-4.560957">
        <ele>38.808</ele>
        <time>2021-06-16T20:03:15Z</time>
      </trkpt>
      <trkpt lat="36.694776" lon="-4.561197">
        <ele>39.032</ele>
        <time>2021-06-16T20:03:17Z</time>
      </trkpt>
      <trkpt lat="36.69492" lon="-4.561416">
        <ele>38.861</ele>
        <time>2021-06-16T20:03:19Z</time>
      </trkpt>
      <trkpt lat="36.695068" lon="-4.56164">
        <ele>39.045</ele>
        <time>2021-06-16T20:03:21Z</time>
      </trkpt>
      <trkpt lat="36.695221" lon="-4.561873">
        <ele>39.415</ele>
        <time>2021-06-16T20:03:23Z</time>
      </trkpt>
      <trkpt lat="36.695379" lon="-4.562112">
        <ele>39.851</ele>
        <time>2021-06-16T20:03:25Z</time>
      </trkpt>
      <trkpt lat="36.695459" lon="-4.562234">
        <ele>40.293</ele>
        <time>2021-06-16T20:03:26Z</time>
      </trkpt>
      <trkpt lat="36.695619" lon="-4.562482">
        <ele>40.422</ele>
        <time>2021-06-16T20:03:28Z</time>
      </trkpt>
      <trkpt lat="36.695703" lon="-4.562607">
        <ele>40.616</ele>
        <time>2021-06-16T20:03:29Z</time>
      </trkpt>
      <trkpt lat="36.695788" lon="-4.56273">
        <ele>41.126</ele>
        <time>2021-06-16T20:03:30Z</time>
      </trkpt>
      <trkpt lat="36.695871" lon="-4.562855">
        <ele>41.047</ele>
        <time>2021-06-16T20:03:31Z</time>
      </trkpt>
      <trkpt lat="36.695953" lon="-4.56298">
        <ele>41.211</ele>
        <time>2021-06-16T20:03:32Z</time>
      </trkpt>
      <trkpt lat="36.69612" lon="-4.563231">
        <ele>41.408</ele>
        <time>2021-06-16T20:03:34Z</time>
      </trkpt>
      <trkpt lat="36.696201" lon="-4.563357">
        <ele>41.539</ele>
        <time>2021-06-16T20:03:35Z</time>
      </trkpt>
      <trkpt lat="36.696359" lon="-4.563596">
        <ele>41.998</ele>
        <time>2021-06-16T20:03:37Z</time>
      </trkpt>
      <trkpt lat="36.696505" lon="-4.563832">
        <ele>41.912</ele>
        <time>2021-06-16T20:03:39Z</time>
      </trkpt>
      <trkpt lat="36.696648" lon="-4.564076">
        <ele>41.932</ele>
        <time>2021-06-16T20:03:41Z</time>
      </trkpt>
      <trkpt lat="36.696803" lon="-4.56432">
        <ele>42.718</ele>
        <time>2021-06-16T20:03:43Z</time>
      </trkpt>
      <trkpt lat="36.696971" lon="-4.564556">
        <ele>43.150</ele>
        <time>2021-06-16T20:03:45Z</time>
      </trkpt>
      <trkpt lat="36.697047" lon="-4.564681">
        <ele>43.229</ele>
        <time>2021-06-16T20:03:46Z</time>
      </trkpt>
      <trkpt lat="36.697197" lon="-4.56494">
        <ele>43.323</ele>
        <time>2021-06-16T20:03:48Z</time>
      </trkpt>
      <trkpt lat="36.697281" lon="-4.565059">
        <ele>43.683</ele>
        <time>2021-06-16T20:03:49Z</time>
      </trkpt>
      <trkpt lat="36.697437" lon="-4.565311">
        <ele>43.725</ele>
        <time>2021-06-16T20:03:51Z</time>
      </trkpt>
      <trkpt lat="36.697511" lon="-4.565437">
        <ele>43.417</ele>
        <time>2021-06-16T20:03:52Z</time>
      </trkpt>
      <trkpt lat="36.697657" lon="-4.565679">
        <ele>43.208</ele>
        <time>2021-06-16T20:03:54Z</time>
      </trkpt>
      <trkpt lat="36.697803" lon="-4.565912">
        <ele>42.985</ele>
        <time>2021-06-16T20:03:56Z</time>
      </trkpt>
      <trkpt lat="36.697875" lon="-4.566034">
        <ele>42.774</ele>
        <time>2021-06-16T20:03:57Z</time>
      </trkpt>
      <trkpt lat="36.69802" lon="-4.566276">
        <ele>42.538</ele>
        <time>2021-06-16T20:03:59Z</time>
      </trkpt>
      <trkpt lat="36.698091" lon="-4.566393">
        <ele>42.148</ele>
        <time>2021-06-16T20:04:00Z</time>
      </trkpt>
      <trkpt lat="36.698235" lon="-4.566627">
        <ele>41.574</ele>
        <time>2021-06-16T20:04:02Z</time>
      </trkpt>
      <trkpt lat="36.69838" lon="-4.566867">
        <ele>40.896</ele>
        <time>2021-06-16T20:04:04Z</time>
      </trkpt>
      <trkpt lat="36.698457" lon="-4.566989">
        <ele>40.525</ele>
        <time>2021-06-16T20:04:05Z</time>
      </trkpt>
      <trkpt lat="36.698619" lon="-4.56723">
        <ele>39.749</ele>
        <time>2021-06-16T20:04:07Z</time>
      </trkpt>
      <trkpt lat="36.698702" lon="-4.567349">
        <ele>39.415</ele>
        <time>2021-06-16T20:04:08Z</time>
      </trkpt>
      <trkpt lat="36.698788" lon="-4.567467">
        <ele>39.065</ele>
        <time>2021-06-16T20:04:09Z</time>
      </trkpt>
      <trkpt lat="36.698878" lon="-4.567575">
        <ele>38.711</ele>
        <time>2021-06-16T20:04:10Z</time>
      </trkpt>
      <trkpt lat="36.69906" lon="-4.567791">
        <ele>38.708</ele>
        <time>2021-06-16T20:04:12Z</time>
      </trkpt>
      <trkpt lat="36.699158" lon="-4.56789">
        <ele>38.528</ele>
        <time>2021-06-16T20:04:13Z</time>
      </trkpt>
      <trkpt lat="36.699259" lon="-4.56799">
        <ele>38.287</ele>
        <time>2021-06-16T20:04:14Z</time>
      </trkpt>
      <trkpt lat="36.699366" lon="-4.56809">
        <ele>37.641</ele>
        <time>2021-06-16T20:04:15Z</time>
      </trkpt>
      <trkpt lat="36.699587" lon="-4.568289">
        <ele>37.371</ele>
        <time>2021-06-16T20:04:17Z</time>
      </trkpt>
      <trkpt lat="36.699818" lon="-4.568486">
        <ele>37.147</ele>
        <time>2021-06-16T20:04:19Z</time>
      </trkpt>
      <trkpt lat="36.699938" lon="-4.568587">
        <ele>36.999</ele>
        <time>2021-06-16T20:04:20Z</time>
      </trkpt>
      <trkpt lat="36.700172" lon="-4.56879">
        <ele>36.758</ele>
        <time>2021-06-16T20:04:22Z</time>
      </trkpt>
      <trkpt lat="36.700291" lon="-4.568897">
        <ele>36.792</ele>
        <time>2021-06-16T20:04:23Z</time>
      </trkpt>
      <trkpt lat="36.700411" lon="-4.569003">
        <ele>37.135</ele>
        <time>2021-06-16T20:04:24Z</time>
      </trkpt>
      <trkpt lat="36.70053" lon="-4.569104">
        <ele>36.986</ele>
        <time>2021-06-16T20:04:25Z</time>
      </trkpt>
      <trkpt lat="36.700651" lon="-4.569202">
        <ele>36.314</ele>
        <time>2021-06-16T20:04:26Z</time>
      </trkpt>
      <trkpt lat="36.700894" lon="-4.569412">
        <ele>36.208</ele>
        <time>2021-06-16T20:04:28Z</time>
      </trkpt>
      <trkpt lat="36.701148" lon="-4.569607">
        <ele>36.280</ele>
        <time>2021-06-16T20:04:30Z</time>
      </trkpt>
      <trkpt lat="36.701274" lon="-4.569706">
        <ele>36.179</ele>
        <time>2021-06-16T20:04:31Z</time>
      </trkpt>
      <trkpt lat="36.701517" lon="-4.569923">
        <ele>37.273</ele>
        <time>2021-06-16T20:04:33Z</time>
      </trkpt>
      <trkpt lat="36.701762" lon="-4.570143">
        <ele>38.223</ele>
        <time>2021-06-16T20:04:35Z</time>
      </trkpt>
      <trkpt lat="36.70188" lon="-4.570256">
        <ele>39.099</ele>
        <time>2021-06-16T20:04:36Z</time>
      </trkpt>
      <trkpt lat="36.702117" lon="-4.570478">
        <ele>39.871</ele>
        <time>2021-06-16T20:04:38Z</time>
      </trkpt>
      <trkpt lat="36.702236" lon="-4.570592">
        <ele>40.560</ele>
        <time>2021-06-16T20:04:39Z</time>
      </trkpt>
      <trkpt lat="36.702472" lon="-4.570813">
        <ele>41.554</ele>
        <time>2021-06-16T20:04:41Z</time>
      </trkpt>
      <trkpt lat="36.702713" lon="-4.571034">
        <ele>42.537</ele>
        <time>2021-06-16T20:04:43Z</time>
      </trkpt>
      <trkpt lat="36.702833" lon="-4.571144">
        <ele>42.949</ele>
        <time>2021-06-16T20:04:44Z</time>
      </trkpt>
      <trkpt lat="36.703076" lon="-4.571355">
        <ele>43.413</ele>
        <time>2021-06-16T20:04:46Z</time>
      </trkpt>
      <trkpt lat="36.703196" lon="-4.571466">
        <ele>43.708</ele>
        <time>2021-06-16T20:04:47Z</time>
      </trkpt>
      <trkpt lat="36.703412" lon="-4.571694">
        <ele>43.980</ele>
        <time>2021-06-16T20:04:49Z</time>
      </trkpt>
      <trkpt lat="36.703519" lon="-4.571805">
        <ele>44.279</ele>
        <time>2021-06-16T20:04:50Z</time>
      </trkpt>
      <trkpt lat="36.703731" lon="-4.572026">
        <ele>44.593</ele>
        <time>2021-06-16T20:04:52Z</time>
      </trkpt>
      <trkpt lat="36.703843" lon="-4.572135">
        <ele>44.773</ele>
        <time>2021-06-16T20:04:53Z</time>
      </trkpt>
      <trkpt lat="36.703954" lon="-4.572257">
        <ele>43.939</ele>
        <time>2021-06-16T20:04:54Z</time>
      </trkpt>
      <trkpt lat="36.704178" lon="-4.572502">
        <ele>43.281</ele>
        <time>2021-06-16T20:04:56Z</time>
      </trkpt>
      <trkpt lat="36.704412" lon="-4.572745">
        <ele>42.790</ele>
        <time>2021-06-16T20:04:58Z</time>
      </trkpt>
      <trkpt lat="36.704532" lon="-4.572864">
        <ele>42.374</ele>
        <time>2021-06-16T20:04:59Z</time>
      </trkpt>
      <trkpt lat="36.70465" lon="-4.572982">
        <ele>41.858</ele>
        <time>2021-06-16T20:05:00Z</time>
      </trkpt>
      <trkpt lat="36.704882" lon="-4.573222">
        <ele>41.152</ele>
        <time>2021-06-16T20:05:02Z</time>
      </trkpt>
      <trkpt lat="36.705107" lon="-4.57346">
        <ele>40.717</ele>
        <time>2021-06-16T20:05:04Z</time>
      </trkpt>
      <trkpt lat="36.705334" lon="-4.573703">
        <ele>40.208</ele>
        <time>2021-06-16T20:05:06Z</time>
      </trkpt>
      <trkpt lat="36.705554" lon="-4.57394">
        <ele>39.732</ele>
        <time>2021-06-16T20:05:08Z</time>
      </trkpt>
      <trkpt lat="36.705778" lon="-4.574142">
        <ele>40.271</ele>
        <time>2021-06-16T20:05:10Z</time>
      </trkpt>
      <trkpt lat="36.706007" lon="-4.574353">
        <ele>40.355</ele>
        <time>2021-06-16T20:05:12Z</time>
      </trkpt>
      <trkpt lat="36.706124" lon="-4.574453">
        <ele>39.925</ele>
        <time>2021-06-16T20:05:13Z</time>
      </trkpt>
      <trkpt lat="36.706366" lon="-4.574628">
        <ele>39.751</ele>
        <time>2021-06-16T20:05:15Z</time>
      </trkpt>
      <trkpt lat="36.706609" lon="-4.574785">
        <ele>39.483</ele>
        <time>2021-06-16T20:05:17Z</time>
      </trkpt>
      <trkpt lat="36.706733" lon="-4.574856">
        <ele>39.382</ele>
        <time>2021-06-16T20:05:18Z</time>
      </trkpt>
      <trkpt lat="36.706986" lon="-4.574991">
        <ele>39.636</ele>
        <time>2021-06-16T20:05:20Z</time>
      </trkpt>
      <trkpt lat="36.707236" lon="-4.575134">
        <ele>39.918</ele>
        <time>2021-06-16T20:05:22Z</time>
      </trkpt>
      <trkpt lat="36.707495" lon="-4.575275">
        <ele>41.098</ele>
        <time>2021-06-16T20:05:24Z</time>
      </trkpt>
      <trkpt lat="36.707627" lon="-4.575351">
        <ele>41.117</ele>
        <time>2021-06-16T20:05:25Z</time>
      </trkpt>
      <trkpt lat="36.707761" lon="-4.575427">
        <ele>41.508</ele>
        <time>2021-06-16T20:05:26Z</time>
      </trkpt>
      <trkpt lat="36.708033" lon="-4.575583">
        <ele>42.388</ele>
        <time>2021-06-16T20:05:28Z</time>
      </trkpt>
      <trkpt lat="36.708305" lon="-4.575725">
        <ele>43.347</ele>
        <time>2021-06-16T20:05:30Z</time>
      </trkpt>
      <trkpt lat="36.70857" lon="-4.575885">
        <ele>43.461</ele>
        <time>2021-06-16T20:05:32Z</time>
      </trkpt>
      <trkpt lat="36.708705" lon="-4.575978">
        <ele>43.841</ele>
        <time>2021-06-16T20:05:33Z</time>
      </trkpt>
      <trkpt lat="36.708958" lon="-4.576199">
        <ele>44.217</ele>
        <time>2021-06-16T20:05:35Z</time>
      </trkpt>
      <trkpt lat="36.709074" lon="-4.576331">
        <ele>44.619</ele>
        <time>2021-06-16T20:05:36Z</time>
      </trkpt>
      <trkpt lat="36.709281" lon="-4.576616">
        <ele>45.088</ele>
        <time>2021-06-16T20:05:38Z</time>
      </trkpt>
      <trkpt lat="36.709371" lon="-4.576767">
        <ele>45.312</ele>
        <time>2021-06-16T20:05:39Z</time>
      </trkpt>
      <trkpt lat="36.70953" lon="-4.577089">
        <ele>45.219</ele>
        <time>2021-06-16T20:05:41Z</time>
      </trkpt>
      <trkpt lat="36.709608" lon="-4.577266">
        <ele>45.009</ele>
        <time>2021-06-16T20:05:42Z</time>
      </trkpt>
      <trkpt lat="36.709785" lon="-4.577598">
        <ele>44.919</ele>
        <time>2021-06-16T20:05:44Z</time>
      </trkpt>
      <trkpt lat="36.709889" lon="-4.577757">
        <ele>44.908</ele>
        <time>2021-06-16T20:05:45Z</time>
      </trkpt>
      <trkpt lat="36.709997" lon="-4.577908">
        <ele>44.878</ele>
        <time>2021-06-16T20:05:46Z</time>
      </trkpt>
      <trkpt lat="36.710241" lon="-4.578175">
        <ele>45.147</ele>
        <time>2021-06-16T20:05:48Z</time>
      </trkpt>
      <trkpt lat="36.710371" lon="-4.578295">
        <ele>45.131</ele>
        <time>2021-06-16T20:05:49Z</time>
      </trkpt>
      <trkpt lat="36.7105" lon="-4.578404">
        <ele>45.381</ele>
        <time>2021-06-16T20:05:50Z</time>
      </trkpt>
      <trkpt lat="36.710774" lon="-4.578576">
        <ele>45.767</ele>
        <time>2021-06-16T20:05:52Z</time>
      </trkpt>
      <trkpt lat="36.710916" lon="-4.578658">
        <ele>45.629</ele>
        <time>2021-06-16T20:05:53Z</time>
      </trkpt>
      <trkpt lat="36.711055" lon="-4.578735">
        <ele>45.758</ele>
        <time>2021-06-16T20:05:54Z</time>
      </trkpt>
      <trkpt lat="36.711328" lon="-4.578876">
        <ele>45.922</ele>
        <time>2021-06-16T20:05:56Z</time>
      </trkpt>
      <trkpt lat="36.711466" lon="-4.578943">
        <ele>46.223</ele>
        <time>2021-06-16T20:05:57Z</time>
      </trkpt>
      <trkpt lat="36.711739" lon="-4.579079">
        <ele>47.283</ele>
        <time>2021-06-16T20:05:59Z</time>
      </trkpt>
      <trkpt lat="36.712013" lon="-4.579229">
        <ele>47.811</ele>
        <time>2021-06-16T20:06:01Z</time>
      </trkpt>
      <trkpt lat="36.712148" lon="-4.579313">
        <ele>48.108</ele>
        <time>2021-06-16T20:06:02Z</time>
      </trkpt>
      <trkpt lat="36.71241" lon="-4.579504">
        <ele>48.479</ele>
        <time>2021-06-16T20:06:04Z</time>
      </trkpt>
      <trkpt lat="36.712644" lon="-4.579784">
        <ele>49.078</ele>
        <time>2021-06-16T20:06:06Z</time>
      </trkpt>
      <trkpt lat="36.712745" lon="-4.579938">
        <ele>48.692</ele>
        <time>2021-06-16T20:06:07Z</time>
      </trkpt>
      <trkpt lat="36.712918" lon="-4.580272">
        <ele>48.112</ele>
        <time>2021-06-16T20:06:09Z</time>
      </trkpt>
      <trkpt lat="36.713063" lon="-4.580645">
        <ele>47.098</ele>
        <time>2021-06-16T20:06:11Z</time>
      </trkpt>
      <trkpt lat="36.713134" lon="-4.580837">
        <ele>46.240</ele>
        <time>2021-06-16T20:06:12Z</time>
      </trkpt>
      <trkpt lat="36.713203" lon="-4.581035">
        <ele>45.389</ele>
        <time>2021-06-16T20:06:13Z</time>
      </trkpt>
      <trkpt lat="36.713273" lon="-4.581228">
        <ele>44.643</ele>
        <time>2021-06-16T20:06:14Z</time>
      </trkpt>
      <trkpt lat="36.713344" lon="-4.58142">
        <ele>43.546</ele>
        <time>2021-06-16T20:06:15Z</time>
      </trkpt>
      <trkpt lat="36.713423" lon="-4.581606">
        <ele>43.088</ele>
        <time>2021-06-16T20:06:16Z</time>
      </trkpt>
      <trkpt lat="36.713567" lon="-4.581985">
        <ele>42.316</ele>
        <time>2021-06-16T20:06:18Z</time>
      </trkpt>
      <trkpt lat="36.713706" lon="-4.582351">
        <ele>41.708</ele>
        <time>2021-06-16T20:06:20Z</time>
      </trkpt>
      <trkpt lat="36.713775" lon="-4.582529">
        <ele>41.031</ele>
        <time>2021-06-16T20:06:21Z</time>
      </trkpt>
      <trkpt lat="36.713905" lon="-4.582873">
        <ele>40.690</ele>
        <time>2021-06-16T20:06:23Z</time>
      </trkpt>
      <trkpt lat="36.714028" lon="-4.583199">
        <ele>40.164</ele>
        <time>2021-06-16T20:06:25Z</time>
      </trkpt>
      <trkpt lat="36.714143" lon="-4.583515">
        <ele>39.964</ele>
        <time>2021-06-16T20:06:27Z</time>
      </trkpt>
      <trkpt lat="36.714254" lon="-4.583814">
        <ele>40.080</ele>
        <time>2021-06-16T20:06:29Z</time>
      </trkpt>
      <trkpt lat="36.714308" lon="-4.583962">
        <ele>39.732</ele>
        <time>2021-06-16T20:06:30Z</time>
      </trkpt>
      <trkpt lat="36.714423" lon="-4.584267">
        <ele>39.371</ele>
        <time>2021-06-16T20:06:32Z</time>
      </trkpt>
      <trkpt lat="36.714548" lon="-4.584593">
        <ele>38.965</ele>
        <time>2021-06-16T20:06:34Z</time>
      </trkpt>
      <trkpt lat="36.714615" lon="-4.584762">
        <ele>38.597</ele>
        <time>2021-06-16T20:06:35Z</time>
      </trkpt>
      <trkpt lat="36.714688" lon="-4.584933">
        <ele>38.223</ele>
        <time>2021-06-16T20:06:36Z</time>
      </trkpt>
      <trkpt lat="36.714854" lon="-4.585277">
        <ele>37.525</ele>
        <time>2021-06-16T20:06:38Z</time>
      </trkpt>
      <trkpt lat="36.715035" lon="-4.585617">
        <ele>36.808</ele>
        <time>2021-06-16T20:06:40Z</time>
      </trkpt>
      <trkpt lat="36.715228" lon="-4.585948">
        <ele>36.366</ele>
        <time>2021-06-16T20:06:42Z</time>
      </trkpt>
      <trkpt lat="36.715327" lon="-4.586112">
        <ele>35.965</ele>
        <time>2021-06-16T20:06:43Z</time>
      </trkpt>
      <trkpt lat="36.715527" lon="-4.586435">
        <ele>35.939</ele>
        <time>2021-06-16T20:06:45Z</time>
      </trkpt>
      <trkpt lat="36.715627" lon="-4.586592">
        <ele>35.769</ele>
        <time>2021-06-16T20:06:46Z</time>
      </trkpt>
      <trkpt lat="36.715726" lon="-4.586749">
        <ele>35.715</ele>
        <time>2021-06-16T20:06:47Z</time>
      </trkpt>
      <trkpt lat="36.715822" lon="-4.586907">
        <ele>36.057</ele>
        <time>2021-06-16T20:06:48Z</time>
      </trkpt>
      <trkpt lat="36.716013" lon="-4.587221">
        <ele>35.876</ele>
        <time>2021-06-16T20:06:50Z</time>
      </trkpt>
      <trkpt lat="36.716109" lon="-4.587378">
        <ele>35.550</ele>
        <time>2021-06-16T20:06:51Z</time>
      </trkpt>
      <trkpt lat="36.7163" lon="-4.587691">
        <ele>35.289</ele>
        <time>2021-06-16T20:06:53Z</time>
      </trkpt>
      <trkpt lat="36.716486" lon="-4.587999">
        <ele>34.906</ele>
        <time>2021-06-16T20:06:55Z</time>
      </trkpt>
      <trkpt lat="36.716662" lon="-4.588298">
        <ele>34.226</ele>
        <time>2021-06-16T20:06:57Z</time>
      </trkpt>
      <trkpt lat="36.716747" lon="-4.588442">
        <ele>34.108</ele>
        <time>2021-06-16T20:06:58Z</time>
      </trkpt>
      <trkpt lat="36.716917" lon="-4.588714">
        <ele>33.985</ele>
        <time>2021-06-16T20:07:00Z</time>
      </trkpt>
      <trkpt lat="36.717095" lon="-4.58896">
        <ele>33.874</ele>
        <time>2021-06-16T20:07:02Z</time>
      </trkpt>
      <trkpt lat="36.717282" lon="-4.589174">
        <ele>33.788</ele>
        <time>2021-06-16T20:07:04Z</time>
      </trkpt>
      <trkpt lat="36.717379" lon="-4.589265">
        <ele>33.798</ele>
        <time>2021-06-16T20:07:05Z</time>
      </trkpt>
      <trkpt lat="36.717576" lon="-4.5894">
        <ele>33.664</ele>
        <time>2021-06-16T20:07:07Z</time>
      </trkpt>
      <trkpt lat="36.717762" lon="-4.589454">
        <ele>33.776</ele>
        <time>2021-06-16T20:07:09Z</time>
      </trkpt>
      <trkpt lat="36.717854" lon="-4.589461">
        <ele>33.675</ele>
        <time>2021-06-16T20:07:10Z</time>
      </trkpt>
      <trkpt lat="36.718027" lon="-4.589505">
        <ele>33.999</ele>
        <time>2021-06-16T20:07:12Z</time>
      </trkpt>
      <trkpt lat="36.718096" lon="-4.589566">
        <ele>34.234</ele>
        <time>2021-06-16T20:07:13Z</time>
      </trkpt>
      <trkpt lat="36.718222" lon="-4.589728">
        <ele>34.555</ele>
        <time>2021-06-16T20:07:15Z</time>
      </trkpt>
      <trkpt lat="36.718388" lon="-4.589898">
        <ele>34.610</ele>
        <time>2021-06-16T20:07:17Z</time>
      </trkpt>
      <trkpt lat="36.718591" lon="-4.590059">
        <ele>35.408</ele>
        <time>2021-06-16T20:07:19Z</time>
      </trkpt>
      <trkpt lat="36.718696" lon="-4.590139">
        <ele>35.430</ele>
        <time>2021-06-16T20:07:20Z</time>
      </trkpt>
      <trkpt lat="36.718808" lon="-4.59023">
        <ele>35.599</ele>
        <time>2021-06-16T20:07:21Z</time>
      </trkpt>
      <trkpt lat="36.719002" lon="-4.590453">
        <ele>35.733</ele>
        <time>2021-06-16T20:07:23Z</time>
      </trkpt>
      <trkpt lat="36.719151" lon="-4.590727">
        <ele>35.783</ele>
        <time>2021-06-16T20:07:25Z</time>
      </trkpt>
      <trkpt lat="36.719213" lon="-4.590871">
        <ele>36.149</ele>
        <time>2021-06-16T20:07:26Z</time>
      </trkpt>
      <trkpt lat="36.719312" lon="-4.591165">
        <ele>36.661</ele>
        <time>2021-06-16T20:07:28Z</time>
      </trkpt>
      <trkpt lat="36.719341" lon="-4.591323">
        <ele>37.150</ele>
        <time>2021-06-16T20:07:29Z</time>
      </trkpt>
      <trkpt lat="36.719392" lon="-4.591621">
        <ele>38.134</ele>
        <time>2021-06-16T20:07:31Z</time>
      </trkpt>
      <trkpt lat="36.719421" lon="-4.591759">
        <ele>38.935</ele>
        <time>2021-06-16T20:07:32Z</time>
      </trkpt>
      <trkpt lat="36.719494" lon="-4.592001">
        <ele>39.486</ele>
        <time>2021-06-16T20:07:34Z</time>
      </trkpt>
      <trkpt lat="36.719541" lon="-4.592105">
        <ele>39.914</ele>
        <time>2021-06-16T20:07:35Z</time>
      </trkpt>
      <trkpt lat="36.719594" lon="-4.592197">
        <ele>39.908</ele>
        <time>2021-06-16T20:07:36Z</time>
      </trkpt>
      <trkpt lat="36.71964" lon="-4.592288">
        <ele>40.060</ele>
        <time>2021-06-16T20:07:37Z</time>
      </trkpt>
      <trkpt lat="36.719674" lon="-4.592479">
        <ele>40.289</ele>
        <time>2021-06-16T20:07:39Z</time>
      </trkpt>
      <trkpt lat="36.719636" lon="-4.592657">
        <ele>40.333</ele>
        <time>2021-06-16T20:07:41Z</time>
      </trkpt>
      <trkpt lat="36.719621" lon="-4.592862">
        <ele>40.233</ele>
        <time>2021-06-16T20:07:43Z</time>
      </trkpt>
      <trkpt lat="36.71965" lon="-4.593119">
        <ele>40.499</ele>
        <time>2021-06-16T20:07:45Z</time>
      </trkpt>
      <trkpt lat="36.719699" lon="-4.593395">
        <ele>40.911</ele>
        <time>2021-06-16T20:07:47Z</time>
      </trkpt>
      <trkpt lat="36.719768" lon="-4.593701">
        <ele>41.730</ele>
        <time>2021-06-16T20:07:49Z</time>
      </trkpt>
      <trkpt lat="36.719838" lon="-4.594019">
        <ele>42.334</ele>
        <time>2021-06-16T20:07:51Z</time>
      </trkpt>
      <trkpt lat="36.719883" lon="-4.594348">
        <ele>43.562</ele>
        <time>2021-06-16T20:07:53Z</time>
      </trkpt>
      <trkpt lat="36.719891" lon="-4.59452">
        <ele>44.283</ele>
        <time>2021-06-16T20:07:54Z</time>
      </trkpt>
      <trkpt lat="36.719881" lon="-4.594864">
        <ele>45.211</ele>
        <time>2021-06-16T20:07:56Z</time>
      </trkpt>
      <trkpt lat="36.719866" lon="-4.595039">
        <ele>45.808</ele>
        <time>2021-06-16T20:07:57Z</time>
      </trkpt>
      <trkpt lat="36.719844" lon="-4.595215">
        <ele>46.783</ele>
        <time>2021-06-16T20:07:58Z</time>
      </trkpt>
      <trkpt lat="36.719798" lon="-4.595576">
        <ele>47.492</ele>
        <time>2021-06-16T20:08:00Z</time>
      </trkpt>
      <trkpt lat="36.719772" lon="-4.595762">
        <ele>48.096</ele>
        <time>2021-06-16T20:08:01Z</time>
      </trkpt>
      <trkpt lat="36.719746" lon="-4.595948">
        <ele>48.756</ele>
        <time>2021-06-16T20:08:02Z</time>
      </trkpt>
      <trkpt lat="36.719704" lon="-4.596326">
        <ele>48.682</ele>
        <time>2021-06-16T20:08:04Z</time>
      </trkpt>
      <trkpt lat="36.719683" lon="-4.596706">
        <ele>48.424</ele>
        <time>2021-06-16T20:08:06Z</time>
      </trkpt>
      <trkpt lat="36.719676" lon="-4.596897">
        <ele>48.493</ele>
        <time>2021-06-16T20:08:07Z</time>
      </trkpt>
      <trkpt lat="36.719668" lon="-4.597093">
        <ele>48.697</ele>
        <time>2021-06-16T20:08:08Z</time>
      </trkpt>
      <trkpt lat="36.719654" lon="-4.597485">
        <ele>48.059</ele>
        <time>2021-06-16T20:08:10Z</time>
      </trkpt>
      <trkpt lat="36.719647" lon="-4.597681">
        <ele>48.103</ele>
        <time>2021-06-16T20:08:11Z</time>
      </trkpt>
      <trkpt lat="36.719649" lon="-4.598078">
        <ele>47.923</ele>
        <time>2021-06-16T20:08:13Z</time>
      </trkpt>
      <trkpt lat="36.719649" lon="-4.598275">
        <ele>47.608</ele>
        <time>2021-06-16T20:08:14Z</time>
      </trkpt>
      <trkpt lat="36.719641" lon="-4.598665">
        <ele>47.612</ele>
        <time>2021-06-16T20:08:16Z</time>
      </trkpt>
      <trkpt lat="36.719631" lon="-4.59905">
        <ele>47.541</ele>
        <time>2021-06-16T20:08:18Z</time>
      </trkpt>
      <trkpt lat="36.719622" lon="-4.599243">
        <ele>47.525</ele>
        <time>2021-06-16T20:08:19Z</time>
      </trkpt>
      <trkpt lat="36.719608" lon="-4.599624">
        <ele>47.935</ele>
        <time>2021-06-16T20:08:21Z</time>
      </trkpt>
      <trkpt lat="36.719609" lon="-4.599815">
        <ele>48.321</ele>
        <time>2021-06-16T20:08:22Z</time>
      </trkpt>
      <trkpt lat="36.719615" lon="-4.600004">
        <ele>48.223</ele>
        <time>2021-06-16T20:08:23Z</time>
      </trkpt>
      <trkpt lat="36.719627" lon="-4.600193">
        <ele>48.662</ele>
        <time>2021-06-16T20:08:24Z</time>
      </trkpt>
      <trkpt lat="36.719678" lon="-4.60057">
        <ele>49.026</ele>
        <time>2021-06-16T20:08:26Z</time>
      </trkpt>
      <trkpt lat="36.719743" lon="-4.600949">
        <ele>49.393</ele>
        <time>2021-06-16T20:08:28Z</time>
      </trkpt>
      <trkpt lat="36.719812" lon="-4.601326">
        <ele>50.265</ele>
        <time>2021-06-16T20:08:30Z</time>
      </trkpt>
      <trkpt lat="36.719849" lon="-4.601515">
        <ele>51.021</ele>
        <time>2021-06-16T20:08:31Z</time>
      </trkpt>
      <trkpt lat="36.719886" lon="-4.601705">
        <ele>51.708</ele>
        <time>2021-06-16T20:08:32Z</time>
      </trkpt>
      <trkpt lat="36.719961" lon="-4.602089">
        <ele>52.366</ele>
        <time>2021-06-16T20:08:34Z</time>
      </trkpt>
      <trkpt lat="36.720001" lon="-4.602281">
        <ele>52.585</ele>
        <time>2021-06-16T20:08:35Z</time>
      </trkpt>
      <trkpt lat="36.720083" lon="-4.602668">
        <ele>53.299</ele>
        <time>2021-06-16T20:08:37Z</time>
      </trkpt>
      <trkpt lat="36.720172" lon="-4.603053">
        <ele>54.249</ele>
        <time>2021-06-16T20:08:39Z</time>
      </trkpt>
      <trkpt lat="36.720249" lon="-4.603423">
        <ele>55.135</ele>
        <time>2021-06-16T20:08:41Z</time>
      </trkpt>
      <trkpt lat="36.720308" lon="-4.603729">
        <ele>56.437</ele>
        <time>2021-06-16T20:08:43Z</time>
      </trkpt>
      <trkpt lat="36.720333" lon="-4.603866">
        <ele>56.736</ele>
        <time>2021-06-16T20:08:44Z</time>
      </trkpt>
      <trkpt lat="36.72038" lon="-4.604113">
        <ele>57.830</ele>
        <time>2021-06-16T20:08:46Z</time>
      </trkpt>
      <trkpt lat="36.720401" lon="-4.604224">
        <ele>58.847</ele>
        <time>2021-06-16T20:08:47Z</time>
      </trkpt>
      <trkpt lat="36.720419" lon="-4.604323">
        <ele>59.629</ele>
        <time>2021-06-16T20:08:48Z</time>
      </trkpt>
      <trkpt lat="36.720434" lon="-4.604415">
        <ele>60.321</ele>
        <time>2021-06-16T20:08:49Z</time>
      </trkpt>
      <trkpt lat="36.720461" lon="-4.604591">
        <ele>61.508</ele>
        <time>2021-06-16T20:08:51Z</time>
      </trkpt>
      <trkpt lat="36.720479" lon="-4.604693">
        <ele>62.351</ele>
        <time>2021-06-16T20:08:52Z</time>
      </trkpt>
      <trkpt lat="36.720523" lon="-4.604927">
        <ele>63.070</ele>
        <time>2021-06-16T20:08:54Z</time>
      </trkpt>
      <trkpt lat="36.720572" lon="-4.605193">
        <ele>63.764</ele>
        <time>2021-06-16T20:08:56Z</time>
      </trkpt>
      <trkpt lat="36.720626" lon="-4.605488">
        <ele>64.364</ele>
        <time>2021-06-16T20:08:58Z</time>
      </trkpt>
      <trkpt lat="36.720651" lon="-4.605644">
        <ele>65.270</ele>
        <time>2021-06-16T20:08:59Z</time>
      </trkpt>
      <trkpt lat="36.720704" lon="-4.605967">
        <ele>65.982</ele>
        <time>2021-06-16T20:09:01Z</time>
      </trkpt>
      <trkpt lat="36.720728" lon="-4.606139">
        <ele>67.051</ele>
        <time>2021-06-16T20:09:02Z</time>
      </trkpt>
      <trkpt lat="36.720761" lon="-4.606498">
        <ele>68.275</ele>
        <time>2021-06-16T20:09:04Z</time>
      </trkpt>
      <trkpt lat="36.720784" lon="-4.606868">
        <ele>69.958</ele>
        <time>2021-06-16T20:09:06Z</time>
      </trkpt>
      <trkpt lat="36.720784" lon="-4.607249">
        <ele>71.552</ele>
        <time>2021-06-16T20:09:08Z</time>
      </trkpt>
      <trkpt lat="36.720775" lon="-4.607618">
        <ele>72.517</ele>
        <time>2021-06-16T20:09:10Z</time>
      </trkpt>
      <trkpt lat="36.720771" lon="-4.607801">
        <ele>73.108</ele>
        <time>2021-06-16T20:09:11Z</time>
      </trkpt>
      <trkpt lat="36.720756" lon="-4.60815">
        <ele>73.852</ele>
        <time>2021-06-16T20:09:13Z</time>
      </trkpt>
      <trkpt lat="36.720748" lon="-4.608316">
        <ele>73.821</ele>
        <time>2021-06-16T20:09:14Z</time>
      </trkpt>
      <trkpt lat="36.720738" lon="-4.608625">
        <ele>73.735</ele>
        <time>2021-06-16T20:09:16Z</time>
      </trkpt>
      <trkpt lat="36.720775" lon="-4.608892">
        <ele>73.585</ele>
        <time>2021-06-16T20:09:18Z</time>
      </trkpt>
      <trkpt lat="36.720812" lon="-4.609017">
        <ele>73.681</ele>
        <time>2021-06-16T20:09:19Z</time>
      </trkpt>
      <trkpt lat="36.720871" lon="-4.609271">
        <ele>73.363</ele>
        <time>2021-06-16T20:09:21Z</time>
      </trkpt>
      <trkpt lat="36.720902" lon="-4.609396">
        <ele>73.142</ele>
        <time>2021-06-16T20:09:22Z</time>
      </trkpt>
      <trkpt lat="36.721021" lon="-4.609615">
        <ele>72.646</ele>
        <time>2021-06-16T20:09:24Z</time>
      </trkpt>
      <trkpt lat="36.721104" lon="-4.609704">
        <ele>72.263</ele>
        <time>2021-06-16T20:09:25Z</time>
      </trkpt>
      <trkpt lat="36.721295" lon="-4.609833">
        <ele>71.644</ele>
        <time>2021-06-16T20:09:27Z</time>
      </trkpt>
      <trkpt lat="36.721502" lon="-4.609918">
        <ele>71.018</ele>
        <time>2021-06-16T20:09:29Z</time>
      </trkpt>
      <trkpt lat="36.721705" lon="-4.609944">
        <ele>70.508</ele>
        <time>2021-06-16T20:09:31Z</time>
      </trkpt>
      <trkpt lat="36.721883" lon="-4.609963">
        <ele>69.773</ele>
        <time>2021-06-16T20:09:33Z</time>
      </trkpt>
      <trkpt lat="36.722056" lon="-4.609977">
        <ele>68.922</ele>
        <time>2021-06-16T20:09:35Z</time>
      </trkpt>
      <trkpt lat="36.722143" lon="-4.60998">
        <ele>68.846</ele>
        <time>2021-06-16T20:09:36Z</time>
      </trkpt>
      <trkpt lat="36.722231" lon="-4.609986">
        <ele>68.226</ele>
        <time>2021-06-16T20:09:37Z</time>
      </trkpt>
      <trkpt lat="36.722398" lon="-4.610001">
        <ele>67.582</ele>
        <time>2021-06-16T20:09:39Z</time>
      </trkpt>
      <trkpt lat="36.722561" lon="-4.610023">
        <ele>66.864</ele>
        <time>2021-06-16T20:09:41Z</time>
      </trkpt>
      <trkpt lat="36.722731" lon="-4.610058">
        <ele>65.953</ele>
        <time>2021-06-16T20:09:43Z</time>
      </trkpt>
      <trkpt lat="36.72282" lon="-4.610088">
        <ele>65.337</ele>
        <time>2021-06-16T20:09:44Z</time>
      </trkpt>
      <trkpt lat="36.72291" lon="-4.610128">
        <ele>64.559</ele>
        <time>2021-06-16T20:09:45Z</time>
      </trkpt>
      <trkpt lat="36.723076" lon="-4.610239">
        <ele>63.703</ele>
        <time>2021-06-16T20:09:47Z</time>
      </trkpt>
      <trkpt lat="36.723152" lon="-4.610312">
        <ele>63.223</ele>
        <time>2021-06-16T20:09:48Z</time>
      </trkpt>
      <trkpt lat="36.723222" lon="-4.610397">
        <ele>62.508</ele>
        <time>2021-06-16T20:09:49Z</time>
      </trkpt>
      <trkpt lat="36.723342" lon="-4.610611">
        <ele>61.222</ele>
        <time>2021-06-16T20:09:51Z</time>
      </trkpt>
      <trkpt lat="36.72342" lon="-4.610865">
        <ele>60.081</ele>
        <time>2021-06-16T20:09:53Z</time>
      </trkpt>
      <trkpt lat="36.723436" lon="-4.611006">
        <ele>59.115</ele>
        <time>2021-06-16T20:09:54Z</time>
      </trkpt>
      <trkpt lat="36.723433" lon="-4.611291">
        <ele>58.165</ele>
        <time>2021-06-16T20:09:56Z</time>
      </trkpt>
      <trkpt lat="36.723388" lon="-4.611566">
        <ele>56.811</ele>
        <time>2021-06-16T20:09:58Z</time>
      </trkpt>
      <trkpt lat="36.723356" lon="-4.611706">
        <ele>56.213</ele>
        <time>2021-06-16T20:09:59Z</time>
      </trkpt>
      <trkpt lat="36.723321" lon="-4.611849">
        <ele>55.722</ele>
        <time>2021-06-16T20:10:00Z</time>
      </trkpt>
      <trkpt lat="36.723287" lon="-4.611994">
        <ele>55.386</ele>
        <time>2021-06-16T20:10:01Z</time>
      </trkpt>
      <trkpt lat="36.723249" lon="-4.612142">
        <ele>55.515</ele>
        <time>2021-06-16T20:10:02Z</time>
      </trkpt>
      <trkpt lat="36.723181" lon="-4.612435">
        <ele>55.265</ele>
        <time>2021-06-16T20:10:04Z</time>
      </trkpt>
      <trkpt lat="36.723154" lon="-4.612588">
        <ele>55.211</ele>
        <time>2021-06-16T20:10:05Z</time>
      </trkpt>
      <trkpt lat="36.723128" lon="-4.612746">
        <ele>55.408</ele>
        <time>2021-06-16T20:10:06Z</time>
      </trkpt>
      <trkpt lat="36.723066" lon="-4.613065">
        <ele>54.898</ele>
        <time>2021-06-16T20:10:08Z</time>
      </trkpt>
      <trkpt lat="36.723015" lon="-4.613355">
        <ele>53.257</ele>
        <time>2021-06-16T20:10:10Z</time>
      </trkpt>
      <trkpt lat="36.72299" lon="-4.613494">
        <ele>51.981</ele>
        <time>2021-06-16T20:10:11Z</time>
      </trkpt>
      <trkpt lat="36.722958" lon="-4.613765">
        <ele>50.761</ele>
        <time>2021-06-16T20:10:13Z</time>
      </trkpt>
      <trkpt lat="36.722934" lon="-4.614014">
        <ele>49.237</ele>
        <time>2021-06-16T20:10:15Z</time>
      </trkpt>
      <trkpt lat="36.722926" lon="-4.614127">
        <ele>48.089</ele>
        <time>2021-06-16T20:10:16Z</time>
      </trkpt>
      <trkpt lat="36.722907" lon="-4.614351">
        <ele>47.098</ele>
        <time>2021-06-16T20:10:18Z</time>
      </trkpt>
      <trkpt lat="36.722884" lon="-4.614549">
        <ele>47.092</ele>
        <time>2021-06-16T20:10:20Z</time>
      </trkpt>
      <trkpt lat="36.722872" lon="-4.614631">
        <ele>46.728</ele>
        <time>2021-06-16T20:10:21Z</time>
      </trkpt>
      <trkpt lat="36.722866" lon="-4.614789">
        <ele>46.689</ele>
        <time>2021-06-16T20:10:23Z</time>
      </trkpt>
      <trkpt lat="36.722892" lon="-4.6149">
        <ele>46.217</ele>
        <time>2021-06-16T20:10:25Z</time>
      </trkpt>
      <trkpt lat="36.722933" lon="-4.614954">
        <ele>48.008</ele>
        <time>2021-06-16T20:10:41Z</time>
      </trkpt>
      <trkpt lat="36.722988" lon="-4.615091">
        <ele>49.159</ele>
        <time>2021-06-16T20:10:43Z</time>
      </trkpt>
      <trkpt lat="36.722982" lon="-4.615298">
        <ele>49.898</ele>
        <time>2021-06-16T20:10:45Z</time>
      </trkpt>
      <trkpt lat="36.722936" lon="-4.615383">
        <ele>50.292</ele>
        <time>2021-06-16T20:10:46Z</time>
      </trkpt>
      <trkpt lat="36.722797" lon="-4.615447">
        <ele>50.462</ele>
        <time>2021-06-16T20:10:48Z</time>
      </trkpt>
      <trkpt lat="36.722718" lon="-4.615431">
        <ele>50.538</ele>
        <time>2021-06-16T20:10:49Z</time>
      </trkpt>
      <trkpt lat="36.722553" lon="-4.615389">
        <ele>50.620</ele>
        <time>2021-06-16T20:10:51Z</time>
      </trkpt>
      <trkpt lat="36.72247" lon="-4.615405">
        <ele>50.619</ele>
        <time>2021-06-16T20:10:52Z</time>
      </trkpt>
      <trkpt lat="36.72233" lon="-4.615523">
        <ele>50.693</ele>
        <time>2021-06-16T20:10:54Z</time>
      </trkpt>
      <trkpt lat="36.722195" lon="-4.615689">
        <ele>50.654</ele>
        <time>2021-06-16T20:10:56Z</time>
      </trkpt>
      <trkpt lat="36.722124" lon="-4.615778">
        <ele>50.656</ele>
        <time>2021-06-16T20:10:57Z</time>
      </trkpt>
      <trkpt lat="36.721974" lon="-4.61597">
        <ele>50.611</ele>
        <time>2021-06-16T20:10:59Z</time>
      </trkpt>
      <trkpt lat="36.721896" lon="-4.616071">
        <ele>50.608</ele>
        <time>2021-06-16T20:11:00Z</time>
      </trkpt>
      <trkpt lat="36.721734" lon="-4.616267">
        <ele>50.612</ele>
        <time>2021-06-16T20:11:02Z</time>
      </trkpt>
      <trkpt lat="36.721577" lon="-4.616458">
        <ele>50.661</ele>
        <time>2021-06-16T20:11:04Z</time>
      </trkpt>
      <trkpt lat="36.721445" lon="-4.616626">
        <ele>50.645</ele>
        <time>2021-06-16T20:11:06Z</time>
      </trkpt>
      <trkpt lat="36.721395" lon="-4.616718">
        <ele>50.645</ele>
        <time>2021-06-16T20:11:07Z</time>
      </trkpt>
      <trkpt lat="36.721338" lon="-4.616922">
        <ele>50.681</ele>
        <time>2021-06-16T20:11:09Z</time>
      </trkpt>
      <trkpt lat="36.721294" lon="-4.617008">
        <ele>50.623</ele>
        <time>2021-06-16T20:11:10Z</time>
      </trkpt>
      <trkpt lat="36.72116" lon="-4.617109">
        <ele>50.632</ele>
        <time>2021-06-16T20:11:12Z</time>
      </trkpt>
      <trkpt lat="36.721082" lon="-4.61714">
        <ele>50.666</ele>
        <time>2021-06-16T20:11:13Z</time>
      </trkpt>
      <trkpt lat="36.720933" lon="-4.617243">
        <ele>50.696</ele>
        <time>2021-06-16T20:11:15Z</time>
      </trkpt>
      <trkpt lat="36.72079" lon="-4.617421">
        <ele>50.631</ele>
        <time>2021-06-16T20:11:17Z</time>
      </trkpt>
      <trkpt lat="36.720707" lon="-4.617518">
        <ele>50.624</ele>
        <time>2021-06-16T20:11:18Z</time>
      </trkpt>
      <trkpt lat="36.720534" lon="-4.617725">
        <ele>50.608</ele>
        <time>2021-06-16T20:11:20Z</time>
      </trkpt>
      <trkpt lat="36.720449" lon="-4.617835">
        <ele>50.696</ele>
        <time>2021-06-16T20:11:21Z</time>
      </trkpt>
      <trkpt lat="36.720285" lon="-4.618058">
        <ele>50.635</ele>
        <time>2021-06-16T20:11:23Z</time>
      </trkpt>
      <trkpt lat="36.720124" lon="-4.618272">
        <ele>50.679</ele>
        <time>2021-06-16T20:11:25Z</time>
      </trkpt>
      <trkpt lat="36.719983" lon="-4.618447">
        <ele>50.639</ele>
        <time>2021-06-16T20:11:27Z</time>
      </trkpt>
      <trkpt lat="36.719831" lon="-4.61863">
        <ele>50.665</ele>
        <time>2021-06-16T20:11:29Z</time>
      </trkpt>
      <trkpt lat="36.719663" lon="-4.618837">
        <ele>50.617</ele>
        <time>2021-06-16T20:11:31Z</time>
      </trkpt>
      <trkpt lat="36.719491" lon="-4.61905">
        <ele>50.656</ele>
        <time>2021-06-16T20:11:33Z</time>
      </trkpt>
      <trkpt lat="36.719403" lon="-4.619158">
        <ele>50.630</ele>
        <time>2021-06-16T20:11:34Z</time>
      </trkpt>
      <trkpt lat="36.719235" lon="-4.619372">
        <ele>50.674</ele>
        <time>2021-06-16T20:11:36Z</time>
      </trkpt>
      <trkpt lat="36.719074" lon="-4.619584">
        <ele>51.756</ele>
        <time>2021-06-16T20:11:38Z</time>
      </trkpt>
      <trkpt lat="36.718998" lon="-4.619688">
        <ele>52.621</ele>
        <time>2021-06-16T20:11:39Z</time>
      </trkpt>
      <trkpt lat="36.718859" lon="-4.619884">
        <ele>53.708</ele>
        <time>2021-06-16T20:11:41Z</time>
      </trkpt>
      <trkpt lat="36.718745" lon="-4.620066">
        <ele>55.164</ele>
        <time>2021-06-16T20:11:43Z</time>
      </trkpt>
      <trkpt lat="36.718656" lon="-4.62024">
        <ele>55.843</ele>
        <time>2021-06-16T20:11:45Z</time>
      </trkpt>
      <trkpt lat="36.718605" lon="-4.620427">
        <ele>56.487</ele>
        <time>2021-06-16T20:11:47Z</time>
      </trkpt>
      <trkpt lat="36.718604" lon="-4.620631">
        <ele>57.347</ele>
        <time>2021-06-16T20:11:49Z</time>
      </trkpt>
      <trkpt lat="36.718591" lon="-4.620723">
        <ele>57.863</ele>
        <time>2021-06-16T20:11:50Z</time>
      </trkpt>
      <trkpt lat="36.718484" lon="-4.620842">
        <ele>58.485</ele>
        <time>2021-06-16T20:11:52Z</time>
      </trkpt>
      <trkpt lat="36.718402" lon="-4.620861">
        <ele>58.484</ele>
        <time>2021-06-16T20:11:53Z</time>
      </trkpt>
      <trkpt lat="36.718226" lon="-4.62091">
        <ele>59.168</ele>
        <time>2021-06-16T20:11:55Z</time>
      </trkpt>
      <trkpt lat="36.718079" lon="-4.621071">
        <ele>60.067</ele>
        <time>2021-06-16T20:11:57Z</time>
      </trkpt>
      <trkpt lat="36.718013" lon="-4.621169">
        <ele>60.581</ele>
        <time>2021-06-16T20:11:58Z</time>
      </trkpt>
      <trkpt lat="36.717881" lon="-4.621377">
        <ele>60.919</ele>
        <time>2021-06-16T20:12:00Z</time>
      </trkpt>
      <trkpt lat="36.717738" lon="-4.621604">
        <ele>61.708</ele>
        <time>2021-06-16T20:12:02Z</time>
      </trkpt>
      <trkpt lat="36.717594" lon="-4.621834">
        <ele>62.613</ele>
        <time>2021-06-16T20:12:04Z</time>
      </trkpt>
      <trkpt lat="36.717535" lon="-4.62194">
        <ele>63.392</ele>
        <time>2021-06-16T20:12:05Z</time>
      </trkpt>
      <trkpt lat="36.717481" lon="-4.622041">
        <ele>63.736</ele>
        <time>2021-06-16T20:12:06Z</time>
      </trkpt>
      <trkpt lat="36.717407" lon="-4.622242">
        <ele>64.826</ele>
        <time>2021-06-16T20:12:08Z</time>
      </trkpt>
      <trkpt lat="36.717383" lon="-4.62234">
        <ele>66.022</ele>
        <time>2021-06-16T20:12:09Z</time>
      </trkpt>
      <trkpt lat="36.717283" lon="-4.622477">
        <ele>67.034</ele>
        <time>2021-06-16T20:12:11Z</time>
      </trkpt>
      <trkpt lat="36.71721" lon="-4.622527">
        <ele>67.273</ele>
        <time>2021-06-16T20:12:12Z</time>
      </trkpt>
      <trkpt lat="36.717134" lon="-4.62259">
        <ele>67.477</ele>
        <time>2021-06-16T20:12:13Z</time>
      </trkpt>
      <trkpt lat="36.717002" lon="-4.62278">
        <ele>68.042</ele>
        <time>2021-06-16T20:12:15Z</time>
      </trkpt>
      <trkpt lat="36.716938" lon="-4.622889">
        <ele>68.522</ele>
        <time>2021-06-16T20:12:16Z</time>
      </trkpt>
      <trkpt lat="36.71687" lon="-4.623">
        <ele>68.814</ele>
        <time>2021-06-16T20:12:17Z</time>
      </trkpt>
      <trkpt lat="36.716727" lon="-4.623227">
        <ele>69.808</ele>
        <time>2021-06-16T20:12:19Z</time>
      </trkpt>
      <trkpt lat="36.716579" lon="-4.623465">
        <ele>70.771</ele>
        <time>2021-06-16T20:12:21Z</time>
      </trkpt>
      <trkpt lat="36.716509" lon="-4.623575">
        <ele>71.140</ele>
        <time>2021-06-16T20:12:22Z</time>
      </trkpt>
      <trkpt lat="36.716391" lon="-4.623748">
        <ele>71.754</ele>
        <time>2021-06-16T20:12:24Z</time>
      </trkpt>
      <trkpt lat="36.716338" lon="-4.623822">
        <ele>72.254</ele>
        <time>2021-06-16T20:12:25Z</time>
      </trkpt>
      <trkpt lat="36.716228" lon="-4.623993">
        <ele>72.910</ele>
        <time>2021-06-16T20:12:27Z</time>
      </trkpt>
      <trkpt lat="36.716108" lon="-4.624192">
        <ele>73.522</ele>
        <time>2021-06-16T20:12:29Z</time>
      </trkpt>
      <trkpt lat="36.716039" lon="-4.6243">
        <ele>74.121</ele>
        <time>2021-06-16T20:12:30Z</time>
      </trkpt>
      <trkpt lat="36.715892" lon="-4.624527">
        <ele>74.765</ele>
        <time>2021-06-16T20:12:32Z</time>
      </trkpt>
      <trkpt lat="36.715816" lon="-4.624644">
        <ele>75.167</ele>
        <time>2021-06-16T20:12:33Z</time>
      </trkpt>
      <trkpt lat="36.715658" lon="-4.624882">
        <ele>76.281</ele>
        <time>2021-06-16T20:12:35Z</time>
      </trkpt>
      <trkpt lat="36.715499" lon="-4.625127">
        <ele>77.619</ele>
        <time>2021-06-16T20:12:37Z</time>
      </trkpt>
      <trkpt lat="36.715421" lon="-4.625248">
        <ele>78.508</ele>
        <time>2021-06-16T20:12:38Z</time>
      </trkpt>
      <trkpt lat="36.715343" lon="-4.625368">
        <ele>79.483</ele>
        <time>2021-06-16T20:12:39Z</time>
      </trkpt>
      <trkpt lat="36.715264" lon="-4.625489">
        <ele>80.422</ele>
        <time>2021-06-16T20:12:40Z</time>
      </trkpt>
      <trkpt lat="36.715185" lon="-4.625611">
        <ele>81.396</ele>
        <time>2021-06-16T20:12:41Z</time>
      </trkpt>
      <trkpt lat="36.715029" lon="-4.625848">
        <ele>82.646</ele>
        <time>2021-06-16T20:12:43Z</time>
      </trkpt>
      <trkpt lat="36.714954" lon="-4.625956">
        <ele>84.012</ele>
        <time>2021-06-16T20:12:44Z</time>
      </trkpt>
      <trkpt lat="36.714886" lon="-4.626056">
        <ele>85.254</ele>
        <time>2021-06-16T20:12:45Z</time>
      </trkpt>
      <trkpt lat="36.714769" lon="-4.626233">
        <ele>86.563</ele>
        <time>2021-06-16T20:12:47Z</time>
      </trkpt>
      <trkpt lat="36.714718" lon="-4.626314">
        <ele>87.537</ele>
        <time>2021-06-16T20:12:48Z</time>
      </trkpt>
      <trkpt lat="36.714674" lon="-4.626397">
        <ele>88.468</ele>
        <time>2021-06-16T20:12:49Z</time>
      </trkpt>
      <trkpt lat="36.714624" lon="-4.626576">
        <ele>89.542</ele>
        <time>2021-06-16T20:12:51Z</time>
      </trkpt>
      <trkpt lat="36.714614" lon="-4.626673">
        <ele>89.926</ele>
        <time>2021-06-16T20:12:52Z</time>
      </trkpt>
      <trkpt lat="36.714589" lon="-4.626757">
        <ele>90.308</ele>
        <time>2021-06-16T20:12:53Z</time>
      </trkpt>
      <trkpt lat="36.714539" lon="-4.626825">
        <ele>90.573</ele>
        <time>2021-06-16T20:12:54Z</time>
      </trkpt>
      <trkpt lat="36.714394" lon="-4.626922">
        <ele>90.642</ele>
        <time>2021-06-16T20:12:56Z</time>
      </trkpt>
      <trkpt lat="36.714319" lon="-4.626994">
        <ele>90.886</ele>
        <time>2021-06-16T20:12:57Z</time>
      </trkpt>
      <trkpt lat="36.714168" lon="-4.627167">
        <ele>91.516</ele>
        <time>2021-06-16T20:12:59Z</time>
      </trkpt>
      <trkpt lat="36.714083" lon="-4.627245">
        <ele>91.992</ele>
        <time>2021-06-16T20:13:00Z</time>
      </trkpt>
      <trkpt lat="36.713897" lon="-4.627388">
        <ele>92.644</ele>
        <time>2021-06-16T20:13:02Z</time>
      </trkpt>
      <trkpt lat="36.713796" lon="-4.627455">
        <ele>93.413</ele>
        <time>2021-06-16T20:13:03Z</time>
      </trkpt>
      <trkpt lat="36.713593" lon="-4.627584">
        <ele>93.757</ele>
        <time>2021-06-16T20:13:05Z</time>
      </trkpt>
      <trkpt lat="36.7135" lon="-4.627656">
        <ele>94.214</ele>
        <time>2021-06-16T20:13:06Z</time>
      </trkpt>
      <trkpt lat="36.713419" lon="-4.627736">
        <ele>94.454</ele>
        <time>2021-06-16T20:13:07Z</time>
      </trkpt>
      <trkpt lat="36.713298" lon="-4.627908">
        <ele>94.009</ele>
        <time>2021-06-16T20:13:09Z</time>
      </trkpt>
      <trkpt lat="36.713253" lon="-4.627997">
        <ele>93.508</ele>
        <time>2021-06-16T20:13:10Z</time>
      </trkpt>
      <trkpt lat="36.713221" lon="-4.628084">
        <ele>93.628</ele>
        <time>2021-06-16T20:13:11Z</time>
      </trkpt>
      <trkpt lat="36.713191" lon="-4.628274">
        <ele>94.087</ele>
        <time>2021-06-16T20:13:13Z</time>
      </trkpt>
      <trkpt lat="36.713209" lon="-4.628382">
        <ele>94.041</ele>
        <time>2021-06-16T20:13:14Z</time>
      </trkpt>
      <trkpt lat="36.713237" lon="-4.628498">
        <ele>94.071</ele>
        <time>2021-06-16T20:13:15Z</time>
      </trkpt>
      <trkpt lat="36.713297" lon="-4.628751">
        <ele>94.297</ele>
        <time>2021-06-16T20:13:17Z</time>
      </trkpt>
      <trkpt lat="36.713327" lon="-4.628887">
        <ele>94.189</ele>
        <time>2021-06-16T20:13:18Z</time>
      </trkpt>
      <trkpt lat="36.713393" lon="-4.629149">
        <ele>94.838</ele>
        <time>2021-06-16T20:13:20Z</time>
      </trkpt>
      <trkpt lat="36.713423" lon="-4.62941">
        <ele>95.392</ele>
        <time>2021-06-16T20:13:22Z</time>
      </trkpt>
      <trkpt lat="36.713407" lon="-4.629538">
        <ele>95.141</ele>
        <time>2021-06-16T20:13:23Z</time>
      </trkpt>
      <trkpt lat="36.713314" lon="-4.629773">
        <ele>95.181</ele>
        <time>2021-06-16T20:13:25Z</time>
      </trkpt>
      <trkpt lat="36.713175" lon="-4.629937">
        <ele>95.009</ele>
        <time>2021-06-16T20:13:27Z</time>
      </trkpt>
      <trkpt lat="36.713071" lon="-4.630053">
        <ele>95.008</ele>
        <time>2021-06-16T20:13:29Z</time>
      </trkpt>
      <trkpt lat="36.713003" lon="-4.630179">
        <ele>95.251</ele>
        <time>2021-06-16T20:13:31Z</time>
      </trkpt>
      <trkpt lat="36.712958" lon="-4.630357">
        <ele>95.290</ele>
        <time>2021-06-16T20:13:33Z</time>
      </trkpt>
      <trkpt lat="36.71292" lon="-4.630577">
        <ele>96.044</ele>
        <time>2021-06-16T20:13:35Z</time>
      </trkpt>
      <trkpt lat="36.712903" lon="-4.630698">
        <ele>96.364</ele>
        <time>2021-06-16T20:13:36Z</time>
      </trkpt>
      <trkpt lat="36.712858" lon="-4.630954">
        <ele>96.750</ele>
        <time>2021-06-16T20:13:38Z</time>
      </trkpt>
      <trkpt lat="36.71283" lon="-4.631082">
        <ele>97.192</ele>
        <time>2021-06-16T20:13:39Z</time>
      </trkpt>
      <trkpt lat="36.712746" lon="-4.631312">
        <ele>97.261</ele>
        <time>2021-06-16T20:13:41Z</time>
      </trkpt>
      <trkpt lat="36.712681" lon="-4.631405">
        <ele>97.685</ele>
        <time>2021-06-16T20:13:42Z</time>
      </trkpt>
      <trkpt lat="36.712605" lon="-4.631479">
        <ele>98.019</ele>
        <time>2021-06-16T20:13:43Z</time>
      </trkpt>
      <trkpt lat="36.712534" lon="-4.631537">
        <ele>98.209</ele>
        <time>2021-06-16T20:13:44Z</time>
      </trkpt>
      <trkpt lat="36.712423" lon="-4.631614">
        <ele>97.919</ele>
        <time>2021-06-16T20:13:46Z</time>
      </trkpt>
      <trkpt lat="36.712357" lon="-4.631657">
        <ele>97.208</ele>
        <time>2021-06-16T20:13:48Z</time>
      </trkpt>
      <trkpt lat="36.712308" lon="-4.631661">
        <ele>96.338</ele>
        <time>2021-06-16T20:13:57Z</time>
      </trkpt>
      <trkpt lat="36.71225" lon="-4.631697">
        <ele>95.847</ele>
        <time>2021-06-16T20:14:03Z</time>
      </trkpt>
      <trkpt lat="36.712186" lon="-4.631782">
        <ele>95.551</ele>
        <time>2021-06-16T20:14:05Z</time>
      </trkpt>
      <trkpt lat="36.712116" lon="-4.631936">
        <ele>95.361</ele>
        <time>2021-06-16T20:14:07Z</time>
      </trkpt>
      <trkpt lat="36.712087" lon="-4.63204">
        <ele>95.257</ele>
        <time>2021-06-16T20:14:08Z</time>
      </trkpt>
      <trkpt lat="36.712063" lon="-4.632163">
        <ele>95.149</ele>
        <time>2021-06-16T20:14:09Z</time>
      </trkpt>
      <trkpt lat="36.712043" lon="-4.632296">
        <ele>95.068</ele>
        <time>2021-06-16T20:14:10Z</time>
      </trkpt>
      <trkpt lat="36.712024" lon="-4.632427">
        <ele>95.012</ele>
        <time>2021-06-16T20:14:11Z</time>
      </trkpt>
      <trkpt lat="36.711986" lon="-4.632689">
        <ele>95.022</ele>
        <time>2021-06-16T20:14:13Z</time>
      </trkpt>
      <trkpt lat="36.711926" lon="-4.632935">
        <ele>95.062</ele>
        <time>2021-06-16T20:14:15Z</time>
      </trkpt>
      <trkpt lat="36.711879" lon="-4.633039">
        <ele>95.008</ele>
        <time>2021-06-16T20:14:16Z</time>
      </trkpt>
      <trkpt lat="36.711819" lon="-4.633133">
        <ele>95.008</ele>
        <time>2021-06-16T20:14:17Z</time>
      </trkpt>
      <trkpt lat="36.711702" lon="-4.633313">
        <ele>95.089</ele>
        <time>2021-06-16T20:14:19Z</time>
      </trkpt>
      <trkpt lat="36.711615" lon="-4.633484">
        <ele>95.078</ele>
        <time>2021-06-16T20:14:21Z</time>
      </trkpt>
      <trkpt lat="36.711579" lon="-4.633579">
        <ele>95.032</ele>
        <time>2021-06-16T20:14:22Z</time>
      </trkpt>
      <trkpt lat="36.711528" lon="-4.63381">
        <ele>95.052</ele>
        <time>2021-06-16T20:14:24Z</time>
      </trkpt>
      <trkpt lat="36.711491" lon="-4.634101">
        <ele>95.018</ele>
        <time>2021-06-16T20:14:26Z</time>
      </trkpt>
      <trkpt lat="36.711476" lon="-4.634255">
        <ele>95.020</ele>
        <time>2021-06-16T20:14:27Z</time>
      </trkpt>
      <trkpt lat="36.711447" lon="-4.634582">
        <ele>95.089</ele>
        <time>2021-06-16T20:14:29Z</time>
      </trkpt>
      <trkpt lat="36.711436" lon="-4.634754">
        <ele>95.033</ele>
        <time>2021-06-16T20:14:30Z</time>
      </trkpt>
      <trkpt lat="36.71143" lon="-4.635083">
        <ele>95.052</ele>
        <time>2021-06-16T20:14:32Z</time>
      </trkpt>
      <trkpt lat="36.711433" lon="-4.635242">
        <ele>95.053</ele>
        <time>2021-06-16T20:14:33Z</time>
      </trkpt>
      <trkpt lat="36.711468" lon="-4.635572">
        <ele>95.008</ele>
        <time>2021-06-16T20:14:35Z</time>
      </trkpt>
      <trkpt lat="36.71157" lon="-4.635903">
        <ele>95.008</ele>
        <time>2021-06-16T20:14:37Z</time>
      </trkpt>
      <trkpt lat="36.711716" lon="-4.636189">
        <ele>95.042</ele>
        <time>2021-06-16T20:14:39Z</time>
      </trkpt>
      <trkpt lat="36.711789" lon="-4.636323">
        <ele>95.031</ele>
        <time>2021-06-16T20:14:40Z</time>
      </trkpt>
      <trkpt lat="36.71191" lon="-4.6366">
        <ele>95.025</ele>
        <time>2021-06-16T20:14:42Z</time>
      </trkpt>
      <trkpt lat="36.711955" lon="-4.63675">
        <ele>95.065</ele>
        <time>2021-06-16T20:14:43Z</time>
      </trkpt>
      <trkpt lat="36.711992" lon="-4.636916">
        <ele>95.071</ele>
        <time>2021-06-16T20:14:44Z</time>
      </trkpt>
      <trkpt lat="36.712071" lon="-4.637271">
        <ele>95.063</ele>
        <time>2021-06-16T20:14:46Z</time>
      </trkpt>
      <trkpt lat="36.712163" lon="-4.637643">
        <ele>95.052</ele>
        <time>2021-06-16T20:14:48Z</time>
      </trkpt>
      <trkpt lat="36.712213" lon="-4.63783">
        <ele>95.026</ele>
        <time>2021-06-16T20:14:49Z</time>
      </trkpt>
      <trkpt lat="36.712261" lon="-4.638018">
        <ele>95.085</ele>
        <time>2021-06-16T20:14:50Z</time>
      </trkpt>
      <trkpt lat="36.712349" lon="-4.63839">
        <ele>95.089</ele>
        <time>2021-06-16T20:14:52Z</time>
      </trkpt>
      <trkpt lat="36.712398" lon="-4.63875">
        <ele>95.017</ele>
        <time>2021-06-16T20:14:54Z</time>
      </trkpt>
      <trkpt lat="36.71239" lon="-4.638937">
        <ele>95.008</ele>
        <time>2021-06-16T20:14:55Z</time>
      </trkpt>
      <trkpt lat="36.712325" lon="-4.639327">
        <ele>95.095</ele>
        <time>2021-06-16T20:14:57Z</time>
      </trkpt>
      <trkpt lat="36.712283" lon="-4.639528">
        <ele>95.084</ele>
        <time>2021-06-16T20:14:58Z</time>
      </trkpt>
      <trkpt lat="36.712203" lon="-4.639928">
        <ele>91.098</ele>
        <time>2021-06-16T20:15:00Z</time>
      </trkpt>
      <trkpt lat="36.712165" lon="-4.640119">
        <ele>87.028</ele>
        <time>2021-06-16T20:15:01Z</time>
      </trkpt>
      <trkpt lat="36.712095" lon="-4.640473">
        <ele>83.024</ele>
        <time>2021-06-16T20:15:03Z</time>
      </trkpt>
      <trkpt lat="36.712032" lon="-4.6408">
        <ele>79.066</ele>
        <time>2021-06-16T20:15:05Z</time>
      </trkpt>
      <trkpt lat="36.712002" lon="-4.641118">
        <ele>75.015</ele>
        <time>2021-06-16T20:15:07Z</time>
      </trkpt>
      <trkpt lat="36.712009" lon="-4.641282">
        <ele>71.089</ele>
        <time>2021-06-16T20:15:08Z</time>
      </trkpt>
      <trkpt lat="36.712054" lon="-4.641593">
        <ele>68.421</ele>
        <time>2021-06-16T20:15:10Z</time>
      </trkpt>
      <trkpt lat="36.712092" lon="-4.641733">
        <ele>66.241</ele>
        <time>2021-06-16T20:15:11Z</time>
      </trkpt>
      <trkpt lat="36.712134" lon="-4.641865">
        <ele>64.705</ele>
        <time>2021-06-16T20:15:12Z</time>
      </trkpt>
      <trkpt lat="36.712181" lon="-4.641984">
        <ele>63.608</ele>
        <time>2021-06-16T20:15:13Z</time>
      </trkpt>
      <trkpt lat="36.712232" lon="-4.642091">
        <ele>62.899</ele>
        <time>2021-06-16T20:15:14Z</time>
      </trkpt>
      <trkpt lat="36.712287" lon="-4.642185">
        <ele>62.228</ele>
        <time>2021-06-16T20:15:15Z</time>
      </trkpt>
      <trkpt lat="36.71238" lon="-4.642356">
        <ele>61.552</ele>
        <time>2021-06-16T20:15:17Z</time>
      </trkpt>
      <trkpt lat="36.712384" lon="-4.642448">
        <ele>61.372</ele>
        <time>2021-06-16T20:15:18Z</time>
      </trkpt>
      <trkpt lat="36.712286" lon="-4.642577">
        <ele>61.548</ele>
        <time>2021-06-16T20:15:20Z</time>
      </trkpt>
      <trkpt lat="36.712109" lon="-4.642635">
        <ele>61.360</ele>
        <time>2021-06-16T20:15:22Z</time>
      </trkpt>
      <trkpt lat="36.711935" lon="-4.642782">
        <ele>61.089</ele>
        <time>2021-06-16T20:15:24Z</time>
      </trkpt>
      <trkpt lat="36.711854" lon="-4.642891">
        <ele>60.893</ele>
        <time>2021-06-16T20:15:25Z</time>
      </trkpt>
      <trkpt lat="36.711767" lon="-4.643006">
        <ele>60.543</ele>
        <time>2021-06-16T20:15:26Z</time>
      </trkpt>
      <trkpt lat="36.711568" lon="-4.64326">
        <ele>59.664</ele>
        <time>2021-06-16T20:15:28Z</time>
      </trkpt>
      <trkpt lat="36.711353" lon="-4.643541">
        <ele>58.510</ele>
        <time>2021-06-16T20:15:30Z</time>
      </trkpt>
      <trkpt lat="36.711243" lon="-4.64369">
        <ele>57.608</ele>
        <time>2021-06-16T20:15:31Z</time>
      </trkpt>
      <trkpt lat="36.711026" lon="-4.64399">
        <ele>57.111</ele>
        <time>2021-06-16T20:15:33Z</time>
      </trkpt>
      <trkpt lat="36.710817" lon="-4.64427">
        <ele>56.810</ele>
        <time>2021-06-16T20:15:35Z</time>
      </trkpt>
      <trkpt lat="36.710719" lon="-4.644406">
        <ele>56.574</ele>
        <time>2021-06-16T20:15:36Z</time>
      </trkpt>
      <trkpt lat="36.710625" lon="-4.64454">
        <ele>56.494</ele>
        <time>2021-06-16T20:15:37Z</time>
      </trkpt>
      <trkpt lat="36.710431" lon="-4.644812">
        <ele>56.070</ele>
        <time>2021-06-16T20:15:39Z</time>
      </trkpt>
      <trkpt lat="36.71033" lon="-4.644946">
        <ele>56.162</ele>
        <time>2021-06-16T20:15:40Z</time>
      </trkpt>
      <trkpt lat="36.71015" lon="-4.645212">
        <ele>56.351</ele>
        <time>2021-06-16T20:15:42Z</time>
      </trkpt>
      <trkpt lat="36.71003" lon="-4.645409">
        <ele>56.675</ele>
        <time>2021-06-16T20:15:44Z</time>
      </trkpt>
      <trkpt lat="36.709997" lon="-4.645469">
        <ele>56.858</ele>
        <time>2021-06-16T20:15:45Z</time>
      </trkpt>
      <trkpt lat="36.709975" lon="-4.645524">
        <ele>56.352</ele>
        <time>2021-06-16T20:15:48Z</time>
      </trkpt>
      <trkpt lat="36.70994" lon="-4.645582">
        <ele>55.817</ele>
        <time>2021-06-16T20:15:49Z</time>
      </trkpt>
      <trkpt lat="36.709895" lon="-4.645662">
        <ele>55.808</ele>
        <time>2021-06-16T20:15:50Z</time>
      </trkpt>
      <trkpt lat="36.709792" lon="-4.645857">
        <ele>55.772</ele>
        <time>2021-06-16T20:15:52Z</time>
      </trkpt>
      <trkpt lat="36.709735" lon="-4.64597">
        <ele>55.721</ele>
        <time>2021-06-16T20:15:53Z</time>
      </trkpt>
      <trkpt lat="36.709676" lon="-4.646092">
        <ele>56.235</ele>
        <time>2021-06-16T20:15:54Z</time>
      </trkpt>
      <trkpt lat="36.709558" lon="-4.646348">
        <ele>56.565</ele>
        <time>2021-06-16T20:15:56Z</time>
      </trkpt>
      <trkpt lat="36.709422" lon="-4.646619">
        <ele>57.381</ele>
        <time>2021-06-16T20:15:58Z</time>
      </trkpt>
      <trkpt lat="36.709354" lon="-4.646762">
        <ele>58.243</ele>
        <time>2021-06-16T20:15:59Z</time>
      </trkpt>
      <trkpt lat="36.709223" lon="-4.647062">
        <ele>59.112</ele>
        <time>2021-06-16T20:16:01Z</time>
      </trkpt>
      <trkpt lat="36.709097" lon="-4.647378">
        <ele>59.736</ele>
        <time>2021-06-16T20:16:03Z</time>
      </trkpt>
      <trkpt lat="36.709037" lon="-4.647537">
        <ele>60.624</ele>
        <time>2021-06-16T20:16:04Z</time>
      </trkpt>
      <trkpt lat="36.708924" lon="-4.647858">
        <ele>61.804</ele>
        <time>2021-06-16T20:16:06Z</time>
      </trkpt>
      <trkpt lat="36.708822" lon="-4.648178">
        <ele>62.314</ele>
        <time>2021-06-16T20:16:08Z</time>
      </trkpt>
      <trkpt lat="36.708729" lon="-4.648514">
        <ele>62.608</ele>
        <time>2021-06-16T20:16:10Z</time>
      </trkpt>
      <trkpt lat="36.708676" lon="-4.648681">
        <ele>63.019</ele>
        <time>2021-06-16T20:16:11Z</time>
      </trkpt>
      <trkpt lat="36.708564" lon="-4.649004">
        <ele>63.428</ele>
        <time>2021-06-16T20:16:13Z</time>
      </trkpt>
      <trkpt lat="36.708461" lon="-4.64933">
        <ele>63.422</ele>
        <time>2021-06-16T20:16:15Z</time>
      </trkpt>
      <trkpt lat="36.70841" lon="-4.649496">
        <ele>63.242</ele>
        <time>2021-06-16T20:16:16Z</time>
      </trkpt>
      <trkpt lat="36.708358" lon="-4.649661">
        <ele>63.288</ele>
        <time>2021-06-16T20:16:17Z</time>
      </trkpt>
      <trkpt lat="36.708235" lon="-4.649985">
        <ele>63.670</ele>
        <time>2021-06-16T20:16:19Z</time>
      </trkpt>
      <trkpt lat="36.708157" lon="-4.650139">
        <ele>63.629</ele>
        <time>2021-06-16T20:16:20Z</time>
      </trkpt>
      <trkpt lat="36.708067" lon="-4.650285">
        <ele>63.653</ele>
        <time>2021-06-16T20:16:21Z</time>
      </trkpt>
      <trkpt lat="36.707965" lon="-4.650426">
        <ele>63.744</ele>
        <time>2021-06-16T20:16:22Z</time>
      </trkpt>
      <trkpt lat="36.707744" lon="-4.650703">
        <ele>63.605</ele>
        <time>2021-06-16T20:16:24Z</time>
      </trkpt>
      <trkpt lat="36.707518" lon="-4.650975">
        <ele>64.115</ele>
        <time>2021-06-16T20:16:26Z</time>
      </trkpt>
      <trkpt lat="36.707403" lon="-4.651108">
        <ele>64.708</ele>
        <time>2021-06-16T20:16:27Z</time>
      </trkpt>
      <trkpt lat="36.707286" lon="-4.651238">
        <ele>65.271</ele>
        <time>2021-06-16T20:16:28Z</time>
      </trkpt>
      <trkpt lat="36.707047" lon="-4.651487">
        <ele>65.760</ele>
        <time>2021-06-16T20:16:30Z</time>
      </trkpt>
      <trkpt lat="36.706923" lon="-4.651605">
        <ele>66.014</ele>
        <time>2021-06-16T20:16:31Z</time>
      </trkpt>
      <trkpt lat="36.706668" lon="-4.651833">
        <ele>66.274</ele>
        <time>2021-06-16T20:16:33Z</time>
      </trkpt>
      <trkpt lat="36.706542" lon="-4.651946">
        <ele>66.320</ele>
        <time>2021-06-16T20:16:34Z</time>
      </trkpt>
      <trkpt lat="36.706417" lon="-4.652058">
        <ele>66.292</ele>
        <time>2021-06-16T20:16:35Z</time>
      </trkpt>
      <trkpt lat="36.706167" lon="-4.652281">
        <ele>66.391</ele>
        <time>2021-06-16T20:16:37Z</time>
      </trkpt>
      <trkpt lat="36.706043" lon="-4.652395">
        <ele>66.435</ele>
        <time>2021-06-16T20:16:38Z</time>
      </trkpt>
      <trkpt lat="36.705799" lon="-4.65263">
        <ele>66.874</ele>
        <time>2021-06-16T20:16:40Z</time>
      </trkpt>
      <trkpt lat="36.705554" lon="-4.652857">
        <ele>66.956</ele>
        <time>2021-06-16T20:16:42Z</time>
      </trkpt>
      <trkpt lat="36.705431" lon="-4.652968">
        <ele>67.021</ele>
        <time>2021-06-16T20:16:43Z</time>
      </trkpt>
      <trkpt lat="36.705311" lon="-4.653073">
        <ele>67.108</ele>
        <time>2021-06-16T20:16:44Z</time>
      </trkpt>
      <trkpt lat="36.705092" lon="-4.653265">
        <ele>67.454</ele>
        <time>2021-06-16T20:16:46Z</time>
      </trkpt>
      <trkpt lat="36.704993" lon="-4.653364">
        <ele>67.343</ele>
        <time>2021-06-16T20:16:47Z</time>
      </trkpt>
      <trkpt lat="36.704908" lon="-4.653474">
        <ele>67.377</ele>
        <time>2021-06-16T20:16:48Z</time>
      </trkpt>
      <trkpt lat="36.704802" lon="-4.653758">
        <ele>66.787</ele>
        <time>2021-06-16T20:16:50Z</time>
      </trkpt>
      <trkpt lat="36.704787" lon="-4.653922">
        <ele>66.693</ele>
        <time>2021-06-16T20:16:51Z</time>
      </trkpt>
      <trkpt lat="36.704799" lon="-4.654273">
        <ele>67.025</ele>
        <time>2021-06-16T20:16:53Z</time>
      </trkpt>
      <trkpt lat="36.704826" lon="-4.654634">
        <ele>67.254</ele>
        <time>2021-06-16T20:16:55Z</time>
      </trkpt>
      <trkpt lat="36.70484" lon="-4.65482">
        <ele>67.418</ele>
        <time>2021-06-16T20:16:56Z</time>
      </trkpt>
      <trkpt lat="36.70485" lon="-4.655008">
        <ele>67.583</ele>
        <time>2021-06-16T20:16:57Z</time>
      </trkpt>
      <trkpt lat="36.704856" lon="-4.655198">
        <ele>68.325</ele>
        <time>2021-06-16T20:16:58Z</time>
      </trkpt>
      <trkpt lat="36.704863" lon="-4.655386">
        <ele>68.817</ele>
        <time>2021-06-16T20:16:59Z</time>
      </trkpt>
      <trkpt lat="36.704877" lon="-4.655565">
        <ele>69.108</ele>
        <time>2021-06-16T20:17:00Z</time>
      </trkpt>
      <trkpt lat="36.704917" lon="-4.655925">
        <ele>70.015</ele>
        <time>2021-06-16T20:17:02Z</time>
      </trkpt>
      <trkpt lat="36.704955" lon="-4.656102">
        <ele>70.914</ele>
        <time>2021-06-16T20:17:03Z</time>
      </trkpt>
      <trkpt lat="36.70506" lon="-4.656455">
        <ele>72.058</ele>
        <time>2021-06-16T20:17:05Z</time>
      </trkpt>
      <trkpt lat="36.705173" lon="-4.656812">
        <ele>73.058</ele>
        <time>2021-06-16T20:17:07Z</time>
      </trkpt>
      <trkpt lat="36.705223" lon="-4.656992">
        <ele>73.754</ele>
        <time>2021-06-16T20:17:08Z</time>
      </trkpt>
      <trkpt lat="36.705271" lon="-4.657171">
        <ele>74.316</ele>
        <time>2021-06-16T20:17:09Z</time>
      </trkpt>
      <trkpt lat="36.705339" lon="-4.657544">
        <ele>74.975</ele>
        <time>2021-06-16T20:17:11Z</time>
      </trkpt>
      <trkpt lat="36.705346" lon="-4.657738">
        <ele>75.419</ele>
        <time>2021-06-16T20:17:12Z</time>
      </trkpt>
      <trkpt lat="36.705314" lon="-4.658127">
        <ele>75.887</ele>
        <time>2021-06-16T20:17:14Z</time>
      </trkpt>
      <trkpt lat="36.705286" lon="-4.658319">
        <ele>76.242</ele>
        <time>2021-06-16T20:17:15Z</time>
      </trkpt>
      <trkpt lat="36.705258" lon="-4.658509">
        <ele>76.726</ele>
        <time>2021-06-16T20:17:16Z</time>
      </trkpt>
      <trkpt lat="36.705167" lon="-4.658883">
        <ele>77.408</ele>
        <time>2021-06-16T20:17:18Z</time>
      </trkpt>
      <trkpt lat="36.70502" lon="-4.65923">
        <ele>78.035</ele>
        <time>2021-06-16T20:17:20Z</time>
      </trkpt>
      <trkpt lat="36.704855" lon="-4.659567">
        <ele>79.114</ele>
        <time>2021-06-16T20:17:22Z</time>
      </trkpt>
      <trkpt lat="36.70478" lon="-4.65973">
        <ele>79.868</ele>
        <time>2021-06-16T20:17:23Z</time>
      </trkpt>
      <trkpt lat="36.704656" lon="-4.660073">
        <ele>80.688</ele>
        <time>2021-06-16T20:17:25Z</time>
      </trkpt>
      <trkpt lat="36.704603" lon="-4.660253">
        <ele>81.034</ele>
        <time>2021-06-16T20:17:26Z</time>
      </trkpt>
      <trkpt lat="36.704508" lon="-4.660624">
        <ele>81.276</ele>
        <time>2021-06-16T20:17:28Z</time>
      </trkpt>
      <trkpt lat="36.704461" lon="-4.66081">
        <ele>81.595</ele>
        <time>2021-06-16T20:17:29Z</time>
      </trkpt>
      <trkpt lat="36.704365" lon="-4.661173">
        <ele>81.619</ele>
        <time>2021-06-16T20:17:31Z</time>
      </trkpt>
      <trkpt lat="36.704272" lon="-4.661532">
        <ele>81.975</ele>
        <time>2021-06-16T20:17:33Z</time>
      </trkpt>
      <trkpt lat="36.704171" lon="-4.66187">
        <ele>82.228</ele>
        <time>2021-06-16T20:17:35Z</time>
      </trkpt>
      <trkpt lat="36.704006" lon="-4.662145">
        <ele>82.220</ele>
        <time>2021-06-16T20:17:37Z</time>
      </trkpt>
      <trkpt lat="36.703752" lon="-4.662333">
        <ele>82.208</ele>
        <time>2021-06-16T20:17:39Z</time>
      </trkpt>
      <trkpt lat="36.703609" lon="-4.662395">
        <ele>82.334</ele>
        <time>2021-06-16T20:17:40Z</time>
      </trkpt>
      <trkpt lat="36.70347" lon="-4.662452">
        <ele>82.333</ele>
        <time>2021-06-16T20:17:41Z</time>
      </trkpt>
      <trkpt lat="36.703202" lon="-4.662596">
        <ele>82.377</ele>
        <time>2021-06-16T20:17:43Z</time>
      </trkpt>
      <trkpt lat="36.703078" lon="-4.662699">
        <ele>81.817</ele>
        <time>2021-06-16T20:17:44Z</time>
      </trkpt>
      <trkpt lat="36.702968" lon="-4.662825">
        <ele>81.843</ele>
        <time>2021-06-16T20:17:45Z</time>
      </trkpt>
      <trkpt lat="36.70279" lon="-4.663137">
        <ele>82.185</ele>
        <time>2021-06-16T20:17:47Z</time>
      </trkpt>
      <trkpt lat="36.702711" lon="-4.663301">
        <ele>82.864</ele>
        <time>2021-06-16T20:17:48Z</time>
      </trkpt>
      <trkpt lat="36.702556" lon="-4.663625">
        <ele>84.168</ele>
        <time>2021-06-16T20:17:50Z</time>
      </trkpt>
      <trkpt lat="36.702479" lon="-4.663784">
        <ele>85.242</ele>
        <time>2021-06-16T20:17:51Z</time>
      </trkpt>
      <trkpt lat="36.702325" lon="-4.664092">
        <ele>86.322</ele>
        <time>2021-06-16T20:17:53Z</time>
      </trkpt>
      <trkpt lat="36.702169" lon="-4.664393">
        <ele>87.114</ele>
        <time>2021-06-16T20:17:55Z</time>
      </trkpt>
      <trkpt lat="36.702014" lon="-4.664681">
        <ele>87.908</ele>
        <time>2021-06-16T20:17:57Z</time>
      </trkpt>
      <trkpt lat="36.701876" lon="-4.664972">
        <ele>87.771</ele>
        <time>2021-06-16T20:17:59Z</time>
      </trkpt>
      <trkpt lat="36.701806" lon="-4.665272">
        <ele>87.010</ele>
        <time>2021-06-16T20:18:01Z</time>
      </trkpt>
      <trkpt lat="36.701829" lon="-4.665584">
        <ele>86.054</ele>
        <time>2021-06-16T20:18:03Z</time>
      </trkpt>
      <trkpt lat="36.701858" lon="-4.665746">
        <ele>85.124</ele>
        <time>2021-06-16T20:18:04Z</time>
      </trkpt>
      <trkpt lat="36.701886" lon="-4.665909">
        <ele>84.840</ele>
        <time>2021-06-16T20:18:05Z</time>
      </trkpt>
      <trkpt lat="36.70193" lon="-4.666233">
        <ele>84.322</ele>
        <time>2021-06-16T20:18:07Z</time>
      </trkpt>
      <trkpt lat="36.701936" lon="-4.666405">
        <ele>83.381</ele>
        <time>2021-06-16T20:18:08Z</time>
      </trkpt>
      <trkpt lat="36.701924" lon="-4.666582">
        <ele>82.245</ele>
        <time>2021-06-16T20:18:09Z</time>
      </trkpt>
      <trkpt lat="36.701852" lon="-4.666941">
        <ele>81.083</ele>
        <time>2021-06-16T20:18:11Z</time>
      </trkpt>
      <trkpt lat="36.701731" lon="-4.667292">
        <ele>79.425</ele>
        <time>2021-06-16T20:18:13Z</time>
      </trkpt>
      <trkpt lat="36.701595" lon="-4.667643">
        <ele>78.217</ele>
        <time>2021-06-16T20:18:15Z</time>
      </trkpt>
      <trkpt lat="36.701527" lon="-4.667818">
        <ele>77.108</ele>
        <time>2021-06-16T20:18:16Z</time>
      </trkpt>
      <trkpt lat="36.701403" lon="-4.668165">
        <ele>76.495</ele>
        <time>2021-06-16T20:18:18Z</time>
      </trkpt>
      <trkpt lat="36.701345" lon="-4.66833">
        <ele>76.724</ele>
        <time>2021-06-16T20:18:19Z</time>
      </trkpt>
      <trkpt lat="36.701245" lon="-4.66865">
        <ele>77.238</ele>
        <time>2021-06-16T20:18:21Z</time>
      </trkpt>
      <trkpt lat="36.70121" lon="-4.668816">
        <ele>77.728</ele>
        <time>2021-06-16T20:18:22Z</time>
      </trkpt>
      <trkpt lat="36.70119" lon="-4.669166">
        <ele>78.584</ele>
        <time>2021-06-16T20:18:24Z</time>
      </trkpt>
      <trkpt lat="36.70119" lon="-4.669536">
        <ele>78.946</ele>
        <time>2021-06-16T20:18:26Z</time>
      </trkpt>
      <trkpt lat="36.701193" lon="-4.669721">
        <ele>79.765</ele>
        <time>2021-06-16T20:18:27Z</time>
      </trkpt>
      <trkpt lat="36.701196" lon="-4.670106">
        <ele>80.099</ele>
        <time>2021-06-16T20:18:29Z</time>
      </trkpt>
      <trkpt lat="36.701201" lon="-4.670498">
        <ele>79.019</ele>
        <time>2021-06-16T20:18:31Z</time>
      </trkpt>
      <trkpt lat="36.701205" lon="-4.670899">
        <ele>76.509</ele>
        <time>2021-06-16T20:18:33Z</time>
      </trkpt>
      <trkpt lat="36.701168" lon="-4.671297">
        <ele>74.119</ele>
        <time>2021-06-16T20:18:35Z</time>
      </trkpt>
      <trkpt lat="36.701117" lon="-4.671482">
        <ele>72.208</ele>
        <time>2021-06-16T20:18:36Z</time>
      </trkpt>
      <trkpt lat="36.701044" lon="-4.671652">
        <ele>71.098</ele>
        <time>2021-06-16T20:18:37Z</time>
      </trkpt>
      <trkpt lat="36.70087" lon="-4.671955">
        <ele>70.057</ele>
        <time>2021-06-16T20:18:39Z</time>
      </trkpt>
      <trkpt lat="36.700776" lon="-4.672092">
        <ele>69.511</ele>
        <time>2021-06-16T20:18:40Z</time>
      </trkpt>
      <trkpt lat="36.700568" lon="-4.672331">
        <ele>68.841</ele>
        <time>2021-06-16T20:18:42Z</time>
      </trkpt>
      <trkpt lat="36.70045" lon="-4.672425">
        <ele>68.577</ele>
        <time>2021-06-16T20:18:43Z</time>
      </trkpt>
      <trkpt lat="36.700317" lon="-4.672504">
        <ele>68.239</ele>
        <time>2021-06-16T20:18:44Z</time>
      </trkpt>
      <trkpt lat="36.700176" lon="-4.672568">
        <ele>67.828</ele>
        <time>2021-06-16T20:18:45Z</time>
      </trkpt>
      <trkpt lat="36.699883" lon="-4.672652">
        <ele>67.442</ele>
        <time>2021-06-16T20:18:47Z</time>
      </trkpt>
      <trkpt lat="36.699739" lon="-4.672683">
        <ele>67.334</ele>
        <time>2021-06-16T20:18:48Z</time>
      </trkpt>
      <trkpt lat="36.699598" lon="-4.672712">
        <ele>67.455</ele>
        <time>2021-06-16T20:18:49Z</time>
      </trkpt>
      <trkpt lat="36.699457" lon="-4.672744">
        <ele>67.210</ele>
        <time>2021-06-16T20:18:50Z</time>
      </trkpt>
      <trkpt lat="36.699178" lon="-4.672815">
        <ele>66.508</ele>
        <time>2021-06-16T20:18:52Z</time>
      </trkpt>
      <trkpt lat="36.6989" lon="-4.672897">
        <ele>65.710</ele>
        <time>2021-06-16T20:18:54Z</time>
      </trkpt>
      <trkpt lat="36.698621" lon="-4.673009">
        <ele>65.559</ele>
        <time>2021-06-16T20:18:56Z</time>
      </trkpt>
      <trkpt lat="36.698488" lon="-4.673088">
        <ele>65.193</ele>
        <time>2021-06-16T20:18:57Z</time>
      </trkpt>
      <trkpt lat="36.698253" lon="-4.67332">
        <ele>65.113</ele>
        <time>2021-06-16T20:18:59Z</time>
      </trkpt>
      <trkpt lat="36.698079" lon="-4.673632">
        <ele>65.679</ele>
        <time>2021-06-16T20:19:01Z</time>
      </trkpt>
      <trkpt lat="36.697925" lon="-4.673956">
        <ele>65.831</ele>
        <time>2021-06-16T20:19:03Z</time>
      </trkpt>
      <trkpt lat="36.697825" lon="-4.674093">
        <ele>65.690</ele>
        <time>2021-06-16T20:19:04Z</time>
      </trkpt>
      <trkpt lat="36.697596" lon="-4.674301">
        <ele>65.734</ele>
        <time>2021-06-16T20:19:06Z</time>
      </trkpt>
      <trkpt lat="36.697478" lon="-4.674392">
        <ele>65.653</ele>
        <time>2021-06-16T20:19:07Z</time>
      </trkpt>
      <trkpt lat="36.69725" lon="-4.674568">
        <ele>65.804</ele>
        <time>2021-06-16T20:19:09Z</time>
      </trkpt>
      <trkpt lat="36.697037" lon="-4.674741">
        <ele>65.714</ele>
        <time>2021-06-16T20:19:11Z</time>
      </trkpt>
      <trkpt lat="36.696822" lon="-4.674912">
        <ele>66.208</ele>
        <time>2021-06-16T20:19:13Z</time>
      </trkpt>
      <trkpt lat="36.696595" lon="-4.675091">
        <ele>66.592</ele>
        <time>2021-06-16T20:19:15Z</time>
      </trkpt>
      <trkpt lat="36.69636" lon="-4.675271">
        <ele>66.771</ele>
        <time>2021-06-16T20:19:17Z</time>
      </trkpt>
      <trkpt lat="36.696126" lon="-4.675457">
        <ele>67.235</ele>
        <time>2021-06-16T20:19:19Z</time>
      </trkpt>
      <trkpt lat="36.696006" lon="-4.675547">
        <ele>67.915</ele>
        <time>2021-06-16T20:19:20Z</time>
      </trkpt>
      <trkpt lat="36.69576" lon="-4.675725">
        <ele>68.641</ele>
        <time>2021-06-16T20:19:22Z</time>
      </trkpt>
      <trkpt lat="36.695633" lon="-4.6758">
        <ele>69.893</ele>
        <time>2021-06-16T20:19:23Z</time>
      </trkpt>
      <trkpt lat="36.695509" lon="-4.675875">
        <ele>70.492</ele>
        <time>2021-06-16T20:19:24Z</time>
      </trkpt>
      <trkpt lat="36.695267" lon="-4.676023">
        <ele>71.196</ele>
        <time>2021-06-16T20:19:26Z</time>
      </trkpt>
      <trkpt lat="36.695147" lon="-4.676097">
        <ele>72.266</ele>
        <time>2021-06-16T20:19:27Z</time>
      </trkpt>
      <trkpt lat="36.694902" lon="-4.676242">
        <ele>72.929</ele>
        <time>2021-06-16T20:19:29Z</time>
      </trkpt>
      <trkpt lat="36.694674" lon="-4.676382">
        <ele>73.321</ele>
        <time>2021-06-16T20:19:31Z</time>
      </trkpt>
      <trkpt lat="36.694463" lon="-4.676562">
        <ele>73.208</ele>
        <time>2021-06-16T20:19:33Z</time>
      </trkpt>
      <trkpt lat="36.694271" lon="-4.676811">
        <ele>72.863</ele>
        <time>2021-06-16T20:19:35Z</time>
      </trkpt>
      <trkpt lat="36.694182" lon="-4.676957">
        <ele>72.662</ele>
        <time>2021-06-16T20:19:36Z</time>
      </trkpt>
      <trkpt lat="36.694023" lon="-4.677261">
        <ele>72.436</ele>
        <time>2021-06-16T20:19:38Z</time>
      </trkpt>
      <trkpt lat="36.693953" lon="-4.677426">
        <ele>72.266</ele>
        <time>2021-06-16T20:19:39Z</time>
      </trkpt>
      <trkpt lat="36.693836" lon="-4.677779">
        <ele>72.212</ele>
        <time>2021-06-16T20:19:41Z</time>
      </trkpt>
      <trkpt lat="36.693725" lon="-4.678148">
        <ele>72.484</ele>
        <time>2021-06-16T20:19:43Z</time>
      </trkpt>
      <trkpt lat="36.693615" lon="-4.678511">
        <ele>72.483</ele>
        <time>2021-06-16T20:19:45Z</time>
      </trkpt>
      <trkpt lat="36.693562" lon="-4.678692">
        <ele>72.447</ele>
        <time>2021-06-16T20:19:46Z</time>
      </trkpt>
      <trkpt lat="36.693457" lon="-4.679044">
        <ele>71.847</ele>
        <time>2021-06-16T20:19:48Z</time>
      </trkpt>
      <trkpt lat="36.693402" lon="-4.679216">
        <ele>71.629</ele>
        <time>2021-06-16T20:19:49Z</time>
      </trkpt>
      <trkpt lat="36.69327" lon="-4.679545">
        <ele>70.521</ele>
        <time>2021-06-16T20:19:51Z</time>
      </trkpt>
      <trkpt lat="36.693101" lon="-4.67985">
        <ele>69.408</ele>
        <time>2021-06-16T20:19:53Z</time>
      </trkpt>
      <trkpt lat="36.692928" lon="-4.680156">
        <ele>69.021</ele>
        <time>2021-06-16T20:19:55Z</time>
      </trkpt>
      <trkpt lat="36.692751" lon="-4.680462">
        <ele>68.650</ele>
        <time>2021-06-16T20:19:57Z</time>
      </trkpt>
      <trkpt lat="36.692573" lon="-4.680761">
        <ele>68.464</ele>
        <time>2021-06-16T20:19:59Z</time>
      </trkpt>
      <trkpt lat="36.692394" lon="-4.681046">
        <ele>67.964</ele>
        <time>2021-06-16T20:20:01Z</time>
      </trkpt>
      <trkpt lat="36.692308" lon="-4.68119">
        <ele>68.290</ele>
        <time>2021-06-16T20:20:02Z</time>
      </trkpt>
      <trkpt lat="36.69222" lon="-4.681338">
        <ele>68.932</ele>
        <time>2021-06-16T20:20:03Z</time>
      </trkpt>
      <trkpt lat="36.692048" lon="-4.681625">
        <ele>69.521</ele>
        <time>2021-06-16T20:20:05Z</time>
      </trkpt>
      <trkpt lat="36.691868" lon="-4.681912">
        <ele>70.225</ele>
        <time>2021-06-16T20:20:07Z</time>
      </trkpt>
      <trkpt lat="36.691776" lon="-4.682052">
        <ele>71.066</ele>
        <time>2021-06-16T20:20:08Z</time>
      </trkpt>
      <trkpt lat="36.69169" lon="-4.682191">
        <ele>71.929</ele>
        <time>2021-06-16T20:20:09Z</time>
      </trkpt>
      <trkpt lat="36.691603" lon="-4.682334">
        <ele>72.921</ele>
        <time>2021-06-16T20:20:10Z</time>
      </trkpt>
      <trkpt lat="36.691419" lon="-4.682609">
        <ele>74.408</ele>
        <time>2021-06-16T20:20:12Z</time>
      </trkpt>
      <trkpt lat="36.691313" lon="-4.682731">
        <ele>75.293</ele>
        <time>2021-06-16T20:20:13Z</time>
      </trkpt>
      <trkpt lat="36.691196" lon="-4.68284">
        <ele>76.022</ele>
        <time>2021-06-16T20:20:14Z</time>
      </trkpt>
      <trkpt lat="36.69094" lon="-4.683047">
        <ele>76.916</ele>
        <time>2021-06-16T20:20:16Z</time>
      </trkpt>
      <trkpt lat="36.690677" lon="-4.683239">
        <ele>78.276</ele>
        <time>2021-06-16T20:20:18Z</time>
      </trkpt>
      <trkpt lat="36.690419" lon="-4.683447">
        <ele>79.452</ele>
        <time>2021-06-16T20:20:20Z</time>
      </trkpt>
      <trkpt lat="36.690293" lon="-4.683555">
        <ele>80.324</ele>
        <time>2021-06-16T20:20:21Z</time>
      </trkpt>
      <trkpt lat="36.690059" lon="-4.683778">
        <ele>81.543</ele>
        <time>2021-06-16T20:20:23Z</time>
      </trkpt>
      <trkpt lat="36.689956" lon="-4.683906">
        <ele>82.357</ele>
        <time>2021-06-16T20:20:24Z</time>
      </trkpt>
      <trkpt lat="36.68979" lon="-4.684198">
        <ele>83.484</ele>
        <time>2021-06-16T20:20:26Z</time>
      </trkpt>
      <trkpt lat="36.689715" lon="-4.68435">
        <ele>84.407</ele>
        <time>2021-06-16T20:20:27Z</time>
      </trkpt>
      <trkpt lat="36.689578" lon="-4.684661">
        <ele>85.117</ele>
        <time>2021-06-16T20:20:29Z</time>
      </trkpt>
      <trkpt lat="36.68943" lon="-4.684971">
        <ele>86.708</ele>
        <time>2021-06-16T20:20:31Z</time>
      </trkpt>
      <trkpt lat="36.689273" lon="-4.685276">
        <ele>87.815</ele>
        <time>2021-06-16T20:20:33Z</time>
      </trkpt>
      <trkpt lat="36.689197" lon="-4.685426">
        <ele>88.654</ele>
        <time>2021-06-16T20:20:34Z</time>
      </trkpt>
      <trkpt lat="36.689121" lon="-4.685574">
        <ele>89.598</ele>
        <time>2021-06-16T20:20:35Z</time>
      </trkpt>
      <trkpt lat="36.689048" lon="-4.685721">
        <ele>90.258</ele>
        <time>2021-06-16T20:20:36Z</time>
      </trkpt>
      <trkpt lat="36.688977" lon="-4.685872">
        <ele>90.534</ele>
        <time>2021-06-16T20:20:37Z</time>
      </trkpt>
      <trkpt lat="36.688839" lon="-4.686184">
        <ele>90.436</ele>
        <time>2021-06-16T20:20:39Z</time>
      </trkpt>
      <trkpt lat="36.688769" lon="-4.686348">
        <ele>90.565</ele>
        <time>2021-06-16T20:20:40Z</time>
      </trkpt>
      <trkpt lat="36.688698" lon="-4.686514">
        <ele>90.699</ele>
        <time>2021-06-16T20:20:41Z</time>
      </trkpt>
      <trkpt lat="36.688554" lon="-4.686857">
        <ele>90.794</ele>
        <time>2021-06-16T20:20:43Z</time>
      </trkpt>
      <trkpt lat="36.688404" lon="-4.687203">
        <ele>90.857</ele>
        <time>2021-06-16T20:20:45Z</time>
      </trkpt>
      <trkpt lat="36.688253" lon="-4.687552">
        <ele>91.022</ele>
        <time>2021-06-16T20:20:47Z</time>
      </trkpt>
      <trkpt lat="36.688101" lon="-4.687889">
        <ele>91.608</ele>
        <time>2021-06-16T20:20:49Z</time>
      </trkpt>
      <trkpt lat="36.687959" lon="-4.688205">
        <ele>91.856</ele>
        <time>2021-06-16T20:20:51Z</time>
      </trkpt>
      <trkpt lat="36.687821" lon="-4.688517">
        <ele>92.095</ele>
        <time>2021-06-16T20:20:53Z</time>
      </trkpt>
      <trkpt lat="36.687683" lon="-4.688836">
        <ele>92.269</ele>
        <time>2021-06-16T20:20:55Z</time>
      </trkpt>
      <trkpt lat="36.687539" lon="-4.689162">
        <ele>92.029</ele>
        <time>2021-06-16T20:20:57Z</time>
      </trkpt>
      <trkpt lat="36.687395" lon="-4.689491">
        <ele>92.115</ele>
        <time>2021-06-16T20:20:59Z</time>
      </trkpt>
      <trkpt lat="36.687321" lon="-4.689651">
        <ele>92.237</ele>
        <time>2021-06-16T20:21:00Z</time>
      </trkpt>
      <trkpt lat="36.687183" lon="-4.689961">
        <ele>91.496</ele>
        <time>2021-06-16T20:21:02Z</time>
      </trkpt>
      <trkpt lat="36.687039" lon="-4.690278">
        <ele>90.750</ele>
        <time>2021-06-16T20:21:04Z</time>
      </trkpt>
      <trkpt lat="36.686967" lon="-4.690442">
        <ele>90.254</ele>
        <time>2021-06-16T20:21:05Z</time>
      </trkpt>
      <trkpt lat="36.686813" lon="-4.690774">
        <ele>89.156</ele>
        <time>2021-06-16T20:21:07Z</time>
      </trkpt>
      <trkpt lat="36.686733" lon="-4.690943">
        <ele>88.011</ele>
        <time>2021-06-16T20:21:08Z</time>
      </trkpt>
      <trkpt lat="36.686656" lon="-4.691118">
        <ele>86.908</ele>
        <time>2021-06-16T20:21:09Z</time>
      </trkpt>
      <trkpt lat="36.68658" lon="-4.691292">
        <ele>86.522</ele>
        <time>2021-06-16T20:21:10Z</time>
      </trkpt>
      <trkpt lat="36.686441" lon="-4.69164">
        <ele>86.641</ele>
        <time>2021-06-16T20:21:12Z</time>
      </trkpt>
      <trkpt lat="36.686387" lon="-4.691821">
        <ele>86.225</ele>
        <time>2021-06-16T20:21:13Z</time>
      </trkpt>
      <trkpt lat="36.686319" lon="-4.692217">
        <ele>85.935</ele>
        <time>2021-06-16T20:21:15Z</time>
      </trkpt>
      <trkpt lat="36.686294" lon="-4.692426">
        <ele>85.781</ele>
        <time>2021-06-16T20:21:16Z</time>
      </trkpt>
      <trkpt lat="36.686226" lon="-4.692835">
        <ele>85.773</ele>
        <time>2021-06-16T20:21:18Z</time>
      </trkpt>
      <trkpt lat="36.686178" lon="-4.693036">
        <ele>85.542</ele>
        <time>2021-06-16T20:21:19Z</time>
      </trkpt>
      <trkpt lat="36.686046" lon="-4.693427">
        <ele>84.896</ele>
        <time>2021-06-16T20:21:21Z</time>
      </trkpt>
      <trkpt lat="36.685959" lon="-4.693608">
        <ele>84.595</ele>
        <time>2021-06-16T20:21:22Z</time>
      </trkpt>
      <trkpt lat="36.685743" lon="-4.693934">
        <ele>84.249</ele>
        <time>2021-06-16T20:21:24Z</time>
      </trkpt>
      <trkpt lat="36.685488" lon="-4.694196">
        <ele>84.523</ele>
        <time>2021-06-16T20:21:26Z</time>
      </trkpt>
      <trkpt lat="36.685349" lon="-4.694308">
        <ele>85.308</ele>
        <time>2021-06-16T20:21:27Z</time>
      </trkpt>
      <trkpt lat="36.685078" lon="-4.694531">
        <ele>85.886</ele>
        <time>2021-06-16T20:21:29Z</time>
      </trkpt>
      <trkpt lat="36.684952" lon="-4.694659">
        <ele>86.455</ele>
        <time>2021-06-16T20:21:30Z</time>
      </trkpt>
      <trkpt lat="36.68474" lon="-4.694944">
        <ele>86.729</ele>
        <time>2021-06-16T20:21:32Z</time>
      </trkpt>
      <trkpt lat="36.684642" lon="-4.695097">
        <ele>87.219</ele>
        <time>2021-06-16T20:21:33Z</time>
      </trkpt>
      <trkpt lat="36.684464" lon="-4.695414">
        <ele>88.475</ele>
        <time>2021-06-16T20:21:35Z</time>
      </trkpt>
      <trkpt lat="36.684297" lon="-4.695727">
        <ele>89.217</ele>
        <time>2021-06-16T20:21:37Z</time>
      </trkpt>
      <trkpt lat="36.684214" lon="-4.695889">
        <ele>89.966</ele>
        <time>2021-06-16T20:21:38Z</time>
      </trkpt>
      <trkpt lat="36.684132" lon="-4.696052">
        <ele>90.560</ele>
        <time>2021-06-16T20:21:39Z</time>
      </trkpt>
      <trkpt lat="36.683963" lon="-4.696363">
        <ele>91.659</ele>
        <time>2021-06-16T20:21:41Z</time>
      </trkpt>
      <trkpt lat="36.683811" lon="-4.69665">
        <ele>93.203</ele>
        <time>2021-06-16T20:21:43Z</time>
      </trkpt>
      <trkpt lat="36.683685" lon="-4.69693">
        <ele>94.323</ele>
        <time>2021-06-16T20:21:45Z</time>
      </trkpt>
      <trkpt lat="36.68363" lon="-4.697076">
        <ele>95.508</ele>
        <time>2021-06-16T20:21:46Z</time>
      </trkpt>
      <trkpt lat="36.683533" lon="-4.697379">
        <ele>96.742</ele>
        <time>2021-06-16T20:21:48Z</time>
      </trkpt>
      <trkpt lat="36.68344" lon="-4.697689">
        <ele>98.171</ele>
        <time>2021-06-16T20:21:50Z</time>
      </trkpt>
      <trkpt lat="36.683344" lon="-4.698">
        <ele>99.615</ele>
        <time>2021-06-16T20:21:52Z</time>
      </trkpt>
      <trkpt lat="36.683251" lon="-4.698303">
        <ele>100.235</ele>
        <time>2021-06-16T20:21:54Z</time>
      </trkpt>
      <trkpt lat="36.683208" lon="-4.698446">
        <ele>100.711</ele>
        <time>2021-06-16T20:21:55Z</time>
      </trkpt>
      <trkpt lat="36.683128" lon="-4.698715">
        <ele>101.523</ele>
        <time>2021-06-16T20:21:57Z</time>
      </trkpt>
      <trkpt lat="36.683092" lon="-4.698843">
        <ele>101.992</ele>
        <time>2021-06-16T20:21:58Z</time>
      </trkpt>
      <trkpt lat="36.683035" lon="-4.699082">
        <ele>102.156</ele>
        <time>2021-06-16T20:22:00Z</time>
      </trkpt>
      <trkpt lat="36.683026" lon="-4.6992">
        <ele>102.391</ele>
        <time>2021-06-16T20:22:01Z</time>
      </trkpt>
      <trkpt lat="36.683049" lon="-4.699433">
        <ele>102.581</ele>
        <time>2021-06-16T20:22:03Z</time>
      </trkpt>
      <trkpt lat="36.683044" lon="-4.699525">
        <ele>102.519</ele>
        <time>2021-06-16T20:22:04Z</time>
      </trkpt>
      <trkpt lat="36.682935" lon="-4.699658">
        <ele>102.408</ele>
        <time>2021-06-16T20:22:06Z</time>
      </trkpt>
      <trkpt lat="36.682801" lon="-4.699788">
        <ele>102.376</ele>
        <time>2021-06-16T20:22:08Z</time>
      </trkpt>
      <trkpt lat="36.682713" lon="-4.70001">
        <ele>103.485</ele>
        <time>2021-06-16T20:22:10Z</time>
      </trkpt>
      <trkpt lat="36.68262" lon="-4.700264">
        <ele>104.599</ele>
        <time>2021-06-16T20:22:12Z</time>
      </trkpt>
      <trkpt lat="36.682569" lon="-4.7004">
        <ele>105.259</ele>
        <time>2021-06-16T20:22:13Z</time>
      </trkpt>
      <trkpt lat="36.682518" lon="-4.700542">
        <ele>106.235</ele>
        <time>2021-06-16T20:22:14Z</time>
      </trkpt>
      <trkpt lat="36.682412" lon="-4.700827">
        <ele>107.167</ele>
        <time>2021-06-16T20:22:16Z</time>
      </trkpt>
      <trkpt lat="36.682356" lon="-4.700972">
        <ele>107.916</ele>
        <time>2021-06-16T20:22:17Z</time>
      </trkpt>
      <trkpt lat="36.6823" lon="-4.70112">
        <ele>108.240</ele>
        <time>2021-06-16T20:22:18Z</time>
      </trkpt>
      <trkpt lat="36.682242" lon="-4.701266">
        <ele>108.462</ele>
        <time>2021-06-16T20:22:19Z</time>
      </trkpt>
      <trkpt lat="36.682115" lon="-4.701557">
        <ele>109.183</ele>
        <time>2021-06-16T20:22:21Z</time>
      </trkpt>
      <trkpt lat="36.68204" lon="-4.701699">
        <ele>110.211</ele>
        <time>2021-06-16T20:22:22Z</time>
      </trkpt>
      <trkpt lat="36.681955" lon="-4.701834">
        <ele>110.208</ele>
        <time>2021-06-16T20:22:23Z</time>
      </trkpt>
      <trkpt lat="36.681778" lon="-4.702087">
        <ele>111.163</ele>
        <time>2021-06-16T20:22:25Z</time>
      </trkpt>
      <trkpt lat="36.681614" lon="-4.702344">
        <ele>112.062</ele>
        <time>2021-06-16T20:22:27Z</time>
      </trkpt>
      <trkpt lat="36.681534" lon="-4.702478">
        <ele>112.676</ele>
        <time>2021-06-16T20:22:28Z</time>
      </trkpt>
      <trkpt lat="36.681392" lon="-4.702755">
        <ele>113.196</ele>
        <time>2021-06-16T20:22:30Z</time>
      </trkpt>
      <trkpt lat="36.681335" lon="-4.70291">
        <ele>113.552</ele>
        <time>2021-06-16T20:22:31Z</time>
      </trkpt>
      <trkpt lat="36.681247" lon="-4.703234">
        <ele>113.864</ele>
        <time>2021-06-16T20:22:33Z</time>
      </trkpt>
      <trkpt lat="36.681207" lon="-4.703397">
        <ele>114.043</ele>
        <time>2021-06-16T20:22:34Z</time>
      </trkpt>
      <trkpt lat="36.681127" lon="-4.703729">
        <ele>114.847</ele>
        <time>2021-06-16T20:22:36Z</time>
      </trkpt>
      <trkpt lat="36.681087" lon="-4.703896">
        <ele>115.676</ele>
        <time>2021-06-16T20:22:37Z</time>
      </trkpt>
      <trkpt lat="36.68101" lon="-4.70424">
        <ele>116.590</ele>
        <time>2021-06-16T20:22:39Z</time>
      </trkpt>
      <trkpt lat="36.68093" lon="-4.704586">
        <ele>117.519</ele>
        <time>2021-06-16T20:22:41Z</time>
      </trkpt>
      <trkpt lat="36.680888" lon="-4.704758">
        <ele>118.508</ele>
        <time>2021-06-16T20:22:42Z</time>
      </trkpt>
      <trkpt lat="36.680846" lon="-4.704928">
        <ele>119.344</ele>
        <time>2021-06-16T20:22:43Z</time>
      </trkpt>
      <trkpt lat="36.680765" lon="-4.705271">
        <ele>120.323</ele>
        <time>2021-06-16T20:22:45Z</time>
      </trkpt>
      <trkpt lat="36.680675" lon="-4.705621">
        <ele>121.857</ele>
        <time>2021-06-16T20:22:47Z</time>
      </trkpt>
      <trkpt lat="36.680585" lon="-4.705979">
        <ele>123.437</ele>
        <time>2021-06-16T20:22:49Z</time>
      </trkpt>
      <trkpt lat="36.680493" lon="-4.70634">
        <ele>125.093</ele>
        <time>2021-06-16T20:22:51Z</time>
      </trkpt>
      <trkpt lat="36.680401" lon="-4.706704">
        <ele>126.935</ele>
        <time>2021-06-16T20:22:53Z</time>
      </trkpt>
      <trkpt lat="36.68031" lon="-4.707073">
        <ele>128.834</ele>
        <time>2021-06-16T20:22:55Z</time>
      </trkpt>
      <trkpt lat="36.680216" lon="-4.707438">
        <ele>131.148</ele>
        <time>2021-06-16T20:22:57Z</time>
      </trkpt>
      <trkpt lat="36.680124" lon="-4.707798">
        <ele>133.342</ele>
        <time>2021-06-16T20:22:59Z</time>
      </trkpt>
      <trkpt lat="36.680081" lon="-4.707976">
        <ele>135.022</ele>
        <time>2021-06-16T20:23:00Z</time>
      </trkpt>
      <trkpt lat="36.680042" lon="-4.708156">
        <ele>136.514</ele>
        <time>2021-06-16T20:23:01Z</time>
      </trkpt>
      <trkpt lat="36.67998" lon="-4.708518">
        <ele>137.608</ele>
        <time>2021-06-16T20:23:03Z</time>
      </trkpt>
      <trkpt lat="36.67993" lon="-4.708896">
        <ele>139.231</ele>
        <time>2021-06-16T20:23:05Z</time>
      </trkpt>
      <trkpt lat="36.679907" lon="-4.709089">
        <ele>140.440</ele>
        <time>2021-06-16T20:23:06Z</time>
      </trkpt>
      <trkpt lat="36.679871" lon="-4.709474">
        <ele>141.664</ele>
        <time>2021-06-16T20:23:08Z</time>
      </trkpt>
      <trkpt lat="36.679856" lon="-4.709856">
        <ele>142.974</ele>
        <time>2021-06-16T20:23:10Z</time>
      </trkpt>
      <trkpt lat="36.679871" lon="-4.710258">
        <ele>143.660</ele>
        <time>2021-06-16T20:23:12Z</time>
      </trkpt>
      <trkpt lat="36.67989" lon="-4.710662">
        <ele>144.492</ele>
        <time>2021-06-16T20:23:14Z</time>
      </trkpt>
      <trkpt lat="36.679912" lon="-4.711059">
        <ele>144.761</ele>
        <time>2021-06-16T20:23:16Z</time>
      </trkpt>
      <trkpt lat="36.679926" lon="-4.711258">
        <ele>145.335</ele>
        <time>2021-06-16T20:23:17Z</time>
      </trkpt>
      <trkpt lat="36.67995" lon="-4.711652">
        <ele>145.642</ele>
        <time>2021-06-16T20:23:19Z</time>
      </trkpt>
      <trkpt lat="36.67996" lon="-4.711843">
        <ele>146.022</ele>
        <time>2021-06-16T20:23:20Z</time>
      </trkpt>
      <trkpt lat="36.679972" lon="-4.712221">
        <ele>146.514</ele>
        <time>2021-06-16T20:23:22Z</time>
      </trkpt>
      <trkpt lat="36.679971" lon="-4.712409">
        <ele>146.908</ele>
        <time>2021-06-16T20:23:23Z</time>
      </trkpt>
      <trkpt lat="36.679962" lon="-4.712598">
        <ele>147.251</ele>
        <time>2021-06-16T20:23:24Z</time>
      </trkpt>
      <trkpt lat="36.679948" lon="-4.712784">
        <ele>147.610</ele>
        <time>2021-06-16T20:23:25Z</time>
      </trkpt>
      <trkpt lat="36.679919" lon="-4.713149">
        <ele>148.024</ele>
        <time>2021-06-16T20:23:27Z</time>
      </trkpt>
      <trkpt lat="36.679913" lon="-4.713333">
        <ele>148.354</ele>
        <time>2021-06-16T20:23:28Z</time>
      </trkpt>
      <trkpt lat="36.679932" lon="-4.713694">
        <ele>148.520</ele>
        <time>2021-06-16T20:23:30Z</time>
      </trkpt>
      <trkpt lat="36.679959" lon="-4.713881">
        <ele>148.132</ele>
        <time>2021-06-16T20:23:31Z</time>
      </trkpt>
      <trkpt lat="36.680055" lon="-4.714256">
        <ele>148.541</ele>
        <time>2021-06-16T20:23:33Z</time>
      </trkpt>
      <trkpt lat="36.680137" lon="-4.714642">
        <ele>149.195</ele>
        <time>2021-06-16T20:23:35Z</time>
      </trkpt>
      <trkpt lat="36.680165" lon="-4.71484">
        <ele>149.238</ele>
        <time>2021-06-16T20:23:36Z</time>
      </trkpt>
      <trkpt lat="36.68019" lon="-4.715241">
        <ele>149.570</ele>
        <time>2021-06-16T20:23:38Z</time>
      </trkpt>
      <trkpt lat="36.680208" lon="-4.715646">
        <ele>150.317</ele>
        <time>2021-06-16T20:23:40Z</time>
      </trkpt>
      <trkpt lat="36.68023" lon="-4.716047">
        <ele>151.108</ele>
        <time>2021-06-16T20:23:42Z</time>
      </trkpt>
      <trkpt lat="36.680248" lon="-4.716441">
        <ele>151.790</ele>
        <time>2021-06-16T20:23:44Z</time>
      </trkpt>
      <trkpt lat="36.680239" lon="-4.716829">
        <ele>152.299</ele>
        <time>2021-06-16T20:23:46Z</time>
      </trkpt>
      <trkpt lat="36.680216" lon="-4.717025">
        <ele>152.523</ele>
        <time>2021-06-16T20:23:47Z</time>
      </trkpt>
      <trkpt lat="36.680182" lon="-4.717219">
        <ele>152.783</ele>
        <time>2021-06-16T20:23:48Z</time>
      </trkpt>
      <trkpt lat="36.680138" lon="-4.71741">
        <ele>152.749</ele>
        <time>2021-06-16T20:23:49Z</time>
      </trkpt>
      <trkpt lat="36.680039" lon="-4.71779">
        <ele>152.891</ele>
        <time>2021-06-16T20:23:51Z</time>
      </trkpt>
      <trkpt lat="36.67999" lon="-4.717981">
        <ele>152.770</ele>
        <time>2021-06-16T20:23:52Z</time>
      </trkpt>
      <trkpt lat="36.67989" lon="-4.718367">
        <ele>152.844</ele>
        <time>2021-06-16T20:23:54Z</time>
      </trkpt>
      <trkpt lat="36.679839" lon="-4.718558">
        <ele>153.175</ele>
        <time>2021-06-16T20:23:55Z</time>
      </trkpt>
      <trkpt lat="36.679738" lon="-4.718939">
        <ele>153.828</ele>
        <time>2021-06-16T20:23:57Z</time>
      </trkpt>
      <trkpt lat="36.679687" lon="-4.719127">
        <ele>154.420</ele>
        <time>2021-06-16T20:23:58Z</time>
      </trkpt>
      <trkpt lat="36.679583" lon="-4.719503">
        <ele>154.808</ele>
        <time>2021-06-16T20:24:00Z</time>
      </trkpt>
      <trkpt lat="36.679489" lon="-4.719877">
        <ele>155.474</ele>
        <time>2021-06-16T20:24:02Z</time>
      </trkpt>
      <trkpt lat="36.67944" lon="-4.720062">
        <ele>155.793</ele>
        <time>2021-06-16T20:24:03Z</time>
      </trkpt>
      <trkpt lat="36.67934" lon="-4.720423">
        <ele>155.997</ele>
        <time>2021-06-16T20:24:05Z</time>
      </trkpt>
      <trkpt lat="36.679242" lon="-4.720775">
        <ele>156.217</ele>
        <time>2021-06-16T20:24:07Z</time>
      </trkpt>
      <trkpt lat="36.679194" lon="-4.720955">
        <ele>156.383</ele>
        <time>2021-06-16T20:24:08Z</time>
      </trkpt>
      <trkpt lat="36.679098" lon="-4.721307">
        <ele>155.815</ele>
        <time>2021-06-16T20:24:10Z</time>
      </trkpt>
      <trkpt lat="36.67905" lon="-4.721478">
        <ele>155.734</ele>
        <time>2021-06-16T20:24:11Z</time>
      </trkpt>
      <trkpt lat="36.678962" lon="-4.721813">
        <ele>155.528</ele>
        <time>2021-06-16T20:24:13Z</time>
      </trkpt>
      <trkpt lat="36.678914" lon="-4.721985">
        <ele>155.027</ele>
        <time>2021-06-16T20:24:14Z</time>
      </trkpt>
      <trkpt lat="36.67882" lon="-4.72234">
        <ele>155.068</ele>
        <time>2021-06-16T20:24:16Z</time>
      </trkpt>
      <trkpt lat="36.678736" lon="-4.722686">
        <ele>155.114</ele>
        <time>2021-06-16T20:24:18Z</time>
      </trkpt>
      <trkpt lat="36.67866" lon="-4.723008">
        <ele>155.508</ele>
        <time>2021-06-16T20:24:20Z</time>
      </trkpt>
      <trkpt lat="36.678582" lon="-4.723296">
        <ele>156.239</ele>
        <time>2021-06-16T20:24:22Z</time>
      </trkpt>
      <trkpt lat="36.678498" lon="-4.723558">
        <ele>157.368</ele>
        <time>2021-06-16T20:24:24Z</time>
      </trkpt>
      <trkpt lat="36.678461" lon="-4.723672">
        <ele>158.292</ele>
        <time>2021-06-16T20:24:25Z</time>
      </trkpt>
      <trkpt lat="36.678396" lon="-4.723851">
        <ele>159.042</ele>
        <time>2021-06-16T20:24:27Z</time>
      </trkpt>
      <trkpt lat="36.678371" lon="-4.723929">
        <ele>159.318</ele>
        <time>2021-06-16T20:24:28Z</time>
      </trkpt>
      <trkpt lat="36.678325" lon="-4.724053">
        <ele>160.010</ele>
        <time>2021-06-16T20:24:30Z</time>
      </trkpt>
      <trkpt lat="36.6783" lon="-4.724102">
        <ele>160.469</ele>
        <time>2021-06-16T20:24:33Z</time>
      </trkpt>
      <trkpt lat="36.678283" lon="-4.724167">
        <ele>160.533</ele>
        <time>2021-06-16T20:24:36Z</time>
      </trkpt>
      <trkpt lat="36.678299" lon="-4.72426">
        <ele>160.466</ele>
        <time>2021-06-16T20:24:38Z</time>
      </trkpt>
      <trkpt lat="36.678343" lon="-4.72436">
        <ele>161.529</ele>
        <time>2021-06-16T20:24:39Z</time>
      </trkpt>
      <trkpt lat="36.678404" lon="-4.724441">
        <ele>162.221</ele>
        <time>2021-06-16T20:24:40Z</time>
      </trkpt>
      <trkpt lat="36.678521" lon="-4.724658">
        <ele>162.608</ele>
        <time>2021-06-16T20:24:42Z</time>
      </trkpt>
      <trkpt lat="36.678564" lon="-4.724943">
        <ele>162.863</ele>
        <time>2021-06-16T20:24:44Z</time>
      </trkpt>
      <trkpt lat="36.678508" lon="-4.725217">
        <ele>162.942</ele>
        <time>2021-06-16T20:24:46Z</time>
      </trkpt>
      <trkpt lat="36.678446" lon="-4.725335">
        <ele>163.036</ele>
        <time>2021-06-16T20:24:47Z</time>
      </trkpt>
      <trkpt lat="36.678257" lon="-4.725512">
        <ele>163.026</ele>
        <time>2021-06-16T20:24:49Z</time>
      </trkpt>
      <trkpt lat="36.678029" lon="-4.72558">
        <ele>163.092</ele>
        <time>2021-06-16T20:24:51Z</time>
      </trkpt>
      <trkpt lat="36.677801" lon="-4.725535">
        <ele>163.074</ele>
        <time>2021-06-16T20:24:53Z</time>
      </trkpt>
      <trkpt lat="36.677689" lon="-4.725481">
        <ele>163.063</ele>
        <time>2021-06-16T20:24:54Z</time>
      </trkpt>
      <trkpt lat="36.677455" lon="-4.725393">
        <ele>163.037</ele>
        <time>2021-06-16T20:24:56Z</time>
      </trkpt>
      <trkpt lat="36.677191" lon="-4.725366">
        <ele>163.096</ele>
        <time>2021-06-16T20:24:58Z</time>
      </trkpt>
      <trkpt lat="36.67689" lon="-4.725349">
        <ele>163.031</ele>
        <time>2021-06-16T20:25:00Z</time>
      </trkpt>
      <trkpt lat="36.67658" lon="-4.72536">
        <ele>163.024</ele>
        <time>2021-06-16T20:25:02Z</time>
      </trkpt>
      <trkpt lat="36.676268" lon="-4.725396">
        <ele>163.008</ele>
        <time>2021-06-16T20:25:04Z</time>
      </trkpt>
      <trkpt lat="36.675956" lon="-4.725446">
        <ele>163.076</ele>
        <time>2021-06-16T20:25:06Z</time>
      </trkpt>
      <trkpt lat="36.675796" lon="-4.725472">
        <ele>163.055</ele>
        <time>2021-06-16T20:25:07Z</time>
      </trkpt>
      <trkpt lat="36.675635" lon="-4.725499">
        <ele>163.049</ele>
        <time>2021-06-16T20:25:08Z</time>
      </trkpt>
      <trkpt lat="36.675307" lon="-4.725564">
        <ele>163.029</ele>
        <time>2021-06-16T20:25:10Z</time>
      </trkpt>
      <trkpt lat="36.675142" lon="-4.725603">
        <ele>163.075</ele>
        <time>2021-06-16T20:25:11Z</time>
      </trkpt>
      <trkpt lat="36.674807" lon="-4.72568">
        <ele>163.017</ele>
        <time>2021-06-16T20:25:13Z</time>
      </trkpt>
      <trkpt lat="36.674637" lon="-4.725716">
        <ele>163.046</ele>
        <time>2021-06-16T20:25:14Z</time>
      </trkpt>
      <trkpt lat="36.674465" lon="-4.725748">
        <ele>163.050</ele>
        <time>2021-06-16T20:25:15Z</time>
      </trkpt>
      <trkpt lat="36.674295" lon="-4.725785">
        <ele>163.075</ele>
        <time>2021-06-16T20:25:16Z</time>
      </trkpt>
      <trkpt lat="36.674123" lon="-4.725824">
        <ele>163.028</ele>
        <time>2021-06-16T20:25:17Z</time>
      </trkpt>
      <trkpt lat="36.673781" lon="-4.725912">
        <ele>163.020</ele>
        <time>2021-06-16T20:25:19Z</time>
      </trkpt>
      <trkpt lat="36.673434" lon="-4.726">
        <ele>163.008</ele>
        <time>2021-06-16T20:25:21Z</time>
      </trkpt>
      <trkpt lat="36.673258" lon="-4.726043">
        <ele>163.014</ele>
        <time>2021-06-16T20:25:22Z</time>
      </trkpt>
      <trkpt lat="36.672909" lon="-4.726136">
        <ele>163.053</ele>
        <time>2021-06-16T20:25:24Z</time>
      </trkpt>
      <trkpt lat="36.672733" lon="-4.726184">
        <ele>163.047</ele>
        <time>2021-06-16T20:25:25Z</time>
      </trkpt>
      <trkpt lat="36.672381" lon="-4.726281">
        <ele>163.087</ele>
        <time>2021-06-16T20:25:27Z</time>
      </trkpt>
      <trkpt lat="36.672029" lon="-4.726385">
        <ele>163.063</ele>
        <time>2021-06-16T20:25:29Z</time>
      </trkpt>
      <trkpt lat="36.671676" lon="-4.726486">
        <ele>163.075</ele>
        <time>2021-06-16T20:25:31Z</time>
      </trkpt>
      <trkpt lat="36.671303" lon="-4.726586">
        <ele>163.064</ele>
        <time>2021-06-16T20:25:33Z</time>
      </trkpt>
      <trkpt lat="36.670929" lon="-4.726693">
        <ele>163.038</ele>
        <time>2021-06-16T20:25:35Z</time>
      </trkpt>
      <trkpt lat="36.670547" lon="-4.726817">
        <ele>163.067</ele>
        <time>2021-06-16T20:25:37Z</time>
      </trkpt>
      <trkpt lat="36.670163" lon="-4.726946">
        <ele>159.081</ele>
        <time>2021-06-16T20:25:39Z</time>
      </trkpt>
      <trkpt lat="36.669972" lon="-4.72701">
        <ele>155.519</ele>
        <time>2021-06-16T20:25:40Z</time>
      </trkpt>
      <trkpt lat="36.669597" lon="-4.727138">
        <ele>152.408</ele>
        <time>2021-06-16T20:25:42Z</time>
      </trkpt>
      <trkpt lat="36.669406" lon="-4.727203">
        <ele>150.223</ele>
        <time>2021-06-16T20:25:43Z</time>
      </trkpt>
      <trkpt lat="36.669022" lon="-4.727335">
        <ele>147.882</ele>
        <time>2021-06-16T20:25:45Z</time>
      </trkpt>
      <trkpt lat="36.668828" lon="-4.7274">
        <ele>146.366</ele>
        <time>2021-06-16T20:25:46Z</time>
      </trkpt>
      <trkpt lat="36.668438" lon="-4.727529">
        <ele>144.466</ele>
        <time>2021-06-16T20:25:48Z</time>
      </trkpt>
      <trkpt lat="36.668051" lon="-4.727659">
        <ele>142.672</ele>
        <time>2021-06-16T20:25:50Z</time>
      </trkpt>
      <trkpt lat="36.667855" lon="-4.727721">
        <ele>141.064</ele>
        <time>2021-06-16T20:25:51Z</time>
      </trkpt>
      <trkpt lat="36.667465" lon="-4.727845">
        <ele>139.433</ele>
        <time>2021-06-16T20:25:53Z</time>
      </trkpt>
      <trkpt lat="36.667271" lon="-4.727906">
        <ele>138.277</ele>
        <time>2021-06-16T20:25:54Z</time>
      </trkpt>
      <trkpt lat="36.667078" lon="-4.727965">
        <ele>137.494</ele>
        <time>2021-06-16T20:25:55Z</time>
      </trkpt>
      <trkpt lat="36.666886" lon="-4.728024">
        <ele>136.657</ele>
        <time>2021-06-16T20:25:56Z</time>
      </trkpt>
      <trkpt lat="36.666698" lon="-4.728084">
        <ele>136.222</ele>
        <time>2021-06-16T20:25:57Z</time>
      </trkpt>
      <trkpt lat="36.666325" lon="-4.728193">
        <ele>135.708</ele>
        <time>2021-06-16T20:25:59Z</time>
      </trkpt>
      <trkpt lat="36.665948" lon="-4.728298">
        <ele>135.676</ele>
        <time>2021-06-16T20:26:01Z</time>
      </trkpt>
      <trkpt lat="36.665568" lon="-4.728406">
        <ele>135.645</ele>
        <time>2021-06-16T20:26:03Z</time>
      </trkpt>
      <trkpt lat="36.665193" lon="-4.728526">
        <ele>135.699</ele>
        <time>2021-06-16T20:26:05Z</time>
      </trkpt>
      <trkpt lat="36.664998" lon="-4.72859">
        <ele>135.729</ele>
        <time>2021-06-16T20:26:06Z</time>
      </trkpt>
      <trkpt lat="36.664635" lon="-4.7287">
        <ele>135.815</ele>
        <time>2021-06-16T20:26:08Z</time>
      </trkpt>
      <trkpt lat="36.664269" lon="-4.728803">
        <ele>136.857</ele>
        <time>2021-06-16T20:26:10Z</time>
      </trkpt>
      <trkpt lat="36.664084" lon="-4.728854">
        <ele>137.836</ele>
        <time>2021-06-16T20:26:11Z</time>
      </trkpt>
      <trkpt lat="36.663718" lon="-4.728956">
        <ele>138.990</ele>
        <time>2021-06-16T20:26:13Z</time>
      </trkpt>
      <trkpt lat="36.663535" lon="-4.729004">
        <ele>140.064</ele>
        <time>2021-06-16T20:26:14Z</time>
      </trkpt>
      <trkpt lat="36.663175" lon="-4.729097">
        <ele>141.306</ele>
        <time>2021-06-16T20:26:16Z</time>
      </trkpt>
      <trkpt lat="36.662817" lon="-4.729189">
        <ele>142.716</ele>
        <time>2021-06-16T20:26:18Z</time>
      </trkpt>
      <trkpt lat="36.662637" lon="-4.729234">
        <ele>144.008</ele>
        <time>2021-06-16T20:26:19Z</time>
      </trkpt>
      <trkpt lat="36.662459" lon="-4.729285">
        <ele>144.863</ele>
        <time>2021-06-16T20:26:20Z</time>
      </trkpt>
      <trkpt lat="36.662113" lon="-4.729412">
        <ele>146.652</ele>
        <time>2021-06-16T20:26:22Z</time>
      </trkpt>
      <trkpt lat="36.661773" lon="-4.72956">
        <ele>148.926</ele>
        <time>2021-06-16T20:26:24Z</time>
      </trkpt>
      <trkpt lat="36.661606" lon="-4.729639">
        <ele>151.176</ele>
        <time>2021-06-16T20:26:25Z</time>
      </trkpt>
      <trkpt lat="36.661274" lon="-4.729809">
        <ele>153.592</ele>
        <time>2021-06-16T20:26:27Z</time>
      </trkpt>
      <trkpt lat="36.660955" lon="-4.729997">
        <ele>156.064</ele>
        <time>2021-06-16T20:26:29Z</time>
      </trkpt>
      <trkpt lat="36.6608" lon="-4.730102">
        <ele>158.353</ele>
        <time>2021-06-16T20:26:30Z</time>
      </trkpt>
      <trkpt lat="36.660647" lon="-4.730214">
        <ele>160.377</ele>
        <time>2021-06-16T20:26:31Z</time>
      </trkpt>
      <trkpt lat="36.660495" lon="-4.730327">
        <ele>162.035</ele>
        <time>2021-06-16T20:26:32Z</time>
      </trkpt>
      <trkpt lat="36.660194" lon="-4.73057">
        <ele>164.286</ele>
        <time>2021-06-16T20:26:34Z</time>
      </trkpt>
      <trkpt lat="36.659895" lon="-4.730825">
        <ele>166.914</ele>
        <time>2021-06-16T20:26:36Z</time>
      </trkpt>
      <trkpt lat="36.659609" lon="-4.731105">
        <ele>169.908</ele>
        <time>2021-06-16T20:26:38Z</time>
      </trkpt>
      <trkpt lat="36.659332" lon="-4.731402">
        <ele>172.450</ele>
        <time>2021-06-16T20:26:40Z</time>
      </trkpt>
      <trkpt lat="36.659194" lon="-4.731562">
        <ele>174.649</ele>
        <time>2021-06-16T20:26:41Z</time>
      </trkpt>
      <trkpt lat="36.658932" lon="-4.731891">
        <ele>176.953</ele>
        <time>2021-06-16T20:26:43Z</time>
      </trkpt>
      <trkpt lat="36.658684" lon="-4.732228">
        <ele>179.443</ele>
        <time>2021-06-16T20:26:45Z</time>
      </trkpt>
      <trkpt lat="36.658461" lon="-4.732591">
        <ele>182.019</ele>
        <time>2021-06-16T20:26:47Z</time>
      </trkpt>
      <trkpt lat="36.658354" lon="-4.73278">
        <ele>184.471</ele>
        <time>2021-06-16T20:26:48Z</time>
      </trkpt>
      <trkpt lat="36.658144" lon="-4.733162">
        <ele>187.250</ele>
        <time>2021-06-16T20:26:50Z</time>
      </trkpt>
      <trkpt lat="36.657947" lon="-4.733554">
        <ele>190.144</ele>
        <time>2021-06-16T20:26:52Z</time>
      </trkpt>
      <trkpt lat="36.657852" lon="-4.733751">
        <ele>192.522</ele>
        <time>2021-06-16T20:26:53Z</time>
      </trkpt>
      <trkpt lat="36.657662" lon="-4.734144">
        <ele>194.562</ele>
        <time>2021-06-16T20:26:55Z</time>
      </trkpt>
      <trkpt lat="36.657565" lon="-4.734348">
        <ele>195.908</ele>
        <time>2021-06-16T20:26:56Z</time>
      </trkpt>
      <trkpt lat="36.657377" lon="-4.734758">
        <ele>197.608</ele>
        <time>2021-06-16T20:26:58Z</time>
      </trkpt>
      <trkpt lat="36.657279" lon="-4.734963">
        <ele>198.919</ele>
        <time>2021-06-16T20:26:59Z</time>
      </trkpt>
      <trkpt lat="36.657082" lon="-4.735368">
        <ele>200.248</ele>
        <time>2021-06-16T20:27:01Z</time>
      </trkpt>
      <trkpt lat="36.656888" lon="-4.735757">
        <ele>202.212</ele>
        <time>2021-06-16T20:27:03Z</time>
      </trkpt>
      <trkpt lat="36.656791" lon="-4.735951">
        <ele>204.292</ele>
        <time>2021-06-16T20:27:04Z</time>
      </trkpt>
      <trkpt lat="36.656596" lon="-4.736336">
        <ele>207.328</ele>
        <time>2021-06-16T20:27:06Z</time>
      </trkpt>
      <trkpt lat="36.656395" lon="-4.736708">
        <ele>210.830</ele>
        <time>2021-06-16T20:27:08Z</time>
      </trkpt>
      <trkpt lat="36.656187" lon="-4.737074">
        <ele>214.359</ele>
        <time>2021-06-16T20:27:10Z</time>
      </trkpt>
      <trkpt lat="36.656081" lon="-4.737251">
        <ele>216.963</ele>
        <time>2021-06-16T20:27:11Z</time>
      </trkpt>
      <trkpt lat="36.655971" lon="-4.737424">
        <ele>218.662</ele>
        <time>2021-06-16T20:27:12Z</time>
      </trkpt>
      <trkpt lat="36.655733" lon="-4.737768">
        <ele>221.283</ele>
        <time>2021-06-16T20:27:14Z</time>
      </trkpt>
      <trkpt lat="36.655502" lon="-4.738081">
        <ele>223.711</ele>
        <time>2021-06-16T20:27:16Z</time>
      </trkpt>
      <trkpt lat="36.655374" lon="-4.738238">
        <ele>226.008</ele>
        <time>2021-06-16T20:27:17Z</time>
      </trkpt>
      <trkpt lat="36.655242" lon="-4.73839">
        <ele>228.033</ele>
        <time>2021-06-16T20:27:18Z</time>
      </trkpt>
      <trkpt lat="36.654966" lon="-4.738675">
        <ele>230.352</ele>
        <time>2021-06-16T20:27:20Z</time>
      </trkpt>
      <trkpt lat="36.654677" lon="-4.738933">
        <ele>233.086</ele>
        <time>2021-06-16T20:27:22Z</time>
      </trkpt>
      <trkpt lat="36.654526" lon="-4.739054">
        <ele>235.296</ele>
        <time>2021-06-16T20:27:23Z</time>
      </trkpt>
      <trkpt lat="36.654217" lon="-4.739277">
        <ele>237.742</ele>
        <time>2021-06-16T20:27:25Z</time>
      </trkpt>
      <trkpt lat="36.653898" lon="-4.739472">
        <ele>240.374</ele>
        <time>2021-06-16T20:27:27Z</time>
      </trkpt>
      <trkpt lat="36.653574" lon="-4.739641">
        <ele>243.163</ele>
        <time>2021-06-16T20:27:29Z</time>
      </trkpt>
      <trkpt lat="36.653239" lon="-4.739778">
        <ele>245.847</ele>
        <time>2021-06-16T20:27:31Z</time>
      </trkpt>
      <trkpt lat="36.65307" lon="-4.73984">
        <ele>247.953</ele>
        <time>2021-06-16T20:27:32Z</time>
      </trkpt>
      <trkpt lat="36.652737" lon="-4.739956">
        <ele>250.004</ele>
        <time>2021-06-16T20:27:34Z</time>
      </trkpt>
      <trkpt lat="36.652407" lon="-4.740065">
        <ele>252.514</ele>
        <time>2021-06-16T20:27:36Z</time>
      </trkpt>
      <trkpt lat="36.65224" lon="-4.740111">
        <ele>254.508</ele>
        <time>2021-06-16T20:27:37Z</time>
      </trkpt>
      <trkpt lat="36.652073" lon="-4.740157">
        <ele>256.432</ele>
        <time>2021-06-16T20:27:38Z</time>
      </trkpt>
      <trkpt lat="36.651904" lon="-4.740202">
        <ele>258.161</ele>
        <time>2021-06-16T20:27:39Z</time>
      </trkpt>
      <trkpt lat="36.651567" lon="-4.740287">
        <ele>260.565</ele>
        <time>2021-06-16T20:27:41Z</time>
      </trkpt>
      <trkpt lat="36.651229" lon="-4.740383">
        <ele>263.545</ele>
        <time>2021-06-16T20:27:43Z</time>
      </trkpt>
      <trkpt lat="36.65089" lon="-4.740486">
        <ele>266.261</ele>
        <time>2021-06-16T20:27:45Z</time>
      </trkpt>
      <trkpt lat="36.650547" lon="-4.740586">
        <ele>269.063</ele>
        <time>2021-06-16T20:27:47Z</time>
      </trkpt>
      <trkpt lat="36.650197" lon="-4.740688">
        <ele>272.012</ele>
        <time>2021-06-16T20:27:49Z</time>
      </trkpt>
      <trkpt lat="36.649849" lon="-4.740793">
        <ele>275.096</ele>
        <time>2021-06-16T20:27:51Z</time>
      </trkpt>
      <trkpt lat="36.649503" lon="-4.740899">
        <ele>278.086</ele>
        <time>2021-06-16T20:27:53Z</time>
      </trkpt>
      <trkpt lat="36.649154" lon="-4.740999">
        <ele>280.860</ele>
        <time>2021-06-16T20:27:55Z</time>
      </trkpt>
      <trkpt lat="36.648811" lon="-4.741101">
        <ele>283.726</ele>
        <time>2021-06-16T20:27:57Z</time>
      </trkpt>
      <trkpt lat="36.648474" lon="-4.741217">
        <ele>286.508</ele>
        <time>2021-06-16T20:27:59Z</time>
      </trkpt>
      <trkpt lat="36.648308" lon="-4.741285">
        <ele>288.885</ele>
        <time>2021-06-16T20:28:00Z</time>
      </trkpt>
      <trkpt lat="36.648144" lon="-4.741359">
        <ele>290.734</ele>
        <time>2021-06-16T20:28:01Z</time>
      </trkpt>
      <trkpt lat="36.647981" lon="-4.741443">
        <ele>292.358</ele>
        <time>2021-06-16T20:28:02Z</time>
      </trkpt>
      <trkpt lat="36.647662" lon="-4.741626">
        <ele>294.448</ele>
        <time>2021-06-16T20:28:04Z</time>
      </trkpt>
      <trkpt lat="36.647349" lon="-4.741835">
        <ele>296.434</ele>
        <time>2021-06-16T20:28:06Z</time>
      </trkpt>
      <trkpt lat="36.647036" lon="-4.742065">
        <ele>298.266</ele>
        <time>2021-06-16T20:28:08Z</time>
      </trkpt>
      <trkpt lat="36.646746" lon="-4.742327">
        <ele>300.755</ele>
        <time>2021-06-16T20:28:10Z</time>
      </trkpt>
      <trkpt lat="36.646603" lon="-4.742471">
        <ele>302.779</ele>
        <time>2021-06-16T20:28:11Z</time>
      </trkpt>
      <trkpt lat="36.646323" lon="-4.74276">
        <ele>305.078</ele>
        <time>2021-06-16T20:28:13Z</time>
      </trkpt>
      <trkpt lat="36.64618" lon="-4.742903">
        <ele>306.633</ele>
        <time>2021-06-16T20:28:14Z</time>
      </trkpt>
      <trkpt lat="36.645904" lon="-4.743208">
        <ele>308.326</ele>
        <time>2021-06-16T20:28:16Z</time>
      </trkpt>
      <trkpt lat="36.645765" lon="-4.743366">
        <ele>309.608</ele>
        <time>2021-06-16T20:28:17Z</time>
      </trkpt>
      <trkpt lat="36.645477" lon="-4.743677">
        <ele>310.834</ele>
        <time>2021-06-16T20:28:19Z</time>
      </trkpt>
      <trkpt lat="36.645189" lon="-4.743981">
        <ele>311.883</ele>
        <time>2021-06-16T20:28:21Z</time>
      </trkpt>
      <trkpt lat="36.644915" lon="-4.744287">
        <ele>312.287</ele>
        <time>2021-06-16T20:28:23Z</time>
      </trkpt>
      <trkpt lat="36.644777" lon="-4.744443">
        <ele>312.787</ele>
        <time>2021-06-16T20:28:24Z</time>
      </trkpt>
      <trkpt lat="36.644637" lon="-4.744598">
        <ele>312.423</ele>
        <time>2021-06-16T20:28:25Z</time>
      </trkpt>
      <trkpt lat="36.644361" lon="-4.744895">
        <ele>312.595</ele>
        <time>2021-06-16T20:28:27Z</time>
      </trkpt>
      <trkpt lat="36.64409" lon="-4.7452">
        <ele>312.894</ele>
        <time>2021-06-16T20:28:29Z</time>
      </trkpt>
      <trkpt lat="36.643949" lon="-4.745355">
        <ele>312.728</ele>
        <time>2021-06-16T20:28:30Z</time>
      </trkpt>
      <trkpt lat="36.643657" lon="-4.745664">
        <ele>312.468</ele>
        <time>2021-06-16T20:28:32Z</time>
      </trkpt>
      <trkpt lat="36.643506" lon="-4.74582">
        <ele>312.742</ele>
        <time>2021-06-16T20:28:33Z</time>
      </trkpt>
      <trkpt lat="36.643358" lon="-4.745981">
        <ele>312.526</ele>
        <time>2021-06-16T20:28:34Z</time>
      </trkpt>
      <trkpt lat="36.643207" lon="-4.74615">
        <ele>312.308</ele>
        <time>2021-06-16T20:28:35Z</time>
      </trkpt>
      <trkpt lat="36.642909" lon="-4.746484">
        <ele>311.963</ele>
        <time>2021-06-16T20:28:37Z</time>
      </trkpt>
      <trkpt lat="36.642621" lon="-4.7468">
        <ele>310.722</ele>
        <time>2021-06-16T20:28:39Z</time>
      </trkpt>
      <trkpt lat="36.642335" lon="-4.747111">
        <ele>310.436</ele>
        <time>2021-06-16T20:28:41Z</time>
      </trkpt>
      <trkpt lat="36.642053" lon="-4.747427">
        <ele>310.146</ele>
        <time>2021-06-16T20:28:43Z</time>
      </trkpt>
      <trkpt lat="36.641777" lon="-4.747734">
        <ele>310.352</ele>
        <time>2021-06-16T20:28:45Z</time>
      </trkpt>
      <trkpt lat="36.641639" lon="-4.747887">
        <ele>310.354</ele>
        <time>2021-06-16T20:28:46Z</time>
      </trkpt>
      <trkpt lat="36.641506" lon="-4.748046">
        <ele>310.253</ele>
        <time>2021-06-16T20:28:47Z</time>
      </trkpt>
      <trkpt lat="36.641378" lon="-4.748205">
        <ele>310.527</ele>
        <time>2021-06-16T20:28:48Z</time>
      </trkpt>
      <trkpt lat="36.641132" lon="-4.748531">
        <ele>311.395</ele>
        <time>2021-06-16T20:28:50Z</time>
      </trkpt>
      <trkpt lat="36.641013" lon="-4.748705">
        <ele>311.949</ele>
        <time>2021-06-16T20:28:51Z</time>
      </trkpt>
      <trkpt lat="36.64078" lon="-4.749055">
        <ele>312.823</ele>
        <time>2021-06-16T20:28:53Z</time>
      </trkpt>
      <trkpt lat="36.640668" lon="-4.749241">
        <ele>313.208</ele>
        <time>2021-06-16T20:28:54Z</time>
      </trkpt>
      <trkpt lat="36.640451" lon="-4.749614">
        <ele>313.546</ele>
        <time>2021-06-16T20:28:56Z</time>
      </trkpt>
      <trkpt lat="36.640245" lon="-4.749996">
        <ele>314.155</ele>
        <time>2021-06-16T20:28:58Z</time>
      </trkpt>
      <trkpt lat="36.640141" lon="-4.750191">
        <ele>315.039</ele>
        <time>2021-06-16T20:28:59Z</time>
      </trkpt>
      <trkpt lat="36.639943" lon="-4.750585">
        <ele>315.899</ele>
        <time>2021-06-16T20:29:01Z</time>
      </trkpt>
      <trkpt lat="36.63976" lon="-4.750991">
        <ele>316.835</ele>
        <time>2021-06-16T20:29:03Z</time>
      </trkpt>
      <trkpt lat="36.639669" lon="-4.751198">
        <ele>317.647</ele>
        <time>2021-06-16T20:29:04Z</time>
      </trkpt>
      <trkpt lat="36.639494" lon="-4.75162">
        <ele>318.416</ele>
        <time>2021-06-16T20:29:06Z</time>
      </trkpt>
      <trkpt lat="36.63932" lon="-4.752044">
        <ele>319.380</ele>
        <time>2021-06-16T20:29:08Z</time>
      </trkpt>
      <trkpt lat="36.639162" lon="-4.75248">
        <ele>320.496</ele>
        <time>2021-06-16T20:29:10Z</time>
      </trkpt>
      <trkpt lat="36.639015" lon="-4.752917">
        <ele>321.331</ele>
        <time>2021-06-16T20:29:12Z</time>
      </trkpt>
      <trkpt lat="36.638879" lon="-4.753362">
        <ele>321.824</ele>
        <time>2021-06-16T20:29:14Z</time>
      </trkpt>
      <trkpt lat="36.638813" lon="-4.753587">
        <ele>322.308</ele>
        <time>2021-06-16T20:29:15Z</time>
      </trkpt>
      <trkpt lat="36.638687" lon="-4.754039">
        <ele>322.566</ele>
        <time>2021-06-16T20:29:17Z</time>
      </trkpt>
      <trkpt lat="36.638631" lon="-4.754265">
        <ele>322.755</ele>
        <time>2021-06-16T20:29:18Z</time>
      </trkpt>
      <trkpt lat="36.638579" lon="-4.754489">
        <ele>322.639</ele>
        <time>2021-06-16T20:29:19Z</time>
      </trkpt>
      <trkpt lat="36.638529" lon="-4.754712">
        <ele>322.899</ele>
        <time>2021-06-16T20:29:20Z</time>
      </trkpt>
      <trkpt lat="36.638436" lon="-4.75515">
        <ele>322.765</ele>
        <time>2021-06-16T20:29:22Z</time>
      </trkpt>
      <trkpt lat="36.638393" lon="-4.755373">
        <ele>322.747</ele>
        <time>2021-06-16T20:29:23Z</time>
      </trkpt>
      <trkpt lat="36.638351" lon="-4.7556">
        <ele>323.096</ele>
        <time>2021-06-16T20:29:24Z</time>
      </trkpt>
      <trkpt lat="36.638276" lon="-4.756051">
        <ele>322.940</ele>
        <time>2021-06-16T20:29:26Z</time>
      </trkpt>
      <trkpt lat="36.638243" lon="-4.756274">
        <ele>322.812</ele>
        <time>2021-06-16T20:29:27Z</time>
      </trkpt>
      <trkpt lat="36.638184" lon="-4.756731">
        <ele>322.532</ele>
        <time>2021-06-16T20:29:29Z</time>
      </trkpt>
      <trkpt lat="36.638135" lon="-4.757192">
        <ele>322.305</ele>
        <time>2021-06-16T20:29:31Z</time>
      </trkpt>
      <trkpt lat="36.638093" lon="-4.757644">
        <ele>321.608</ele>
        <time>2021-06-16T20:29:33Z</time>
      </trkpt>
      <trkpt lat="36.638065" lon="-4.758106">
        <ele>320.868</ele>
        <time>2021-06-16T20:29:35Z</time>
      </trkpt>
      <trkpt lat="36.638061" lon="-4.758537">
        <ele>320.057</ele>
        <time>2021-06-16T20:29:37Z</time>
      </trkpt>
      <trkpt lat="36.638067" lon="-4.75874">
        <ele>319.411</ele>
        <time>2021-06-16T20:29:38Z</time>
      </trkpt>
      <trkpt lat="36.63807" lon="-4.758944">
        <ele>318.581</ele>
        <time>2021-06-16T20:29:39Z</time>
      </trkpt>
      <trkpt lat="36.638073" lon="-4.759371">
        <ele>318.537</ele>
        <time>2021-06-16T20:29:41Z</time>
      </trkpt>
      <trkpt lat="36.638076" lon="-4.759807">
        <ele>318.899</ele>
        <time>2021-06-16T20:29:43Z</time>
      </trkpt>
      <trkpt lat="36.63809" lon="-4.760256">
        <ele>319.318</ele>
        <time>2021-06-16T20:29:45Z</time>
      </trkpt>
      <trkpt lat="36.638103" lon="-4.76049">
        <ele>319.782</ele>
        <time>2021-06-16T20:29:46Z</time>
      </trkpt>
      <trkpt lat="36.638123" lon="-4.760723">
        <ele>319.718</ele>
        <time>2021-06-16T20:29:47Z</time>
      </trkpt>
      <trkpt lat="36.638179" lon="-4.761189">
        <ele>319.798</ele>
        <time>2021-06-16T20:29:49Z</time>
      </trkpt>
      <trkpt lat="36.638223" lon="-4.761671">
        <ele>319.117</ele>
        <time>2021-06-16T20:29:51Z</time>
      </trkpt>
      <trkpt lat="36.638247" lon="-4.761909">
        <ele>318.608</ele>
        <time>2021-06-16T20:29:52Z</time>
      </trkpt>
      <trkpt lat="36.638272" lon="-4.762145">
        <ele>318.158</ele>
        <time>2021-06-16T20:29:53Z</time>
      </trkpt>
      <trkpt lat="36.638324" lon="-4.762637">
        <ele>317.687</ele>
        <time>2021-06-16T20:29:55Z</time>
      </trkpt>
      <trkpt lat="36.638369" lon="-4.763129">
        <ele>317.241</ele>
        <time>2021-06-16T20:29:57Z</time>
      </trkpt>
      <trkpt lat="36.638411" lon="-4.763608">
        <ele>316.111</ele>
        <time>2021-06-16T20:29:59Z</time>
      </trkpt>
      <trkpt lat="36.63845" lon="-4.764092">
        <ele>315.497</ele>
        <time>2021-06-16T20:30:01Z</time>
      </trkpt>
      <trkpt lat="36.638476" lon="-4.764583">
        <ele>315.459</ele>
        <time>2021-06-16T20:30:03Z</time>
      </trkpt>
      <trkpt lat="36.638495" lon="-4.765073">
        <ele>314.958</ele>
        <time>2021-06-16T20:30:05Z</time>
      </trkpt>
      <trkpt lat="36.638505" lon="-4.765559">
        <ele>314.742</ele>
        <time>2021-06-16T20:30:07Z</time>
      </trkpt>
      <trkpt lat="36.638505" lon="-4.765803">
        <ele>315.128</ele>
        <time>2021-06-16T20:30:08Z</time>
      </trkpt>
      <trkpt lat="36.638501" lon="-4.766044">
        <ele>315.389</ele>
        <time>2021-06-16T20:30:09Z</time>
      </trkpt>
      <trkpt lat="36.638488" lon="-4.766519">
        <ele>315.617</ele>
        <time>2021-06-16T20:30:11Z</time>
      </trkpt>
      <trkpt lat="36.638476" lon="-4.766991">
        <ele>315.808</ele>
        <time>2021-06-16T20:30:13Z</time>
      </trkpt>
      <trkpt lat="36.638455" lon="-4.76746">
        <ele>315.969</ele>
        <time>2021-06-16T20:30:15Z</time>
      </trkpt>
      <trkpt lat="36.638436" lon="-4.767924">
        <ele>316.318</ele>
        <time>2021-06-16T20:30:17Z</time>
      </trkpt>
      <trkpt lat="36.638426" lon="-4.768159">
        <ele>316.922</ele>
        <time>2021-06-16T20:30:18Z</time>
      </trkpt>
      <trkpt lat="36.638416" lon="-4.768395">
        <ele>317.282</ele>
        <time>2021-06-16T20:30:19Z</time>
      </trkpt>
      <trkpt lat="36.638408" lon="-4.768629">
        <ele>317.718</ele>
        <time>2021-06-16T20:30:20Z</time>
      </trkpt>
      <trkpt lat="36.6384" lon="-4.768863">
        <ele>317.810</ele>
        <time>2021-06-16T20:30:21Z</time>
      </trkpt>
      <trkpt lat="36.638384" lon="-4.769326">
        <ele>317.679</ele>
        <time>2021-06-16T20:30:23Z</time>
      </trkpt>
      <trkpt lat="36.638363" lon="-4.769765">
        <ele>317.953</ele>
        <time>2021-06-16T20:30:25Z</time>
      </trkpt>
      <trkpt lat="36.638349" lon="-4.76998">
        <ele>318.283</ele>
        <time>2021-06-16T20:30:26Z</time>
      </trkpt>
      <trkpt lat="36.638338" lon="-4.770198">
        <ele>318.225</ele>
        <time>2021-06-16T20:30:27Z</time>
      </trkpt>
      <trkpt lat="36.638345" lon="-4.770632">
        <ele>317.417</ele>
        <time>2021-06-16T20:30:29Z</time>
      </trkpt>
      <trkpt lat="36.638418" lon="-4.771049">
        <ele>316.708</ele>
        <time>2021-06-16T20:30:31Z</time>
      </trkpt>
      <trkpt lat="36.638514" lon="-4.771456">
        <ele>315.215</ele>
        <time>2021-06-16T20:30:33Z</time>
      </trkpt>
      <trkpt lat="36.638636" lon="-4.771855">
        <ele>313.614</ele>
        <time>2021-06-16T20:30:35Z</time>
      </trkpt>
      <trkpt lat="36.638799" lon="-4.77227">
        <ele>311.768</ele>
        <time>2021-06-16T20:30:37Z</time>
      </trkpt>
      <trkpt lat="36.638896" lon="-4.772483">
        <ele>310.048</ele>
        <time>2021-06-16T20:30:38Z</time>
      </trkpt>
      <trkpt lat="36.639122" lon="-4.7729">
        <ele>307.994</ele>
        <time>2021-06-16T20:30:40Z</time>
      </trkpt>
      <trkpt lat="36.639378" lon="-4.773297">
        <ele>305.956</ele>
        <time>2021-06-16T20:30:42Z</time>
      </trkpt>
      <trkpt lat="36.639628" lon="-4.77368">
        <ele>303.565</ele>
        <time>2021-06-16T20:30:44Z</time>
      </trkpt>
      <trkpt lat="36.639737" lon="-4.773884">
        <ele>301.559</ele>
        <time>2021-06-16T20:30:45Z</time>
      </trkpt>
      <trkpt lat="36.639924" lon="-4.774315">
        <ele>299.763</ele>
        <time>2021-06-16T20:30:47Z</time>
      </trkpt>
      <trkpt lat="36.640084" lon="-4.774773">
        <ele>297.944</ele>
        <time>2021-06-16T20:30:49Z</time>
      </trkpt>
      <trkpt lat="36.640206" lon="-4.775232">
        <ele>296.018</ele>
        <time>2021-06-16T20:30:51Z</time>
      </trkpt>
      <trkpt lat="36.64025" lon="-4.775462">
        <ele>294.608</ele>
        <time>2021-06-16T20:30:52Z</time>
      </trkpt>
      <trkpt lat="36.640303" lon="-4.775943">
        <ele>293.373</ele>
        <time>2021-06-16T20:30:54Z</time>
      </trkpt>
      <trkpt lat="36.64032" lon="-4.776187">
        <ele>292.352</ele>
        <time>2021-06-16T20:30:55Z</time>
      </trkpt>
      <trkpt lat="36.640358" lon="-4.776669">
        <ele>291.686</ele>
        <time>2021-06-16T20:30:57Z</time>
      </trkpt>
      <trkpt lat="36.640381" lon="-4.776905">
        <ele>291.286</ele>
        <time>2021-06-16T20:30:58Z</time>
      </trkpt>
      <trkpt lat="36.640408" lon="-4.777139">
        <ele>291.142</ele>
        <time>2021-06-16T20:30:59Z</time>
      </trkpt>
      <trkpt lat="36.640453" lon="-4.777608">
        <ele>290.394</ele>
        <time>2021-06-16T20:31:01Z</time>
      </trkpt>
      <trkpt lat="36.640476" lon="-4.777844">
        <ele>289.913</ele>
        <time>2021-06-16T20:31:02Z</time>
      </trkpt>
      <trkpt lat="36.640511" lon="-4.77832">
        <ele>289.517</ele>
        <time>2021-06-16T20:31:04Z</time>
      </trkpt>
      <trkpt lat="36.640548" lon="-4.778807">
        <ele>288.461</ele>
        <time>2021-06-16T20:31:06Z</time>
      </trkpt>
      <trkpt lat="36.640568" lon="-4.779302">
        <ele>287.821</ele>
        <time>2021-06-16T20:31:08Z</time>
      </trkpt>
      <trkpt lat="36.640523" lon="-4.779799">
        <ele>287.813</ele>
        <time>2021-06-16T20:31:10Z</time>
      </trkpt>
      <trkpt lat="36.6404" lon="-4.780277">
        <ele>287.908</ele>
        <time>2021-06-16T20:31:12Z</time>
      </trkpt>
      <trkpt lat="36.640312" lon="-4.7805">
        <ele>288.323</ele>
        <time>2021-06-16T20:31:13Z</time>
      </trkpt>
      <trkpt lat="36.640092" lon="-4.780898">
        <ele>288.912</ele>
        <time>2021-06-16T20:31:15Z</time>
      </trkpt>
      <trkpt lat="36.639964" lon="-4.781073">
        <ele>289.546</ele>
        <time>2021-06-16T20:31:16Z</time>
      </trkpt>
      <trkpt lat="36.639695" lon="-4.781391">
        <ele>291.016</ele>
        <time>2021-06-16T20:31:18Z</time>
      </trkpt>
      <trkpt lat="36.639423" lon="-4.781696">
        <ele>293.042</ele>
        <time>2021-06-16T20:31:20Z</time>
      </trkpt>
      <trkpt lat="36.639156" lon="-4.782004">
        <ele>295.664</ele>
        <time>2021-06-16T20:31:22Z</time>
      </trkpt>
      <trkpt lat="36.638892" lon="-4.782313">
        <ele>298.453</ele>
        <time>2021-06-16T20:31:24Z</time>
      </trkpt>
      <trkpt lat="36.638655" lon="-4.782645">
        <ele>301.027</ele>
        <time>2021-06-16T20:31:26Z</time>
      </trkpt>
      <trkpt lat="36.638459" lon="-4.783021">
        <ele>303.872</ele>
        <time>2021-06-16T20:31:28Z</time>
      </trkpt>
      <trkpt lat="36.638384" lon="-4.783225">
        <ele>305.713</ele>
        <time>2021-06-16T20:31:29Z</time>
      </trkpt>
      <trkpt lat="36.638277" lon="-4.783655">
        <ele>307.214</ele>
        <time>2021-06-16T20:31:31Z</time>
      </trkpt>
      <trkpt lat="36.638254" lon="-4.783882">
        <ele>308.408</ele>
        <time>2021-06-16T20:31:32Z</time>
      </trkpt>
      <trkpt lat="36.638254" lon="-4.784341">
        <ele>310.094</ele>
        <time>2021-06-16T20:31:34Z</time>
      </trkpt>
      <trkpt lat="36.638309" lon="-4.784797">
        <ele>311.663</ele>
        <time>2021-06-16T20:31:36Z</time>
      </trkpt>
      <trkpt lat="36.638377" lon="-4.785254">
        <ele>313.077</ele>
        <time>2021-06-16T20:31:38Z</time>
      </trkpt>
      <trkpt lat="36.638414" lon="-4.785485">
        <ele>313.827</ele>
        <time>2021-06-16T20:31:39Z</time>
      </trkpt>
      <trkpt lat="36.63848" lon="-4.785961">
        <ele>314.583</ele>
        <time>2021-06-16T20:31:41Z</time>
      </trkpt>
      <trkpt lat="36.638515" lon="-4.786452">
        <ele>314.945</ele>
        <time>2021-06-16T20:31:43Z</time>
      </trkpt>
      <trkpt lat="36.638522" lon="-4.786947">
        <ele>315.864</ele>
        <time>2021-06-16T20:31:45Z</time>
      </trkpt>
      <trkpt lat="36.638517" lon="-4.787197">
        <ele>316.118</ele>
        <time>2021-06-16T20:31:46Z</time>
      </trkpt>
      <trkpt lat="36.638491" lon="-4.787693">
        <ele>316.121</ele>
        <time>2021-06-16T20:31:48Z</time>
      </trkpt>
      <trkpt lat="36.638469" lon="-4.787937">
        <ele>316.241</ele>
        <time>2021-06-16T20:31:49Z</time>
      </trkpt>
      <trkpt lat="36.638439" lon="-4.788177">
        <ele>316.105</ele>
        <time>2021-06-16T20:31:50Z</time>
      </trkpt>
      <trkpt lat="36.638358" lon="-4.788658">
        <ele>316.308</ele>
        <time>2021-06-16T20:31:52Z</time>
      </trkpt>
      <trkpt lat="36.638313" lon="-4.788897">
        <ele>316.089</ele>
        <time>2021-06-16T20:31:53Z</time>
      </trkpt>
      <trkpt lat="36.638266" lon="-4.789136">
        <ele>316.028</ele>
        <time>2021-06-16T20:31:54Z</time>
      </trkpt>
      <trkpt lat="36.638167" lon="-4.789613">
        <ele>316.852</ele>
        <time>2021-06-16T20:31:56Z</time>
      </trkpt>
      <trkpt lat="36.638063" lon="-4.79009">
        <ele>317.852</ele>
        <time>2021-06-16T20:31:58Z</time>
      </trkpt>
      <trkpt lat="36.637964" lon="-4.790565">
        <ele>319.218</ele>
        <time>2021-06-16T20:32:00Z</time>
      </trkpt>
      <trkpt lat="36.637915" lon="-4.790802">
        <ele>320.440</ele>
        <time>2021-06-16T20:32:01Z</time>
      </trkpt>
      <trkpt lat="36.637866" lon="-4.791038">
        <ele>321.549</ele>
        <time>2021-06-16T20:32:02Z</time>
      </trkpt>
      <trkpt lat="36.637765" lon="-4.791528">
        <ele>323.253</ele>
        <time>2021-06-16T20:32:04Z</time>
      </trkpt>
      <trkpt lat="36.637706" lon="-4.791802">
        <ele>324.514</ele>
        <time>2021-06-16T20:32:05Z</time>
      </trkpt>
      <trkpt lat="36.637644" lon="-4.792099">
        <ele>326.054</ele>
        <time>2021-06-16T20:32:06Z</time>
      </trkpt>
      <trkpt lat="36.637588" lon="-4.792417">
        <ele>327.309</ele>
        <time>2021-06-16T20:32:07Z</time>
      </trkpt>
      <trkpt lat="36.637493" lon="-4.793082">
        <ele>329.108</ele>
        <time>2021-06-16T20:32:09Z</time>
      </trkpt>
      <trkpt lat="36.637458" lon="-4.793401">
        <ele>330.738</ele>
        <time>2021-06-16T20:32:10Z</time>
      </trkpt>
      <trkpt lat="36.637424" lon="-4.79399">
        <ele>332.557</ele>
        <time>2021-06-16T20:32:12Z</time>
      </trkpt>
      <trkpt lat="36.637418" lon="-4.794265">
        <ele>334.221</ele>
        <time>2021-06-16T20:32:13Z</time>
      </trkpt>
      <trkpt lat="36.637416" lon="-4.794529">
        <ele>335.031</ele>
        <time>2021-06-16T20:32:14Z</time>
      </trkpt>
      <trkpt lat="36.637436" lon="-4.795022">
        <ele>336.157</ele>
        <time>2021-06-16T20:32:16Z</time>
      </trkpt>
      <trkpt lat="36.637474" lon="-4.795502">
        <ele>336.939</ele>
        <time>2021-06-16T20:32:18Z</time>
      </trkpt>
      <trkpt lat="36.6375" lon="-4.795745">
        <ele>337.058</ele>
        <time>2021-06-16T20:32:19Z</time>
      </trkpt>
      <trkpt lat="36.637566" lon="-4.796226">
        <ele>337.392</ele>
        <time>2021-06-16T20:32:21Z</time>
      </trkpt>
      <trkpt lat="36.637632" lon="-4.796708">
        <ele>336.841</ele>
        <time>2021-06-16T20:32:23Z</time>
      </trkpt>
      <trkpt lat="36.637664" lon="-4.79695">
        <ele>335.981</ele>
        <time>2021-06-16T20:32:24Z</time>
      </trkpt>
      <trkpt lat="36.637702" lon="-4.797193">
        <ele>335.209</ele>
        <time>2021-06-16T20:32:25Z</time>
      </trkpt>
      <trkpt lat="36.637743" lon="-4.797436">
        <ele>334.308</ele>
        <time>2021-06-16T20:32:26Z</time>
      </trkpt>
      <trkpt lat="36.637836" lon="-4.797928">
        <ele>332.531</ele>
        <time>2021-06-16T20:32:28Z</time>
      </trkpt>
      <trkpt lat="36.637926" lon="-4.798428">
        <ele>331.120</ele>
        <time>2021-06-16T20:32:30Z</time>
      </trkpt>
      <trkpt lat="36.637967" lon="-4.79868">
        <ele>329.934</ele>
        <time>2021-06-16T20:32:31Z</time>
      </trkpt>
      <trkpt lat="36.638035" lon="-4.799166">
        <ele>328.834</ele>
        <time>2021-06-16T20:32:33Z</time>
      </trkpt>
      <trkpt lat="36.638054" lon="-4.799411">
        <ele>327.670</ele>
        <time>2021-06-16T20:32:34Z</time>
      </trkpt>
      <trkpt lat="36.638064" lon="-4.799659">
        <ele>326.942</ele>
        <time>2021-06-16T20:32:35Z</time>
      </trkpt>
      <trkpt lat="36.638069" lon="-4.800132">
        <ele>326.211</ele>
        <time>2021-06-16T20:32:37Z</time>
      </trkpt>
      <trkpt lat="36.638065" lon="-4.800367">
        <ele>326.225</ele>
        <time>2021-06-16T20:32:38Z</time>
      </trkpt>
      <trkpt lat="36.638059" lon="-4.8006">
        <ele>326.188</ele>
        <time>2021-06-16T20:32:39Z</time>
      </trkpt>
      <trkpt lat="36.638037" lon="-4.801047">
        <ele>326.024</ele>
        <time>2021-06-16T20:32:41Z</time>
      </trkpt>
      <trkpt lat="36.638017" lon="-4.801266">
        <ele>326.326</ele>
        <time>2021-06-16T20:32:42Z</time>
      </trkpt>
      <trkpt lat="36.637961" lon="-4.8017">
        <ele>326.108</ele>
        <time>2021-06-16T20:32:44Z</time>
      </trkpt>
      <trkpt lat="36.63793" lon="-4.801918">
        <ele>325.965</ele>
        <time>2021-06-16T20:32:45Z</time>
      </trkpt>
      <trkpt lat="36.637852" lon="-4.802345">
        <ele>325.444</ele>
        <time>2021-06-16T20:32:47Z</time>
      </trkpt>
      <trkpt lat="36.637806" lon="-4.802558">
        <ele>325.228</ele>
        <time>2021-06-16T20:32:48Z</time>
      </trkpt>
      <trkpt lat="36.637706" lon="-4.802972">
        <ele>325.388</ele>
        <time>2021-06-16T20:32:50Z</time>
      </trkpt>
      <trkpt lat="36.637648" lon="-4.803178">
        <ele>325.494</ele>
        <time>2021-06-16T20:32:51Z</time>
      </trkpt>
      <trkpt lat="36.637584" lon="-4.803383">
        <ele>325.716</ele>
        <time>2021-06-16T20:32:52Z</time>
      </trkpt>
      <trkpt lat="36.637454" lon="-4.803786">
        <ele>325.575</ele>
        <time>2021-06-16T20:32:54Z</time>
      </trkpt>
      <trkpt lat="36.637392" lon="-4.803987">
        <ele>325.599</ele>
        <time>2021-06-16T20:32:55Z</time>
      </trkpt>
      <trkpt lat="36.637267" lon="-4.804394">
        <ele>325.012</ele>
        <time>2021-06-16T20:32:57Z</time>
      </trkpt>
      <trkpt lat="36.637153" lon="-4.804804">
        <ele>325.232</ele>
        <time>2021-06-16T20:32:59Z</time>
      </trkpt>
      <trkpt lat="36.637043" lon="-4.805225">
        <ele>325.205</ele>
        <time>2021-06-16T20:33:01Z</time>
      </trkpt>
      <trkpt lat="36.636991" lon="-4.805434">
        <ele>325.608</ele>
        <time>2021-06-16T20:33:02Z</time>
      </trkpt>
      <trkpt lat="36.6369" lon="-4.805856">
        <ele>326.348</ele>
        <time>2021-06-16T20:33:04Z</time>
      </trkpt>
      <trkpt lat="36.636821" lon="-4.806282">
        <ele>328.027</ele>
        <time>2021-06-16T20:33:06Z</time>
      </trkpt>
      <trkpt lat="36.636748" lon="-4.806709">
        <ele>329.481</ele>
        <time>2021-06-16T20:33:08Z</time>
      </trkpt>
      <trkpt lat="36.636715" lon="-4.806922">
        <ele>330.511</ele>
        <time>2021-06-16T20:33:09Z</time>
      </trkpt>
      <trkpt lat="36.636682" lon="-4.807137">
        <ele>331.577</ele>
        <time>2021-06-16T20:33:10Z</time>
      </trkpt>
      <trkpt lat="36.636625" lon="-4.80757">
        <ele>332.759</ele>
        <time>2021-06-16T20:33:12Z</time>
      </trkpt>
      <trkpt lat="36.636601" lon="-4.807784">
        <ele>333.778</ele>
        <time>2021-06-16T20:33:13Z</time>
      </trkpt>
      <trkpt lat="36.636556" lon="-4.808219">
        <ele>334.072</ele>
        <time>2021-06-16T20:33:15Z</time>
      </trkpt>
      <trkpt lat="36.636526" lon="-4.80866">
        <ele>334.149</ele>
        <time>2021-06-16T20:33:17Z</time>
      </trkpt>
      <trkpt lat="36.636502" lon="-4.809106">
        <ele>334.202</ele>
        <time>2021-06-16T20:33:19Z</time>
      </trkpt>
      <trkpt lat="36.636495" lon="-4.809334">
        <ele>334.122</ele>
        <time>2021-06-16T20:33:20Z</time>
      </trkpt>
      <trkpt lat="36.636485" lon="-4.8098">
        <ele>334.208</ele>
        <time>2021-06-16T20:33:22Z</time>
      </trkpt>
      <trkpt lat="36.636483" lon="-4.810036">
        <ele>334.311</ele>
        <time>2021-06-16T20:33:23Z</time>
      </trkpt>
      <trkpt lat="36.636493" lon="-4.810498">
        <ele>333.560</ele>
        <time>2021-06-16T20:33:25Z</time>
      </trkpt>
      <trkpt lat="36.6365" lon="-4.810723">
        <ele>332.424</ele>
        <time>2021-06-16T20:33:26Z</time>
      </trkpt>
      <trkpt lat="36.636508" lon="-4.81095">
        <ele>332.064</ele>
        <time>2021-06-16T20:33:27Z</time>
      </trkpt>
      <trkpt lat="36.636507" lon="-4.811188">
        <ele>331.140</ele>
        <time>2021-06-16T20:33:28Z</time>
      </trkpt>
      <trkpt lat="36.636511" lon="-4.811427">
        <ele>330.562</ele>
        <time>2021-06-16T20:33:29Z</time>
      </trkpt>
      <trkpt lat="36.63652" lon="-4.811897">
        <ele>329.641</ele>
        <time>2021-06-16T20:33:31Z</time>
      </trkpt>
      <trkpt lat="36.636524" lon="-4.812129">
        <ele>329.075</ele>
        <time>2021-06-16T20:33:32Z</time>
      </trkpt>
      <trkpt lat="36.636529" lon="-4.812352">
        <ele>328.234</ele>
        <time>2021-06-16T20:33:33Z</time>
      </trkpt>
      <trkpt lat="36.636535" lon="-4.812788">
        <ele>327.255</ele>
        <time>2021-06-16T20:33:35Z</time>
      </trkpt>
      <trkpt lat="36.636535" lon="-4.813012">
        <ele>326.510</ele>
        <time>2021-06-16T20:33:36Z</time>
      </trkpt>
      <trkpt lat="36.636532" lon="-4.813238">
        <ele>325.608</ele>
        <time>2021-06-16T20:33:37Z</time>
      </trkpt>
      <trkpt lat="36.636523" lon="-4.813468">
        <ele>325.390</ele>
        <time>2021-06-16T20:33:38Z</time>
      </trkpt>
      <trkpt lat="36.636474" lon="-4.81392">
        <ele>324.819</ele>
        <time>2021-06-16T20:33:40Z</time>
      </trkpt>
      <trkpt lat="36.636387" lon="-4.814366">
        <ele>324.143</ele>
        <time>2021-06-16T20:33:42Z</time>
      </trkpt>
      <trkpt lat="36.636264" lon="-4.8148">
        <ele>323.353</ele>
        <time>2021-06-16T20:33:44Z</time>
      </trkpt>
      <trkpt lat="36.636102" lon="-4.815222">
        <ele>322.819</ele>
        <time>2021-06-16T20:33:46Z</time>
      </trkpt>
      <trkpt lat="36.636009" lon="-4.815427">
        <ele>322.521</ele>
        <time>2021-06-16T20:33:47Z</time>
      </trkpt>
      <trkpt lat="36.635794" lon="-4.815809">
        <ele>322.270</ele>
        <time>2021-06-16T20:33:49Z</time>
      </trkpt>
      <trkpt lat="36.635672" lon="-4.815991">
        <ele>322.084</ele>
        <time>2021-06-16T20:33:50Z</time>
      </trkpt>
      <trkpt lat="36.63542" lon="-4.81634">
        <ele>321.981</ele>
        <time>2021-06-16T20:33:52Z</time>
      </trkpt>
      <trkpt lat="36.635293" lon="-4.816506">
        <ele>321.961</ele>
        <time>2021-06-16T20:33:53Z</time>
      </trkpt>
      <trkpt lat="36.635038" lon="-4.816839">
        <ele>322.217</ele>
        <time>2021-06-16T20:33:55Z</time>
      </trkpt>
      <trkpt lat="36.634912" lon="-4.817007">
        <ele>322.808</ele>
        <time>2021-06-16T20:33:56Z</time>
      </trkpt>
      <trkpt lat="36.634679" lon="-4.817353">
        <ele>323.895</ele>
        <time>2021-06-16T20:33:58Z</time>
      </trkpt>
      <trkpt lat="36.63457" lon="-4.817532">
        <ele>324.894</ele>
        <time>2021-06-16T20:33:59Z</time>
      </trkpt>
      <trkpt lat="36.634359" lon="-4.817892">
        <ele>326.058</ele>
        <time>2021-06-16T20:34:01Z</time>
      </trkpt>
      <trkpt lat="36.634164" lon="-4.818263">
        <ele>327.698</ele>
        <time>2021-06-16T20:34:03Z</time>
      </trkpt>
      <trkpt lat="36.634001" lon="-4.818647">
        <ele>329.664</ele>
        <time>2021-06-16T20:34:05Z</time>
      </trkpt>
      <trkpt lat="36.633856" lon="-4.819039">
        <ele>331.976</ele>
        <time>2021-06-16T20:34:07Z</time>
      </trkpt>
      <trkpt lat="36.633722" lon="-4.819428">
        <ele>334.395</ele>
        <time>2021-06-16T20:34:09Z</time>
      </trkpt>
      <trkpt lat="36.633587" lon="-4.819819">
        <ele>336.789</ele>
        <time>2021-06-16T20:34:11Z</time>
      </trkpt>
      <trkpt lat="36.633513" lon="-4.820012">
        <ele>338.928</ele>
        <time>2021-06-16T20:34:12Z</time>
      </trkpt>
      <trkpt lat="36.633339" lon="-4.820391">
        <ele>341.089</ele>
        <time>2021-06-16T20:34:14Z</time>
      </trkpt>
      <trkpt lat="36.633226" lon="-4.82057">
        <ele>342.717</ele>
        <time>2021-06-16T20:34:15Z</time>
      </trkpt>
      <trkpt lat="36.63298" lon="-4.8209">
        <ele>344.508</ele>
        <time>2021-06-16T20:34:17Z</time>
      </trkpt>
      <trkpt lat="36.632845" lon="-4.821054">
        <ele>346.069</ele>
        <time>2021-06-16T20:34:18Z</time>
      </trkpt>
      <trkpt lat="36.632701" lon="-4.821195">
        <ele>347.578</ele>
        <time>2021-06-16T20:34:19Z</time>
      </trkpt>
      <trkpt lat="36.632389" lon="-4.821438">
        <ele>349.662</ele>
        <time>2021-06-16T20:34:21Z</time>
      </trkpt>
      <trkpt lat="36.632221" lon="-4.821542">
        <ele>351.482</ele>
        <time>2021-06-16T20:34:22Z</time>
      </trkpt>
      <trkpt lat="36.63187" lon="-4.82171">
        <ele>353.488</ele>
        <time>2021-06-16T20:34:24Z</time>
      </trkpt>
      <trkpt lat="36.631501" lon="-4.821818">
        <ele>355.670</ele>
        <time>2021-06-16T20:34:26Z</time>
      </trkpt>
      <trkpt lat="36.631134" lon="-4.821913">
        <ele>358.269</ele>
        <time>2021-06-16T20:34:28Z</time>
      </trkpt>
      <trkpt lat="36.630954" lon="-4.821974">
        <ele>360.373</ele>
        <time>2021-06-16T20:34:29Z</time>
      </trkpt>
      <trkpt lat="36.630604" lon="-4.822129">
        <ele>362.693</ele>
        <time>2021-06-16T20:34:31Z</time>
      </trkpt>
      <trkpt lat="36.630275" lon="-4.82234">
        <ele>365.065</ele>
        <time>2021-06-16T20:34:33Z</time>
      </trkpt>
      <trkpt lat="36.630117" lon="-4.822468">
        <ele>367.021</ele>
        <time>2021-06-16T20:34:34Z</time>
      </trkpt>
      <trkpt lat="36.629826" lon="-4.82276">
        <ele>369.308</ele>
        <time>2021-06-16T20:34:36Z</time>
      </trkpt>
      <trkpt lat="36.629695" lon="-4.822926">
        <ele>371.256</ele>
        <time>2021-06-16T20:34:37Z</time>
      </trkpt>
      <trkpt lat="36.629574" lon="-4.823103">
        <ele>372.845</ele>
        <time>2021-06-16T20:34:38Z</time>
      </trkpt>
      <trkpt lat="36.629361" lon="-4.823485">
        <ele>375.029</ele>
        <time>2021-06-16T20:34:40Z</time>
      </trkpt>
      <trkpt lat="36.629271" lon="-4.82369">
        <ele>376.749</ele>
        <time>2021-06-16T20:34:41Z</time>
      </trkpt>
      <trkpt lat="36.629133" lon="-4.824117">
        <ele>378.715</ele>
        <time>2021-06-16T20:34:43Z</time>
      </trkpt>
      <trkpt lat="36.629076" lon="-4.824334">
        <ele>380.277</ele>
        <time>2021-06-16T20:34:44Z</time>
      </trkpt>
      <trkpt lat="36.629034" lon="-4.824554">
        <ele>381.066</ele>
        <time>2021-06-16T20:34:45Z</time>
      </trkpt>
      <trkpt lat="36.629008" lon="-4.824779">
        <ele>382.380</ele>
        <time>2021-06-16T20:34:46Z</time>
      </trkpt>
      <trkpt lat="36.628997" lon="-4.825004">
        <ele>383.811</ele>
        <time>2021-06-16T20:34:47Z</time>
      </trkpt>
      <trkpt lat="36.628994" lon="-4.82523">
        <ele>385.121</ele>
        <time>2021-06-16T20:34:48Z</time>
      </trkpt>
      <trkpt lat="36.628999" lon="-4.825682">
        <ele>387.203</ele>
        <time>2021-06-16T20:34:50Z</time>
      </trkpt>
      <trkpt lat="36.629004" lon="-4.82591">
        <ele>389.008</ele>
        <time>2021-06-16T20:34:51Z</time>
      </trkpt>
      <trkpt lat="36.62899" lon="-4.82636">
        <ele>390.978</ele>
        <time>2021-06-16T20:34:53Z</time>
      </trkpt>
      <trkpt lat="36.628968" lon="-4.826583">
        <ele>392.567</ele>
        <time>2021-06-16T20:34:54Z</time>
      </trkpt>
      <trkpt lat="36.628932" lon="-4.826804">
        <ele>393.551</ele>
        <time>2021-06-16T20:34:55Z</time>
      </trkpt>
      <trkpt lat="36.62883" lon="-4.82724">
        <ele>395.371</ele>
        <time>2021-06-16T20:34:57Z</time>
      </trkpt>
      <trkpt lat="36.628765" lon="-4.827457">
        <ele>396.697</ele>
        <time>2021-06-16T20:34:58Z</time>
      </trkpt>
      <trkpt lat="36.628623" lon="-4.827886">
        <ele>398.179</ele>
        <time>2021-06-16T20:35:00Z</time>
      </trkpt>
      <trkpt lat="36.628548" lon="-4.828098">
        <ele>399.728</ele>
        <time>2021-06-16T20:35:01Z</time>
      </trkpt>
      <trkpt lat="36.628412" lon="-4.828531">
        <ele>402.152</ele>
        <time>2021-06-16T20:35:03Z</time>
      </trkpt>
      <trkpt lat="36.628339" lon="-4.828983">
        <ele>404.425</ele>
        <time>2021-06-16T20:35:05Z</time>
      </trkpt>
      <trkpt lat="36.628317" lon="-4.829216">
        <ele>406.126</ele>
        <time>2021-06-16T20:35:06Z</time>
      </trkpt>
      <trkpt lat="36.628297" lon="-4.829448">
        <ele>406.908</ele>
        <time>2021-06-16T20:35:07Z</time>
      </trkpt>
      <trkpt lat="36.628269" lon="-4.829914">
        <ele>408.308</ele>
        <time>2021-06-16T20:35:09Z</time>
      </trkpt>
      <trkpt lat="36.628254" lon="-4.830362">
        <ele>410.059</ele>
        <time>2021-06-16T20:35:11Z</time>
      </trkpt>
      <trkpt lat="36.62824" lon="-4.830569">
        <ele>410.828</ele>
        <time>2021-06-16T20:35:12Z</time>
      </trkpt>
      <trkpt lat="36.628191" lon="-4.830926">
        <ele>411.722</ele>
        <time>2021-06-16T20:35:14Z</time>
      </trkpt>
      <trkpt lat="36.628098" lon="-4.831266">
        <ele>412.242</ele>
        <time>2021-06-16T20:35:16Z</time>
      </trkpt>
      <trkpt lat="36.628036" lon="-4.831443">
        <ele>411.928</ele>
        <time>2021-06-16T20:35:17Z</time>
      </trkpt>
      <trkpt lat="36.627961" lon="-4.831626">
        <ele>411.110</ele>
        <time>2021-06-16T20:35:18Z</time>
      </trkpt>
      <trkpt lat="36.627777" lon="-4.83199">
        <ele>410.459</ele>
        <time>2021-06-16T20:35:20Z</time>
      </trkpt>
      <trkpt lat="36.627674" lon="-4.832169">
        <ele>410.093</ele>
        <time>2021-06-16T20:35:21Z</time>
      </trkpt>
      <trkpt lat="36.627565" lon="-4.832343">
        <ele>410.091</ele>
        <time>2021-06-16T20:35:22Z</time>
      </trkpt>
      <trkpt lat="36.627334" lon="-4.832677">
        <ele>409.881</ele>
        <time>2021-06-16T20:35:24Z</time>
      </trkpt>
      <trkpt lat="36.627088" lon="-4.832994">
        <ele>409.219</ele>
        <time>2021-06-16T20:35:26Z</time>
      </trkpt>
      <trkpt lat="36.626959" lon="-4.833153">
        <ele>409.208</ele>
        <time>2021-06-16T20:35:27Z</time>
      </trkpt>
      <trkpt lat="36.626831" lon="-4.833311">
        <ele>409.656</ele>
        <time>2021-06-16T20:35:28Z</time>
      </trkpt>
      <trkpt lat="36.62671" lon="-4.833471">
        <ele>410.315</ele>
        <time>2021-06-16T20:35:29Z</time>
      </trkpt>
      <trkpt lat="36.626476" lon="-4.833794">
        <ele>412.219</ele>
        <time>2021-06-16T20:35:31Z</time>
      </trkpt>
      <trkpt lat="36.626262" lon="-4.834138">
        <ele>414.089</ele>
        <time>2021-06-16T20:35:33Z</time>
      </trkpt>
      <trkpt lat="36.626168" lon="-4.834319">
        <ele>415.675</ele>
        <time>2021-06-16T20:35:34Z</time>
      </trkpt>
      <trkpt lat="36.626016" lon="-4.834705">
        <ele>417.447</ele>
        <time>2021-06-16T20:35:36Z</time>
      </trkpt>
      <trkpt lat="36.625961" lon="-4.83491">
        <ele>418.586</ele>
        <time>2021-06-16T20:35:37Z</time>
      </trkpt>
      <trkpt lat="36.625885" lon="-4.835333">
        <ele>420.120</ele>
        <time>2021-06-16T20:35:39Z</time>
      </trkpt>
      <trkpt lat="36.625831" lon="-4.83578">
        <ele>422.077</ele>
        <time>2021-06-16T20:35:41Z</time>
      </trkpt>
      <trkpt lat="36.625811" lon="-4.836008">
        <ele>423.461</ele>
        <time>2021-06-16T20:35:42Z</time>
      </trkpt>
      <trkpt lat="36.625789" lon="-4.836466">
        <ele>424.827</ele>
        <time>2021-06-16T20:35:44Z</time>
      </trkpt>
      <trkpt lat="36.62576" lon="-4.836929">
        <ele>425.508</ele>
        <time>2021-06-16T20:35:46Z</time>
      </trkpt>
      <trkpt lat="36.625732" lon="-4.837391">
        <ele>426.824</ele>
        <time>2021-06-16T20:35:48Z</time>
      </trkpt>
      <trkpt lat="36.62572" lon="-4.837619">
        <ele>427.813</ele>
        <time>2021-06-16T20:35:49Z</time>
      </trkpt>
      <trkpt lat="36.625703" lon="-4.837847">
        <ele>428.667</ele>
        <time>2021-06-16T20:35:50Z</time>
      </trkpt>
      <trkpt lat="36.625678" lon="-4.838076">
        <ele>429.097</ele>
        <time>2021-06-16T20:35:51Z</time>
      </trkpt>
      <trkpt lat="36.625629" lon="-4.83853">
        <ele>429.923</ele>
        <time>2021-06-16T20:35:53Z</time>
      </trkpt>
      <trkpt lat="36.625597" lon="-4.838761">
        <ele>430.815</ele>
        <time>2021-06-16T20:35:54Z</time>
      </trkpt>
      <trkpt lat="36.625561" lon="-4.838994">
        <ele>431.794</ele>
        <time>2021-06-16T20:35:55Z</time>
      </trkpt>
      <trkpt lat="36.625487" lon="-4.839457">
        <ele>433.028</ele>
        <time>2021-06-16T20:35:57Z</time>
      </trkpt>
      <trkpt lat="36.625401" lon="-4.83992">
        <ele>434.784</ele>
        <time>2021-06-16T20:35:59Z</time>
      </trkpt>
      <trkpt lat="36.625308" lon="-4.84038">
        <ele>436.107</ele>
        <time>2021-06-16T20:36:01Z</time>
      </trkpt>
      <trkpt lat="36.62526" lon="-4.840608">
        <ele>437.917</ele>
        <time>2021-06-16T20:36:02Z</time>
      </trkpt>
      <trkpt lat="36.625162" lon="-4.841053">
        <ele>440.708</ele>
        <time>2021-06-16T20:36:04Z</time>
      </trkpt>
      <trkpt lat="36.625049" lon="-4.841494">
        <ele>443.295</ele>
        <time>2021-06-16T20:36:06Z</time>
      </trkpt>
      <trkpt lat="36.624988" lon="-4.841712">
        <ele>444.854</ele>
        <time>2021-06-16T20:36:07Z</time>
      </trkpt>
      <trkpt lat="36.624865" lon="-4.842146">
        <ele>446.178</ele>
        <time>2021-06-16T20:36:09Z</time>
      </trkpt>
      <trkpt lat="36.624799" lon="-4.842364">
        <ele>446.958</ele>
        <time>2021-06-16T20:36:10Z</time>
      </trkpt>
      <trkpt lat="36.624661" lon="-4.842788">
        <ele>448.424</ele>
        <time>2021-06-16T20:36:12Z</time>
      </trkpt>
      <trkpt lat="36.624512" lon="-4.843207">
        <ele>450.096</ele>
        <time>2021-06-16T20:36:14Z</time>
      </trkpt>
      <trkpt lat="36.624426" lon="-4.843412">
        <ele>451.165</ele>
        <time>2021-06-16T20:36:15Z</time>
      </trkpt>
      <trkpt lat="36.62434" lon="-4.843617">
        <ele>451.729</ele>
        <time>2021-06-16T20:36:16Z</time>
      </trkpt>
      <trkpt lat="36.62419" lon="-4.844029">
        <ele>452.972</ele>
        <time>2021-06-16T20:36:18Z</time>
      </trkpt>
      <trkpt lat="36.624111" lon="-4.84423">
        <ele>454.313</ele>
        <time>2021-06-16T20:36:19Z</time>
      </trkpt>
      <trkpt lat="36.623946" lon="-4.844607">
        <ele>455.514</ele>
        <time>2021-06-16T20:36:21Z</time>
      </trkpt>
      <trkpt lat="36.623858" lon="-4.844797">
        <ele>456.708</ele>
        <time>2021-06-16T20:36:22Z</time>
      </trkpt>
      <trkpt lat="36.623774" lon="-4.844982">
        <ele>457.724</ele>
        <time>2021-06-16T20:36:23Z</time>
      </trkpt>
      <trkpt lat="36.623682" lon="-4.845164">
        <ele>458.263</ele>
        <time>2021-06-16T20:36:24Z</time>
      </trkpt>
      <trkpt lat="36.623486" lon="-4.845535">
        <ele>459.877</ele>
        <time>2021-06-16T20:36:26Z</time>
      </trkpt>
      <trkpt lat="36.623386" lon="-4.845723">
        <ele>461.037</ele>
        <time>2021-06-16T20:36:27Z</time>
      </trkpt>
      <trkpt lat="36.623179" lon="-4.846093">
        <ele>462.013</ele>
        <time>2021-06-16T20:36:29Z</time>
      </trkpt>
      <trkpt lat="36.623075" lon="-4.846278">
        <ele>462.835</ele>
        <time>2021-06-16T20:36:30Z</time>
      </trkpt>
      <trkpt lat="36.622861" lon="-4.846636">
        <ele>463.554</ele>
        <time>2021-06-16T20:36:32Z</time>
      </trkpt>
      <trkpt lat="36.622633" lon="-4.847002">
        <ele>463.618</ele>
        <time>2021-06-16T20:36:34Z</time>
      </trkpt>
      <trkpt lat="36.622521" lon="-4.847178">
        <ele>463.795</ele>
        <time>2021-06-16T20:36:35Z</time>
      </trkpt>
      <trkpt lat="36.622299" lon="-4.847514">
        <ele>463.449</ele>
        <time>2021-06-16T20:36:37Z</time>
      </trkpt>
      <trkpt lat="36.622065" lon="-4.847834">
        <ele>463.223</ele>
        <time>2021-06-16T20:36:39Z</time>
      </trkpt>
      <trkpt lat="36.621937" lon="-4.847989">
        <ele>463.008</ele>
        <time>2021-06-16T20:36:40Z</time>
      </trkpt>
      <trkpt lat="36.621694" lon="-4.848309">
        <ele>462.826</ele>
        <time>2021-06-16T20:36:42Z</time>
      </trkpt>
      <trkpt lat="36.621463" lon="-4.848629">
        <ele>462.275</ele>
        <time>2021-06-16T20:36:44Z</time>
      </trkpt>
      <trkpt lat="36.62134" lon="-4.848785">
        <ele>462.189</ele>
        <time>2021-06-16T20:36:45Z</time>
      </trkpt>
      <trkpt lat="36.621081" lon="-4.849078">
        <ele>461.559</ele>
        <time>2021-06-16T20:36:47Z</time>
      </trkpt>
      <trkpt lat="36.620803" lon="-4.849356">
        <ele>461.275</ele>
        <time>2021-06-16T20:36:49Z</time>
      </trkpt>
      <trkpt lat="36.620524" lon="-4.849641">
        <ele>458.147</ele>
        <time>2021-06-16T20:36:51Z</time>
      </trkpt>
      <trkpt lat="36.62038" lon="-4.849784">
        <ele>455.766</ele>
        <time>2021-06-16T20:36:52Z</time>
      </trkpt>
      <trkpt lat="36.620091" lon="-4.850058">
        <ele>453.490</ele>
        <time>2021-06-16T20:36:54Z</time>
      </trkpt>
      <trkpt lat="36.619782" lon="-4.850284">
        <ele>451.437</ele>
        <time>2021-06-16T20:36:56Z</time>
      </trkpt>
      <trkpt lat="36.619453" lon="-4.850449">
        <ele>449.949</ele>
        <time>2021-06-16T20:36:58Z</time>
      </trkpt>
      <trkpt lat="36.619097" lon="-4.850529">
        <ele>449.113</ele>
        <time>2021-06-16T20:37:00Z</time>
      </trkpt>
      <trkpt lat="36.618725" lon="-4.850516">
        <ele>447.808</ele>
        <time>2021-06-16T20:37:02Z</time>
      </trkpt>
      <trkpt lat="36.618538" lon="-4.850462">
        <ele>446.750</ele>
        <time>2021-06-16T20:37:03Z</time>
      </trkpt>
      <trkpt lat="36.618183" lon="-4.850313">
        <ele>445.019</ele>
        <time>2021-06-16T20:37:05Z</time>
      </trkpt>
      <trkpt lat="36.618012" lon="-4.850212">
        <ele>443.983</ele>
        <time>2021-06-16T20:37:06Z</time>
      </trkpt>
      <trkpt lat="36.617844" lon="-4.850114">
        <ele>443.483</ele>
        <time>2021-06-16T20:37:07Z</time>
      </trkpt>
      <trkpt lat="36.617506" lon="-4.849922">
        <ele>442.869</ele>
        <time>2021-06-16T20:37:09Z</time>
      </trkpt>
      <trkpt lat="36.61733" lon="-4.849843">
        <ele>442.461</ele>
        <time>2021-06-16T20:37:10Z</time>
      </trkpt>
      <trkpt lat="36.616972" lon="-4.849744">
        <ele>442.330</ele>
        <time>2021-06-16T20:37:12Z</time>
      </trkpt>
      <trkpt lat="36.616788" lon="-4.849734">
        <ele>442.424</ele>
        <time>2021-06-16T20:37:13Z</time>
      </trkpt>
      <trkpt lat="36.616417" lon="-4.849769">
        <ele>443.492</ele>
        <time>2021-06-16T20:37:15Z</time>
      </trkpt>
      <trkpt lat="36.616047" lon="-4.849842">
        <ele>444.873</ele>
        <time>2021-06-16T20:37:17Z</time>
      </trkpt>
      <trkpt lat="36.615679" lon="-4.849903">
        <ele>446.320</ele>
        <time>2021-06-16T20:37:19Z</time>
      </trkpt>
      <trkpt lat="36.615494" lon="-4.849908">
        <ele>447.608</ele>
        <time>2021-06-16T20:37:20Z</time>
      </trkpt>
      <trkpt lat="36.615131" lon="-4.849847">
        <ele>449.096</ele>
        <time>2021-06-16T20:37:22Z</time>
      </trkpt>
      <trkpt lat="36.614953" lon="-4.849795">
        <ele>449.915</ele>
        <time>2021-06-16T20:37:23Z</time>
      </trkpt>
      <trkpt lat="36.614604" lon="-4.849692">
        <ele>451.589</ele>
        <time>2021-06-16T20:37:25Z</time>
      </trkpt>
      <trkpt lat="36.61425" lon="-4.849625">
        <ele>452.899</ele>
        <time>2021-06-16T20:37:27Z</time>
      </trkpt>
      <trkpt lat="36.614072" lon="-4.849617">
        <ele>454.325</ele>
        <time>2021-06-16T20:37:28Z</time>
      </trkpt>
      <trkpt lat="36.613894" lon="-4.849626">
        <ele>455.337</ele>
        <time>2021-06-16T20:37:29Z</time>
      </trkpt>
      <trkpt lat="36.613543" lon="-4.849657">
        <ele>456.426</ele>
        <time>2021-06-16T20:37:31Z</time>
      </trkpt>
      <trkpt lat="36.613182" lon="-4.849705">
        <ele>457.170</ele>
        <time>2021-06-16T20:37:33Z</time>
      </trkpt>
      <trkpt lat="36.612819" lon="-4.849754">
        <ele>457.985</ele>
        <time>2021-06-16T20:37:35Z</time>
      </trkpt>
      <trkpt lat="36.612453" lon="-4.849813">
        <ele>459.389</ele>
        <time>2021-06-16T20:37:37Z</time>
      </trkpt>
      <trkpt lat="36.612096" lon="-4.849923">
        <ele>459.917</ele>
        <time>2021-06-16T20:37:39Z</time>
      </trkpt>
      <trkpt lat="36.611754" lon="-4.850093">
        <ele>460.608</ele>
        <time>2021-06-16T20:37:41Z</time>
      </trkpt>
      <trkpt lat="36.61159" lon="-4.850196">
        <ele>461.765</ele>
        <time>2021-06-16T20:37:42Z</time>
      </trkpt>
      <trkpt lat="36.611271" lon="-4.850433">
        <ele>463.074</ele>
        <time>2021-06-16T20:37:44Z</time>
      </trkpt>
      <trkpt lat="36.611115" lon="-4.850563">
        <ele>464.478</ele>
        <time>2021-06-16T20:37:45Z</time>
      </trkpt>
      <trkpt lat="36.61082" lon="-4.850839">
        <ele>466.098</ele>
        <time>2021-06-16T20:37:47Z</time>
      </trkpt>
      <trkpt lat="36.610514" lon="-4.851076">
        <ele>467.394</ele>
        <time>2021-06-16T20:37:49Z</time>
      </trkpt>
      <trkpt lat="36.610173" lon="-4.85123">
        <ele>468.236</ele>
        <time>2021-06-16T20:37:51Z</time>
      </trkpt>
      <trkpt lat="36.609808" lon="-4.851288">
        <ele>469.595</ele>
        <time>2021-06-16T20:37:53Z</time>
      </trkpt>
      <trkpt lat="36.609622" lon="-4.851285">
        <ele>471.129</ele>
        <time>2021-06-16T20:37:54Z</time>
      </trkpt>
      <trkpt lat="36.609436" lon="-4.85126">
        <ele>472.335</ele>
        <time>2021-06-16T20:37:55Z</time>
      </trkpt>
      <trkpt lat="36.609079" lon="-4.85114">
        <ele>473.486</ele>
        <time>2021-06-16T20:37:57Z</time>
      </trkpt>
      <trkpt lat="36.608909" lon="-4.851062">
        <ele>474.214</ele>
        <time>2021-06-16T20:37:58Z</time>
      </trkpt>
      <trkpt lat="36.608566" lon="-4.850886">
        <ele>475.508</ele>
        <time>2021-06-16T20:38:00Z</time>
      </trkpt>
      <trkpt lat="36.608214" lon="-4.850733">
        <ele>477.280</ele>
        <time>2021-06-16T20:38:02Z</time>
      </trkpt>
      <trkpt lat="36.608035" lon="-4.850677">
        <ele>478.919</ele>
        <time>2021-06-16T20:38:03Z</time>
      </trkpt>
      <trkpt lat="36.607674" lon="-4.850615">
        <ele>480.683</ele>
        <time>2021-06-16T20:38:05Z</time>
      </trkpt>
      <trkpt lat="36.607307" lon="-4.850611">
        <ele>482.433</ele>
        <time>2021-06-16T20:38:07Z</time>
      </trkpt>
      <trkpt lat="36.607122" lon="-4.850634">
        <ele>483.829</ele>
        <time>2021-06-16T20:38:08Z</time>
      </trkpt>
      <trkpt lat="36.606755" lon="-4.850716">
        <ele>484.621</ele>
        <time>2021-06-16T20:38:10Z</time>
      </trkpt>
      <trkpt lat="36.606575" lon="-4.850781">
        <ele>484.930</ele>
        <time>2021-06-16T20:38:11Z</time>
      </trkpt>
      <trkpt lat="36.606224" lon="-4.850944">
        <ele>486.054</ele>
        <time>2021-06-16T20:38:13Z</time>
      </trkpt>
      <trkpt lat="36.605876" lon="-4.851121">
        <ele>486.551</ele>
        <time>2021-06-16T20:38:15Z</time>
      </trkpt>
      <trkpt lat="36.605699" lon="-4.851205">
        <ele>487.001</ele>
        <time>2021-06-16T20:38:16Z</time>
      </trkpt>
      <trkpt lat="36.605343" lon="-4.85137">
        <ele>487.111</ele>
        <time>2021-06-16T20:38:18Z</time>
      </trkpt>
      <trkpt lat="36.605165" lon="-4.851455">
        <ele>487.508</ele>
        <time>2021-06-16T20:38:19Z</time>
      </trkpt>
      <trkpt lat="36.604806" lon="-4.851634">
        <ele>488.182</ele>
        <time>2021-06-16T20:38:21Z</time>
      </trkpt>
      <trkpt lat="36.604442" lon="-4.851812">
        <ele>488.771</ele>
        <time>2021-06-16T20:38:23Z</time>
      </trkpt>
      <trkpt lat="36.60426" lon="-4.851902">
        <ele>488.885</ele>
        <time>2021-06-16T20:38:24Z</time>
      </trkpt>
      <trkpt lat="36.604079" lon="-4.85199">
        <ele>489.015</ele>
        <time>2021-06-16T20:38:25Z</time>
      </trkpt>
      <trkpt lat="36.603722" lon="-4.852161">
        <ele>489.461</ele>
        <time>2021-06-16T20:38:27Z</time>
      </trkpt>
      <trkpt lat="36.60337" lon="-4.852333">
        <ele>489.663</ele>
        <time>2021-06-16T20:38:29Z</time>
      </trkpt>
      <trkpt lat="36.603195" lon="-4.85242">
        <ele>489.912</ele>
        <time>2021-06-16T20:38:30Z</time>
      </trkpt>
      <trkpt lat="36.60284" lon="-4.852591">
        <ele>490.236</ele>
        <time>2021-06-16T20:38:32Z</time>
      </trkpt>
      <trkpt lat="36.602483" lon="-4.852758">
        <ele>490.812</ele>
        <time>2021-06-16T20:38:34Z</time>
      </trkpt>
      <trkpt lat="36.602122" lon="-4.852914">
        <ele>491.632</ele>
        <time>2021-06-16T20:38:36Z</time>
      </trkpt>
      <trkpt lat="36.601939" lon="-4.852985">
        <ele>491.905</ele>
        <time>2021-06-16T20:38:37Z</time>
      </trkpt>
      <trkpt lat="36.601754" lon="-4.85305">
        <ele>491.808</ele>
        <time>2021-06-16T20:38:38Z</time>
      </trkpt>
      <trkpt lat="36.601379" lon="-4.853128">
        <ele>492.348</ele>
        <time>2021-06-16T20:38:40Z</time>
      </trkpt>
      <trkpt lat="36.600999" lon="-4.853165">
        <ele>493.317</ele>
        <time>2021-06-16T20:38:42Z</time>
      </trkpt>
      <trkpt lat="36.600623" lon="-4.853198">
        <ele>493.911</ele>
        <time>2021-06-16T20:38:44Z</time>
      </trkpt>
      <trkpt lat="36.600252" lon="-4.85325">
        <ele>494.971</ele>
        <time>2021-06-16T20:38:46Z</time>
      </trkpt>
      <trkpt lat="36.600065" lon="-4.853268">
        <ele>495.217</ele>
        <time>2021-06-16T20:38:47Z</time>
      </trkpt>
      <trkpt lat="36.599879" lon="-4.853285">
        <ele>495.429</ele>
        <time>2021-06-16T20:38:48Z</time>
      </trkpt>
      <trkpt lat="36.599512" lon="-4.853311">
        <ele>496.288</ele>
        <time>2021-06-16T20:38:50Z</time>
      </trkpt>
      <trkpt lat="36.599331" lon="-4.853323">
        <ele>497.292</ele>
        <time>2021-06-16T20:38:51Z</time>
      </trkpt>
      <trkpt lat="36.599151" lon="-4.853332">
        <ele>497.847</ele>
        <time>2021-06-16T20:38:52Z</time>
      </trkpt>
      <trkpt lat="36.598972" lon="-4.85334">
        <ele>498.529</ele>
        <time>2021-06-16T20:38:53Z</time>
      </trkpt>
      <trkpt lat="36.598792" lon="-4.853349">
        <ele>499.021</ele>
        <time>2021-06-16T20:38:54Z</time>
      </trkpt>
      <trkpt lat="36.598428" lon="-4.853356">
        <ele>500.408</ele>
        <time>2021-06-16T20:38:56Z</time>
      </trkpt>
      <trkpt lat="36.598066" lon="-4.853361">
        <ele>501.611</ele>
        <time>2021-06-16T20:38:58Z</time>
      </trkpt>
      <trkpt lat="36.597709" lon="-4.853345">
        <ele>502.380</ele>
        <time>2021-06-16T20:39:00Z</time>
      </trkpt>
      <trkpt lat="36.597529" lon="-4.853328">
        <ele>503.144</ele>
        <time>2021-06-16T20:39:01Z</time>
      </trkpt>
      <trkpt lat="36.597349" lon="-4.853316">
        <ele>503.414</ele>
        <time>2021-06-16T20:39:02Z</time>
      </trkpt>
      <trkpt lat="36.59717" lon="-4.853315">
        <ele>504.090</ele>
        <time>2021-06-16T20:39:03Z</time>
      </trkpt>
      <trkpt lat="36.596813" lon="-4.853312">
        <ele>505.062</ele>
        <time>2021-06-16T20:39:05Z</time>
      </trkpt>
      <trkpt lat="36.596627" lon="-4.853315">
        <ele>505.981</ele>
        <time>2021-06-16T20:39:06Z</time>
      </trkpt>
      <trkpt lat="36.59627" lon="-4.853328">
        <ele>506.945</ele>
        <time>2021-06-16T20:39:08Z</time>
      </trkpt>
      <trkpt lat="36.596093" lon="-4.853339">
        <ele>507.593</ele>
        <time>2021-06-16T20:39:09Z</time>
      </trkpt>
      <trkpt lat="36.595918" lon="-4.853351">
        <ele>508.065</ele>
        <time>2021-06-16T20:39:10Z</time>
      </trkpt>
      <trkpt lat="36.595545" lon="-4.85338">
        <ele>509.121</ele>
        <time>2021-06-16T20:39:12Z</time>
      </trkpt>
      <trkpt lat="36.595169" lon="-4.853412">
        <ele>509.608</ele>
        <time>2021-06-16T20:39:14Z</time>
      </trkpt>
      <trkpt lat="36.594795" lon="-4.85346">
        <ele>509.816</ele>
        <time>2021-06-16T20:39:16Z</time>
      </trkpt>
      <trkpt lat="36.594607" lon="-4.853484">
        <ele>510.275</ele>
        <time>2021-06-16T20:39:17Z</time>
      </trkpt>
      <trkpt lat="36.594422" lon="-4.8535">
        <ele>510.649</ele>
        <time>2021-06-16T20:39:18Z</time>
      </trkpt>
      <trkpt lat="36.594045" lon="-4.853496">
        <ele>511.399</ele>
        <time>2021-06-16T20:39:20Z</time>
      </trkpt>
      <trkpt lat="36.593852" lon="-4.853472">
        <ele>512.265</ele>
        <time>2021-06-16T20:39:21Z</time>
      </trkpt>
      <trkpt lat="36.593665" lon="-4.853443">
        <ele>513.217</ele>
        <time>2021-06-16T20:39:22Z</time>
      </trkpt>
      <trkpt lat="36.593302" lon="-4.853347">
        <ele>513.926</ele>
        <time>2021-06-16T20:39:24Z</time>
      </trkpt>
      <trkpt lat="36.593124" lon="-4.853283">
        <ele>514.410</ele>
        <time>2021-06-16T20:39:25Z</time>
      </trkpt>
      <trkpt lat="36.592775" lon="-4.853129">
        <ele>514.825</ele>
        <time>2021-06-16T20:39:27Z</time>
      </trkpt>
      <trkpt lat="36.592605" lon="-4.853044">
        <ele>514.926</ele>
        <time>2021-06-16T20:39:28Z</time>
      </trkpt>
      <trkpt lat="36.592271" lon="-4.85285">
        <ele>516.108</ele>
        <time>2021-06-16T20:39:30Z</time>
      </trkpt>
      <trkpt lat="36.592107" lon="-4.852756">
        <ele>516.908</ele>
        <time>2021-06-16T20:39:31Z</time>
      </trkpt>
      <trkpt lat="36.591794" lon="-4.852567">
        <ele>517.719</ele>
        <time>2021-06-16T20:39:33Z</time>
      </trkpt>
      <trkpt lat="36.591639" lon="-4.852468">
        <ele>518.528</ele>
        <time>2021-06-16T20:39:34Z</time>
      </trkpt>
      <trkpt lat="36.591316" lon="-4.852283">
        <ele>519.832</ele>
        <time>2021-06-16T20:39:36Z</time>
      </trkpt>
      <trkpt lat="36.590982" lon="-4.852143">
        <ele>521.332</ele>
        <time>2021-06-16T20:39:38Z</time>
      </trkpt>
      <trkpt lat="36.590645" lon="-4.852043">
        <ele>522.938</ele>
        <time>2021-06-16T20:39:40Z</time>
      </trkpt>
      <trkpt lat="36.590307" lon="-4.85201">
        <ele>524.430</ele>
        <time>2021-06-16T20:39:42Z</time>
      </trkpt>
      <trkpt lat="36.589965" lon="-4.852034">
        <ele>526.219</ele>
        <time>2021-06-16T20:39:44Z</time>
      </trkpt>
      <trkpt lat="36.589794" lon="-4.852051">
        <ele>527.923</ele>
        <time>2021-06-16T20:39:45Z</time>
      </trkpt>
      <trkpt lat="36.589449" lon="-4.852088">
        <ele>529.652</ele>
        <time>2021-06-16T20:39:47Z</time>
      </trkpt>
      <trkpt lat="36.589277" lon="-4.852106">
        <ele>530.953</ele>
        <time>2021-06-16T20:39:48Z</time>
      </trkpt>
      <trkpt lat="36.588935" lon="-4.852121">
        <ele>532.508</ele>
        <time>2021-06-16T20:39:50Z</time>
      </trkpt>
      <trkpt lat="36.588767" lon="-4.852121">
        <ele>533.708</ele>
        <time>2021-06-16T20:39:51Z</time>
      </trkpt>
      <trkpt lat="36.588435" lon="-4.852116">
        <ele>534.932</ele>
        <time>2021-06-16T20:39:53Z</time>
      </trkpt>
      <trkpt lat="36.588114" lon="-4.85212">
        <ele>536.381</ele>
        <time>2021-06-16T20:39:55Z</time>
      </trkpt>
      <trkpt lat="36.587952" lon="-4.852126">
        <ele>538.085</ele>
        <time>2021-06-16T20:39:56Z</time>
      </trkpt>
      <trkpt lat="36.587788" lon="-4.852134">
        <ele>539.255</ele>
        <time>2021-06-16T20:39:57Z</time>
      </trkpt>
      <trkpt lat="36.587468" lon="-4.852175">
        <ele>540.521</ele>
        <time>2021-06-16T20:39:59Z</time>
      </trkpt>
      <trkpt lat="36.587309" lon="-4.852208">
        <ele>541.473</ele>
        <time>2021-06-16T20:40:00Z</time>
      </trkpt>
      <trkpt lat="36.587148" lon="-4.852244">
        <ele>542.532</ele>
        <time>2021-06-16T20:40:01Z</time>
      </trkpt>
      <trkpt lat="36.586832" lon="-4.852342">
        <ele>543.716</ele>
        <time>2021-06-16T20:40:03Z</time>
      </trkpt>
      <trkpt lat="36.586675" lon="-4.852395">
        <ele>544.685</ele>
        <time>2021-06-16T20:40:04Z</time>
      </trkpt>
      <trkpt lat="36.586362" lon="-4.852504">
        <ele>545.989</ele>
        <time>2021-06-16T20:40:06Z</time>
      </trkpt>
      <trkpt lat="36.586201" lon="-4.852558">
        <ele>547.017</ele>
        <time>2021-06-16T20:40:07Z</time>
      </trkpt>
      <trkpt lat="36.585872" lon="-4.852642">
        <ele>548.608</ele>
        <time>2021-06-16T20:40:09Z</time>
      </trkpt>
      <trkpt lat="36.585536" lon="-4.852691">
        <ele>549.945</ele>
        <time>2021-06-16T20:40:11Z</time>
      </trkpt>
      <trkpt lat="36.585367" lon="-4.852713">
        <ele>550.744</ele>
        <time>2021-06-16T20:40:12Z</time>
      </trkpt>
      <trkpt lat="36.585032" lon="-4.852729">
        <ele>552.368</ele>
        <time>2021-06-16T20:40:14Z</time>
      </trkpt>
      <trkpt lat="36.584701" lon="-4.852721">
        <ele>553.338</ele>
        <time>2021-06-16T20:40:16Z</time>
      </trkpt>
      <trkpt lat="36.584531" lon="-4.852715">
        <ele>554.234</ele>
        <time>2021-06-16T20:40:17Z</time>
      </trkpt>
      <trkpt lat="36.584192" lon="-4.852685">
        <ele>555.146</ele>
        <time>2021-06-16T20:40:19Z</time>
      </trkpt>
      <trkpt lat="36.583852" lon="-4.852674">
        <ele>556.655</ele>
        <time>2021-06-16T20:40:21Z</time>
      </trkpt>
      <trkpt lat="36.583683" lon="-4.852684">
        <ele>557.799</ele>
        <time>2021-06-16T20:40:22Z</time>
      </trkpt>
      <trkpt lat="36.583514" lon="-4.852695">
        <ele>558.745</ele>
        <time>2021-06-16T20:40:23Z</time>
      </trkpt>
      <trkpt lat="36.583349" lon="-4.852722">
        <ele>559.347</ele>
        <time>2021-06-16T20:40:24Z</time>
      </trkpt>
      <trkpt lat="36.583026" lon="-4.852792">
        <ele>560.911</ele>
        <time>2021-06-16T20:40:26Z</time>
      </trkpt>
      <trkpt lat="36.582696" lon="-4.852842">
        <ele>562.008</ele>
        <time>2021-06-16T20:40:28Z</time>
      </trkpt>
      <trkpt lat="36.582362" lon="-4.852841">
        <ele>563.061</ele>
        <time>2021-06-16T20:40:30Z</time>
      </trkpt>
      <trkpt lat="36.582038" lon="-4.85279">
        <ele>564.030</ele>
        <time>2021-06-16T20:40:32Z</time>
      </trkpt>
      <trkpt lat="36.581885" lon="-4.852754">
        <ele>564.984</ele>
        <time>2021-06-16T20:40:33Z</time>
      </trkpt>
      <trkpt lat="36.581737" lon="-4.852727">
        <ele>565.594</ele>
        <time>2021-06-16T20:40:34Z</time>
      </trkpt>
      <trkpt lat="36.581439" lon="-4.852726">
        <ele>565.960</ele>
        <time>2021-06-16T20:40:36Z</time>
      </trkpt>
      <trkpt lat="36.58115" lon="-4.852833">
        <ele>565.862</ele>
        <time>2021-06-16T20:40:38Z</time>
      </trkpt>
      <trkpt lat="36.580882" lon="-4.853033">
        <ele>565.251</ele>
        <time>2021-06-16T20:40:40Z</time>
      </trkpt>
      <trkpt lat="36.580619" lon="-4.853257">
        <ele>565.065</ele>
        <time>2021-06-16T20:40:42Z</time>
      </trkpt>
      <trkpt lat="36.580331" lon="-4.853437">
        <ele>565.223</ele>
        <time>2021-06-16T20:40:44Z</time>
      </trkpt>
      <trkpt lat="36.58001" lon="-4.853515">
        <ele>564.483</ele>
        <time>2021-06-16T20:40:46Z</time>
      </trkpt>
      <trkpt lat="36.579838" lon="-4.853505">
        <ele>563.611</ele>
        <time>2021-06-16T20:40:47Z</time>
      </trkpt>
      <trkpt lat="36.579508" lon="-4.853391">
        <ele>562.908</ele>
        <time>2021-06-16T20:40:49Z</time>
      </trkpt>
      <trkpt lat="36.579195" lon="-4.853195">
        <ele>562.129</ele>
        <time>2021-06-16T20:40:51Z</time>
      </trkpt>
      <trkpt lat="36.57904" lon="-4.853099">
        <ele>561.368</ele>
        <time>2021-06-16T20:40:52Z</time>
      </trkpt>
      <trkpt lat="36.578709" lon="-4.852944">
        <ele>560.512</ele>
        <time>2021-06-16T20:40:54Z</time>
      </trkpt>
      <trkpt lat="36.578365" lon="-4.852885">
        <ele>559.352</ele>
        <time>2021-06-16T20:40:56Z</time>
      </trkpt>
      <trkpt lat="36.578195" lon="-4.852892">
        <ele>558.218</ele>
        <time>2021-06-16T20:40:57Z</time>
      </trkpt>
      <trkpt lat="36.578028" lon="-4.852924">
        <ele>557.340</ele>
        <time>2021-06-16T20:40:58Z</time>
      </trkpt>
      <trkpt lat="36.577702" lon="-4.853057">
        <ele>556.459</ele>
        <time>2021-06-16T20:41:00Z</time>
      </trkpt>
      <trkpt lat="36.577405" lon="-4.853294">
        <ele>555.753</ele>
        <time>2021-06-16T20:41:02Z</time>
      </trkpt>
      <trkpt lat="36.577281" lon="-4.853456">
        <ele>555.353</ele>
        <time>2021-06-16T20:41:03Z</time>
      </trkpt>
      <trkpt lat="36.577181" lon="-4.853638">
        <ele>555.104</ele>
        <time>2021-06-16T20:41:04Z</time>
      </trkpt>
      <trkpt lat="36.577108" lon="-4.853846">
        <ele>554.414</ele>
        <time>2021-06-16T20:41:05Z</time>
      </trkpt>
      <trkpt lat="36.577014" lon="-4.854288">
        <ele>553.408</ele>
        <time>2021-06-16T20:41:07Z</time>
      </trkpt>
      <trkpt lat="36.576972" lon="-4.854509">
        <ele>553.182</ele>
        <time>2021-06-16T20:41:08Z</time>
      </trkpt>
      <trkpt lat="36.576921" lon="-4.854723">
        <ele>553.021</ele>
        <time>2021-06-16T20:41:09Z</time>
      </trkpt>
      <trkpt lat="36.576854" lon="-4.85493">
        <ele>553.125</ele>
        <time>2021-06-16T20:41:10Z</time>
      </trkpt>
      <trkpt lat="36.576773" lon="-4.855127">
        <ele>553.185</ele>
        <time>2021-06-16T20:41:11Z</time>
      </trkpt>
      <trkpt lat="36.576676" lon="-4.855321">
        <ele>553.181</ele>
        <time>2021-06-16T20:41:12Z</time>
      </trkpt>
      <trkpt lat="36.57647" lon="-4.855646">
        <ele>553.173</ele>
        <time>2021-06-16T20:41:14Z</time>
      </trkpt>
      <trkpt lat="36.57636" lon="-4.855806">
        <ele>553.352</ele>
        <time>2021-06-16T20:41:15Z</time>
      </trkpt>
      <trkpt lat="36.576151" lon="-4.856126">
        <ele>553.816</ele>
        <time>2021-06-16T20:41:17Z</time>
      </trkpt>
      <trkpt lat="36.575947" lon="-4.856458">
        <ele>553.477</ele>
        <time>2021-06-16T20:41:19Z</time>
      </trkpt>
      <trkpt lat="36.575738" lon="-4.856762">
        <ele>553.861</ele>
        <time>2021-06-16T20:41:21Z</time>
      </trkpt>
      <trkpt lat="36.575512" lon="-4.857052">
        <ele>553.927</ele>
        <time>2021-06-16T20:41:23Z</time>
      </trkpt>
      <trkpt lat="36.575383" lon="-4.85719">
        <ele>554.008</ele>
        <time>2021-06-16T20:41:24Z</time>
      </trkpt>
      <trkpt lat="36.5751" lon="-4.857399">
        <ele>554.464</ele>
        <time>2021-06-16T20:41:26Z</time>
      </trkpt>
      <trkpt lat="36.574792" lon="-4.857526">
        <ele>555.393</ele>
        <time>2021-06-16T20:41:28Z</time>
      </trkpt>
      <trkpt lat="36.574634" lon="-4.857575">
        <ele>556.027</ele>
        <time>2021-06-16T20:41:29Z</time>
      </trkpt>
      <trkpt lat="36.57448" lon="-4.857637">
        <ele>556.347</ele>
        <time>2021-06-16T20:41:30Z</time>
      </trkpt>
      <trkpt lat="36.574199" lon="-4.857827">
        <ele>556.633</ele>
        <time>2021-06-16T20:41:32Z</time>
      </trkpt>
      <trkpt lat="36.573975" lon="-4.858101">
        <ele>556.795</ele>
        <time>2021-06-16T20:41:34Z</time>
      </trkpt>
      <trkpt lat="36.57382" lon="-4.858442">
        <ele>556.734</ele>
        <time>2021-06-16T20:41:36Z</time>
      </trkpt>
      <trkpt lat="36.573734" lon="-4.85882">
        <ele>557.048</ele>
        <time>2021-06-16T20:41:38Z</time>
      </trkpt>
      <trkpt lat="36.573763" lon="-4.859214">
        <ele>556.886</ele>
        <time>2021-06-16T20:41:40Z</time>
      </trkpt>
      <trkpt lat="36.573874" lon="-4.859594">
        <ele>556.560</ele>
        <time>2021-06-16T20:41:42Z</time>
      </trkpt>
      <trkpt lat="36.574069" lon="-4.859939">
        <ele>556.126</ele>
        <time>2021-06-16T20:41:44Z</time>
      </trkpt>
      <trkpt lat="36.574194" lon="-4.860085">
        <ele>555.108</ele>
        <time>2021-06-16T20:41:45Z</time>
      </trkpt>
      <trkpt lat="36.574329" lon="-4.860217">
        <ele>554.385</ele>
        <time>2021-06-16T20:41:46Z</time>
      </trkpt>
      <trkpt lat="36.574603" lon="-4.860477">
        <ele>553.444</ele>
        <time>2021-06-16T20:41:48Z</time>
      </trkpt>
      <trkpt lat="36.574735" lon="-4.860615">
        <ele>552.498</ele>
        <time>2021-06-16T20:41:49Z</time>
      </trkpt>
      <trkpt lat="36.574972" lon="-4.860904">
        <ele>551.478</ele>
        <time>2021-06-16T20:41:51Z</time>
      </trkpt>
      <trkpt lat="36.575071" lon="-4.861057">
        <ele>550.494</ele>
        <time>2021-06-16T20:41:52Z</time>
      </trkpt>
      <trkpt lat="36.57514" lon="-4.861245">
        <ele>547.996</ele>
        <time>2021-06-16T20:41:53Z</time>
      </trkpt>
      <trkpt lat="36.575209" lon="-4.861657">
        <ele>544.425</ele>
        <time>2021-06-16T20:41:55Z</time>
      </trkpt>
      <trkpt lat="36.575201" lon="-4.861849">
        <ele>542.719</ele>
        <time>2021-06-16T20:41:56Z</time>
      </trkpt>
      <trkpt lat="36.57516" lon="-4.862037">
        <ele>540.712</ele>
        <time>2021-06-16T20:41:57Z</time>
      </trkpt>
      <trkpt lat="36.575089" lon="-4.862222">
        <ele>539.332</ele>
        <time>2021-06-16T20:41:58Z</time>
      </trkpt>
      <trkpt lat="36.574882" lon="-4.862549">
        <ele>537.905</ele>
        <time>2021-06-16T20:42:00Z</time>
      </trkpt>
      <trkpt lat="36.574754" lon="-4.862692">
        <ele>536.808</ele>
        <time>2021-06-16T20:42:01Z</time>
      </trkpt>
      <trkpt lat="36.574476" lon="-4.86297">
        <ele>536.098</ele>
        <time>2021-06-16T20:42:03Z</time>
      </trkpt>
      <trkpt lat="36.574187" lon="-4.863233">
        <ele>534.827</ele>
        <time>2021-06-16T20:42:05Z</time>
      </trkpt>
      <trkpt lat="36.573911" lon="-4.863489">
        <ele>534.361</ele>
        <time>2021-06-16T20:42:07Z</time>
      </trkpt>
      <trkpt lat="36.573654" lon="-4.863736">
        <ele>533.161</ele>
        <time>2021-06-16T20:42:09Z</time>
      </trkpt>
      <trkpt lat="36.573527" lon="-4.863859">
        <ele>532.027</ele>
        <time>2021-06-16T20:42:10Z</time>
      </trkpt>
      <trkpt lat="36.573287" lon="-4.864094">
        <ele>530.499</ele>
        <time>2021-06-16T20:42:12Z</time>
      </trkpt>
      <trkpt lat="36.573159" lon="-4.864192">
        <ele>528.988</ele>
        <time>2021-06-16T20:42:13Z</time>
      </trkpt>
      <trkpt lat="36.572884" lon="-4.864328">
        <ele>525.852</ele>
        <time>2021-06-16T20:42:15Z</time>
      </trkpt>
      <trkpt lat="36.57273" lon="-4.864351">
        <ele>523.822</ele>
        <time>2021-06-16T20:42:16Z</time>
      </trkpt>
      <trkpt lat="36.572571" lon="-4.864347">
        <ele>522.162</ele>
        <time>2021-06-16T20:42:17Z</time>
      </trkpt>
      <trkpt lat="36.572416" lon="-4.864311">
        <ele>520.808</ele>
        <time>2021-06-16T20:42:18Z</time>
      </trkpt>
      <trkpt lat="36.572263" lon="-4.864241">
        <ele>519.708</ele>
        <time>2021-06-16T20:42:19Z</time>
      </trkpt>
      <trkpt lat="36.572115" lon="-4.864155">
        <ele>518.929</ele>
        <time>2021-06-16T20:42:20Z</time>
      </trkpt>
      <trkpt lat="36.571817" lon="-4.863959">
        <ele>518.268</ele>
        <time>2021-06-16T20:42:22Z</time>
      </trkpt>
      <trkpt lat="36.57151" lon="-4.863794">
        <ele>517.072</ele>
        <time>2021-06-16T20:42:24Z</time>
      </trkpt>
      <trkpt lat="36.571345" lon="-4.863744">
        <ele>515.672</ele>
        <time>2021-06-16T20:42:25Z</time>
      </trkpt>
      <trkpt lat="36.571174" lon="-4.863725">
        <ele>514.178</ele>
        <time>2021-06-16T20:42:26Z</time>
      </trkpt>
      <trkpt lat="36.571005" lon="-4.863736">
        <ele>512.440</ele>
        <time>2021-06-16T20:42:27Z</time>
      </trkpt>
      <trkpt lat="36.570664" lon="-4.863774">
        <ele>510.929</ele>
        <time>2021-06-16T20:42:29Z</time>
      </trkpt>
      <trkpt lat="36.570339" lon="-4.863737">
        <ele>508.353</ele>
        <time>2021-06-16T20:42:31Z</time>
      </trkpt>
      <trkpt lat="36.570182" lon="-4.863684">
        <ele>506.418</ele>
        <time>2021-06-16T20:42:32Z</time>
      </trkpt>
      <trkpt lat="36.56989" lon="-4.863551">
        <ele>504.798</ele>
        <time>2021-06-16T20:42:34Z</time>
      </trkpt>
      <trkpt lat="36.569746" lon="-4.86349">
        <ele>503.217</ele>
        <time>2021-06-16T20:42:35Z</time>
      </trkpt>
      <trkpt lat="36.569468" lon="-4.863434">
        <ele>501.608</ele>
        <time>2021-06-16T20:42:37Z</time>
      </trkpt>
      <trkpt lat="36.569333" lon="-4.863448">
        <ele>500.478</ele>
        <time>2021-06-16T20:42:38Z</time>
      </trkpt>
      <trkpt lat="36.569075" lon="-4.863576">
        <ele>498.477</ele>
        <time>2021-06-16T20:42:40Z</time>
      </trkpt>
      <trkpt lat="36.568959" lon="-4.863681">
        <ele>497.241</ele>
        <time>2021-06-16T20:42:41Z</time>
      </trkpt>
      <trkpt lat="36.568851" lon="-4.863805">
        <ele>496.171</ele>
        <time>2021-06-16T20:42:42Z</time>
      </trkpt>
      <trkpt lat="36.568756" lon="-4.863944">
        <ele>494.767</ele>
        <time>2021-06-16T20:42:43Z</time>
      </trkpt>
      <trkpt lat="36.568582" lon="-4.864247">
        <ele>492.159</ele>
        <time>2021-06-16T20:42:45Z</time>
      </trkpt>
      <trkpt lat="36.568484" lon="-4.864392">
        <ele>490.258</ele>
        <time>2021-06-16T20:42:46Z</time>
      </trkpt>
      <trkpt lat="36.568374" lon="-4.864527">
        <ele>488.662</ele>
        <time>2021-06-16T20:42:47Z</time>
      </trkpt>
      <trkpt lat="36.568251" lon="-4.864653">
        <ele>487.112</ele>
        <time>2021-06-16T20:42:48Z</time>
      </trkpt>
      <trkpt lat="36.567972" lon="-4.864827">
        <ele>485.732</ele>
        <time>2021-06-16T20:42:50Z</time>
      </trkpt>
      <trkpt lat="36.567668" lon="-4.864915">
        <ele>483.905</ele>
        <time>2021-06-16T20:42:52Z</time>
      </trkpt>
      <trkpt lat="36.567509" lon="-4.864916">
        <ele>482.608</ele>
        <time>2021-06-16T20:42:53Z</time>
      </trkpt>
      <trkpt lat="36.567203" lon="-4.864837">
        <ele>481.298</ele>
        <time>2021-06-16T20:42:55Z</time>
      </trkpt>
      <trkpt lat="36.56706" lon="-4.864762">
        <ele>480.067</ele>
        <time>2021-06-16T20:42:56Z</time>
      </trkpt>
      <trkpt lat="36.566801" lon="-4.864561">
        <ele>479.011</ele>
        <time>2021-06-16T20:42:58Z</time>
      </trkpt>
      <trkpt lat="36.566602" lon="-4.864264">
        <ele>477.771</ele>
        <time>2021-06-16T20:43:00Z</time>
      </trkpt>
      <trkpt lat="36.566464" lon="-4.863931">
        <ele>476.247</ele>
        <time>2021-06-16T20:43:02Z</time>
      </trkpt>
      <trkpt lat="36.566364" lon="-4.863584">
        <ele>474.569</ele>
        <time>2021-06-16T20:43:04Z</time>
      </trkpt>
      <trkpt lat="36.566255" lon="-4.863248">
        <ele>472.938</ele>
        <time>2021-06-16T20:43:06Z</time>
      </trkpt>
      <trkpt lat="36.566196" lon="-4.863081">
        <ele>472.072</ele>
        <time>2021-06-16T20:43:07Z</time>
      </trkpt>
      <trkpt lat="36.566077" lon="-4.862752">
        <ele>470.753</ele>
        <time>2021-06-16T20:43:09Z</time>
      </trkpt>
      <trkpt lat="36.566013" lon="-4.86259">
        <ele>470.004</ele>
        <time>2021-06-16T20:43:10Z</time>
      </trkpt>
      <trkpt lat="36.565865" lon="-4.862281">
        <ele>468.714</ele>
        <time>2021-06-16T20:43:12Z</time>
      </trkpt>
      <trkpt lat="36.565659" lon="-4.862021">
        <ele>467.508</ele>
        <time>2021-06-16T20:43:14Z</time>
      </trkpt>
      <trkpt lat="36.565535" lon="-4.861917">
        <ele>467.022</ele>
        <time>2021-06-16T20:43:15Z</time>
      </trkpt>
      <trkpt lat="36.565252" lon="-4.861778">
        <ele>466.151</ele>
        <time>2021-06-16T20:43:17Z</time>
      </trkpt>
      <trkpt lat="36.565096" lon="-4.861747">
        <ele>465.415</ele>
        <time>2021-06-16T20:43:18Z</time>
      </trkpt>
      <trkpt lat="36.564775" lon="-4.861765">
        <ele>464.365</ele>
        <time>2021-06-16T20:43:20Z</time>
      </trkpt>
      <trkpt lat="36.564621" lon="-4.861816">
        <ele>463.471</ele>
        <time>2021-06-16T20:43:21Z</time>
      </trkpt>
      <trkpt lat="36.564475" lon="-4.861897">
        <ele>462.523</ele>
        <time>2021-06-16T20:43:22Z</time>
      </trkpt>
      <trkpt lat="36.56422" lon="-4.862131">
        <ele>461.682</ele>
        <time>2021-06-16T20:43:24Z</time>
      </trkpt>
      <trkpt lat="36.56411" lon="-4.862272">
        <ele>461.036</ele>
        <time>2021-06-16T20:43:25Z</time>
      </trkpt>
      <trkpt lat="36.56392" lon="-4.862584">
        <ele>459.614</ele>
        <time>2021-06-16T20:43:27Z</time>
      </trkpt>
      <trkpt lat="36.563711" lon="-4.862872">
        <ele>458.654</ele>
        <time>2021-06-16T20:43:29Z</time>
      </trkpt>
      <trkpt lat="36.56345" lon="-4.863084">
        <ele>457.209</ele>
        <time>2021-06-16T20:43:31Z</time>
      </trkpt>
      <trkpt lat="36.563153" lon="-4.863198">
        <ele>456.108</ele>
        <time>2021-06-16T20:43:33Z</time>
      </trkpt>
      <trkpt lat="36.562868" lon="-4.863215">
        <ele>455.268</ele>
        <time>2021-06-16T20:43:35Z</time>
      </trkpt>
      <trkpt lat="36.562742" lon="-4.863196">
        <ele>454.427</ele>
        <time>2021-06-16T20:43:36Z</time>
      </trkpt>
      <trkpt lat="36.56262" lon="-4.863169">
        <ele>453.341</ele>
        <time>2021-06-16T20:43:37Z</time>
      </trkpt>
      <trkpt lat="36.562375" lon="-4.863124">
        <ele>452.941</ele>
        <time>2021-06-16T20:43:39Z</time>
      </trkpt>
      <trkpt lat="36.562249" lon="-4.863109">
        <ele>452.557</ele>
        <time>2021-06-16T20:43:40Z</time>
      </trkpt>
      <trkpt lat="36.561992" lon="-4.863064">
        <ele>452.199</ele>
        <time>2021-06-16T20:43:42Z</time>
      </trkpt>
      <trkpt lat="36.561723" lon="-4.863017">
        <ele>451.688</ele>
        <time>2021-06-16T20:43:44Z</time>
      </trkpt>
      <trkpt lat="36.561589" lon="-4.862998">
        <ele>451.662</ele>
        <time>2021-06-16T20:43:45Z</time>
      </trkpt>
      <trkpt lat="36.561455" lon="-4.862975">
        <ele>451.329</ele>
        <time>2021-06-16T20:43:46Z</time>
      </trkpt>
      <trkpt lat="36.561196" lon="-4.862914">
        <ele>450.500</ele>
        <time>2021-06-16T20:43:48Z</time>
      </trkpt>
      <trkpt lat="36.560974" lon="-4.862831">
        <ele>449.420</ele>
        <time>2021-06-16T20:43:50Z</time>
      </trkpt>
      <trkpt lat="36.560876" lon="-4.862773">
        <ele>448.508</ele>
        <time>2021-06-16T20:43:51Z</time>
      </trkpt>
      <trkpt lat="36.560693" lon="-4.862615">
        <ele>447.579</ele>
        <time>2021-06-16T20:43:53Z</time>
      </trkpt>
      <trkpt lat="36.560545" lon="-4.862428">
        <ele>446.198</ele>
        <time>2021-06-16T20:43:55Z</time>
      </trkpt>
      <trkpt lat="36.560428" lon="-4.862201">
        <ele>444.532</ele>
        <time>2021-06-16T20:43:57Z</time>
      </trkpt>
      <trkpt lat="36.56033" lon="-4.861953">
        <ele>443.052</ele>
        <time>2021-06-16T20:43:59Z</time>
      </trkpt>
      <trkpt lat="36.560225" lon="-4.86169">
        <ele>441.498</ele>
        <time>2021-06-16T20:44:01Z</time>
      </trkpt>
      <trkpt lat="36.560091" lon="-4.861436">
        <ele>439.460</ele>
        <time>2021-06-16T20:44:03Z</time>
      </trkpt>
      <trkpt lat="36.559999" lon="-4.861319">
        <ele>438.369</ele>
        <time>2021-06-16T20:44:04Z</time>
      </trkpt>
      <trkpt lat="36.559891" lon="-4.861217">
        <ele>437.643</ele>
        <time>2021-06-16T20:44:05Z</time>
      </trkpt>
      <trkpt lat="36.559646" lon="-4.861072">
        <ele>436.776</ele>
        <time>2021-06-16T20:44:07Z</time>
      </trkpt>
      <trkpt lat="36.559385" lon="-4.861007">
        <ele>436.290</ele>
        <time>2021-06-16T20:44:09Z</time>
      </trkpt>
      <trkpt lat="36.559121" lon="-4.860999">
        <ele>435.819</ele>
        <time>2021-06-16T20:44:11Z</time>
      </trkpt>
      <trkpt lat="36.558866" lon="-4.861026">
        <ele>435.508</ele>
        <time>2021-06-16T20:44:13Z</time>
      </trkpt>
      <trkpt lat="36.558628" lon="-4.86108">
        <ele>434.824</ele>
        <time>2021-06-16T20:44:15Z</time>
      </trkpt>
      <trkpt lat="36.558519" lon="-4.861119">
        <ele>434.563</ele>
        <time>2021-06-16T20:44:16Z</time>
      </trkpt>
      <trkpt lat="36.558415" lon="-4.861168">
        <ele>434.047</ele>
        <time>2021-06-16T20:44:17Z</time>
      </trkpt>
      <trkpt lat="36.558316" lon="-4.861232">
        <ele>433.387</ele>
        <time>2021-06-16T20:44:18Z</time>
      </trkpt>
      <trkpt lat="36.558142" lon="-4.861414">
        <ele>432.883</ele>
        <time>2021-06-16T20:44:20Z</time>
      </trkpt>
      <trkpt lat="36.558029" lon="-4.861664">
        <ele>432.595</ele>
        <time>2021-06-16T20:44:22Z</time>
      </trkpt>
      <trkpt lat="36.557982" lon="-4.861951">
        <ele>431.644</ele>
        <time>2021-06-16T20:44:24Z</time>
      </trkpt>
      <trkpt lat="36.558012" lon="-4.86225">
        <ele>430.018</ele>
        <time>2021-06-16T20:44:26Z</time>
      </trkpt>
      <trkpt lat="36.558057" lon="-4.862393">
        <ele>429.517</ele>
        <time>2021-06-16T20:44:27Z</time>
      </trkpt>
      <trkpt lat="36.558192" lon="-4.862653">
        <ele>428.287</ele>
        <time>2021-06-16T20:44:29Z</time>
      </trkpt>
      <trkpt lat="36.558267" lon="-4.86278">
        <ele>427.215</ele>
        <time>2021-06-16T20:44:30Z</time>
      </trkpt>
      <trkpt lat="36.558342" lon="-4.862904">
        <ele>426.408</ele>
        <time>2021-06-16T20:44:31Z</time>
      </trkpt>
      <trkpt lat="36.558469" lon="-4.863177">
        <ele>425.368</ele>
        <time>2021-06-16T20:44:33Z</time>
      </trkpt>
      <trkpt lat="36.558527" lon="-4.863482">
        <ele>423.017</ele>
        <time>2021-06-16T20:44:35Z</time>
      </trkpt>
      <trkpt lat="36.558498" lon="-4.863792">
        <ele>421.291</ele>
        <time>2021-06-16T20:44:37Z</time>
      </trkpt>
      <trkpt lat="36.55839" lon="-4.86408">
        <ele>419.421</ele>
        <time>2021-06-16T20:44:39Z</time>
      </trkpt>
      <trkpt lat="36.558305" lon="-4.864204">
        <ele>418.047</ele>
        <time>2021-06-16T20:44:40Z</time>
      </trkpt>
      <trkpt lat="36.558201" lon="-4.864308">
        <ele>417.029</ele>
        <time>2021-06-16T20:44:41Z</time>
      </trkpt>
      <trkpt lat="36.557963" lon="-4.864452">
        <ele>416.278</ele>
        <time>2021-06-16T20:44:43Z</time>
      </trkpt>
      <trkpt lat="36.557838" lon="-4.864493">
        <ele>415.822</ele>
        <time>2021-06-16T20:44:44Z</time>
      </trkpt>
      <trkpt lat="36.557597" lon="-4.86454">
        <ele>414.839</ele>
        <time>2021-06-16T20:44:46Z</time>
      </trkpt>
      <trkpt lat="36.557481" lon="-4.864565">
        <ele>414.301</ele>
        <time>2021-06-16T20:44:47Z</time>
      </trkpt>
      <trkpt lat="36.557258" lon="-4.864672">
        <ele>413.321</ele>
        <time>2021-06-16T20:44:49Z</time>
      </trkpt>
      <trkpt lat="36.557152" lon="-4.86475">
        <ele>412.608</ele>
        <time>2021-06-16T20:44:50Z</time>
      </trkpt>
      <trkpt lat="36.556954" lon="-4.864924">
        <ele>411.980</ele>
        <time>2021-06-16T20:44:52Z</time>
      </trkpt>
      <trkpt lat="36.556772" lon="-4.865128">
        <ele>411.359</ele>
        <time>2021-06-16T20:44:54Z</time>
      </trkpt>
      <trkpt lat="36.556673" lon="-4.865221">
        <ele>410.873</ele>
        <time>2021-06-16T20:44:55Z</time>
      </trkpt>
      <trkpt lat="36.556564" lon="-4.8653">
        <ele>410.593</ele>
        <time>2021-06-16T20:44:56Z</time>
      </trkpt>
      <trkpt lat="36.556316" lon="-4.865407">
        <ele>409.069</ele>
        <time>2021-06-16T20:44:58Z</time>
      </trkpt>
      <trkpt lat="36.556056" lon="-4.865382">
        <ele>407.761</ele>
        <time>2021-06-16T20:45:00Z</time>
      </trkpt>
      <trkpt lat="36.555932" lon="-4.865334">
        <ele>406.540</ele>
        <time>2021-06-16T20:45:01Z</time>
      </trkpt>
      <trkpt lat="36.555711" lon="-4.865166">
        <ele>406.314</ele>
        <time>2021-06-16T20:45:03Z</time>
      </trkpt>
      <trkpt lat="36.555532" lon="-4.864938">
        <ele>405.677</ele>
        <time>2021-06-16T20:45:05Z</time>
      </trkpt>
      <trkpt lat="36.555466" lon="-4.864807">
        <ele>405.261</ele>
        <time>2021-06-16T20:45:06Z</time>
      </trkpt>
      <trkpt lat="36.555375" lon="-4.864529">
        <ele>404.327</ele>
        <time>2021-06-16T20:45:08Z</time>
      </trkpt>
      <trkpt lat="36.555344" lon="-4.864381">
        <ele>403.608</ele>
        <time>2021-06-16T20:45:09Z</time>
      </trkpt>
      <trkpt lat="36.55533" lon="-4.864067">
        <ele>402.834</ele>
        <time>2021-06-16T20:45:11Z</time>
      </trkpt>
      <trkpt lat="36.555335" lon="-4.863911">
        <ele>401.693</ele>
        <time>2021-06-16T20:45:12Z</time>
      </trkpt>
      <trkpt lat="36.555339" lon="-4.863755">
        <ele>400.747</ele>
        <time>2021-06-16T20:45:13Z</time>
      </trkpt>
      <trkpt lat="36.555338" lon="-4.863598">
        <ele>400.237</ele>
        <time>2021-06-16T20:45:14Z</time>
      </trkpt>
      <trkpt lat="36.555316" lon="-4.863281">
        <ele>399.673</ele>
        <time>2021-06-16T20:45:16Z</time>
      </trkpt>
      <trkpt lat="36.555293" lon="-4.863126">
        <ele>399.145</ele>
        <time>2021-06-16T20:45:17Z</time>
      </trkpt>
      <trkpt lat="36.555211" lon="-4.862829">
        <ele>398.184</ele>
        <time>2021-06-16T20:45:19Z</time>
      </trkpt>
      <trkpt lat="36.555087" lon="-4.862555">
        <ele>397.038</ele>
        <time>2021-06-16T20:45:21Z</time>
      </trkpt>
      <trkpt lat="36.555007" lon="-4.86243">
        <ele>396.295</ele>
        <time>2021-06-16T20:45:22Z</time>
      </trkpt>
      <trkpt lat="36.55491" lon="-4.862321">
        <ele>395.349</ele>
        <time>2021-06-16T20:45:23Z</time>
      </trkpt>
      <trkpt lat="36.554674" lon="-4.862168">
        <ele>393.923</ele>
        <time>2021-06-16T20:45:25Z</time>
      </trkpt>
      <trkpt lat="36.554542" lon="-4.862133">
        <ele>392.908</ele>
        <time>2021-06-16T20:45:26Z</time>
      </trkpt>
      <trkpt lat="36.554271" lon="-4.862154">
        <ele>391.886</ele>
        <time>2021-06-16T20:45:28Z</time>
      </trkpt>
      <trkpt lat="36.554028" lon="-4.862307">
        <ele>390.655</ele>
        <time>2021-06-16T20:45:30Z</time>
      </trkpt>
      <trkpt lat="36.553828" lon="-4.862547">
        <ele>389.279</ele>
        <time>2021-06-16T20:45:32Z</time>
      </trkpt>
      <trkpt lat="36.553642" lon="-4.862791">
        <ele>388.039</ele>
        <time>2021-06-16T20:45:34Z</time>
      </trkpt>
      <trkpt lat="36.553538" lon="-4.862888">
        <ele>387.525</ele>
        <time>2021-06-16T20:45:35Z</time>
      </trkpt>
      <trkpt lat="36.553296" lon="-4.863015">
        <ele>386.687</ele>
        <time>2021-06-16T20:45:37Z</time>
      </trkpt>
      <trkpt lat="36.553161" lon="-4.863039">
        <ele>385.986</ele>
        <time>2021-06-16T20:45:38Z</time>
      </trkpt>
      <trkpt lat="36.553025" lon="-4.863035">
        <ele>385.080</ele>
        <time>2021-06-16T20:45:39Z</time>
      </trkpt>
      <trkpt lat="36.552894" lon="-4.863007">
        <ele>384.263</ele>
        <time>2021-06-16T20:45:40Z</time>
      </trkpt>
      <trkpt lat="36.552766" lon="-4.86295">
        <ele>383.744</ele>
        <time>2021-06-16T20:45:41Z</time>
      </trkpt>
      <trkpt lat="36.552648" lon="-4.862862">
        <ele>382.918</ele>
        <time>2021-06-16T20:45:42Z</time>
      </trkpt>
      <trkpt lat="36.552549" lon="-4.862736">
        <ele>382.308</ele>
        <time>2021-06-16T20:45:43Z</time>
      </trkpt>
      <trkpt lat="36.552399" lon="-4.862451">
        <ele>381.793</ele>
        <time>2021-06-16T20:45:45Z</time>
      </trkpt>
      <trkpt lat="36.552259" lon="-4.86216">
        <ele>380.432</ele>
        <time>2021-06-16T20:45:47Z</time>
      </trkpt>
      <trkpt lat="36.552077" lon="-4.861911">
        <ele>378.666</ele>
        <time>2021-06-16T20:45:49Z</time>
      </trkpt>
      <trkpt lat="36.551965" lon="-4.861803">
        <ele>377.126</ele>
        <time>2021-06-16T20:45:50Z</time>
      </trkpt>
      <trkpt lat="36.551841" lon="-4.861709">
        <ele>376.182</ele>
        <time>2021-06-16T20:45:51Z</time>
      </trkpt>
      <trkpt lat="36.551707" lon="-4.861631">
        <ele>375.424</ele>
        <time>2021-06-16T20:45:52Z</time>
      </trkpt>
      <trkpt lat="36.551414" lon="-4.861553">
        <ele>374.233</ele>
        <time>2021-06-16T20:45:54Z</time>
      </trkpt>
      <trkpt lat="36.551259" lon="-4.861549">
        <ele>373.137</ele>
        <time>2021-06-16T20:45:55Z</time>
      </trkpt>
      <trkpt lat="36.550943" lon="-4.861569">
        <ele>372.142</ele>
        <time>2021-06-16T20:45:57Z</time>
      </trkpt>
      <trkpt lat="36.55063" lon="-4.861595">
        <ele>371.522</ele>
        <time>2021-06-16T20:45:59Z</time>
      </trkpt>
      <trkpt lat="36.550473" lon="-4.861599">
        <ele>370.414</ele>
        <time>2021-06-16T20:46:00Z</time>
      </trkpt>
      <trkpt lat="36.550158" lon="-4.861593">
        <ele>369.508</ele>
        <time>2021-06-16T20:46:02Z</time>
      </trkpt>
      <trkpt lat="36.549843" lon="-4.861569">
        <ele>368.141</ele>
        <time>2021-06-16T20:46:04Z</time>
      </trkpt>
      <trkpt lat="36.549686" lon="-4.861547">
        <ele>366.880</ele>
        <time>2021-06-16T20:46:05Z</time>
      </trkpt>
      <trkpt lat="36.549525" lon="-4.86152">
        <ele>365.744</ele>
        <time>2021-06-16T20:46:06Z</time>
      </trkpt>
      <trkpt lat="36.549208" lon="-4.861457">
        <ele>364.424</ele>
        <time>2021-06-16T20:46:08Z</time>
      </trkpt>
      <trkpt lat="36.549049" lon="-4.861424">
        <ele>363.380</ele>
        <time>2021-06-16T20:46:09Z</time>
      </trkpt>
      <trkpt lat="36.548887" lon="-4.861395">
        <ele>362.772</ele>
        <time>2021-06-16T20:46:10Z</time>
      </trkpt>
      <trkpt lat="36.548553" lon="-4.861351">
        <ele>361.771</ele>
        <time>2021-06-16T20:46:12Z</time>
      </trkpt>
      <trkpt lat="36.548199" lon="-4.861335">
        <ele>360.815</ele>
        <time>2021-06-16T20:46:14Z</time>
      </trkpt>
      <trkpt lat="36.547842" lon="-4.861338">
        <ele>359.359</ele>
        <time>2021-06-16T20:46:16Z</time>
      </trkpt>
      <trkpt lat="36.547669" lon="-4.861354">
        <ele>358.203</ele>
        <time>2021-06-16T20:46:17Z</time>
      </trkpt>
      <trkpt lat="36.5475" lon="-4.861368">
        <ele>356.923</ele>
        <time>2021-06-16T20:46:18Z</time>
      </trkpt>
      <trkpt lat="36.547162" lon="-4.861389">
        <ele>355.108</ele>
        <time>2021-06-16T20:46:20Z</time>
      </trkpt>
      <trkpt lat="36.54682" lon="-4.86141">
        <ele>353.042</ele>
        <time>2021-06-16T20:46:22Z</time>
      </trkpt>
      <trkpt lat="36.546477" lon="-4.861432">
        <ele>350.921</ele>
        <time>2021-06-16T20:46:24Z</time>
      </trkpt>
      <trkpt lat="36.546305" lon="-4.861448">
        <ele>349.515</ele>
        <time>2021-06-16T20:46:25Z</time>
      </trkpt>
      <trkpt lat="36.545965" lon="-4.861487">
        <ele>347.775</ele>
        <time>2021-06-16T20:46:27Z</time>
      </trkpt>
      <trkpt lat="36.545797" lon="-4.861517">
        <ele>346.091</ele>
        <time>2021-06-16T20:46:28Z</time>
      </trkpt>
      <trkpt lat="36.545468" lon="-4.861618">
        <ele>344.063</ele>
        <time>2021-06-16T20:46:30Z</time>
      </trkpt>
      <trkpt lat="36.545308" lon="-4.861694">
        <ele>342.312</ele>
        <time>2021-06-16T20:46:31Z</time>
      </trkpt>
      <trkpt lat="36.545012" lon="-4.861907">
        <ele>340.756</ele>
        <time>2021-06-16T20:46:33Z</time>
      </trkpt>
      <trkpt lat="36.544743" lon="-4.862175">
        <ele>338.673</ele>
        <time>2021-06-16T20:46:35Z</time>
      </trkpt>
      <trkpt lat="36.544514" lon="-4.862495">
        <ele>335.385</ele>
        <time>2021-06-16T20:46:37Z</time>
      </trkpt>
      <trkpt lat="36.544314" lon="-4.862864">
        <ele>331.313</ele>
        <time>2021-06-16T20:46:39Z</time>
      </trkpt>
      <trkpt lat="36.54422" lon="-4.86305">
        <ele>328.708</ele>
        <time>2021-06-16T20:46:40Z</time>
      </trkpt>
      <trkpt lat="36.544028" lon="-4.863405">
        <ele>326.454</ele>
        <time>2021-06-16T20:46:42Z</time>
      </trkpt>
      <trkpt lat="36.543795" lon="-4.863728">
        <ele>323.923</ele>
        <time>2021-06-16T20:46:44Z</time>
      </trkpt>
      <trkpt lat="36.54352" lon="-4.864003">
        <ele>321.297</ele>
        <time>2021-06-16T20:46:46Z</time>
      </trkpt>
      <trkpt lat="36.543369" lon="-4.86412">
        <ele>319.217</ele>
        <time>2021-06-16T20:46:47Z</time>
      </trkpt>
      <trkpt lat="36.543045" lon="-4.864299">
        <ele>317.583</ele>
        <time>2021-06-16T20:46:49Z</time>
      </trkpt>
      <trkpt lat="36.542873" lon="-4.864364">
        <ele>316.425</ele>
        <time>2021-06-16T20:46:50Z</time>
      </trkpt>
      <trkpt lat="36.542519" lon="-4.864453">
        <ele>315.344</ele>
        <time>2021-06-16T20:46:52Z</time>
      </trkpt>
      <trkpt lat="36.542336" lon="-4.864486">
        <ele>313.788</ele>
        <time>2021-06-16T20:46:53Z</time>
      </trkpt>
      <trkpt lat="36.542151" lon="-4.864518">
        <ele>312.467</ele>
        <time>2021-06-16T20:46:54Z</time>
      </trkpt>
      <trkpt lat="36.541965" lon="-4.864554">
        <ele>311.381</ele>
        <time>2021-06-16T20:46:55Z</time>
      </trkpt>
      <trkpt lat="36.541596" lon="-4.864636">
        <ele>309.319</ele>
        <time>2021-06-16T20:46:57Z</time>
      </trkpt>
      <trkpt lat="36.541228" lon="-4.864719">
        <ele>306.408</ele>
        <time>2021-06-16T20:46:59Z</time>
      </trkpt>
      <trkpt lat="36.541043" lon="-4.86476">
        <ele>304.393</ele>
        <time>2021-06-16T20:47:00Z</time>
      </trkpt>
      <trkpt lat="36.540859" lon="-4.864799">
        <ele>302.842</ele>
        <time>2021-06-16T20:47:01Z</time>
      </trkpt>
      <trkpt lat="36.540492" lon="-4.86488">
        <ele>300.736</ele>
        <time>2021-06-16T20:47:03Z</time>
      </trkpt>
      <trkpt lat="36.540129" lon="-4.864956">
        <ele>298.216</ele>
        <time>2021-06-16T20:47:05Z</time>
      </trkpt>
      <trkpt lat="36.539762" lon="-4.865034">
        <ele>295.662</ele>
        <time>2021-06-16T20:47:07Z</time>
      </trkpt>
      <trkpt lat="36.539578" lon="-4.865074">
        <ele>293.474</ele>
        <time>2021-06-16T20:47:08Z</time>
      </trkpt>
      <trkpt lat="36.539222" lon="-4.865149">
        <ele>291.013</ele>
        <time>2021-06-16T20:47:10Z</time>
      </trkpt>
      <trkpt lat="36.538863" lon="-4.86522">
        <ele>288.527</ele>
        <time>2021-06-16T20:47:12Z</time>
      </trkpt>
      <trkpt lat="36.538688" lon="-4.865253">
        <ele>286.675</ele>
        <time>2021-06-16T20:47:13Z</time>
      </trkpt>
      <trkpt lat="36.538343" lon="-4.86532">
        <ele>284.628</ele>
        <time>2021-06-16T20:47:15Z</time>
      </trkpt>
      <trkpt lat="36.538168" lon="-4.865356">
        <ele>282.820</ele>
        <time>2021-06-16T20:47:16Z</time>
      </trkpt>
      <trkpt lat="36.537993" lon="-4.865399">
        <ele>281.508</ele>
        <time>2021-06-16T20:47:17Z</time>
      </trkpt>
      <trkpt lat="36.537818" lon="-4.865454">
        <ele>280.034</ele>
        <time>2021-06-16T20:47:18Z</time>
      </trkpt>
      <trkpt lat="36.537486" lon="-4.865628">
        <ele>277.583</ele>
        <time>2021-06-16T20:47:20Z</time>
      </trkpt>
      <trkpt lat="36.537168" lon="-4.865879">
        <ele>275.147</ele>
        <time>2021-06-16T20:47:22Z</time>
      </trkpt>
      <trkpt lat="36.536879" lon="-4.866202">
        <ele>272.067</ele>
        <time>2021-06-16T20:47:24Z</time>
      </trkpt>
      <trkpt lat="36.536734" lon="-4.866366">
        <ele>269.383</ele>
        <time>2021-06-16T20:47:25Z</time>
      </trkpt>
      <trkpt lat="36.536586" lon="-4.86653">
        <ele>267.065</ele>
        <time>2021-06-16T20:47:26Z</time>
      </trkpt>
      <trkpt lat="36.536438" lon="-4.866696">
        <ele>264.794</ele>
        <time>2021-06-16T20:47:27Z</time>
      </trkpt>
      <trkpt lat="36.536145" lon="-4.867019">
        <ele>261.848</ele>
        <time>2021-06-16T20:47:29Z</time>
      </trkpt>
      <trkpt lat="36.535997" lon="-4.86718">
        <ele>259.471</ele>
        <time>2021-06-16T20:47:30Z</time>
      </trkpt>
      <trkpt lat="36.535699" lon="-4.867498">
        <ele>256.641</ele>
        <time>2021-06-16T20:47:32Z</time>
      </trkpt>
      <trkpt lat="36.53555" lon="-4.867657">
        <ele>254.515</ele>
        <time>2021-06-16T20:47:33Z</time>
      </trkpt>
      <trkpt lat="36.535254" lon="-4.867976">
        <ele>251.908</ele>
        <time>2021-06-16T20:47:35Z</time>
      </trkpt>
      <trkpt lat="36.535106" lon="-4.868138">
        <ele>249.764</ele>
        <time>2021-06-16T20:47:36Z</time>
      </trkpt>
      <trkpt lat="36.534805" lon="-4.868443">
        <ele>247.863</ele>
        <time>2021-06-16T20:47:38Z</time>
      </trkpt>
      <trkpt lat="36.534502" lon="-4.868744">
        <ele>245.557</ele>
        <time>2021-06-16T20:47:40Z</time>
      </trkpt>
      <trkpt lat="36.534216" lon="-4.869062">
        <ele>243.887</ele>
        <time>2021-06-16T20:47:42Z</time>
      </trkpt>
      <trkpt lat="36.53409" lon="-4.869232">
        <ele>242.543</ele>
        <time>2021-06-16T20:47:43Z</time>
      </trkpt>
      <trkpt lat="36.533886" lon="-4.869617">
        <ele>240.765</ele>
        <time>2021-06-16T20:47:45Z</time>
      </trkpt>
      <trkpt lat="36.533736" lon="-4.870026">
        <ele>238.124</ele>
        <time>2021-06-16T20:47:47Z</time>
      </trkpt>
      <trkpt lat="36.53362" lon="-4.870461">
        <ele>236.138</ele>
        <time>2021-06-16T20:47:49Z</time>
      </trkpt>
      <trkpt lat="36.533534" lon="-4.870894">
        <ele>234.341</ele>
        <time>2021-06-16T20:47:51Z</time>
      </trkpt>
      <trkpt lat="36.533429" lon="-4.871333">
        <ele>232.581</ele>
        <time>2021-06-16T20:47:53Z</time>
      </trkpt>
      <trkpt lat="36.533376" lon="-4.871553">
        <ele>231.109</ele>
        <time>2021-06-16T20:47:54Z</time>
      </trkpt>
      <trkpt lat="36.533244" lon="-4.871993">
        <ele>229.208</ele>
        <time>2021-06-16T20:47:56Z</time>
      </trkpt>
      <trkpt lat="36.53318" lon="-4.872202">
        <ele>228.271</ele>
        <time>2021-06-16T20:47:57Z</time>
      </trkpt>
      <trkpt lat="36.533039" lon="-4.872621">
        <ele>227.150</ele>
        <time>2021-06-16T20:47:59Z</time>
      </trkpt>
      <trkpt lat="36.532875" lon="-4.873032">
        <ele>224.824</ele>
        <time>2021-06-16T20:48:01Z</time>
      </trkpt>
      <trkpt lat="36.532668" lon="-4.873413">
        <ele>223.034</ele>
        <time>2021-06-16T20:48:03Z</time>
      </trkpt>
      <trkpt lat="36.53255" lon="-4.873586">
        <ele>221.050</ele>
        <time>2021-06-16T20:48:04Z</time>
      </trkpt>
      <trkpt lat="36.532292" lon="-4.873906">
        <ele>219.032</ele>
        <time>2021-06-16T20:48:06Z</time>
      </trkpt>
      <trkpt lat="36.532023" lon="-4.874216">
        <ele>217.031</ele>
        <time>2021-06-16T20:48:08Z</time>
      </trkpt>
      <trkpt lat="36.531895" lon="-4.874379">
        <ele>215.565</ele>
        <time>2021-06-16T20:48:09Z</time>
      </trkpt>
      <trkpt lat="36.531765" lon="-4.874539">
        <ele>214.267</ele>
        <time>2021-06-16T20:48:10Z</time>
      </trkpt>
      <trkpt lat="36.531635" lon="-4.874701">
        <ele>213.481</ele>
        <time>2021-06-16T20:48:11Z</time>
      </trkpt>
      <trkpt lat="36.531385" lon="-4.875038">
        <ele>211.519</ele>
        <time>2021-06-16T20:48:13Z</time>
      </trkpt>
      <trkpt lat="36.531264" lon="-4.875214">
        <ele>210.308</ele>
        <time>2021-06-16T20:48:14Z</time>
      </trkpt>
      <trkpt lat="36.531162" lon="-4.875404">
        <ele>208.523</ele>
        <time>2021-06-16T20:48:15Z</time>
      </trkpt>
      <trkpt lat="36.530981" lon="-4.875809">
        <ele>206.892</ele>
        <time>2021-06-16T20:48:17Z</time>
      </trkpt>
      <trkpt lat="36.530895" lon="-4.876015">
        <ele>205.026</ele>
        <time>2021-06-16T20:48:18Z</time>
      </trkpt>
      <trkpt lat="36.530811" lon="-4.876224">
        <ele>203.576</ele>
        <time>2021-06-16T20:48:19Z</time>
      </trkpt>
      <trkpt lat="36.530671" lon="-4.876647">
        <ele>202.022</ele>
        <time>2021-06-16T20:48:21Z</time>
      </trkpt>
      <trkpt lat="36.530533" lon="-4.877059">
        <ele>200.884</ele>
        <time>2021-06-16T20:48:23Z</time>
      </trkpt>
      <trkpt lat="36.530465" lon="-4.877261">
        <ele>200.193</ele>
        <time>2021-06-16T20:48:24Z</time>
      </trkpt>
      <trkpt lat="36.530328" lon="-4.877656">
        <ele>198.497</ele>
        <time>2021-06-16T20:48:26Z</time>
      </trkpt>
      <trkpt lat="36.530145" lon="-4.878043">
        <ele>195.117</ele>
        <time>2021-06-16T20:48:28Z</time>
      </trkpt>
      <trkpt lat="36.529917" lon="-4.878398">
        <ele>191.287</ele>
        <time>2021-06-16T20:48:30Z</time>
      </trkpt>
      <trkpt lat="36.529802" lon="-4.878575">
        <ele>188.315</ele>
        <time>2021-06-16T20:48:31Z</time>
      </trkpt>
      <trkpt lat="36.529695" lon="-4.878745">
        <ele>186.308</ele>
        <time>2021-06-16T20:48:32Z</time>
      </trkpt>
      <trkpt lat="36.529587" lon="-4.878908">
        <ele>184.738</ele>
        <time>2021-06-16T20:48:33Z</time>
      </trkpt>
      <trkpt lat="36.529401" lon="-4.87924">
        <ele>182.777</ele>
        <time>2021-06-16T20:48:35Z</time>
      </trkpt>
      <trkpt lat="36.529319" lon="-4.879411">
        <ele>180.851</ele>
        <time>2021-06-16T20:48:36Z</time>
      </trkpt>
      <trkpt lat="36.529174" lon="-4.879767">
        <ele>178.481</ele>
        <time>2021-06-16T20:48:38Z</time>
      </trkpt>
      <trkpt lat="36.529112" lon="-4.879952">
        <ele>177.127</ele>
        <time>2021-06-16T20:48:39Z</time>
      </trkpt>
      <trkpt lat="36.529057" lon="-4.880137">
        <ele>176.199</ele>
        <time>2021-06-16T20:48:40Z</time>
      </trkpt>
      <trkpt lat="36.528945" lon="-4.880513">
        <ele>174.818</ele>
        <time>2021-06-16T20:48:42Z</time>
      </trkpt>
      <trkpt lat="36.528887" lon="-4.88069">
        <ele>173.992</ele>
        <time>2021-06-16T20:48:43Z</time>
      </trkpt>
      <trkpt lat="36.528786" lon="-4.880998">
        <ele>173.017</ele>
        <time>2021-06-16T20:48:45Z</time>
      </trkpt>
      <trkpt lat="36.528669" lon="-4.881276">
        <ele>170.587</ele>
        <time>2021-06-16T20:48:47Z</time>
      </trkpt>
      <trkpt lat="36.528612" lon="-4.881409">
        <ele>168.115</ele>
        <time>2021-06-16T20:48:48Z</time>
      </trkpt>
      <trkpt lat="36.528559" lon="-4.881539">
        <ele>166.008</ele>
        <time>2021-06-16T20:48:49Z</time>
      </trkpt>
      <trkpt lat="36.528478" lon="-4.881752">
        <ele>163.848</ele>
        <time>2021-06-16T20:48:51Z</time>
      </trkpt>
      <trkpt lat="36.528457" lon="-4.881882">
        <ele>162.077</ele>
        <time>2021-06-16T20:48:53Z</time>
      </trkpt>
      <trkpt lat="36.528511" lon="-4.881911">
        <ele>160.751</ele>
        <time>2021-06-16T20:48:55Z</time>
      </trkpt>
      <trkpt lat="36.528573" lon="-4.881942">
        <ele>159.811</ele>
        <time>2021-06-16T20:48:58Z</time>
      </trkpt>
      <trkpt lat="36.528651" lon="-4.881953">
        <ele>159.057</ele>
        <time>2021-06-16T20:49:00Z</time>
      </trkpt>
      <trkpt lat="36.52874" lon="-4.881953">
        <ele>157.919</ele>
        <time>2021-06-16T20:49:02Z</time>
      </trkpt>
      <trkpt lat="36.528805" lon="-4.881961">
        <ele>157.628</ele>
        <time>2021-06-16T20:49:03Z</time>
      </trkpt>
      <trkpt lat="36.528867" lon="-4.881971">
        <ele>157.362</ele>
        <time>2021-06-16T20:49:04Z</time>
      </trkpt>
      <trkpt lat="36.528984" lon="-4.881999">
        <ele>156.918</ele>
        <time>2021-06-16T20:49:06Z</time>
      </trkpt>
      <trkpt lat="36.52904" lon="-4.882016">
        <ele>156.598</ele>
        <time>2021-06-16T20:49:07Z</time>
      </trkpt>
      <trkpt lat="36.529138" lon="-4.882067">
        <ele>156.117</ele>
        <time>2021-06-16T20:49:09Z</time>
      </trkpt>
      <trkpt lat="36.529169" lon="-4.882109">
        <ele>156.108</ele>
        <time>2021-06-16T20:49:10Z</time>
      </trkpt>
      <trkpt lat="36.529185" lon="-4.882172">
        <ele>155.838</ele>
        <time>2021-06-16T20:49:11Z</time>
      </trkpt>
      <trkpt lat="36.529207" lon="-4.88231">
        <ele>155.547</ele>
        <time>2021-06-16T20:49:13Z</time>
      </trkpt>
      <trkpt lat="36.529225" lon="-4.882397">
        <ele>154.361</ele>
        <time>2021-06-16T20:49:14Z</time>
      </trkpt>
      <trkpt lat="36.529255" lon="-4.882491">
        <ele>153.951</ele>
        <time>2021-06-16T20:49:15Z</time>
      </trkpt>
      <trkpt lat="36.529291" lon="-4.882587">
        <ele>153.687</ele>
        <time>2021-06-16T20:49:16Z</time>
      </trkpt>
      <trkpt lat="36.529354" lon="-4.882784">
        <ele>153.449</ele>
        <time>2021-06-16T20:49:18Z</time>
      </trkpt>
      <trkpt lat="36.529403" lon="-4.882985">
        <ele>151.978</ele>
        <time>2021-06-16T20:49:20Z</time>
      </trkpt>
      <trkpt lat="36.529396" lon="-4.883089">
        <ele>150.972</ele>
        <time>2021-06-16T20:49:21Z</time>
      </trkpt>
      <trkpt lat="36.529367" lon="-4.883198">
        <ele>150.094</ele>
        <time>2021-06-16T20:49:22Z</time>
      </trkpt>
      <trkpt lat="36.529284" lon="-4.883396">
        <ele>149.357</ele>
        <time>2021-06-16T20:49:24Z</time>
      </trkpt>
      <trkpt lat="36.529188" lon="-4.883597">
        <ele>149.322</ele>
        <time>2021-06-16T20:49:26Z</time>
      </trkpt>
      <trkpt lat="36.529164" lon="-4.883698">
        <ele>149.308</ele>
        <time>2021-06-16T20:49:27Z</time>
      </trkpt>
      <trkpt lat="36.529144" lon="-4.883792">
        <ele>149.446</ele>
        <time>2021-06-16T20:49:28Z</time>
      </trkpt>
      <trkpt lat="36.529169" lon="-4.883882">
        <ele>149.185</ele>
        <time>2021-06-16T20:49:29Z</time>
      </trkpt>
      <trkpt lat="36.529223" lon="-4.883972">
        <ele>148.899</ele>
        <time>2021-06-16T20:49:30Z</time>
      </trkpt>
      <trkpt lat="36.529335" lon="-4.884139">
        <ele>149.939</ele>
        <time>2021-06-16T20:49:32Z</time>
      </trkpt>
      <trkpt lat="36.529388" lon="-4.884214">
        <ele>151.925</ele>
        <time>2021-06-16T20:49:33Z</time>
      </trkpt>
      <trkpt lat="36.529506" lon="-4.884383">
        <ele>153.257</ele>
        <time>2021-06-16T20:49:35Z</time>
      </trkpt>
      <trkpt lat="36.529654" lon="-4.884524">
        <ele>155.496</ele>
        <time>2021-06-16T20:49:37Z</time>
      </trkpt>
      <trkpt lat="36.529733" lon="-4.884588">
        <ele>157.310</ele>
        <time>2021-06-16T20:49:38Z</time>
      </trkpt>
      <trkpt lat="36.52988" lon="-4.884694">
        <ele>159.347</ele>
        <time>2021-06-16T20:49:40Z</time>
      </trkpt>
      <trkpt lat="36.529948" lon="-4.884745">
        <ele>160.329</ele>
        <time>2021-06-16T20:49:41Z</time>
      </trkpt>
      <trkpt lat="36.530035" lon="-4.884891">
        <ele>161.421</ele>
        <time>2021-06-16T20:49:43Z</time>
      </trkpt>
      <trkpt lat="36.530061" lon="-4.884973">
        <ele>162.508</ele>
        <time>2021-06-16T20:49:44Z</time>
      </trkpt>
      <trkpt lat="36.530108" lon="-4.885119">
        <ele>163.461</ele>
        <time>2021-06-16T20:49:46Z</time>
      </trkpt>
      <trkpt lat="36.530107" lon="-4.88528">
        <ele>163.790</ele>
        <time>2021-06-16T20:49:48Z</time>
      </trkpt>
      <trkpt lat="36.530048" lon="-4.885488">
        <ele>163.914</ele>
        <time>2021-06-16T20:49:50Z</time>
      </trkpt>
      <trkpt lat="36.530012" lon="-4.885585">
        <ele>164.114</ele>
        <time>2021-06-16T20:49:51Z</time>
      </trkpt>
      <trkpt lat="36.529971" lon="-4.885677">
        <ele>164.270</ele>
        <time>2021-06-16T20:49:52Z</time>
      </trkpt>
      <trkpt lat="36.529864" lon="-4.885834">
        <ele>164.852</ele>
        <time>2021-06-16T20:49:54Z</time>
      </trkpt>
      <trkpt lat="36.529688" lon="-4.885918">
        <ele>165.081</ele>
        <time>2021-06-16T20:49:56Z</time>
      </trkpt>
      <trkpt lat="36.529591" lon="-4.88594">
        <ele>164.875</ele>
        <time>2021-06-16T20:49:57Z</time>
      </trkpt>
      <trkpt lat="36.529487" lon="-4.885952">
        <ele>164.389</ele>
        <time>2021-06-16T20:49:58Z</time>
      </trkpt>
      <trkpt lat="36.529284" lon="-4.885938">
        <ele>164.206</ele>
        <time>2021-06-16T20:50:00Z</time>
      </trkpt>
      <trkpt lat="36.52908" lon="-4.88588">
        <ele>164.926</ele>
        <time>2021-06-16T20:50:02Z</time>
      </trkpt>
      <trkpt lat="36.528986" lon="-4.885832">
        <ele>165.608</ele>
        <time>2021-06-16T20:50:03Z</time>
      </trkpt>
      <trkpt lat="36.528815" lon="-4.885708">
        <ele>165.545</ele>
        <time>2021-06-16T20:50:05Z</time>
      </trkpt>
      <trkpt lat="36.52873" lon="-4.885651">
        <ele>165.894</ele>
        <time>2021-06-16T20:50:06Z</time>
      </trkpt>
      <trkpt lat="36.528565" lon="-4.885544">
        <ele>166.688</ele>
        <time>2021-06-16T20:50:08Z</time>
      </trkpt>
      <trkpt lat="36.528482" lon="-4.885505">
        <ele>167.358</ele>
        <time>2021-06-16T20:50:09Z</time>
      </trkpt>
      <trkpt lat="36.52831" lon="-4.885472">
        <ele>168.474</ele>
        <time>2021-06-16T20:50:11Z</time>
      </trkpt>
      <trkpt lat="36.528157" lon="-4.885539">
        <ele>169.056</ele>
        <time>2021-06-16T20:50:13Z</time>
      </trkpt>
      <trkpt lat="36.528087" lon="-4.885591">
        <ele>169.445</ele>
        <time>2021-06-16T20:50:14Z</time>
      </trkpt>
      <trkpt lat="36.527934" lon="-4.885701">
        <ele>169.789</ele>
        <time>2021-06-16T20:50:16Z</time>
      </trkpt>
      <trkpt lat="36.527855" lon="-4.885765">
        <ele>170.298</ele>
        <time>2021-06-16T20:50:17Z</time>
      </trkpt>
      <trkpt lat="36.527729" lon="-4.885935">
        <ele>170.515</ele>
        <time>2021-06-16T20:50:19Z</time>
      </trkpt>
      <trkpt lat="36.527689" lon="-4.886033">
        <ele>170.426</ele>
        <time>2021-06-16T20:50:20Z</time>
      </trkpt>
      <trkpt lat="36.527665" lon="-4.886132">
        <ele>170.608</ele>
        <time>2021-06-16T20:50:21Z</time>
      </trkpt>
      <trkpt lat="36.527649" lon="-4.886348">
        <ele>170.476</ele>
        <time>2021-06-16T20:50:23Z</time>
      </trkpt>
      <trkpt lat="36.527656" lon="-4.886467">
        <ele>170.045</ele>
        <time>2021-06-16T20:50:24Z</time>
      </trkpt>
      <trkpt lat="36.527659" lon="-4.886734">
        <ele>169.119</ele>
        <time>2021-06-16T20:50:26Z</time>
      </trkpt>
      <trkpt lat="36.527689" lon="-4.886997">
        <ele>168.999</ele>
        <time>2021-06-16T20:50:28Z</time>
      </trkpt>
      <trkpt lat="36.527728" lon="-4.887204">
        <ele>168.215</ele>
        <time>2021-06-16T20:50:30Z</time>
      </trkpt>
      <trkpt lat="36.527753" lon="-4.887306">
        <ele>167.717</ele>
        <time>2021-06-16T20:50:31Z</time>
      </trkpt>
      <trkpt lat="36.527802" lon="-4.887412">
        <ele>166.676</ele>
        <time>2021-06-16T20:50:32Z</time>
      </trkpt>
      <trkpt lat="36.527854" lon="-4.887528">
        <ele>165.450</ele>
        <time>2021-06-16T20:50:33Z</time>
      </trkpt>
      <trkpt lat="36.527856" lon="-4.887769">
        <ele>163.642</ele>
        <time>2021-06-16T20:50:35Z</time>
      </trkpt>
      <trkpt lat="36.52776" lon="-4.888005">
        <ele>162.422</ele>
        <time>2021-06-16T20:50:37Z</time>
      </trkpt>
      <trkpt lat="36.527675" lon="-4.888248">
        <ele>161.914</ele>
        <time>2021-06-16T20:50:39Z</time>
      </trkpt>
      <trkpt lat="36.527595" lon="-4.8885">
        <ele>162.208</ele>
        <time>2021-06-16T20:50:41Z</time>
      </trkpt>
      <trkpt lat="36.527492" lon="-4.888756">
        <ele>162.351</ele>
        <time>2021-06-16T20:50:43Z</time>
      </trkpt>
      <trkpt lat="36.527435" lon="-4.889023">
        <ele>160.030</ele>
        <time>2021-06-16T20:50:45Z</time>
      </trkpt>
      <trkpt lat="36.527438" lon="-4.889278">
        <ele>159.044</ele>
        <time>2021-06-16T20:50:47Z</time>
      </trkpt>
      <trkpt lat="36.527484" lon="-4.889518">
        <ele>158.624</ele>
        <time>2021-06-16T20:50:49Z</time>
      </trkpt>
      <trkpt lat="36.527497" lon="-4.889626">
        <ele>158.090</ele>
        <time>2021-06-16T20:50:50Z</time>
      </trkpt>
      <trkpt lat="36.527497" lon="-4.889719">
        <ele>157.492</ele>
        <time>2021-06-16T20:50:51Z</time>
      </trkpt>
      <trkpt lat="36.527446" lon="-4.889855">
        <ele>155.351</ele>
        <time>2021-06-16T20:50:53Z</time>
      </trkpt>
      <trkpt lat="36.527391" lon="-4.889918">
        <ele>154.245</ele>
        <time>2021-06-16T20:50:55Z</time>
      </trkpt>
      <trkpt lat="36.527354" lon="-4.889954">
        <ele>153.693</ele>
        <time>2021-06-16T20:50:57Z</time>
      </trkpt>
      <trkpt lat="36.5273" lon="-4.889984">
        <ele>152.865</ele>
        <time>2021-06-16T20:50:59Z</time>
      </trkpt>
      <trkpt lat="36.527237" lon="-4.889994">
        <ele>148.921</ele>
        <time>2021-06-16T20:51:00Z</time>
      </trkpt>
      <trkpt lat="36.527161" lon="-4.890002">
        <ele>146.508</ele>
        <time>2021-06-16T20:51:02Z</time>
      </trkpt>
      <trkpt lat="36.527105" lon="-4.890013">
        <ele>145.186</ele>
        <time>2021-06-16T20:51:03Z</time>
      </trkpt>
      <trkpt lat="36.527052" lon="-4.890028">
        <ele>144.215</ele>
        <time>2021-06-16T20:51:04Z</time>
      </trkpt>
      <trkpt lat="36.526945" lon="-4.890049">
        <ele>143.779</ele>
        <time>2021-06-16T20:51:06Z</time>
      </trkpt>
      <trkpt lat="36.52688" lon="-4.890071">
        <ele>143.499</ele>
        <time>2021-06-16T20:51:07Z</time>
      </trkpt>
      <trkpt lat="36.52681" lon="-4.890102">
        <ele>143.215</ele>
        <time>2021-06-16T20:51:08Z</time>
      </trkpt>
      <trkpt lat="36.52665" lon="-4.890167">
        <ele>143.167</ele>
        <time>2021-06-16T20:51:10Z</time>
      </trkpt>
      <trkpt lat="36.526492" lon="-4.890229">
        <ele>143.086</ele>
        <time>2021-06-16T20:51:12Z</time>
      </trkpt>
      <trkpt lat="36.526364" lon="-4.890272">
        <ele>143.060</ele>
        <time>2021-06-16T20:51:14Z</time>
      </trkpt>
      <trkpt lat="36.526314" lon="-4.890288">
        <ele>143.019</ele>
        <time>2021-06-16T20:51:15Z</time>
      </trkpt>
      <trkpt lat="36.526249" lon="-4.890306">
        <ele>143.009</ele>
        <time>2021-06-16T20:51:17Z</time>
      </trkpt>
      <trkpt lat="36.526201" lon="-4.890336">
        <ele>143.019</ele>
        <time>2021-06-16T20:51:19Z</time>
      </trkpt>
      <trkpt lat="36.526117" lon="-4.890394">
        <ele>143.008</ele>
        <time>2021-06-16T20:51:21Z</time>
      </trkpt>
      <trkpt lat="36.52606" lon="-4.890422">
        <ele>143.068</ele>
        <time>2021-06-16T20:51:22Z</time>
      </trkpt>
      <trkpt lat="36.525922" lon="-4.890483">
        <ele>143.077</ele>
        <time>2021-06-16T20:51:24Z</time>
      </trkpt>
      <trkpt lat="36.525779" lon="-4.890593">
        <ele>143.021</ele>
        <time>2021-06-16T20:51:26Z</time>
      </trkpt>
      <trkpt lat="36.525706" lon="-4.890649">
        <ele>143.081</ele>
        <time>2021-06-16T20:51:27Z</time>
      </trkpt>
      <trkpt lat="36.525573" lon="-4.890759">
        <ele>143.047</ele>
        <time>2021-06-16T20:51:29Z</time>
      </trkpt>
      <trkpt lat="36.525469" lon="-4.890858">
        <ele>143.019</ele>
        <time>2021-06-16T20:51:31Z</time>
      </trkpt>
      <trkpt lat="36.525356" lon="-4.890962">
        <ele>143.098</ele>
        <time>2021-06-16T20:51:33Z</time>
      </trkpt>
      <trkpt lat="36.525291" lon="-4.89102">
        <ele>143.032</ele>
        <time>2021-06-16T20:51:34Z</time>
      </trkpt>
      <trkpt lat="36.525219" lon="-4.891078">
        <ele>143.046</ele>
        <time>2021-06-16T20:51:35Z</time>
      </trkpt>
      <trkpt lat="36.525148" lon="-4.891134">
        <ele>143.088</ele>
        <time>2021-06-16T20:51:36Z</time>
      </trkpt>
      <trkpt lat="36.525003" lon="-4.891246">
        <ele>143.016</ele>
        <time>2021-06-16T20:51:38Z</time>
      </trkpt>
      <trkpt lat="36.524932" lon="-4.8913">
        <ele>143.008</ele>
        <time>2021-06-16T20:51:39Z</time>
      </trkpt>
      <trkpt lat="36.524868" lon="-4.891349">
        <ele>143.031</ele>
        <time>2021-06-16T20:51:40Z</time>
      </trkpt>
      <trkpt lat="36.524815" lon="-4.891393">
        <ele>143.020</ele>
        <time>2021-06-16T20:51:41Z</time>
      </trkpt>
      <trkpt lat="36.524762" lon="-4.891438">
        <ele>143.094</ele>
        <time>2021-06-16T20:51:42Z</time>
      </trkpt>
      <trkpt lat="36.524699" lon="-4.891482">
        <ele>143.054</ele>
        <time>2021-06-16T20:51:43Z</time>
      </trkpt>
      <trkpt lat="36.524545" lon="-4.891569">
        <ele>143.040</ele>
        <time>2021-06-16T20:51:45Z</time>
      </trkpt>
      <trkpt lat="36.524371" lon="-4.891663">
        <ele>143.092</ele>
        <time>2021-06-16T20:51:47Z</time>
      </trkpt>
      <trkpt lat="36.524204" lon="-4.891768">
        <ele>143.051</ele>
        <time>2021-06-16T20:51:49Z</time>
      </trkpt>
      <trkpt lat="36.524046" lon="-4.891858">
        <ele>143.035</ele>
        <time>2021-06-16T20:51:51Z</time>
      </trkpt>
      <trkpt lat="36.52397" lon="-4.891891">
        <ele>143.073</ele>
        <time>2021-06-16T20:51:52Z</time>
      </trkpt>
      <trkpt lat="36.523895" lon="-4.89192">
        <ele>143.085</ele>
        <time>2021-06-16T20:51:53Z</time>
      </trkpt>
      <trkpt lat="36.523798" lon="-4.891965">
        <ele>143.013</ele>
        <time>2021-06-16T20:51:55Z</time>
      </trkpt>
      <trkpt lat="36.523758" lon="-4.891991">
        <ele>143.008</ele>
        <time>2021-06-16T20:51:56Z</time>
      </trkpt>
      <trkpt lat="36.523679" lon="-4.892074">
        <ele>143.094</ele>
        <time>2021-06-16T20:51:58Z</time>
      </trkpt>
      <trkpt lat="36.523644" lon="-4.892136">
        <ele>143.043</ele>
        <time>2021-06-16T20:51:59Z</time>
      </trkpt>
      <trkpt lat="36.523545" lon="-4.892247">
        <ele>143.067</ele>
        <time>2021-06-16T20:52:01Z</time>
      </trkpt>
      <trkpt lat="36.523416" lon="-4.892261">
        <ele>139.057</ele>
        <time>2021-06-16T20:52:03Z</time>
      </trkpt>
      <trkpt lat="36.52334" lon="-4.892261">
        <ele>135.033</ele>
        <time>2021-06-16T20:52:04Z</time>
      </trkpt>
      <trkpt lat="36.523172" lon="-4.892273">
        <ele>131.095</ele>
        <time>2021-06-16T20:52:06Z</time>
      </trkpt>
      <trkpt lat="36.522999" lon="-4.892258">
        <ele>127.014</ele>
        <time>2021-06-16T20:52:08Z</time>
      </trkpt>
      <trkpt lat="36.522917" lon="-4.892228">
        <ele>123.058</ele>
        <time>2021-06-16T20:52:09Z</time>
      </trkpt>
      <trkpt lat="36.522838" lon="-4.89219">
        <ele>119.032</ele>
        <time>2021-06-16T20:52:10Z</time>
      </trkpt>
      <trkpt lat="36.522677" lon="-4.89211">
        <ele>115.092</ele>
        <time>2021-06-16T20:52:12Z</time>
      </trkpt>
      <trkpt lat="36.522506" lon="-4.892054">
        <ele>111.011</ele>
        <time>2021-06-16T20:52:14Z</time>
      </trkpt>
      <trkpt lat="36.522332" lon="-4.892028">
        <ele>107.008</ele>
        <time>2021-06-16T20:52:16Z</time>
      </trkpt>
      <trkpt lat="36.522239" lon="-4.892015">
        <ele>104.670</ele>
        <time>2021-06-16T20:52:17Z</time>
      </trkpt>
      <trkpt lat="36.522045" lon="-4.892006">
        <ele>102.589</ele>
        <time>2021-06-16T20:52:19Z</time>
      </trkpt>
      <trkpt lat="36.521946" lon="-4.892012">
        <ele>101.263</ele>
        <time>2021-06-16T20:52:20Z</time>
      </trkpt>
      <trkpt lat="36.521844" lon="-4.892019">
        <ele>100.273</ele>
        <time>2021-06-16T20:52:21Z</time>
      </trkpt>
      <trkpt lat="36.521633" lon="-4.892035">
        <ele>99.499</ele>
        <time>2021-06-16T20:52:23Z</time>
      </trkpt>
      <trkpt lat="36.521415" lon="-4.892033">
        <ele>99.431</ele>
        <time>2021-06-16T20:52:25Z</time>
      </trkpt>
      <trkpt lat="36.521306" lon="-4.892025">
        <ele>99.680</ele>
        <time>2021-06-16T20:52:26Z</time>
      </trkpt>
      <trkpt lat="36.521202" lon="-4.892022">
        <ele>99.444</ele>
        <time>2021-06-16T20:52:27Z</time>
      </trkpt>
      <trkpt lat="36.521004" lon="-4.891999">
        <ele>100.056</ele>
        <time>2021-06-16T20:52:29Z</time>
      </trkpt>
      <trkpt lat="36.520851" lon="-4.891966">
        <ele>100.159</ele>
        <time>2021-06-16T20:52:31Z</time>
      </trkpt>
      <trkpt lat="36.520793" lon="-4.89196">
        <ele>99.714</ele>
        <time>2021-06-16T20:52:32Z</time>
      </trkpt>
      <trkpt lat="36.520699" lon="-4.891955">
        <ele>99.808</ele>
        <time>2021-06-16T20:52:34Z</time>
      </trkpt>
      <trkpt lat="36.52064" lon="-4.891964">
        <ele>100.092</ele>
        <time>2021-06-16T20:52:36Z</time>
      </trkpt>
      <trkpt lat="36.520541" lon="-4.891994">
        <ele>100.051</ele>
        <time>2021-06-16T20:52:38Z</time>
      </trkpt>
      <trkpt lat="36.520426" lon="-4.891958">
        <ele>100.095</ele>
        <time>2021-06-16T20:52:40Z</time>
      </trkpt>
      <trkpt lat="36.520378" lon="-4.891907">
        <ele>100.055</ele>
        <time>2021-06-16T20:52:41Z</time>
      </trkpt>
      <trkpt lat="36.520276" lon="-4.891802">
        <ele>98.941</ele>
        <time>2021-06-16T20:52:43Z</time>
      </trkpt>
      <trkpt lat="36.520129" lon="-4.891735">
        <ele>99.053</ele>
        <time>2021-06-16T20:52:45Z</time>
      </trkpt>
      <trkpt lat="36.520055" lon="-4.891705">
        <ele>99.292</ele>
        <time>2021-06-16T20:52:46Z</time>
      </trkpt>
      <trkpt lat="36.519983" lon="-4.891667">
        <ele>99.286</ele>
        <time>2021-06-16T20:52:47Z</time>
      </trkpt>
      <trkpt lat="36.519919" lon="-4.891627">
        <ele>99.194</ele>
        <time>2021-06-16T20:52:48Z</time>
      </trkpt>
      <trkpt lat="36.519852" lon="-4.891592">
        <ele>99.157</ele>
        <time>2021-06-16T20:52:49Z</time>
      </trkpt>
      <trkpt lat="36.519708" lon="-4.891569">
        <ele>99.222</ele>
        <time>2021-06-16T20:52:51Z</time>
      </trkpt>
      <trkpt lat="36.519567" lon="-4.891536">
        <ele>99.708</ele>
        <time>2021-06-16T20:52:53Z</time>
      </trkpt>
      <trkpt lat="36.5195" lon="-4.891483">
        <ele>99.556</ele>
        <time>2021-06-16T20:52:54Z</time>
      </trkpt>
      <trkpt lat="36.519371" lon="-4.891344">
        <ele>99.425</ele>
        <time>2021-06-16T20:52:56Z</time>
      </trkpt>
      <trkpt lat="36.519232" lon="-4.891211">
        <ele>99.749</ele>
        <time>2021-06-16T20:52:58Z</time>
      </trkpt>
      <trkpt lat="36.51916" lon="-4.891137">
        <ele>99.219</ele>
        <time>2021-06-16T20:52:59Z</time>
      </trkpt>
      <trkpt lat="36.519027" lon="-4.890994">
        <ele>98.585</ele>
        <time>2021-06-16T20:53:01Z</time>
      </trkpt>
      <trkpt lat="36.518889" lon="-4.890848">
        <ele>97.637</ele>
        <time>2021-06-16T20:53:03Z</time>
      </trkpt>
      <trkpt lat="36.518751" lon="-4.890714">
        <ele>96.996</ele>
        <time>2021-06-16T20:53:05Z</time>
      </trkpt>
      <trkpt lat="36.518605" lon="-4.89059">
        <ele>96.790</ele>
        <time>2021-06-16T20:53:07Z</time>
      </trkpt>
      <trkpt lat="36.518472" lon="-4.890454">
        <ele>95.995</ele>
        <time>2021-06-16T20:53:09Z</time>
      </trkpt>
      <trkpt lat="36.518364" lon="-4.890318">
        <ele>93.749</ele>
        <time>2021-06-16T20:53:11Z</time>
      </trkpt>
      <trkpt lat="36.518242" lon="-4.890198">
        <ele>92.223</ele>
        <time>2021-06-16T20:53:13Z</time>
      </trkpt>
      <trkpt lat="36.518189" lon="-4.890145">
        <ele>90.808</ele>
        <time>2021-06-16T20:53:14Z</time>
      </trkpt>
      <trkpt lat="36.518095" lon="-4.890082">
        <ele>90.016</ele>
        <time>2021-06-16T20:53:16Z</time>
      </trkpt>
      <trkpt lat="36.51799" lon="-4.890082">
        <ele>89.395</ele>
        <time>2021-06-16T20:53:18Z</time>
      </trkpt>
      <trkpt lat="36.517936" lon="-4.890105">
        <ele>88.579</ele>
        <time>2021-06-16T20:53:19Z</time>
      </trkpt>
      <trkpt lat="36.517887" lon="-4.890146">
        <ele>87.379</ele>
        <time>2021-06-16T20:53:20Z</time>
      </trkpt>
      <trkpt lat="36.517826" lon="-4.8903">
        <ele>86.625</ele>
        <time>2021-06-16T20:53:22Z</time>
      </trkpt>
      <trkpt lat="36.517805" lon="-4.890477">
        <ele>85.957</ele>
        <time>2021-06-16T20:53:24Z</time>
      </trkpt>
      <trkpt lat="36.517798" lon="-4.890642">
        <ele>85.696</ele>
        <time>2021-06-16T20:53:26Z</time>
      </trkpt>
      <trkpt lat="36.517807" lon="-4.890718">
        <ele>84.820</ele>
        <time>2021-06-16T20:53:27Z</time>
      </trkpt>
      <trkpt lat="36.51783" lon="-4.890864">
        <ele>84.958</ele>
        <time>2021-06-16T20:53:29Z</time>
      </trkpt>
      <trkpt lat="36.517835" lon="-4.890937">
        <ele>85.152</ele>
        <time>2021-06-16T20:53:30Z</time>
      </trkpt>
      <trkpt lat="36.517842" lon="-4.89101">
        <ele>84.917</ele>
        <time>2021-06-16T20:53:31Z</time>
      </trkpt>
      <trkpt lat="36.517847" lon="-4.891085">
        <ele>84.608</ele>
        <time>2021-06-16T20:53:32Z</time>
      </trkpt>
      <trkpt lat="36.517859" lon="-4.891256">
        <ele>84.742</ele>
        <time>2021-06-16T20:53:34Z</time>
      </trkpt>
      <trkpt lat="36.517861" lon="-4.89145">
        <ele>84.261</ele>
        <time>2021-06-16T20:53:36Z</time>
      </trkpt>
      <trkpt lat="36.517834" lon="-4.891648">
        <ele>83.345</ele>
        <time>2021-06-16T20:53:38Z</time>
      </trkpt>
      <trkpt lat="36.517771" lon="-4.891845">
        <ele>81.955</ele>
        <time>2021-06-16T20:53:40Z</time>
      </trkpt>
      <trkpt lat="36.51773" lon="-4.891939">
        <ele>81.361</ele>
        <time>2021-06-16T20:53:41Z</time>
      </trkpt>
      <trkpt lat="36.517622" lon="-4.892102">
        <ele>81.223</ele>
        <time>2021-06-16T20:53:43Z</time>
      </trkpt>
      <trkpt lat="36.517484" lon="-4.892226">
        <ele>82.012</ele>
        <time>2021-06-16T20:53:45Z</time>
      </trkpt>
      <trkpt lat="36.517365" lon="-4.892351">
        <ele>81.456</ele>
        <time>2021-06-16T20:53:47Z</time>
      </trkpt>
      <trkpt lat="36.51725" lon="-4.892466">
        <ele>81.322</ele>
        <time>2021-06-16T20:53:49Z</time>
      </trkpt>
      <trkpt lat="36.517138" lon="-4.892557">
        <ele>81.762</ele>
        <time>2021-06-16T20:53:51Z</time>
      </trkpt>
      <trkpt lat="36.517076" lon="-4.892598">
        <ele>81.908</ele>
        <time>2021-06-16T20:53:52Z</time>
      </trkpt>
      <trkpt lat="36.516953" lon="-4.892668">
        <ele>82.608</ele>
        <time>2021-06-16T20:53:54Z</time>
      </trkpt>
      <trkpt lat="36.516896" lon="-4.892712">
        <ele>83.279</ele>
        <time>2021-06-16T20:53:55Z</time>
      </trkpt>
      <trkpt lat="36.516842" lon="-4.892765">
        <ele>84.468</ele>
        <time>2021-06-16T20:53:56Z</time>
      </trkpt>
      <trkpt lat="36.516746" lon="-4.892934">
        <ele>84.632</ele>
        <time>2021-06-16T20:53:58Z</time>
      </trkpt>
      <trkpt lat="36.516696" lon="-4.893038">
        <ele>84.472</ele>
        <time>2021-06-16T20:53:59Z</time>
      </trkpt>
      <trkpt lat="36.516595" lon="-4.893244">
        <ele>85.198</ele>
        <time>2021-06-16T20:54:01Z</time>
      </trkpt>
      <trkpt lat="36.516541" lon="-4.893349">
        <ele>85.650</ele>
        <time>2021-06-16T20:54:02Z</time>
      </trkpt>
      <trkpt lat="36.516428" lon="-4.893553">
        <ele>86.069</ele>
        <time>2021-06-16T20:54:04Z</time>
      </trkpt>
      <trkpt lat="36.516373" lon="-4.89365">
        <ele>86.013</ele>
        <time>2021-06-16T20:54:05Z</time>
      </trkpt>
      <trkpt lat="36.516276" lon="-4.893855">
        <ele>84.935</ele>
        <time>2021-06-16T20:54:07Z</time>
      </trkpt>
      <trkpt lat="36.516239" lon="-4.893954">
        <ele>84.486</ele>
        <time>2021-06-16T20:54:08Z</time>
      </trkpt>
      <trkpt lat="36.516214" lon="-4.894165">
        <ele>83.114</ele>
        <time>2021-06-16T20:54:10Z</time>
      </trkpt>
      <trkpt lat="36.516213" lon="-4.894357">
        <ele>82.708</ele>
        <time>2021-06-16T20:54:12Z</time>
      </trkpt>
      <trkpt lat="36.516197" lon="-4.894454">
        <ele>81.980</ele>
        <time>2021-06-16T20:54:13Z</time>
      </trkpt>
      <trkpt lat="36.516141" lon="-4.894659">
        <ele>81.449</ele>
        <time>2021-06-16T20:54:15Z</time>
      </trkpt>
      <trkpt lat="36.516051" lon="-4.894852">
        <ele>80.943</ele>
        <time>2021-06-16T20:54:17Z</time>
      </trkpt>
      <trkpt lat="36.515937" lon="-4.89504">
        <ele>80.723</ele>
        <time>2021-06-16T20:54:19Z</time>
      </trkpt>
      <trkpt lat="36.51587" lon="-4.895136">
        <ele>80.339</ele>
        <time>2021-06-16T20:54:20Z</time>
      </trkpt>
      <trkpt lat="36.515801" lon="-4.895232">
        <ele>80.061</ele>
        <time>2021-06-16T20:54:21Z</time>
      </trkpt>
      <trkpt lat="36.51567" lon="-4.895431">
        <ele>79.980</ele>
        <time>2021-06-16T20:54:23Z</time>
      </trkpt>
      <trkpt lat="36.515536" lon="-4.89562">
        <ele>79.084</ele>
        <time>2021-06-16T20:54:25Z</time>
      </trkpt>
      <trkpt lat="36.515442" lon="-4.895772">
        <ele>77.867</ele>
        <time>2021-06-16T20:54:27Z</time>
      </trkpt>
      <trkpt lat="36.515353" lon="-4.895885">
        <ele>76.581</ele>
        <time>2021-06-16T20:54:29Z</time>
      </trkpt>
      <trkpt lat="36.515254" lon="-4.896036">
        <ele>74.519</ele>
        <time>2021-06-16T20:54:31Z</time>
      </trkpt>
      <trkpt lat="36.515192" lon="-4.896125">
        <ele>74.308</ele>
        <time>2021-06-16T20:54:32Z</time>
      </trkpt>
      <trkpt lat="36.515127" lon="-4.896219">
        <ele>74.893</ele>
        <time>2021-06-16T20:54:33Z</time>
      </trkpt>
      <trkpt lat="36.51498" lon="-4.896402">
        <ele>73.982</ele>
        <time>2021-06-16T20:54:35Z</time>
      </trkpt>
      <trkpt lat="36.514897" lon="-4.896492">
        <ele>73.336</ele>
        <time>2021-06-16T20:54:36Z</time>
      </trkpt>
      <trkpt lat="36.51481" lon="-4.896577">
        <ele>73.256</ele>
        <time>2021-06-16T20:54:37Z</time>
      </trkpt>
      <trkpt lat="36.514634" lon="-4.896735">
        <ele>72.982</ele>
        <time>2021-06-16T20:54:39Z</time>
      </trkpt>
      <trkpt lat="36.514545" lon="-4.89681">
        <ele>72.434</ele>
        <time>2021-06-16T20:54:40Z</time>
      </trkpt>
      <trkpt lat="36.514343" lon="-4.896933">
        <ele>72.293</ele>
        <time>2021-06-16T20:54:42Z</time>
      </trkpt>
      <trkpt lat="36.51425" lon="-4.897002">
        <ele>71.997</ele>
        <time>2021-06-16T20:54:43Z</time>
      </trkpt>
      <trkpt lat="36.514162" lon="-4.897077">
        <ele>71.382</ele>
        <time>2021-06-16T20:54:44Z</time>
      </trkpt>
      <trkpt lat="36.514066" lon="-4.89715">
        <ele>70.843</ele>
        <time>2021-06-16T20:54:45Z</time>
      </trkpt>
      <trkpt lat="36.513862" lon="-4.897285">
        <ele>70.717</ele>
        <time>2021-06-16T20:54:47Z</time>
      </trkpt>
      <trkpt lat="36.513677" lon="-4.897446">
        <ele>70.608</ele>
        <time>2021-06-16T20:54:49Z</time>
      </trkpt>
      <trkpt lat="36.51349" lon="-4.897596">
        <ele>70.495</ele>
        <time>2021-06-16T20:54:51Z</time>
      </trkpt>
      <trkpt lat="36.513308" lon="-4.89773">
        <ele>70.084</ele>
        <time>2021-06-16T20:54:53Z</time>
      </trkpt>
      <trkpt lat="36.513215" lon="-4.897798">
        <ele>69.758</ele>
        <time>2021-06-16T20:54:54Z</time>
      </trkpt>
      <trkpt lat="36.513119" lon="-4.897866">
        <ele>69.738</ele>
        <time>2021-06-16T20:54:55Z</time>
      </trkpt>
      <trkpt lat="36.512965" lon="-4.898048">
        <ele>67.634</ele>
        <time>2021-06-16T20:54:57Z</time>
      </trkpt>
      <trkpt lat="36.512843" lon="-4.898258">
        <ele>65.626</ele>
        <time>2021-06-16T20:54:59Z</time>
      </trkpt>
      <trkpt lat="36.512799" lon="-4.898497">
        <ele>63.645</ele>
        <time>2021-06-16T20:55:01Z</time>
      </trkpt>
      <trkpt lat="36.512789" lon="-4.898612">
        <ele>62.189</ele>
        <time>2021-06-16T20:55:02Z</time>
      </trkpt>
      <trkpt lat="36.512788" lon="-4.898841">
        <ele>60.945</ele>
        <time>2021-06-16T20:55:04Z</time>
      </trkpt>
      <trkpt lat="36.512793" lon="-4.898951">
        <ele>59.647</ele>
        <time>2021-06-16T20:55:05Z</time>
      </trkpt>
      <trkpt lat="36.512789" lon="-4.899181">
        <ele>58.011</ele>
        <time>2021-06-16T20:55:07Z</time>
      </trkpt>
      <trkpt lat="36.512786" lon="-4.89943">
        <ele>56.908</ele>
        <time>2021-06-16T20:55:09Z</time>
      </trkpt>
      <trkpt lat="36.512772" lon="-4.899563">
        <ele>54.971</ele>
        <time>2021-06-16T20:55:10Z</time>
      </trkpt>
      <trkpt lat="36.512745" lon="-4.899797">
        <ele>54.190</ele>
        <time>2021-06-16T20:55:12Z</time>
      </trkpt>
      <trkpt lat="36.512731" lon="-4.899912">
        <ele>52.874</ele>
        <time>2021-06-16T20:55:13Z</time>
      </trkpt>
      <trkpt lat="36.51267" lon="-4.90014">
        <ele>51.674</ele>
        <time>2021-06-16T20:55:15Z</time>
      </trkpt>
      <trkpt lat="36.512618" lon="-4.900271">
        <ele>50.310</ele>
        <time>2021-06-16T20:55:16Z</time>
      </trkpt>
      <trkpt lat="36.51256" lon="-4.900387">
        <ele>48.732</ele>
        <time>2021-06-16T20:55:17Z</time>
      </trkpt>
      <trkpt lat="36.512429" lon="-4.900586">
        <ele>47.821</ele>
        <time>2021-06-16T20:55:19Z</time>
      </trkpt>
      <trkpt lat="36.51229" lon="-4.900757">
        <ele>45.935</ele>
        <time>2021-06-16T20:55:21Z</time>
      </trkpt>
      <trkpt lat="36.512225" lon="-4.900834">
        <ele>44.549</ele>
        <time>2021-06-16T20:55:22Z</time>
      </trkpt>
      <trkpt lat="36.512144" lon="-4.900891">
        <ele>43.802</ele>
        <time>2021-06-16T20:55:23Z</time>
      </trkpt>
      <trkpt lat="36.511976" lon="-4.900988">
        <ele>42.622</ele>
        <time>2021-06-16T20:55:25Z</time>
      </trkpt>
      <trkpt lat="36.511906" lon="-4.901033">
        <ele>41.508</ele>
        <time>2021-06-16T20:55:26Z</time>
      </trkpt>
      <trkpt lat="36.511791" lon="-4.901107">
        <ele>40.071</ele>
        <time>2021-06-16T20:55:28Z</time>
      </trkpt>
      <trkpt lat="36.511714" lon="-4.901152">
        <ele>39.120</ele>
        <time>2021-06-16T20:55:30Z</time>
      </trkpt>
      <trkpt lat="36.511708" lon="-4.901096">
        <ele>37.354</ele>
        <time>2021-06-16T20:55:57Z</time>
      </trkpt>
      <trkpt lat="36.511663" lon="-4.901124">
        <ele>36.264</ele>
        <time>2021-06-16T20:56:00Z</time>
      </trkpt>
      <trkpt lat="36.511548" lon="-4.901164">
        <ele>35.650</ele>
        <time>2021-06-16T20:56:02Z</time>
      </trkpt>
      <trkpt lat="36.511472" lon="-4.901179">
        <ele>35.222</ele>
        <time>2021-06-16T20:56:03Z</time>
      </trkpt>
      <trkpt lat="36.511312" lon="-4.901184">
        <ele>35.081</ele>
        <time>2021-06-16T20:56:05Z</time>
      </trkpt>
      <trkpt lat="36.511232" lon="-4.901182">
        <ele>34.915</ele>
        <time>2021-06-16T20:56:06Z</time>
      </trkpt>
      <trkpt lat="36.511147" lon="-4.901179">
        <ele>34.882</ele>
        <time>2021-06-16T20:56:07Z</time>
      </trkpt>
      <trkpt lat="36.510981" lon="-4.901169">
        <ele>34.743</ele>
        <time>2021-06-16T20:56:09Z</time>
      </trkpt>
      <trkpt lat="36.510922" lon="-4.901163">
        <ele>34.717</ele>
        <time>2021-06-16T20:56:10Z</time>
      </trkpt>
      <trkpt lat="36.510874" lon="-4.901164">
        <ele>34.708</ele>
        <time>2021-06-16T20:56:13Z</time>
      </trkpt>
      <trkpt lat="36.510832" lon="-4.901209">
        <ele>33.295</ele>
        <time>2021-06-16T20:57:37Z</time>
      </trkpt>
      <trkpt lat="36.510741" lon="-4.901208">
        <ele>32.374</ele>
        <time>2021-06-16T20:57:38Z</time>
      </trkpt>
      <trkpt lat="36.510667" lon="-4.901226">
        <ele>31.878</ele>
        <time>2021-06-16T20:57:39Z</time>
      </trkpt>
      <trkpt lat="36.510598" lon="-4.901256">
        <ele>31.518</ele>
        <time>2021-06-16T20:57:40Z</time>
      </trkpt>
      <trkpt lat="36.51049" lon="-4.901335">
        <ele>31.334</ele>
        <time>2021-06-16T20:57:42Z</time>
      </trkpt>
      <trkpt lat="36.510454" lon="-4.901394">
        <ele>31.236</ele>
        <time>2021-06-16T20:57:43Z</time>
      </trkpt>
      <trkpt lat="36.510422" lon="-4.901572">
        <ele>31.125</ele>
        <time>2021-06-16T20:57:45Z</time>
      </trkpt>
      <trkpt lat="36.510419" lon="-4.901679">
        <ele>31.179</ele>
        <time>2021-06-16T20:57:46Z</time>
      </trkpt>
      <trkpt lat="36.510418" lon="-4.901917">
        <ele>31.166</ele>
        <time>2021-06-16T20:57:48Z</time>
      </trkpt>
      <trkpt lat="36.510402" lon="-4.902181">
        <ele>31.129</ele>
        <time>2021-06-16T20:57:50Z</time>
      </trkpt>
      <trkpt lat="36.51039" lon="-4.902472">
        <ele>31.121</ele>
        <time>2021-06-16T20:57:52Z</time>
      </trkpt>
      <trkpt lat="36.510392" lon="-4.902623">
        <ele>31.108</ele>
        <time>2021-06-16T20:57:53Z</time>
      </trkpt>
      <trkpt lat="36.5104" lon="-4.902778">
        <ele>31.123</ele>
        <time>2021-06-16T20:57:54Z</time>
      </trkpt>
      <trkpt lat="36.510406" lon="-4.902936">
        <ele>31.112</ele>
        <time>2021-06-16T20:57:55Z</time>
      </trkpt>
      <trkpt lat="36.510417" lon="-4.90325">
        <ele>31.146</ele>
        <time>2021-06-16T20:57:57Z</time>
      </trkpt>
      <trkpt lat="36.51042" lon="-4.903404">
        <ele>31.146</ele>
        <time>2021-06-16T20:57:58Z</time>
      </trkpt>
      <trkpt lat="36.510421" lon="-4.903559">
        <ele>31.122</ele>
        <time>2021-06-16T20:57:59Z</time>
      </trkpt>
      <trkpt lat="36.510422" lon="-4.903879">
        <ele>31.144</ele>
        <time>2021-06-16T20:58:01Z</time>
      </trkpt>
      <trkpt lat="36.510422" lon="-4.904043">
        <ele>31.133</ele>
        <time>2021-06-16T20:58:02Z</time>
      </trkpt>
      <trkpt lat="36.510425" lon="-4.904211">
        <ele>31.197</ele>
        <time>2021-06-16T20:58:03Z</time>
      </trkpt>
      <trkpt lat="36.510428" lon="-4.904552">
        <ele>31.166</ele>
        <time>2021-06-16T20:58:05Z</time>
      </trkpt>
      <trkpt lat="36.510437" lon="-4.904722">
        <ele>31.129</ele>
        <time>2021-06-16T20:58:06Z</time>
      </trkpt>
      <trkpt lat="36.510445" lon="-4.905053">
        <ele>31.121</ele>
        <time>2021-06-16T20:58:08Z</time>
      </trkpt>
      <trkpt lat="36.510443" lon="-4.905195">
        <ele>31.108</ele>
        <time>2021-06-16T20:58:09Z</time>
      </trkpt>
      <trkpt lat="36.510439" lon="-4.905405">
        <ele>31.123</ele>
        <time>2021-06-16T20:58:11Z</time>
      </trkpt>
      <trkpt lat="36.510437" lon="-4.90548">
        <ele>31.172</ele>
        <time>2021-06-16T20:58:12Z</time>
      </trkpt>
      <trkpt lat="36.510434" lon="-4.905543">
        <ele>31.126</ele>
        <time>2021-06-16T20:58:14Z</time>
      </trkpt>
      <trkpt lat="36.510423" lon="-4.905601">
        <ele>30.866</ele>
        <time>2021-06-16T20:58:50Z</time>
      </trkpt>
      <trkpt lat="36.510416" lon="-4.905752">
        <ele>30.612</ele>
        <time>2021-06-16T20:58:52Z</time>
      </trkpt>
      <trkpt lat="36.510392" lon="-4.906016">
        <ele>30.564</ele>
        <time>2021-06-16T20:58:54Z</time>
      </trkpt>
      <trkpt lat="36.510349" lon="-4.906312">
        <ele>30.433</ele>
        <time>2021-06-16T20:58:56Z</time>
      </trkpt>
      <trkpt lat="36.510319" lon="-4.906471">
        <ele>30.457</ele>
        <time>2021-06-16T20:58:57Z</time>
      </trkpt>
      <trkpt lat="36.510286" lon="-4.906629">
        <ele>30.438</ele>
        <time>2021-06-16T20:58:58Z</time>
      </trkpt>
      <trkpt lat="36.510215" lon="-4.906949">
        <ele>30.470</ele>
        <time>2021-06-16T20:59:00Z</time>
      </trkpt>
      <trkpt lat="36.510174" lon="-4.907117">
        <ele>30.417</ele>
        <time>2021-06-16T20:59:01Z</time>
      </trkpt>
      <trkpt lat="36.510086" lon="-4.907454">
        <ele>30.408</ele>
        <time>2021-06-16T20:59:03Z</time>
      </trkpt>
      <trkpt lat="36.510006" lon="-4.907788">
        <ele>30.450</ele>
        <time>2021-06-16T20:59:05Z</time>
      </trkpt>
      <trkpt lat="36.509926" lon="-4.908137">
        <ele>30.449</ele>
        <time>2021-06-16T20:59:07Z</time>
      </trkpt>
      <trkpt lat="36.509832" lon="-4.908476">
        <ele>30.423</ele>
        <time>2021-06-16T20:59:09Z</time>
      </trkpt>
      <trkpt lat="36.509749" lon="-4.908809">
        <ele>30.473</ele>
        <time>2021-06-16T20:59:11Z</time>
      </trkpt>
      <trkpt lat="36.509709" lon="-4.908978">
        <ele>30.499</ele>
        <time>2021-06-16T20:59:12Z</time>
      </trkpt>
      <trkpt lat="36.509627" lon="-4.909327">
        <ele>30.491</ele>
        <time>2021-06-16T20:59:14Z</time>
      </trkpt>
      <trkpt lat="36.509543" lon="-4.909677">
        <ele>30.470</ele>
        <time>2021-06-16T20:59:16Z</time>
      </trkpt>
      <trkpt lat="36.509461" lon="-4.910026">
        <ele>30.424</ele>
        <time>2021-06-16T20:59:18Z</time>
      </trkpt>
      <trkpt lat="36.50942" lon="-4.9102">
        <ele>30.449</ele>
        <time>2021-06-16T20:59:19Z</time>
      </trkpt>
      <trkpt lat="36.509378" lon="-4.910372">
        <ele>30.402</ele>
        <time>2021-06-16T20:59:20Z</time>
      </trkpt>
      <trkpt lat="36.509294" lon="-4.910705">
        <ele>30.422</ele>
        <time>2021-06-16T20:59:22Z</time>
      </trkpt>
      <trkpt lat="36.509219" lon="-4.911028">
        <ele>30.408</ele>
        <time>2021-06-16T20:59:24Z</time>
      </trkpt>
      <trkpt lat="36.50915" lon="-4.911325">
        <ele>30.471</ele>
        <time>2021-06-16T20:59:26Z</time>
      </trkpt>
      <trkpt lat="36.509113" lon="-4.911454">
        <ele>30.410</ele>
        <time>2021-06-16T20:59:27Z</time>
      </trkpt>
      <trkpt lat="36.509054" lon="-4.911698">
        <ele>30.494</ele>
        <time>2021-06-16T20:59:29Z</time>
      </trkpt>
      <trkpt lat="36.509001" lon="-4.911927">
        <ele>30.414</ele>
        <time>2021-06-16T20:59:31Z</time>
      </trkpt>
      <trkpt lat="36.508975" lon="-4.912034">
        <ele>30.420</ele>
        <time>2021-06-16T20:59:32Z</time>
      </trkpt>
      <trkpt lat="36.508933" lon="-4.912243">
        <ele>30.452</ele>
        <time>2021-06-16T20:59:34Z</time>
      </trkpt>
      <trkpt lat="36.508918" lon="-4.912352">
        <ele>30.411</ele>
        <time>2021-06-16T20:59:35Z</time>
      </trkpt>
      <trkpt lat="36.508912" lon="-4.912465">
        <ele>30.485</ele>
        <time>2021-06-16T20:59:36Z</time>
      </trkpt>
      <trkpt lat="36.508918" lon="-4.912712">
        <ele>30.492</ele>
        <time>2021-06-16T20:59:38Z</time>
      </trkpt>
      <trkpt lat="36.508837" lon="-4.912951">
        <ele>30.473</ele>
        <time>2021-06-16T20:59:40Z</time>
      </trkpt>
      <trkpt lat="36.508769" lon="-4.913068">
        <ele>30.420</ele>
        <time>2021-06-16T20:59:41Z</time>
      </trkpt>
      <trkpt lat="36.508645" lon="-4.913338">
        <ele>30.408</ele>
        <time>2021-06-16T20:59:43Z</time>
      </trkpt>
      <trkpt lat="36.508599" lon="-4.913486">
        <ele>30.416</ele>
        <time>2021-06-16T20:59:44Z</time>
      </trkpt>
      <trkpt lat="36.508523" lon="-4.913815">
        <ele>30.425</ele>
        <time>2021-06-16T20:59:46Z</time>
      </trkpt>
      <trkpt lat="36.50845" lon="-4.914167">
        <ele>30.499</ele>
        <time>2021-06-16T20:59:48Z</time>
      </trkpt>
      <trkpt lat="36.508374" lon="-4.914516">
        <ele>29.769</ele>
        <time>2021-06-16T20:59:50Z</time>
      </trkpt>
      <trkpt lat="36.508279" lon="-4.914878">
        <ele>28.415</ele>
        <time>2021-06-16T20:59:52Z</time>
      </trkpt>
      <trkpt lat="36.508235" lon="-4.915055">
        <ele>27.917</ele>
        <time>2021-06-16T20:59:53Z</time>
      </trkpt>
      <trkpt lat="36.508191" lon="-4.915228">
        <ele>27.926</ele>
        <time>2021-06-16T20:59:54Z</time>
      </trkpt>
      <trkpt lat="36.508149" lon="-4.915402">
        <ele>28.430</ele>
        <time>2021-06-16T20:59:55Z</time>
      </trkpt>
      <trkpt lat="36.508114" lon="-4.915576">
        <ele>29.294</ele>
        <time>2021-06-16T20:59:56Z</time>
      </trkpt>
      <trkpt lat="36.508036" lon="-4.91592">
        <ele>30.157</ele>
        <time>2021-06-16T20:59:58Z</time>
      </trkpt>
      <trkpt lat="36.507996" lon="-4.9161">
        <ele>30.422</ele>
        <time>2021-06-16T20:59:59Z</time>
      </trkpt>
      <trkpt lat="36.507912" lon="-4.916454">
        <ele>31.308</ele>
        <time>2021-06-16T21:00:01Z</time>
      </trkpt>
      <trkpt lat="36.507866" lon="-4.916627">
        <ele>31.746</ele>
        <time>2021-06-16T21:00:02Z</time>
      </trkpt>
      <trkpt lat="36.507778" lon="-4.916957">
        <ele>32.195</ele>
        <time>2021-06-16T21:00:04Z</time>
      </trkpt>
      <trkpt lat="36.507735" lon="-4.917112">
        <ele>32.869</ele>
        <time>2021-06-16T21:00:05Z</time>
      </trkpt>
      <trkpt lat="36.507647" lon="-4.917414">
        <ele>33.749</ele>
        <time>2021-06-16T21:00:07Z</time>
      </trkpt>
      <trkpt lat="36.5076" lon="-4.917559">
        <ele>34.285</ele>
        <time>2021-06-16T21:00:08Z</time>
      </trkpt>
      <trkpt lat="36.507557" lon="-4.917698">
        <ele>34.867</ele>
        <time>2021-06-16T21:00:09Z</time>
      </trkpt>
      <trkpt lat="36.507516" lon="-4.917824">
        <ele>35.156</ele>
        <time>2021-06-16T21:00:10Z</time>
      </trkpt>
      <trkpt lat="36.507477" lon="-4.917943">
        <ele>35.640</ele>
        <time>2021-06-16T21:00:11Z</time>
      </trkpt>
      <trkpt lat="36.507408" lon="-4.918177">
        <ele>36.189</ele>
        <time>2021-06-16T21:00:13Z</time>
      </trkpt>
      <trkpt lat="36.507334" lon="-4.918385">
        <ele>36.306</ele>
        <time>2021-06-16T21:00:15Z</time>
      </trkpt>
      <trkpt lat="36.507269" lon="-4.918573">
        <ele>36.226</ele>
        <time>2021-06-16T21:00:17Z</time>
      </trkpt>
      <trkpt lat="36.507216" lon="-4.918726">
        <ele>35.908</ele>
        <time>2021-06-16T21:00:19Z</time>
      </trkpt>
      <trkpt lat="36.507197" lon="-4.918786">
        <ele>36.495</ele>
        <time>2021-06-16T21:00:20Z</time>
      </trkpt>
      <trkpt lat="36.507162" lon="-4.91888">
        <ele>37.074</ele>
        <time>2021-06-16T21:00:22Z</time>
      </trkpt>
      <trkpt lat="36.507128" lon="-4.918963">
        <ele>37.188</ele>
        <time>2021-06-16T21:00:24Z</time>
      </trkpt>
      <trkpt lat="36.50709" lon="-4.919029">
        <ele>37.148</ele>
        <time>2021-06-16T21:00:26Z</time>
      </trkpt>
      <trkpt lat="36.507052" lon="-4.919083">
        <ele>37.424</ele>
        <time>2021-06-16T21:00:28Z</time>
      </trkpt>
      <trkpt lat="36.507024" lon="-4.91914">
        <ele>36.166</ele>
        <time>2021-06-16T21:00:45Z</time>
      </trkpt>
      <trkpt lat="36.50699" lon="-4.919223">
        <ele>35.365</ele>
        <time>2021-06-16T21:00:46Z</time>
      </trkpt>
      <trkpt lat="36.506903" lon="-4.919445">
        <ele>34.839</ele>
        <time>2021-06-16T21:00:48Z</time>
      </trkpt>
      <trkpt lat="36.506801" lon="-4.919718">
        <ele>34.581</ele>
        <time>2021-06-16T21:00:50Z</time>
      </trkpt>
      <trkpt lat="36.506749" lon="-4.919865">
        <ele>34.461</ele>
        <time>2021-06-16T21:00:51Z</time>
      </trkpt>
      <trkpt lat="36.506689" lon="-4.920016">
        <ele>34.317</ele>
        <time>2021-06-16T21:00:52Z</time>
      </trkpt>
      <trkpt lat="36.506554" lon="-4.920322">
        <ele>34.308</ele>
        <time>2021-06-16T21:00:54Z</time>
      </trkpt>
      <trkpt lat="36.50643" lon="-4.920643">
        <ele>34.325</ele>
        <time>2021-06-16T21:00:56Z</time>
      </trkpt>
      <trkpt lat="36.506295" lon="-4.920978">
        <ele>34.364</ele>
        <time>2021-06-16T21:00:58Z</time>
      </trkpt>
      <trkpt lat="36.506147" lon="-4.921317">
        <ele>34.368</ele>
        <time>2021-06-16T21:01:00Z</time>
      </trkpt>
      <trkpt lat="36.506075" lon="-4.921488">
        <ele>34.318</ele>
        <time>2021-06-16T21:01:01Z</time>
      </trkpt>
      <trkpt lat="36.505939" lon="-4.921832">
        <ele>34.354</ele>
        <time>2021-06-16T21:01:03Z</time>
      </trkpt>
      <trkpt lat="36.505799" lon="-4.922182">
        <ele>34.326</ele>
        <time>2021-06-16T21:01:05Z</time>
      </trkpt>
      <trkpt lat="36.50573" lon="-4.922359">
        <ele>34.345</ele>
        <time>2021-06-16T21:01:06Z</time>
      </trkpt>
      <trkpt lat="36.505659" lon="-4.922539">
        <ele>34.369</ele>
        <time>2021-06-16T21:01:07Z</time>
      </trkpt>
      <trkpt lat="36.505516" lon="-4.922886">
        <ele>34.313</ele>
        <time>2021-06-16T21:01:09Z</time>
      </trkpt>
      <trkpt lat="36.505448" lon="-4.923059">
        <ele>34.343</ele>
        <time>2021-06-16T21:01:10Z</time>
      </trkpt>
      <trkpt lat="36.505381" lon="-4.923232">
        <ele>34.307</ele>
        <time>2021-06-16T21:01:11Z</time>
      </trkpt>
      <trkpt lat="36.505241" lon="-4.923577">
        <ele>34.308</ele>
        <time>2021-06-16T21:01:13Z</time>
      </trkpt>
      <trkpt lat="36.505169" lon="-4.923752">
        <ele>34.398</ele>
        <time>2021-06-16T21:01:14Z</time>
      </trkpt>
      <trkpt lat="36.505098" lon="-4.92393">
        <ele>34.387</ele>
        <time>2021-06-16T21:01:15Z</time>
      </trkpt>
      <trkpt lat="36.505026" lon="-4.924109">
        <ele>34.321</ele>
        <time>2021-06-16T21:01:16Z</time>
      </trkpt>
      <trkpt lat="36.504884" lon="-4.924463">
        <ele>34.391</ele>
        <time>2021-06-16T21:01:18Z</time>
      </trkpt>
      <trkpt lat="36.504816" lon="-4.924642">
        <ele>34.337</ele>
        <time>2021-06-16T21:01:19Z</time>
      </trkpt>
      <trkpt lat="36.504671" lon="-4.925011">
        <ele>34.339</ele>
        <time>2021-06-16T21:01:21Z</time>
      </trkpt>
      <trkpt lat="36.504521" lon="-4.925373">
        <ele>34.368</ele>
        <time>2021-06-16T21:01:23Z</time>
      </trkpt>
      <trkpt lat="36.504364" lon="-4.925732">
        <ele>34.372</ele>
        <time>2021-06-16T21:01:25Z</time>
      </trkpt>
      <trkpt lat="36.504215" lon="-4.926094">
        <ele>34.336</ele>
        <time>2021-06-16T21:01:27Z</time>
      </trkpt>
      <trkpt lat="36.504142" lon="-4.926278">
        <ele>34.317</ele>
        <time>2021-06-16T21:01:28Z</time>
      </trkpt>
      <trkpt lat="36.503996" lon="-4.926649">
        <ele>34.318</ele>
        <time>2021-06-16T21:01:30Z</time>
      </trkpt>
      <trkpt lat="36.503921" lon="-4.926833">
        <ele>34.308</ele>
        <time>2021-06-16T21:01:31Z</time>
      </trkpt>
      <trkpt lat="36.503772" lon="-4.927191">
        <ele>34.370</ele>
        <time>2021-06-16T21:01:33Z</time>
      </trkpt>
      <trkpt lat="36.50362" lon="-4.927566">
        <ele>34.399</ele>
        <time>2021-06-16T21:01:35Z</time>
      </trkpt>
      <trkpt lat="36.503545" lon="-4.927756">
        <ele>34.313</ele>
        <time>2021-06-16T21:01:36Z</time>
      </trkpt>
      <trkpt lat="36.503472" lon="-4.927943">
        <ele>34.363</ele>
        <time>2021-06-16T21:01:37Z</time>
      </trkpt>
      <trkpt lat="36.503323" lon="-4.928316">
        <ele>34.369</ele>
        <time>2021-06-16T21:01:39Z</time>
      </trkpt>
      <trkpt lat="36.50317" lon="-4.928699">
        <ele>34.331</ele>
        <time>2021-06-16T21:01:41Z</time>
      </trkpt>
      <trkpt lat="36.503019" lon="-4.929069">
        <ele>34.360</ele>
        <time>2021-06-16T21:01:43Z</time>
      </trkpt>
      <trkpt lat="36.502874" lon="-4.92944">
        <ele>32.814</ele>
        <time>2021-06-16T21:01:45Z</time>
      </trkpt>
      <trkpt lat="36.502733" lon="-4.92981">
        <ele>31.743</ele>
        <time>2021-06-16T21:01:47Z</time>
      </trkpt>
      <trkpt lat="36.502663" lon="-4.929997">
        <ele>30.864</ele>
        <time>2021-06-16T21:01:48Z</time>
      </trkpt>
      <trkpt lat="36.502526" lon="-4.930375">
        <ele>30.110</ele>
        <time>2021-06-16T21:01:50Z</time>
      </trkpt>
      <trkpt lat="36.50238" lon="-4.930762">
        <ele>29.208</ele>
        <time>2021-06-16T21:01:52Z</time>
      </trkpt>
      <trkpt lat="36.502305" lon="-4.930959">
        <ele>28.451</ele>
        <time>2021-06-16T21:01:53Z</time>
      </trkpt>
      <trkpt lat="36.502232" lon="-4.931152">
        <ele>28.380</ele>
        <time>2021-06-16T21:01:54Z</time>
      </trkpt>
      <trkpt lat="36.502161" lon="-4.931342">
        <ele>28.374</ele>
        <time>2021-06-16T21:01:55Z</time>
      </trkpt>
      <trkpt lat="36.502023" lon="-4.931714">
        <ele>27.464</ele>
        <time>2021-06-16T21:01:57Z</time>
      </trkpt>
      <trkpt lat="36.501887" lon="-4.932093">
        <ele>26.440</ele>
        <time>2021-06-16T21:01:59Z</time>
      </trkpt>
      <trkpt lat="36.501751" lon="-4.932468">
        <ele>25.452</ele>
        <time>2021-06-16T21:02:01Z</time>
      </trkpt>
      <trkpt lat="36.501683" lon="-4.932658">
        <ele>24.971</ele>
        <time>2021-06-16T21:02:02Z</time>
      </trkpt>
      <trkpt lat="36.501548" lon="-4.933028">
        <ele>24.345</ele>
        <time>2021-06-16T21:02:04Z</time>
      </trkpt>
      <trkpt lat="36.501483" lon="-4.933221">
        <ele>23.729</ele>
        <time>2021-06-16T21:02:05Z</time>
      </trkpt>
      <trkpt lat="36.501348" lon="-4.933606">
        <ele>23.000</ele>
        <time>2021-06-16T21:02:07Z</time>
      </trkpt>
      <trkpt lat="36.50121" lon="-4.933991">
        <ele>22.120</ele>
        <time>2021-06-16T21:02:09Z</time>
      </trkpt>
      <trkpt lat="36.501077" lon="-4.934372">
        <ele>21.008</ele>
        <time>2021-06-16T21:02:11Z</time>
      </trkpt>
      <trkpt lat="36.501015" lon="-4.934558">
        <ele>20.389</ele>
        <time>2021-06-16T21:02:12Z</time>
      </trkpt>
      <trkpt lat="36.500892" lon="-4.934914">
        <ele>19.818</ele>
        <time>2021-06-16T21:02:14Z</time>
      </trkpt>
      <trkpt lat="36.500832" lon="-4.935087">
        <ele>19.362</ele>
        <time>2021-06-16T21:02:15Z</time>
      </trkpt>
      <trkpt lat="36.500714" lon="-4.935409">
        <ele>19.472</ele>
        <time>2021-06-16T21:02:17Z</time>
      </trkpt>
      <trkpt lat="36.500661" lon="-4.935562">
        <ele>19.428</ele>
        <time>2021-06-16T21:02:18Z</time>
      </trkpt>
      <trkpt lat="36.500612" lon="-4.935706">
        <ele>19.750</ele>
        <time>2021-06-16T21:02:19Z</time>
      </trkpt>
      <trkpt lat="36.500513" lon="-4.935974">
        <ele>20.439</ele>
        <time>2021-06-16T21:02:21Z</time>
      </trkpt>
      <trkpt lat="36.50042" lon="-4.93624">
        <ele>21.113</ele>
        <time>2021-06-16T21:02:23Z</time>
      </trkpt>
      <trkpt lat="36.500372" lon="-4.936369">
        <ele>21.477</ele>
        <time>2021-06-16T21:02:24Z</time>
      </trkpt>
      <trkpt lat="36.500283" lon="-4.936623">
        <ele>22.161</ele>
        <time>2021-06-16T21:02:26Z</time>
      </trkpt>
      <trkpt lat="36.50024" lon="-4.936746">
        <ele>22.527</ele>
        <time>2021-06-16T21:02:27Z</time>
      </trkpt>
      <trkpt lat="36.500158" lon="-4.93698">
        <ele>23.208</ele>
        <time>2021-06-16T21:02:29Z</time>
      </trkpt>
      <trkpt lat="36.500077" lon="-4.937214">
        <ele>23.454</ele>
        <time>2021-06-16T21:02:31Z</time>
      </trkpt>
      <trkpt lat="36.499992" lon="-4.937449">
        <ele>22.863</ele>
        <time>2021-06-16T21:02:33Z</time>
      </trkpt>
      <trkpt lat="36.499947" lon="-4.937567">
        <ele>22.427</ele>
        <time>2021-06-16T21:02:34Z</time>
      </trkpt>
      <trkpt lat="36.49986" lon="-4.937811">
        <ele>21.727</ele>
        <time>2021-06-16T21:02:36Z</time>
      </trkpt>
      <trkpt lat="36.499818" lon="-4.937937">
        <ele>21.943</ele>
        <time>2021-06-16T21:02:37Z</time>
      </trkpt>
      <trkpt lat="36.499775" lon="-4.938067">
        <ele>21.625</ele>
        <time>2021-06-16T21:02:38Z</time>
      </trkpt>
      <trkpt lat="36.499682" lon="-4.938322">
        <ele>21.724</ele>
        <time>2021-06-16T21:02:40Z</time>
      </trkpt>
      <trkpt lat="36.499634" lon="-4.938448">
        <ele>22.418</ele>
        <time>2021-06-16T21:02:41Z</time>
      </trkpt>
      <trkpt lat="36.499546" lon="-4.938701">
        <ele>21.888</ele>
        <time>2021-06-16T21:02:43Z</time>
      </trkpt>
      <trkpt lat="36.49945" lon="-4.938939">
        <ele>22.624</ele>
        <time>2021-06-16T21:02:45Z</time>
      </trkpt>
      <trkpt lat="36.499363" lon="-4.939167">
        <ele>23.226</ele>
        <time>2021-06-16T21:02:47Z</time>
      </trkpt>
      <trkpt lat="36.499289" lon="-4.939387">
        <ele>23.308</ele>
        <time>2021-06-16T21:02:49Z</time>
      </trkpt>
      <trkpt lat="36.499217" lon="-4.939591">
        <ele>23.155</ele>
        <time>2021-06-16T21:02:51Z</time>
      </trkpt>
      <trkpt lat="36.499149" lon="-4.93978">
        <ele>24.144</ele>
        <time>2021-06-16T21:02:53Z</time>
      </trkpt>
      <trkpt lat="36.499086" lon="-4.939958">
        <ele>24.198</ele>
        <time>2021-06-16T21:02:55Z</time>
      </trkpt>
      <trkpt lat="36.499057" lon="-4.940039">
        <ele>24.038</ele>
        <time>2021-06-16T21:02:56Z</time>
      </trkpt>
      <trkpt lat="36.499031" lon="-4.940118">
        <ele>24.134</ele>
        <time>2021-06-16T21:02:57Z</time>
      </trkpt>
      <trkpt lat="36.498973" lon="-4.940262">
        <ele>24.056</ele>
        <time>2021-06-16T21:02:59Z</time>
      </trkpt>
      <trkpt lat="36.498945" lon="-4.940329">
        <ele>24.275</ele>
        <time>2021-06-16T21:03:00Z</time>
      </trkpt>
      <trkpt lat="36.498896" lon="-4.940461">
        <ele>24.099</ele>
        <time>2021-06-16T21:03:02Z</time>
      </trkpt>
      <trkpt lat="36.498847" lon="-4.940563">
        <ele>23.948</ele>
        <time>2021-06-16T21:03:04Z</time>
      </trkpt>
      <trkpt lat="36.498816" lon="-4.940643">
        <ele>23.561</ele>
        <time>2021-06-16T21:03:06Z</time>
      </trkpt>
      <trkpt lat="36.498786" lon="-4.940717">
        <ele>23.217</ele>
        <time>2021-06-16T21:03:08Z</time>
      </trkpt>
      <trkpt lat="36.498738" lon="-4.940807">
        <ele>22.808</ele>
        <time>2021-06-16T21:03:10Z</time>
      </trkpt>
      <trkpt lat="36.498704" lon="-4.940884">
        <ele>22.711</ele>
        <time>2021-06-16T21:03:11Z</time>
      </trkpt>
      <trkpt lat="36.498643" lon="-4.941094">
        <ele>22.410</ele>
        <time>2021-06-16T21:03:13Z</time>
      </trkpt>
      <trkpt lat="36.49861" lon="-4.941215">
        <ele>22.184</ele>
        <time>2021-06-16T21:03:14Z</time>
      </trkpt>
      <trkpt lat="36.498527" lon="-4.941462">
        <ele>21.634</ele>
        <time>2021-06-16T21:03:16Z</time>
      </trkpt>
      <trkpt lat="36.498482" lon="-4.941596">
        <ele>21.530</ele>
        <time>2021-06-16T21:03:17Z</time>
      </trkpt>
      <trkpt lat="36.498433" lon="-4.941736">
        <ele>21.682</ele>
        <time>2021-06-16T21:03:18Z</time>
      </trkpt>
      <trkpt lat="36.498328" lon="-4.942021">
        <ele>22.171</ele>
        <time>2021-06-16T21:03:20Z</time>
      </trkpt>
      <trkpt lat="36.498218" lon="-4.942321">
        <ele>22.185</ele>
        <time>2021-06-16T21:03:22Z</time>
      </trkpt>
      <trkpt lat="36.498164" lon="-4.942478">
        <ele>22.337</ele>
        <time>2021-06-16T21:03:23Z</time>
      </trkpt>
      <trkpt lat="36.498053" lon="-4.942798">
        <ele>22.549</ele>
        <time>2021-06-16T21:03:25Z</time>
      </trkpt>
      <trkpt lat="36.497994" lon="-4.942964">
        <ele>22.413</ele>
        <time>2021-06-16T21:03:26Z</time>
      </trkpt>
      <trkpt lat="36.497876" lon="-4.94329">
        <ele>21.908</ele>
        <time>2021-06-16T21:03:28Z</time>
      </trkpt>
      <trkpt lat="36.497816" lon="-4.943457">
        <ele>21.880</ele>
        <time>2021-06-16T21:03:29Z</time>
      </trkpt>
      <trkpt lat="36.497701" lon="-4.943788">
        <ele>21.599</ele>
        <time>2021-06-16T21:03:31Z</time>
      </trkpt>
      <trkpt lat="36.497584" lon="-4.944119">
        <ele>21.083</ele>
        <time>2021-06-16T21:03:33Z</time>
      </trkpt>
      <trkpt lat="36.497527" lon="-4.944281">
        <ele>20.823</ele>
        <time>2021-06-16T21:03:34Z</time>
      </trkpt>
      <trkpt lat="36.497428" lon="-4.944614">
        <ele>20.939</ele>
        <time>2021-06-16T21:03:36Z</time>
      </trkpt>
      <trkpt lat="36.497382" lon="-4.944785">
        <ele>21.161</ele>
        <time>2021-06-16T21:03:37Z</time>
      </trkpt>
      <trkpt lat="36.497301" lon="-4.945132">
        <ele>21.330</ele>
        <time>2021-06-16T21:03:39Z</time>
      </trkpt>
      <trkpt lat="36.497237" lon="-4.945489">
        <ele>21.584</ele>
        <time>2021-06-16T21:03:41Z</time>
      </trkpt>
      <trkpt lat="36.497203" lon="-4.94567">
        <ele>21.531</ele>
        <time>2021-06-16T21:03:42Z</time>
      </trkpt>
      <trkpt lat="36.497128" lon="-4.946025">
        <ele>20.761</ele>
        <time>2021-06-16T21:03:44Z</time>
      </trkpt>
      <trkpt lat="36.497092" lon="-4.946197">
        <ele>19.907</ele>
        <time>2021-06-16T21:03:45Z</time>
      </trkpt>
      <trkpt lat="36.49706" lon="-4.946363">
        <ele>19.208</ele>
        <time>2021-06-16T21:03:46Z</time>
      </trkpt>
      <trkpt lat="36.497035" lon="-4.946521">
        <ele>19.290</ele>
        <time>2021-06-16T21:03:47Z</time>
      </trkpt>
      <trkpt lat="36.496978" lon="-4.946818">
        <ele>18.919</ele>
        <time>2021-06-16T21:03:49Z</time>
      </trkpt>
      <trkpt lat="36.496913" lon="-4.947114">
        <ele>19.133</ele>
        <time>2021-06-16T21:03:51Z</time>
      </trkpt>
      <trkpt lat="36.496884" lon="-4.947261">
        <ele>19.663</ele>
        <time>2021-06-16T21:03:52Z</time>
      </trkpt>
      <trkpt lat="36.496817" lon="-4.947549">
        <ele>19.919</ele>
        <time>2021-06-16T21:03:54Z</time>
      </trkpt>
      <trkpt lat="36.496783" lon="-4.947691">
        <ele>19.941</ele>
        <time>2021-06-16T21:03:55Z</time>
      </trkpt>
      <trkpt lat="36.496707" lon="-4.947955">
        <ele>20.780</ele>
        <time>2021-06-16T21:03:57Z</time>
      </trkpt>
      <trkpt lat="36.496673" lon="-4.948077">
        <ele>21.894</ele>
        <time>2021-06-16T21:03:58Z</time>
      </trkpt>
      <trkpt lat="36.496614" lon="-4.948315">
        <ele>22.268</ele>
        <time>2021-06-16T21:04:00Z</time>
      </trkpt>
      <trkpt lat="36.496588" lon="-4.948437">
        <ele>22.642</ele>
        <time>2021-06-16T21:04:01Z</time>
      </trkpt>
      <trkpt lat="36.496535" lon="-4.948672">
        <ele>22.826</ele>
        <time>2021-06-16T21:04:03Z</time>
      </trkpt>
      <trkpt lat="36.496498" lon="-4.948793">
        <ele>22.408</ele>
        <time>2021-06-16T21:04:04Z</time>
      </trkpt>
      <trkpt lat="36.496374" lon="-4.949031">
        <ele>21.993</ele>
        <time>2021-06-16T21:04:06Z</time>
      </trkpt>
      <trkpt lat="36.49629" lon="-4.949144">
        <ele>21.382</ele>
        <time>2021-06-16T21:04:07Z</time>
      </trkpt>
      <trkpt lat="36.496197" lon="-4.949248">
        <ele>20.936</ele>
        <time>2021-06-16T21:04:08Z</time>
      </trkpt>
      <trkpt lat="36.496092" lon="-4.949353">
        <ele>20.696</ele>
        <time>2021-06-16T21:04:09Z</time>
      </trkpt>
      <trkpt lat="36.495982" lon="-4.94946">
        <ele>19.962</ele>
        <time>2021-06-16T21:04:10Z</time>
      </trkpt>
      <trkpt lat="36.495756" lon="-4.94969">
        <ele>18.854</ele>
        <time>2021-06-16T21:04:12Z</time>
      </trkpt>
      <trkpt lat="36.495639" lon="-4.949817">
        <ele>18.283</ele>
        <time>2021-06-16T21:04:13Z</time>
      </trkpt>
      <trkpt lat="36.495518" lon="-4.949944">
        <ele>17.667</ele>
        <time>2021-06-16T21:04:14Z</time>
      </trkpt>
      <trkpt lat="36.495394" lon="-4.950071">
        <ele>17.184</ele>
        <time>2021-06-16T21:04:15Z</time>
      </trkpt>
      <trkpt lat="36.495139" lon="-4.950327">
        <ele>17.407</ele>
        <time>2021-06-16T21:04:17Z</time>
      </trkpt>
      <trkpt lat="36.495009" lon="-4.950452">
        <ele>17.517</ele>
        <time>2021-06-16T21:04:18Z</time>
      </trkpt>
      <trkpt lat="36.494746" lon="-4.950706">
        <ele>17.608</ele>
        <time>2021-06-16T21:04:20Z</time>
      </trkpt>
      <trkpt lat="36.494613" lon="-4.950835">
        <ele>17.635</ele>
        <time>2021-06-16T21:04:21Z</time>
      </trkpt>
      <trkpt lat="36.494482" lon="-4.950964">
        <ele>17.984</ele>
        <time>2021-06-16T21:04:22Z</time>
      </trkpt>
      <trkpt lat="36.494221" lon="-4.951218">
        <ele>18.698</ele>
        <time>2021-06-16T21:04:24Z</time>
      </trkpt>
      <trkpt lat="36.494091" lon="-4.951346">
        <ele>19.548</ele>
        <time>2021-06-16T21:04:25Z</time>
      </trkpt>
      <trkpt lat="36.493956" lon="-4.951471">
        <ele>20.294</ele>
        <time>2021-06-16T21:04:26Z</time>
      </trkpt>
      <trkpt lat="36.493687" lon="-4.951717">
        <ele>21.226</ele>
        <time>2021-06-16T21:04:28Z</time>
      </trkpt>
      <trkpt lat="36.49342" lon="-4.951974">
        <ele>22.095</ele>
        <time>2021-06-16T21:04:30Z</time>
      </trkpt>
      <trkpt lat="36.493284" lon="-4.952109">
        <ele>22.849</ele>
        <time>2021-06-16T21:04:31Z</time>
      </trkpt>
      <trkpt lat="36.493147" lon="-4.952246">
        <ele>23.733</ele>
        <time>2021-06-16T21:04:32Z</time>
      </trkpt>
      <trkpt lat="36.49301" lon="-4.952387">
        <ele>24.223</ele>
        <time>2021-06-16T21:04:33Z</time>
      </trkpt>
      <trkpt lat="36.492871" lon="-4.952529">
        <ele>24.915</ele>
        <time>2021-06-16T21:04:34Z</time>
      </trkpt>
      <trkpt lat="36.492597" lon="-4.95281">
        <ele>25.408</ele>
        <time>2021-06-16T21:04:36Z</time>
      </trkpt>
      <trkpt lat="36.492465" lon="-4.952945">
        <ele>25.530</ele>
        <time>2021-06-16T21:04:37Z</time>
      </trkpt>
      <trkpt lat="36.492209" lon="-4.953204">
        <ele>25.979</ele>
        <time>2021-06-16T21:04:39Z</time>
      </trkpt>
      <trkpt lat="36.492079" lon="-4.953329">
        <ele>26.193</ele>
        <time>2021-06-16T21:04:40Z</time>
      </trkpt>
      <trkpt lat="36.491813" lon="-4.953586">
        <ele>26.553</ele>
        <time>2021-06-16T21:04:42Z</time>
      </trkpt>
      <trkpt lat="36.491533" lon="-4.953853">
        <ele>26.769</ele>
        <time>2021-06-16T21:04:44Z</time>
      </trkpt>
      <trkpt lat="36.491237" lon="-4.954132">
        <ele>26.521</ele>
        <time>2021-06-16T21:04:46Z</time>
      </trkpt>
      <trkpt lat="36.490948" lon="-4.954417">
        <ele>26.460</ele>
        <time>2021-06-16T21:04:48Z</time>
      </trkpt>
      <trkpt lat="36.490661" lon="-4.954709">
        <ele>26.414</ele>
        <time>2021-06-16T21:04:50Z</time>
      </trkpt>
      <trkpt lat="36.490516" lon="-4.954857">
        <ele>26.135</ele>
        <time>2021-06-16T21:04:51Z</time>
      </trkpt>
      <trkpt lat="36.490233" lon="-4.955161">
        <ele>25.986</ele>
        <time>2021-06-16T21:04:53Z</time>
      </trkpt>
      <trkpt lat="36.490096" lon="-4.955324">
        <ele>25.414</ele>
        <time>2021-06-16T21:04:54Z</time>
      </trkpt>
      <trkpt lat="36.489961" lon="-4.955491">
        <ele>25.108</ele>
        <time>2021-06-16T21:04:55Z</time>
      </trkpt>
      <trkpt lat="36.489828" lon="-4.95566">
        <ele>25.280</ele>
        <time>2021-06-16T21:04:56Z</time>
      </trkpt>
      <trkpt lat="36.489573" lon="-4.956016">
        <ele>24.729</ele>
        <time>2021-06-16T21:04:58Z</time>
      </trkpt>
      <trkpt lat="36.489452" lon="-4.956204">
        <ele>24.313</ele>
        <time>2021-06-16T21:04:59Z</time>
      </trkpt>
      <trkpt lat="36.489235" lon="-4.956594">
        <ele>24.343</ele>
        <time>2021-06-16T21:05:01Z</time>
      </trkpt>
      <trkpt lat="36.489142" lon="-4.956805">
        <ele>24.399</ele>
        <time>2021-06-16T21:05:02Z</time>
      </trkpt>
      <trkpt lat="36.489062" lon="-4.957024">
        <ele>24.541</ele>
        <time>2021-06-16T21:05:03Z</time>
      </trkpt>
      <trkpt lat="36.48892" lon="-4.95746">
        <ele>25.380</ele>
        <time>2021-06-16T21:05:05Z</time>
      </trkpt>
      <trkpt lat="36.488864" lon="-4.957677">
        <ele>26.054</ele>
        <time>2021-06-16T21:05:06Z</time>
      </trkpt>
      <trkpt lat="36.488767" lon="-4.958108">
        <ele>26.784</ele>
        <time>2021-06-16T21:05:08Z</time>
      </trkpt>
      <trkpt lat="36.488676" lon="-4.958535">
        <ele>27.607</ele>
        <time>2021-06-16T21:05:10Z</time>
      </trkpt>
      <trkpt lat="36.488642" lon="-4.95875">
        <ele>28.317</ele>
        <time>2021-06-16T21:05:11Z</time>
      </trkpt>
      <trkpt lat="36.488574" lon="-4.959174">
        <ele>29.308</ele>
        <time>2021-06-16T21:05:13Z</time>
      </trkpt>
      <trkpt lat="36.488541" lon="-4.959389">
        <ele>29.255</ele>
        <time>2021-06-16T21:05:14Z</time>
      </trkpt>
      <trkpt lat="36.488504" lon="-4.959602">
        <ele>29.434</ele>
        <time>2021-06-16T21:05:15Z</time>
      </trkpt>
      <trkpt lat="36.488421" lon="-4.960024">
        <ele>29.838</ele>
        <time>2021-06-16T21:05:17Z</time>
      </trkpt>
      <trkpt lat="36.488339" lon="-4.960454">
        <ele>29.138</ele>
        <time>2021-06-16T21:05:19Z</time>
      </trkpt>
      <trkpt lat="36.48826" lon="-4.960889">
        <ele>28.694</ele>
        <time>2021-06-16T21:05:21Z</time>
      </trkpt>
      <trkpt lat="36.488176" lon="-4.961325">
        <ele>28.186</ele>
        <time>2021-06-16T21:05:23Z</time>
      </trkpt>
      <trkpt lat="36.488095" lon="-4.961768">
        <ele>27.965</ele>
        <time>2021-06-16T21:05:25Z</time>
      </trkpt>
      <trkpt lat="36.488022" lon="-4.962209">
        <ele>28.789</ele>
        <time>2021-06-16T21:05:27Z</time>
      </trkpt>
      <trkpt lat="36.487958" lon="-4.96265">
        <ele>28.868</ele>
        <time>2021-06-16T21:05:29Z</time>
      </trkpt>
      <trkpt lat="36.487917" lon="-4.962869">
        <ele>29.542</ele>
        <time>2021-06-16T21:05:30Z</time>
      </trkpt>
      <trkpt lat="36.487879" lon="-4.963094">
        <ele>29.526</ele>
        <time>2021-06-16T21:05:31Z</time>
      </trkpt>
      <trkpt lat="36.487817" lon="-4.963542">
        <ele>29.108</ele>
        <time>2021-06-16T21:05:33Z</time>
      </trkpt>
      <trkpt lat="36.487752" lon="-4.963994">
        <ele>28.333</ele>
        <time>2021-06-16T21:05:35Z</time>
      </trkpt>
      <trkpt lat="36.487718" lon="-4.964217">
        <ele>27.472</ele>
        <time>2021-06-16T21:05:36Z</time>
      </trkpt>
      <trkpt lat="36.487653" lon="-4.96467">
        <ele>26.346</ele>
        <time>2021-06-16T21:05:38Z</time>
      </trkpt>
      <trkpt lat="36.487616" lon="-4.964896">
        <ele>25.926</ele>
        <time>2021-06-16T21:05:39Z</time>
      </trkpt>
      <trkpt lat="36.48758" lon="-4.965121">
        <ele>25.792</ele>
        <time>2021-06-16T21:05:40Z</time>
      </trkpt>
      <trkpt lat="36.487547" lon="-4.965341">
        <ele>25.974</ele>
        <time>2021-06-16T21:05:41Z</time>
      </trkpt>
      <trkpt lat="36.487513" lon="-4.965555">
        <ele>25.953</ele>
        <time>2021-06-16T21:05:42Z</time>
      </trkpt>
      <trkpt lat="36.487458" lon="-4.965965">
        <ele>26.497</ele>
        <time>2021-06-16T21:05:44Z</time>
      </trkpt>
      <trkpt lat="36.487425" lon="-4.966171">
        <ele>26.822</ele>
        <time>2021-06-16T21:05:45Z</time>
      </trkpt>
      <trkpt lat="36.487392" lon="-4.966371">
        <ele>27.262</ele>
        <time>2021-06-16T21:05:46Z</time>
      </trkpt>
      <trkpt lat="36.487359" lon="-4.966572">
        <ele>27.908</ele>
        <time>2021-06-16T21:05:47Z</time>
      </trkpt>
      <trkpt lat="36.487291" lon="-4.966972">
        <ele>28.908</ele>
        <time>2021-06-16T21:05:49Z</time>
      </trkpt>
      <trkpt lat="36.48723" lon="-4.967361">
        <ele>28.919</ele>
        <time>2021-06-16T21:05:51Z</time>
      </trkpt>
      <trkpt lat="36.487196" lon="-4.967556">
        <ele>29.048</ele>
        <time>2021-06-16T21:05:52Z</time>
      </trkpt>
      <trkpt lat="36.48716" lon="-4.96775">
        <ele>28.812</ele>
        <time>2021-06-16T21:05:53Z</time>
      </trkpt>
      <trkpt lat="36.48709" lon="-4.968142">
        <ele>28.552</ele>
        <time>2021-06-16T21:05:55Z</time>
      </trkpt>
      <trkpt lat="36.487018" lon="-4.968552">
        <ele>27.948</ele>
        <time>2021-06-16T21:05:57Z</time>
      </trkpt>
      <trkpt lat="36.486945" lon="-4.968959">
        <ele>27.910</ele>
        <time>2021-06-16T21:05:59Z</time>
      </trkpt>
      <trkpt lat="36.486913" lon="-4.969161">
        <ele>27.649</ele>
        <time>2021-06-16T21:06:00Z</time>
      </trkpt>
      <trkpt lat="36.48688" lon="-4.969362">
        <ele>27.333</ele>
        <time>2021-06-16T21:06:01Z</time>
      </trkpt>
      <trkpt lat="36.486821" lon="-4.969757">
        <ele>26.862</ele>
        <time>2021-06-16T21:06:03Z</time>
      </trkpt>
      <trkpt lat="36.486764" lon="-4.970142">
        <ele>26.683</ele>
        <time>2021-06-16T21:06:05Z</time>
      </trkpt>
      <trkpt lat="36.486707" lon="-4.970518">
        <ele>26.411</ele>
        <time>2021-06-16T21:06:07Z</time>
      </trkpt>
      <trkpt lat="36.486679" lon="-4.970706">
        <ele>25.508</ele>
        <time>2021-06-16T21:06:08Z</time>
      </trkpt>
      <trkpt lat="36.486621" lon="-4.971091">
        <ele>24.873</ele>
        <time>2021-06-16T21:06:10Z</time>
      </trkpt>
      <trkpt lat="36.486589" lon="-4.971283">
        <ele>24.422</ele>
        <time>2021-06-16T21:06:11Z</time>
      </trkpt>
      <trkpt lat="36.486534" lon="-4.971676">
        <ele>24.936</ele>
        <time>2021-06-16T21:06:13Z</time>
      </trkpt>
      <trkpt lat="36.486503" lon="-4.971878">
        <ele>25.066</ele>
        <time>2021-06-16T21:06:14Z</time>
      </trkpt>
      <trkpt lat="36.486474" lon="-4.97208">
        <ele>24.622</ele>
        <time>2021-06-16T21:06:15Z</time>
      </trkpt>
      <trkpt lat="36.486448" lon="-4.972282">
        <ele>25.044</ele>
        <time>2021-06-16T21:06:16Z</time>
      </trkpt>
      <trkpt lat="36.486404" lon="-4.972687">
        <ele>25.363</ele>
        <time>2021-06-16T21:06:18Z</time>
      </trkpt>
      <trkpt lat="36.48639" lon="-4.97289">
        <ele>25.477</ele>
        <time>2021-06-16T21:06:19Z</time>
      </trkpt>
      <trkpt lat="36.486362" lon="-4.973288">
        <ele>25.758</ele>
        <time>2021-06-16T21:06:21Z</time>
      </trkpt>
      <trkpt lat="36.486342" lon="-4.973485">
        <ele>25.852</ele>
        <time>2021-06-16T21:06:22Z</time>
      </trkpt>
      <trkpt lat="36.486296" lon="-4.973878">
        <ele>26.517</ele>
        <time>2021-06-16T21:06:24Z</time>
      </trkpt>
      <trkpt lat="36.486271" lon="-4.974077">
        <ele>26.908</ele>
        <time>2021-06-16T21:06:25Z</time>
      </trkpt>
      <trkpt lat="36.486243" lon="-4.974277">
        <ele>27.392</ele>
        <time>2021-06-16T21:06:26Z</time>
      </trkpt>
      <trkpt lat="36.486185" lon="-4.974672">
        <ele>27.311</ele>
        <time>2021-06-16T21:06:28Z</time>
      </trkpt>
      <trkpt lat="36.486153" lon="-4.97487">
        <ele>26.865</ele>
        <time>2021-06-16T21:06:29Z</time>
      </trkpt>
      <trkpt lat="36.48612" lon="-4.975073">
        <ele>26.495</ele>
        <time>2021-06-16T21:06:30Z</time>
      </trkpt>
      <trkpt lat="36.486051" lon="-4.975487">
        <ele>26.221</ele>
        <time>2021-06-16T21:06:32Z</time>
      </trkpt>
      <trkpt lat="36.486017" lon="-4.975693">
        <ele>26.183</ele>
        <time>2021-06-16T21:06:33Z</time>
      </trkpt>
      <trkpt lat="36.485946" lon="-4.976105">
        <ele>25.532</ele>
        <time>2021-06-16T21:06:35Z</time>
      </trkpt>
      <trkpt lat="36.485914" lon="-4.976309">
        <ele>25.156</ele>
        <time>2021-06-16T21:06:36Z</time>
      </trkpt>
      <trkpt lat="36.485853" lon="-4.976722">
        <ele>24.835</ele>
        <time>2021-06-16T21:06:38Z</time>
      </trkpt>
      <trkpt lat="36.48582" lon="-4.976932">
        <ele>24.386</ele>
        <time>2021-06-16T21:06:39Z</time>
      </trkpt>
      <trkpt lat="36.485788" lon="-4.977147">
        <ele>24.214</ele>
        <time>2021-06-16T21:06:40Z</time>
      </trkpt>
      <trkpt lat="36.485756" lon="-4.977365">
        <ele>23.908</ele>
        <time>2021-06-16T21:06:41Z</time>
      </trkpt>
      <trkpt lat="36.48569" lon="-4.977799">
        <ele>23.870</ele>
        <time>2021-06-16T21:06:43Z</time>
      </trkpt>
      <trkpt lat="36.48562" lon="-4.978236">
        <ele>23.439</ele>
        <time>2021-06-16T21:06:45Z</time>
      </trkpt>
      <trkpt lat="36.485551" lon="-4.978668">
        <ele>23.753</ele>
        <time>2021-06-16T21:06:47Z</time>
      </trkpt>
      <trkpt lat="36.485517" lon="-4.978884">
        <ele>23.583</ele>
        <time>2021-06-16T21:06:48Z</time>
      </trkpt>
      <trkpt lat="36.485483" lon="-4.9791">
        <ele>23.769</ele>
        <time>2021-06-16T21:06:49Z</time>
      </trkpt>
      <trkpt lat="36.485419" lon="-4.979539">
        <ele>24.451</ele>
        <time>2021-06-16T21:06:51Z</time>
      </trkpt>
      <trkpt lat="36.485385" lon="-4.979762">
        <ele>24.820</ele>
        <time>2021-06-16T21:06:52Z</time>
      </trkpt>
      <trkpt lat="36.485318" lon="-4.980194">
        <ele>25.064</ele>
        <time>2021-06-16T21:06:54Z</time>
      </trkpt>
      <trkpt lat="36.485252" lon="-4.980626">
        <ele>25.799</ele>
        <time>2021-06-16T21:06:56Z</time>
      </trkpt>
      <trkpt lat="36.48522" lon="-4.980843">
        <ele>26.207</ele>
        <time>2021-06-16T21:06:57Z</time>
      </trkpt>
      <trkpt lat="36.485153" lon="-4.981273">
        <ele>26.627</ele>
        <time>2021-06-16T21:06:59Z</time>
      </trkpt>
      <trkpt lat="36.485119" lon="-4.981489">
        <ele>27.008</ele>
        <time>2021-06-16T21:07:00Z</time>
      </trkpt>
      <trkpt lat="36.485056" lon="-4.981917">
        <ele>27.176</ele>
        <time>2021-06-16T21:07:02Z</time>
      </trkpt>
      <trkpt lat="36.485021" lon="-4.982127">
        <ele>27.135</ele>
        <time>2021-06-16T21:07:03Z</time>
      </trkpt>
      <trkpt lat="36.484987" lon="-4.982336">
        <ele>27.849</ele>
        <time>2021-06-16T21:07:04Z</time>
      </trkpt>
      <trkpt lat="36.484913" lon="-4.98276">
        <ele>27.969</ele>
        <time>2021-06-16T21:07:06Z</time>
      </trkpt>
      <trkpt lat="36.484873" lon="-4.982982">
        <ele>28.065</ele>
        <time>2021-06-16T21:07:07Z</time>
      </trkpt>
      <trkpt lat="36.484833" lon="-4.983202">
        <ele>28.177</ele>
        <time>2021-06-16T21:07:08Z</time>
      </trkpt>
      <trkpt lat="36.484752" lon="-4.983634">
        <ele>28.156</ele>
        <time>2021-06-16T21:07:10Z</time>
      </trkpt>
      <trkpt lat="36.484663" lon="-4.984072">
        <ele>27.990</ele>
        <time>2021-06-16T21:07:12Z</time>
      </trkpt>
      <trkpt lat="36.484616" lon="-4.984292">
        <ele>27.835</ele>
        <time>2021-06-16T21:07:13Z</time>
      </trkpt>
      <trkpt lat="36.484518" lon="-4.984727">
        <ele>27.586</ele>
        <time>2021-06-16T21:07:15Z</time>
      </trkpt>
      <trkpt lat="36.484453" lon="-4.984945">
        <ele>28.114</ele>
        <time>2021-06-16T21:07:16Z</time>
      </trkpt>
      <trkpt lat="36.484377" lon="-4.98516">
        <ele>29.008</ele>
        <time>2021-06-16T21:07:17Z</time>
      </trkpt>
      <trkpt lat="36.484216" lon="-4.985581">
        <ele>30.690</ele>
        <time>2021-06-16T21:07:19Z</time>
      </trkpt>
      <trkpt lat="36.484146" lon="-4.985791">
        <ele>31.119</ele>
        <time>2021-06-16T21:07:20Z</time>
      </trkpt>
      <trkpt lat="36.484076" lon="-4.986">
        <ele>31.553</ele>
        <time>2021-06-16T21:07:21Z</time>
      </trkpt>
      <trkpt lat="36.477591" lon="-4.996615">
        <ele>32.723</ele>
        <time>2021-06-16T21:08:15Z</time>
      </trkpt>
      <trkpt lat="36.477348" lon="-4.996979">
        <ele>33.429</ele>
        <time>2021-06-16T21:08:17Z</time>
      </trkpt>
      <trkpt lat="36.47723" lon="-4.997164">
        <ele>33.891</ele>
        <time>2021-06-16T21:08:18Z</time>
      </trkpt>
      <trkpt lat="36.476995" lon="-4.997529">
        <ele>34.180</ele>
        <time>2021-06-16T21:08:20Z</time>
      </trkpt>
      <trkpt lat="36.476878" lon="-4.997713">
        <ele>34.324</ele>
        <time>2021-06-16T21:08:21Z</time>
      </trkpt>
      <trkpt lat="36.476642" lon="-4.99808">
        <ele>34.436</ele>
        <time>2021-06-16T21:08:23Z</time>
      </trkpt>
      <trkpt lat="36.476407" lon="-4.998443">
        <ele>34.517</ele>
        <time>2021-06-16T21:08:25Z</time>
      </trkpt>
      <trkpt lat="36.476173" lon="-4.99881">
        <ele>34.618</ele>
        <time>2021-06-16T21:08:27Z</time>
      </trkpt>
      <trkpt lat="36.475939" lon="-4.999182">
        <ele>34.608</ele>
        <time>2021-06-16T21:08:29Z</time>
      </trkpt>
      <trkpt lat="36.475822" lon="-4.999366">
        <ele>34.690</ele>
        <time>2021-06-16T21:08:30Z</time>
      </trkpt>
      <trkpt lat="36.475705" lon="-4.999547">
        <ele>34.629</ele>
        <time>2021-06-16T21:08:31Z</time>
      </trkpt>
      <trkpt lat="36.475476" lon="-4.999902">
        <ele>34.683</ele>
        <time>2021-06-16T21:08:33Z</time>
      </trkpt>
      <trkpt lat="36.475364" lon="-5.00008">
        <ele>34.653</ele>
        <time>2021-06-16T21:08:34Z</time>
      </trkpt>
      <trkpt lat="36.475253" lon="-5.000255">
        <ele>34.649</ele>
        <time>2021-06-16T21:08:35Z</time>
      </trkpt>
      <trkpt lat="36.475041" lon="-5.000597">
        <ele>34.671</ele>
        <time>2021-06-16T21:08:37Z</time>
      </trkpt>
      <trkpt lat="36.474934" lon="-5.00077">
        <ele>34.630</ele>
        <time>2021-06-16T21:08:38Z</time>
      </trkpt>
      <trkpt lat="36.474727" lon="-5.001118">
        <ele>34.644</ele>
        <time>2021-06-16T21:08:40Z</time>
      </trkpt>
      <trkpt lat="36.474628" lon="-5.001296">
        <ele>34.647</ele>
        <time>2021-06-16T21:08:41Z</time>
      </trkpt>
      <trkpt lat="36.474452" lon="-5.001669">
        <ele>34.629</ele>
        <time>2021-06-16T21:08:43Z</time>
      </trkpt>
      <trkpt lat="36.474297" lon="-5.00207">
        <ele>34.621</ele>
        <time>2021-06-16T21:08:45Z</time>
      </trkpt>
      <trkpt lat="36.474225" lon="-5.002276">
        <ele>34.608</ele>
        <time>2021-06-16T21:08:46Z</time>
      </trkpt>
      <trkpt lat="36.474082" lon="-5.002681">
        <ele>34.671</ele>
        <time>2021-06-16T21:08:48Z</time>
      </trkpt>
      <trkpt lat="36.473941" lon="-5.003076">
        <ele>34.650</ele>
        <time>2021-06-16T21:08:50Z</time>
      </trkpt>
      <trkpt lat="36.473793" lon="-5.003476">
        <ele>34.694</ele>
        <time>2021-06-16T21:08:52Z</time>
      </trkpt>
      <trkpt lat="36.473717" lon="-5.003677">
        <ele>34.694</ele>
        <time>2021-06-16T21:08:53Z</time>
      </trkpt>
      <trkpt lat="36.473641" lon="-5.003879">
        <ele>34.650</ele>
        <time>2021-06-16T21:08:54Z</time>
      </trkpt>
      <trkpt lat="36.473495" lon="-5.004269">
        <ele>34.612</ele>
        <time>2021-06-16T21:08:56Z</time>
      </trkpt>
      <trkpt lat="36.473365" lon="-5.004669">
        <ele>34.621</ele>
        <time>2021-06-16T21:08:58Z</time>
      </trkpt>
      <trkpt lat="36.473246" lon="-5.005085">
        <ele>34.675</ele>
        <time>2021-06-16T21:09:00Z</time>
      </trkpt>
      <trkpt lat="36.473198" lon="-5.005305">
        <ele>34.651</ele>
        <time>2021-06-16T21:09:01Z</time>
      </trkpt>
      <trkpt lat="36.47312" lon="-5.00575">
        <ele>34.601</ele>
        <time>2021-06-16T21:09:03Z</time>
      </trkpt>
      <trkpt lat="36.47305" lon="-5.006191">
        <ele>34.611</ele>
        <time>2021-06-16T21:09:05Z</time>
      </trkpt>
      <trkpt lat="36.47298" lon="-5.006638">
        <ele>34.608</ele>
        <time>2021-06-16T21:09:07Z</time>
      </trkpt>
      <trkpt lat="36.472946" lon="-5.006865">
        <ele>34.682</ele>
        <time>2021-06-16T21:09:08Z</time>
      </trkpt>
      <trkpt lat="36.472915" lon="-5.00709">
        <ele>34.461</ele>
        <time>2021-06-16T21:09:09Z</time>
      </trkpt>
      <trkpt lat="36.472851" lon="-5.007533">
        <ele>33.995</ele>
        <time>2021-06-16T21:09:11Z</time>
      </trkpt>
      <trkpt lat="36.472817" lon="-5.007755">
        <ele>33.285</ele>
        <time>2021-06-16T21:09:12Z</time>
      </trkpt>
      <trkpt lat="36.472789" lon="-5.007976">
        <ele>32.671</ele>
        <time>2021-06-16T21:09:13Z</time>
      </trkpt>
      <trkpt lat="36.472725" lon="-5.008417">
        <ele>32.193</ele>
        <time>2021-06-16T21:09:15Z</time>
      </trkpt>
      <trkpt lat="36.472661" lon="-5.00886">
        <ele>31.632</ele>
        <time>2021-06-16T21:09:17Z</time>
      </trkpt>
      <trkpt lat="36.472627" lon="-5.009082">
        <ele>31.676</ele>
        <time>2021-06-16T21:09:18Z</time>
      </trkpt>
      <trkpt lat="36.47259" lon="-5.009306">
        <ele>31.598</ele>
        <time>2021-06-16T21:09:19Z</time>
      </trkpt>
      <trkpt lat="36.4725" lon="-5.00975">
        <ele>31.515</ele>
        <time>2021-06-16T21:09:21Z</time>
      </trkpt>
      <trkpt lat="36.472371" lon="-5.010171">
        <ele>31.426</ele>
        <time>2021-06-16T21:09:23Z</time>
      </trkpt>
      <trkpt lat="36.472286" lon="-5.010364">
        <ele>31.708</ele>
        <time>2021-06-16T21:09:24Z</time>
      </trkpt>
      <trkpt lat="36.472185" lon="-5.010545">
        <ele>31.396</ele>
        <time>2021-06-16T21:09:25Z</time>
      </trkpt>
      <trkpt lat="36.471952" lon="-5.01088">
        <ele>31.535</ele>
        <time>2021-06-16T21:09:27Z</time>
      </trkpt>
      <trkpt lat="36.471822" lon="-5.011026">
        <ele>32.059</ele>
        <time>2021-06-16T21:09:28Z</time>
      </trkpt>
      <trkpt lat="36.471532" lon="-5.011284">
        <ele>32.199</ele>
        <time>2021-06-16T21:09:30Z</time>
      </trkpt>
      <trkpt lat="36.471379" lon="-5.0114">
        <ele>32.285</ele>
        <time>2021-06-16T21:09:31Z</time>
      </trkpt>
      <trkpt lat="36.471069" lon="-5.011613">
        <ele>32.517</ele>
        <time>2021-06-16T21:09:33Z</time>
      </trkpt>
      <trkpt lat="36.470753" lon="-5.011837">
        <ele>33.486</ele>
        <time>2021-06-16T21:09:35Z</time>
      </trkpt>
      <trkpt lat="36.470451" lon="-5.01209">
        <ele>34.130</ele>
        <time>2021-06-16T21:09:37Z</time>
      </trkpt>
      <trkpt lat="36.470164" lon="-5.01237">
        <ele>34.389</ele>
        <time>2021-06-16T21:09:39Z</time>
      </trkpt>
      <trkpt lat="36.47003" lon="-5.012529">
        <ele>34.206</ele>
        <time>2021-06-16T21:09:40Z</time>
      </trkpt>
      <trkpt lat="36.469902" lon="-5.012699">
        <ele>34.526</ele>
        <time>2021-06-16T21:09:41Z</time>
      </trkpt>
      <trkpt lat="36.469671" lon="-5.013064">
        <ele>34.208</ele>
        <time>2021-06-16T21:09:43Z</time>
      </trkpt>
      <trkpt lat="36.469568" lon="-5.013256">
        <ele>33.915</ele>
        <time>2021-06-16T21:09:44Z</time>
      </trkpt>
      <trkpt lat="36.469388" lon="-5.013665">
        <ele>33.744</ele>
        <time>2021-06-16T21:09:46Z</time>
      </trkpt>
      <trkpt lat="36.469313" lon="-5.01388">
        <ele>33.778</ele>
        <time>2021-06-16T21:09:47Z</time>
      </trkpt>
      <trkpt lat="36.469246" lon="-5.014095">
        <ele>33.428</ele>
        <time>2021-06-16T21:09:48Z</time>
      </trkpt>
      <trkpt lat="36.469138" lon="-5.014534">
        <ele>33.134</ele>
        <time>2021-06-16T21:09:50Z</time>
      </trkpt>
      <trkpt lat="36.469089" lon="-5.014756">
        <ele>32.926</ele>
        <time>2021-06-16T21:09:51Z</time>
      </trkpt>
      <trkpt lat="36.469039" lon="-5.014977">
        <ele>32.565</ele>
        <time>2021-06-16T21:09:52Z</time>
      </trkpt>
      <trkpt lat="36.468989" lon="-5.015199">
        <ele>32.249</ele>
        <time>2021-06-16T21:09:53Z</time>
      </trkpt>
      <trkpt lat="36.468939" lon="-5.015417">
        <ele>31.778</ele>
        <time>2021-06-16T21:09:54Z</time>
      </trkpt>
      <trkpt lat="36.46884" lon="-5.015842">
        <ele>30.933</ele>
        <time>2021-06-16T21:09:56Z</time>
      </trkpt>
      <trkpt lat="36.468789" lon="-5.016054">
        <ele>30.426</ele>
        <time>2021-06-16T21:09:57Z</time>
      </trkpt>
      <trkpt lat="36.468691" lon="-5.016475">
        <ele>29.908</ele>
        <time>2021-06-16T21:09:59Z</time>
      </trkpt>
      <trkpt lat="36.468596" lon="-5.016909">
        <ele>29.184</ele>
        <time>2021-06-16T21:10:01Z</time>
      </trkpt>
      <trkpt lat="36.468546" lon="-5.017126">
        <ele>28.533</ele>
        <time>2021-06-16T21:10:02Z</time>
      </trkpt>
      <trkpt lat="36.468496" lon="-5.017341">
        <ele>28.567</ele>
        <time>2021-06-16T21:10:03Z</time>
      </trkpt>
      <trkpt lat="36.468444" lon="-5.017553">
        <ele>28.437</ele>
        <time>2021-06-16T21:10:04Z</time>
      </trkpt>
      <trkpt lat="36.468345" lon="-5.017973">
        <ele>28.113</ele>
        <time>2021-06-16T21:10:06Z</time>
      </trkpt>
      <trkpt lat="36.468247" lon="-5.0184">
        <ele>27.445</ele>
        <time>2021-06-16T21:10:08Z</time>
      </trkpt>
      <trkpt lat="36.468196" lon="-5.018616">
        <ele>26.814</ele>
        <time>2021-06-16T21:10:09Z</time>
      </trkpt>
      <trkpt lat="36.468142" lon="-5.018833">
        <ele>26.368</ele>
        <time>2021-06-16T21:10:10Z</time>
      </trkpt>
      <trkpt lat="36.468037" lon="-5.019254">
        <ele>26.458</ele>
        <time>2021-06-16T21:10:12Z</time>
      </trkpt>
      <trkpt lat="36.467981" lon="-5.019464">
        <ele>26.452</ele>
        <time>2021-06-16T21:10:13Z</time>
      </trkpt>
      <trkpt lat="36.467874" lon="-5.019881">
        <ele>26.317</ele>
        <time>2021-06-16T21:10:15Z</time>
      </trkpt>
      <trkpt lat="36.467824" lon="-5.020093">
        <ele>26.508</ele>
        <time>2021-06-16T21:10:16Z</time>
      </trkpt>
      <trkpt lat="36.467728" lon="-5.020513">
        <ele>26.492</ele>
        <time>2021-06-16T21:10:18Z</time>
      </trkpt>
      <trkpt lat="36.467635" lon="-5.020934">
        <ele>26.481</ele>
        <time>2021-06-16T21:10:20Z</time>
      </trkpt>
      <trkpt lat="36.467536" lon="-5.021366">
        <ele>26.365</ele>
        <time>2021-06-16T21:10:22Z</time>
      </trkpt>
      <trkpt lat="36.467485" lon="-5.021581">
        <ele>26.465</ele>
        <time>2021-06-16T21:10:23Z</time>
      </trkpt>
      <trkpt lat="36.467373" lon="-5.022023">
        <ele>25.771</ele>
        <time>2021-06-16T21:10:25Z</time>
      </trkpt>
      <trkpt lat="36.467262" lon="-5.022478">
        <ele>24.863</ele>
        <time>2021-06-16T21:10:27Z</time>
      </trkpt>
      <trkpt lat="36.467208" lon="-5.022705">
        <ele>24.262</ele>
        <time>2021-06-16T21:10:28Z</time>
      </trkpt>
      <trkpt lat="36.467101" lon="-5.023163">
        <ele>23.376</ele>
        <time>2021-06-16T21:10:30Z</time>
      </trkpt>
      <trkpt lat="36.467048" lon="-5.023395">
        <ele>23.098</ele>
        <time>2021-06-16T21:10:31Z</time>
      </trkpt>
      <trkpt lat="36.466933" lon="-5.023865">
        <ele>22.115</ele>
        <time>2021-06-16T21:10:33Z</time>
      </trkpt>
      <trkpt lat="36.466875" lon="-5.024097">
        <ele>21.126</ele>
        <time>2021-06-16T21:10:34Z</time>
      </trkpt>
      <trkpt lat="36.46677" lon="-5.024548">
        <ele>20.708</ele>
        <time>2021-06-16T21:10:36Z</time>
      </trkpt>
      <trkpt lat="36.466716" lon="-5.024761">
        <ele>21.176</ele>
        <time>2021-06-16T21:10:37Z</time>
      </trkpt>
      <trkpt lat="36.466664" lon="-5.024973">
        <ele>21.085</ele>
        <time>2021-06-16T21:10:38Z</time>
      </trkpt>
      <trkpt lat="36.466561" lon="-5.025398">
        <ele>21.659</ele>
        <time>2021-06-16T21:10:40Z</time>
      </trkpt>
      <trkpt lat="36.466457" lon="-5.025821">
        <ele>22.689</ele>
        <time>2021-06-16T21:10:42Z</time>
      </trkpt>
      <trkpt lat="36.466357" lon="-5.026245">
        <ele>23.135</ele>
        <time>2021-06-16T21:10:44Z</time>
      </trkpt>
      <trkpt lat="36.466305" lon="-5.026457">
        <ele>23.827</ele>
        <time>2021-06-16T21:10:45Z</time>
      </trkpt>
      <trkpt lat="36.466201" lon="-5.026882">
        <ele>24.316</ele>
        <time>2021-06-16T21:10:47Z</time>
      </trkpt>
      <trkpt lat="36.466151" lon="-5.0271">
        <ele>24.560</ele>
        <time>2021-06-16T21:10:48Z</time>
      </trkpt>
      <trkpt lat="36.466049" lon="-5.027536">
        <ele>24.875</ele>
        <time>2021-06-16T21:10:50Z</time>
      </trkpt>
      <trkpt lat="36.465946" lon="-5.027972">
        <ele>25.228</ele>
        <time>2021-06-16T21:10:52Z</time>
      </trkpt>
      <trkpt lat="36.465895" lon="-5.02819">
        <ele>25.520</ele>
        <time>2021-06-16T21:10:53Z</time>
      </trkpt>
      <trkpt lat="36.465842" lon="-5.028411">
        <ele>25.508</ele>
        <time>2021-06-16T21:10:54Z</time>
      </trkpt>
      <trkpt lat="36.465737" lon="-5.02886">
        <ele>25.694</ele>
        <time>2021-06-16T21:10:56Z</time>
      </trkpt>
      <trkpt lat="36.46563" lon="-5.029307">
        <ele>25.473</ele>
        <time>2021-06-16T21:10:58Z</time>
      </trkpt>
      <trkpt lat="36.465575" lon="-5.029534">
        <ele>25.487</ele>
        <time>2021-06-16T21:10:59Z</time>
      </trkpt>
      <trkpt lat="36.46552" lon="-5.029767">
        <ele>25.357</ele>
        <time>2021-06-16T21:11:00Z</time>
      </trkpt>
      <trkpt lat="36.465415" lon="-5.030222">
        <ele>25.443</ele>
        <time>2021-06-16T21:11:02Z</time>
      </trkpt>
      <trkpt lat="36.465316" lon="-5.030661">
        <ele>25.335</ele>
        <time>2021-06-16T21:11:04Z</time>
      </trkpt>
      <trkpt lat="36.465214" lon="-5.0311">
        <ele>25.154</ele>
        <time>2021-06-16T21:11:06Z</time>
      </trkpt>
      <trkpt lat="36.465163" lon="-5.031325">
        <ele>24.918</ele>
        <time>2021-06-16T21:11:07Z</time>
      </trkpt>
      <trkpt lat="36.465112" lon="-5.03155">
        <ele>24.869</ele>
        <time>2021-06-16T21:11:08Z</time>
      </trkpt>
      <trkpt lat="36.465059" lon="-5.031775">
        <ele>25.104</ele>
        <time>2021-06-16T21:11:09Z</time>
      </trkpt>
      <trkpt lat="36.464942" lon="-5.032224">
        <ele>24.324</ele>
        <time>2021-06-16T21:11:11Z</time>
      </trkpt>
      <trkpt lat="36.464836" lon="-5.032678">
        <ele>24.308</ele>
        <time>2021-06-16T21:11:13Z</time>
      </trkpt>
      <trkpt lat="36.464728" lon="-5.03314">
        <ele>23.443</ele>
        <time>2021-06-16T21:11:15Z</time>
      </trkpt>
      <trkpt lat="36.464674" lon="-5.033371">
        <ele>23.332</ele>
        <time>2021-06-16T21:11:16Z</time>
      </trkpt>
      <trkpt lat="36.464565" lon="-5.033822">
        <ele>22.816</ele>
        <time>2021-06-16T21:11:18Z</time>
      </trkpt>
      <trkpt lat="36.464454" lon="-5.034263">
        <ele>22.366</ele>
        <time>2021-06-16T21:11:20Z</time>
      </trkpt>
      <trkpt lat="36.4644" lon="-5.034483">
        <ele>21.892</ele>
        <time>2021-06-16T21:11:21Z</time>
      </trkpt>
      <trkpt lat="36.464296" lon="-5.03492">
        <ele>21.384</ele>
        <time>2021-06-16T21:11:23Z</time>
      </trkpt>
      <trkpt lat="36.464193" lon="-5.035358">
        <ele>21.033</ele>
        <time>2021-06-16T21:11:25Z</time>
      </trkpt>
      <trkpt lat="36.464087" lon="-5.035791">
        <ele>20.817</ele>
        <time>2021-06-16T21:11:27Z</time>
      </trkpt>
      <trkpt lat="36.463987" lon="-5.036218">
        <ele>20.746</ele>
        <time>2021-06-16T21:11:29Z</time>
      </trkpt>
      <trkpt lat="36.463876" lon="-5.03664">
        <ele>20.588</ele>
        <time>2021-06-16T21:11:31Z</time>
      </trkpt>
      <trkpt lat="36.463826" lon="-5.036854">
        <ele>20.116</ele>
        <time>2021-06-16T21:11:32Z</time>
      </trkpt>
      <trkpt lat="36.463777" lon="-5.037073">
        <ele>19.808</ele>
        <time>2021-06-16T21:11:33Z</time>
      </trkpt>
      <trkpt lat="36.463728" lon="-5.037292">
        <ele>19.351</ele>
        <time>2021-06-16T21:11:34Z</time>
      </trkpt>
      <trkpt lat="36.463617" lon="-5.037733">
        <ele>19.130</ele>
        <time>2021-06-16T21:11:36Z</time>
      </trkpt>
      <trkpt lat="36.46351" lon="-5.038184">
        <ele>18.894</ele>
        <time>2021-06-16T21:11:38Z</time>
      </trkpt>
      <trkpt lat="36.463404" lon="-5.038625">
        <ele>18.364</ele>
        <time>2021-06-16T21:11:40Z</time>
      </trkpt>
      <trkpt lat="36.463302" lon="-5.039067">
        <ele>18.250</ele>
        <time>2021-06-16T21:11:42Z</time>
      </trkpt>
      <trkpt lat="36.463247" lon="-5.039291">
        <ele>18.132</ele>
        <time>2021-06-16T21:11:43Z</time>
      </trkpt>
      <trkpt lat="36.463194" lon="-5.039513">
        <ele>18.071</ele>
        <time>2021-06-16T21:11:44Z</time>
      </trkpt>
      <trkpt lat="36.463142" lon="-5.039731">
        <ele>18.315</ele>
        <time>2021-06-16T21:11:45Z</time>
      </trkpt>
      <trkpt lat="36.463041" lon="-5.040169">
        <ele>18.835</ele>
        <time>2021-06-16T21:11:47Z</time>
      </trkpt>
      <trkpt lat="36.462987" lon="-5.040393">
        <ele>19.386</ele>
        <time>2021-06-16T21:11:48Z</time>
      </trkpt>
      <trkpt lat="36.462933" lon="-5.040615">
        <ele>19.914</ele>
        <time>2021-06-16T21:11:49Z</time>
      </trkpt>
      <trkpt lat="36.462832" lon="-5.041054">
        <ele>20.708</ele>
        <time>2021-06-16T21:11:51Z</time>
      </trkpt>
      <trkpt lat="36.462781" lon="-5.041272">
        <ele>21.350</ele>
        <time>2021-06-16T21:11:52Z</time>
      </trkpt>
      <trkpt lat="36.462683" lon="-5.041703">
        <ele>21.799</ele>
        <time>2021-06-16T21:11:54Z</time>
      </trkpt>
      <trkpt lat="36.462633" lon="-5.041916">
        <ele>22.233</ele>
        <time>2021-06-16T21:11:55Z</time>
      </trkpt>
      <trkpt lat="36.462582" lon="-5.042131">
        <ele>22.553</ele>
        <time>2021-06-16T21:11:56Z</time>
      </trkpt>
      <trkpt lat="36.462484" lon="-5.042558">
        <ele>23.089</ele>
        <time>2021-06-16T21:11:58Z</time>
      </trkpt>
      <trkpt lat="36.462379" lon="-5.042989">
        <ele>23.181</ele>
        <time>2021-06-16T21:12:00Z</time>
      </trkpt>
      <trkpt lat="36.462323" lon="-5.043209">
        <ele>23.190</ele>
        <time>2021-06-16T21:12:01Z</time>
      </trkpt>
      <trkpt lat="36.462215" lon="-5.043653">
        <ele>22.554</ele>
        <time>2021-06-16T21:12:03Z</time>
      </trkpt>
      <trkpt lat="36.462104" lon="-5.044105">
        <ele>22.489</ele>
        <time>2021-06-16T21:12:05Z</time>
      </trkpt>
      <trkpt lat="36.461986" lon="-5.044559">
        <ele>22.806</ele>
        <time>2021-06-16T21:12:07Z</time>
      </trkpt>
      <trkpt lat="36.461857" lon="-5.045003">
        <ele>23.126</ele>
        <time>2021-06-16T21:12:09Z</time>
      </trkpt>
      <trkpt lat="36.461788" lon="-5.045223">
        <ele>23.108</ele>
        <time>2021-06-16T21:12:10Z</time>
      </trkpt>
      <trkpt lat="36.461643" lon="-5.045659">
        <ele>23.175</ele>
        <time>2021-06-16T21:12:12Z</time>
      </trkpt>
      <trkpt lat="36.461498" lon="-5.04609">
        <ele>22.934</ele>
        <time>2021-06-16T21:12:14Z</time>
      </trkpt>
      <trkpt lat="36.461426" lon="-5.046305">
        <ele>22.698</ele>
        <time>2021-06-16T21:12:15Z</time>
      </trkpt>
      <trkpt lat="36.461275" lon="-5.046723">
        <ele>22.388</ele>
        <time>2021-06-16T21:12:17Z</time>
      </trkpt>
      <trkpt lat="36.461198" lon="-5.046931">
        <ele>22.544</ele>
        <time>2021-06-16T21:12:18Z</time>
      </trkpt>
      <trkpt lat="36.461028" lon="-5.047338">
        <ele>22.396</ele>
        <time>2021-06-16T21:12:20Z</time>
      </trkpt>
      <trkpt lat="36.460853" lon="-5.047738">
        <ele>22.345</ele>
        <time>2021-06-16T21:12:22Z</time>
      </trkpt>
      <trkpt lat="36.460761" lon="-5.047943">
        <ele>22.229</ele>
        <time>2021-06-16T21:12:23Z</time>
      </trkpt>
      <trkpt lat="36.460581" lon="-5.048352">
        <ele>22.084</ele>
        <time>2021-06-16T21:12:25Z</time>
      </trkpt>
      <trkpt lat="36.460489" lon="-5.048558">
        <ele>21.707</ele>
        <time>2021-06-16T21:12:26Z</time>
      </trkpt>
      <trkpt lat="36.460305" lon="-5.048972">
        <ele>21.117</ele>
        <time>2021-06-16T21:12:28Z</time>
      </trkpt>
      <trkpt lat="36.460117" lon="-5.049389">
        <ele>20.808</ele>
        <time>2021-06-16T21:12:30Z</time>
      </trkpt>
      <trkpt lat="36.45993" lon="-5.049823">
        <ele>20.965</ele>
        <time>2021-06-16T21:12:32Z</time>
      </trkpt>
      <trkpt lat="36.459836" lon="-5.050037">
        <ele>21.094</ele>
        <time>2021-06-16T21:12:33Z</time>
      </trkpt>
      <trkpt lat="36.459653" lon="-5.050454">
        <ele>21.748</ele>
        <time>2021-06-16T21:12:35Z</time>
      </trkpt>
      <trkpt lat="36.459558" lon="-5.050658">
        <ele>22.338</ele>
        <time>2021-06-16T21:12:36Z</time>
      </trkpt>
      <trkpt lat="36.459466" lon="-5.050861">
        <ele>22.814</ele>
        <time>2021-06-16T21:12:37Z</time>
      </trkpt>
      <trkpt lat="36.459283" lon="-5.051259">
        <ele>23.646</ele>
        <time>2021-06-16T21:12:39Z</time>
      </trkpt>
      <trkpt lat="36.459103" lon="-5.051659">
        <ele>24.255</ele>
        <time>2021-06-16T21:12:41Z</time>
      </trkpt>
      <trkpt lat="36.459011" lon="-5.051862">
        <ele>24.519</ele>
        <time>2021-06-16T21:12:42Z</time>
      </trkpt>
      <trkpt lat="36.45883" lon="-5.052262">
        <ele>25.099</ele>
        <time>2021-06-16T21:12:44Z</time>
      </trkpt>
      <trkpt lat="36.458643" lon="-5.052659">
        <ele>26.007</ele>
        <time>2021-06-16T21:12:46Z</time>
      </trkpt>
      <trkpt lat="36.458458" lon="-5.053056">
        <ele>26.927</ele>
        <time>2021-06-16T21:12:48Z</time>
      </trkpt>
      <trkpt lat="36.45828" lon="-5.053458">
        <ele>27.608</ele>
        <time>2021-06-16T21:12:50Z</time>
      </trkpt>
      <trkpt lat="36.458196" lon="-5.05366">
        <ele>27.976</ele>
        <time>2021-06-16T21:12:51Z</time>
      </trkpt>
      <trkpt lat="36.458031" lon="-5.054069">
        <ele>27.975</ele>
        <time>2021-06-16T21:12:53Z</time>
      </trkpt>
      <trkpt lat="36.457863" lon="-5.054485">
        <ele>27.389</ele>
        <time>2021-06-16T21:12:55Z</time>
      </trkpt>
      <trkpt lat="36.4577" lon="-5.05491">
        <ele>26.429</ele>
        <time>2021-06-16T21:12:57Z</time>
      </trkpt>
      <trkpt lat="36.457537" lon="-5.055344">
        <ele>25.715</ele>
        <time>2021-06-16T21:12:59Z</time>
      </trkpt>
      <trkpt lat="36.457456" lon="-5.055561">
        <ele>24.787</ele>
        <time>2021-06-16T21:13:00Z</time>
      </trkpt>
      <trkpt lat="36.457302" lon="-5.05598">
        <ele>23.496</ele>
        <time>2021-06-16T21:13:02Z</time>
      </trkpt>
      <trkpt lat="36.457227" lon="-5.056188">
        <ele>22.650</ele>
        <time>2021-06-16T21:13:03Z</time>
      </trkpt>
      <trkpt lat="36.457078" lon="-5.056612">
        <ele>21.557</ele>
        <time>2021-06-16T21:13:05Z</time>
      </trkpt>
      <trkpt lat="36.456925" lon="-5.057046">
        <ele>20.900</ele>
        <time>2021-06-16T21:13:07Z</time>
      </trkpt>
      <trkpt lat="36.456849" lon="-5.057263">
        <ele>20.320</ele>
        <time>2021-06-16T21:13:08Z</time>
      </trkpt>
      <trkpt lat="36.456689" lon="-5.05768">
        <ele>20.208</ele>
        <time>2021-06-16T21:13:10Z</time>
      </trkpt>
      <trkpt lat="36.456603" lon="-5.057886">
        <ele>20.292</ele>
        <time>2021-06-16T21:13:11Z</time>
      </trkpt>
      <trkpt lat="36.456423" lon="-5.058284">
        <ele>20.441</ele>
        <time>2021-06-16T21:13:13Z</time>
      </trkpt>
      <trkpt lat="36.456327" lon="-5.058478">
        <ele>20.585</ele>
        <time>2021-06-16T21:13:14Z</time>
      </trkpt>
      <trkpt lat="36.456227" lon="-5.05867">
        <ele>20.555</ele>
        <time>2021-06-16T21:13:15Z</time>
      </trkpt>
      <trkpt lat="36.45602" lon="-5.059051">
        <ele>20.471</ele>
        <time>2021-06-16T21:13:17Z</time>
      </trkpt>
      <trkpt lat="36.455804" lon="-5.059426">
        <ele>20.273</ele>
        <time>2021-06-16T21:13:19Z</time>
      </trkpt>
      <trkpt lat="36.455589" lon="-5.059801">
        <ele>19.952</ele>
        <time>2021-06-16T21:13:21Z</time>
      </trkpt>
      <trkpt lat="36.455375" lon="-5.060172">
        <ele>19.876</ele>
        <time>2021-06-16T21:13:23Z</time>
      </trkpt>
      <trkpt lat="36.455154" lon="-5.060548">
        <ele>19.841</ele>
        <time>2021-06-16T21:13:25Z</time>
      </trkpt>
      <trkpt lat="36.455043" lon="-5.060739">
        <ele>19.881</ele>
        <time>2021-06-16T21:13:26Z</time>
      </trkpt>
      <trkpt lat="36.454934" lon="-5.060934">
        <ele>19.909</ele>
        <time>2021-06-16T21:13:27Z</time>
      </trkpt>
      <trkpt lat="36.454731" lon="-5.061333">
        <ele>20.908</ele>
        <time>2021-06-16T21:13:29Z</time>
      </trkpt>
      <trkpt lat="36.454641" lon="-5.061538">
        <ele>21.771</ele>
        <time>2021-06-16T21:13:30Z</time>
      </trkpt>
      <trkpt lat="36.454559" lon="-5.061745">
        <ele>22.430</ele>
        <time>2021-06-16T21:13:31Z</time>
      </trkpt>
      <trkpt lat="36.45442" lon="-5.062161">
        <ele>23.324</ele>
        <time>2021-06-16T21:13:33Z</time>
      </trkpt>
      <trkpt lat="36.454361" lon="-5.062374">
        <ele>24.464</ele>
        <time>2021-06-16T21:13:34Z</time>
      </trkpt>
      <trkpt lat="36.45426" lon="-5.062806">
        <ele>25.390</ele>
        <time>2021-06-16T21:13:36Z</time>
      </trkpt>
      <trkpt lat="36.45422" lon="-5.06303">
        <ele>26.232</ele>
        <time>2021-06-16T21:13:37Z</time>
      </trkpt>
      <trkpt lat="36.454155" lon="-5.063476">
        <ele>26.891</ele>
        <time>2021-06-16T21:13:39Z</time>
      </trkpt>
      <trkpt lat="36.454138" lon="-5.063699">
        <ele>27.395</ele>
        <time>2021-06-16T21:13:40Z</time>
      </trkpt>
      <trkpt lat="36.454112" lon="-5.064147">
        <ele>27.553</ele>
        <time>2021-06-16T21:13:42Z</time>
      </trkpt>
      <trkpt lat="36.454105" lon="-5.064377">
        <ele>27.804</ele>
        <time>2021-06-16T21:13:43Z</time>
      </trkpt>
      <trkpt lat="36.454096" lon="-5.064606">
        <ele>27.714</ele>
        <time>2021-06-16T21:13:44Z</time>
      </trkpt>
      <trkpt lat="36.454084" lon="-5.064833">
        <ele>27.808</ele>
        <time>2021-06-16T21:13:45Z</time>
      </trkpt>
      <trkpt lat="36.454065" lon="-5.065284">
        <ele>27.682</ele>
        <time>2021-06-16T21:13:47Z</time>
      </trkpt>
      <trkpt lat="36.454055" lon="-5.065506">
        <ele>27.471</ele>
        <time>2021-06-16T21:13:48Z</time>
      </trkpt>
      <trkpt lat="36.454035" lon="-5.06595">
        <ele>27.615</ele>
        <time>2021-06-16T21:13:50Z</time>
      </trkpt>
      <trkpt lat="36.454027" lon="-5.066174">
        <ele>27.895</ele>
        <time>2021-06-16T21:13:51Z</time>
      </trkpt>
      <trkpt lat="36.454004" lon="-5.066625">
        <ele>27.621</ele>
        <time>2021-06-16T21:13:53Z</time>
      </trkpt>
      <trkpt lat="36.453989" lon="-5.067073">
        <ele>27.693</ele>
        <time>2021-06-16T21:13:55Z</time>
      </trkpt>
      <trkpt lat="36.453971" lon="-5.067529">
        <ele>27.372</ele>
        <time>2021-06-16T21:13:57Z</time>
      </trkpt>
      <trkpt lat="36.45396" lon="-5.067757">
        <ele>27.336</ele>
        <time>2021-06-16T21:13:58Z</time>
      </trkpt>
      <trkpt lat="36.45393" lon="-5.068218">
        <ele>26.721</ele>
        <time>2021-06-16T21:14:00Z</time>
      </trkpt>
      <trkpt lat="36.453919" lon="-5.068449">
        <ele>26.341</ele>
        <time>2021-06-16T21:14:01Z</time>
      </trkpt>
      <trkpt lat="36.453908" lon="-5.068683">
        <ele>26.005</ele>
        <time>2021-06-16T21:14:02Z</time>
      </trkpt>
      <trkpt lat="36.453889" lon="-5.069154">
        <ele>25.408</ele>
        <time>2021-06-16T21:14:04Z</time>
      </trkpt>
      <trkpt lat="36.453878" lon="-5.069391">
        <ele>25.149</ele>
        <time>2021-06-16T21:14:05Z</time>
      </trkpt>
      <trkpt lat="36.453853" lon="-5.069855">
        <ele>24.628</ele>
        <time>2021-06-16T21:14:07Z</time>
      </trkpt>
      <trkpt lat="36.453842" lon="-5.070088">
        <ele>24.182</ele>
        <time>2021-06-16T21:14:08Z</time>
      </trkpt>
      <trkpt lat="36.453817" lon="-5.070549">
        <ele>23.622</ele>
        <time>2021-06-16T21:14:10Z</time>
      </trkpt>
      <trkpt lat="36.453795" lon="-5.070998">
        <ele>23.378</ele>
        <time>2021-06-16T21:14:12Z</time>
      </trkpt>
      <trkpt lat="36.453784" lon="-5.071224">
        <ele>22.760</ele>
        <time>2021-06-16T21:14:13Z</time>
      </trkpt>
      <trkpt lat="36.453764" lon="-5.071688">
        <ele>22.489</ele>
        <time>2021-06-16T21:14:15Z</time>
      </trkpt>
      <trkpt lat="36.453738" lon="-5.07215">
        <ele>22.153</ele>
        <time>2021-06-16T21:14:17Z</time>
      </trkpt>
      <trkpt lat="36.453728" lon="-5.072383">
        <ele>21.864</ele>
        <time>2021-06-16T21:14:18Z</time>
      </trkpt>
      <trkpt lat="36.453718" lon="-5.072619">
        <ele>21.406</ele>
        <time>2021-06-16T21:14:19Z</time>
      </trkpt>
      <trkpt lat="36.453701" lon="-5.073085">
        <ele>20.716</ele>
        <time>2021-06-16T21:14:21Z</time>
      </trkpt>
      <trkpt lat="36.453693" lon="-5.07332">
        <ele>20.608</ele>
        <time>2021-06-16T21:14:22Z</time>
      </trkpt>
      <trkpt lat="36.453684" lon="-5.073556">
        <ele>20.323</ele>
        <time>2021-06-16T21:14:23Z</time>
      </trkpt>
      <trkpt lat="36.453666" lon="-5.074021">
        <ele>19.882</ele>
        <time>2021-06-16T21:14:25Z</time>
      </trkpt>
      <trkpt lat="36.453655" lon="-5.074252">
        <ele>19.576</ele>
        <time>2021-06-16T21:14:26Z</time>
      </trkpt>
      <trkpt lat="36.453631" lon="-5.074703">
        <ele>19.196</ele>
        <time>2021-06-16T21:14:28Z</time>
      </trkpt>
      <trkpt lat="36.453622" lon="-5.074928">
        <ele>18.482</ele>
        <time>2021-06-16T21:14:29Z</time>
      </trkpt>
      <trkpt lat="36.453597" lon="-5.075387">
        <ele>18.494</ele>
        <time>2021-06-16T21:14:31Z</time>
      </trkpt>
      <trkpt lat="36.453585" lon="-5.075617">
        <ele>18.383</ele>
        <time>2021-06-16T21:14:32Z</time>
      </trkpt>
      <trkpt lat="36.453574" lon="-5.075847">
        <ele>18.457</ele>
        <time>2021-06-16T21:14:33Z</time>
      </trkpt>
      <trkpt lat="36.453546" lon="-5.076301">
        <ele>18.847</ele>
        <time>2021-06-16T21:14:35Z</time>
      </trkpt>
      <trkpt lat="36.453535" lon="-5.076529">
        <ele>19.129</ele>
        <time>2021-06-16T21:14:36Z</time>
      </trkpt>
      <trkpt lat="36.453519" lon="-5.076979">
        <ele>18.921</ele>
        <time>2021-06-16T21:14:38Z</time>
      </trkpt>
      <trkpt lat="36.453507" lon="-5.077205">
        <ele>18.608</ele>
        <time>2021-06-16T21:14:39Z</time>
      </trkpt>
      <trkpt lat="36.453483" lon="-5.07767">
        <ele>18.741</ele>
        <time>2021-06-16T21:14:41Z</time>
      </trkpt>
      <trkpt lat="36.453456" lon="-5.078143">
        <ele>18.530</ele>
        <time>2021-06-16T21:14:43Z</time>
      </trkpt>
      <trkpt lat="36.453444" lon="-5.078382">
        <ele>18.694</ele>
        <time>2021-06-16T21:14:44Z</time>
      </trkpt>
      <trkpt lat="36.453417" lon="-5.078852">
        <ele>19.084</ele>
        <time>2021-06-16T21:14:46Z</time>
      </trkpt>
      <trkpt lat="36.453375" lon="-5.07931">
        <ele>19.320</ele>
        <time>2021-06-16T21:14:48Z</time>
      </trkpt>
      <trkpt lat="36.453299" lon="-5.079761">
        <ele>19.372</ele>
        <time>2021-06-16T21:14:50Z</time>
      </trkpt>
      <trkpt lat="36.453243" lon="-5.079978">
        <ele>19.711</ele>
        <time>2021-06-16T21:14:51Z</time>
      </trkpt>
      <trkpt lat="36.453109" lon="-5.080409">
        <ele>19.825</ele>
        <time>2021-06-16T21:14:53Z</time>
      </trkpt>
      <trkpt lat="36.453033" lon="-5.08062">
        <ele>19.894</ele>
        <time>2021-06-16T21:14:54Z</time>
      </trkpt>
      <trkpt lat="36.452865" lon="-5.081032">
        <ele>19.857</ele>
        <time>2021-06-16T21:14:56Z</time>
      </trkpt>
      <trkpt lat="36.452772" lon="-5.081234">
        <ele>20.022</ele>
        <time>2021-06-16T21:14:57Z</time>
      </trkpt>
      <trkpt lat="36.452675" lon="-5.081429">
        <ele>19.908</ele>
        <time>2021-06-16T21:14:58Z</time>
      </trkpt>
      <trkpt lat="36.452467" lon="-5.081819">
        <ele>19.956</ele>
        <time>2021-06-16T21:15:00Z</time>
      </trkpt>
      <trkpt lat="36.452258" lon="-5.082214">
        <ele>19.975</ele>
        <time>2021-06-16T21:15:02Z</time>
      </trkpt>
      <trkpt lat="36.452056" lon="-5.082606">
        <ele>19.979</ele>
        <time>2021-06-16T21:15:04Z</time>
      </trkpt>
      <trkpt lat="36.451956" lon="-5.082802">
        <ele>19.819</ele>
        <time>2021-06-16T21:15:05Z</time>
      </trkpt>
      <trkpt lat="36.451756" lon="-5.083195">
        <ele>19.995</ele>
        <time>2021-06-16T21:15:07Z</time>
      </trkpt>
      <trkpt lat="36.451657" lon="-5.083392">
        <ele>20.087</ele>
        <time>2021-06-16T21:15:08Z</time>
      </trkpt>
      <trkpt lat="36.451557" lon="-5.083593">
        <ele>19.746</ele>
        <time>2021-06-16T21:15:09Z</time>
      </trkpt>
      <trkpt lat="36.451357" lon="-5.083993">
        <ele>19.460</ele>
        <time>2021-06-16T21:15:11Z</time>
      </trkpt>
      <trkpt lat="36.451153" lon="-5.084392">
        <ele>19.477</ele>
        <time>2021-06-16T21:15:13Z</time>
      </trkpt>
      <trkpt lat="36.450954" lon="-5.084794">
        <ele>19.261</ele>
        <time>2021-06-16T21:15:15Z</time>
      </trkpt>
      <trkpt lat="36.450856" lon="-5.084991">
        <ele>19.227</ele>
        <time>2021-06-16T21:15:16Z</time>
      </trkpt>
      <trkpt lat="36.450757" lon="-5.085188">
        <ele>19.408</ele>
        <time>2021-06-16T21:15:17Z</time>
      </trkpt>
      <trkpt lat="36.450561" lon="-5.08558">
        <ele>19.264</ele>
        <time>2021-06-16T21:15:19Z</time>
      </trkpt>
      <trkpt lat="36.45046" lon="-5.085776">
        <ele>19.663</ele>
        <time>2021-06-16T21:15:20Z</time>
      </trkpt>
      <trkpt lat="36.450261" lon="-5.086162">
        <ele>20.057</ele>
        <time>2021-06-16T21:15:22Z</time>
      </trkpt>
      <trkpt lat="36.450159" lon="-5.086355">
        <ele>20.067</ele>
        <time>2021-06-16T21:15:23Z</time>
      </trkpt>
      <trkpt lat="36.449957" lon="-5.08674">
        <ele>20.343</ele>
        <time>2021-06-16T21:15:25Z</time>
      </trkpt>
      <trkpt lat="36.449858" lon="-5.086937">
        <ele>20.375</ele>
        <time>2021-06-16T21:15:26Z</time>
      </trkpt>
      <trkpt lat="36.449659" lon="-5.087327">
        <ele>20.454</ele>
        <time>2021-06-16T21:15:28Z</time>
      </trkpt>
      <trkpt lat="36.449467" lon="-5.087715">
        <ele>20.818</ele>
        <time>2021-06-16T21:15:30Z</time>
      </trkpt>
      <trkpt lat="36.449369" lon="-5.087908">
        <ele>20.816</ele>
        <time>2021-06-16T21:15:31Z</time>
      </trkpt>
      <trkpt lat="36.449171" lon="-5.088292">
        <ele>20.976</ele>
        <time>2021-06-16T21:15:33Z</time>
      </trkpt>
      <trkpt lat="36.449073" lon="-5.088482">
        <ele>20.613</ele>
        <time>2021-06-16T21:15:34Z</time>
      </trkpt>
      <trkpt lat="36.44897" lon="-5.088669">
        <ele>20.508</ele>
        <time>2021-06-16T21:15:35Z</time>
      </trkpt>
      <trkpt lat="36.448766" lon="-5.089045">
        <ele>20.188</ele>
        <time>2021-06-16T21:15:37Z</time>
      </trkpt>
      <trkpt lat="36.448577" lon="-5.089436">
        <ele>19.797</ele>
        <time>2021-06-16T21:15:39Z</time>
      </trkpt>
      <trkpt lat="36.448485" lon="-5.089635">
        <ele>19.261</ele>
        <time>2021-06-16T21:15:40Z</time>
      </trkpt>
      <trkpt lat="36.44839" lon="-5.089834">
        <ele>19.051</ele>
        <time>2021-06-16T21:15:41Z</time>
      </trkpt>
      <trkpt lat="36.448191" lon="-5.090231">
        <ele>18.147</ele>
        <time>2021-06-16T21:15:43Z</time>
      </trkpt>
      <trkpt lat="36.448084" lon="-5.090427">
        <ele>17.929</ele>
        <time>2021-06-16T21:15:44Z</time>
      </trkpt>
      <trkpt lat="36.447867" lon="-5.090815">
        <ele>17.798</ele>
        <time>2021-06-16T21:15:46Z</time>
      </trkpt>
      <trkpt lat="36.44766" lon="-5.091212">
        <ele>17.612</ele>
        <time>2021-06-16T21:15:48Z</time>
      </trkpt>
      <trkpt lat="36.447462" lon="-5.091615">
        <ele>17.557</ele>
        <time>2021-06-16T21:15:50Z</time>
      </trkpt>
      <trkpt lat="36.447367" lon="-5.091823">
        <ele>17.800</ele>
        <time>2021-06-16T21:15:51Z</time>
      </trkpt>
      <trkpt lat="36.447274" lon="-5.092028">
        <ele>18.120</ele>
        <time>2021-06-16T21:15:52Z</time>
      </trkpt>
      <trkpt lat="36.44709" lon="-5.092427">
        <ele>19.108</ele>
        <time>2021-06-16T21:15:54Z</time>
      </trkpt>
      <trkpt lat="36.446894" lon="-5.092804">
        <ele>19.972</ele>
        <time>2021-06-16T21:15:56Z</time>
      </trkpt>
      <trkpt lat="36.446796" lon="-5.092993">
        <ele>20.791</ele>
        <time>2021-06-16T21:15:57Z</time>
      </trkpt>
      <trkpt lat="36.446699" lon="-5.093182">
        <ele>21.345</ele>
        <time>2021-06-16T21:15:58Z</time>
      </trkpt>
      <trkpt lat="36.446605" lon="-5.093372">
        <ele>21.745</ele>
        <time>2021-06-16T21:15:59Z</time>
      </trkpt>
      <trkpt lat="36.446419" lon="-5.093747">
        <ele>22.461</ele>
        <time>2021-06-16T21:16:01Z</time>
      </trkpt>
      <trkpt lat="36.44623" lon="-5.094125">
        <ele>22.893</ele>
        <time>2021-06-16T21:16:03Z</time>
      </trkpt>
      <trkpt lat="36.446131" lon="-5.094322">
        <ele>22.612</ele>
        <time>2021-06-16T21:16:04Z</time>
      </trkpt>
      <trkpt lat="36.445931" lon="-5.094713">
        <ele>22.156</ele>
        <time>2021-06-16T21:16:06Z</time>
      </trkpt>
      <trkpt lat="36.445727" lon="-5.095105">
        <ele>21.677</ele>
        <time>2021-06-16T21:16:08Z</time>
      </trkpt>
      <trkpt lat="36.445621" lon="-5.0953">
        <ele>21.161</ele>
        <time>2021-06-16T21:16:09Z</time>
      </trkpt>
      <trkpt lat="36.445403" lon="-5.09569">
        <ele>20.027</ele>
        <time>2021-06-16T21:16:11Z</time>
      </trkpt>
      <trkpt lat="36.445294" lon="-5.095884">
        <ele>19.008</ele>
        <time>2021-06-16T21:16:12Z</time>
      </trkpt>
      <trkpt lat="36.445082" lon="-5.096267">
        <ele>18.484</ele>
        <time>2021-06-16T21:16:14Z</time>
      </trkpt>
      <trkpt lat="36.444974" lon="-5.096462">
        <ele>18.053</ele>
        <time>2021-06-16T21:16:15Z</time>
      </trkpt>
      <trkpt lat="36.444761" lon="-5.096844">
        <ele>17.887</ele>
        <time>2021-06-16T21:16:17Z</time>
      </trkpt>
      <trkpt lat="36.444545" lon="-5.097223">
        <ele>18.057</ele>
        <time>2021-06-16T21:16:19Z</time>
      </trkpt>
      <trkpt lat="36.444331" lon="-5.097587">
        <ele>18.063</ele>
        <time>2021-06-16T21:16:21Z</time>
      </trkpt>
      <trkpt lat="36.444223" lon="-5.097764">
        <ele>17.945</ele>
        <time>2021-06-16T21:16:22Z</time>
      </trkpt>
      <trkpt lat="36.444002" lon="-5.098108">
        <ele>18.374</ele>
        <time>2021-06-16T21:16:24Z</time>
      </trkpt>
      <trkpt lat="36.443768" lon="-5.098427">
        <ele>18.868</ele>
        <time>2021-06-16T21:16:26Z</time>
      </trkpt>
      <trkpt lat="36.443498" lon="-5.098698">
        <ele>19.679</ele>
        <time>2021-06-16T21:16:28Z</time>
      </trkpt>
      <trkpt lat="36.443355" lon="-5.098818">
        <ele>20.505</ele>
        <time>2021-06-16T21:16:29Z</time>
      </trkpt>
      <trkpt lat="36.443057" lon="-5.099026">
        <ele>21.425</ele>
        <time>2021-06-16T21:16:31Z</time>
      </trkpt>
      <trkpt lat="36.442904" lon="-5.099122">
        <ele>21.908</ele>
        <time>2021-06-16T21:16:32Z</time>
      </trkpt>
      <trkpt lat="36.442749" lon="-5.099214">
        <ele>22.334</ele>
        <time>2021-06-16T21:16:33Z</time>
      </trkpt>
      <trkpt lat="36.442434" lon="-5.099398">
        <ele>22.953</ele>
        <time>2021-06-16T21:16:35Z</time>
      </trkpt>
      <trkpt lat="36.442278" lon="-5.099497">
        <ele>23.497</ele>
        <time>2021-06-16T21:16:36Z</time>
      </trkpt>
      <trkpt lat="36.442125" lon="-5.099604">
        <ele>23.777</ele>
        <time>2021-06-16T21:16:37Z</time>
      </trkpt>
      <trkpt lat="36.441823" lon="-5.099847">
        <ele>23.723</ele>
        <time>2021-06-16T21:16:39Z</time>
      </trkpt>
      <trkpt lat="36.441681" lon="-5.099993">
        <ele>23.455</ele>
        <time>2021-06-16T21:16:40Z</time>
      </trkpt>
      <trkpt lat="36.441408" lon="-5.100307">
        <ele>23.074</ele>
        <time>2021-06-16T21:16:42Z</time>
      </trkpt>
      <trkpt lat="36.441281" lon="-5.100479">
        <ele>23.228</ele>
        <time>2021-06-16T21:16:43Z</time>
      </trkpt>
      <trkpt lat="36.441045" lon="-5.100841">
        <ele>22.187</ele>
        <time>2021-06-16T21:16:45Z</time>
      </trkpt>
      <trkpt lat="36.440926" lon="-5.101028">
        <ele>21.242</ele>
        <time>2021-06-16T21:16:46Z</time>
      </trkpt>
      <trkpt lat="36.440813" lon="-5.101219">
        <ele>21.026</ele>
        <time>2021-06-16T21:16:47Z</time>
      </trkpt>
      <trkpt lat="36.440593" lon="-5.101599">
        <ele>21.108</ele>
        <time>2021-06-16T21:16:49Z</time>
      </trkpt>
      <trkpt lat="36.440482" lon="-5.101787">
        <ele>20.665</ele>
        <time>2021-06-16T21:16:50Z</time>
      </trkpt>
      <trkpt lat="36.440373" lon="-5.101971">
        <ele>20.414</ele>
        <time>2021-06-16T21:16:51Z</time>
      </trkpt>
      <trkpt lat="36.440265" lon="-5.102156">
        <ele>19.758</ele>
        <time>2021-06-16T21:16:52Z</time>
      </trkpt>
      <trkpt lat="36.440047" lon="-5.102526">
        <ele>19.428</ele>
        <time>2021-06-16T21:16:54Z</time>
      </trkpt>
      <trkpt lat="36.439934" lon="-5.102714">
        <ele>19.254</ele>
        <time>2021-06-16T21:16:55Z</time>
      </trkpt>
      <trkpt lat="36.43982" lon="-5.102901">
        <ele>18.786</ele>
        <time>2021-06-16T21:16:56Z</time>
      </trkpt>
      <trkpt lat="36.439707" lon="-5.10309">
        <ele>18.765</ele>
        <time>2021-06-16T21:16:57Z</time>
      </trkpt>
      <trkpt lat="36.439597" lon="-5.103278">
        <ele>18.669</ele>
        <time>2021-06-16T21:16:58Z</time>
      </trkpt>
      <trkpt lat="36.439377" lon="-5.10365">
        <ele>19.165</ele>
        <time>2021-06-16T21:17:00Z</time>
      </trkpt>
      <trkpt lat="36.439264" lon="-5.103833">
        <ele>19.368</ele>
        <time>2021-06-16T21:17:01Z</time>
      </trkpt>
      <trkpt lat="36.439151" lon="-5.104017">
        <ele>19.214</ele>
        <time>2021-06-16T21:17:02Z</time>
      </trkpt>
      <trkpt lat="36.438925" lon="-5.104384">
        <ele>18.808</ele>
        <time>2021-06-16T21:17:04Z</time>
      </trkpt>
      <trkpt lat="36.438812" lon="-5.104567">
        <ele>18.013</ele>
        <time>2021-06-16T21:17:05Z</time>
      </trkpt>
      <trkpt lat="36.4387" lon="-5.104753">
        <ele>17.622</ele>
        <time>2021-06-16T21:17:06Z</time>
      </trkpt>
      <trkpt lat="36.43859" lon="-5.104941">
        <ele>17.026</ele>
        <time>2021-06-16T21:17:07Z</time>
      </trkpt>
      <trkpt lat="36.438371" lon="-5.105323">
        <ele>17.096</ele>
        <time>2021-06-16T21:17:09Z</time>
      </trkpt>
      <trkpt lat="36.43815" lon="-5.105697">
        <ele>16.972</ele>
        <time>2021-06-16T21:17:11Z</time>
      </trkpt>
      <trkpt lat="36.438037" lon="-5.105884">
        <ele>17.074</ele>
        <time>2021-06-16T21:17:12Z</time>
      </trkpt>
      <trkpt lat="36.437817" lon="-5.106249">
        <ele>17.573</ele>
        <time>2021-06-16T21:17:14Z</time>
      </trkpt>
      <trkpt lat="36.437603" lon="-5.106617">
        <ele>17.517</ele>
        <time>2021-06-16T21:17:16Z</time>
      </trkpt>
      <trkpt lat="36.437496" lon="-5.106803">
        <ele>17.674</ele>
        <time>2021-06-16T21:17:17Z</time>
      </trkpt>
      <trkpt lat="36.437386" lon="-5.106985">
        <ele>17.756</ele>
        <time>2021-06-16T21:17:18Z</time>
      </trkpt>
      <trkpt lat="36.437163" lon="-5.107358">
        <ele>17.421</ele>
        <time>2021-06-16T21:17:20Z</time>
      </trkpt>
      <trkpt lat="36.436955" lon="-5.107741">
        <ele>17.208</ele>
        <time>2021-06-16T21:17:22Z</time>
      </trkpt>
      <trkpt lat="36.436775" lon="-5.108148">
        <ele>18.164</ele>
        <time>2021-06-16T21:17:24Z</time>
      </trkpt>
      <trkpt lat="36.436606" lon="-5.108553">
        <ele>18.863</ele>
        <time>2021-06-16T21:17:26Z</time>
      </trkpt>
      <trkpt lat="36.436527" lon="-5.10876">
        <ele>19.917</ele>
        <time>2021-06-16T21:17:27Z</time>
      </trkpt>
      <trkpt lat="36.43637" lon="-5.109169">
        <ele>20.877</ele>
        <time>2021-06-16T21:17:29Z</time>
      </trkpt>
      <trkpt lat="36.436211" lon="-5.109577">
        <ele>21.773</ele>
        <time>2021-06-16T21:17:31Z</time>
      </trkpt>
      <trkpt lat="36.436045" lon="-5.109992">
        <ele>22.585</ele>
        <time>2021-06-16T21:17:33Z</time>
      </trkpt>
      <trkpt lat="36.435881" lon="-5.110404">
        <ele>22.964</ele>
        <time>2021-06-16T21:17:35Z</time>
      </trkpt>
      <trkpt lat="36.435717" lon="-5.110822">
        <ele>23.378</ele>
        <time>2021-06-16T21:17:37Z</time>
      </trkpt>
      <trkpt lat="36.435634" lon="-5.111033">
        <ele>23.652</ele>
        <time>2021-06-16T21:17:38Z</time>
      </trkpt>
      <trkpt lat="36.435553" lon="-5.111248">
        <ele>23.953</ele>
        <time>2021-06-16T21:17:39Z</time>
      </trkpt>
      <trkpt lat="36.435383" lon="-5.111679">
        <ele>24.308</ele>
        <time>2021-06-16T21:17:41Z</time>
      </trkpt>
      <trkpt lat="36.435218" lon="-5.11211">
        <ele>24.708</ele>
        <time>2021-06-16T21:17:43Z</time>
      </trkpt>
      <trkpt lat="36.435134" lon="-5.112324">
        <ele>24.482</ele>
        <time>2021-06-16T21:17:44Z</time>
      </trkpt>
      <trkpt lat="36.434966" lon="-5.112749">
        <ele>24.321</ele>
        <time>2021-06-16T21:17:46Z</time>
      </trkpt>
      <trkpt lat="36.434882" lon="-5.112959">
        <ele>24.025</ele>
        <time>2021-06-16T21:17:47Z</time>
      </trkpt>
      <trkpt lat="36.434714" lon="-5.113381">
        <ele>23.755</ele>
        <time>2021-06-16T21:17:49Z</time>
      </trkpt>
      <trkpt lat="36.434549" lon="-5.113813">
        <ele>22.961</ele>
        <time>2021-06-16T21:17:51Z</time>
      </trkpt>
      <trkpt lat="36.434385" lon="-5.114238">
        <ele>22.423</ele>
        <time>2021-06-16T21:17:53Z</time>
      </trkpt>
      <trkpt lat="36.43422" lon="-5.114661">
        <ele>21.992</ele>
        <time>2021-06-16T21:17:55Z</time>
      </trkpt>
      <trkpt lat="36.434057" lon="-5.115089">
        <ele>22.236</ele>
        <time>2021-06-16T21:17:57Z</time>
      </trkpt>
      <trkpt lat="36.433891" lon="-5.115511">
        <ele>22.755</ele>
        <time>2021-06-16T21:17:59Z</time>
      </trkpt>
      <trkpt lat="36.433809" lon="-5.11572">
        <ele>23.207</ele>
        <time>2021-06-16T21:18:00Z</time>
      </trkpt>
      <trkpt lat="36.433646" lon="-5.116129">
        <ele>23.817</ele>
        <time>2021-06-16T21:18:02Z</time>
      </trkpt>
      <trkpt lat="36.433567" lon="-5.116331">
        <ele>23.908</ele>
        <time>2021-06-16T21:18:03Z</time>
      </trkpt>
      <trkpt lat="36.433411" lon="-5.116732">
        <ele>24.032</ele>
        <time>2021-06-16T21:18:05Z</time>
      </trkpt>
      <trkpt lat="36.433255" lon="-5.117135">
        <ele>24.721</ele>
        <time>2021-06-16T21:18:07Z</time>
      </trkpt>
      <trkpt lat="36.433099" lon="-5.117533">
        <ele>24.975</ele>
        <time>2021-06-16T21:18:09Z</time>
      </trkpt>
      <trkpt lat="36.432951" lon="-5.117933">
        <ele>25.195</ele>
        <time>2021-06-16T21:18:11Z</time>
      </trkpt>
      <trkpt lat="36.432881" lon="-5.118138">
        <ele>25.381</ele>
        <time>2021-06-16T21:18:12Z</time>
      </trkpt>
      <trkpt lat="36.432811" lon="-5.118344">
        <ele>25.663</ele>
        <time>2021-06-16T21:18:13Z</time>
      </trkpt>
      <trkpt lat="36.43275" lon="-5.118555">
        <ele>25.922</ele>
        <time>2021-06-16T21:18:14Z</time>
      </trkpt>
      <trkpt lat="36.432654" lon="-5.118991">
        <ele>26.776</ele>
        <time>2021-06-16T21:18:16Z</time>
      </trkpt>
      <trkpt lat="36.432612" lon="-5.119214">
        <ele>27.134</ele>
        <time>2021-06-16T21:18:17Z</time>
      </trkpt>
      <trkpt lat="36.432543" lon="-5.119668">
        <ele>27.755</ele>
        <time>2021-06-16T21:18:19Z</time>
      </trkpt>
      <trkpt lat="36.432522" lon="-5.1199">
        <ele>28.110</ele>
        <time>2021-06-16T21:18:20Z</time>
      </trkpt>
      <trkpt lat="36.432498" lon="-5.120368">
        <ele>28.308</ele>
        <time>2021-06-16T21:18:22Z</time>
      </trkpt>
      <trkpt lat="36.43249" lon="-5.120839">
        <ele>28.980</ele>
        <time>2021-06-16T21:18:24Z</time>
      </trkpt>
      <trkpt lat="36.432494" lon="-5.121076">
        <ele>29.369</ele>
        <time>2021-06-16T21:18:25Z</time>
      </trkpt>
      <trkpt lat="36.432526" lon="-5.121535">
        <ele>29.993</ele>
        <time>2021-06-16T21:18:27Z</time>
      </trkpt>
      <trkpt lat="36.432585" lon="-5.121987">
        <ele>30.413</ele>
        <time>2021-06-16T21:18:29Z</time>
      </trkpt>
      <trkpt lat="36.432667" lon="-5.122437">
        <ele>30.669</ele>
        <time>2021-06-16T21:18:31Z</time>
      </trkpt>
      <trkpt lat="36.432718" lon="-5.122662">
        <ele>30.921</ele>
        <time>2021-06-16T21:18:32Z</time>
      </trkpt>
      <trkpt lat="36.432832" lon="-5.12311">
        <ele>31.450</ele>
        <time>2021-06-16T21:18:34Z</time>
      </trkpt>
      <trkpt lat="36.43297" lon="-5.123553">
        <ele>32.174</ele>
        <time>2021-06-16T21:18:36Z</time>
      </trkpt>
      <trkpt lat="36.43313" lon="-5.123972">
        <ele>32.734</ele>
        <time>2021-06-16T21:18:38Z</time>
      </trkpt>
      <trkpt lat="36.433316" lon="-5.124374">
        <ele>32.655</ele>
        <time>2021-06-16T21:18:40Z</time>
      </trkpt>
      <trkpt lat="36.433415" lon="-5.12457">
        <ele>32.710</ele>
        <time>2021-06-16T21:18:41Z</time>
      </trkpt>
      <trkpt lat="36.433518" lon="-5.124762">
        <ele>32.808</ele>
        <time>2021-06-16T21:18:42Z</time>
      </trkpt>
      <trkpt lat="36.433738" lon="-5.125141">
        <ele>33.020</ele>
        <time>2021-06-16T21:18:44Z</time>
      </trkpt>
      <trkpt lat="36.433964" lon="-5.125526">
        <ele>32.949</ele>
        <time>2021-06-16T21:18:46Z</time>
      </trkpt>
      <trkpt lat="36.434081" lon="-5.125719">
        <ele>33.143</ele>
        <time>2021-06-16T21:18:47Z</time>
      </trkpt>
      <trkpt lat="36.43431" lon="-5.126106">
        <ele>33.463</ele>
        <time>2021-06-16T21:18:49Z</time>
      </trkpt>
      <trkpt lat="36.434425" lon="-5.126304">
        <ele>33.719</ele>
        <time>2021-06-16T21:18:50Z</time>
      </trkpt>
      <trkpt lat="36.434651" lon="-5.126687">
        <ele>34.341</ele>
        <time>2021-06-16T21:18:52Z</time>
      </trkpt>
      <trkpt lat="36.434767" lon="-5.12688">
        <ele>34.820</ele>
        <time>2021-06-16T21:18:53Z</time>
      </trkpt>
      <trkpt lat="36.435005" lon="-5.127257">
        <ele>35.274</ele>
        <time>2021-06-16T21:18:55Z</time>
      </trkpt>
      <trkpt lat="36.435245" lon="-5.127637">
        <ele>35.596</ele>
        <time>2021-06-16T21:18:57Z</time>
      </trkpt>
      <trkpt lat="36.43547" lon="-5.128017">
        <ele>36.131</ele>
        <time>2021-06-16T21:18:59Z</time>
      </trkpt>
      <trkpt lat="36.435575" lon="-5.128216">
        <ele>36.324</ele>
        <time>2021-06-16T21:19:00Z</time>
      </trkpt>
      <trkpt lat="36.435677" lon="-5.128413">
        <ele>36.708</ele>
        <time>2021-06-16T21:19:01Z</time>
      </trkpt>
      <trkpt lat="36.435867" lon="-5.128815">
        <ele>36.436</ele>
        <time>2021-06-16T21:19:03Z</time>
      </trkpt>
      <trkpt lat="36.436045" lon="-5.129222">
        <ele>36.765</ele>
        <time>2021-06-16T21:19:05Z</time>
      </trkpt>
      <trkpt lat="36.436213" lon="-5.129633">
        <ele>37.459</ele>
        <time>2021-06-16T21:19:07Z</time>
      </trkpt>
      <trkpt lat="36.436292" lon="-5.129845">
        <ele>38.259</ele>
        <time>2021-06-16T21:19:08Z</time>
      </trkpt>
      <trkpt lat="36.436443" lon="-5.130283">
        <ele>39.185</ele>
        <time>2021-06-16T21:19:10Z</time>
      </trkpt>
      <trkpt lat="36.436514" lon="-5.130508">
        <ele>39.897</ele>
        <time>2021-06-16T21:19:11Z</time>
      </trkpt>
      <trkpt lat="36.436578" lon="-5.130736">
        <ele>40.616</ele>
        <time>2021-06-16T21:19:12Z</time>
      </trkpt>
      <trkpt lat="36.43668" lon="-5.131206">
        <ele>40.880</ele>
        <time>2021-06-16T21:19:14Z</time>
      </trkpt>
      <trkpt lat="36.436727" lon="-5.131443">
        <ele>40.886</ele>
        <time>2021-06-16T21:19:15Z</time>
      </trkpt>
      <trkpt lat="36.4368" lon="-5.131924">
        <ele>40.560</ele>
        <time>2021-06-16T21:19:17Z</time>
      </trkpt>
      <trkpt lat="36.436861" lon="-5.132392">
        <ele>40.426</ele>
        <time>2021-06-16T21:19:19Z</time>
      </trkpt>
      <trkpt lat="36.436884" lon="-5.132618">
        <ele>40.308</ele>
        <time>2021-06-16T21:19:20Z</time>
      </trkpt>
      <trkpt lat="36.436943" lon="-5.133061">
        <ele>40.185</ele>
        <time>2021-06-16T21:19:22Z</time>
      </trkpt>
      <trkpt lat="36.437007" lon="-5.13351">
        <ele>39.254</ele>
        <time>2021-06-16T21:19:24Z</time>
      </trkpt>
      <trkpt lat="36.437038" lon="-5.133738">
        <ele>38.258</ele>
        <time>2021-06-16T21:19:25Z</time>
      </trkpt>
      <trkpt lat="36.437072" lon="-5.133969">
        <ele>37.288</ele>
        <time>2021-06-16T21:19:26Z</time>
      </trkpt>
      <trkpt lat="36.437137" lon="-5.134446">
        <ele>35.924</ele>
        <time>2021-06-16T21:19:28Z</time>
      </trkpt>
      <trkpt lat="36.437167" lon="-5.134696">
        <ele>34.926</ele>
        <time>2021-06-16T21:19:29Z</time>
      </trkpt>
      <trkpt lat="36.437202" lon="-5.134945">
        <ele>33.985</ele>
        <time>2021-06-16T21:19:30Z</time>
      </trkpt>
      <trkpt lat="36.437236" lon="-5.135193">
        <ele>33.139</ele>
        <time>2021-06-16T21:19:31Z</time>
      </trkpt>
      <trkpt lat="36.437297" lon="-5.135687">
        <ele>32.711</ele>
        <time>2021-06-16T21:19:33Z</time>
      </trkpt>
      <trkpt lat="36.437318" lon="-5.135934">
        <ele>32.221</ele>
        <time>2021-06-16T21:19:34Z</time>
      </trkpt>
      <trkpt lat="36.437325" lon="-5.136451">
        <ele>31.903</ele>
        <time>2021-06-16T21:19:36Z</time>
      </trkpt>
      <trkpt lat="36.437319" lon="-5.136719">
        <ele>32.108</ele>
        <time>2021-06-16T21:19:37Z</time>
      </trkpt>
      <trkpt lat="36.437283" lon="-5.137229">
        <ele>32.138</ele>
        <time>2021-06-16T21:19:39Z</time>
      </trkpt>
      <trkpt lat="36.437247" lon="-5.137475">
        <ele>32.337</ele>
        <time>2021-06-16T21:19:40Z</time>
      </trkpt>
      <trkpt lat="36.437139" lon="-5.137944">
        <ele>32.931</ele>
        <time>2021-06-16T21:19:42Z</time>
      </trkpt>
      <trkpt lat="36.436999" lon="-5.138386">
        <ele>33.751</ele>
        <time>2021-06-16T21:19:44Z</time>
      </trkpt>
      <trkpt lat="36.436917" lon="-5.138598">
        <ele>34.477</ele>
        <time>2021-06-16T21:19:45Z</time>
      </trkpt>
      <trkpt lat="36.436826" lon="-5.138802">
        <ele>35.479</ele>
        <time>2021-06-16T21:19:46Z</time>
      </trkpt>
      <trkpt lat="36.436637" lon="-5.13919">
        <ele>36.448</ele>
        <time>2021-06-16T21:19:48Z</time>
      </trkpt>
      <trkpt lat="36.436541" lon="-5.139379">
        <ele>37.562</ele>
        <time>2021-06-16T21:19:49Z</time>
      </trkpt>
      <trkpt lat="36.436346" lon="-5.139752">
        <ele>39.059</ele>
        <time>2021-06-16T21:19:51Z</time>
      </trkpt>
      <trkpt lat="36.436157" lon="-5.140127">
        <ele>40.803</ele>
        <time>2021-06-16T21:19:53Z</time>
      </trkpt>
      <trkpt lat="36.435986" lon="-5.140511">
        <ele>42.223</ele>
        <time>2021-06-16T21:19:55Z</time>
      </trkpt>
      <trkpt lat="36.435908" lon="-5.140714">
        <ele>43.508</ele>
        <time>2021-06-16T21:19:56Z</time>
      </trkpt>
      <trkpt lat="36.435779" lon="-5.141131">
        <ele>45.122</ele>
        <time>2021-06-16T21:19:58Z</time>
      </trkpt>
      <trkpt lat="36.435728" lon="-5.141346">
        <ele>46.381</ele>
        <time>2021-06-16T21:19:59Z</time>
      </trkpt>
      <trkpt lat="36.435639" lon="-5.14178">
        <ele>47.085</ele>
        <time>2021-06-16T21:20:01Z</time>
      </trkpt>
      <trkpt lat="36.435609" lon="-5.142003">
        <ele>47.645</ele>
        <time>2021-06-16T21:20:02Z</time>
      </trkpt>
      <trkpt lat="36.435575" lon="-5.142452">
        <ele>48.381</ele>
        <time>2021-06-16T21:20:04Z</time>
      </trkpt>
      <trkpt lat="36.435572" lon="-5.142679">
        <ele>49.483</ele>
        <time>2021-06-16T21:20:05Z</time>
      </trkpt>
      <trkpt lat="36.435583" lon="-5.143129">
        <ele>50.762</ele>
        <time>2021-06-16T21:20:07Z</time>
      </trkpt>
      <trkpt lat="36.435596" lon="-5.143355">
        <ele>51.626</ele>
        <time>2021-06-16T21:20:08Z</time>
      </trkpt>
      <trkpt lat="36.435629" lon="-5.143809">
        <ele>52.571</ele>
        <time>2021-06-16T21:20:10Z</time>
      </trkpt>
      <trkpt lat="36.435644" lon="-5.144039">
        <ele>53.241</ele>
        <time>2021-06-16T21:20:11Z</time>
      </trkpt>
      <trkpt lat="36.435679" lon="-5.144505">
        <ele>54.415</ele>
        <time>2021-06-16T21:20:13Z</time>
      </trkpt>
      <trkpt lat="36.435713" lon="-5.144976">
        <ele>55.208</ele>
        <time>2021-06-16T21:20:15Z</time>
      </trkpt>
      <trkpt lat="36.435727" lon="-5.145216">
        <ele>55.764</ele>
        <time>2021-06-16T21:20:16Z</time>
      </trkpt>
      <trkpt lat="36.435749" lon="-5.145699">
        <ele>55.993</ele>
        <time>2021-06-16T21:20:18Z</time>
      </trkpt>
      <trkpt lat="36.435767" lon="-5.146184">
        <ele>56.427</ele>
        <time>2021-06-16T21:20:20Z</time>
      </trkpt>
      <trkpt lat="36.435777" lon="-5.146421">
        <ele>56.927</ele>
        <time>2021-06-16T21:20:21Z</time>
      </trkpt>
      <trkpt lat="36.435793" lon="-5.14689">
        <ele>57.573</ele>
        <time>2021-06-16T21:20:23Z</time>
      </trkpt>
      <trkpt lat="36.435807" lon="-5.147354">
        <ele>57.935</ele>
        <time>2021-06-16T21:20:25Z</time>
      </trkpt>
      <trkpt lat="36.435815" lon="-5.147811">
        <ele>58.794</ele>
        <time>2021-06-16T21:20:27Z</time>
      </trkpt>
      <trkpt lat="36.43583" lon="-5.148264">
        <ele>59.588</ele>
        <time>2021-06-16T21:20:29Z</time>
      </trkpt>
      <trkpt lat="36.435836" lon="-5.148498">
        <ele>60.159</ele>
        <time>2021-06-16T21:20:30Z</time>
      </trkpt>
      <trkpt lat="36.435838" lon="-5.14873">
        <ele>60.003</ele>
        <time>2021-06-16T21:20:31Z</time>
      </trkpt>
      <trkpt lat="36.435838" lon="-5.148966">
        <ele>60.023</ele>
        <time>2021-06-16T21:20:32Z</time>
      </trkpt>
      <trkpt lat="36.435831" lon="-5.14941">
        <ele>60.108</ele>
        <time>2021-06-16T21:20:34Z</time>
      </trkpt>
      <trkpt lat="36.43581" lon="-5.149862">
        <ele>60.352</ele>
        <time>2021-06-16T21:20:36Z</time>
      </trkpt>
      <trkpt lat="36.43577" lon="-5.15032">
        <ele>60.251</ele>
        <time>2021-06-16T21:20:38Z</time>
      </trkpt>
      <trkpt lat="36.435717" lon="-5.150766">
        <ele>60.145</ele>
        <time>2021-06-16T21:20:40Z</time>
      </trkpt>
      <trkpt lat="36.435688" lon="-5.151011">
        <ele>60.425</ele>
        <time>2021-06-16T21:20:41Z</time>
      </trkpt>
      <trkpt lat="36.435628" lon="-5.15142">
        <ele>59.671</ele>
        <time>2021-06-16T21:20:43Z</time>
      </trkpt>
      <trkpt lat="36.435552" lon="-5.151899">
        <ele>59.173</ele>
        <time>2021-06-16T21:20:45Z</time>
      </trkpt>
      <trkpt lat="36.435476" lon="-5.152309">
        <ele>58.512</ele>
        <time>2021-06-16T21:20:47Z</time>
      </trkpt>
      <trkpt lat="36.435383" lon="-5.152756">
        <ele>57.956</ele>
        <time>2021-06-16T21:20:49Z</time>
      </trkpt>
      <trkpt lat="36.435285" lon="-5.153182">
        <ele>57.183</ele>
        <time>2021-06-16T21:20:51Z</time>
      </trkpt>
      <trkpt lat="36.435184" lon="-5.153616">
        <ele>56.625</ele>
        <time>2021-06-16T21:20:53Z</time>
      </trkpt>
      <trkpt lat="36.435122" lon="-5.153856">
        <ele>56.517</ele>
        <time>2021-06-16T21:20:54Z</time>
      </trkpt>
      <trkpt lat="36.435012" lon="-5.154246">
        <ele>56.108</ele>
        <time>2021-06-16T21:20:56Z</time>
      </trkpt>
      <trkpt lat="36.434893" lon="-5.154703">
        <ele>55.945</ele>
        <time>2021-06-16T21:20:58Z</time>
      </trkpt>
      <trkpt lat="36.434788" lon="-5.155099">
        <ele>55.684</ele>
        <time>2021-06-16T21:21:00Z</time>
      </trkpt>
      <trkpt lat="36.434681" lon="-5.155543">
        <ele>55.548</ele>
        <time>2021-06-16T21:21:02Z</time>
      </trkpt>
      <trkpt lat="36.43457" lon="-5.155979">
        <ele>55.358</ele>
        <time>2021-06-16T21:21:04Z</time>
      </trkpt>
      <trkpt lat="36.434513" lon="-5.156195">
        <ele>55.034</ele>
        <time>2021-06-16T21:21:05Z</time>
      </trkpt>
      <trkpt lat="36.434398" lon="-5.156643">
        <ele>54.616</ele>
        <time>2021-06-16T21:21:07Z</time>
      </trkpt>
      <trkpt lat="36.434304" lon="-5.157016">
        <ele>53.915</ele>
        <time>2021-06-16T21:21:09Z</time>
      </trkpt>
      <trkpt lat="36.434198" lon="-5.157437">
        <ele>53.749</ele>
        <time>2021-06-16T21:21:11Z</time>
      </trkpt>
      <trkpt lat="36.434117" lon="-5.157787">
        <ele>53.046</ele>
        <time>2021-06-16T21:21:13Z</time>
      </trkpt>
      <trkpt lat="36.434028" lon="-5.15818">
        <ele>52.288</ele>
        <time>2021-06-16T21:21:15Z</time>
      </trkpt>
      <trkpt lat="36.433951" lon="-5.158506">
        <ele>51.516</ele>
        <time>2021-06-16T21:21:17Z</time>
      </trkpt>
      <trkpt lat="36.433908" lon="-5.158686">
        <ele>51.208</ele>
        <time>2021-06-16T21:21:18Z</time>
      </trkpt>
      <trkpt lat="36.433822" lon="-5.159061">
        <ele>50.281</ele>
        <time>2021-06-16T21:21:20Z</time>
      </trkpt>
      <trkpt lat="36.433747" lon="-5.159361">
        <ele>49.470</ele>
        <time>2021-06-16T21:21:22Z</time>
      </trkpt>
      <trkpt lat="36.433665" lon="-5.159707">
        <ele>48.934</ele>
        <time>2021-06-16T21:21:24Z</time>
      </trkpt>
      <trkpt lat="36.433626" lon="-5.160013">
        <ele>48.784</ele>
        <time>2021-06-16T21:21:26Z</time>
      </trkpt>
      <trkpt lat="36.433631" lon="-5.160184">
        <ele>48.810</ele>
        <time>2021-06-16T21:21:27Z</time>
      </trkpt>
      <trkpt lat="36.433698" lon="-5.160494">
        <ele>49.572</ele>
        <time>2021-06-16T21:21:29Z</time>
      </trkpt>
      <trkpt lat="36.433743" lon="-5.160631">
        <ele>49.891</ele>
        <time>2021-06-16T21:21:30Z</time>
      </trkpt>
      <trkpt lat="36.433859" lon="-5.160836">
        <ele>50.825</ele>
        <time>2021-06-16T21:21:32Z</time>
      </trkpt>
      <trkpt lat="36.433985" lon="-5.160982">
        <ele>51.853</ele>
        <time>2021-06-16T21:21:34Z</time>
      </trkpt>
      <trkpt lat="36.434039" lon="-5.161028">
        <ele>52.604</ele>
        <time>2021-06-16T21:21:35Z</time>
      </trkpt>
      <trkpt lat="36.434086" lon="-5.161057">
        <ele>53.114</ele>
        <time>2021-06-16T21:21:36Z</time>
      </trkpt>
      <trkpt lat="36.434173" lon="-5.16112">
        <ele>53.708</ele>
        <time>2021-06-16T21:21:38Z</time>
      </trkpt>
      <trkpt lat="36.434273" lon="-5.161236">
        <ele>54.352</ele>
        <time>2021-06-16T21:21:40Z</time>
      </trkpt>
      <trkpt lat="36.434315" lon="-5.161337">
        <ele>54.821</ele>
        <time>2021-06-16T21:21:41Z</time>
      </trkpt>
      <trkpt lat="36.434299" lon="-5.161527">
        <ele>55.135</ele>
        <time>2021-06-16T21:21:43Z</time>
      </trkpt>
      <trkpt lat="36.434196" lon="-5.161689">
        <ele>55.065</ele>
        <time>2021-06-16T21:21:45Z</time>
      </trkpt>
      <trkpt lat="36.434112" lon="-5.161735">
        <ele>54.721</ele>
        <time>2021-06-16T21:21:46Z</time>
      </trkpt>
      <trkpt lat="36.433963" lon="-5.161699">
        <ele>54.383</ele>
        <time>2021-06-16T21:21:48Z</time>
      </trkpt>
      <trkpt lat="36.433812" lon="-5.161555">
        <ele>53.772</ele>
        <time>2021-06-16T21:21:50Z</time>
      </trkpt>
      <trkpt lat="36.43368" lon="-5.161434">
        <ele>53.496</ele>
        <time>2021-06-16T21:21:52Z</time>
      </trkpt>
      <trkpt lat="36.433503" lon="-5.161398">
        <ele>52.821</ele>
        <time>2021-06-16T21:21:54Z</time>
      </trkpt>
      <trkpt lat="36.433396" lon="-5.161401">
        <ele>52.641</ele>
        <time>2021-06-16T21:21:55Z</time>
      </trkpt>
      <trkpt lat="36.433223" lon="-5.16141">
        <ele>52.205</ele>
        <time>2021-06-16T21:21:57Z</time>
      </trkpt>
      <trkpt lat="36.43303" lon="-5.161416">
        <ele>51.908</ele>
        <time>2021-06-16T21:21:59Z</time>
      </trkpt>
      <trkpt lat="36.432869" lon="-5.16142">
        <ele>51.539</ele>
        <time>2021-06-16T21:22:01Z</time>
      </trkpt>
      <trkpt lat="36.432776" lon="-5.161425">
        <ele>50.968</ele>
        <time>2021-06-16T21:22:02Z</time>
      </trkpt>
      <trkpt lat="36.432671" lon="-5.16143">
        <ele>50.312</ele>
        <time>2021-06-16T21:22:03Z</time>
      </trkpt>
      <trkpt lat="36.432488" lon="-5.161434">
        <ele>49.512</ele>
        <time>2021-06-16T21:22:05Z</time>
      </trkpt>
      <trkpt lat="36.43238" lon="-5.161427">
        <ele>48.638</ele>
        <time>2021-06-16T21:22:06Z</time>
      </trkpt>
      <trkpt lat="36.432141" lon="-5.161389">
        <ele>47.280</ele>
        <time>2021-06-16T21:22:08Z</time>
      </trkpt>
      <trkpt lat="36.431931" lon="-5.161319">
        <ele>45.549</ele>
        <time>2021-06-16T21:22:10Z</time>
      </trkpt>
      <trkpt lat="36.431686" lon="-5.161171">
        <ele>43.753</ele>
        <time>2021-06-16T21:22:12Z</time>
      </trkpt>
      <trkpt lat="36.431489" lon="-5.160994">
        <ele>41.929</ele>
        <time>2021-06-16T21:22:14Z</time>
      </trkpt>
      <trkpt lat="36.431276" lon="-5.16075">
        <ele>40.100</ele>
        <time>2021-06-16T21:22:16Z</time>
      </trkpt>
      <trkpt lat="36.431105" lon="-5.160518">
        <ele>38.320</ele>
        <time>2021-06-16T21:22:18Z</time>
      </trkpt>
      <trkpt lat="36.431019" lon="-5.16039">
        <ele>36.808</ele>
        <time>2021-06-16T21:22:19Z</time>
      </trkpt>
      <trkpt lat="36.43085" lon="-5.160099">
        <ele>35.099</ele>
        <time>2021-06-16T21:22:21Z</time>
      </trkpt>
      <trkpt lat="36.430722" lon="-5.159824">
        <ele>33.718</ele>
        <time>2021-06-16T21:22:23Z</time>
      </trkpt>
      <trkpt lat="36.430595" lon="-5.159479">
        <ele>32.572</ele>
        <time>2021-06-16T21:22:25Z</time>
      </trkpt>
      <trkpt lat="36.430511" lon="-5.159188">
        <ele>31.072</ele>
        <time>2021-06-16T21:22:27Z</time>
      </trkpt>
      <trkpt lat="36.430466" lon="-5.159034">
        <ele>30.048</ele>
        <time>2021-06-16T21:22:28Z</time>
      </trkpt>
      <trkpt lat="36.43042" lon="-5.158887">
        <ele>29.390</ele>
        <time>2021-06-16T21:22:29Z</time>
      </trkpt>
      <trkpt lat="36.430366" lon="-5.158726">
        <ele>28.469</ele>
        <time>2021-06-16T21:22:30Z</time>
      </trkpt>
      <trkpt lat="36.430281" lon="-5.158471">
        <ele>27.933</ele>
        <time>2021-06-16T21:22:32Z</time>
      </trkpt>
      <trkpt lat="36.430236" lon="-5.158339">
        <ele>27.129</ele>
        <time>2021-06-16T21:22:33Z</time>
      </trkpt>
      <trkpt lat="36.430192" lon="-5.158211">
        <ele>26.500</ele>
        <time>2021-06-16T21:22:34Z</time>
      </trkpt>
      <trkpt lat="36.430099" lon="-5.157966">
        <ele>26.320</ele>
        <time>2021-06-16T21:22:36Z</time>
      </trkpt>
      <trkpt lat="36.430043" lon="-5.157849">
        <ele>26.208</ele>
        <time>2021-06-16T21:22:37Z</time>
      </trkpt>
      <trkpt lat="36.429982" lon="-5.157737">
        <ele>25.889</ele>
        <time>2021-06-16T21:22:38Z</time>
      </trkpt>
      <trkpt lat="36.42991" lon="-5.157618">
        <ele>25.478</ele>
        <time>2021-06-16T21:22:39Z</time>
      </trkpt>
      <trkpt lat="36.429787" lon="-5.157425">
        <ele>25.232</ele>
        <time>2021-06-16T21:22:41Z</time>
      </trkpt>
      <trkpt lat="36.429717" lon="-5.157327">
        <ele>24.992</ele>
        <time>2021-06-16T21:22:42Z</time>
      </trkpt>
      <trkpt lat="36.429576" lon="-5.157146">
        <ele>24.718</ele>
        <time>2021-06-16T21:22:44Z</time>
      </trkpt>
      <trkpt lat="36.429503" lon="-5.157066">
        <ele>24.510</ele>
        <time>2021-06-16T21:22:45Z</time>
      </trkpt>
      <trkpt lat="36.429333" lon="-5.15693">
        <ele>24.019</ele>
        <time>2021-06-16T21:22:47Z</time>
      </trkpt>
      <trkpt lat="36.429196" lon="-5.156832">
        <ele>23.613</ele>
        <time>2021-06-16T21:22:49Z</time>
      </trkpt>
      <trkpt lat="36.42913" lon="-5.156783">
        <ele>23.576</ele>
        <time>2021-06-16T21:22:50Z</time>
      </trkpt>
      <trkpt lat="36.429028" lon="-5.156708">
        <ele>23.690</ele>
        <time>2021-06-16T21:22:52Z</time>
      </trkpt>
      <trkpt lat="36.428984" lon="-5.156683">
        <ele>23.119</ele>
        <time>2021-06-16T21:22:54Z</time>
      </trkpt>
      <trkpt lat="36.428923" lon="-5.156644">
        <ele>23.108</ele>
        <time>2021-06-16T21:22:56Z</time>
      </trkpt>
      <trkpt lat="36.428869" lon="-5.156603">
        <ele>22.944</ele>
        <time>2021-06-16T21:22:58Z</time>
      </trkpt>
      <trkpt lat="36.428782" lon="-5.156537">
        <ele>22.413</ele>
        <time>2021-06-16T21:23:00Z</time>
      </trkpt>
      <trkpt lat="36.428718" lon="-5.156493">
        <ele>22.417</ele>
        <time>2021-06-16T21:23:01Z</time>
      </trkpt>
      <trkpt lat="36.428595" lon="-5.156448">
        <ele>23.237</ele>
        <time>2021-06-16T21:23:03Z</time>
      </trkpt>
      <trkpt lat="36.42844" lon="-5.156429">
        <ele>23.423</ele>
        <time>2021-06-16T21:23:05Z</time>
      </trkpt>
      <trkpt lat="36.428369" lon="-5.156414">
        <ele>23.785</ele>
        <time>2021-06-16T21:23:06Z</time>
      </trkpt>
      <trkpt lat="36.428306" lon="-5.15639">
        <ele>23.754</ele>
        <time>2021-06-16T21:23:07Z</time>
      </trkpt>
      <trkpt lat="36.428185" lon="-5.156372">
        <ele>23.868</ele>
        <time>2021-06-16T21:23:09Z</time>
      </trkpt>
      <trkpt lat="36.428102" lon="-5.156452">
        <ele>23.726</ele>
        <time>2021-06-16T21:23:11Z</time>
      </trkpt>
      <trkpt lat="36.428063" lon="-5.156529">
        <ele>23.747</ele>
        <time>2021-06-16T21:23:12Z</time>
      </trkpt>
      <trkpt lat="36.428023" lon="-5.156613">
        <ele>24.011</ele>
        <time>2021-06-16T21:23:13Z</time>
      </trkpt>
      <trkpt lat="36.427913" lon="-5.156781">
        <ele>24.108</ele>
        <time>2021-06-16T21:23:15Z</time>
      </trkpt>
      <trkpt lat="36.427772" lon="-5.156929">
        <ele>24.349</ele>
        <time>2021-06-16T21:23:17Z</time>
      </trkpt>
      <trkpt lat="36.427602" lon="-5.157038">
        <ele>25.168</ele>
        <time>2021-06-16T21:23:19Z</time>
      </trkpt>
      <trkpt lat="36.427401" lon="-5.157108">
        <ele>25.412</ele>
        <time>2021-06-16T21:23:21Z</time>
      </trkpt>
      <trkpt lat="36.427301" lon="-5.157127">
        <ele>26.212</ele>
        <time>2021-06-16T21:23:22Z</time>
      </trkpt>
      <trkpt lat="36.427103" lon="-5.157151">
        <ele>27.138</ele>
        <time>2021-06-16T21:23:24Z</time>
      </trkpt>
      <trkpt lat="36.426894" lon="-5.157154">
        <ele>28.570</ele>
        <time>2021-06-16T21:23:26Z</time>
      </trkpt>
      <trkpt lat="36.426743" lon="-5.157133">
        <ele>29.939</ele>
        <time>2021-06-16T21:23:28Z</time>
      </trkpt>
      <trkpt lat="36.426676" lon="-5.157122">
        <ele>30.543</ele>
        <time>2021-06-16T21:23:29Z</time>
      </trkpt>
      <trkpt lat="36.426604" lon="-5.157115">
        <ele>30.941</ele>
        <time>2021-06-16T21:23:30Z</time>
      </trkpt>
      <trkpt lat="36.426507" lon="-5.157123">
        <ele>31.481</ele>
        <time>2021-06-16T21:23:32Z</time>
      </trkpt>
      <trkpt lat="36.426403" lon="-5.157138">
        <ele>31.609</ele>
        <time>2021-06-16T21:23:34Z</time>
      </trkpt>
      <trkpt lat="36.426308" lon="-5.157083">
        <ele>32.808</ele>
        <time>2021-06-16T21:23:36Z</time>
      </trkpt>
      <trkpt lat="36.426257" lon="-5.157032">
        <ele>33.551</ele>
        <time>2021-06-16T21:23:37Z</time>
      </trkpt>
      <trkpt lat="36.426191" lon="-5.156981">
        <ele>33.990</ele>
        <time>2021-06-16T21:23:38Z</time>
      </trkpt>
      <trkpt lat="36.42605" lon="-5.156954">
        <ele>34.564</ele>
        <time>2021-06-16T21:23:40Z</time>
      </trkpt>
      <trkpt lat="36.425969" lon="-5.156947">
        <ele>35.174</ele>
        <time>2021-06-16T21:23:41Z</time>
      </trkpt>
      <trkpt lat="36.42589" lon="-5.156941">
        <ele>35.790</ele>
        <time>2021-06-16T21:23:42Z</time>
      </trkpt>
      <trkpt lat="36.42581" lon="-5.156937">
        <ele>36.332</ele>
        <time>2021-06-16T21:23:43Z</time>
      </trkpt>
      <trkpt lat="36.425649" lon="-5.156929">
        <ele>36.711</ele>
        <time>2021-06-16T21:23:45Z</time>
      </trkpt>
      <trkpt lat="36.425558" lon="-5.156925">
        <ele>37.075</ele>
        <time>2021-06-16T21:23:46Z</time>
      </trkpt>
      <trkpt lat="36.425456" lon="-5.156923">
        <ele>37.834</ele>
        <time>2021-06-16T21:23:47Z</time>
      </trkpt>
      <trkpt lat="36.425274" lon="-5.156924">
        <ele>38.055</ele>
        <time>2021-06-16T21:23:49Z</time>
      </trkpt>
      <trkpt lat="36.425054" lon="-5.156928">
        <ele>38.110</ele>
        <time>2021-06-16T21:23:51Z</time>
      </trkpt>
      <trkpt lat="36.424895" lon="-5.156922">
        <ele>38.108</ele>
        <time>2021-06-16T21:23:53Z</time>
      </trkpt>
      <trkpt lat="36.424689" lon="-5.156925">
        <ele>38.180</ele>
        <time>2021-06-16T21:23:55Z</time>
      </trkpt>
      <trkpt lat="36.424573" lon="-5.156922">
        <ele>38.839</ele>
        <time>2021-06-16T21:23:56Z</time>
      </trkpt>
      <trkpt lat="36.424383" lon="-5.156914">
        <ele>39.953</ele>
        <time>2021-06-16T21:23:58Z</time>
      </trkpt>
      <trkpt lat="36.424171" lon="-5.156912">
        <ele>40.373</ele>
        <time>2021-06-16T21:24:00Z</time>
      </trkpt>
      <trkpt lat="36.423988" lon="-5.156908">
        <ele>40.849</ele>
        <time>2021-06-16T21:24:02Z</time>
      </trkpt>
      <trkpt lat="36.423787" lon="-5.156914">
        <ele>41.211</ele>
        <time>2021-06-16T21:24:04Z</time>
      </trkpt>
      <trkpt lat="36.42363" lon="-5.156913">
        <ele>41.720</ele>
        <time>2021-06-16T21:24:06Z</time>
      </trkpt>
      <trkpt lat="36.423557" lon="-5.156914">
        <ele>41.784</ele>
        <time>2021-06-16T21:24:07Z</time>
      </trkpt>
      <trkpt lat="36.423435" lon="-5.156952">
        <ele>41.388</ele>
        <time>2021-06-16T21:24:09Z</time>
      </trkpt>
      <trkpt lat="36.423332" lon="-5.157003">
        <ele>40.924</ele>
        <time>2021-06-16T21:24:11Z</time>
      </trkpt>
      <trkpt lat="36.423267" lon="-5.156997">
        <ele>40.726</ele>
        <time>2021-06-16T21:24:12Z</time>
      </trkpt>
      <trkpt lat="36.423193" lon="-5.156972">
        <ele>40.108</ele>
        <time>2021-06-16T21:24:13Z</time>
      </trkpt>
      <trkpt lat="36.423037" lon="-5.15694">
        <ele>39.625</ele>
        <time>2021-06-16T21:24:15Z</time>
      </trkpt>
      <trkpt lat="36.42294" lon="-5.156936">
        <ele>39.414</ele>
        <time>2021-06-16T21:24:16Z</time>
      </trkpt>
      <trkpt lat="36.422847" lon="-5.156938">
        <ele>39.298</ele>
        <time>2021-06-16T21:24:17Z</time>
      </trkpt>
      <trkpt lat="36.422657" lon="-5.156927">
        <ele>39.398</ele>
        <time>2021-06-16T21:24:19Z</time>
      </trkpt>
      <trkpt lat="36.422483" lon="-5.156936">
        <ele>39.694</ele>
        <time>2021-06-16T21:24:21Z</time>
      </trkpt>
      <trkpt lat="36.422347" lon="-5.156939">
        <ele>40.216</ele>
        <time>2021-06-16T21:24:23Z</time>
      </trkpt>
      <trkpt lat="36.422277" lon="-5.156935">
        <ele>40.775</ele>
        <time>2021-06-16T21:24:24Z</time>
      </trkpt>
      <trkpt lat="36.42212" lon="-5.156945">
        <ele>41.799</ele>
        <time>2021-06-16T21:24:26Z</time>
      </trkpt>
      <trkpt lat="36.421949" lon="-5.156946">
        <ele>42.831</ele>
        <time>2021-06-16T21:24:28Z</time>
      </trkpt>
      <trkpt lat="36.42186" lon="-5.156948">
        <ele>43.361</ele>
        <time>2021-06-16T21:24:29Z</time>
      </trkpt>
      <trkpt lat="36.421772" lon="-5.15696">
        <ele>43.807</ele>
        <time>2021-06-16T21:24:30Z</time>
      </trkpt>
      <trkpt lat="36.421587" lon="-5.156993">
        <ele>44.408</ele>
        <time>2021-06-16T21:24:32Z</time>
      </trkpt>
      <trkpt lat="36.421495" lon="-5.157028">
        <ele>45.180</ele>
        <time>2021-06-16T21:24:33Z</time>
      </trkpt>
      <trkpt lat="36.421343" lon="-5.157118">
        <ele>45.479</ele>
        <time>2021-06-16T21:24:35Z</time>
      </trkpt>
      <trkpt lat="36.421264" lon="-5.157168">
        <ele>45.293</ele>
        <time>2021-06-16T21:24:36Z</time>
      </trkpt>
      <trkpt lat="36.421127" lon="-5.15729">
        <ele>45.093</ele>
        <time>2021-06-16T21:24:38Z</time>
      </trkpt>
      <trkpt lat="36.421067" lon="-5.157361">
        <ele>44.589</ele>
        <time>2021-06-16T21:24:39Z</time>
      </trkpt>
      <trkpt lat="36.420936" lon="-5.157506">
        <ele>44.461</ele>
        <time>2021-06-16T21:24:41Z</time>
      </trkpt>
      <trkpt lat="36.420868" lon="-5.157579">
        <ele>44.040</ele>
        <time>2021-06-16T21:24:42Z</time>
      </trkpt>
      <trkpt lat="36.420734" lon="-5.157727">
        <ele>44.324</ele>
        <time>2021-06-16T21:24:44Z</time>
      </trkpt>
      <trkpt lat="36.420664" lon="-5.157804">
        <ele>44.849</ele>
        <time>2021-06-16T21:24:45Z</time>
      </trkpt>
      <trkpt lat="36.420593" lon="-5.157874">
        <ele>44.902</ele>
        <time>2021-06-16T21:24:46Z</time>
      </trkpt>
      <trkpt lat="36.420464" lon="-5.157999">
        <ele>44.822</ele>
        <time>2021-06-16T21:24:48Z</time>
      </trkpt>
      <trkpt lat="36.420315" lon="-5.15808">
        <ele>44.308</ele>
        <time>2021-06-16T21:24:50Z</time>
      </trkpt>
      <trkpt lat="36.420242" lon="-5.158114">
        <ele>43.461</ele>
        <time>2021-06-16T21:24:51Z</time>
      </trkpt>
      <trkpt lat="36.420094" lon="-5.158171">
        <ele>42.210</ele>
        <time>2021-06-16T21:24:53Z</time>
      </trkpt>
      <trkpt lat="36.420022" lon="-5.158192">
        <ele>41.634</ele>
        <time>2021-06-16T21:24:54Z</time>
      </trkpt>
      <trkpt lat="36.419959" lon="-5.158216">
        <ele>40.414</ele>
        <time>2021-06-16T21:24:55Z</time>
      </trkpt>
      <trkpt lat="36.419856" lon="-5.158268">
        <ele>39.620</ele>
        <time>2021-06-16T21:24:57Z</time>
      </trkpt>
      <trkpt lat="36.419809" lon="-5.158299">
        <ele>39.142</ele>
        <time>2021-06-16T21:24:58Z</time>
      </trkpt>
      <trkpt lat="36.419704" lon="-5.158293">
        <ele>38.281</ele>
        <time>2021-06-16T21:25:00Z</time>
      </trkpt>
      <trkpt lat="36.419641" lon="-5.158197">
        <ele>35.815</ele>
        <time>2021-06-16T21:25:02Z</time>
      </trkpt>
      <trkpt lat="36.419648" lon="-5.158141">
        <ele>34.648</ele>
        <time>2021-06-16T21:25:03Z</time>
      </trkpt>
      <trkpt lat="36.419734" lon="-5.158041">
        <ele>33.961</ele>
        <time>2021-06-16T21:25:05Z</time>
      </trkpt>
      <trkpt lat="36.419787" lon="-5.15801">
        <ele>33.417</ele>
        <time>2021-06-16T21:25:06Z</time>
      </trkpt>
      <trkpt lat="36.41988" lon="-5.157921">
        <ele>33.308</ele>
        <time>2021-06-16T21:25:08Z</time>
      </trkpt>
      <trkpt lat="36.419919" lon="-5.157864">
        <ele>33.021</ele>
        <time>2021-06-16T21:25:09Z</time>
      </trkpt>
      <trkpt lat="36.419954" lon="-5.157805">
        <ele>33.330</ele>
        <time>2021-06-16T21:25:10Z</time>
      </trkpt>
      <trkpt lat="36.419988" lon="-5.157743">
        <ele>33.584</ele>
        <time>2021-06-16T21:25:11Z</time>
      </trkpt>
      <trkpt lat="36.420013" lon="-5.157643">
        <ele>34.384</ele>
        <time>2021-06-16T21:25:13Z</time>
      </trkpt>
      <trkpt lat="36.419969" lon="-5.157559">
        <ele>35.040</ele>
        <time>2021-06-16T21:25:15Z</time>
      </trkpt>
      <trkpt lat="36.419936" lon="-5.157505">
        <ele>35.562</ele>
        <time>2021-06-16T21:25:16Z</time>
      </trkpt>
      <trkpt lat="36.419865" lon="-5.157424">
        <ele>35.631</ele>
        <time>2021-06-16T21:25:18Z</time>
      </trkpt>
      <trkpt lat="36.419778" lon="-5.157373">
        <ele>36.055</ele>
        <time>2021-06-16T21:25:20Z</time>
      </trkpt>
      <trkpt lat="36.419723" lon="-5.157402">
        <ele>35.879</ele>
        <time>2021-06-16T21:25:21Z</time>
      </trkpt>
      <trkpt lat="36.419666" lon="-5.157449">
        <ele>35.905</ele>
        <time>2021-06-16T21:25:22Z</time>
      </trkpt>
      <trkpt lat="36.419561" lon="-5.157573">
        <ele>36.125</ele>
        <time>2021-06-16T21:25:24Z</time>
      </trkpt>
      <trkpt lat="36.419515" lon="-5.157639">
        <ele>36.008</ele>
        <time>2021-06-16T21:25:25Z</time>
      </trkpt>
      <trkpt lat="36.419424" lon="-5.157786">
        <ele>36.424</ele>
        <time>2021-06-16T21:25:27Z</time>
      </trkpt>
      <trkpt lat="36.419325" lon="-5.157875">
        <ele>35.883</ele>
        <time>2021-06-16T21:25:29Z</time>
      </trkpt>
      <trkpt lat="36.41924" lon="-5.157914">
        <ele>34.567</ele>
        <time>2021-06-16T21:25:31Z</time>
      </trkpt>
      <trkpt lat="36.419184" lon="-5.157901">
        <ele>33.797</ele>
        <time>2021-06-16T21:25:33Z</time>
      </trkpt>
      <trkpt lat="36.419188" lon="-5.15784">
        <ele>32.423</ele>
        <time>2021-06-16T21:25:35Z</time>
      </trkpt>
      <trkpt lat="36.41922" lon="-5.157782">
        <ele>29.715</ele>
        <time>2021-06-16T21:25:40Z</time>
      </trkpt>
      <trkpt lat="36.41925" lon="-5.157732">
        <ele>27.744</ele>
        <time>2021-06-16T21:25:44Z</time>
      </trkpt>
      <trkpt lat="36.419295" lon="-5.157739">
        <ele>26.288</ele>
        <time>2021-06-16T21:25:50Z</time>
      </trkpt>
      <trkpt lat="36.419279" lon="-5.157684">
        <ele>24.968</ele>
        <time>2021-06-16T21:26:45Z</time>
      </trkpt>
      <trkpt lat="36.419281" lon="-5.157742">
        <ele>24.142</ele>
        <time>2021-06-16T21:27:12Z</time>
      </trkpt>
      <trkpt lat="36.43746" lon="-5.106444">
        <ele>3.884</ele>
        <time>2021-06-17T09:09:34Z</time>
      </trkpt>
      <trkpt lat="36.437595" lon="-5.106214">
        <ele>4.907</ele>
        <time>2021-06-17T09:09:35Z</time>
      </trkpt>
      <trkpt lat="36.437661" lon="-5.1061">
        <ele>4.917</ele>
        <time>2021-06-17T09:09:36Z</time>
      </trkpt>
      <trkpt lat="36.437799" lon="-5.105873">
        <ele>4.908</ele>
        <time>2021-06-17T09:09:38Z</time>
      </trkpt>
      <trkpt lat="36.437874" lon="-5.105755">
        <ele>4.745</ele>
        <time>2021-06-17T09:09:39Z</time>
      </trkpt>
      <trkpt lat="36.438027" lon="-5.105511">
        <ele>4.944</ele>
        <time>2021-06-17T09:09:41Z</time>
      </trkpt>
      <trkpt lat="36.4381" lon="-5.105384">
        <ele>4.768</ele>
        <time>2021-06-17T09:09:42Z</time>
      </trkpt>
      <trkpt lat="36.438258" lon="-5.10513">
        <ele>4.321</ele>
        <time>2021-06-17T09:09:44Z</time>
      </trkpt>
      <trkpt lat="36.43842" lon="-5.104864">
        <ele>3.951</ele>
        <time>2021-06-17T09:09:46Z</time>
      </trkpt>
      <trkpt lat="36.438507" lon="-5.104732">
        <ele>3.132</ele>
        <time>2021-06-17T09:09:47Z</time>
      </trkpt>
      <trkpt lat="36.438684" lon="-5.104447">
        <ele>2.631</ele>
        <time>2021-06-17T09:09:49Z</time>
      </trkpt>
      <trkpt lat="36.438864" lon="-5.104151">
        <ele>2.678</ele>
        <time>2021-06-17T09:09:51Z</time>
      </trkpt>
      <trkpt lat="36.438955" lon="-5.104006">
        <ele>2.743</ele>
        <time>2021-06-17T09:09:52Z</time>
      </trkpt>
      <trkpt lat="36.439046" lon="-5.103859">
        <ele>2.564</ele>
        <time>2021-06-17T09:09:53Z</time>
      </trkpt>
      <trkpt lat="36.439139" lon="-5.103711">
        <ele>2.710</ele>
        <time>2021-06-17T09:09:54Z</time>
      </trkpt>
      <trkpt lat="36.439232" lon="-5.103562">
        <ele>2.808</ele>
        <time>2021-06-17T09:09:55Z</time>
      </trkpt>
      <trkpt lat="36.439327" lon="-5.103415">
        <ele>2.961</ele>
        <time>2021-06-17T09:09:56Z</time>
      </trkpt>
      <trkpt lat="36.439508" lon="-5.10311">
        <ele>3.460</ele>
        <time>2021-06-17T09:09:58Z</time>
      </trkpt>
      <trkpt lat="36.439687" lon="-5.102794">
        <ele>3.844</ele>
        <time>2021-06-17T09:10:00Z</time>
      </trkpt>
      <trkpt lat="36.439773" lon="-5.102644">
        <ele>4.677</ele>
        <time>2021-06-17T09:10:01Z</time>
      </trkpt>
      <trkpt lat="36.439942" lon="-5.102363">
        <ele>5.147</ele>
        <time>2021-06-17T09:10:03Z</time>
      </trkpt>
      <trkpt lat="36.440097" lon="-5.1021">
        <ele>6.028</ele>
        <time>2021-06-17T09:10:05Z</time>
      </trkpt>
      <trkpt lat="36.440177" lon="-5.101966">
        <ele>6.647</ele>
        <time>2021-06-17T09:10:06Z</time>
      </trkpt>
      <trkpt lat="36.44026" lon="-5.101837">
        <ele>7.094</ele>
        <time>2021-06-17T09:10:07Z</time>
      </trkpt>
      <trkpt lat="36.440423" lon="-5.101571">
        <ele>7.555</ele>
        <time>2021-06-17T09:10:09Z</time>
      </trkpt>
      <trkpt lat="36.440505" lon="-5.101435">
        <ele>8.007</ele>
        <time>2021-06-17T09:10:10Z</time>
      </trkpt>
      <trkpt lat="36.44067" lon="-5.101159">
        <ele>8.517</ele>
        <time>2021-06-17T09:10:12Z</time>
      </trkpt>
      <trkpt lat="36.440757" lon="-5.101019">
        <ele>8.908</ele>
        <time>2021-06-17T09:10:13Z</time>
      </trkpt>
      <trkpt lat="36.440944" lon="-5.100731">
        <ele>9.582</ele>
        <time>2021-06-17T09:10:15Z</time>
      </trkpt>
      <trkpt lat="36.441143" lon="-5.10044">
        <ele>9.921</ele>
        <time>2021-06-17T09:10:17Z</time>
      </trkpt>
      <trkpt lat="36.441244" lon="-5.100296">
        <ele>10.475</ele>
        <time>2021-06-17T09:10:18Z</time>
      </trkpt>
      <trkpt lat="36.441457" lon="-5.100019">
        <ele>11.078</ele>
        <time>2021-06-17T09:10:20Z</time>
      </trkpt>
      <trkpt lat="36.44157" lon="-5.099886">
        <ele>11.468</ele>
        <time>2021-06-17T09:10:21Z</time>
      </trkpt>
      <trkpt lat="36.441805" lon="-5.09964">
        <ele>11.859</ele>
        <time>2021-06-17T09:10:23Z</time>
      </trkpt>
      <trkpt lat="36.442055" lon="-5.09943">
        <ele>12.438</ele>
        <time>2021-06-17T09:10:25Z</time>
      </trkpt>
      <trkpt lat="36.442184" lon="-5.099336">
        <ele>12.785</ele>
        <time>2021-06-17T09:10:26Z</time>
      </trkpt>
      <trkpt lat="36.442316" lon="-5.099247">
        <ele>12.853</ele>
        <time>2021-06-17T09:10:27Z</time>
      </trkpt>
      <trkpt lat="36.44245" lon="-5.099164">
        <ele>12.904</ele>
        <time>2021-06-17T09:10:28Z</time>
      </trkpt>
      <trkpt lat="36.442721" lon="-5.099001">
        <ele>13.214</ele>
        <time>2021-06-17T09:10:30Z</time>
      </trkpt>
      <trkpt lat="36.44286" lon="-5.098919">
        <ele>13.108</ele>
        <time>2021-06-17T09:10:31Z</time>
      </trkpt>
      <trkpt lat="36.443143" lon="-5.09874">
        <ele>12.852</ele>
        <time>2021-06-17T09:10:33Z</time>
      </trkpt>
      <trkpt lat="36.443287" lon="-5.098638">
        <ele>12.341</ele>
        <time>2021-06-17T09:10:34Z</time>
      </trkpt>
      <trkpt lat="36.443428" lon="-5.098523">
        <ele>11.815</ele>
        <time>2021-06-17T09:10:35Z</time>
      </trkpt>
      <trkpt lat="36.443567" lon="-5.098392">
        <ele>11.388</ele>
        <time>2021-06-17T09:10:36Z</time>
      </trkpt>
      <trkpt lat="36.443833" lon="-5.098092">
        <ele>10.228</ele>
        <time>2021-06-17T09:10:38Z</time>
      </trkpt>
      <trkpt lat="36.443959" lon="-5.097926">
        <ele>9.029</ele>
        <time>2021-06-17T09:10:39Z</time>
      </trkpt>
      <trkpt lat="36.444076" lon="-5.09775">
        <ele>8.418</ele>
        <time>2021-06-17T09:10:40Z</time>
      </trkpt>
      <trkpt lat="36.444293" lon="-5.097385">
        <ele>8.085</ele>
        <time>2021-06-17T09:10:42Z</time>
      </trkpt>
      <trkpt lat="36.444394" lon="-5.097196">
        <ele>7.796</ele>
        <time>2021-06-17T09:10:43Z</time>
      </trkpt>
      <trkpt lat="36.444602" lon="-5.096818">
        <ele>7.831</ele>
        <time>2021-06-17T09:10:45Z</time>
      </trkpt>
      <trkpt lat="36.444813" lon="-5.096436">
        <ele>7.824</ele>
        <time>2021-06-17T09:10:47Z</time>
      </trkpt>
      <trkpt lat="36.444917" lon="-5.096243">
        <ele>7.408</ele>
        <time>2021-06-17T09:10:48Z</time>
      </trkpt>
      <trkpt lat="36.445021" lon="-5.096051">
        <ele>7.226</ele>
        <time>2021-06-17T09:10:49Z</time>
      </trkpt>
      <trkpt lat="36.445229" lon="-5.095672">
        <ele>7.215</ele>
        <time>2021-06-17T09:10:51Z</time>
      </trkpt>
      <trkpt lat="36.445333" lon="-5.095484">
        <ele>7.319</ele>
        <time>2021-06-17T09:10:52Z</time>
      </trkpt>
      <trkpt lat="36.445436" lon="-5.095297">
        <ele>7.732</ele>
        <time>2021-06-17T09:10:53Z</time>
      </trkpt>
      <trkpt lat="36.445539" lon="-5.095111">
        <ele>8.162</ele>
        <time>2021-06-17T09:10:54Z</time>
      </trkpt>
      <trkpt lat="36.44574" lon="-5.094742">
        <ele>8.973</ele>
        <time>2021-06-17T09:10:56Z</time>
      </trkpt>
      <trkpt lat="36.445941" lon="-5.094364">
        <ele>9.732</ele>
        <time>2021-06-17T09:10:58Z</time>
      </trkpt>
      <trkpt lat="36.446133" lon="-5.093978">
        <ele>10.799</ele>
        <time>2021-06-17T09:11:00Z</time>
      </trkpt>
      <trkpt lat="36.446324" lon="-5.093593">
        <ele>11.547</ele>
        <time>2021-06-17T09:11:02Z</time>
      </trkpt>
      <trkpt lat="36.446422" lon="-5.093401">
        <ele>12.229</ele>
        <time>2021-06-17T09:11:03Z</time>
      </trkpt>
      <trkpt lat="36.44652" lon="-5.093211">
        <ele>12.521</ele>
        <time>2021-06-17T09:11:04Z</time>
      </trkpt>
      <trkpt lat="36.446717" lon="-5.09283">
        <ele>12.608</ele>
        <time>2021-06-17T09:11:06Z</time>
      </trkpt>
      <trkpt lat="36.446814" lon="-5.092638">
        <ele>12.611</ele>
        <time>2021-06-17T09:11:07Z</time>
      </trkpt>
      <trkpt lat="36.447013" lon="-5.092251">
        <ele>11.970</ele>
        <time>2021-06-17T09:11:09Z</time>
      </trkpt>
      <trkpt lat="36.447215" lon="-5.091854">
        <ele>10.794</ele>
        <time>2021-06-17T09:11:11Z</time>
      </trkpt>
      <trkpt lat="36.44732" lon="-5.091649">
        <ele>9.887</ele>
        <time>2021-06-17T09:11:12Z</time>
      </trkpt>
      <trkpt lat="36.447526" lon="-5.09124">
        <ele>9.137</ele>
        <time>2021-06-17T09:11:14Z</time>
      </trkpt>
      <trkpt lat="36.447625" lon="-5.091035">
        <ele>8.728</ele>
        <time>2021-06-17T09:11:15Z</time>
      </trkpt>
      <trkpt lat="36.44782" lon="-5.09063">
        <ele>8.077</ele>
        <time>2021-06-17T09:11:17Z</time>
      </trkpt>
      <trkpt lat="36.448016" lon="-5.090231">
        <ele>7.824</ele>
        <time>2021-06-17T09:11:19Z</time>
      </trkpt>
      <trkpt lat="36.448216" lon="-5.089839">
        <ele>7.753</ele>
        <time>2021-06-17T09:11:21Z</time>
      </trkpt>
      <trkpt lat="36.448406" lon="-5.089452">
        <ele>7.804</ele>
        <time>2021-06-17T09:11:23Z</time>
      </trkpt>
      <trkpt lat="36.448502" lon="-5.089262">
        <ele>7.914</ele>
        <time>2021-06-17T09:11:24Z</time>
      </trkpt>
      <trkpt lat="36.448595" lon="-5.089073">
        <ele>8.508</ele>
        <time>2021-06-17T09:11:25Z</time>
      </trkpt>
      <trkpt lat="36.448781" lon="-5.088704">
        <ele>8.992</ele>
        <time>2021-06-17T09:11:27Z</time>
      </trkpt>
      <trkpt lat="36.448968" lon="-5.088331">
        <ele>9.231</ele>
        <time>2021-06-17T09:11:29Z</time>
      </trkpt>
      <trkpt lat="36.449064" lon="-5.088142">
        <ele>9.575</ele>
        <time>2021-06-17T09:11:30Z</time>
      </trkpt>
      <trkpt lat="36.449163" lon="-5.087952">
        <ele>9.998</ele>
        <time>2021-06-17T09:11:31Z</time>
      </trkpt>
      <trkpt lat="36.449262" lon="-5.08776">
        <ele>10.028</ele>
        <time>2021-06-17T09:11:32Z</time>
      </trkpt>
      <trkpt lat="36.449458" lon="-5.087373">
        <ele>10.229</ele>
        <time>2021-06-17T09:11:34Z</time>
      </trkpt>
      <trkpt lat="36.449658" lon="-5.086985">
        <ele>10.348</ele>
        <time>2021-06-17T09:11:36Z</time>
      </trkpt>
      <trkpt lat="36.449759" lon="-5.086788">
        <ele>10.085</ele>
        <time>2021-06-17T09:11:37Z</time>
      </trkpt>
      <trkpt lat="36.449959" lon="-5.086395">
        <ele>9.827</ele>
        <time>2021-06-17T09:11:39Z</time>
      </trkpt>
      <trkpt lat="36.450061" lon="-5.086196">
        <ele>9.768</ele>
        <time>2021-06-17T09:11:40Z</time>
      </trkpt>
      <trkpt lat="36.450263" lon="-5.085797">
        <ele>9.614</ele>
        <time>2021-06-17T09:11:42Z</time>
      </trkpt>
      <trkpt lat="36.450364" lon="-5.085596">
        <ele>9.608</ele>
        <time>2021-06-17T09:11:43Z</time>
      </trkpt>
      <trkpt lat="36.450466" lon="-5.085396">
        <ele>9.699</ele>
        <time>2021-06-17T09:11:44Z</time>
      </trkpt>
      <trkpt lat="36.450668" lon="-5.084996">
        <ele>9.358</ele>
        <time>2021-06-17T09:11:46Z</time>
      </trkpt>
      <trkpt lat="36.45087" lon="-5.084594">
        <ele>8.762</ele>
        <time>2021-06-17T09:11:48Z</time>
      </trkpt>
      <trkpt lat="36.450971" lon="-5.084393">
        <ele>8.515</ele>
        <time>2021-06-17T09:11:49Z</time>
      </trkpt>
      <trkpt lat="36.451169" lon="-5.083995">
        <ele>8.185</ele>
        <time>2021-06-17T09:11:51Z</time>
      </trkpt>
      <trkpt lat="36.451272" lon="-5.083798">
        <ele>7.926</ele>
        <time>2021-06-17T09:11:52Z</time>
      </trkpt>
      <trkpt lat="36.451474" lon="-5.083405">
        <ele>8.025</ele>
        <time>2021-06-17T09:11:54Z</time>
      </trkpt>
      <trkpt lat="36.451576" lon="-5.083209">
        <ele>7.762</ele>
        <time>2021-06-17T09:11:55Z</time>
      </trkpt>
      <trkpt lat="36.451675" lon="-5.083011">
        <ele>7.866</ele>
        <time>2021-06-17T09:11:56Z</time>
      </trkpt>
      <trkpt lat="36.451775" lon="-5.082815">
        <ele>7.629</ele>
        <time>2021-06-17T09:11:57Z</time>
      </trkpt>
      <trkpt lat="36.451875" lon="-5.082622">
        <ele>7.821</ele>
        <time>2021-06-17T09:11:58Z</time>
      </trkpt>
      <trkpt lat="36.451974" lon="-5.082433">
        <ele>8.008</ele>
        <time>2021-06-17T09:11:59Z</time>
      </trkpt>
      <trkpt lat="36.452162" lon="-5.082068">
        <ele>7.763</ele>
        <time>2021-06-17T09:12:01Z</time>
      </trkpt>
      <trkpt lat="36.452253" lon="-5.081885">
        <ele>7.742</ele>
        <time>2021-06-17T09:12:02Z</time>
      </trkpt>
      <trkpt lat="36.452342" lon="-5.081704">
        <ele>7.716</ele>
        <time>2021-06-17T09:12:03Z</time>
      </trkpt>
      <trkpt lat="36.452523" lon="-5.08134">
        <ele>7.919</ele>
        <time>2021-06-17T09:12:05Z</time>
      </trkpt>
      <trkpt lat="36.452703" lon="-5.080974">
        <ele>7.989</ele>
        <time>2021-06-17T09:12:07Z</time>
      </trkpt>
      <trkpt lat="36.452872" lon="-5.080599">
        <ele>8.020</ele>
        <time>2021-06-17T09:12:09Z</time>
      </trkpt>
      <trkpt lat="36.45295" lon="-5.080402">
        <ele>8.039</ele>
        <time>2021-06-17T09:12:10Z</time>
      </trkpt>
      <trkpt lat="36.45308" lon="-5.079995">
        <ele>8.256</ele>
        <time>2021-06-17T09:12:12Z</time>
      </trkpt>
      <trkpt lat="36.453132" lon="-5.079787">
        <ele>8.483</ele>
        <time>2021-06-17T09:12:13Z</time>
      </trkpt>
      <trkpt lat="36.453218" lon="-5.079394">
        <ele>8.325</ele>
        <time>2021-06-17T09:12:15Z</time>
      </trkpt>
      <trkpt lat="36.453249" lon="-5.079202">
        <ele>8.417</ele>
        <time>2021-06-17T09:12:16Z</time>
      </trkpt>
      <trkpt lat="36.453285" lon="-5.078827">
        <ele>8.208</ele>
        <time>2021-06-17T09:12:18Z</time>
      </trkpt>
      <trkpt lat="36.453297" lon="-5.07864">
        <ele>8.385</ele>
        <time>2021-06-17T09:12:19Z</time>
      </trkpt>
      <trkpt lat="36.453306" lon="-5.07845">
        <ele>8.424</ele>
        <time>2021-06-17T09:12:20Z</time>
      </trkpt>
      <trkpt lat="36.453324" lon="-5.078064">
        <ele>8.248</ele>
        <time>2021-06-17T09:12:22Z</time>
      </trkpt>
      <trkpt lat="36.453346" lon="-5.077671">
        <ele>8.331</ele>
        <time>2021-06-17T09:12:24Z</time>
      </trkpt>
      <trkpt lat="36.453367" lon="-5.077269">
        <ele>8.391</ele>
        <time>2021-06-17T09:12:26Z</time>
      </trkpt>
      <trkpt lat="36.453376" lon="-5.077061">
        <ele>8.642</ele>
        <time>2021-06-17T09:12:27Z</time>
      </trkpt>
      <trkpt lat="36.453384" lon="-5.076852">
        <ele>8.921</ele>
        <time>2021-06-17T09:12:28Z</time>
      </trkpt>
      <trkpt lat="36.453395" lon="-5.07664">
        <ele>9.218</ele>
        <time>2021-06-17T09:12:29Z</time>
      </trkpt>
      <trkpt lat="36.453414" lon="-5.076209">
        <ele>9.332</ele>
        <time>2021-06-17T09:12:31Z</time>
      </trkpt>
      <trkpt lat="36.453424" lon="-5.075992">
        <ele>9.692</ele>
        <time>2021-06-17T09:12:32Z</time>
      </trkpt>
      <trkpt lat="36.453444" lon="-5.075557">
        <ele>9.811</ele>
        <time>2021-06-17T09:12:34Z</time>
      </trkpt>
      <trkpt lat="36.453453" lon="-5.075338">
        <ele>9.808</ele>
        <time>2021-06-17T09:12:35Z</time>
      </trkpt>
      <trkpt lat="36.453477" lon="-5.074898">
        <ele>9.850</ele>
        <time>2021-06-17T09:12:37Z</time>
      </trkpt>
      <trkpt lat="36.453504" lon="-5.074458">
        <ele>9.949</ele>
        <time>2021-06-17T09:12:39Z</time>
      </trkpt>
      <trkpt lat="36.453515" lon="-5.07424">
        <ele>9.933</ele>
        <time>2021-06-17T09:12:40Z</time>
      </trkpt>
      <trkpt lat="36.453541" lon="-5.073799">
        <ele>9.656</ele>
        <time>2021-06-17T09:12:42Z</time>
      </trkpt>
      <trkpt lat="36.453551" lon="-5.073575">
        <ele>9.976</ele>
        <time>2021-06-17T09:12:43Z</time>
      </trkpt>
      <trkpt lat="36.45356" lon="-5.073351">
        <ele>9.877</ele>
        <time>2021-06-17T09:12:44Z</time>
      </trkpt>
      <trkpt lat="36.45358" lon="-5.072906">
        <ele>9.836</ele>
        <time>2021-06-17T09:12:46Z</time>
      </trkpt>
      <trkpt lat="36.453593" lon="-5.072683">
        <ele>9.943</ele>
        <time>2021-06-17T09:12:47Z</time>
      </trkpt>
      <trkpt lat="36.453605" lon="-5.072459">
        <ele>10.335</ele>
        <time>2021-06-17T09:12:48Z</time>
      </trkpt>
      <trkpt lat="36.453615" lon="-5.072237">
        <ele>10.886</ele>
        <time>2021-06-17T09:12:49Z</time>
      </trkpt>
      <trkpt lat="36.453636" lon="-5.071798">
        <ele>11.114</ele>
        <time>2021-06-17T09:12:51Z</time>
      </trkpt>
      <trkpt lat="36.453644" lon="-5.07158">
        <ele>11.408</ele>
        <time>2021-06-17T09:12:52Z</time>
      </trkpt>
      <trkpt lat="36.453666" lon="-5.071152">
        <ele>11.630</ele>
        <time>2021-06-17T09:12:54Z</time>
      </trkpt>
      <trkpt lat="36.453677" lon="-5.070939">
        <ele>11.799</ele>
        <time>2021-06-17T09:12:55Z</time>
      </trkpt>
      <trkpt lat="36.453696" lon="-5.070512">
        <ele>11.773</ele>
        <time>2021-06-17T09:12:57Z</time>
      </trkpt>
      <trkpt lat="36.453705" lon="-5.070293">
        <ele>11.696</ele>
        <time>2021-06-17T09:12:58Z</time>
      </trkpt>
      <trkpt lat="36.45372" lon="-5.069863">
        <ele>11.626</ele>
        <time>2021-06-17T09:13:00Z</time>
      </trkpt>
      <trkpt lat="36.453731" lon="-5.069647">
        <ele>11.817</ele>
        <time>2021-06-17T09:13:01Z</time>
      </trkpt>
      <trkpt lat="36.453753" lon="-5.06922">
        <ele>12.156</ele>
        <time>2021-06-17T09:13:03Z</time>
      </trkpt>
      <trkpt lat="36.453765" lon="-5.069005">
        <ele>12.573</ele>
        <time>2021-06-17T09:13:04Z</time>
      </trkpt>
      <trkpt lat="36.453786" lon="-5.068572">
        <ele>13.156</ele>
        <time>2021-06-17T09:13:06Z</time>
      </trkpt>
      <trkpt lat="36.453802" lon="-5.068142">
        <ele>13.759</ele>
        <time>2021-06-17T09:13:08Z</time>
      </trkpt>
      <trkpt lat="36.453821" lon="-5.067724">
        <ele>14.214</ele>
        <time>2021-06-17T09:13:10Z</time>
      </trkpt>
      <trkpt lat="36.45384" lon="-5.067307">
        <ele>14.808</ele>
        <time>2021-06-17T09:13:12Z</time>
      </trkpt>
      <trkpt lat="36.453856" lon="-5.066884">
        <ele>15.742</ele>
        <time>2021-06-17T09:13:14Z</time>
      </trkpt>
      <trkpt lat="36.453876" lon="-5.066459">
        <ele>16.391</ele>
        <time>2021-06-17T09:13:16Z</time>
      </trkpt>
      <trkpt lat="36.453893" lon="-5.066242">
        <ele>16.855</ele>
        <time>2021-06-17T09:13:17Z</time>
      </trkpt>
      <trkpt lat="36.453908" lon="-5.066027">
        <ele>17.498</ele>
        <time>2021-06-17T09:13:18Z</time>
      </trkpt>
      <trkpt lat="36.453938" lon="-5.0656">
        <ele>17.678</ele>
        <time>2021-06-17T09:13:20Z</time>
      </trkpt>
      <trkpt lat="36.453966" lon="-5.065163">
        <ele>18.269</ele>
        <time>2021-06-17T09:13:22Z</time>
      </trkpt>
      <trkpt lat="36.453991" lon="-5.064726">
        <ele>18.138</ele>
        <time>2021-06-17T09:13:24Z</time>
      </trkpt>
      <trkpt lat="36.454005" lon="-5.064506">
        <ele>18.235</ele>
        <time>2021-06-17T09:13:25Z</time>
      </trkpt>
      <trkpt lat="36.454028" lon="-5.064071">
        <ele>18.131</ele>
        <time>2021-06-17T09:13:27Z</time>
      </trkpt>
      <trkpt lat="36.454038" lon="-5.063856">
        <ele>17.961</ele>
        <time>2021-06-17T09:13:28Z</time>
      </trkpt>
      <trkpt lat="36.454075" lon="-5.063422">
        <ele>17.307</ele>
        <time>2021-06-17T09:13:30Z</time>
      </trkpt>
      <trkpt lat="36.45413" lon="-5.062983">
        <ele>17.008</ele>
        <time>2021-06-17T09:13:32Z</time>
      </trkpt>
      <trkpt lat="36.454208" lon="-5.062556">
        <ele>16.290</ele>
        <time>2021-06-17T09:13:34Z</time>
      </trkpt>
      <trkpt lat="36.454256" lon="-5.062338">
        <ele>15.949</ele>
        <time>2021-06-17T09:13:35Z</time>
      </trkpt>
      <trkpt lat="36.454376" lon="-5.061912">
        <ele>15.213</ele>
        <time>2021-06-17T09:13:37Z</time>
      </trkpt>
      <trkpt lat="36.454447" lon="-5.061696">
        <ele>14.496</ele>
        <time>2021-06-17T09:13:38Z</time>
      </trkpt>
      <trkpt lat="36.45461" lon="-5.061263">
        <ele>13.486</ele>
        <time>2021-06-17T09:13:40Z</time>
      </trkpt>
      <trkpt lat="36.454712" lon="-5.061046">
        <ele>12.817</ele>
        <time>2021-06-17T09:13:41Z</time>
      </trkpt>
      <trkpt lat="36.454925" lon="-5.060628">
        <ele>11.636</ele>
        <time>2021-06-17T09:13:43Z</time>
      </trkpt>
      <trkpt lat="36.455044" lon="-5.060426">
        <ele>10.943</ele>
        <time>2021-06-17T09:13:44Z</time>
      </trkpt>
      <trkpt lat="36.455279" lon="-5.060022">
        <ele>10.295</ele>
        <time>2021-06-17T09:13:46Z</time>
      </trkpt>
      <trkpt lat="36.455503" lon="-5.05963">
        <ele>9.649</ele>
        <time>2021-06-17T09:13:48Z</time>
      </trkpt>
      <trkpt lat="36.455617" lon="-5.059438">
        <ele>9.623</ele>
        <time>2021-06-17T09:13:49Z</time>
      </trkpt>
      <trkpt lat="36.455841" lon="-5.059061">
        <ele>9.608</ele>
        <time>2021-06-17T09:13:51Z</time>
      </trkpt>
      <trkpt lat="36.45595" lon="-5.058868">
        <ele>9.926</ele>
        <time>2021-06-17T09:13:52Z</time>
      </trkpt>
      <trkpt lat="36.456163" lon="-5.05848">
        <ele>9.845</ele>
        <time>2021-06-17T09:13:54Z</time>
      </trkpt>
      <trkpt lat="36.456262" lon="-5.058287">
        <ele>9.759</ele>
        <time>2021-06-17T09:13:55Z</time>
      </trkpt>
      <trkpt lat="36.456449" lon="-5.057896">
        <ele>9.512</ele>
        <time>2021-06-17T09:13:57Z</time>
      </trkpt>
      <trkpt lat="36.456534" lon="-5.057699">
        <ele>9.382</ele>
        <time>2021-06-17T09:13:58Z</time>
      </trkpt>
      <trkpt lat="36.456699" lon="-5.057298">
        <ele>9.513</ele>
        <time>2021-06-17T09:14:00Z</time>
      </trkpt>
      <trkpt lat="36.456775" lon="-5.057093">
        <ele>10.162</ele>
        <time>2021-06-17T09:14:01Z</time>
      </trkpt>
      <trkpt lat="36.456851" lon="-5.056884">
        <ele>10.239</ele>
        <time>2021-06-17T09:14:02Z</time>
      </trkpt>
      <trkpt lat="36.456999" lon="-5.05647">
        <ele>9.622</ele>
        <time>2021-06-17T09:14:04Z</time>
      </trkpt>
      <trkpt lat="36.45707" lon="-5.056264">
        <ele>9.562</ele>
        <time>2021-06-17T09:14:05Z</time>
      </trkpt>
      <trkpt lat="36.4572" lon="-5.055858">
        <ele>9.608</ele>
        <time>2021-06-17T09:14:07Z</time>
      </trkpt>
      <trkpt lat="36.45733" lon="-5.055463">
        <ele>10.308</ele>
        <time>2021-06-17T09:14:09Z</time>
      </trkpt>
      <trkpt lat="36.457403" lon="-5.055267">
        <ele>11.079</ele>
        <time>2021-06-17T09:14:10Z</time>
      </trkpt>
      <trkpt lat="36.457549" lon="-5.054877">
        <ele>11.798</ele>
        <time>2021-06-17T09:14:12Z</time>
      </trkpt>
      <trkpt lat="36.457621" lon="-5.054684">
        <ele>12.462</ele>
        <time>2021-06-17T09:14:13Z</time>
      </trkpt>
      <trkpt lat="36.45777" lon="-5.054304">
        <ele>13.395</ele>
        <time>2021-06-17T09:14:15Z</time>
      </trkpt>
      <trkpt lat="36.457844" lon="-5.054118">
        <ele>14.045</ele>
        <time>2021-06-17T09:14:16Z</time>
      </trkpt>
      <trkpt lat="36.45792" lon="-5.053936">
        <ele>15.076</ele>
        <time>2021-06-17T09:14:17Z</time>
      </trkpt>
      <trkpt lat="36.458084" lon="-5.053574">
        <ele>16.075</ele>
        <time>2021-06-17T09:14:19Z</time>
      </trkpt>
      <trkpt lat="36.458168" lon="-5.053389">
        <ele>16.632</ele>
        <time>2021-06-17T09:14:20Z</time>
      </trkpt>
      <trkpt lat="36.458244" lon="-5.053205">
        <ele>16.747</ele>
        <time>2021-06-17T09:14:21Z</time>
      </trkpt>
      <trkpt lat="36.4584" lon="-5.05284">
        <ele>16.729</ele>
        <time>2021-06-17T09:14:23Z</time>
      </trkpt>
      <trkpt lat="36.45849" lon="-5.052661">
        <ele>16.121</ele>
        <time>2021-06-17T09:14:24Z</time>
      </trkpt>
      <trkpt lat="36.458578" lon="-5.052475">
        <ele>15.908</ele>
        <time>2021-06-17T09:14:25Z</time>
      </trkpt>
      <trkpt lat="36.458666" lon="-5.052288">
        <ele>15.811</ele>
        <time>2021-06-17T09:14:26Z</time>
      </trkpt>
      <trkpt lat="36.458839" lon="-5.051911">
        <ele>14.950</ele>
        <time>2021-06-17T09:14:28Z</time>
      </trkpt>
      <trkpt lat="36.459012" lon="-5.051533">
        <ele>14.474</ele>
        <time>2021-06-17T09:14:30Z</time>
      </trkpt>
      <trkpt lat="36.459096" lon="-5.051343">
        <ele>13.827</ele>
        <time>2021-06-17T09:14:31Z</time>
      </trkpt>
      <trkpt lat="36.459265" lon="-5.050962">
        <ele>13.297</ele>
        <time>2021-06-17T09:14:33Z</time>
      </trkpt>
      <trkpt lat="36.459355" lon="-5.050768">
        <ele>13.178</ele>
        <time>2021-06-17T09:14:34Z</time>
      </trkpt>
      <trkpt lat="36.459536" lon="-5.050389">
        <ele>12.457</ele>
        <time>2021-06-17T09:14:36Z</time>
      </trkpt>
      <trkpt lat="36.459625" lon="-5.050203">
        <ele>12.314</ele>
        <time>2021-06-17T09:14:37Z</time>
      </trkpt>
      <trkpt lat="36.459712" lon="-5.05002">
        <ele>12.074</ele>
        <time>2021-06-17T09:14:38Z</time>
      </trkpt>
      <trkpt lat="36.459796" lon="-5.049833">
        <ele>11.656</ele>
        <time>2021-06-17T09:14:39Z</time>
      </trkpt>
      <trkpt lat="36.459971" lon="-5.049453">
        <ele>11.421</ele>
        <time>2021-06-17T09:14:41Z</time>
      </trkpt>
      <trkpt lat="36.460143" lon="-5.049071">
        <ele>11.208</ele>
        <time>2021-06-17T09:14:43Z</time>
      </trkpt>
      <trkpt lat="36.460305" lon="-5.048699">
        <ele>10.894</ele>
        <time>2021-06-17T09:14:45Z</time>
      </trkpt>
      <trkpt lat="36.460476" lon="-5.048329">
        <ele>10.613</ele>
        <time>2021-06-17T09:14:47Z</time>
      </trkpt>
      <trkpt lat="36.460563" lon="-5.048141">
        <ele>10.637</ele>
        <time>2021-06-17T09:14:48Z</time>
      </trkpt>
      <trkpt lat="36.460737" lon="-5.047768">
        <ele>10.640</ele>
        <time>2021-06-17T09:14:50Z</time>
      </trkpt>
      <trkpt lat="36.460817" lon="-5.047578">
        <ele>10.260</ele>
        <time>2021-06-17T09:14:51Z</time>
      </trkpt>
      <trkpt lat="36.460972" lon="-5.047185">
        <ele>10.571</ele>
        <time>2021-06-17T09:14:53Z</time>
      </trkpt>
      <trkpt lat="36.461108" lon="-5.04679">
        <ele>10.580</ele>
        <time>2021-06-17T09:14:55Z</time>
      </trkpt>
      <trkpt lat="36.46126" lon="-5.046393">
        <ele>10.447</ele>
        <time>2021-06-17T09:14:57Z</time>
      </trkpt>
      <trkpt lat="36.461337" lon="-5.046194">
        <ele>10.425</ele>
        <time>2021-06-17T09:14:58Z</time>
      </trkpt>
      <trkpt lat="36.461488" lon="-5.045799">
        <ele>10.526</ele>
        <time>2021-06-17T09:15:00Z</time>
      </trkpt>
      <trkpt lat="36.461554" lon="-5.045606">
        <ele>10.308</ele>
        <time>2021-06-17T09:15:01Z</time>
      </trkpt>
      <trkpt lat="36.461675" lon="-5.045223">
        <ele>10.208</ele>
        <time>2021-06-17T09:15:03Z</time>
      </trkpt>
      <trkpt lat="36.461802" lon="-5.044842">
        <ele>10.229</ele>
        <time>2021-06-17T09:15:05Z</time>
      </trkpt>
      <trkpt lat="36.461918" lon="-5.044475">
        <ele>10.038</ele>
        <time>2021-06-17T09:15:07Z</time>
      </trkpt>
      <trkpt lat="36.462002" lon="-5.044112">
        <ele>9.982</ele>
        <time>2021-06-17T09:15:09Z</time>
      </trkpt>
      <trkpt lat="36.462083" lon="-5.043739">
        <ele>10.485</ele>
        <time>2021-06-17T09:15:11Z</time>
      </trkpt>
      <trkpt lat="36.462163" lon="-5.043363">
        <ele>10.865</ele>
        <time>2021-06-17T09:15:13Z</time>
      </trkpt>
      <trkpt lat="36.46225" lon="-5.042993">
        <ele>10.716</ele>
        <time>2021-06-17T09:15:15Z</time>
      </trkpt>
      <trkpt lat="36.462289" lon="-5.042808">
        <ele>10.515</ele>
        <time>2021-06-17T09:15:16Z</time>
      </trkpt>
      <trkpt lat="36.46233" lon="-5.042624">
        <ele>10.312</ele>
        <time>2021-06-17T09:15:17Z</time>
      </trkpt>
      <trkpt lat="36.462414" lon="-5.042257">
        <ele>10.367</ele>
        <time>2021-06-17T09:15:19Z</time>
      </trkpt>
      <trkpt lat="36.462457" lon="-5.04207">
        <ele>10.281</ele>
        <time>2021-06-17T09:15:20Z</time>
      </trkpt>
      <trkpt lat="36.462504" lon="-5.041881">
        <ele>10.519</ele>
        <time>2021-06-17T09:15:21Z</time>
      </trkpt>
      <trkpt lat="36.462594" lon="-5.0415">
        <ele>10.708</ele>
        <time>2021-06-17T09:15:23Z</time>
      </trkpt>
      <trkpt lat="36.462685" lon="-5.041108">
        <ele>10.263</ele>
        <time>2021-06-17T09:15:25Z</time>
      </trkpt>
      <trkpt lat="36.462774" lon="-5.040713">
        <ele>10.062</ele>
        <time>2021-06-17T09:15:27Z</time>
      </trkpt>
      <trkpt lat="36.462819" lon="-5.040514">
        <ele>10.046</ele>
        <time>2021-06-17T09:15:28Z</time>
      </trkpt>
      <trkpt lat="36.462867" lon="-5.040317">
        <ele>9.819</ele>
        <time>2021-06-17T09:15:29Z</time>
      </trkpt>
      <trkpt lat="36.462913" lon="-5.040118">
        <ele>9.629</ele>
        <time>2021-06-17T09:15:30Z</time>
      </trkpt>
      <trkpt lat="36.463011" lon="-5.03972">
        <ele>9.020</ele>
        <time>2021-06-17T09:15:32Z</time>
      </trkpt>
      <trkpt lat="36.463063" lon="-5.039522">
        <ele>8.379</ele>
        <time>2021-06-17T09:15:33Z</time>
      </trkpt>
      <trkpt lat="36.463112" lon="-5.039319">
        <ele>8.026</ele>
        <time>2021-06-17T09:15:34Z</time>
      </trkpt>
      <trkpt lat="36.463212" lon="-5.03891">
        <ele>7.767</ele>
        <time>2021-06-17T09:15:36Z</time>
      </trkpt>
      <trkpt lat="36.463304" lon="-5.038502">
        <ele>7.281</ele>
        <time>2021-06-17T09:15:38Z</time>
      </trkpt>
      <trkpt lat="36.463352" lon="-5.038291">
        <ele>6.619</ele>
        <time>2021-06-17T09:15:39Z</time>
      </trkpt>
      <trkpt lat="36.46345" lon="-5.037875">
        <ele>6.408</ele>
        <time>2021-06-17T09:15:41Z</time>
      </trkpt>
      <trkpt lat="36.463498" lon="-5.03767">
        <ele>6.263</ele>
        <time>2021-06-17T09:15:42Z</time>
      </trkpt>
      <trkpt lat="36.463544" lon="-5.037467">
        <ele>5.852</ele>
        <time>2021-06-17T09:15:43Z</time>
      </trkpt>
      <trkpt lat="36.463632" lon="-5.037065">
        <ele>5.846</ele>
        <time>2021-06-17T09:15:45Z</time>
      </trkpt>
      <trkpt lat="36.463673" lon="-5.036863">
        <ele>5.999</ele>
        <time>2021-06-17T09:15:46Z</time>
      </trkpt>
      <trkpt lat="36.463768" lon="-5.036465">
        <ele>6.339</ele>
        <time>2021-06-17T09:15:48Z</time>
      </trkpt>
      <trkpt lat="36.463872" lon="-5.036069">
        <ele>6.360</ele>
        <time>2021-06-17T09:15:50Z</time>
      </trkpt>
      <trkpt lat="36.463965" lon="-5.03567">
        <ele>6.389</ele>
        <time>2021-06-17T09:15:52Z</time>
      </trkpt>
      <trkpt lat="36.464071" lon="-5.035265">
        <ele>6.616</ele>
        <time>2021-06-17T09:15:54Z</time>
      </trkpt>
      <trkpt lat="36.464121" lon="-5.03506">
        <ele>6.962</ele>
        <time>2021-06-17T09:15:55Z</time>
      </trkpt>
      <trkpt lat="36.46422" lon="-5.034662">
        <ele>7.183</ele>
        <time>2021-06-17T09:15:57Z</time>
      </trkpt>
      <trkpt lat="36.464311" lon="-5.034279">
        <ele>7.611</ele>
        <time>2021-06-17T09:15:59Z</time>
      </trkpt>
      <trkpt lat="36.464396" lon="-5.033906">
        <ele>7.908</ele>
        <time>2021-06-17T09:16:01Z</time>
      </trkpt>
      <trkpt lat="36.464485" lon="-5.033539">
        <ele>8.563</ele>
        <time>2021-06-17T09:16:03Z</time>
      </trkpt>
      <trkpt lat="36.464576" lon="-5.033169">
        <ele>9.242</ele>
        <time>2021-06-17T09:16:05Z</time>
      </trkpt>
      <trkpt lat="36.464618" lon="-5.032989">
        <ele>9.566</ele>
        <time>2021-06-17T09:16:06Z</time>
      </trkpt>
      <trkpt lat="36.464658" lon="-5.032817">
        <ele>9.999</ele>
        <time>2021-06-17T09:16:07Z</time>
      </trkpt>
      <trkpt lat="36.464717" lon="-5.032493">
        <ele>10.329</ele>
        <time>2021-06-17T09:16:09Z</time>
      </trkpt>
      <trkpt lat="36.464788" lon="-5.032201">
        <ele>10.620</ele>
        <time>2021-06-17T09:16:11Z</time>
      </trkpt>
      <trkpt lat="36.464818" lon="-5.032057">
        <ele>11.389</ele>
        <time>2021-06-17T09:16:12Z</time>
      </trkpt>
      <trkpt lat="36.464849" lon="-5.031912">
        <ele>11.446</ele>
        <time>2021-06-17T09:16:13Z</time>
      </trkpt>
      <trkpt lat="36.464886" lon="-5.031764">
        <ele>11.557</ele>
        <time>2021-06-17T09:16:14Z</time>
      </trkpt>
      <trkpt lat="36.464969" lon="-5.031466">
        <ele>11.500</ele>
        <time>2021-06-17T09:16:16Z</time>
      </trkpt>
      <trkpt lat="36.465009" lon="-5.031318">
        <ele>11.720</ele>
        <time>2021-06-17T09:16:17Z</time>
      </trkpt>
      <trkpt lat="36.465088" lon="-5.031021">
        <ele>11.208</ele>
        <time>2021-06-17T09:16:19Z</time>
      </trkpt>
      <trkpt lat="36.465161" lon="-5.030723">
        <ele>11.012</ele>
        <time>2021-06-17T09:16:21Z</time>
      </trkpt>
      <trkpt lat="36.465239" lon="-5.03042">
        <ele>11.231</ele>
        <time>2021-06-17T09:16:23Z</time>
      </trkpt>
      <trkpt lat="36.465304" lon="-5.030124">
        <ele>11.475</ele>
        <time>2021-06-17T09:16:25Z</time>
      </trkpt>
      <trkpt lat="36.465374" lon="-5.029828">
        <ele>11.258</ele>
        <time>2021-06-17T09:16:27Z</time>
      </trkpt>
      <trkpt lat="36.465446" lon="-5.029537">
        <ele>11.828</ele>
        <time>2021-06-17T09:16:29Z</time>
      </trkpt>
      <trkpt lat="36.465502" lon="-5.029247">
        <ele>12.589</ele>
        <time>2021-06-17T09:16:31Z</time>
      </trkpt>
      <trkpt lat="36.465562" lon="-5.028964">
        <ele>12.848</ele>
        <time>2021-06-17T09:16:33Z</time>
      </trkpt>
      <trkpt lat="36.465604" lon="-5.028819">
        <ele>12.625</ele>
        <time>2021-06-17T09:16:34Z</time>
      </trkpt>
      <trkpt lat="36.46564" lon="-5.028669">
        <ele>12.568</ele>
        <time>2021-06-17T09:16:35Z</time>
      </trkpt>
      <trkpt lat="36.465713" lon="-5.028365">
        <ele>12.242</ele>
        <time>2021-06-17T09:16:37Z</time>
      </trkpt>
      <trkpt lat="36.465782" lon="-5.028063">
        <ele>12.426</ele>
        <time>2021-06-17T09:16:39Z</time>
      </trkpt>
      <trkpt lat="36.465824" lon="-5.027911">
        <ele>12.508</ele>
        <time>2021-06-17T09:16:40Z</time>
      </trkpt>
      <trkpt lat="36.465897" lon="-5.027625">
        <ele>12.863</ele>
        <time>2021-06-17T09:16:42Z</time>
      </trkpt>
      <trkpt lat="36.465927" lon="-5.027494">
        <ele>13.122</ele>
        <time>2021-06-17T09:16:43Z</time>
      </trkpt>
      <trkpt lat="36.465984" lon="-5.027252">
        <ele>13.346</ele>
        <time>2021-06-17T09:16:45Z</time>
      </trkpt>
      <trkpt lat="36.466016" lon="-5.027131">
        <ele>13.959</ele>
        <time>2021-06-17T09:16:46Z</time>
      </trkpt>
      <trkpt lat="36.466099" lon="-5.026869">
        <ele>14.029</ele>
        <time>2021-06-17T09:16:48Z</time>
      </trkpt>
      <trkpt lat="36.466147" lon="-5.026716">
        <ele>14.080</ele>
        <time>2021-06-17T09:16:49Z</time>
      </trkpt>
      <trkpt lat="36.466233" lon="-5.026366">
        <ele>14.139</ele>
        <time>2021-06-17T09:16:51Z</time>
      </trkpt>
      <trkpt lat="36.466324" lon="-5.025987">
        <ele>14.636</ele>
        <time>2021-06-17T09:16:53Z</time>
      </trkpt>
      <trkpt lat="36.466367" lon="-5.025793">
        <ele>14.892</ele>
        <time>2021-06-17T09:16:54Z</time>
      </trkpt>
      <trkpt lat="36.466412" lon="-5.025598">
        <ele>14.773</ele>
        <time>2021-06-17T09:16:55Z</time>
      </trkpt>
      <trkpt lat="36.466461" lon="-5.025405">
        <ele>14.220</ele>
        <time>2021-06-17T09:16:56Z</time>
      </trkpt>
      <trkpt lat="36.466552" lon="-5.024995">
        <ele>13.808</ele>
        <time>2021-06-17T09:16:58Z</time>
      </trkpt>
      <trkpt lat="36.4666" lon="-5.024786">
        <ele>13.126</ele>
        <time>2021-06-17T09:16:59Z</time>
      </trkpt>
      <trkpt lat="36.466651" lon="-5.024574">
        <ele>12.495</ele>
        <time>2021-06-17T09:17:00Z</time>
      </trkpt>
      <trkpt lat="36.466755" lon="-5.024143">
        <ele>12.019</ele>
        <time>2021-06-17T09:17:02Z</time>
      </trkpt>
      <trkpt lat="36.466857" lon="-5.02371">
        <ele>11.442</ele>
        <time>2021-06-17T09:17:04Z</time>
      </trkpt>
      <trkpt lat="36.466951" lon="-5.023269">
        <ele>11.022</ele>
        <time>2021-06-17T09:17:06Z</time>
      </trkpt>
      <trkpt lat="36.467045" lon="-5.022827">
        <ele>10.463</ele>
        <time>2021-06-17T09:17:08Z</time>
      </trkpt>
      <trkpt lat="36.467087" lon="-5.022607">
        <ele>10.242</ele>
        <time>2021-06-17T09:17:09Z</time>
      </trkpt>
      <trkpt lat="36.467128" lon="-5.022389">
        <ele>10.589</ele>
        <time>2021-06-17T09:17:10Z</time>
      </trkpt>
      <trkpt lat="36.467176" lon="-5.022175">
        <ele>10.888</ele>
        <time>2021-06-17T09:17:11Z</time>
      </trkpt>
      <trkpt lat="36.467279" lon="-5.021758">
        <ele>11.424</ele>
        <time>2021-06-17T09:17:13Z</time>
      </trkpt>
      <trkpt lat="36.467381" lon="-5.021344">
        <ele>12.326</ele>
        <time>2021-06-17T09:17:15Z</time>
      </trkpt>
      <trkpt lat="36.467427" lon="-5.02114">
        <ele>13.008</ele>
        <time>2021-06-17T09:17:16Z</time>
      </trkpt>
      <trkpt lat="36.467474" lon="-5.020938">
        <ele>14.085</ele>
        <time>2021-06-17T09:17:17Z</time>
      </trkpt>
      <trkpt lat="36.467571" lon="-5.020539">
        <ele>14.834</ele>
        <time>2021-06-17T09:17:19Z</time>
      </trkpt>
      <trkpt lat="36.467622" lon="-5.020342">
        <ele>15.478</ele>
        <time>2021-06-17T09:17:20Z</time>
      </trkpt>
      <trkpt lat="36.467673" lon="-5.020145">
        <ele>15.991</ele>
        <time>2021-06-17T09:17:21Z</time>
      </trkpt>
      <trkpt lat="36.467769" lon="-5.019755">
        <ele>16.431</ele>
        <time>2021-06-17T09:17:23Z</time>
      </trkpt>
      <trkpt lat="36.467822" lon="-5.019561">
        <ele>16.372</ele>
        <time>2021-06-17T09:17:24Z</time>
      </trkpt>
      <trkpt lat="36.467919" lon="-5.019165">
        <ele>16.851</ele>
        <time>2021-06-17T09:17:26Z</time>
      </trkpt>
      <trkpt lat="36.468012" lon="-5.018767">
        <ele>17.038</ele>
        <time>2021-06-17T09:17:28Z</time>
      </trkpt>
      <trkpt lat="36.468059" lon="-5.018568">
        <ele>17.446</ele>
        <time>2021-06-17T09:17:29Z</time>
      </trkpt>
      <trkpt lat="36.468154" lon="-5.018168">
        <ele>17.588</ele>
        <time>2021-06-17T09:17:31Z</time>
      </trkpt>
      <trkpt lat="36.4682" lon="-5.017965">
        <ele>17.816</ele>
        <time>2021-06-17T09:17:32Z</time>
      </trkpt>
      <trkpt lat="36.468248" lon="-5.017761">
        <ele>17.608</ele>
        <time>2021-06-17T09:17:33Z</time>
      </trkpt>
      <trkpt lat="36.468336" lon="-5.017355">
        <ele>17.441</ele>
        <time>2021-06-17T09:17:35Z</time>
      </trkpt>
      <trkpt lat="36.468383" lon="-5.017149">
        <ele>17.090</ele>
        <time>2021-06-17T09:17:36Z</time>
      </trkpt>
      <trkpt lat="36.468481" lon="-5.016742">
        <ele>17.254</ele>
        <time>2021-06-17T09:17:38Z</time>
      </trkpt>
      <trkpt lat="36.46853" lon="-5.016542">
        <ele>17.447</ele>
        <time>2021-06-17T09:17:39Z</time>
      </trkpt>
      <trkpt lat="36.46858" lon="-5.016347">
        <ele>17.427</ele>
        <time>2021-06-17T09:17:40Z</time>
      </trkpt>
      <trkpt lat="36.468678" lon="-5.015962">
        <ele>17.788</ele>
        <time>2021-06-17T09:17:42Z</time>
      </trkpt>
      <trkpt lat="36.468727" lon="-5.01577">
        <ele>18.377</ele>
        <time>2021-06-17T09:17:43Z</time>
      </trkpt>
      <trkpt lat="36.46882" lon="-5.015386">
        <ele>18.594</ele>
        <time>2021-06-17T09:17:45Z</time>
      </trkpt>
      <trkpt lat="36.468909" lon="-5.015004">
        <ele>19.057</ele>
        <time>2021-06-17T09:17:47Z</time>
      </trkpt>
      <trkpt lat="36.468997" lon="-5.014617">
        <ele>19.600</ele>
        <time>2021-06-17T09:17:49Z</time>
      </trkpt>
      <trkpt lat="36.469087" lon="-5.01423">
        <ele>20.220</ele>
        <time>2021-06-17T09:17:51Z</time>
      </trkpt>
      <trkpt lat="36.469138" lon="-5.014038">
        <ele>20.408</ele>
        <time>2021-06-17T09:17:52Z</time>
      </trkpt>
      <trkpt lat="36.469255" lon="-5.013662">
        <ele>21.352</ele>
        <time>2021-06-17T09:17:54Z</time>
      </trkpt>
      <trkpt lat="36.469321" lon="-5.013475">
        <ele>21.921</ele>
        <time>2021-06-17T09:17:55Z</time>
      </trkpt>
      <trkpt lat="36.469483" lon="-5.013106">
        <ele>22.315</ele>
        <time>2021-06-17T09:17:57Z</time>
      </trkpt>
      <trkpt lat="36.46958" lon="-5.012935">
        <ele>22.658</ele>
        <time>2021-06-17T09:17:58Z</time>
      </trkpt>
      <trkpt lat="36.469677" lon="-5.012763">
        <ele>23.038</ele>
        <time>2021-06-17T09:17:59Z</time>
      </trkpt>
      <trkpt lat="36.469777" lon="-5.012598">
        <ele>23.569</ele>
        <time>2021-06-17T09:18:00Z</time>
      </trkpt>
      <trkpt lat="36.469997" lon="-5.012304">
        <ele>24.128</ele>
        <time>2021-06-17T09:18:02Z</time>
      </trkpt>
      <trkpt lat="36.470239" lon="-5.012046">
        <ele>24.235</ele>
        <time>2021-06-17T09:18:04Z</time>
      </trkpt>
      <trkpt lat="36.470482" lon="-5.011812">
        <ele>23.736</ele>
        <time>2021-06-17T09:18:06Z</time>
      </trkpt>
      <trkpt lat="36.470742" lon="-5.011619">
        <ele>23.117</ele>
        <time>2021-06-17T09:18:08Z</time>
      </trkpt>
      <trkpt lat="36.471001" lon="-5.011424">
        <ele>22.318</ele>
        <time>2021-06-17T09:18:10Z</time>
      </trkpt>
      <trkpt lat="36.471141" lon="-5.011337">
        <ele>21.408</ele>
        <time>2021-06-17T09:18:11Z</time>
      </trkpt>
      <trkpt lat="36.471284" lon="-5.011251">
        <ele>20.990</ele>
        <time>2021-06-17T09:18:12Z</time>
      </trkpt>
      <trkpt lat="36.471565" lon="-5.011053">
        <ele>20.219</ele>
        <time>2021-06-17T09:18:14Z</time>
      </trkpt>
      <trkpt lat="36.471698" lon="-5.010938">
        <ele>19.773</ele>
        <time>2021-06-17T09:18:15Z</time>
      </trkpt>
      <trkpt lat="36.471823" lon="-5.010809">
        <ele>19.696</ele>
        <time>2021-06-17T09:18:16Z</time>
      </trkpt>
      <trkpt lat="36.472046" lon="-5.010513">
        <ele>19.296</ele>
        <time>2021-06-17T09:18:18Z</time>
      </trkpt>
      <trkpt lat="36.472238" lon="-5.010188">
        <ele>19.057</ele>
        <time>2021-06-17T09:18:20Z</time>
      </trkpt>
      <trkpt lat="36.472377" lon="-5.009823">
        <ele>19.286</ele>
        <time>2021-06-17T09:18:22Z</time>
      </trkpt>
      <trkpt lat="36.472432" lon="-5.00963">
        <ele>19.233</ele>
        <time>2021-06-17T09:18:23Z</time>
      </trkpt>
      <trkpt lat="36.472481" lon="-5.009434">
        <ele>19.857</ele>
        <time>2021-06-17T09:18:24Z</time>
      </trkpt>
      <trkpt lat="36.472551" lon="-5.00904">
        <ele>20.200</ele>
        <time>2021-06-17T09:18:26Z</time>
      </trkpt>
      <trkpt lat="36.472607" lon="-5.00864">
        <ele>20.520</ele>
        <time>2021-06-17T09:18:28Z</time>
      </trkpt>
      <trkpt lat="36.472634" lon="-5.008436">
        <ele>20.508</ele>
        <time>2021-06-17T09:18:29Z</time>
      </trkpt>
      <trkpt lat="36.472665" lon="-5.008232">
        <ele>20.132</ele>
        <time>2021-06-17T09:18:30Z</time>
      </trkpt>
      <trkpt lat="36.472726" lon="-5.007823">
        <ele>20.211</ele>
        <time>2021-06-17T09:18:32Z</time>
      </trkpt>
      <trkpt lat="36.472751" lon="-5.007619">
        <ele>20.225</ele>
        <time>2021-06-17T09:18:33Z</time>
      </trkpt>
      <trkpt lat="36.472808" lon="-5.007213">
        <ele>20.628</ele>
        <time>2021-06-17T09:18:35Z</time>
      </trkpt>
      <trkpt lat="36.472862" lon="-5.006803">
        <ele>21.378</ele>
        <time>2021-06-17T09:18:37Z</time>
      </trkpt>
      <trkpt lat="36.472889" lon="-5.006597">
        <ele>22.129</ele>
        <time>2021-06-17T09:18:38Z</time>
      </trkpt>
      <trkpt lat="36.472919" lon="-5.006391">
        <ele>22.518</ele>
        <time>2021-06-17T09:18:39Z</time>
      </trkpt>
      <trkpt lat="36.472951" lon="-5.006185">
        <ele>23.095</ele>
        <time>2021-06-17T09:18:40Z</time>
      </trkpt>
      <trkpt lat="36.473017" lon="-5.005771">
        <ele>23.565</ele>
        <time>2021-06-17T09:18:42Z</time>
      </trkpt>
      <trkpt lat="36.473086" lon="-5.00536">
        <ele>24.268</ele>
        <time>2021-06-17T09:18:44Z</time>
      </trkpt>
      <trkpt lat="36.473123" lon="-5.005155">
        <ele>24.814</ele>
        <time>2021-06-17T09:18:45Z</time>
      </trkpt>
      <trkpt lat="36.473213" lon="-5.004746">
        <ele>25.908</ele>
        <time>2021-06-17T09:18:47Z</time>
      </trkpt>
      <trkpt lat="36.473267" lon="-5.004545">
        <ele>26.323</ele>
        <time>2021-06-17T09:18:48Z</time>
      </trkpt>
      <trkpt lat="36.473328" lon="-5.004345">
        <ele>26.712</ele>
        <time>2021-06-17T09:18:49Z</time>
      </trkpt>
      <trkpt lat="36.473393" lon="-5.004147">
        <ele>26.686</ele>
        <time>2021-06-17T09:18:50Z</time>
      </trkpt>
      <trkpt lat="36.47346" lon="-5.003951">
        <ele>26.479</ele>
        <time>2021-06-17T09:18:51Z</time>
      </trkpt>
      <trkpt lat="36.473604" lon="-5.003567">
        <ele>25.929</ele>
        <time>2021-06-17T09:18:53Z</time>
      </trkpt>
      <trkpt lat="36.473753" lon="-5.003193">
        <ele>26.040</ele>
        <time>2021-06-17T09:18:55Z</time>
      </trkpt>
      <trkpt lat="36.473822" lon="-5.003003">
        <ele>26.099</ele>
        <time>2021-06-17T09:18:56Z</time>
      </trkpt>
      <trkpt lat="36.473962" lon="-5.002629">
        <ele>25.946</ele>
        <time>2021-06-17T09:18:58Z</time>
      </trkpt>
      <trkpt lat="36.474105" lon="-5.002245">
        <ele>25.646</ele>
        <time>2021-06-17T09:19:00Z</time>
      </trkpt>
      <trkpt lat="36.474253" lon="-5.001858">
        <ele>25.688</ele>
        <time>2021-06-17T09:19:02Z</time>
      </trkpt>
      <trkpt lat="36.474331" lon="-5.001662">
        <ele>25.716</ele>
        <time>2021-06-17T09:19:03Z</time>
      </trkpt>
      <trkpt lat="36.474501" lon="-5.001282">
        <ele>25.708</ele>
        <time>2021-06-17T09:19:05Z</time>
      </trkpt>
      <trkpt lat="36.47468" lon="-5.000912">
        <ele>25.241</ele>
        <time>2021-06-17T09:19:07Z</time>
      </trkpt>
      <trkpt lat="36.474884" lon="-5.000558">
        <ele>24.590</ele>
        <time>2021-06-17T09:19:09Z</time>
      </trkpt>
      <trkpt lat="36.475102" lon="-5.000236">
        <ele>23.824</ele>
        <time>2021-06-17T09:19:11Z</time>
      </trkpt>
      <trkpt lat="36.475207" lon="-5.00007">
        <ele>23.237</ele>
        <time>2021-06-17T09:19:12Z</time>
      </trkpt>
      <trkpt lat="36.475311" lon="-4.999903">
        <ele>22.867</ele>
        <time>2021-06-17T09:19:13Z</time>
      </trkpt>
      <trkpt lat="36.475418" lon="-4.99974">
        <ele>21.938</ele>
        <time>2021-06-17T09:19:14Z</time>
      </trkpt>
      <trkpt lat="36.475633" lon="-4.999408">
        <ele>21.197</ele>
        <time>2021-06-17T09:19:16Z</time>
      </trkpt>
      <trkpt lat="36.475845" lon="-4.999066">
        <ele>20.484</ele>
        <time>2021-06-17T09:19:18Z</time>
      </trkpt>
      <trkpt lat="36.47606" lon="-4.998732">
        <ele>19.577</ele>
        <time>2021-06-17T09:19:20Z</time>
      </trkpt>
      <trkpt lat="36.476167" lon="-4.998568">
        <ele>18.961</ele>
        <time>2021-06-17T09:19:21Z</time>
      </trkpt>
      <trkpt lat="36.476272" lon="-4.998403">
        <ele>18.827</ele>
        <time>2021-06-17T09:19:22Z</time>
      </trkpt>
      <trkpt lat="36.476377" lon="-4.99824">
        <ele>18.508</ele>
        <time>2021-06-17T09:19:23Z</time>
      </trkpt>
      <trkpt lat="36.476589" lon="-4.997917">
        <ele>18.574</ele>
        <time>2021-06-17T09:19:25Z</time>
      </trkpt>
      <trkpt lat="36.476797" lon="-4.997589">
        <ele>18.913</ele>
        <time>2021-06-17T09:19:27Z</time>
      </trkpt>
      <trkpt lat="36.476903" lon="-4.997424">
        <ele>19.647</ele>
        <time>2021-06-17T09:19:28Z</time>
      </trkpt>
      <trkpt lat="36.477117" lon="-4.997101">
        <ele>20.530</ele>
        <time>2021-06-17T09:19:30Z</time>
      </trkpt>
      <trkpt lat="36.477221" lon="-4.996937">
        <ele>21.180</ele>
        <time>2021-06-17T09:19:31Z</time>
      </trkpt>
      <trkpt lat="36.477422" lon="-4.99662">
        <ele>21.721</ele>
        <time>2021-06-17T09:19:33Z</time>
      </trkpt>
      <trkpt lat="36.477518" lon="-4.996465">
        <ele>22.120</ele>
        <time>2021-06-17T09:19:34Z</time>
      </trkpt>
      <trkpt lat="36.477702" lon="-4.996165">
        <ele>22.767</ele>
        <time>2021-06-17T09:19:36Z</time>
      </trkpt>
      <trkpt lat="36.477792" lon="-4.99602">
        <ele>23.275</ele>
        <time>2021-06-17T09:19:37Z</time>
      </trkpt>
      <trkpt lat="36.477885" lon="-4.995874">
        <ele>23.228</ele>
        <time>2021-06-17T09:19:38Z</time>
      </trkpt>
      <trkpt lat="36.478082" lon="-4.995574">
        <ele>23.220</ele>
        <time>2021-06-17T09:19:40Z</time>
      </trkpt>
      <trkpt lat="36.478182" lon="-4.995417">
        <ele>23.208</ele>
        <time>2021-06-17T09:19:41Z</time>
      </trkpt>
      <trkpt lat="36.478388" lon="-4.995098">
        <ele>23.074</ele>
        <time>2021-06-17T09:19:43Z</time>
      </trkpt>
      <trkpt lat="36.478494" lon="-4.994935">
        <ele>23.113</ele>
        <time>2021-06-17T09:19:44Z</time>
      </trkpt>
      <trkpt lat="36.478719" lon="-4.994619">
        <ele>23.637</ele>
        <time>2021-06-17T09:19:46Z</time>
      </trkpt>
      <trkpt lat="36.478896" lon="-4.994286">
        <ele>23.750</ele>
        <time>2021-06-17T09:19:48Z</time>
      </trkpt>
      <trkpt lat="36.478989" lon="-4.994119">
        <ele>24.160</ele>
        <time>2021-06-17T09:19:49Z</time>
      </trkpt>
      <trkpt lat="36.484728" lon="-4.982669">
        <ele>23.971</ele>
        <time>2021-06-17T09:20:56Z</time>
      </trkpt>
      <trkpt lat="36.48476" lon="-4.982356">
        <ele>23.820</ele>
        <time>2021-06-17T09:20:58Z</time>
      </trkpt>
      <trkpt lat="36.484799" lon="-4.98206">
        <ele>23.847</ele>
        <time>2021-06-17T09:21:00Z</time>
      </trkpt>
      <trkpt lat="36.48482" lon="-4.981924">
        <ele>23.867</ele>
        <time>2021-06-17T09:21:01Z</time>
      </trkpt>
      <trkpt lat="36.484854" lon="-4.981658">
        <ele>23.881</ele>
        <time>2021-06-17T09:21:03Z</time>
      </trkpt>
      <trkpt lat="36.484862" lon="-4.981541">
        <ele>23.819</ele>
        <time>2021-06-17T09:21:04Z</time>
      </trkpt>
      <trkpt lat="36.484866" lon="-4.981436">
        <ele>23.808</ele>
        <time>2021-06-17T09:21:05Z</time>
      </trkpt>
      <trkpt lat="36.484837" lon="-4.981246">
        <ele>23.853</ele>
        <time>2021-06-17T09:21:07Z</time>
      </trkpt>
      <trkpt lat="36.484736" lon="-4.981117">
        <ele>23.842</ele>
        <time>2021-06-17T09:21:09Z</time>
      </trkpt>
      <trkpt lat="36.484628" lon="-4.981062">
        <ele>23.886</ele>
        <time>2021-06-17T09:21:11Z</time>
      </trkpt>
      <trkpt lat="36.484572" lon="-4.981066">
        <ele>23.879</ele>
        <time>2021-06-17T09:21:13Z</time>
      </trkpt>
      <trkpt lat="36.484514" lon="-4.981067">
        <ele>23.839</ele>
        <time>2021-06-17T09:21:16Z</time>
      </trkpt>
      <trkpt lat="36.484467" lon="-4.981063">
        <ele>23.490</ele>
        <time>2021-06-17T09:21:22Z</time>
      </trkpt>
      <trkpt lat="36.484415" lon="-4.981061">
        <ele>23.049</ele>
        <time>2021-06-17T09:21:27Z</time>
      </trkpt>
      <trkpt lat="36.484323" lon="-4.981027">
        <ele>22.856</ele>
        <time>2021-06-17T09:21:29Z</time>
      </trkpt>
      <trkpt lat="36.484267" lon="-4.980972">
        <ele>22.799</ele>
        <time>2021-06-17T09:21:30Z</time>
      </trkpt>
      <trkpt lat="36.484224" lon="-4.980824">
        <ele>22.607</ele>
        <time>2021-06-17T09:21:32Z</time>
      </trkpt>
      <trkpt lat="36.484289" lon="-4.980706">
        <ele>22.627</ele>
        <time>2021-06-17T09:21:34Z</time>
      </trkpt>
      <trkpt lat="36.484345" lon="-4.98068">
        <ele>22.608</ele>
        <time>2021-06-17T09:21:35Z</time>
      </trkpt>
      <trkpt lat="36.484458" lon="-4.980696">
        <ele>22.646</ele>
        <time>2021-06-17T09:21:37Z</time>
      </trkpt>
      <trkpt lat="36.484514" lon="-4.980719">
        <ele>22.645</ele>
        <time>2021-06-17T09:21:38Z</time>
      </trkpt>
      <trkpt lat="36.484644" lon="-4.980788">
        <ele>22.699</ele>
        <time>2021-06-17T09:21:40Z</time>
      </trkpt>
      <trkpt lat="36.484725" lon="-4.98082">
        <ele>22.632</ele>
        <time>2021-06-17T09:21:41Z</time>
      </trkpt>
      <trkpt lat="36.484929" lon="-4.980871">
        <ele>22.662</ele>
        <time>2021-06-17T09:21:43Z</time>
      </trkpt>
      <trkpt lat="36.485164" lon="-4.980934">
        <ele>22.683</ele>
        <time>2021-06-17T09:21:45Z</time>
      </trkpt>
      <trkpt lat="36.485414" lon="-4.981022">
        <ele>22.612</ele>
        <time>2021-06-17T09:21:47Z</time>
      </trkpt>
      <trkpt lat="36.485526" lon="-4.98108">
        <ele>22.649</ele>
        <time>2021-06-17T09:21:48Z</time>
      </trkpt>
      <trkpt lat="36.485736" lon="-4.981198">
        <ele>22.676</ele>
        <time>2021-06-17T09:21:50Z</time>
      </trkpt>
      <trkpt lat="36.485839" lon="-4.981252">
        <ele>22.690</ele>
        <time>2021-06-17T09:21:51Z</time>
      </trkpt>
      <trkpt lat="36.485937" lon="-4.981308">
        <ele>22.619</ele>
        <time>2021-06-17T09:21:52Z</time>
      </trkpt>
      <trkpt lat="36.486105" lon="-4.981397">
        <ele>22.608</ele>
        <time>2021-06-17T09:21:54Z</time>
      </trkpt>
      <trkpt lat="36.486241" lon="-4.981472">
        <ele>22.684</ele>
        <time>2021-06-17T09:21:56Z</time>
      </trkpt>
      <trkpt lat="36.486297" lon="-4.981506">
        <ele>22.653</ele>
        <time>2021-06-17T09:21:57Z</time>
      </trkpt>
      <trkpt lat="36.486346" lon="-4.981531">
        <ele>22.617</ele>
        <time>2021-06-17T09:21:58Z</time>
      </trkpt>
      <trkpt lat="36.486435" lon="-4.98155">
        <ele>22.670</ele>
        <time>2021-06-17T09:22:00Z</time>
      </trkpt>
      <trkpt lat="36.486548" lon="-4.981531">
        <ele>22.610</ele>
        <time>2021-06-17T09:22:02Z</time>
      </trkpt>
      <trkpt lat="36.486613" lon="-4.981504">
        <ele>22.621</ele>
        <time>2021-06-17T09:22:03Z</time>
      </trkpt>
      <trkpt lat="36.486679" lon="-4.981473">
        <ele>22.650</ele>
        <time>2021-06-17T09:22:04Z</time>
      </trkpt>
      <trkpt lat="36.486812" lon="-4.981441">
        <ele>22.677</ele>
        <time>2021-06-17T09:22:06Z</time>
      </trkpt>
      <trkpt lat="36.48692" lon="-4.981478">
        <ele>22.629</ele>
        <time>2021-06-17T09:22:08Z</time>
      </trkpt>
      <trkpt lat="36.486959" lon="-4.981521">
        <ele>22.600</ele>
        <time>2021-06-17T09:22:09Z</time>
      </trkpt>
      <trkpt lat="36.486991" lon="-4.98158">
        <ele>22.620</ele>
        <time>2021-06-17T09:22:10Z</time>
      </trkpt>
      <trkpt lat="36.487016" lon="-4.981644">
        <ele>22.608</ele>
        <time>2021-06-17T09:22:11Z</time>
      </trkpt>
      <trkpt lat="36.487059" lon="-4.981793">
        <ele>22.669</ele>
        <time>2021-06-17T09:22:13Z</time>
      </trkpt>
      <trkpt lat="36.487118" lon="-4.981939">
        <ele>22.668</ele>
        <time>2021-06-17T09:22:15Z</time>
      </trkpt>
      <trkpt lat="36.487228" lon="-4.982039">
        <ele>22.672</ele>
        <time>2021-06-17T09:22:17Z</time>
      </trkpt>
      <trkpt lat="36.487291" lon="-4.982069">
        <ele>22.695</ele>
        <time>2021-06-17T09:22:18Z</time>
      </trkpt>
      <trkpt lat="36.487422" lon="-4.982131">
        <ele>22.615</ele>
        <time>2021-06-17T09:22:20Z</time>
      </trkpt>
      <trkpt lat="36.48749" lon="-4.982167">
        <ele>22.666</ele>
        <time>2021-06-17T09:22:21Z</time>
      </trkpt>
      <trkpt lat="36.487561" lon="-4.982205">
        <ele>22.675</ele>
        <time>2021-06-17T09:22:22Z</time>
      </trkpt>
      <trkpt lat="36.487708" lon="-4.982279">
        <ele>22.622</ele>
        <time>2021-06-17T09:22:24Z</time>
      </trkpt>
      <trkpt lat="36.487867" lon="-4.982354">
        <ele>21.144</ele>
        <time>2021-06-17T09:22:26Z</time>
      </trkpt>
      <trkpt lat="36.487947" lon="-4.982397">
        <ele>19.905</ele>
        <time>2021-06-17T09:22:27Z</time>
      </trkpt>
      <trkpt lat="36.48812" lon="-4.982488">
        <ele>18.815</ele>
        <time>2021-06-17T09:22:29Z</time>
      </trkpt>
      <trkpt lat="36.48829" lon="-4.982579">
        <ele>18.208</ele>
        <time>2021-06-17T09:22:31Z</time>
      </trkpt>
      <trkpt lat="36.488449" lon="-4.982651">
        <ele>18.081</ele>
        <time>2021-06-17T09:22:33Z</time>
      </trkpt>
      <trkpt lat="36.488525" lon="-4.982687">
        <ele>17.660</ele>
        <time>2021-06-17T09:22:34Z</time>
      </trkpt>
      <trkpt lat="36.488662" lon="-4.982763">
        <ele>17.134</ele>
        <time>2021-06-17T09:22:36Z</time>
      </trkpt>
      <trkpt lat="36.488787" lon="-4.982823">
        <ele>17.427</ele>
        <time>2021-06-17T09:22:38Z</time>
      </trkpt>
      <trkpt lat="36.488898" lon="-4.98288">
        <ele>17.447</ele>
        <time>2021-06-17T09:22:40Z</time>
      </trkpt>
      <trkpt lat="36.489005" lon="-4.982941">
        <ele>17.518</ele>
        <time>2021-06-17T09:22:42Z</time>
      </trkpt>
      <trkpt lat="36.489124" lon="-4.983007">
        <ele>17.567</ele>
        <time>2021-06-17T09:22:44Z</time>
      </trkpt>
      <trkpt lat="36.489255" lon="-4.983074">
        <ele>17.574</ele>
        <time>2021-06-17T09:22:46Z</time>
      </trkpt>
      <trkpt lat="36.489322" lon="-4.983106">
        <ele>17.353</ele>
        <time>2021-06-17T09:22:47Z</time>
      </trkpt>
      <trkpt lat="36.489393" lon="-4.983139">
        <ele>17.504</ele>
        <time>2021-06-17T09:22:48Z</time>
      </trkpt>
      <trkpt lat="36.48954" lon="-4.983213">
        <ele>17.814</ele>
        <time>2021-06-17T09:22:50Z</time>
      </trkpt>
      <trkpt lat="36.489612" lon="-4.983253">
        <ele>18.308</ele>
        <time>2021-06-17T09:22:51Z</time>
      </trkpt>
      <trkpt lat="36.489686" lon="-4.983294">
        <ele>18.952</ele>
        <time>2021-06-17T09:22:52Z</time>
      </trkpt>
      <trkpt lat="36.489838" lon="-4.983377">
        <ele>19.331</ele>
        <time>2021-06-17T09:22:54Z</time>
      </trkpt>
      <trkpt lat="36.48992" lon="-4.98342">
        <ele>19.965</ele>
        <time>2021-06-17T09:22:55Z</time>
      </trkpt>
      <trkpt lat="36.490083" lon="-4.983503">
        <ele>20.068</ele>
        <time>2021-06-17T09:22:57Z</time>
      </trkpt>
      <trkpt lat="36.490239" lon="-4.983589">
        <ele>20.118</ele>
        <time>2021-06-17T09:22:59Z</time>
      </trkpt>
      <trkpt lat="36.490394" lon="-4.98367">
        <ele>20.439</ele>
        <time>2021-06-17T09:23:01Z</time>
      </trkpt>
      <trkpt lat="36.49047" lon="-4.98371">
        <ele>21.068</ele>
        <time>2021-06-17T09:23:02Z</time>
      </trkpt>
      <trkpt lat="36.490626" lon="-4.983791">
        <ele>21.675</ele>
        <time>2021-06-17T09:23:04Z</time>
      </trkpt>
      <trkpt lat="36.490783" lon="-4.983873">
        <ele>22.194</ele>
        <time>2021-06-17T09:23:06Z</time>
      </trkpt>
      <trkpt lat="36.490956" lon="-4.983951">
        <ele>22.557</ele>
        <time>2021-06-17T09:23:08Z</time>
      </trkpt>
      <trkpt lat="36.491046" lon="-4.98399">
        <ele>22.922</ele>
        <time>2021-06-17T09:23:09Z</time>
      </trkpt>
      <trkpt lat="36.491233" lon="-4.984083">
        <ele>23.308</ele>
        <time>2021-06-17T09:23:11Z</time>
      </trkpt>
      <trkpt lat="36.491326" lon="-4.984132">
        <ele>23.796</ele>
        <time>2021-06-17T09:23:12Z</time>
      </trkpt>
      <trkpt lat="36.491416" lon="-4.984181">
        <ele>24.315</ele>
        <time>2021-06-17T09:23:13Z</time>
      </trkpt>
      <trkpt lat="36.491508" lon="-4.984232">
        <ele>24.539</ele>
        <time>2021-06-17T09:23:14Z</time>
      </trkpt>
      <trkpt lat="36.491598" lon="-4.984282">
        <ele>24.942</ele>
        <time>2021-06-17T09:23:15Z</time>
      </trkpt>
      <trkpt lat="36.491769" lon="-4.98437">
        <ele>25.352</ele>
        <time>2021-06-17T09:23:17Z</time>
      </trkpt>
      <trkpt lat="36.491853" lon="-4.984414">
        <ele>25.743</ele>
        <time>2021-06-17T09:23:18Z</time>
      </trkpt>
      <trkpt lat="36.491937" lon="-4.984459">
        <ele>25.952</ele>
        <time>2021-06-17T09:23:19Z</time>
      </trkpt>
      <trkpt lat="36.492023" lon="-4.984501">
        <ele>26.479</ele>
        <time>2021-06-17T09:23:20Z</time>
      </trkpt>
      <trkpt lat="36.492191" lon="-4.984584">
        <ele>27.199</ele>
        <time>2021-06-17T09:23:22Z</time>
      </trkpt>
      <trkpt lat="36.492272" lon="-4.984625">
        <ele>27.507</ele>
        <time>2021-06-17T09:23:23Z</time>
      </trkpt>
      <trkpt lat="36.492349" lon="-4.984664">
        <ele>27.727</ele>
        <time>2021-06-17T09:23:24Z</time>
      </trkpt>
      <trkpt lat="36.492492" lon="-4.984753">
        <ele>28.308</ele>
        <time>2021-06-17T09:23:26Z</time>
      </trkpt>
      <trkpt lat="36.492565" lon="-4.9848">
        <ele>28.736</ele>
        <time>2021-06-17T09:23:27Z</time>
      </trkpt>
      <trkpt lat="36.492704" lon="-4.9849">
        <ele>28.875</ele>
        <time>2021-06-17T09:23:29Z</time>
      </trkpt>
      <trkpt lat="36.492838" lon="-4.98501">
        <ele>29.379</ele>
        <time>2021-06-17T09:23:31Z</time>
      </trkpt>
      <trkpt lat="36.492909" lon="-4.985074">
        <ele>29.222</ele>
        <time>2021-06-17T09:23:32Z</time>
      </trkpt>
      <trkpt lat="36.493043" lon="-4.985197">
        <ele>29.642</ele>
        <time>2021-06-17T09:23:34Z</time>
      </trkpt>
      <trkpt lat="36.493169" lon="-4.98533">
        <ele>29.863</ele>
        <time>2021-06-17T09:23:36Z</time>
      </trkpt>
      <trkpt lat="36.493278" lon="-4.985459">
        <ele>30.432</ele>
        <time>2021-06-17T09:23:38Z</time>
      </trkpt>
      <trkpt lat="36.493386" lon="-4.985598">
        <ele>30.679</ele>
        <time>2021-06-17T09:23:40Z</time>
      </trkpt>
      <trkpt lat="36.493493" lon="-4.985761">
        <ele>30.945</ele>
        <time>2021-06-17T09:23:42Z</time>
      </trkpt>
      <trkpt lat="36.493544" lon="-4.98585">
        <ele>31.447</ele>
        <time>2021-06-17T09:23:43Z</time>
      </trkpt>
      <trkpt lat="36.493648" lon="-4.986045">
        <ele>31.511</ele>
        <time>2021-06-17T09:23:45Z</time>
      </trkpt>
      <trkpt lat="36.4937" lon="-4.986148">
        <ele>32.208</ele>
        <time>2021-06-17T09:23:46Z</time>
      </trkpt>
      <trkpt lat="36.493798" lon="-4.986377">
        <ele>32.581</ele>
        <time>2021-06-17T09:23:48Z</time>
      </trkpt>
      <trkpt lat="36.493887" lon="-4.986631">
        <ele>33.110</ele>
        <time>2021-06-17T09:23:50Z</time>
      </trkpt>
      <trkpt lat="36.493921" lon="-4.986767">
        <ele>33.434</ele>
        <time>2021-06-17T09:23:51Z</time>
      </trkpt>
      <trkpt lat="36.493954" lon="-4.986906">
        <ele>33.937</ele>
        <time>2021-06-17T09:23:52Z</time>
      </trkpt>
      <trkpt lat="36.494009" lon="-4.987195">
        <ele>34.357</ele>
        <time>2021-06-17T09:23:54Z</time>
      </trkpt>
      <trkpt lat="36.494057" lon="-4.987488">
        <ele>35.348</ele>
        <time>2021-06-17T09:23:56Z</time>
      </trkpt>
      <trkpt lat="36.494089" lon="-4.987776">
        <ele>35.837</ele>
        <time>2021-06-17T09:23:58Z</time>
      </trkpt>
      <trkpt lat="36.494124" lon="-4.988068">
        <ele>37.174</ele>
        <time>2021-06-17T09:24:00Z</time>
      </trkpt>
      <trkpt lat="36.494155" lon="-4.988363">
        <ele>37.982</ele>
        <time>2021-06-17T09:24:02Z</time>
      </trkpt>
      <trkpt lat="36.494196" lon="-4.988673">
        <ele>38.743</ele>
        <time>2021-06-17T09:24:04Z</time>
      </trkpt>
      <trkpt lat="36.494216" lon="-4.988827">
        <ele>39.917</ele>
        <time>2021-06-17T09:24:05Z</time>
      </trkpt>
      <trkpt lat="36.494237" lon="-4.98898">
        <ele>40.208</ele>
        <time>2021-06-17T09:24:06Z</time>
      </trkpt>
      <trkpt lat="36.494274" lon="-4.989277">
        <ele>40.775</ele>
        <time>2021-06-17T09:24:08Z</time>
      </trkpt>
      <trkpt lat="36.494298" lon="-4.989426">
        <ele>40.644</ele>
        <time>2021-06-17T09:24:09Z</time>
      </trkpt>
      <trkpt lat="36.494317" lon="-4.98957">
        <ele>40.588</ele>
        <time>2021-06-17T09:24:10Z</time>
      </trkpt>
      <trkpt lat="36.494344" lon="-4.98985">
        <ele>41.241</ele>
        <time>2021-06-17T09:24:12Z</time>
      </trkpt>
      <trkpt lat="36.494361" lon="-4.989975">
        <ele>41.821</ele>
        <time>2021-06-17T09:24:13Z</time>
      </trkpt>
      <trkpt lat="36.494388" lon="-4.990193">
        <ele>42.272</ele>
        <time>2021-06-17T09:24:15Z</time>
      </trkpt>
      <trkpt lat="36.494405" lon="-4.990406">
        <ele>42.711</ele>
        <time>2021-06-17T09:24:17Z</time>
      </trkpt>
      <trkpt lat="36.494416" lon="-4.990513">
        <ele>43.088</ele>
        <time>2021-06-17T09:24:18Z</time>
      </trkpt>
      <trkpt lat="36.494439" lon="-4.990743">
        <ele>44.335</ele>
        <time>2021-06-17T09:24:20Z</time>
      </trkpt>
      <trkpt lat="36.494472" lon="-4.990988">
        <ele>45.286</ele>
        <time>2021-06-17T09:24:22Z</time>
      </trkpt>
      <trkpt lat="36.494506" lon="-4.991211">
        <ele>45.414</ele>
        <time>2021-06-17T09:24:24Z</time>
      </trkpt>
      <trkpt lat="36.49452" lon="-4.991314">
        <ele>46.008</ele>
        <time>2021-06-17T09:24:25Z</time>
      </trkpt>
      <trkpt lat="36.494535" lon="-4.991507">
        <ele>46.770</ele>
        <time>2021-06-17T09:24:27Z</time>
      </trkpt>
      <trkpt lat="36.494546" lon="-4.991594">
        <ele>47.389</ele>
        <time>2021-06-17T09:24:28Z</time>
      </trkpt>
      <trkpt lat="36.494558" lon="-4.991671">
        <ele>47.983</ele>
        <time>2021-06-17T09:24:29Z</time>
      </trkpt>
      <trkpt lat="36.494577" lon="-4.991816">
        <ele>48.796</ele>
        <time>2021-06-17T09:24:31Z</time>
      </trkpt>
      <trkpt lat="36.49459" lon="-4.991966">
        <ele>49.546</ele>
        <time>2021-06-17T09:24:33Z</time>
      </trkpt>
      <trkpt lat="36.4946" lon="-4.992046">
        <ele>50.257</ele>
        <time>2021-06-17T09:24:34Z</time>
      </trkpt>
      <trkpt lat="36.494613" lon="-4.992122">
        <ele>50.896</ele>
        <time>2021-06-17T09:24:35Z</time>
      </trkpt>
      <trkpt lat="36.494657" lon="-4.992246">
        <ele>50.873</ele>
        <time>2021-06-17T09:24:37Z</time>
      </trkpt>
      <trkpt lat="36.494681" lon="-4.992298">
        <ele>50.547</ele>
        <time>2021-06-17T09:24:38Z</time>
      </trkpt>
      <trkpt lat="36.494716" lon="-4.992354">
        <ele>50.529</ele>
        <time>2021-06-17T09:24:40Z</time>
      </trkpt>
      <trkpt lat="36.494756" lon="-4.9924">
        <ele>50.221</ele>
        <time>2021-06-17T09:24:42Z</time>
      </trkpt>
      <trkpt lat="36.494801" lon="-4.992421">
        <ele>49.908</ele>
        <time>2021-06-17T09:24:44Z</time>
      </trkpt>
      <trkpt lat="36.494828" lon="-4.992467">
        <ele>48.511</ele>
        <time>2021-06-17T09:25:34Z</time>
      </trkpt>
      <trkpt lat="36.49486" lon="-4.992534">
        <ele>47.730</ele>
        <time>2021-06-17T09:25:41Z</time>
      </trkpt>
      <trkpt lat="36.494902" lon="-4.992608">
        <ele>47.274</ele>
        <time>2021-06-17T09:25:43Z</time>
      </trkpt>
      <trkpt lat="36.494957" lon="-4.992676">
        <ele>46.917</ele>
        <time>2021-06-17T09:25:45Z</time>
      </trkpt>
      <trkpt lat="36.495016" lon="-4.992718">
        <ele>46.787</ele>
        <time>2021-06-17T09:25:46Z</time>
      </trkpt>
      <trkpt lat="36.495169" lon="-4.992779">
        <ele>46.658</ele>
        <time>2021-06-17T09:25:48Z</time>
      </trkpt>
      <trkpt lat="36.495323" lon="-4.992812">
        <ele>46.537</ele>
        <time>2021-06-17T09:25:50Z</time>
      </trkpt>
      <trkpt lat="36.495399" lon="-4.992835">
        <ele>46.534</ele>
        <time>2021-06-17T09:25:51Z</time>
      </trkpt>
      <trkpt lat="36.495478" lon="-4.992858">
        <ele>46.562</ele>
        <time>2021-06-17T09:25:52Z</time>
      </trkpt>
      <trkpt lat="36.495562" lon="-4.992884">
        <ele>46.583</ele>
        <time>2021-06-17T09:25:53Z</time>
      </trkpt>
      <trkpt lat="36.495723" lon="-4.992935">
        <ele>46.511</ele>
        <time>2021-06-17T09:25:55Z</time>
      </trkpt>
      <trkpt lat="36.495872" lon="-4.99298">
        <ele>46.508</ele>
        <time>2021-06-17T09:25:57Z</time>
      </trkpt>
      <trkpt lat="36.495999" lon="-4.993011">
        <ele>46.573</ele>
        <time>2021-06-17T09:25:59Z</time>
      </trkpt>
      <trkpt lat="36.496055" lon="-4.993018">
        <ele>46.582</ele>
        <time>2021-06-17T09:26:00Z</time>
      </trkpt>
      <trkpt lat="36.496162" lon="-4.992989">
        <ele>46.556</ele>
        <time>2021-06-17T09:26:02Z</time>
      </trkpt>
      <trkpt lat="36.496251" lon="-4.992995">
        <ele>46.519</ele>
        <time>2021-06-17T09:26:04Z</time>
      </trkpt>
      <trkpt lat="36.496288" lon="-4.993032">
        <ele>46.559</ele>
        <time>2021-06-17T09:26:05Z</time>
      </trkpt>
      <trkpt lat="36.496314" lon="-4.993081">
        <ele>46.530</ele>
        <time>2021-06-17T09:26:06Z</time>
      </trkpt>
      <trkpt lat="36.49634" lon="-4.993192">
        <ele>46.529</ele>
        <time>2021-06-17T09:26:08Z</time>
      </trkpt>
      <trkpt lat="36.496322" lon="-4.993257">
        <ele>46.516</ele>
        <time>2021-06-17T09:26:09Z</time>
      </trkpt>
      <trkpt lat="36.496285" lon="-4.993317">
        <ele>46.569</ele>
        <time>2021-06-17T09:26:10Z</time>
      </trkpt>
      <trkpt lat="36.496179" lon="-4.993412">
        <ele>46.504</ele>
        <time>2021-06-17T09:26:12Z</time>
      </trkpt>
      <trkpt lat="36.496115" lon="-4.99345">
        <ele>46.524</ele>
        <time>2021-06-17T09:26:13Z</time>
      </trkpt>
      <trkpt lat="36.496058" lon="-4.993483">
        <ele>46.508</ele>
        <time>2021-06-17T09:26:14Z</time>
      </trkpt>
      <trkpt lat="36.496022" lon="-4.993532">
        <ele>46.523</ele>
        <time>2021-06-17T09:26:15Z</time>
      </trkpt>
      <trkpt lat="36.495996" lon="-4.993651">
        <ele>46.532</ele>
        <time>2021-06-17T09:26:17Z</time>
      </trkpt>
      <trkpt lat="36.495951" lon="-4.993763">
        <ele>46.566</ele>
        <time>2021-06-17T09:26:19Z</time>
      </trkpt>
      <trkpt lat="36.495927" lon="-4.993812">
        <ele>46.579</ele>
        <time>2021-06-17T09:26:20Z</time>
      </trkpt>
      <trkpt lat="36.495876" lon="-4.993913">
        <ele>46.549</ele>
        <time>2021-06-17T09:26:22Z</time>
      </trkpt>
      <trkpt lat="36.495848" lon="-4.993963">
        <ele>46.510</ele>
        <time>2021-06-17T09:26:23Z</time>
      </trkpt>
      <trkpt lat="36.495822" lon="-4.994009">
        <ele>46.529</ele>
        <time>2021-06-17T09:26:24Z</time>
      </trkpt>
      <trkpt lat="36.495791" lon="-4.994078">
        <ele>46.546</ele>
        <time>2021-06-17T09:26:26Z</time>
      </trkpt>
      <trkpt lat="36.495757" lon="-4.994181">
        <ele>46.556</ele>
        <time>2021-06-17T09:26:28Z</time>
      </trkpt>
      <trkpt lat="36.495697" lon="-4.99435">
        <ele>46.559</ele>
        <time>2021-06-17T09:26:30Z</time>
      </trkpt>
      <trkpt lat="36.495661" lon="-4.994444">
        <ele>46.514</ele>
        <time>2021-06-17T09:26:31Z</time>
      </trkpt>
      <trkpt lat="36.495593" lon="-4.99463">
        <ele>46.508</ele>
        <time>2021-06-17T09:26:33Z</time>
      </trkpt>
      <trkpt lat="36.495538" lon="-4.994784">
        <ele>46.522</ele>
        <time>2021-06-17T09:26:35Z</time>
      </trkpt>
      <trkpt lat="36.495505" lon="-4.994892">
        <ele>46.511</ele>
        <time>2021-06-17T09:26:37Z</time>
      </trkpt>
      <trkpt lat="36.495546" lon="-4.994916">
        <ele>46.575</ele>
        <time>2021-06-17T09:27:17Z</time>
      </trkpt>
      <trkpt lat="36.495524" lon="-4.994966">
        <ele>50.358</ele>
        <time>2021-06-17T09:29:19Z</time>
      </trkpt>
      <trkpt lat="36.495558" lon="-4.995012">
        <ele>52.588</ele>
        <time>2021-06-17T09:29:22Z</time>
      </trkpt>
      <trkpt lat="36.495606" lon="-4.994987">
        <ele>53.869</ele>
        <time>2021-06-17T09:29:26Z</time>
      </trkpt>
      <trkpt lat="36.495597" lon="-4.995047">
        <ele>54.758</ele>
        <time>2021-06-17T09:29:47Z</time>
      </trkpt>
      <trkpt lat="36.495555" lon="-4.995067">
        <ele>55.245</ele>
        <time>2021-06-17T09:30:08Z</time>
      </trkpt>
      <trkpt lat="36.495596" lon="-4.99503">
        <ele>55.513</ele>
        <time>2021-06-17T09:30:34Z</time>
      </trkpt>
      <trkpt lat="36.495582" lon="-4.995086">
        <ele>55.743</ele>
        <time>2021-06-17T09:30:43Z</time>
      </trkpt>
      <trkpt lat="36.495545" lon="-4.995119">
        <ele>55.907</ele>
        <time>2021-06-17T09:31:30Z</time>
      </trkpt>
      <trkpt lat="36.4955" lon="-4.995109">
        <ele>56.008</ele>
        <time>2021-06-17T09:31:47Z</time>
      </trkpt>
      <trkpt lat="36.495538" lon="-4.995074">
        <ele>56.148</ele>
        <time>2021-06-17T09:32:23Z</time>
      </trkpt>
      <trkpt lat="36.495586" lon="-4.995067">
        <ele>56.157</ele>
        <time>2021-06-17T09:32:30Z</time>
      </trkpt>
      <trkpt lat="36.495653" lon="-4.995028">
        <ele>56.161</ele>
        <time>2021-06-17T09:32:33Z</time>
      </trkpt>
      <trkpt lat="36.4957" lon="-4.995002">
        <ele>56.134</ele>
        <time>2021-06-17T09:32:35Z</time>
      </trkpt>
      <trkpt lat="36.495682" lon="-4.994938">
        <ele>56.134</ele>
        <time>2021-06-17T09:32:48Z</time>
      </trkpt>
      <trkpt lat="36.495647" lon="-4.994897">
        <ele>56.185</ele>
        <time>2021-06-17T09:32:53Z</time>
      </trkpt>
      <trkpt lat="36.4956" lon="-4.994917">
        <ele>56.114</ele>
        <time>2021-06-17T09:32:59Z</time>
      </trkpt>
      <trkpt lat="36.495565" lon="-4.994953">
        <ele>56.171</ele>
        <time>2021-06-17T09:33:05Z</time>
      </trkpt>
      <trkpt lat="36.495549" lon="-4.995007">
        <ele>56.152</ele>
        <time>2021-06-17T09:33:19Z</time>
      </trkpt>
      <trkpt lat="36.495588" lon="-4.994977">
        <ele>56.253</ele>
        <time>2021-06-17T09:33:57Z</time>
      </trkpt>
      <trkpt lat="36.495543" lon="-4.994984">
        <ele>56.008</ele>
        <time>2021-06-17T09:34:45Z</time>
      </trkpt>
      <trkpt lat="36.495536" lon="-4.995043">
        <ele>55.908</ele>
        <time>2021-06-17T09:35:47Z</time>
      </trkpt>
      <trkpt lat="36.495575" lon="-4.99507">
        <ele>55.922</ele>
        <time>2021-06-17T09:37:35Z</time>
      </trkpt>
      <trkpt lat="36.495607" lon="-4.995027">
        <ele>55.991</ele>
        <time>2021-06-17T09:37:56Z</time>
      </trkpt>
      <trkpt lat="36.495585" lon="-4.995076">
        <ele>55.995</ele>
        <time>2021-06-17T09:38:20Z</time>
      </trkpt>
      <trkpt lat="36.495627" lon="-4.995036">
        <ele>56.088</ele>
        <time>2021-06-17T09:39:26Z</time>
      </trkpt>
      <trkpt lat="36.495694" lon="-4.995023">
        <ele>56.068</ele>
        <time>2021-06-17T09:39:29Z</time>
      </trkpt>
      <trkpt lat="36.495746" lon="-4.995017">
        <ele>56.059</ele>
        <time>2021-06-17T09:39:31Z</time>
      </trkpt>
      <trkpt lat="36.495692" lon="-4.995009">
        <ele>56.048</ele>
        <time>2021-06-17T09:39:34Z</time>
      </trkpt>
      <trkpt lat="36.495723" lon="-4.994953">
        <ele>56.015</ele>
        <time>2021-06-17T09:39:47Z</time>
      </trkpt>
      <trkpt lat="36.495767" lon="-4.994918">
        <ele>56.015</ele>
        <time>2021-06-17T09:39:49Z</time>
      </trkpt>
      <trkpt lat="36.495812" lon="-4.994895">
        <ele>56.065</ele>
        <time>2021-06-17T09:39:52Z</time>
      </trkpt>
      <trkpt lat="36.495853" lon="-4.994844">
        <ele>56.011</ele>
        <time>2021-06-17T09:39:55Z</time>
      </trkpt>
      <trkpt lat="36.495884" lon="-4.994802">
        <ele>55.908</ele>
        <time>2021-06-17T09:40:01Z</time>
      </trkpt>
      <trkpt lat="36.495899" lon="-4.994856">
        <ele>55.958</ele>
        <time>2021-06-17T09:40:07Z</time>
      </trkpt>
      <trkpt lat="36.495914" lon="-4.994918">
        <ele>55.927</ele>
        <time>2021-06-17T09:40:10Z</time>
      </trkpt>
      <trkpt lat="36.495959" lon="-4.994933">
        <ele>55.941</ele>
        <time>2021-06-17T09:40:27Z</time>
      </trkpt>
      <trkpt lat="36.495924" lon="-4.994974">
        <ele>55.914</ele>
        <time>2021-06-17T09:42:23Z</time>
      </trkpt>
      <trkpt lat="36.495985" lon="-4.994984">
        <ele>55.964</ele>
        <time>2021-06-17T09:42:29Z</time>
      </trkpt>
      <trkpt lat="36.495932" lon="-4.994982">
        <ele>56.025</ele>
        <time>2021-06-17T09:46:27Z</time>
      </trkpt>
      <trkpt lat="36.495982" lon="-4.994992">
        <ele>56.124</ele>
        <time>2021-06-17T09:46:34Z</time>
      </trkpt>
      <trkpt lat="36.495931" lon="-4.994985">
        <ele>56.061</ele>
        <time>2021-06-17T09:47:18Z</time>
      </trkpt>
      <trkpt lat="36.495984" lon="-4.994994">
        <ele>56.098</ele>
        <time>2021-06-17T09:47:30Z</time>
      </trkpt>
      <trkpt lat="36.496015" lon="-4.994941">
        <ele>56.015</ele>
        <time>2021-06-17T09:48:58Z</time>
      </trkpt>
      <trkpt lat="36.496023" lon="-4.995001">
        <ele>56.026</ele>
        <time>2021-06-17T09:49:02Z</time>
      </trkpt>
      <trkpt lat="36.496015" lon="-4.994945">
        <ele>56.008</ele>
        <time>2021-06-17T09:49:11Z</time>
      </trkpt>
      <trkpt lat="36.495955" lon="-4.994965">
        <ele>56.096</ele>
        <time>2021-06-17T09:49:19Z</time>
      </trkpt>
      <trkpt lat="36.495914" lon="-4.994992">
        <ele>56.175</ele>
        <time>2021-06-17T09:49:21Z</time>
      </trkpt>
      <trkpt lat="36.495952" lon="-4.994946">
        <ele>56.229</ele>
        <time>2021-06-17T09:49:32Z</time>
      </trkpt>
      <trkpt lat="36.496002" lon="-4.994922">
        <ele>56.262</ele>
        <time>2021-06-17T09:49:34Z</time>
      </trkpt>
      <trkpt lat="36.495956" lon="-4.994942">
        <ele>56.112</ele>
        <time>2021-06-17T09:55:02Z</time>
      </trkpt>
      <trkpt lat="36.495909" lon="-4.99496">
        <ele>56.043</ele>
        <time>2021-06-17T09:59:38Z</time>
      </trkpt>
      <trkpt lat="36.49595" lon="-4.994935">
        <ele>55.952</ele>
        <time>2021-06-17T09:59:43Z</time>
      </trkpt>
      <trkpt lat="36.495906" lon="-4.994959">
        <ele>55.949</ele>
        <time>2021-06-17T10:02:17Z</time>
      </trkpt>
    </trkseg>
  </trk>
</gpx>
